<?xml version="1.0" encoding="UTF-8" standalone="no" ?>
<gpx xmlns="http://www.topografix.com/GPX/1/1" xmlns:xsi="http://www.w3.org/2001/XMLSchema-instance" xsi:schemaLocation="http://www.topografix.com/GPX/1/1 http://www.topografix.com/GPX/1/1/gpx.xsd" version="1.1" creator="VisuGPX - https://www.visugpx.com">
  <metadata>
    <name>Randonnée dans l'après-midi</name>
  </metadata>
  <trk>
    <name><![CDATA[Randonnée dans l'après-midi_1]]></name>
    <trkseg>
      <trkpt lat="43.01818" lon="0.17814">
        <ele>656.9</ele>
        <time>2023-11-19T09:02:16Z</time>
      </trkpt>
      <trkpt lat="43.01824" lon="0.17826">
        <ele>657.1</ele>
        <time>2023-11-19T09:02:17Z</time>
      </trkpt>
      <trkpt lat="43.01824" lon="0.17826">
        <ele>657.1</ele>
        <time>2023-11-19T09:02:18Z</time>
      </trkpt>
      <trkpt lat="43.01823" lon="0.17827">
        <ele>657.1</ele>
        <time>2023-11-19T09:02:19Z</time>
      </trkpt>
      <trkpt lat="43.01823" lon="0.17827">
        <ele>657.1</ele>
        <time>2023-11-19T09:02:20Z</time>
      </trkpt>
      <trkpt lat="43.01823" lon="0.17828">
        <ele>657.1</ele>
        <time>2023-11-19T09:02:21Z</time>
      </trkpt>
      <trkpt lat="43.01822" lon="0.17828">
        <ele>657.1</ele>
        <time>2023-11-19T09:02:22Z</time>
      </trkpt>
      <trkpt lat="43.01822" lon="0.17829">
        <ele>657.1</ele>
        <time>2023-11-19T09:02:23Z</time>
      </trkpt>
      <trkpt lat="43.01822" lon="0.17829">
        <ele>657.1</ele>
        <time>2023-11-19T09:02:24Z</time>
      </trkpt>
      <trkpt lat="43.01822" lon="0.1783">
        <ele>657.1</ele>
        <time>2023-11-19T09:02:25Z</time>
      </trkpt>
      <trkpt lat="43.01821" lon="0.1783">
        <ele>657.2</ele>
        <time>2023-11-19T09:02:26Z</time>
      </trkpt>
      <trkpt lat="43.01821" lon="0.1783">
        <ele>657.2</ele>
        <time>2023-11-19T09:02:27Z</time>
      </trkpt>
      <trkpt lat="43.01821" lon="0.1783">
        <ele>657.2</ele>
        <time>2023-11-19T09:02:28Z</time>
      </trkpt>
      <trkpt lat="43.01821" lon="0.1783">
        <ele>657.2</ele>
        <time>2023-11-19T09:02:29Z</time>
      </trkpt>
      <trkpt lat="43.01821" lon="0.1783">
        <ele>657.2</ele>
        <time>2023-11-19T09:02:30Z</time>
      </trkpt>
      <trkpt lat="43.01821" lon="0.17829">
        <ele>657.2</ele>
        <time>2023-11-19T09:02:31Z</time>
      </trkpt>
      <trkpt lat="43.01821" lon="0.17829">
        <ele>657.2</ele>
        <time>2023-11-19T09:02:32Z</time>
      </trkpt>
      <trkpt lat="43.01821" lon="0.17829">
        <ele>657.2</ele>
        <time>2023-11-19T09:02:33Z</time>
      </trkpt>
      <trkpt lat="43.01821" lon="0.17829">
        <ele>657.2</ele>
        <time>2023-11-19T09:02:34Z</time>
      </trkpt>
      <trkpt lat="43.01821" lon="0.17829">
        <ele>657.2</ele>
        <time>2023-11-19T09:02:35Z</time>
      </trkpt>
      <trkpt lat="43.01821" lon="0.17829">
        <ele>657.2</ele>
        <time>2023-11-19T09:02:36Z</time>
      </trkpt>
      <trkpt lat="43.01821" lon="0.17829">
        <ele>657.2</ele>
        <time>2023-11-19T09:02:37Z</time>
      </trkpt>
      <trkpt lat="43.01821" lon="0.17829">
        <ele>657.2</ele>
        <time>2023-11-19T09:02:38Z</time>
      </trkpt>
      <trkpt lat="43.01821" lon="0.17828">
        <ele>657.2</ele>
        <time>2023-11-19T09:02:39Z</time>
      </trkpt>
      <trkpt lat="43.01821" lon="0.17828">
        <ele>657.2</ele>
        <time>2023-11-19T09:02:40Z</time>
      </trkpt>
      <trkpt lat="43.01821" lon="0.17828">
        <ele>657.2</ele>
        <time>2023-11-19T09:02:41Z</time>
      </trkpt>
      <trkpt lat="43.01821" lon="0.17828">
        <ele>657.2</ele>
        <time>2023-11-19T09:02:42Z</time>
      </trkpt>
      <trkpt lat="43.0182" lon="0.17828">
        <ele>657.2</ele>
        <time>2023-11-19T09:02:43Z</time>
      </trkpt>
      <trkpt lat="43.0182" lon="0.17828">
        <ele>657.2</ele>
        <time>2023-11-19T09:02:44Z</time>
      </trkpt>
      <trkpt lat="43.0182" lon="0.17828">
        <ele>657.2</ele>
        <time>2023-11-19T09:02:45Z</time>
      </trkpt>
      <trkpt lat="43.0182" lon="0.17828">
        <ele>657.2</ele>
        <time>2023-11-19T09:02:46Z</time>
      </trkpt>
      <trkpt lat="43.0182" lon="0.17828">
        <ele>657.2</ele>
        <time>2023-11-19T09:02:47Z</time>
      </trkpt>
      <trkpt lat="43.0182" lon="0.17827">
        <ele>657.2</ele>
        <time>2023-11-19T09:02:48Z</time>
      </trkpt>
      <trkpt lat="43.0182" lon="0.17827">
        <ele>657.2</ele>
        <time>2023-11-19T09:02:49Z</time>
      </trkpt>
      <trkpt lat="43.0182" lon="0.17827">
        <ele>657.2</ele>
        <time>2023-11-19T09:02:50Z</time>
      </trkpt>
      <trkpt lat="43.0182" lon="0.17827">
        <ele>657.2</ele>
        <time>2023-11-19T09:02:51Z</time>
      </trkpt>
      <trkpt lat="43.0182" lon="0.17827">
        <ele>657.2</ele>
        <time>2023-11-19T09:02:52Z</time>
      </trkpt>
      <trkpt lat="43.0182" lon="0.17827">
        <ele>657.2</ele>
        <time>2023-11-19T09:02:53Z</time>
      </trkpt>
      <trkpt lat="43.0182" lon="0.17827">
        <ele>657.2</ele>
        <time>2023-11-19T09:02:54Z</time>
      </trkpt>
      <trkpt lat="43.0182" lon="0.17827">
        <ele>657.2</ele>
        <time>2023-11-19T09:02:55Z</time>
      </trkpt>
      <trkpt lat="43.0182" lon="0.17826">
        <ele>657.2</ele>
        <time>2023-11-19T09:02:56Z</time>
      </trkpt>
      <trkpt lat="43.0182" lon="0.17826">
        <ele>657.2</ele>
        <time>2023-11-19T09:02:57Z</time>
      </trkpt>
      <trkpt lat="43.0182" lon="0.17826">
        <ele>657.2</ele>
        <time>2023-11-19T09:02:58Z</time>
      </trkpt>
      <trkpt lat="43.0182" lon="0.17826">
        <ele>657.2</ele>
        <time>2023-11-19T09:02:59Z</time>
      </trkpt>
      <trkpt lat="43.0182" lon="0.17826">
        <ele>657.2</ele>
        <time>2023-11-19T09:03:00Z</time>
      </trkpt>
      <trkpt lat="43.0182" lon="0.17826">
        <ele>657.2</ele>
        <time>2023-11-19T09:03:01Z</time>
      </trkpt>
      <trkpt lat="43.0182" lon="0.17826">
        <ele>657.2</ele>
        <time>2023-11-19T09:03:02Z</time>
      </trkpt>
      <trkpt lat="43.0182" lon="0.17826">
        <ele>657.2</ele>
        <time>2023-11-19T09:03:03Z</time>
      </trkpt>
      <trkpt lat="43.01819" lon="0.17825">
        <ele>657.2</ele>
        <time>2023-11-19T09:03:04Z</time>
      </trkpt>
      <trkpt lat="43.0182" lon="0.17825">
        <ele>657.2</ele>
        <time>2023-11-19T09:03:05Z</time>
      </trkpt>
      <trkpt lat="43.01819" lon="0.17826">
        <ele>657.2</ele>
        <time>2023-11-19T09:03:06Z</time>
      </trkpt>
      <trkpt lat="43.01818" lon="0.17826">
        <ele>657.2</ele>
        <time>2023-11-19T09:03:07Z</time>
      </trkpt>
      <trkpt lat="43.01817" lon="0.17827">
        <ele>657.3</ele>
        <time>2023-11-19T09:03:08Z</time>
      </trkpt>
      <trkpt lat="43.01816" lon="0.17827">
        <ele>657.3</ele>
        <time>2023-11-19T09:03:09Z</time>
      </trkpt>
      <trkpt lat="43.01815" lon="0.17827">
        <ele>657.3</ele>
        <time>2023-11-19T09:03:10Z</time>
      </trkpt>
      <trkpt lat="43.01812" lon="0.17828">
        <ele>657.3</ele>
        <time>2023-11-19T09:03:11Z</time>
      </trkpt>
      <trkpt lat="43.0181" lon="0.17829">
        <ele>657.4</ele>
        <time>2023-11-19T09:03:12Z</time>
      </trkpt>
      <trkpt lat="43.01808" lon="0.17831">
        <ele>657.4</ele>
        <time>2023-11-19T09:03:13Z</time>
      </trkpt>
      <trkpt lat="43.01807" lon="0.17831">
        <ele>657.4</ele>
        <time>2023-11-19T09:03:14Z</time>
      </trkpt>
      <trkpt lat="43.01805" lon="0.17831">
        <ele>657.4</ele>
        <time>2023-11-19T09:03:15Z</time>
      </trkpt>
      <trkpt lat="43.01804" lon="0.17831">
        <ele>657.4</ele>
        <time>2023-11-19T09:03:16Z</time>
      </trkpt>
      <trkpt lat="43.01803" lon="0.17831">
        <ele>657.4</ele>
        <time>2023-11-19T09:03:17Z</time>
      </trkpt>
      <trkpt lat="43.01802" lon="0.17831">
        <ele>657.5</ele>
        <time>2023-11-19T09:03:18Z</time>
      </trkpt>
      <trkpt lat="43.01801" lon="0.1783">
        <ele>657.5</ele>
        <time>2023-11-19T09:03:19Z</time>
      </trkpt>
      <trkpt lat="43.018" lon="0.1783">
        <ele>657.5</ele>
        <time>2023-11-19T09:03:20Z</time>
      </trkpt>
      <trkpt lat="43.01799" lon="0.17829">
        <ele>657.5</ele>
        <time>2023-11-19T09:03:21Z</time>
      </trkpt>
      <trkpt lat="43.01798" lon="0.17829">
        <ele>657.5</ele>
        <time>2023-11-19T09:03:22Z</time>
      </trkpt>
      <trkpt lat="43.01797" lon="0.17828">
        <ele>657.6</ele>
        <time>2023-11-19T09:03:23Z</time>
      </trkpt>
      <trkpt lat="43.01796" lon="0.17828">
        <ele>657.6</ele>
        <time>2023-11-19T09:03:24Z</time>
      </trkpt>
      <trkpt lat="43.01795" lon="0.17828">
        <ele>657.6</ele>
        <time>2023-11-19T09:03:25Z</time>
      </trkpt>
      <trkpt lat="43.01794" lon="0.17828">
        <ele>657.6</ele>
        <time>2023-11-19T09:03:26Z</time>
      </trkpt>
      <trkpt lat="43.01793" lon="0.17828">
        <ele>657.6</ele>
        <time>2023-11-19T09:03:27Z</time>
      </trkpt>
      <trkpt lat="43.01792" lon="0.17828">
        <ele>657.7</ele>
        <time>2023-11-19T09:03:28Z</time>
      </trkpt>
      <trkpt lat="43.0179" lon="0.17828">
        <ele>657.7</ele>
        <time>2023-11-19T09:03:29Z</time>
      </trkpt>
      <trkpt lat="43.01788" lon="0.17828">
        <ele>657.7</ele>
        <time>2023-11-19T09:03:30Z</time>
      </trkpt>
      <trkpt lat="43.01787" lon="0.17828">
        <ele>657.8</ele>
        <time>2023-11-19T09:03:31Z</time>
      </trkpt>
      <trkpt lat="43.01786" lon="0.17829">
        <ele>657.8</ele>
        <time>2023-11-19T09:03:32Z</time>
      </trkpt>
      <trkpt lat="43.01785" lon="0.17829">
        <ele>657.8</ele>
        <time>2023-11-19T09:03:33Z</time>
      </trkpt>
      <trkpt lat="43.01784" lon="0.17829">
        <ele>657.8</ele>
        <time>2023-11-19T09:03:34Z</time>
      </trkpt>
      <trkpt lat="43.01783" lon="0.1783">
        <ele>657.9</ele>
        <time>2023-11-19T09:03:35Z</time>
      </trkpt>
      <trkpt lat="43.01782" lon="0.17831">
        <ele>657.9</ele>
        <time>2023-11-19T09:03:36Z</time>
      </trkpt>
      <trkpt lat="43.01781" lon="0.17832">
        <ele>657.9</ele>
        <time>2023-11-19T09:03:37Z</time>
      </trkpt>
      <trkpt lat="43.01781" lon="0.17831">
        <ele>657.9</ele>
        <time>2023-11-19T09:03:38Z</time>
      </trkpt>
      <trkpt lat="43.0178" lon="0.17831">
        <ele>657.9</ele>
        <time>2023-11-19T09:03:39Z</time>
      </trkpt>
      <trkpt lat="43.0178" lon="0.17831">
        <ele>657.9</ele>
        <time>2023-11-19T09:03:40Z</time>
      </trkpt>
      <trkpt lat="43.0178" lon="0.1783">
        <ele>657.9</ele>
        <time>2023-11-19T09:03:41Z</time>
      </trkpt>
      <trkpt lat="43.01779" lon="0.17832">
        <ele>658</ele>
        <time>2023-11-19T09:03:42Z</time>
      </trkpt>
      <trkpt lat="43.01778" lon="0.17834">
        <ele>658</ele>
        <time>2023-11-19T09:03:43Z</time>
      </trkpt>
      <trkpt lat="43.01777" lon="0.17835">
        <ele>658</ele>
        <time>2023-11-19T09:03:44Z</time>
      </trkpt>
      <trkpt lat="43.01776" lon="0.17835">
        <ele>658.1</ele>
        <time>2023-11-19T09:03:45Z</time>
      </trkpt>
      <trkpt lat="43.01775" lon="0.17836">
        <ele>658.1</ele>
        <time>2023-11-19T09:03:46Z</time>
      </trkpt>
      <trkpt lat="43.01775" lon="0.17837">
        <ele>658.1</ele>
        <time>2023-11-19T09:03:47Z</time>
      </trkpt>
      <trkpt lat="43.01774" lon="0.17837">
        <ele>658.1</ele>
        <time>2023-11-19T09:03:48Z</time>
      </trkpt>
      <trkpt lat="43.01773" lon="0.17838">
        <ele>658.1</ele>
        <time>2023-11-19T09:03:49Z</time>
      </trkpt>
      <trkpt lat="43.01772" lon="0.1784">
        <ele>658.2</ele>
        <time>2023-11-19T09:03:50Z</time>
      </trkpt>
      <trkpt lat="43.01771" lon="0.1784">
        <ele>658.2</ele>
        <time>2023-11-19T09:03:51Z</time>
      </trkpt>
      <trkpt lat="43.01771" lon="0.17841">
        <ele>658.2</ele>
        <time>2023-11-19T09:03:52Z</time>
      </trkpt>
      <trkpt lat="43.0177" lon="0.17842">
        <ele>658.2</ele>
        <time>2023-11-19T09:03:53Z</time>
      </trkpt>
      <trkpt lat="43.01769" lon="0.17843">
        <ele>658.2</ele>
        <time>2023-11-19T09:03:54Z</time>
      </trkpt>
      <trkpt lat="43.01768" lon="0.17844">
        <ele>658.3</ele>
        <time>2023-11-19T09:03:55Z</time>
      </trkpt>
      <trkpt lat="43.01767" lon="0.17845">
        <ele>658.3</ele>
        <time>2023-11-19T09:03:56Z</time>
      </trkpt>
      <trkpt lat="43.01766" lon="0.17845">
        <ele>658.3</ele>
        <time>2023-11-19T09:03:57Z</time>
      </trkpt>
      <trkpt lat="43.01765" lon="0.17847">
        <ele>658.3</ele>
        <time>2023-11-19T09:03:58Z</time>
      </trkpt>
      <trkpt lat="43.01764" lon="0.17848">
        <ele>658.4</ele>
        <time>2023-11-19T09:03:59Z</time>
      </trkpt>
      <trkpt lat="43.01763" lon="0.17849">
        <ele>658.4</ele>
        <time>2023-11-19T09:04:00Z</time>
      </trkpt>
      <trkpt lat="43.01763" lon="0.1785">
        <ele>658.4</ele>
        <time>2023-11-19T09:04:01Z</time>
      </trkpt>
      <trkpt lat="43.01762" lon="0.17851">
        <ele>658.4</ele>
        <time>2023-11-19T09:04:02Z</time>
      </trkpt>
      <trkpt lat="43.01761" lon="0.17853">
        <ele>658.4</ele>
        <time>2023-11-19T09:04:03Z</time>
      </trkpt>
      <trkpt lat="43.0176" lon="0.17853">
        <ele>658.4</ele>
        <time>2023-11-19T09:04:04Z</time>
      </trkpt>
      <trkpt lat="43.01759" lon="0.17854">
        <ele>658.5</ele>
        <time>2023-11-19T09:04:05Z</time>
      </trkpt>
      <trkpt lat="43.01758" lon="0.17855">
        <ele>658.5</ele>
        <time>2023-11-19T09:04:06Z</time>
      </trkpt>
      <trkpt lat="43.01757" lon="0.17856">
        <ele>658.5</ele>
        <time>2023-11-19T09:04:07Z</time>
      </trkpt>
      <trkpt lat="43.01756" lon="0.17858">
        <ele>658.5</ele>
        <time>2023-11-19T09:04:08Z</time>
      </trkpt>
      <trkpt lat="43.01755" lon="0.17858">
        <ele>658.6</ele>
        <time>2023-11-19T09:04:09Z</time>
      </trkpt>
      <trkpt lat="43.01753" lon="0.1786">
        <ele>658.6</ele>
        <time>2023-11-19T09:04:10Z</time>
      </trkpt>
      <trkpt lat="43.01752" lon="0.1786">
        <ele>658.6</ele>
        <time>2023-11-19T09:04:11Z</time>
      </trkpt>
      <trkpt lat="43.01751" lon="0.17861">
        <ele>658.6</ele>
        <time>2023-11-19T09:04:12Z</time>
      </trkpt>
      <trkpt lat="43.0175" lon="0.17862">
        <ele>658.7</ele>
        <time>2023-11-19T09:04:13Z</time>
      </trkpt>
      <trkpt lat="43.01749" lon="0.17862">
        <ele>658.7</ele>
        <time>2023-11-19T09:04:14Z</time>
      </trkpt>
      <trkpt lat="43.01748" lon="0.17863">
        <ele>658.7</ele>
        <time>2023-11-19T09:04:15Z</time>
      </trkpt>
      <trkpt lat="43.01747" lon="0.17865">
        <ele>658.7</ele>
        <time>2023-11-19T09:04:16Z</time>
      </trkpt>
      <trkpt lat="43.01746" lon="0.17865">
        <ele>658.7</ele>
        <time>2023-11-19T09:04:17Z</time>
      </trkpt>
      <trkpt lat="43.01745" lon="0.17866">
        <ele>658.8</ele>
        <time>2023-11-19T09:04:18Z</time>
      </trkpt>
      <trkpt lat="43.01743" lon="0.17867">
        <ele>658.8</ele>
        <time>2023-11-19T09:04:19Z</time>
      </trkpt>
      <trkpt lat="43.01743" lon="0.17868">
        <ele>658.8</ele>
        <time>2023-11-19T09:04:20Z</time>
      </trkpt>
      <trkpt lat="43.01742" lon="0.17868">
        <ele>658.8</ele>
        <time>2023-11-19T09:04:21Z</time>
      </trkpt>
      <trkpt lat="43.01741" lon="0.17869">
        <ele>658.8</ele>
        <time>2023-11-19T09:04:22Z</time>
      </trkpt>
      <trkpt lat="43.0174" lon="0.17869">
        <ele>658.9</ele>
        <time>2023-11-19T09:04:23Z</time>
      </trkpt>
      <trkpt lat="43.01739" lon="0.1787">
        <ele>658.9</ele>
        <time>2023-11-19T09:04:24Z</time>
      </trkpt>
      <trkpt lat="43.01737" lon="0.17872">
        <ele>658.9</ele>
        <time>2023-11-19T09:04:25Z</time>
      </trkpt>
      <trkpt lat="43.01736" lon="0.17872">
        <ele>658.9</ele>
        <time>2023-11-19T09:04:26Z</time>
      </trkpt>
      <trkpt lat="43.01736" lon="0.17873">
        <ele>659</ele>
        <time>2023-11-19T09:04:27Z</time>
      </trkpt>
      <trkpt lat="43.01734" lon="0.17874">
        <ele>659</ele>
        <time>2023-11-19T09:04:28Z</time>
      </trkpt>
      <trkpt lat="43.01733" lon="0.17875">
        <ele>659</ele>
        <time>2023-11-19T09:04:29Z</time>
      </trkpt>
      <trkpt lat="43.01733" lon="0.17875">
        <ele>659</ele>
        <time>2023-11-19T09:04:30Z</time>
      </trkpt>
      <trkpt lat="43.01731" lon="0.17876">
        <ele>659.1</ele>
        <time>2023-11-19T09:04:31Z</time>
      </trkpt>
      <trkpt lat="43.0173" lon="0.17877">
        <ele>659.1</ele>
        <time>2023-11-19T09:04:32Z</time>
      </trkpt>
      <trkpt lat="43.01729" lon="0.17877">
        <ele>659.1</ele>
        <time>2023-11-19T09:04:33Z</time>
      </trkpt>
      <trkpt lat="43.01728" lon="0.17878">
        <ele>659.1</ele>
        <time>2023-11-19T09:04:34Z</time>
      </trkpt>
      <trkpt lat="43.01728" lon="0.17879">
        <ele>659.1</ele>
        <time>2023-11-19T09:04:35Z</time>
      </trkpt>
      <trkpt lat="43.01727" lon="0.17879">
        <ele>659.2</ele>
        <time>2023-11-19T09:04:36Z</time>
      </trkpt>
      <trkpt lat="43.01726" lon="0.1788">
        <ele>659.2</ele>
        <time>2023-11-19T09:04:37Z</time>
      </trkpt>
      <trkpt lat="43.01725" lon="0.1788">
        <ele>659.2</ele>
        <time>2023-11-19T09:04:38Z</time>
      </trkpt>
      <trkpt lat="43.01724" lon="0.17881">
        <ele>659.2</ele>
        <time>2023-11-19T09:04:39Z</time>
      </trkpt>
      <trkpt lat="43.01723" lon="0.17882">
        <ele>659.2</ele>
        <time>2023-11-19T09:04:40Z</time>
      </trkpt>
      <trkpt lat="43.01722" lon="0.17882">
        <ele>659.3</ele>
        <time>2023-11-19T09:04:41Z</time>
      </trkpt>
      <trkpt lat="43.01721" lon="0.17883">
        <ele>659.3</ele>
        <time>2023-11-19T09:04:42Z</time>
      </trkpt>
      <trkpt lat="43.0172" lon="0.17883">
        <ele>659.3</ele>
        <time>2023-11-19T09:04:43Z</time>
      </trkpt>
      <trkpt lat="43.01719" lon="0.17884">
        <ele>659.3</ele>
        <time>2023-11-19T09:04:44Z</time>
      </trkpt>
      <trkpt lat="43.01718" lon="0.17885">
        <ele>659.3</ele>
        <time>2023-11-19T09:04:45Z</time>
      </trkpt>
      <trkpt lat="43.01718" lon="0.17886">
        <ele>659.3</ele>
        <time>2023-11-19T09:04:46Z</time>
      </trkpt>
      <trkpt lat="43.01718" lon="0.17886">
        <ele>659.3</ele>
        <time>2023-11-19T09:04:47Z</time>
      </trkpt>
      <trkpt lat="43.01717" lon="0.17886">
        <ele>659.2</ele>
        <time>2023-11-19T09:04:48Z</time>
      </trkpt>
      <trkpt lat="43.01717" lon="0.17887">
        <ele>659.2</ele>
        <time>2023-11-19T09:04:49Z</time>
      </trkpt>
      <trkpt lat="43.01717" lon="0.17888">
        <ele>659.1</ele>
        <time>2023-11-19T09:04:50Z</time>
      </trkpt>
      <trkpt lat="43.01716" lon="0.1789">
        <ele>659</ele>
        <time>2023-11-19T09:04:51Z</time>
      </trkpt>
      <trkpt lat="43.01715" lon="0.17892">
        <ele>658.9</ele>
        <time>2023-11-19T09:04:52Z</time>
      </trkpt>
      <trkpt lat="43.01715" lon="0.17894">
        <ele>658.8</ele>
        <time>2023-11-19T09:04:53Z</time>
      </trkpt>
      <trkpt lat="43.01715" lon="0.17895">
        <ele>658.7</ele>
        <time>2023-11-19T09:04:54Z</time>
      </trkpt>
      <trkpt lat="43.01713" lon="0.17897">
        <ele>658.6</ele>
        <time>2023-11-19T09:04:55Z</time>
      </trkpt>
      <trkpt lat="43.01713" lon="0.17898">
        <ele>658.5</ele>
        <time>2023-11-19T09:04:56Z</time>
      </trkpt>
      <trkpt lat="43.01713" lon="0.17899">
        <ele>658.4</ele>
        <time>2023-11-19T09:04:57Z</time>
      </trkpt>
      <trkpt lat="43.01711" lon="0.17901">
        <ele>658.3</ele>
        <time>2023-11-19T09:04:58Z</time>
      </trkpt>
      <trkpt lat="43.01711" lon="0.17902">
        <ele>658.2</ele>
        <time>2023-11-19T09:04:59Z</time>
      </trkpt>
      <trkpt lat="43.0171" lon="0.17903">
        <ele>658.1</ele>
        <time>2023-11-19T09:05:00Z</time>
      </trkpt>
      <trkpt lat="43.01709" lon="0.17906">
        <ele>658</ele>
        <time>2023-11-19T09:05:01Z</time>
      </trkpt>
      <trkpt lat="43.01709" lon="0.17906">
        <ele>657.9</ele>
        <time>2023-11-19T09:05:02Z</time>
      </trkpt>
      <trkpt lat="43.01708" lon="0.17907">
        <ele>657.8</ele>
        <time>2023-11-19T09:05:03Z</time>
      </trkpt>
      <trkpt lat="43.01707" lon="0.1791">
        <ele>657.7</ele>
        <time>2023-11-19T09:05:04Z</time>
      </trkpt>
      <trkpt lat="43.01707" lon="0.17911">
        <ele>657.6</ele>
        <time>2023-11-19T09:05:05Z</time>
      </trkpt>
      <trkpt lat="43.01707" lon="0.17912">
        <ele>657.6</ele>
        <time>2023-11-19T09:05:06Z</time>
      </trkpt>
      <trkpt lat="43.01705" lon="0.17914">
        <ele>657.5</ele>
        <time>2023-11-19T09:05:07Z</time>
      </trkpt>
      <trkpt lat="43.01705" lon="0.17915">
        <ele>657.4</ele>
        <time>2023-11-19T09:05:08Z</time>
      </trkpt>
      <trkpt lat="43.01705" lon="0.17916">
        <ele>657.4</ele>
        <time>2023-11-19T09:05:09Z</time>
      </trkpt>
      <trkpt lat="43.01704" lon="0.17918">
        <ele>657.3</ele>
        <time>2023-11-19T09:05:10Z</time>
      </trkpt>
      <trkpt lat="43.01703" lon="0.1792">
        <ele>657.2</ele>
        <time>2023-11-19T09:05:11Z</time>
      </trkpt>
      <trkpt lat="43.01702" lon="0.17922">
        <ele>657.1</ele>
        <time>2023-11-19T09:05:12Z</time>
      </trkpt>
      <trkpt lat="43.01702" lon="0.17924">
        <ele>657.1</ele>
        <time>2023-11-19T09:05:13Z</time>
      </trkpt>
      <trkpt lat="43.01702" lon="0.17925">
        <ele>657</ele>
        <time>2023-11-19T09:05:14Z</time>
      </trkpt>
      <trkpt lat="43.017" lon="0.17926">
        <ele>657</ele>
        <time>2023-11-19T09:05:15Z</time>
      </trkpt>
      <trkpt lat="43.01699" lon="0.17927">
        <ele>656.9</ele>
        <time>2023-11-19T09:05:16Z</time>
      </trkpt>
      <trkpt lat="43.01698" lon="0.17928">
        <ele>656.9</ele>
        <time>2023-11-19T09:05:17Z</time>
      </trkpt>
      <trkpt lat="43.01697" lon="0.1793">
        <ele>656.8</ele>
        <time>2023-11-19T09:05:18Z</time>
      </trkpt>
      <trkpt lat="43.01696" lon="0.17931">
        <ele>656.8</ele>
        <time>2023-11-19T09:05:19Z</time>
      </trkpt>
      <trkpt lat="43.01696" lon="0.17932">
        <ele>656.8</ele>
        <time>2023-11-19T09:05:20Z</time>
      </trkpt>
      <trkpt lat="43.01695" lon="0.17935">
        <ele>656.7</ele>
        <time>2023-11-19T09:05:21Z</time>
      </trkpt>
      <trkpt lat="43.01694" lon="0.17935">
        <ele>656.7</ele>
        <time>2023-11-19T09:05:22Z</time>
      </trkpt>
      <trkpt lat="43.01694" lon="0.17936">
        <ele>656.7</ele>
        <time>2023-11-19T09:05:23Z</time>
      </trkpt>
      <trkpt lat="43.01693" lon="0.17938">
        <ele>656.6</ele>
        <time>2023-11-19T09:05:24Z</time>
      </trkpt>
      <trkpt lat="43.01692" lon="0.17939">
        <ele>656.6</ele>
        <time>2023-11-19T09:05:25Z</time>
      </trkpt>
      <trkpt lat="43.01692" lon="0.1794">
        <ele>656.6</ele>
        <time>2023-11-19T09:05:26Z</time>
      </trkpt>
      <trkpt lat="43.0169" lon="0.17942">
        <ele>656.5</ele>
        <time>2023-11-19T09:05:27Z</time>
      </trkpt>
      <trkpt lat="43.01689" lon="0.17942">
        <ele>656.5</ele>
        <time>2023-11-19T09:05:28Z</time>
      </trkpt>
      <trkpt lat="43.01689" lon="0.17943">
        <ele>656.5</ele>
        <time>2023-11-19T09:05:29Z</time>
      </trkpt>
      <trkpt lat="43.01687" lon="0.17945">
        <ele>656.5</ele>
        <time>2023-11-19T09:05:30Z</time>
      </trkpt>
      <trkpt lat="43.01687" lon="0.17946">
        <ele>656.5</ele>
        <time>2023-11-19T09:05:31Z</time>
      </trkpt>
      <trkpt lat="43.01687" lon="0.17947">
        <ele>656.5</ele>
        <time>2023-11-19T09:05:32Z</time>
      </trkpt>
      <trkpt lat="43.01686" lon="0.17949">
        <ele>656.4</ele>
        <time>2023-11-19T09:05:33Z</time>
      </trkpt>
      <trkpt lat="43.01685" lon="0.1795">
        <ele>656.4</ele>
        <time>2023-11-19T09:05:34Z</time>
      </trkpt>
      <trkpt lat="43.01684" lon="0.1795">
        <ele>656.4</ele>
        <time>2023-11-19T09:05:35Z</time>
      </trkpt>
      <trkpt lat="43.01683" lon="0.17952">
        <ele>656.4</ele>
        <time>2023-11-19T09:05:36Z</time>
      </trkpt>
      <trkpt lat="43.01682" lon="0.17953">
        <ele>656.4</ele>
        <time>2023-11-19T09:05:37Z</time>
      </trkpt>
      <trkpt lat="43.01682" lon="0.17954">
        <ele>656.4</ele>
        <time>2023-11-19T09:05:38Z</time>
      </trkpt>
      <trkpt lat="43.0168" lon="0.17955">
        <ele>656.3</ele>
        <time>2023-11-19T09:05:39Z</time>
      </trkpt>
      <trkpt lat="43.01679" lon="0.17956">
        <ele>656.3</ele>
        <time>2023-11-19T09:05:40Z</time>
      </trkpt>
      <trkpt lat="43.01678" lon="0.17957">
        <ele>656.3</ele>
        <time>2023-11-19T09:05:41Z</time>
      </trkpt>
      <trkpt lat="43.01676" lon="0.17958">
        <ele>656.3</ele>
        <time>2023-11-19T09:05:42Z</time>
      </trkpt>
      <trkpt lat="43.01676" lon="0.17959">
        <ele>656.2</ele>
        <time>2023-11-19T09:05:43Z</time>
      </trkpt>
      <trkpt lat="43.01675" lon="0.17959">
        <ele>656.2</ele>
        <time>2023-11-19T09:05:44Z</time>
      </trkpt>
      <trkpt lat="43.01674" lon="0.17961">
        <ele>656.2</ele>
        <time>2023-11-19T09:05:45Z</time>
      </trkpt>
      <trkpt lat="43.01674" lon="0.17963">
        <ele>656.2</ele>
        <time>2023-11-19T09:05:46Z</time>
      </trkpt>
      <trkpt lat="43.01672" lon="0.17965">
        <ele>656.1</ele>
        <time>2023-11-19T09:05:47Z</time>
      </trkpt>
      <trkpt lat="43.01671" lon="0.17966">
        <ele>656.1</ele>
        <time>2023-11-19T09:05:48Z</time>
      </trkpt>
      <trkpt lat="43.0167" lon="0.17967">
        <ele>656.1</ele>
        <time>2023-11-19T09:05:49Z</time>
      </trkpt>
      <trkpt lat="43.01669" lon="0.17968">
        <ele>656</ele>
        <time>2023-11-19T09:05:50Z</time>
      </trkpt>
      <trkpt lat="43.01668" lon="0.17969">
        <ele>656</ele>
        <time>2023-11-19T09:05:51Z</time>
      </trkpt>
      <trkpt lat="43.01668" lon="0.1797">
        <ele>656</ele>
        <time>2023-11-19T09:05:52Z</time>
      </trkpt>
      <trkpt lat="43.01668" lon="0.17972">
        <ele>656</ele>
        <time>2023-11-19T09:05:53Z</time>
      </trkpt>
      <trkpt lat="43.01669" lon="0.17974">
        <ele>656</ele>
        <time>2023-11-19T09:05:54Z</time>
      </trkpt>
      <trkpt lat="43.0167" lon="0.17975">
        <ele>656</ele>
        <time>2023-11-19T09:05:55Z</time>
      </trkpt>
      <trkpt lat="43.0167" lon="0.17977">
        <ele>656</ele>
        <time>2023-11-19T09:05:56Z</time>
      </trkpt>
      <trkpt lat="43.01671" lon="0.17977">
        <ele>655.9</ele>
        <time>2023-11-19T09:05:57Z</time>
      </trkpt>
      <trkpt lat="43.01672" lon="0.17978">
        <ele>655.9</ele>
        <time>2023-11-19T09:05:58Z</time>
      </trkpt>
      <trkpt lat="43.01672" lon="0.1798">
        <ele>655.9</ele>
        <time>2023-11-19T09:05:59Z</time>
      </trkpt>
      <trkpt lat="43.01673" lon="0.17982">
        <ele>655.9</ele>
        <time>2023-11-19T09:06:00Z</time>
      </trkpt>
      <trkpt lat="43.01674" lon="0.17983">
        <ele>655.9</ele>
        <time>2023-11-19T09:06:01Z</time>
      </trkpt>
      <trkpt lat="43.01674" lon="0.17984">
        <ele>655.9</ele>
        <time>2023-11-19T09:06:02Z</time>
      </trkpt>
      <trkpt lat="43.01675" lon="0.17985">
        <ele>655.9</ele>
        <time>2023-11-19T09:06:03Z</time>
      </trkpt>
      <trkpt lat="43.01676" lon="0.17986">
        <ele>655.8</ele>
        <time>2023-11-19T09:06:04Z</time>
      </trkpt>
      <trkpt lat="43.01676" lon="0.17988">
        <ele>655.8</ele>
        <time>2023-11-19T09:06:05Z</time>
      </trkpt>
      <trkpt lat="43.01677" lon="0.17989">
        <ele>655.8</ele>
        <time>2023-11-19T09:06:06Z</time>
      </trkpt>
      <trkpt lat="43.01679" lon="0.1799">
        <ele>655.7</ele>
        <time>2023-11-19T09:06:07Z</time>
      </trkpt>
      <trkpt lat="43.0168" lon="0.1799">
        <ele>655.7</ele>
        <time>2023-11-19T09:06:08Z</time>
      </trkpt>
      <trkpt lat="43.01681" lon="0.1799">
        <ele>655.7</ele>
        <time>2023-11-19T09:06:09Z</time>
      </trkpt>
      <trkpt lat="43.01681" lon="0.17992">
        <ele>655.7</ele>
        <time>2023-11-19T09:06:10Z</time>
      </trkpt>
      <trkpt lat="43.01682" lon="0.17992">
        <ele>655.7</ele>
        <time>2023-11-19T09:06:11Z</time>
      </trkpt>
      <trkpt lat="43.01684" lon="0.17993">
        <ele>655.6</ele>
        <time>2023-11-19T09:06:12Z</time>
      </trkpt>
      <trkpt lat="43.01685" lon="0.17994">
        <ele>655.6</ele>
        <time>2023-11-19T09:06:13Z</time>
      </trkpt>
      <trkpt lat="43.01686" lon="0.17994">
        <ele>655.6</ele>
        <time>2023-11-19T09:06:14Z</time>
      </trkpt>
      <trkpt lat="43.01687" lon="0.17994">
        <ele>655.6</ele>
        <time>2023-11-19T09:06:15Z</time>
      </trkpt>
      <trkpt lat="43.01688" lon="0.17994">
        <ele>655.6</ele>
        <time>2023-11-19T09:06:16Z</time>
      </trkpt>
      <trkpt lat="43.01689" lon="0.17995">
        <ele>655.6</ele>
        <time>2023-11-19T09:06:17Z</time>
      </trkpt>
      <trkpt lat="43.0169" lon="0.17995">
        <ele>655.6</ele>
        <time>2023-11-19T09:06:18Z</time>
      </trkpt>
      <trkpt lat="43.01691" lon="0.17996">
        <ele>655.6</ele>
        <time>2023-11-19T09:06:19Z</time>
      </trkpt>
      <trkpt lat="43.01691" lon="0.17996">
        <ele>655.6</ele>
        <time>2023-11-19T09:06:20Z</time>
      </trkpt>
      <trkpt lat="43.01692" lon="0.17997">
        <ele>655.6</ele>
        <time>2023-11-19T09:06:21Z</time>
      </trkpt>
      <trkpt lat="43.01693" lon="0.17997">
        <ele>655.6</ele>
        <time>2023-11-19T09:06:22Z</time>
      </trkpt>
      <trkpt lat="43.01694" lon="0.17997">
        <ele>655.6</ele>
        <time>2023-11-19T09:06:23Z</time>
      </trkpt>
      <trkpt lat="43.01695" lon="0.17998">
        <ele>655.6</ele>
        <time>2023-11-19T09:06:24Z</time>
      </trkpt>
      <trkpt lat="43.01696" lon="0.17999">
        <ele>655.6</ele>
        <time>2023-11-19T09:06:25Z</time>
      </trkpt>
      <trkpt lat="43.01698" lon="0.17997">
        <ele>655.6</ele>
        <time>2023-11-19T09:06:26Z</time>
      </trkpt>
      <trkpt lat="43.01699" lon="0.17998">
        <ele>655.6</ele>
        <time>2023-11-19T09:06:27Z</time>
      </trkpt>
      <trkpt lat="43.017" lon="0.17997">
        <ele>655.6</ele>
        <time>2023-11-19T09:06:28Z</time>
      </trkpt>
      <trkpt lat="43.01702" lon="0.17997">
        <ele>655.6</ele>
        <time>2023-11-19T09:06:29Z</time>
      </trkpt>
      <trkpt lat="43.01703" lon="0.17998">
        <ele>655.6</ele>
        <time>2023-11-19T09:06:30Z</time>
      </trkpt>
      <trkpt lat="43.01704" lon="0.17999">
        <ele>655.7</ele>
        <time>2023-11-19T09:06:32Z</time>
      </trkpt>
      <trkpt lat="43.01705" lon="0.18">
        <ele>655.7</ele>
        <time>2023-11-19T09:06:33Z</time>
      </trkpt>
      <trkpt lat="43.01705" lon="0.18003">
        <ele>655.8</ele>
        <time>2023-11-19T09:06:34Z</time>
      </trkpt>
      <trkpt lat="43.01705" lon="0.18004">
        <ele>655.8</ele>
        <time>2023-11-19T09:06:35Z</time>
      </trkpt>
      <trkpt lat="43.01706" lon="0.18005">
        <ele>655.8</ele>
        <time>2023-11-19T09:06:36Z</time>
      </trkpt>
      <trkpt lat="43.01707" lon="0.18006">
        <ele>655.9</ele>
        <time>2023-11-19T09:06:37Z</time>
      </trkpt>
      <trkpt lat="43.01707" lon="0.18007">
        <ele>655.9</ele>
        <time>2023-11-19T09:06:38Z</time>
      </trkpt>
      <trkpt lat="43.01708" lon="0.18008">
        <ele>655.9</ele>
        <time>2023-11-19T09:06:39Z</time>
      </trkpt>
      <trkpt lat="43.01708" lon="0.1801">
        <ele>656</ele>
        <time>2023-11-19T09:06:40Z</time>
      </trkpt>
      <trkpt lat="43.01708" lon="0.18011">
        <ele>656</ele>
        <time>2023-11-19T09:06:41Z</time>
      </trkpt>
      <trkpt lat="43.01709" lon="0.18013">
        <ele>656.2</ele>
        <time>2023-11-19T09:06:42Z</time>
      </trkpt>
      <trkpt lat="43.0171" lon="0.18014">
        <ele>656.4</ele>
        <time>2023-11-19T09:06:44Z</time>
      </trkpt>
      <trkpt lat="43.01711" lon="0.18016">
        <ele>656.5</ele>
        <time>2023-11-19T09:06:45Z</time>
      </trkpt>
      <trkpt lat="43.01712" lon="0.18016">
        <ele>656.6</ele>
        <time>2023-11-19T09:06:46Z</time>
      </trkpt>
      <trkpt lat="43.01713" lon="0.18018">
        <ele>656.6</ele>
        <time>2023-11-19T09:06:47Z</time>
      </trkpt>
      <trkpt lat="43.01713" lon="0.18019">
        <ele>656.7</ele>
        <time>2023-11-19T09:06:48Z</time>
      </trkpt>
      <trkpt lat="43.01712" lon="0.1802">
        <ele>656.8</ele>
        <time>2023-11-19T09:06:49Z</time>
      </trkpt>
      <trkpt lat="43.01712" lon="0.18021">
        <ele>656.8</ele>
        <time>2023-11-19T09:06:50Z</time>
      </trkpt>
      <trkpt lat="43.01711" lon="0.18022">
        <ele>656.9</ele>
        <time>2023-11-19T09:06:51Z</time>
      </trkpt>
      <trkpt lat="43.01712" lon="0.18022">
        <ele>656.9</ele>
        <time>2023-11-19T09:06:52Z</time>
      </trkpt>
      <trkpt lat="43.01711" lon="0.18022">
        <ele>656.9</ele>
        <time>2023-11-19T09:06:53Z</time>
      </trkpt>
      <trkpt lat="43.0171" lon="0.18023">
        <ele>657</ele>
        <time>2023-11-19T09:06:54Z</time>
      </trkpt>
      <trkpt lat="43.0171" lon="0.18023">
        <ele>657</ele>
        <time>2023-11-19T09:06:55Z</time>
      </trkpt>
      <trkpt lat="43.01709" lon="0.18024">
        <ele>657.1</ele>
        <time>2023-11-19T09:06:56Z</time>
      </trkpt>
      <trkpt lat="43.01709" lon="0.18025">
        <ele>657.1</ele>
        <time>2023-11-19T09:06:57Z</time>
      </trkpt>
      <trkpt lat="43.01708" lon="0.18025">
        <ele>657.1</ele>
        <time>2023-11-19T09:06:58Z</time>
      </trkpt>
      <trkpt lat="43.01708" lon="0.18026">
        <ele>657.2</ele>
        <time>2023-11-19T09:06:59Z</time>
      </trkpt>
      <trkpt lat="43.01708" lon="0.18025">
        <ele>657.2</ele>
        <time>2023-11-19T09:07:00Z</time>
      </trkpt>
      <trkpt lat="43.01706" lon="0.18025">
        <ele>657.3</ele>
        <time>2023-11-19T09:07:01Z</time>
      </trkpt>
      <trkpt lat="43.01706" lon="0.18026">
        <ele>657.3</ele>
        <time>2023-11-19T09:07:02Z</time>
      </trkpt>
      <trkpt lat="43.01706" lon="0.18026">
        <ele>657.3</ele>
        <time>2023-11-19T09:07:03Z</time>
      </trkpt>
      <trkpt lat="43.01706" lon="0.18026">
        <ele>657.3</ele>
        <time>2023-11-19T09:07:04Z</time>
      </trkpt>
      <trkpt lat="43.01707" lon="0.18026">
        <ele>657.4</ele>
        <time>2023-11-19T09:07:05Z</time>
      </trkpt>
      <trkpt lat="43.01707" lon="0.18026">
        <ele>657.4</ele>
        <time>2023-11-19T09:07:06Z</time>
      </trkpt>
      <trkpt lat="43.01707" lon="0.18026">
        <ele>657.5</ele>
        <time>2023-11-19T09:07:07Z</time>
      </trkpt>
      <trkpt lat="43.01708" lon="0.18026">
        <ele>657.6</ele>
        <time>2023-11-19T09:07:08Z</time>
      </trkpt>
      <trkpt lat="43.01707" lon="0.18027">
        <ele>657.8</ele>
        <time>2023-11-19T09:07:09Z</time>
      </trkpt>
      <trkpt lat="43.01708" lon="0.18028">
        <ele>658</ele>
        <time>2023-11-19T09:07:10Z</time>
      </trkpt>
      <trkpt lat="43.01708" lon="0.18029">
        <ele>658.1</ele>
        <time>2023-11-19T09:07:11Z</time>
      </trkpt>
      <trkpt lat="43.01708" lon="0.18029">
        <ele>658.2</ele>
        <time>2023-11-19T09:07:12Z</time>
      </trkpt>
      <trkpt lat="43.01708" lon="0.18029">
        <ele>658.3</ele>
        <time>2023-11-19T09:07:13Z</time>
      </trkpt>
      <trkpt lat="43.01709" lon="0.1803">
        <ele>658.4</ele>
        <time>2023-11-19T09:07:14Z</time>
      </trkpt>
      <trkpt lat="43.01709" lon="0.1803">
        <ele>658.4</ele>
        <time>2023-11-19T09:07:15Z</time>
      </trkpt>
      <trkpt lat="43.01709" lon="0.1803">
        <ele>658.5</ele>
        <time>2023-11-19T09:07:16Z</time>
      </trkpt>
      <trkpt lat="43.01709" lon="0.1803">
        <ele>658.6</ele>
        <time>2023-11-19T09:07:17Z</time>
      </trkpt>
      <trkpt lat="43.01709" lon="0.1803">
        <ele>658.7</ele>
        <time>2023-11-19T09:07:18Z</time>
      </trkpt>
      <trkpt lat="43.0171" lon="0.1803">
        <ele>658.7</ele>
        <time>2023-11-19T09:07:19Z</time>
      </trkpt>
      <trkpt lat="43.0171" lon="0.1803">
        <ele>658.8</ele>
        <time>2023-11-19T09:07:20Z</time>
      </trkpt>
      <trkpt lat="43.0171" lon="0.1803">
        <ele>658.8</ele>
        <time>2023-11-19T09:07:21Z</time>
      </trkpt>
      <trkpt lat="43.0171" lon="0.18029">
        <ele>658.8</ele>
        <time>2023-11-19T09:07:22Z</time>
      </trkpt>
      <trkpt lat="43.0171" lon="0.18029">
        <ele>658.8</ele>
        <time>2023-11-19T09:07:23Z</time>
      </trkpt>
      <trkpt lat="43.0171" lon="0.18029">
        <ele>658.9</ele>
        <time>2023-11-19T09:07:24Z</time>
      </trkpt>
      <trkpt lat="43.0171" lon="0.1803">
        <ele>659</ele>
        <time>2023-11-19T09:07:25Z</time>
      </trkpt>
      <trkpt lat="43.0171" lon="0.18029">
        <ele>659.1</ele>
        <time>2023-11-19T09:07:26Z</time>
      </trkpt>
      <trkpt lat="43.0171" lon="0.18029">
        <ele>659.1</ele>
        <time>2023-11-19T09:07:27Z</time>
      </trkpt>
      <trkpt lat="43.0171" lon="0.18029">
        <ele>659.1</ele>
        <time>2023-11-19T09:07:28Z</time>
      </trkpt>
      <trkpt lat="43.0171" lon="0.18029">
        <ele>659.1</ele>
        <time>2023-11-19T09:07:29Z</time>
      </trkpt>
      <trkpt lat="43.0171" lon="0.18029">
        <ele>659.1</ele>
        <time>2023-11-19T09:07:30Z</time>
      </trkpt>
      <trkpt lat="43.0171" lon="0.18029">
        <ele>659.1</ele>
        <time>2023-11-19T09:07:31Z</time>
      </trkpt>
      <trkpt lat="43.0171" lon="0.18028">
        <ele>659.3</ele>
        <time>2023-11-19T09:07:32Z</time>
      </trkpt>
      <trkpt lat="43.0171" lon="0.18028">
        <ele>659.3</ele>
        <time>2023-11-19T09:07:33Z</time>
      </trkpt>
      <trkpt lat="43.0171" lon="0.18028">
        <ele>659.4</ele>
        <time>2023-11-19T09:07:34Z</time>
      </trkpt>
      <trkpt lat="43.01711" lon="0.18028">
        <ele>659.5</ele>
        <time>2023-11-19T09:07:35Z</time>
      </trkpt>
      <trkpt lat="43.01711" lon="0.18027">
        <ele>659.5</ele>
        <time>2023-11-19T09:07:36Z</time>
      </trkpt>
      <trkpt lat="43.0171" lon="0.18028">
        <ele>659.6</ele>
        <time>2023-11-19T09:07:37Z</time>
      </trkpt>
      <trkpt lat="43.0171" lon="0.18028">
        <ele>659.6</ele>
        <time>2023-11-19T09:07:38Z</time>
      </trkpt>
      <trkpt lat="43.0171" lon="0.18028">
        <ele>659.6</ele>
        <time>2023-11-19T09:07:39Z</time>
      </trkpt>
      <trkpt lat="43.0171" lon="0.18028">
        <ele>659.6</ele>
        <time>2023-11-19T09:07:40Z</time>
      </trkpt>
      <trkpt lat="43.0171" lon="0.18028">
        <ele>659.6</ele>
        <time>2023-11-19T09:07:41Z</time>
      </trkpt>
      <trkpt lat="43.0171" lon="0.18028">
        <ele>659.6</ele>
        <time>2023-11-19T09:07:42Z</time>
      </trkpt>
      <trkpt lat="43.0171" lon="0.18028">
        <ele>659.6</ele>
        <time>2023-11-19T09:07:43Z</time>
      </trkpt>
      <trkpt lat="43.0171" lon="0.18028">
        <ele>659.6</ele>
        <time>2023-11-19T09:07:44Z</time>
      </trkpt>
      <trkpt lat="43.0171" lon="0.18027">
        <ele>659.8</ele>
        <time>2023-11-19T09:07:45Z</time>
      </trkpt>
      <trkpt lat="43.01711" lon="0.18027">
        <ele>659.8</ele>
        <time>2023-11-19T09:07:46Z</time>
      </trkpt>
      <trkpt lat="43.01711" lon="0.18027">
        <ele>659.9</ele>
        <time>2023-11-19T09:07:47Z</time>
      </trkpt>
      <trkpt lat="43.01711" lon="0.18027">
        <ele>659.9</ele>
        <time>2023-11-19T09:07:48Z</time>
      </trkpt>
      <trkpt lat="43.01712" lon="0.18027">
        <ele>660.1</ele>
        <time>2023-11-19T09:07:49Z</time>
      </trkpt>
      <trkpt lat="43.01712" lon="0.18027">
        <ele>660.2</ele>
        <time>2023-11-19T09:07:50Z</time>
      </trkpt>
      <trkpt lat="43.01713" lon="0.18028">
        <ele>660.4</ele>
        <time>2023-11-19T09:07:51Z</time>
      </trkpt>
      <trkpt lat="43.01713" lon="0.18027">
        <ele>660.5</ele>
        <time>2023-11-19T09:07:52Z</time>
      </trkpt>
      <trkpt lat="43.01715" lon="0.18026">
        <ele>660.9</ele>
        <time>2023-11-19T09:07:53Z</time>
      </trkpt>
      <trkpt lat="43.01716" lon="0.18026">
        <ele>661.1</ele>
        <time>2023-11-19T09:07:54Z</time>
      </trkpt>
      <trkpt lat="43.01717" lon="0.18025">
        <ele>661.3</ele>
        <time>2023-11-19T09:07:55Z</time>
      </trkpt>
      <trkpt lat="43.01717" lon="0.18025">
        <ele>661.5</ele>
        <time>2023-11-19T09:07:56Z</time>
      </trkpt>
      <trkpt lat="43.01718" lon="0.18024">
        <ele>661.6</ele>
        <time>2023-11-19T09:07:57Z</time>
      </trkpt>
      <trkpt lat="43.01719" lon="0.18024">
        <ele>661.8</ele>
        <time>2023-11-19T09:07:58Z</time>
      </trkpt>
      <trkpt lat="43.01719" lon="0.18022">
        <ele>662</ele>
        <time>2023-11-19T09:07:59Z</time>
      </trkpt>
      <trkpt lat="43.0172" lon="0.18022">
        <ele>662.3</ele>
        <time>2023-11-19T09:08:00Z</time>
      </trkpt>
      <trkpt lat="43.01721" lon="0.18021">
        <ele>662.5</ele>
        <time>2023-11-19T09:08:01Z</time>
      </trkpt>
      <trkpt lat="43.01722" lon="0.18021">
        <ele>662.7</ele>
        <time>2023-11-19T09:08:02Z</time>
      </trkpt>
      <trkpt lat="43.01723" lon="0.1802">
        <ele>662.9</ele>
        <time>2023-11-19T09:08:03Z</time>
      </trkpt>
      <trkpt lat="43.01724" lon="0.1802">
        <ele>663</ele>
        <time>2023-11-19T09:08:04Z</time>
      </trkpt>
      <trkpt lat="43.01724" lon="0.1802">
        <ele>663.2</ele>
        <time>2023-11-19T09:08:05Z</time>
      </trkpt>
      <trkpt lat="43.01725" lon="0.18021">
        <ele>663.4</ele>
        <time>2023-11-19T09:08:06Z</time>
      </trkpt>
      <trkpt lat="43.01726" lon="0.18021">
        <ele>663.4</ele>
        <time>2023-11-19T09:08:07Z</time>
      </trkpt>
      <trkpt lat="43.01727" lon="0.1802">
        <ele>663.6</ele>
        <time>2023-11-19T09:08:08Z</time>
      </trkpt>
      <trkpt lat="43.01728" lon="0.1802">
        <ele>663.8</ele>
        <time>2023-11-19T09:08:09Z</time>
      </trkpt>
      <trkpt lat="43.01729" lon="0.1802">
        <ele>663.9</ele>
        <time>2023-11-19T09:08:10Z</time>
      </trkpt>
      <trkpt lat="43.01729" lon="0.1802">
        <ele>664</ele>
        <time>2023-11-19T09:08:11Z</time>
      </trkpt>
      <trkpt lat="43.0173" lon="0.18019">
        <ele>664.2</ele>
        <time>2023-11-19T09:08:12Z</time>
      </trkpt>
      <trkpt lat="43.01731" lon="0.18019">
        <ele>664.3</ele>
        <time>2023-11-19T09:08:13Z</time>
      </trkpt>
      <trkpt lat="43.01732" lon="0.18019">
        <ele>664.5</ele>
        <time>2023-11-19T09:08:14Z</time>
      </trkpt>
      <trkpt lat="43.01733" lon="0.18019">
        <ele>664.5</ele>
        <time>2023-11-19T09:08:15Z</time>
      </trkpt>
      <trkpt lat="43.01734" lon="0.18019">
        <ele>664.7</ele>
        <time>2023-11-19T09:08:16Z</time>
      </trkpt>
      <trkpt lat="43.01736" lon="0.18018">
        <ele>664.9</ele>
        <time>2023-11-19T09:08:17Z</time>
      </trkpt>
      <trkpt lat="43.01737" lon="0.18018">
        <ele>665</ele>
        <time>2023-11-19T09:08:18Z</time>
      </trkpt>
      <trkpt lat="43.01738" lon="0.18017">
        <ele>665.1</ele>
        <time>2023-11-19T09:08:19Z</time>
      </trkpt>
      <trkpt lat="43.01739" lon="0.18018">
        <ele>665.2</ele>
        <time>2023-11-19T09:08:20Z</time>
      </trkpt>
      <trkpt lat="43.01739" lon="0.18017">
        <ele>665.3</ele>
        <time>2023-11-19T09:08:21Z</time>
      </trkpt>
      <trkpt lat="43.0174" lon="0.18017">
        <ele>665.3</ele>
        <time>2023-11-19T09:08:22Z</time>
      </trkpt>
      <trkpt lat="43.01741" lon="0.18017">
        <ele>665.4</ele>
        <time>2023-11-19T09:08:23Z</time>
      </trkpt>
      <trkpt lat="43.01741" lon="0.18018">
        <ele>665.4</ele>
        <time>2023-11-19T09:08:24Z</time>
      </trkpt>
      <trkpt lat="43.01742" lon="0.18018">
        <ele>665.5</ele>
        <time>2023-11-19T09:08:25Z</time>
      </trkpt>
      <trkpt lat="43.01743" lon="0.18018">
        <ele>665.6</ele>
        <time>2023-11-19T09:08:26Z</time>
      </trkpt>
      <trkpt lat="43.01744" lon="0.18017">
        <ele>665.7</ele>
        <time>2023-11-19T09:08:27Z</time>
      </trkpt>
      <trkpt lat="43.01746" lon="0.18017">
        <ele>665.8</ele>
        <time>2023-11-19T09:08:28Z</time>
      </trkpt>
      <trkpt lat="43.01747" lon="0.18015">
        <ele>665.8</ele>
        <time>2023-11-19T09:08:29Z</time>
      </trkpt>
      <trkpt lat="43.01749" lon="0.18014">
        <ele>665.9</ele>
        <time>2023-11-19T09:08:30Z</time>
      </trkpt>
      <trkpt lat="43.01749" lon="0.18014">
        <ele>666</ele>
        <time>2023-11-19T09:08:31Z</time>
      </trkpt>
      <trkpt lat="43.0175" lon="0.18013">
        <ele>666</ele>
        <time>2023-11-19T09:08:32Z</time>
      </trkpt>
      <trkpt lat="43.01752" lon="0.18013">
        <ele>666.1</ele>
        <time>2023-11-19T09:08:33Z</time>
      </trkpt>
      <trkpt lat="43.01753" lon="0.18012">
        <ele>666.1</ele>
        <time>2023-11-19T09:08:34Z</time>
      </trkpt>
      <trkpt lat="43.01753" lon="0.18012">
        <ele>666.1</ele>
        <time>2023-11-19T09:08:35Z</time>
      </trkpt>
      <trkpt lat="43.01754" lon="0.18012">
        <ele>666.2</ele>
        <time>2023-11-19T09:08:36Z</time>
      </trkpt>
      <trkpt lat="43.01756" lon="0.1801">
        <ele>666.2</ele>
        <time>2023-11-19T09:08:38Z</time>
      </trkpt>
      <trkpt lat="43.01757" lon="0.18009">
        <ele>666.2</ele>
        <time>2023-11-19T09:08:39Z</time>
      </trkpt>
      <trkpt lat="43.01757" lon="0.18009">
        <ele>666.3</ele>
        <time>2023-11-19T09:08:40Z</time>
      </trkpt>
      <trkpt lat="43.0176" lon="0.18009">
        <ele>666.3</ele>
        <time>2023-11-19T09:08:41Z</time>
      </trkpt>
      <trkpt lat="43.01761" lon="0.18009">
        <ele>666.3</ele>
        <time>2023-11-19T09:08:42Z</time>
      </trkpt>
      <trkpt lat="43.01762" lon="0.18009">
        <ele>666.4</ele>
        <time>2023-11-19T09:08:43Z</time>
      </trkpt>
      <trkpt lat="43.01763" lon="0.18009">
        <ele>666.4</ele>
        <time>2023-11-19T09:08:44Z</time>
      </trkpt>
      <trkpt lat="43.01764" lon="0.18009">
        <ele>666.4</ele>
        <time>2023-11-19T09:08:45Z</time>
      </trkpt>
      <trkpt lat="43.01765" lon="0.18008">
        <ele>666.4</ele>
        <time>2023-11-19T09:08:47Z</time>
      </trkpt>
      <trkpt lat="43.01767" lon="0.18008">
        <ele>666.5</ele>
        <time>2023-11-19T09:08:48Z</time>
      </trkpt>
      <trkpt lat="43.01768" lon="0.18007">
        <ele>666.5</ele>
        <time>2023-11-19T09:08:49Z</time>
      </trkpt>
      <trkpt lat="43.01769" lon="0.18004">
        <ele>666.6</ele>
        <time>2023-11-19T09:08:51Z</time>
      </trkpt>
      <trkpt lat="43.0177" lon="0.18003">
        <ele>666.6</ele>
        <time>2023-11-19T09:08:52Z</time>
      </trkpt>
      <trkpt lat="43.01771" lon="0.18003">
        <ele>666.6</ele>
        <time>2023-11-19T09:08:53Z</time>
      </trkpt>
      <trkpt lat="43.01771" lon="0.18003">
        <ele>666.6</ele>
        <time>2023-11-19T09:08:54Z</time>
      </trkpt>
      <trkpt lat="43.01772" lon="0.18002">
        <ele>666.6</ele>
        <time>2023-11-19T09:08:55Z</time>
      </trkpt>
      <trkpt lat="43.01772" lon="0.18001">
        <ele>666.7</ele>
        <time>2023-11-19T09:08:56Z</time>
      </trkpt>
      <trkpt lat="43.01774" lon="0.18001">
        <ele>666.7</ele>
        <time>2023-11-19T09:08:57Z</time>
      </trkpt>
      <trkpt lat="43.01775" lon="0.18">
        <ele>666.8</ele>
        <time>2023-11-19T09:08:58Z</time>
      </trkpt>
      <trkpt lat="43.01776" lon="0.17999">
        <ele>666.8</ele>
        <time>2023-11-19T09:08:59Z</time>
      </trkpt>
      <trkpt lat="43.01776" lon="0.17998">
        <ele>666.9</ele>
        <time>2023-11-19T09:09:00Z</time>
      </trkpt>
      <trkpt lat="43.01777" lon="0.17998">
        <ele>666.9</ele>
        <time>2023-11-19T09:09:01Z</time>
      </trkpt>
      <trkpt lat="43.01778" lon="0.17998">
        <ele>667</ele>
        <time>2023-11-19T09:09:02Z</time>
      </trkpt>
      <trkpt lat="43.01779" lon="0.17997">
        <ele>667</ele>
        <time>2023-11-19T09:09:03Z</time>
      </trkpt>
      <trkpt lat="43.0178" lon="0.17996">
        <ele>667.2</ele>
        <time>2023-11-19T09:09:04Z</time>
      </trkpt>
      <trkpt lat="43.01782" lon="0.17996">
        <ele>667.2</ele>
        <time>2023-11-19T09:09:05Z</time>
      </trkpt>
      <trkpt lat="43.01782" lon="0.17996">
        <ele>667.3</ele>
        <time>2023-11-19T09:09:06Z</time>
      </trkpt>
      <trkpt lat="43.01783" lon="0.17996">
        <ele>667.4</ele>
        <time>2023-11-19T09:09:07Z</time>
      </trkpt>
      <trkpt lat="43.01784" lon="0.17996">
        <ele>667.5</ele>
        <time>2023-11-19T09:09:08Z</time>
      </trkpt>
      <trkpt lat="43.01786" lon="0.17995">
        <ele>667.6</ele>
        <time>2023-11-19T09:09:09Z</time>
      </trkpt>
      <trkpt lat="43.01787" lon="0.17995">
        <ele>667.7</ele>
        <time>2023-11-19T09:09:10Z</time>
      </trkpt>
      <trkpt lat="43.01788" lon="0.17994">
        <ele>667.8</ele>
        <time>2023-11-19T09:09:11Z</time>
      </trkpt>
      <trkpt lat="43.01788" lon="0.17993">
        <ele>667.9</ele>
        <time>2023-11-19T09:09:12Z</time>
      </trkpt>
      <trkpt lat="43.01789" lon="0.17992">
        <ele>668.1</ele>
        <time>2023-11-19T09:09:13Z</time>
      </trkpt>
      <trkpt lat="43.0179" lon="0.17992">
        <ele>668.2</ele>
        <time>2023-11-19T09:09:14Z</time>
      </trkpt>
      <trkpt lat="43.01791" lon="0.17991">
        <ele>668.3</ele>
        <time>2023-11-19T09:09:15Z</time>
      </trkpt>
      <trkpt lat="43.01792" lon="0.17992">
        <ele>668.4</ele>
        <time>2023-11-19T09:09:16Z</time>
      </trkpt>
      <trkpt lat="43.01792" lon="0.17992">
        <ele>668.5</ele>
        <time>2023-11-19T09:09:17Z</time>
      </trkpt>
      <trkpt lat="43.01792" lon="0.17993">
        <ele>668.6</ele>
        <time>2023-11-19T09:09:18Z</time>
      </trkpt>
      <trkpt lat="43.01793" lon="0.17993">
        <ele>668.7</ele>
        <time>2023-11-19T09:09:19Z</time>
      </trkpt>
      <trkpt lat="43.01794" lon="0.17994">
        <ele>668.8</ele>
        <time>2023-11-19T09:09:20Z</time>
      </trkpt>
      <trkpt lat="43.01794" lon="0.17994">
        <ele>668.8</ele>
        <time>2023-11-19T09:09:21Z</time>
      </trkpt>
      <trkpt lat="43.01795" lon="0.17995">
        <ele>669</ele>
        <time>2023-11-19T09:09:22Z</time>
      </trkpt>
      <trkpt lat="43.01796" lon="0.17995">
        <ele>669.1</ele>
        <time>2023-11-19T09:09:23Z</time>
      </trkpt>
      <trkpt lat="43.01797" lon="0.17995">
        <ele>669.2</ele>
        <time>2023-11-19T09:09:24Z</time>
      </trkpt>
      <trkpt lat="43.01798" lon="0.17995">
        <ele>669.3</ele>
        <time>2023-11-19T09:09:25Z</time>
      </trkpt>
      <trkpt lat="43.01799" lon="0.17994">
        <ele>669.5</ele>
        <time>2023-11-19T09:09:26Z</time>
      </trkpt>
      <trkpt lat="43.018" lon="0.17993">
        <ele>669.6</ele>
        <time>2023-11-19T09:09:27Z</time>
      </trkpt>
      <trkpt lat="43.01801" lon="0.17993">
        <ele>669.7</ele>
        <time>2023-11-19T09:09:28Z</time>
      </trkpt>
      <trkpt lat="43.01802" lon="0.17992">
        <ele>669.8</ele>
        <time>2023-11-19T09:09:29Z</time>
      </trkpt>
      <trkpt lat="43.01803" lon="0.17992">
        <ele>670</ele>
        <time>2023-11-19T09:09:30Z</time>
      </trkpt>
      <trkpt lat="43.01804" lon="0.17992">
        <ele>670</ele>
        <time>2023-11-19T09:09:31Z</time>
      </trkpt>
      <trkpt lat="43.01805" lon="0.17991">
        <ele>670.2</ele>
        <time>2023-11-19T09:09:32Z</time>
      </trkpt>
      <trkpt lat="43.01806" lon="0.17991">
        <ele>670.3</ele>
        <time>2023-11-19T09:09:33Z</time>
      </trkpt>
      <trkpt lat="43.01808" lon="0.1799">
        <ele>670.4</ele>
        <time>2023-11-19T09:09:34Z</time>
      </trkpt>
      <trkpt lat="43.01808" lon="0.1799">
        <ele>670.5</ele>
        <time>2023-11-19T09:09:35Z</time>
      </trkpt>
      <trkpt lat="43.01809" lon="0.1799">
        <ele>670.5</ele>
        <time>2023-11-19T09:09:36Z</time>
      </trkpt>
      <trkpt lat="43.01811" lon="0.17989">
        <ele>670.7</ele>
        <time>2023-11-19T09:09:37Z</time>
      </trkpt>
      <trkpt lat="43.01813" lon="0.17989">
        <ele>670.8</ele>
        <time>2023-11-19T09:09:38Z</time>
      </trkpt>
      <trkpt lat="43.01814" lon="0.17989">
        <ele>670.8</ele>
        <time>2023-11-19T09:09:39Z</time>
      </trkpt>
      <trkpt lat="43.01814" lon="0.17989">
        <ele>670.9</ele>
        <time>2023-11-19T09:09:40Z</time>
      </trkpt>
      <trkpt lat="43.01815" lon="0.17989">
        <ele>670.9</ele>
        <time>2023-11-19T09:09:41Z</time>
      </trkpt>
      <trkpt lat="43.01816" lon="0.17988">
        <ele>671</ele>
        <time>2023-11-19T09:09:42Z</time>
      </trkpt>
      <trkpt lat="43.01817" lon="0.17987">
        <ele>671</ele>
        <time>2023-11-19T09:09:43Z</time>
      </trkpt>
      <trkpt lat="43.01818" lon="0.17987">
        <ele>671.1</ele>
        <time>2023-11-19T09:09:44Z</time>
      </trkpt>
      <trkpt lat="43.01819" lon="0.17986">
        <ele>671.2</ele>
        <time>2023-11-19T09:09:45Z</time>
      </trkpt>
      <trkpt lat="43.0182" lon="0.17986">
        <ele>671.3</ele>
        <time>2023-11-19T09:09:46Z</time>
      </trkpt>
      <trkpt lat="43.01821" lon="0.17985">
        <ele>671.3</ele>
        <time>2023-11-19T09:09:47Z</time>
      </trkpt>
      <trkpt lat="43.01822" lon="0.17985">
        <ele>671.4</ele>
        <time>2023-11-19T09:09:48Z</time>
      </trkpt>
      <trkpt lat="43.01823" lon="0.17985">
        <ele>671.4</ele>
        <time>2023-11-19T09:09:49Z</time>
      </trkpt>
      <trkpt lat="43.01825" lon="0.17985">
        <ele>671.5</ele>
        <time>2023-11-19T09:09:50Z</time>
      </trkpt>
      <trkpt lat="43.01825" lon="0.17984">
        <ele>671.6</ele>
        <time>2023-11-19T09:09:51Z</time>
      </trkpt>
      <trkpt lat="43.01826" lon="0.17984">
        <ele>671.7</ele>
        <time>2023-11-19T09:09:52Z</time>
      </trkpt>
      <trkpt lat="43.01827" lon="0.17984">
        <ele>671.8</ele>
        <time>2023-11-19T09:09:53Z</time>
      </trkpt>
      <trkpt lat="43.01828" lon="0.17984">
        <ele>671.8</ele>
        <time>2023-11-19T09:09:54Z</time>
      </trkpt>
      <trkpt lat="43.01829" lon="0.17983">
        <ele>671.9</ele>
        <time>2023-11-19T09:09:55Z</time>
      </trkpt>
      <trkpt lat="43.0183" lon="0.17983">
        <ele>671.9</ele>
        <time>2023-11-19T09:09:56Z</time>
      </trkpt>
      <trkpt lat="43.01831" lon="0.17983">
        <ele>672</ele>
        <time>2023-11-19T09:09:57Z</time>
      </trkpt>
      <trkpt lat="43.01832" lon="0.17983">
        <ele>672.1</ele>
        <time>2023-11-19T09:09:58Z</time>
      </trkpt>
      <trkpt lat="43.01833" lon="0.17983">
        <ele>672.2</ele>
        <time>2023-11-19T09:09:59Z</time>
      </trkpt>
      <trkpt lat="43.01834" lon="0.17983">
        <ele>672.2</ele>
        <time>2023-11-19T09:10:00Z</time>
      </trkpt>
      <trkpt lat="43.01834" lon="0.17983">
        <ele>672.3</ele>
        <time>2023-11-19T09:10:01Z</time>
      </trkpt>
      <trkpt lat="43.01835" lon="0.17984">
        <ele>672.4</ele>
        <time>2023-11-19T09:10:02Z</time>
      </trkpt>
      <trkpt lat="43.01836" lon="0.17983">
        <ele>672.4</ele>
        <time>2023-11-19T09:10:03Z</time>
      </trkpt>
      <trkpt lat="43.01837" lon="0.17982">
        <ele>672.5</ele>
        <time>2023-11-19T09:10:04Z</time>
      </trkpt>
      <trkpt lat="43.01838" lon="0.17983">
        <ele>672.7</ele>
        <time>2023-11-19T09:10:05Z</time>
      </trkpt>
      <trkpt lat="43.0184" lon="0.17982">
        <ele>672.8</ele>
        <time>2023-11-19T09:10:06Z</time>
      </trkpt>
      <trkpt lat="43.01841" lon="0.17982">
        <ele>672.9</ele>
        <time>2023-11-19T09:10:07Z</time>
      </trkpt>
      <trkpt lat="43.01842" lon="0.17982">
        <ele>673</ele>
        <time>2023-11-19T09:10:08Z</time>
      </trkpt>
      <trkpt lat="43.01845" lon="0.17982">
        <ele>673.2</ele>
        <time>2023-11-19T09:10:09Z</time>
      </trkpt>
      <trkpt lat="43.01846" lon="0.17982">
        <ele>673.3</ele>
        <time>2023-11-19T09:10:10Z</time>
      </trkpt>
      <trkpt lat="43.01847" lon="0.17982">
        <ele>673.4</ele>
        <time>2023-11-19T09:10:11Z</time>
      </trkpt>
      <trkpt lat="43.01848" lon="0.17981">
        <ele>673.5</ele>
        <time>2023-11-19T09:10:12Z</time>
      </trkpt>
      <trkpt lat="43.01849" lon="0.1798">
        <ele>673.6</ele>
        <time>2023-11-19T09:10:13Z</time>
      </trkpt>
      <trkpt lat="43.01851" lon="0.1798">
        <ele>673.7</ele>
        <time>2023-11-19T09:10:14Z</time>
      </trkpt>
      <trkpt lat="43.01852" lon="0.1798">
        <ele>673.8</ele>
        <time>2023-11-19T09:10:15Z</time>
      </trkpt>
      <trkpt lat="43.01853" lon="0.1798">
        <ele>673.8</ele>
        <time>2023-11-19T09:10:16Z</time>
      </trkpt>
      <trkpt lat="43.01855" lon="0.1798">
        <ele>674</ele>
        <time>2023-11-19T09:10:17Z</time>
      </trkpt>
      <trkpt lat="43.01855" lon="0.1798">
        <ele>674</ele>
        <time>2023-11-19T09:10:18Z</time>
      </trkpt>
      <trkpt lat="43.01856" lon="0.17979">
        <ele>674.1</ele>
        <time>2023-11-19T09:10:19Z</time>
      </trkpt>
      <trkpt lat="43.01859" lon="0.17979">
        <ele>674.2</ele>
        <time>2023-11-19T09:10:20Z</time>
      </trkpt>
      <trkpt lat="43.0186" lon="0.17978">
        <ele>674.3</ele>
        <time>2023-11-19T09:10:21Z</time>
      </trkpt>
      <trkpt lat="43.01861" lon="0.17978">
        <ele>674.3</ele>
        <time>2023-11-19T09:10:22Z</time>
      </trkpt>
      <trkpt lat="43.01862" lon="0.17978">
        <ele>674.4</ele>
        <time>2023-11-19T09:10:23Z</time>
      </trkpt>
      <trkpt lat="43.01863" lon="0.17978">
        <ele>674.4</ele>
        <time>2023-11-19T09:10:24Z</time>
      </trkpt>
      <trkpt lat="43.01863" lon="0.17978">
        <ele>674.4</ele>
        <time>2023-11-19T09:10:25Z</time>
      </trkpt>
      <trkpt lat="43.01864" lon="0.17978">
        <ele>674.5</ele>
        <time>2023-11-19T09:10:26Z</time>
      </trkpt>
      <trkpt lat="43.01866" lon="0.17977">
        <ele>674.6</ele>
        <time>2023-11-19T09:10:27Z</time>
      </trkpt>
      <trkpt lat="43.01867" lon="0.17976">
        <ele>674.6</ele>
        <time>2023-11-19T09:10:28Z</time>
      </trkpt>
      <trkpt lat="43.01868" lon="0.17976">
        <ele>674.6</ele>
        <time>2023-11-19T09:10:29Z</time>
      </trkpt>
      <trkpt lat="43.0187" lon="0.17973">
        <ele>674.7</ele>
        <time>2023-11-19T09:10:30Z</time>
      </trkpt>
      <trkpt lat="43.01871" lon="0.17972">
        <ele>674.8</ele>
        <time>2023-11-19T09:10:31Z</time>
      </trkpt>
      <trkpt lat="43.01872" lon="0.17971">
        <ele>674.8</ele>
        <time>2023-11-19T09:10:32Z</time>
      </trkpt>
      <trkpt lat="43.01873" lon="0.17969">
        <ele>674.9</ele>
        <time>2023-11-19T09:10:33Z</time>
      </trkpt>
      <trkpt lat="43.01874" lon="0.17968">
        <ele>674.9</ele>
        <time>2023-11-19T09:10:34Z</time>
      </trkpt>
      <trkpt lat="43.01875" lon="0.17968">
        <ele>674.9</ele>
        <time>2023-11-19T09:10:35Z</time>
      </trkpt>
      <trkpt lat="43.01876" lon="0.17967">
        <ele>674.9</ele>
        <time>2023-11-19T09:10:36Z</time>
      </trkpt>
      <trkpt lat="43.01877" lon="0.17966">
        <ele>674.9</ele>
        <time>2023-11-19T09:10:37Z</time>
      </trkpt>
      <trkpt lat="43.01878" lon="0.17966">
        <ele>674.9</ele>
        <time>2023-11-19T09:10:38Z</time>
      </trkpt>
      <trkpt lat="43.0188" lon="0.17965">
        <ele>674.8</ele>
        <time>2023-11-19T09:10:39Z</time>
      </trkpt>
      <trkpt lat="43.01881" lon="0.17964">
        <ele>674.8</ele>
        <time>2023-11-19T09:10:40Z</time>
      </trkpt>
      <trkpt lat="43.01882" lon="0.17964">
        <ele>674.8</ele>
        <time>2023-11-19T09:10:41Z</time>
      </trkpt>
      <trkpt lat="43.01882" lon="0.17963">
        <ele>674.8</ele>
        <time>2023-11-19T09:10:42Z</time>
      </trkpt>
      <trkpt lat="43.01883" lon="0.17963">
        <ele>674.8</ele>
        <time>2023-11-19T09:10:43Z</time>
      </trkpt>
      <trkpt lat="43.01885" lon="0.17961">
        <ele>674.7</ele>
        <time>2023-11-19T09:10:44Z</time>
      </trkpt>
      <trkpt lat="43.01886" lon="0.17961">
        <ele>674.7</ele>
        <time>2023-11-19T09:10:45Z</time>
      </trkpt>
      <trkpt lat="43.01886" lon="0.1796">
        <ele>674.7</ele>
        <time>2023-11-19T09:10:46Z</time>
      </trkpt>
      <trkpt lat="43.01888" lon="0.17959">
        <ele>674.7</ele>
        <time>2023-11-19T09:10:47Z</time>
      </trkpt>
      <trkpt lat="43.01889" lon="0.17958">
        <ele>674.6</ele>
        <time>2023-11-19T09:10:48Z</time>
      </trkpt>
      <trkpt lat="43.0189" lon="0.17958">
        <ele>674.6</ele>
        <time>2023-11-19T09:10:49Z</time>
      </trkpt>
      <trkpt lat="43.01891" lon="0.17955">
        <ele>674.6</ele>
        <time>2023-11-19T09:10:50Z</time>
      </trkpt>
      <trkpt lat="43.01892" lon="0.17955">
        <ele>674.6</ele>
        <time>2023-11-19T09:10:51Z</time>
      </trkpt>
      <trkpt lat="43.01893" lon="0.17954">
        <ele>674.5</ele>
        <time>2023-11-19T09:10:52Z</time>
      </trkpt>
      <trkpt lat="43.01893" lon="0.17953">
        <ele>674.5</ele>
        <time>2023-11-19T09:10:53Z</time>
      </trkpt>
      <trkpt lat="43.01894" lon="0.17953">
        <ele>674.5</ele>
        <time>2023-11-19T09:10:54Z</time>
      </trkpt>
      <trkpt lat="43.01895" lon="0.17951">
        <ele>674.5</ele>
        <time>2023-11-19T09:10:55Z</time>
      </trkpt>
      <trkpt lat="43.01898" lon="0.17949">
        <ele>674.6</ele>
        <time>2023-11-19T09:10:56Z</time>
      </trkpt>
      <trkpt lat="43.01899" lon="0.17949">
        <ele>674.6</ele>
        <time>2023-11-19T09:10:57Z</time>
      </trkpt>
      <trkpt lat="43.01899" lon="0.17948">
        <ele>674.6</ele>
        <time>2023-11-19T09:10:58Z</time>
      </trkpt>
      <trkpt lat="43.019" lon="0.17947">
        <ele>674.6</ele>
        <time>2023-11-19T09:10:59Z</time>
      </trkpt>
      <trkpt lat="43.01901" lon="0.17947">
        <ele>674.7</ele>
        <time>2023-11-19T09:11:00Z</time>
      </trkpt>
      <trkpt lat="43.01902" lon="0.17947">
        <ele>674.7</ele>
        <time>2023-11-19T09:11:01Z</time>
      </trkpt>
      <trkpt lat="43.01902" lon="0.17947">
        <ele>674.7</ele>
        <time>2023-11-19T09:11:02Z</time>
      </trkpt>
      <trkpt lat="43.01902" lon="0.17947">
        <ele>674.8</ele>
        <time>2023-11-19T09:11:03Z</time>
      </trkpt>
      <trkpt lat="43.01903" lon="0.17947">
        <ele>674.8</ele>
        <time>2023-11-19T09:11:04Z</time>
      </trkpt>
      <trkpt lat="43.01905" lon="0.17947">
        <ele>674.9</ele>
        <time>2023-11-19T09:11:05Z</time>
      </trkpt>
      <trkpt lat="43.01906" lon="0.17947">
        <ele>675</ele>
        <time>2023-11-19T09:11:06Z</time>
      </trkpt>
      <trkpt lat="43.01908" lon="0.17948">
        <ele>675.1</ele>
        <time>2023-11-19T09:11:07Z</time>
      </trkpt>
      <trkpt lat="43.01909" lon="0.17947">
        <ele>675.3</ele>
        <time>2023-11-19T09:11:08Z</time>
      </trkpt>
      <trkpt lat="43.0191" lon="0.17946">
        <ele>675.3</ele>
        <time>2023-11-19T09:11:09Z</time>
      </trkpt>
      <trkpt lat="43.0191" lon="0.17946">
        <ele>675.4</ele>
        <time>2023-11-19T09:11:10Z</time>
      </trkpt>
      <trkpt lat="43.0191" lon="0.17946">
        <ele>675.4</ele>
        <time>2023-11-19T09:11:11Z</time>
      </trkpt>
      <trkpt lat="43.01911" lon="0.17946">
        <ele>675.5</ele>
        <time>2023-11-19T09:11:12Z</time>
      </trkpt>
      <trkpt lat="43.01912" lon="0.17946">
        <ele>675.7</ele>
        <time>2023-11-19T09:11:13Z</time>
      </trkpt>
      <trkpt lat="43.01913" lon="0.17945">
        <ele>675.8</ele>
        <time>2023-11-19T09:11:14Z</time>
      </trkpt>
      <trkpt lat="43.01914" lon="0.17945">
        <ele>676</ele>
        <time>2023-11-19T09:11:15Z</time>
      </trkpt>
      <trkpt lat="43.01914" lon="0.17944">
        <ele>676</ele>
        <time>2023-11-19T09:11:16Z</time>
      </trkpt>
      <trkpt lat="43.01915" lon="0.17944">
        <ele>676.2</ele>
        <time>2023-11-19T09:11:17Z</time>
      </trkpt>
      <trkpt lat="43.01916" lon="0.17943">
        <ele>676.3</ele>
        <time>2023-11-19T09:11:18Z</time>
      </trkpt>
      <trkpt lat="43.01917" lon="0.17943">
        <ele>676.5</ele>
        <time>2023-11-19T09:11:19Z</time>
      </trkpt>
      <trkpt lat="43.01918" lon="0.17944">
        <ele>676.7</ele>
        <time>2023-11-19T09:11:20Z</time>
      </trkpt>
      <trkpt lat="43.01919" lon="0.17944">
        <ele>676.8</ele>
        <time>2023-11-19T09:11:21Z</time>
      </trkpt>
      <trkpt lat="43.0192" lon="0.17944">
        <ele>676.9</ele>
        <time>2023-11-19T09:11:22Z</time>
      </trkpt>
      <trkpt lat="43.01921" lon="0.17945">
        <ele>677.2</ele>
        <time>2023-11-19T09:11:23Z</time>
      </trkpt>
      <trkpt lat="43.01922" lon="0.17944">
        <ele>677.3</ele>
        <time>2023-11-19T09:11:24Z</time>
      </trkpt>
      <trkpt lat="43.01922" lon="0.17944">
        <ele>677.4</ele>
        <time>2023-11-19T09:11:25Z</time>
      </trkpt>
      <trkpt lat="43.01923" lon="0.17945">
        <ele>677.7</ele>
        <time>2023-11-19T09:11:26Z</time>
      </trkpt>
      <trkpt lat="43.01924" lon="0.17945">
        <ele>677.8</ele>
        <time>2023-11-19T09:11:27Z</time>
      </trkpt>
      <trkpt lat="43.01924" lon="0.17945">
        <ele>677.9</ele>
        <time>2023-11-19T09:11:28Z</time>
      </trkpt>
      <trkpt lat="43.01926" lon="0.17945">
        <ele>678.2</ele>
        <time>2023-11-19T09:11:29Z</time>
      </trkpt>
      <trkpt lat="43.01926" lon="0.17945">
        <ele>678.3</ele>
        <time>2023-11-19T09:11:30Z</time>
      </trkpt>
      <trkpt lat="43.01925" lon="0.17945">
        <ele>678.4</ele>
        <time>2023-11-19T09:11:31Z</time>
      </trkpt>
      <trkpt lat="43.01925" lon="0.17945">
        <ele>678.4</ele>
        <time>2023-11-19T09:11:32Z</time>
      </trkpt>
      <trkpt lat="43.01926" lon="0.17945">
        <ele>678.6</ele>
        <time>2023-11-19T09:11:33Z</time>
      </trkpt>
      <trkpt lat="43.01926" lon="0.17946">
        <ele>678.8</ele>
        <time>2023-11-19T09:11:34Z</time>
      </trkpt>
      <trkpt lat="43.01926" lon="0.17947">
        <ele>678.9</ele>
        <time>2023-11-19T09:11:35Z</time>
      </trkpt>
      <trkpt lat="43.01926" lon="0.17947">
        <ele>679</ele>
        <time>2023-11-19T09:11:36Z</time>
      </trkpt>
      <trkpt lat="43.01926" lon="0.17946">
        <ele>679.1</ele>
        <time>2023-11-19T09:11:37Z</time>
      </trkpt>
      <trkpt lat="43.01925" lon="0.17947">
        <ele>679.3</ele>
        <time>2023-11-19T09:11:38Z</time>
      </trkpt>
      <trkpt lat="43.01926" lon="0.17948">
        <ele>679.4</ele>
        <time>2023-11-19T09:11:39Z</time>
      </trkpt>
      <trkpt lat="43.01926" lon="0.17948">
        <ele>679.5</ele>
        <time>2023-11-19T09:11:40Z</time>
      </trkpt>
      <trkpt lat="43.01927" lon="0.17949">
        <ele>679.8</ele>
        <time>2023-11-19T09:11:41Z</time>
      </trkpt>
      <trkpt lat="43.01928" lon="0.17949">
        <ele>680</ele>
        <time>2023-11-19T09:11:42Z</time>
      </trkpt>
      <trkpt lat="43.01928" lon="0.17948">
        <ele>680.1</ele>
        <time>2023-11-19T09:11:43Z</time>
      </trkpt>
      <trkpt lat="43.01928" lon="0.17948">
        <ele>680.3</ele>
        <time>2023-11-19T09:11:44Z</time>
      </trkpt>
      <trkpt lat="43.01929" lon="0.17948">
        <ele>680.4</ele>
        <time>2023-11-19T09:11:45Z</time>
      </trkpt>
      <trkpt lat="43.01929" lon="0.17947">
        <ele>680.6</ele>
        <time>2023-11-19T09:11:46Z</time>
      </trkpt>
      <trkpt lat="43.0193" lon="0.17947">
        <ele>680.7</ele>
        <time>2023-11-19T09:11:47Z</time>
      </trkpt>
      <trkpt lat="43.0193" lon="0.17946">
        <ele>680.8</ele>
        <time>2023-11-19T09:11:48Z</time>
      </trkpt>
      <trkpt lat="43.01931" lon="0.17946">
        <ele>681</ele>
        <time>2023-11-19T09:11:49Z</time>
      </trkpt>
      <trkpt lat="43.01932" lon="0.17945">
        <ele>681.3</ele>
        <time>2023-11-19T09:11:50Z</time>
      </trkpt>
      <trkpt lat="43.01933" lon="0.17945">
        <ele>681.5</ele>
        <time>2023-11-19T09:11:51Z</time>
      </trkpt>
      <trkpt lat="43.01934" lon="0.17945">
        <ele>681.9</ele>
        <time>2023-11-19T09:11:52Z</time>
      </trkpt>
      <trkpt lat="43.01934" lon="0.17945">
        <ele>682</ele>
        <time>2023-11-19T09:11:53Z</time>
      </trkpt>
      <trkpt lat="43.01935" lon="0.17945">
        <ele>682.3</ele>
        <time>2023-11-19T09:11:54Z</time>
      </trkpt>
      <trkpt lat="43.01936" lon="0.17945">
        <ele>682.4</ele>
        <time>2023-11-19T09:11:55Z</time>
      </trkpt>
      <trkpt lat="43.01936" lon="0.17944">
        <ele>682.6</ele>
        <time>2023-11-19T09:11:56Z</time>
      </trkpt>
      <trkpt lat="43.01937" lon="0.17944">
        <ele>682.8</ele>
        <time>2023-11-19T09:11:57Z</time>
      </trkpt>
      <trkpt lat="43.0194" lon="0.17944">
        <ele>683.5</ele>
        <time>2023-11-19T09:11:58Z</time>
      </trkpt>
      <trkpt lat="43.01942" lon="0.17945">
        <ele>683.9</ele>
        <time>2023-11-19T09:11:59Z</time>
      </trkpt>
      <trkpt lat="43.01944" lon="0.17945">
        <ele>684.4</ele>
        <time>2023-11-19T09:12:00Z</time>
      </trkpt>
      <trkpt lat="43.01942" lon="0.17946">
        <ele>684.8</ele>
        <time>2023-11-19T09:12:01Z</time>
      </trkpt>
      <trkpt lat="43.01941" lon="0.17946">
        <ele>685</ele>
        <time>2023-11-19T09:12:02Z</time>
      </trkpt>
      <trkpt lat="43.01941" lon="0.17946">
        <ele>685.1</ele>
        <time>2023-11-19T09:12:03Z</time>
      </trkpt>
      <trkpt lat="43.0194" lon="0.17946">
        <ele>685.4</ele>
        <time>2023-11-19T09:12:04Z</time>
      </trkpt>
      <trkpt lat="43.0194" lon="0.17947">
        <ele>685.5</ele>
        <time>2023-11-19T09:12:05Z</time>
      </trkpt>
      <trkpt lat="43.01941" lon="0.17947">
        <ele>685.6</ele>
        <time>2023-11-19T09:12:06Z</time>
      </trkpt>
      <trkpt lat="43.01941" lon="0.17948">
        <ele>685.9</ele>
        <time>2023-11-19T09:12:07Z</time>
      </trkpt>
      <trkpt lat="43.01941" lon="0.17948">
        <ele>685.9</ele>
        <time>2023-11-19T09:12:08Z</time>
      </trkpt>
      <trkpt lat="43.0194" lon="0.17949">
        <ele>686.1</ele>
        <time>2023-11-19T09:12:09Z</time>
      </trkpt>
      <trkpt lat="43.01939" lon="0.17949">
        <ele>686.4</ele>
        <time>2023-11-19T09:12:10Z</time>
      </trkpt>
      <trkpt lat="43.01938" lon="0.17948">
        <ele>686.6</ele>
        <time>2023-11-19T09:12:11Z</time>
      </trkpt>
      <trkpt lat="43.01938" lon="0.17949">
        <ele>686.8</ele>
        <time>2023-11-19T09:12:12Z</time>
      </trkpt>
      <trkpt lat="43.01937" lon="0.17949">
        <ele>687</ele>
        <time>2023-11-19T09:12:13Z</time>
      </trkpt>
      <trkpt lat="43.01937" lon="0.1795">
        <ele>687.2</ele>
        <time>2023-11-19T09:12:14Z</time>
      </trkpt>
      <trkpt lat="43.01936" lon="0.17951">
        <ele>687.4</ele>
        <time>2023-11-19T09:12:15Z</time>
      </trkpt>
      <trkpt lat="43.01936" lon="0.17951">
        <ele>687.6</ele>
        <time>2023-11-19T09:12:16Z</time>
      </trkpt>
      <trkpt lat="43.01935" lon="0.17952">
        <ele>687.8</ele>
        <time>2023-11-19T09:12:17Z</time>
      </trkpt>
      <trkpt lat="43.01935" lon="0.17952">
        <ele>687.8</ele>
        <time>2023-11-19T09:12:18Z</time>
      </trkpt>
      <trkpt lat="43.01935" lon="0.17953">
        <ele>688</ele>
        <time>2023-11-19T09:12:19Z</time>
      </trkpt>
      <trkpt lat="43.01935" lon="0.17954">
        <ele>688.2</ele>
        <time>2023-11-19T09:12:20Z</time>
      </trkpt>
      <trkpt lat="43.01936" lon="0.17955">
        <ele>688.4</ele>
        <time>2023-11-19T09:12:21Z</time>
      </trkpt>
      <trkpt lat="43.01936" lon="0.17955">
        <ele>688.6</ele>
        <time>2023-11-19T09:12:22Z</time>
      </trkpt>
      <trkpt lat="43.01937" lon="0.17956">
        <ele>688.9</ele>
        <time>2023-11-19T09:12:23Z</time>
      </trkpt>
      <trkpt lat="43.01938" lon="0.17956">
        <ele>689.1</ele>
        <time>2023-11-19T09:12:24Z</time>
      </trkpt>
      <trkpt lat="43.01937" lon="0.17957">
        <ele>689.3</ele>
        <time>2023-11-19T09:12:25Z</time>
      </trkpt>
      <trkpt lat="43.01937" lon="0.17957">
        <ele>689.4</ele>
        <time>2023-11-19T09:12:26Z</time>
      </trkpt>
      <trkpt lat="43.01937" lon="0.17957">
        <ele>689.5</ele>
        <time>2023-11-19T09:12:27Z</time>
      </trkpt>
      <trkpt lat="43.01936" lon="0.17958">
        <ele>689.7</ele>
        <time>2023-11-19T09:12:28Z</time>
      </trkpt>
      <trkpt lat="43.01937" lon="0.1796">
        <ele>690.1</ele>
        <time>2023-11-19T09:12:29Z</time>
      </trkpt>
      <trkpt lat="43.01937" lon="0.17959">
        <ele>690.3</ele>
        <time>2023-11-19T09:12:30Z</time>
      </trkpt>
      <trkpt lat="43.01937" lon="0.1796">
        <ele>690.4</ele>
        <time>2023-11-19T09:12:31Z</time>
      </trkpt>
      <trkpt lat="43.01936" lon="0.1796">
        <ele>690.5</ele>
        <time>2023-11-19T09:12:32Z</time>
      </trkpt>
      <trkpt lat="43.01935" lon="0.17961">
        <ele>690.8</ele>
        <time>2023-11-19T09:12:33Z</time>
      </trkpt>
      <trkpt lat="43.01934" lon="0.17962">
        <ele>691.1</ele>
        <time>2023-11-19T09:12:34Z</time>
      </trkpt>
      <trkpt lat="43.01933" lon="0.17962">
        <ele>691.3</ele>
        <time>2023-11-19T09:12:35Z</time>
      </trkpt>
      <trkpt lat="43.01932" lon="0.17963">
        <ele>691.5</ele>
        <time>2023-11-19T09:12:36Z</time>
      </trkpt>
      <trkpt lat="43.01932" lon="0.17963">
        <ele>691.6</ele>
        <time>2023-11-19T09:12:37Z</time>
      </trkpt>
      <trkpt lat="43.01931" lon="0.17963">
        <ele>691.8</ele>
        <time>2023-11-19T09:12:38Z</time>
      </trkpt>
      <trkpt lat="43.01931" lon="0.17964">
        <ele>691.9</ele>
        <time>2023-11-19T09:12:39Z</time>
      </trkpt>
      <trkpt lat="43.0193" lon="0.17964">
        <ele>692.1</ele>
        <time>2023-11-19T09:12:40Z</time>
      </trkpt>
      <trkpt lat="43.01929" lon="0.17965">
        <ele>692.1</ele>
        <time>2023-11-19T09:12:41Z</time>
      </trkpt>
      <trkpt lat="43.01929" lon="0.17965">
        <ele>692.2</ele>
        <time>2023-11-19T09:12:42Z</time>
      </trkpt>
      <trkpt lat="43.01928" lon="0.17965">
        <ele>692.3</ele>
        <time>2023-11-19T09:12:43Z</time>
      </trkpt>
      <trkpt lat="43.01928" lon="0.17966">
        <ele>692.5</ele>
        <time>2023-11-19T09:12:44Z</time>
      </trkpt>
      <trkpt lat="43.01927" lon="0.17967">
        <ele>692.6</ele>
        <time>2023-11-19T09:12:45Z</time>
      </trkpt>
      <trkpt lat="43.01927" lon="0.17968">
        <ele>692.8</ele>
        <time>2023-11-19T09:12:46Z</time>
      </trkpt>
      <trkpt lat="43.01927" lon="0.17969">
        <ele>692.9</ele>
        <time>2023-11-19T09:12:47Z</time>
      </trkpt>
      <trkpt lat="43.01926" lon="0.17969">
        <ele>693</ele>
        <time>2023-11-19T09:12:48Z</time>
      </trkpt>
      <trkpt lat="43.01927" lon="0.17969">
        <ele>693</ele>
        <time>2023-11-19T09:12:49Z</time>
      </trkpt>
      <trkpt lat="43.01926" lon="0.17969">
        <ele>693.1</ele>
        <time>2023-11-19T09:12:50Z</time>
      </trkpt>
      <trkpt lat="43.01926" lon="0.1797">
        <ele>693.1</ele>
        <time>2023-11-19T09:12:51Z</time>
      </trkpt>
      <trkpt lat="43.01927" lon="0.1797">
        <ele>693.2</ele>
        <time>2023-11-19T09:12:52Z</time>
      </trkpt>
      <trkpt lat="43.01927" lon="0.1797">
        <ele>693.2</ele>
        <time>2023-11-19T09:12:53Z</time>
      </trkpt>
      <trkpt lat="43.01927" lon="0.17971">
        <ele>693.3</ele>
        <time>2023-11-19T09:12:54Z</time>
      </trkpt>
      <trkpt lat="43.01926" lon="0.17971">
        <ele>693.3</ele>
        <time>2023-11-19T09:12:55Z</time>
      </trkpt>
      <trkpt lat="43.01926" lon="0.17971">
        <ele>693.3</ele>
        <time>2023-11-19T09:12:56Z</time>
      </trkpt>
      <trkpt lat="43.01926" lon="0.17971">
        <ele>693.3</ele>
        <time>2023-11-19T09:12:57Z</time>
      </trkpt>
      <trkpt lat="43.01927" lon="0.17971">
        <ele>693.4</ele>
        <time>2023-11-19T09:12:58Z</time>
      </trkpt>
      <trkpt lat="43.01926" lon="0.17972">
        <ele>693.5</ele>
        <time>2023-11-19T09:12:59Z</time>
      </trkpt>
      <trkpt lat="43.01925" lon="0.17973">
        <ele>693.7</ele>
        <time>2023-11-19T09:13:00Z</time>
      </trkpt>
      <trkpt lat="43.01925" lon="0.17973">
        <ele>693.8</ele>
        <time>2023-11-19T09:13:01Z</time>
      </trkpt>
      <trkpt lat="43.01924" lon="0.17974">
        <ele>693.9</ele>
        <time>2023-11-19T09:13:02Z</time>
      </trkpt>
      <trkpt lat="43.01924" lon="0.17974">
        <ele>694</ele>
        <time>2023-11-19T09:13:03Z</time>
      </trkpt>
      <trkpt lat="43.01923" lon="0.17975">
        <ele>694.1</ele>
        <time>2023-11-19T09:13:04Z</time>
      </trkpt>
      <trkpt lat="43.01923" lon="0.17975">
        <ele>694.3</ele>
        <time>2023-11-19T09:13:05Z</time>
      </trkpt>
      <trkpt lat="43.01922" lon="0.17976">
        <ele>694.3</ele>
        <time>2023-11-19T09:13:06Z</time>
      </trkpt>
      <trkpt lat="43.01922" lon="0.17976">
        <ele>694.4</ele>
        <time>2023-11-19T09:13:07Z</time>
      </trkpt>
      <trkpt lat="43.01921" lon="0.17976">
        <ele>694.5</ele>
        <time>2023-11-19T09:13:08Z</time>
      </trkpt>
      <trkpt lat="43.01921" lon="0.17977">
        <ele>694.6</ele>
        <time>2023-11-19T09:13:09Z</time>
      </trkpt>
      <trkpt lat="43.0192" lon="0.17977">
        <ele>694.7</ele>
        <time>2023-11-19T09:13:10Z</time>
      </trkpt>
      <trkpt lat="43.0192" lon="0.17978">
        <ele>694.9</ele>
        <time>2023-11-19T09:13:11Z</time>
      </trkpt>
      <trkpt lat="43.01919" lon="0.17978">
        <ele>695</ele>
        <time>2023-11-19T09:13:12Z</time>
      </trkpt>
      <trkpt lat="43.01919" lon="0.17979">
        <ele>695.1</ele>
        <time>2023-11-19T09:13:13Z</time>
      </trkpt>
      <trkpt lat="43.01918" lon="0.1798">
        <ele>695.2</ele>
        <time>2023-11-19T09:13:14Z</time>
      </trkpt>
      <trkpt lat="43.01917" lon="0.1798">
        <ele>695.4</ele>
        <time>2023-11-19T09:13:15Z</time>
      </trkpt>
      <trkpt lat="43.01917" lon="0.17981">
        <ele>695.5</ele>
        <time>2023-11-19T09:13:16Z</time>
      </trkpt>
      <trkpt lat="43.01916" lon="0.17982">
        <ele>695.7</ele>
        <time>2023-11-19T09:13:17Z</time>
      </trkpt>
      <trkpt lat="43.01915" lon="0.17982">
        <ele>695.8</ele>
        <time>2023-11-19T09:13:18Z</time>
      </trkpt>
      <trkpt lat="43.01915" lon="0.17983">
        <ele>696</ele>
        <time>2023-11-19T09:13:19Z</time>
      </trkpt>
      <trkpt lat="43.01914" lon="0.17984">
        <ele>696.1</ele>
        <time>2023-11-19T09:13:20Z</time>
      </trkpt>
      <trkpt lat="43.01913" lon="0.17984">
        <ele>696.3</ele>
        <time>2023-11-19T09:13:21Z</time>
      </trkpt>
      <trkpt lat="43.01913" lon="0.17985">
        <ele>696.4</ele>
        <time>2023-11-19T09:13:22Z</time>
      </trkpt>
      <trkpt lat="43.01913" lon="0.17986">
        <ele>696.5</ele>
        <time>2023-11-19T09:13:23Z</time>
      </trkpt>
      <trkpt lat="43.01912" lon="0.17986">
        <ele>696.7</ele>
        <time>2023-11-19T09:13:24Z</time>
      </trkpt>
      <trkpt lat="43.01912" lon="0.17987">
        <ele>696.8</ele>
        <time>2023-11-19T09:13:25Z</time>
      </trkpt>
      <trkpt lat="43.01911" lon="0.17988">
        <ele>696.9</ele>
        <time>2023-11-19T09:13:26Z</time>
      </trkpt>
      <trkpt lat="43.01911" lon="0.17989">
        <ele>697.1</ele>
        <time>2023-11-19T09:13:27Z</time>
      </trkpt>
      <trkpt lat="43.01911" lon="0.1799">
        <ele>697.3</ele>
        <time>2023-11-19T09:13:28Z</time>
      </trkpt>
      <trkpt lat="43.0191" lon="0.17991">
        <ele>697.4</ele>
        <time>2023-11-19T09:13:29Z</time>
      </trkpt>
      <trkpt lat="43.0191" lon="0.17991">
        <ele>697.5</ele>
        <time>2023-11-19T09:13:30Z</time>
      </trkpt>
      <trkpt lat="43.01909" lon="0.17992">
        <ele>697.6</ele>
        <time>2023-11-19T09:13:31Z</time>
      </trkpt>
      <trkpt lat="43.01909" lon="0.17993">
        <ele>697.8</ele>
        <time>2023-11-19T09:13:32Z</time>
      </trkpt>
      <trkpt lat="43.01909" lon="0.17994">
        <ele>697.9</ele>
        <time>2023-11-19T09:13:33Z</time>
      </trkpt>
      <trkpt lat="43.01909" lon="0.17994">
        <ele>698</ele>
        <time>2023-11-19T09:13:34Z</time>
      </trkpt>
      <trkpt lat="43.01908" lon="0.17995">
        <ele>698.1</ele>
        <time>2023-11-19T09:13:35Z</time>
      </trkpt>
      <trkpt lat="43.01908" lon="0.17996">
        <ele>698.3</ele>
        <time>2023-11-19T09:13:36Z</time>
      </trkpt>
      <trkpt lat="43.01908" lon="0.17996">
        <ele>698.4</ele>
        <time>2023-11-19T09:13:37Z</time>
      </trkpt>
      <trkpt lat="43.01907" lon="0.17998">
        <ele>698.7</ele>
        <time>2023-11-19T09:13:38Z</time>
      </trkpt>
      <trkpt lat="43.01907" lon="0.17999">
        <ele>698.9</ele>
        <time>2023-11-19T09:13:39Z</time>
      </trkpt>
      <trkpt lat="43.01906" lon="0.18">
        <ele>699</ele>
        <time>2023-11-19T09:13:40Z</time>
      </trkpt>
      <trkpt lat="43.01906" lon="0.18">
        <ele>699.2</ele>
        <time>2023-11-19T09:13:41Z</time>
      </trkpt>
      <trkpt lat="43.01905" lon="0.18001">
        <ele>699.4</ele>
        <time>2023-11-19T09:13:42Z</time>
      </trkpt>
      <trkpt lat="43.01905" lon="0.18002">
        <ele>699.6</ele>
        <time>2023-11-19T09:13:43Z</time>
      </trkpt>
      <trkpt lat="43.01904" lon="0.18003">
        <ele>699.8</ele>
        <time>2023-11-19T09:13:44Z</time>
      </trkpt>
      <trkpt lat="43.01903" lon="0.18004">
        <ele>700.1</ele>
        <time>2023-11-19T09:13:45Z</time>
      </trkpt>
      <trkpt lat="43.01902" lon="0.18004">
        <ele>700.2</ele>
        <time>2023-11-19T09:13:46Z</time>
      </trkpt>
      <trkpt lat="43.01901" lon="0.18005">
        <ele>700.4</ele>
        <time>2023-11-19T09:13:47Z</time>
      </trkpt>
      <trkpt lat="43.019" lon="0.18005">
        <ele>700.7</ele>
        <time>2023-11-19T09:13:48Z</time>
      </trkpt>
      <trkpt lat="43.019" lon="0.18006">
        <ele>700.8</ele>
        <time>2023-11-19T09:13:49Z</time>
      </trkpt>
      <trkpt lat="43.01901" lon="0.18007">
        <ele>700.9</ele>
        <time>2023-11-19T09:13:50Z</time>
      </trkpt>
      <trkpt lat="43.01901" lon="0.18007">
        <ele>701.1</ele>
        <time>2023-11-19T09:13:51Z</time>
      </trkpt>
      <trkpt lat="43.01902" lon="0.18008">
        <ele>701.1</ele>
        <time>2023-11-19T09:13:52Z</time>
      </trkpt>
      <trkpt lat="43.01903" lon="0.18008">
        <ele>701.3</ele>
        <time>2023-11-19T09:13:53Z</time>
      </trkpt>
      <trkpt lat="43.01903" lon="0.18008">
        <ele>701.5</ele>
        <time>2023-11-19T09:13:54Z</time>
      </trkpt>
      <trkpt lat="43.01904" lon="0.18009">
        <ele>701.7</ele>
        <time>2023-11-19T09:13:55Z</time>
      </trkpt>
      <trkpt lat="43.01904" lon="0.18009">
        <ele>701.7</ele>
        <time>2023-11-19T09:13:56Z</time>
      </trkpt>
      <trkpt lat="43.01905" lon="0.18009">
        <ele>701.9</ele>
        <time>2023-11-19T09:13:57Z</time>
      </trkpt>
      <trkpt lat="43.01905" lon="0.18009">
        <ele>702.1</ele>
        <time>2023-11-19T09:13:58Z</time>
      </trkpt>
      <trkpt lat="43.01906" lon="0.18009">
        <ele>702.3</ele>
        <time>2023-11-19T09:13:59Z</time>
      </trkpt>
      <trkpt lat="43.01907" lon="0.18009">
        <ele>702.6</ele>
        <time>2023-11-19T09:14:00Z</time>
      </trkpt>
      <trkpt lat="43.01908" lon="0.18009">
        <ele>702.8</ele>
        <time>2023-11-19T09:14:01Z</time>
      </trkpt>
      <trkpt lat="43.01909" lon="0.18009">
        <ele>703</ele>
        <time>2023-11-19T09:14:02Z</time>
      </trkpt>
      <trkpt lat="43.01909" lon="0.1801">
        <ele>703.2</ele>
        <time>2023-11-19T09:14:03Z</time>
      </trkpt>
      <trkpt lat="43.0191" lon="0.18009">
        <ele>703.4</ele>
        <time>2023-11-19T09:14:04Z</time>
      </trkpt>
      <trkpt lat="43.01911" lon="0.18009">
        <ele>703.6</ele>
        <time>2023-11-19T09:14:05Z</time>
      </trkpt>
      <trkpt lat="43.01912" lon="0.18009">
        <ele>703.8</ele>
        <time>2023-11-19T09:14:06Z</time>
      </trkpt>
      <trkpt lat="43.01912" lon="0.18009">
        <ele>704.1</ele>
        <time>2023-11-19T09:14:07Z</time>
      </trkpt>
      <trkpt lat="43.01913" lon="0.18009">
        <ele>704.3</ele>
        <time>2023-11-19T09:14:08Z</time>
      </trkpt>
      <trkpt lat="43.01914" lon="0.18009">
        <ele>704.5</ele>
        <time>2023-11-19T09:14:09Z</time>
      </trkpt>
      <trkpt lat="43.01915" lon="0.18009">
        <ele>704.7</ele>
        <time>2023-11-19T09:14:10Z</time>
      </trkpt>
      <trkpt lat="43.01915" lon="0.18009">
        <ele>704.9</ele>
        <time>2023-11-19T09:14:11Z</time>
      </trkpt>
      <trkpt lat="43.01916" lon="0.1801">
        <ele>705.1</ele>
        <time>2023-11-19T09:14:12Z</time>
      </trkpt>
      <trkpt lat="43.01916" lon="0.1801">
        <ele>705.2</ele>
        <time>2023-11-19T09:14:13Z</time>
      </trkpt>
      <trkpt lat="43.01917" lon="0.1801">
        <ele>705.3</ele>
        <time>2023-11-19T09:14:14Z</time>
      </trkpt>
      <trkpt lat="43.01917" lon="0.1801">
        <ele>705.4</ele>
        <time>2023-11-19T09:14:15Z</time>
      </trkpt>
      <trkpt lat="43.01917" lon="0.18011">
        <ele>705.4</ele>
        <time>2023-11-19T09:14:16Z</time>
      </trkpt>
      <trkpt lat="43.01918" lon="0.18012">
        <ele>705.8</ele>
        <time>2023-11-19T09:14:17Z</time>
      </trkpt>
      <trkpt lat="43.01919" lon="0.18012">
        <ele>706</ele>
        <time>2023-11-19T09:14:18Z</time>
      </trkpt>
      <trkpt lat="43.0192" lon="0.18012">
        <ele>706.3</ele>
        <time>2023-11-19T09:14:19Z</time>
      </trkpt>
      <trkpt lat="43.0192" lon="0.18012">
        <ele>706.4</ele>
        <time>2023-11-19T09:14:20Z</time>
      </trkpt>
      <trkpt lat="43.01921" lon="0.18012">
        <ele>706.6</ele>
        <time>2023-11-19T09:14:21Z</time>
      </trkpt>
      <trkpt lat="43.01921" lon="0.18012">
        <ele>706.7</ele>
        <time>2023-11-19T09:14:22Z</time>
      </trkpt>
      <trkpt lat="43.01922" lon="0.18012">
        <ele>706.9</ele>
        <time>2023-11-19T09:14:23Z</time>
      </trkpt>
      <trkpt lat="43.01923" lon="0.18011">
        <ele>707.1</ele>
        <time>2023-11-19T09:14:24Z</time>
      </trkpt>
      <trkpt lat="43.01923" lon="0.18011">
        <ele>707.3</ele>
        <time>2023-11-19T09:14:25Z</time>
      </trkpt>
      <trkpt lat="43.01924" lon="0.18012">
        <ele>707.5</ele>
        <time>2023-11-19T09:14:26Z</time>
      </trkpt>
      <trkpt lat="43.01925" lon="0.18012">
        <ele>707.7</ele>
        <time>2023-11-19T09:14:27Z</time>
      </trkpt>
      <trkpt lat="43.01926" lon="0.18013">
        <ele>707.9</ele>
        <time>2023-11-19T09:14:28Z</time>
      </trkpt>
      <trkpt lat="43.01926" lon="0.18013">
        <ele>708.2</ele>
        <time>2023-11-19T09:14:29Z</time>
      </trkpt>
      <trkpt lat="43.01927" lon="0.18014">
        <ele>708.3</ele>
        <time>2023-11-19T09:14:30Z</time>
      </trkpt>
      <trkpt lat="43.01928" lon="0.18014">
        <ele>708.5</ele>
        <time>2023-11-19T09:14:31Z</time>
      </trkpt>
      <trkpt lat="43.01929" lon="0.18014">
        <ele>708.7</ele>
        <time>2023-11-19T09:14:32Z</time>
      </trkpt>
      <trkpt lat="43.0193" lon="0.18014">
        <ele>709</ele>
        <time>2023-11-19T09:14:33Z</time>
      </trkpt>
      <trkpt lat="43.01931" lon="0.18013">
        <ele>709.3</ele>
        <time>2023-11-19T09:14:34Z</time>
      </trkpt>
      <trkpt lat="43.01932" lon="0.18012">
        <ele>709.5</ele>
        <time>2023-11-19T09:14:35Z</time>
      </trkpt>
      <trkpt lat="43.01933" lon="0.18012">
        <ele>709.7</ele>
        <time>2023-11-19T09:14:36Z</time>
      </trkpt>
      <trkpt lat="43.01934" lon="0.18012">
        <ele>709.9</ele>
        <time>2023-11-19T09:14:37Z</time>
      </trkpt>
      <trkpt lat="43.01934" lon="0.18012">
        <ele>710.1</ele>
        <time>2023-11-19T09:14:38Z</time>
      </trkpt>
      <trkpt lat="43.01935" lon="0.18013">
        <ele>710.2</ele>
        <time>2023-11-19T09:14:39Z</time>
      </trkpt>
      <trkpt lat="43.01935" lon="0.18012">
        <ele>710.2</ele>
        <time>2023-11-19T09:14:40Z</time>
      </trkpt>
      <trkpt lat="43.01935" lon="0.18013">
        <ele>710.3</ele>
        <time>2023-11-19T09:14:41Z</time>
      </trkpt>
      <trkpt lat="43.01935" lon="0.18013">
        <ele>710.3</ele>
        <time>2023-11-19T09:14:42Z</time>
      </trkpt>
      <trkpt lat="43.01935" lon="0.18013">
        <ele>710.3</ele>
        <time>2023-11-19T09:14:43Z</time>
      </trkpt>
      <trkpt lat="43.01936" lon="0.18013">
        <ele>710.6</ele>
        <time>2023-11-19T09:14:44Z</time>
      </trkpt>
      <trkpt lat="43.01938" lon="0.18013">
        <ele>710.9</ele>
        <time>2023-11-19T09:14:45Z</time>
      </trkpt>
      <trkpt lat="43.01938" lon="0.18013">
        <ele>711</ele>
        <time>2023-11-19T09:14:46Z</time>
      </trkpt>
      <trkpt lat="43.0194" lon="0.18014">
        <ele>711.3</ele>
        <time>2023-11-19T09:14:47Z</time>
      </trkpt>
      <trkpt lat="43.0194" lon="0.18014">
        <ele>711.4</ele>
        <time>2023-11-19T09:14:48Z</time>
      </trkpt>
      <trkpt lat="43.01941" lon="0.18014">
        <ele>711.5</ele>
        <time>2023-11-19T09:14:49Z</time>
      </trkpt>
      <trkpt lat="43.01941" lon="0.18014">
        <ele>711.6</ele>
        <time>2023-11-19T09:14:50Z</time>
      </trkpt>
      <trkpt lat="43.01942" lon="0.18014">
        <ele>711.8</ele>
        <time>2023-11-19T09:14:51Z</time>
      </trkpt>
      <trkpt lat="43.01943" lon="0.18014">
        <ele>712</ele>
        <time>2023-11-19T09:14:52Z</time>
      </trkpt>
      <trkpt lat="43.01943" lon="0.18014">
        <ele>712.1</ele>
        <time>2023-11-19T09:14:53Z</time>
      </trkpt>
      <trkpt lat="43.01944" lon="0.18013">
        <ele>712.3</ele>
        <time>2023-11-19T09:14:54Z</time>
      </trkpt>
      <trkpt lat="43.01945" lon="0.18013">
        <ele>712.4</ele>
        <time>2023-11-19T09:14:55Z</time>
      </trkpt>
      <trkpt lat="43.01945" lon="0.18013">
        <ele>712.5</ele>
        <time>2023-11-19T09:14:56Z</time>
      </trkpt>
      <trkpt lat="43.01946" lon="0.18013">
        <ele>712.7</ele>
        <time>2023-11-19T09:14:57Z</time>
      </trkpt>
      <trkpt lat="43.01947" lon="0.18013">
        <ele>712.9</ele>
        <time>2023-11-19T09:14:58Z</time>
      </trkpt>
      <trkpt lat="43.01948" lon="0.18013">
        <ele>713.1</ele>
        <time>2023-11-19T09:14:59Z</time>
      </trkpt>
      <trkpt lat="43.01949" lon="0.18013">
        <ele>713.3</ele>
        <time>2023-11-19T09:15:00Z</time>
      </trkpt>
      <trkpt lat="43.0195" lon="0.18013">
        <ele>713.4</ele>
        <time>2023-11-19T09:15:01Z</time>
      </trkpt>
      <trkpt lat="43.0195" lon="0.18013">
        <ele>713.5</ele>
        <time>2023-11-19T09:15:02Z</time>
      </trkpt>
      <trkpt lat="43.01951" lon="0.18013">
        <ele>713.6</ele>
        <time>2023-11-19T09:15:03Z</time>
      </trkpt>
      <trkpt lat="43.01951" lon="0.18013">
        <ele>713.8</ele>
        <time>2023-11-19T09:15:04Z</time>
      </trkpt>
      <trkpt lat="43.01953" lon="0.18013">
        <ele>714</ele>
        <time>2023-11-19T09:15:05Z</time>
      </trkpt>
      <trkpt lat="43.01953" lon="0.18012">
        <ele>714.1</ele>
        <time>2023-11-19T09:15:06Z</time>
      </trkpt>
      <trkpt lat="43.01954" lon="0.18012">
        <ele>714.3</ele>
        <time>2023-11-19T09:15:07Z</time>
      </trkpt>
      <trkpt lat="43.01955" lon="0.18012">
        <ele>714.5</ele>
        <time>2023-11-19T09:15:08Z</time>
      </trkpt>
      <trkpt lat="43.01956" lon="0.18012">
        <ele>714.6</ele>
        <time>2023-11-19T09:15:09Z</time>
      </trkpt>
      <trkpt lat="43.01956" lon="0.18013">
        <ele>714.7</ele>
        <time>2023-11-19T09:15:10Z</time>
      </trkpt>
      <trkpt lat="43.01957" lon="0.18013">
        <ele>714.9</ele>
        <time>2023-11-19T09:15:11Z</time>
      </trkpt>
      <trkpt lat="43.01958" lon="0.18013">
        <ele>715.1</ele>
        <time>2023-11-19T09:15:12Z</time>
      </trkpt>
      <trkpt lat="43.01959" lon="0.18013">
        <ele>715.3</ele>
        <time>2023-11-19T09:15:13Z</time>
      </trkpt>
      <trkpt lat="43.0196" lon="0.18013">
        <ele>715.4</ele>
        <time>2023-11-19T09:15:14Z</time>
      </trkpt>
      <trkpt lat="43.0196" lon="0.18014">
        <ele>715.6</ele>
        <time>2023-11-19T09:15:15Z</time>
      </trkpt>
      <trkpt lat="43.01962" lon="0.18013">
        <ele>715.8</ele>
        <time>2023-11-19T09:15:16Z</time>
      </trkpt>
      <trkpt lat="43.01963" lon="0.18013">
        <ele>716</ele>
        <time>2023-11-19T09:15:17Z</time>
      </trkpt>
      <trkpt lat="43.01964" lon="0.18013">
        <ele>716.2</ele>
        <time>2023-11-19T09:15:18Z</time>
      </trkpt>
      <trkpt lat="43.01965" lon="0.18013">
        <ele>716.4</ele>
        <time>2023-11-19T09:15:19Z</time>
      </trkpt>
      <trkpt lat="43.01965" lon="0.18013">
        <ele>716.5</ele>
        <time>2023-11-19T09:15:20Z</time>
      </trkpt>
      <trkpt lat="43.01966" lon="0.18013">
        <ele>716.6</ele>
        <time>2023-11-19T09:15:21Z</time>
      </trkpt>
      <trkpt lat="43.01967" lon="0.18012">
        <ele>716.9</ele>
        <time>2023-11-19T09:15:22Z</time>
      </trkpt>
      <trkpt lat="43.01968" lon="0.18012">
        <ele>717</ele>
        <time>2023-11-19T09:15:23Z</time>
      </trkpt>
      <trkpt lat="43.01969" lon="0.18012">
        <ele>717.2</ele>
        <time>2023-11-19T09:15:24Z</time>
      </trkpt>
      <trkpt lat="43.0197" lon="0.18012">
        <ele>717.4</ele>
        <time>2023-11-19T09:15:25Z</time>
      </trkpt>
      <trkpt lat="43.0197" lon="0.1801">
        <ele>717.6</ele>
        <time>2023-11-19T09:15:26Z</time>
      </trkpt>
      <trkpt lat="43.0197" lon="0.18012">
        <ele>717.8</ele>
        <time>2023-11-19T09:15:27Z</time>
      </trkpt>
      <trkpt lat="43.01971" lon="0.18012">
        <ele>718</ele>
        <time>2023-11-19T09:15:28Z</time>
      </trkpt>
      <trkpt lat="43.01972" lon="0.18012">
        <ele>718.2</ele>
        <time>2023-11-19T09:15:29Z</time>
      </trkpt>
      <trkpt lat="43.01972" lon="0.18012">
        <ele>718.2</ele>
        <time>2023-11-19T09:15:30Z</time>
      </trkpt>
      <trkpt lat="43.01973" lon="0.18013">
        <ele>718.4</ele>
        <time>2023-11-19T09:15:31Z</time>
      </trkpt>
      <trkpt lat="43.01973" lon="0.18012">
        <ele>718.5</ele>
        <time>2023-11-19T09:15:32Z</time>
      </trkpt>
      <trkpt lat="43.01974" lon="0.18011">
        <ele>718.7</ele>
        <time>2023-11-19T09:15:33Z</time>
      </trkpt>
      <trkpt lat="43.01974" lon="0.18012">
        <ele>718.7</ele>
        <time>2023-11-19T09:15:34Z</time>
      </trkpt>
      <trkpt lat="43.01975" lon="0.18012">
        <ele>718.9</ele>
        <time>2023-11-19T09:15:35Z</time>
      </trkpt>
      <trkpt lat="43.01975" lon="0.18012">
        <ele>719</ele>
        <time>2023-11-19T09:15:36Z</time>
      </trkpt>
      <trkpt lat="43.01976" lon="0.18012">
        <ele>719.1</ele>
        <time>2023-11-19T09:15:37Z</time>
      </trkpt>
      <trkpt lat="43.01976" lon="0.18013">
        <ele>719.2</ele>
        <time>2023-11-19T09:15:38Z</time>
      </trkpt>
      <trkpt lat="43.01977" lon="0.18013">
        <ele>719.4</ele>
        <time>2023-11-19T09:15:39Z</time>
      </trkpt>
      <trkpt lat="43.01978" lon="0.18013">
        <ele>719.6</ele>
        <time>2023-11-19T09:15:40Z</time>
      </trkpt>
      <trkpt lat="43.01979" lon="0.18013">
        <ele>719.7</ele>
        <time>2023-11-19T09:15:41Z</time>
      </trkpt>
      <trkpt lat="43.0198" lon="0.18013">
        <ele>719.9</ele>
        <time>2023-11-19T09:15:42Z</time>
      </trkpt>
      <trkpt lat="43.0198" lon="0.18013">
        <ele>720</ele>
        <time>2023-11-19T09:15:43Z</time>
      </trkpt>
      <trkpt lat="43.01981" lon="0.18013">
        <ele>720.2</ele>
        <time>2023-11-19T09:15:44Z</time>
      </trkpt>
      <trkpt lat="43.01982" lon="0.18013">
        <ele>720.3</ele>
        <time>2023-11-19T09:15:45Z</time>
      </trkpt>
      <trkpt lat="43.01983" lon="0.18014">
        <ele>720.5</ele>
        <time>2023-11-19T09:15:46Z</time>
      </trkpt>
      <trkpt lat="43.01984" lon="0.18014">
        <ele>720.6</ele>
        <time>2023-11-19T09:15:47Z</time>
      </trkpt>
      <trkpt lat="43.01985" lon="0.18013">
        <ele>720.8</ele>
        <time>2023-11-19T09:15:48Z</time>
      </trkpt>
      <trkpt lat="43.01986" lon="0.18013">
        <ele>721</ele>
        <time>2023-11-19T09:15:49Z</time>
      </trkpt>
      <trkpt lat="43.01986" lon="0.18013">
        <ele>721.2</ele>
        <time>2023-11-19T09:15:50Z</time>
      </trkpt>
      <trkpt lat="43.01987" lon="0.18012">
        <ele>721.3</ele>
        <time>2023-11-19T09:15:51Z</time>
      </trkpt>
      <trkpt lat="43.01988" lon="0.18013">
        <ele>721.4</ele>
        <time>2023-11-19T09:15:52Z</time>
      </trkpt>
      <trkpt lat="43.01988" lon="0.18013">
        <ele>721.5</ele>
        <time>2023-11-19T09:15:53Z</time>
      </trkpt>
      <trkpt lat="43.01989" lon="0.18013">
        <ele>721.7</ele>
        <time>2023-11-19T09:15:54Z</time>
      </trkpt>
      <trkpt lat="43.01989" lon="0.18013">
        <ele>721.7</ele>
        <time>2023-11-19T09:15:55Z</time>
      </trkpt>
      <trkpt lat="43.0199" lon="0.18013">
        <ele>721.8</ele>
        <time>2023-11-19T09:15:56Z</time>
      </trkpt>
      <trkpt lat="43.01991" lon="0.18013">
        <ele>722</ele>
        <time>2023-11-19T09:15:57Z</time>
      </trkpt>
      <trkpt lat="43.01991" lon="0.18013">
        <ele>722</ele>
        <time>2023-11-19T09:15:58Z</time>
      </trkpt>
      <trkpt lat="43.01992" lon="0.18013">
        <ele>722.2</ele>
        <time>2023-11-19T09:15:59Z</time>
      </trkpt>
      <trkpt lat="43.01993" lon="0.18013">
        <ele>722.4</ele>
        <time>2023-11-19T09:16:00Z</time>
      </trkpt>
      <trkpt lat="43.01994" lon="0.18012">
        <ele>722.5</ele>
        <time>2023-11-19T09:16:01Z</time>
      </trkpt>
      <trkpt lat="43.01995" lon="0.18012">
        <ele>722.6</ele>
        <time>2023-11-19T09:16:02Z</time>
      </trkpt>
      <trkpt lat="43.01995" lon="0.18012">
        <ele>722.7</ele>
        <time>2023-11-19T09:16:03Z</time>
      </trkpt>
      <trkpt lat="43.01996" lon="0.18013">
        <ele>722.9</ele>
        <time>2023-11-19T09:16:04Z</time>
      </trkpt>
      <trkpt lat="43.01997" lon="0.18013">
        <ele>723</ele>
        <time>2023-11-19T09:16:05Z</time>
      </trkpt>
      <trkpt lat="43.01997" lon="0.18013">
        <ele>723.1</ele>
        <time>2023-11-19T09:16:06Z</time>
      </trkpt>
      <trkpt lat="43.01998" lon="0.18013">
        <ele>723.2</ele>
        <time>2023-11-19T09:16:07Z</time>
      </trkpt>
      <trkpt lat="43.01998" lon="0.18013">
        <ele>723.3</ele>
        <time>2023-11-19T09:16:08Z</time>
      </trkpt>
      <trkpt lat="43.01999" lon="0.18013">
        <ele>723.4</ele>
        <time>2023-11-19T09:16:09Z</time>
      </trkpt>
      <trkpt lat="43.01999" lon="0.18013">
        <ele>723.5</ele>
        <time>2023-11-19T09:16:10Z</time>
      </trkpt>
      <trkpt lat="43.02" lon="0.18013">
        <ele>723.6</ele>
        <time>2023-11-19T09:16:11Z</time>
      </trkpt>
      <trkpt lat="43.02" lon="0.18014">
        <ele>723.7</ele>
        <time>2023-11-19T09:16:12Z</time>
      </trkpt>
      <trkpt lat="43.02001" lon="0.18014">
        <ele>723.8</ele>
        <time>2023-11-19T09:16:13Z</time>
      </trkpt>
      <trkpt lat="43.02002" lon="0.18014">
        <ele>723.9</ele>
        <time>2023-11-19T09:16:14Z</time>
      </trkpt>
      <trkpt lat="43.02002" lon="0.18014">
        <ele>723.9</ele>
        <time>2023-11-19T09:16:15Z</time>
      </trkpt>
      <trkpt lat="43.02003" lon="0.18014">
        <ele>724</ele>
        <time>2023-11-19T09:16:16Z</time>
      </trkpt>
      <trkpt lat="43.02003" lon="0.18014">
        <ele>724.1</ele>
        <time>2023-11-19T09:16:17Z</time>
      </trkpt>
      <trkpt lat="43.02004" lon="0.18015">
        <ele>724.2</ele>
        <time>2023-11-19T09:16:18Z</time>
      </trkpt>
      <trkpt lat="43.02005" lon="0.18014">
        <ele>724.3</ele>
        <time>2023-11-19T09:16:19Z</time>
      </trkpt>
      <trkpt lat="43.02005" lon="0.18014">
        <ele>724.4</ele>
        <time>2023-11-19T09:16:20Z</time>
      </trkpt>
      <trkpt lat="43.02006" lon="0.18014">
        <ele>724.5</ele>
        <time>2023-11-19T09:16:21Z</time>
      </trkpt>
      <trkpt lat="43.02007" lon="0.18014">
        <ele>724.6</ele>
        <time>2023-11-19T09:16:22Z</time>
      </trkpt>
      <trkpt lat="43.02007" lon="0.18014">
        <ele>724.6</ele>
        <time>2023-11-19T09:16:23Z</time>
      </trkpt>
      <trkpt lat="43.02009" lon="0.18013">
        <ele>724.8</ele>
        <time>2023-11-19T09:16:24Z</time>
      </trkpt>
      <trkpt lat="43.0201" lon="0.18013">
        <ele>724.9</ele>
        <time>2023-11-19T09:16:25Z</time>
      </trkpt>
      <trkpt lat="43.0201" lon="0.18013">
        <ele>725</ele>
        <time>2023-11-19T09:16:26Z</time>
      </trkpt>
      <trkpt lat="43.02012" lon="0.18012">
        <ele>725.1</ele>
        <time>2023-11-19T09:16:27Z</time>
      </trkpt>
      <trkpt lat="43.02013" lon="0.18012">
        <ele>725.3</ele>
        <time>2023-11-19T09:16:28Z</time>
      </trkpt>
      <trkpt lat="43.02014" lon="0.18011">
        <ele>725.3</ele>
        <time>2023-11-19T09:16:29Z</time>
      </trkpt>
      <trkpt lat="43.02014" lon="0.18011">
        <ele>725.4</ele>
        <time>2023-11-19T09:16:30Z</time>
      </trkpt>
      <trkpt lat="43.02015" lon="0.1801">
        <ele>725.5</ele>
        <time>2023-11-19T09:16:31Z</time>
      </trkpt>
      <trkpt lat="43.02015" lon="0.1801">
        <ele>725.5</ele>
        <time>2023-11-19T09:16:32Z</time>
      </trkpt>
      <trkpt lat="43.02016" lon="0.1801">
        <ele>725.6</ele>
        <time>2023-11-19T09:16:33Z</time>
      </trkpt>
      <trkpt lat="43.02017" lon="0.18009">
        <ele>725.6</ele>
        <time>2023-11-19T09:16:34Z</time>
      </trkpt>
      <trkpt lat="43.02018" lon="0.18008">
        <ele>725.7</ele>
        <time>2023-11-19T09:16:35Z</time>
      </trkpt>
      <trkpt lat="43.02019" lon="0.18007">
        <ele>725.8</ele>
        <time>2023-11-19T09:16:36Z</time>
      </trkpt>
      <trkpt lat="43.0202" lon="0.18007">
        <ele>725.9</ele>
        <time>2023-11-19T09:16:37Z</time>
      </trkpt>
      <trkpt lat="43.0202" lon="0.18006">
        <ele>726</ele>
        <time>2023-11-19T09:16:38Z</time>
      </trkpt>
      <trkpt lat="43.0202" lon="0.18006">
        <ele>726</ele>
        <time>2023-11-19T09:16:39Z</time>
      </trkpt>
      <trkpt lat="43.0202" lon="0.18006">
        <ele>726</ele>
        <time>2023-11-19T09:16:40Z</time>
      </trkpt>
      <trkpt lat="43.0202" lon="0.18006">
        <ele>726</ele>
        <time>2023-11-19T09:16:41Z</time>
      </trkpt>
      <trkpt lat="43.0202" lon="0.18006">
        <ele>726</ele>
        <time>2023-11-19T09:16:42Z</time>
      </trkpt>
      <trkpt lat="43.0202" lon="0.18005">
        <ele>726</ele>
        <time>2023-11-19T09:16:43Z</time>
      </trkpt>
      <trkpt lat="43.0202" lon="0.18005">
        <ele>726</ele>
        <time>2023-11-19T09:16:44Z</time>
      </trkpt>
      <trkpt lat="43.0202" lon="0.18005">
        <ele>726</ele>
        <time>2023-11-19T09:16:45Z</time>
      </trkpt>
      <trkpt lat="43.0202" lon="0.18004">
        <ele>726.1</ele>
        <time>2023-11-19T09:16:46Z</time>
      </trkpt>
      <trkpt lat="43.0202" lon="0.18004">
        <ele>726.1</ele>
        <time>2023-11-19T09:16:47Z</time>
      </trkpt>
      <trkpt lat="43.0202" lon="0.18004">
        <ele>726.1</ele>
        <time>2023-11-19T09:16:48Z</time>
      </trkpt>
      <trkpt lat="43.0202" lon="0.18004">
        <ele>726.1</ele>
        <time>2023-11-19T09:16:49Z</time>
      </trkpt>
      <trkpt lat="43.0202" lon="0.18004">
        <ele>726.1</ele>
        <time>2023-11-19T09:16:50Z</time>
      </trkpt>
      <trkpt lat="43.0202" lon="0.18004">
        <ele>726.1</ele>
        <time>2023-11-19T09:16:51Z</time>
      </trkpt>
      <trkpt lat="43.0202" lon="0.18004">
        <ele>726.1</ele>
        <time>2023-11-19T09:16:52Z</time>
      </trkpt>
      <trkpt lat="43.0202" lon="0.18003">
        <ele>726.2</ele>
        <time>2023-11-19T09:16:53Z</time>
      </trkpt>
      <trkpt lat="43.0202" lon="0.18004">
        <ele>726.2</ele>
        <time>2023-11-19T09:16:54Z</time>
      </trkpt>
      <trkpt lat="43.0202" lon="0.18004">
        <ele>726.2</ele>
        <time>2023-11-19T09:16:55Z</time>
      </trkpt>
      <trkpt lat="43.0202" lon="0.18004">
        <ele>726.2</ele>
        <time>2023-11-19T09:16:56Z</time>
      </trkpt>
      <trkpt lat="43.0202" lon="0.18004">
        <ele>726.2</ele>
        <time>2023-11-19T09:16:57Z</time>
      </trkpt>
      <trkpt lat="43.0202" lon="0.18004">
        <ele>726.2</ele>
        <time>2023-11-19T09:16:58Z</time>
      </trkpt>
      <trkpt lat="43.0202" lon="0.18004">
        <ele>726.2</ele>
        <time>2023-11-19T09:16:59Z</time>
      </trkpt>
      <trkpt lat="43.0202" lon="0.18004">
        <ele>726.3</ele>
        <time>2023-11-19T09:17:00Z</time>
      </trkpt>
      <trkpt lat="43.0202" lon="0.18004">
        <ele>726.3</ele>
        <time>2023-11-19T09:17:01Z</time>
      </trkpt>
      <trkpt lat="43.0202" lon="0.18004">
        <ele>726.3</ele>
        <time>2023-11-19T09:17:02Z</time>
      </trkpt>
      <trkpt lat="43.0202" lon="0.18004">
        <ele>726.3</ele>
        <time>2023-11-19T09:17:03Z</time>
      </trkpt>
      <trkpt lat="43.0202" lon="0.18004">
        <ele>726.3</ele>
        <time>2023-11-19T09:17:04Z</time>
      </trkpt>
      <trkpt lat="43.0202" lon="0.18004">
        <ele>726.3</ele>
        <time>2023-11-19T09:17:05Z</time>
      </trkpt>
      <trkpt lat="43.0202" lon="0.18004">
        <ele>726.3</ele>
        <time>2023-11-19T09:17:06Z</time>
      </trkpt>
      <trkpt lat="43.0202" lon="0.18004">
        <ele>726.3</ele>
        <time>2023-11-19T09:17:07Z</time>
      </trkpt>
      <trkpt lat="43.0202" lon="0.18004">
        <ele>726.3</ele>
        <time>2023-11-19T09:17:08Z</time>
      </trkpt>
      <trkpt lat="43.02021" lon="0.18004">
        <ele>726.3</ele>
        <time>2023-11-19T09:17:09Z</time>
      </trkpt>
      <trkpt lat="43.0202" lon="0.18004">
        <ele>726.3</ele>
        <time>2023-11-19T09:17:10Z</time>
      </trkpt>
      <trkpt lat="43.0202" lon="0.18004">
        <ele>726.3</ele>
        <time>2023-11-19T09:17:11Z</time>
      </trkpt>
      <trkpt lat="43.0202" lon="0.18003">
        <ele>726.4</ele>
        <time>2023-11-19T09:17:12Z</time>
      </trkpt>
      <trkpt lat="43.0202" lon="0.18004">
        <ele>726.4</ele>
        <time>2023-11-19T09:17:13Z</time>
      </trkpt>
      <trkpt lat="43.0202" lon="0.18004">
        <ele>726.4</ele>
        <time>2023-11-19T09:17:14Z</time>
      </trkpt>
      <trkpt lat="43.0202" lon="0.18004">
        <ele>726.4</ele>
        <time>2023-11-19T09:17:15Z</time>
      </trkpt>
      <trkpt lat="43.0202" lon="0.18004">
        <ele>726.4</ele>
        <time>2023-11-19T09:17:16Z</time>
      </trkpt>
      <trkpt lat="43.0202" lon="0.18004">
        <ele>726.4</ele>
        <time>2023-11-19T09:17:17Z</time>
      </trkpt>
      <trkpt lat="43.02021" lon="0.18004">
        <ele>726.4</ele>
        <time>2023-11-19T09:17:18Z</time>
      </trkpt>
      <trkpt lat="43.02021" lon="0.18004">
        <ele>726.4</ele>
        <time>2023-11-19T09:17:19Z</time>
      </trkpt>
      <trkpt lat="43.0202" lon="0.18003">
        <ele>726.4</ele>
        <time>2023-11-19T09:17:20Z</time>
      </trkpt>
      <trkpt lat="43.02021" lon="0.18003">
        <ele>726.5</ele>
        <time>2023-11-19T09:17:21Z</time>
      </trkpt>
      <trkpt lat="43.02021" lon="0.18003">
        <ele>726.5</ele>
        <time>2023-11-19T09:17:22Z</time>
      </trkpt>
      <trkpt lat="43.02022" lon="0.18003">
        <ele>726.6</ele>
        <time>2023-11-19T09:17:23Z</time>
      </trkpt>
      <trkpt lat="43.02023" lon="0.18004">
        <ele>726.7</ele>
        <time>2023-11-19T09:17:24Z</time>
      </trkpt>
      <trkpt lat="43.02024" lon="0.18003">
        <ele>726.8</ele>
        <time>2023-11-19T09:17:25Z</time>
      </trkpt>
      <trkpt lat="43.02025" lon="0.18004">
        <ele>727</ele>
        <time>2023-11-19T09:17:26Z</time>
      </trkpt>
      <trkpt lat="43.02027" lon="0.18003">
        <ele>727.1</ele>
        <time>2023-11-19T09:17:27Z</time>
      </trkpt>
      <trkpt lat="43.02028" lon="0.18003">
        <ele>727.2</ele>
        <time>2023-11-19T09:17:28Z</time>
      </trkpt>
      <trkpt lat="43.02029" lon="0.18003">
        <ele>727.4</ele>
        <time>2023-11-19T09:17:29Z</time>
      </trkpt>
      <trkpt lat="43.0203" lon="0.18003">
        <ele>727.5</ele>
        <time>2023-11-19T09:17:30Z</time>
      </trkpt>
      <trkpt lat="43.02031" lon="0.18003">
        <ele>727.6</ele>
        <time>2023-11-19T09:17:31Z</time>
      </trkpt>
      <trkpt lat="43.02032" lon="0.18003">
        <ele>727.7</ele>
        <time>2023-11-19T09:17:32Z</time>
      </trkpt>
      <trkpt lat="43.02032" lon="0.18003">
        <ele>727.8</ele>
        <time>2023-11-19T09:17:33Z</time>
      </trkpt>
      <trkpt lat="43.02033" lon="0.18003">
        <ele>727.9</ele>
        <time>2023-11-19T09:17:34Z</time>
      </trkpt>
      <trkpt lat="43.02034" lon="0.18003">
        <ele>728</ele>
        <time>2023-11-19T09:17:35Z</time>
      </trkpt>
      <trkpt lat="43.02035" lon="0.18003">
        <ele>728.1</ele>
        <time>2023-11-19T09:17:36Z</time>
      </trkpt>
      <trkpt lat="43.02035" lon="0.18004">
        <ele>728.2</ele>
        <time>2023-11-19T09:17:37Z</time>
      </trkpt>
      <trkpt lat="43.02036" lon="0.18004">
        <ele>728.3</ele>
        <time>2023-11-19T09:17:38Z</time>
      </trkpt>
      <trkpt lat="43.02037" lon="0.18004">
        <ele>728.4</ele>
        <time>2023-11-19T09:17:39Z</time>
      </trkpt>
      <trkpt lat="43.02038" lon="0.18004">
        <ele>728.5</ele>
        <time>2023-11-19T09:17:40Z</time>
      </trkpt>
      <trkpt lat="43.02039" lon="0.18004">
        <ele>728.6</ele>
        <time>2023-11-19T09:17:41Z</time>
      </trkpt>
      <trkpt lat="43.02039" lon="0.18004">
        <ele>728.7</ele>
        <time>2023-11-19T09:17:42Z</time>
      </trkpt>
      <trkpt lat="43.0204" lon="0.18004">
        <ele>728.8</ele>
        <time>2023-11-19T09:17:43Z</time>
      </trkpt>
      <trkpt lat="43.02041" lon="0.18004">
        <ele>728.9</ele>
        <time>2023-11-19T09:17:44Z</time>
      </trkpt>
      <trkpt lat="43.02043" lon="0.18003">
        <ele>729.1</ele>
        <time>2023-11-19T09:17:45Z</time>
      </trkpt>
      <trkpt lat="43.02043" lon="0.18003">
        <ele>729.2</ele>
        <time>2023-11-19T09:17:46Z</time>
      </trkpt>
      <trkpt lat="43.02044" lon="0.18003">
        <ele>729.3</ele>
        <time>2023-11-19T09:17:47Z</time>
      </trkpt>
      <trkpt lat="43.02045" lon="0.18003">
        <ele>729.4</ele>
        <time>2023-11-19T09:17:48Z</time>
      </trkpt>
      <trkpt lat="43.02046" lon="0.18003">
        <ele>729.6</ele>
        <time>2023-11-19T09:17:49Z</time>
      </trkpt>
      <trkpt lat="43.02046" lon="0.18003">
        <ele>729.7</ele>
        <time>2023-11-19T09:17:50Z</time>
      </trkpt>
      <trkpt lat="43.02047" lon="0.18004">
        <ele>729.8</ele>
        <time>2023-11-19T09:17:51Z</time>
      </trkpt>
      <trkpt lat="43.02048" lon="0.18003">
        <ele>729.8</ele>
        <time>2023-11-19T09:17:52Z</time>
      </trkpt>
      <trkpt lat="43.02049" lon="0.18003">
        <ele>730.1</ele>
        <time>2023-11-19T09:17:53Z</time>
      </trkpt>
      <trkpt lat="43.0205" lon="0.18004">
        <ele>730.2</ele>
        <time>2023-11-19T09:17:54Z</time>
      </trkpt>
      <trkpt lat="43.02051" lon="0.18003">
        <ele>730.3</ele>
        <time>2023-11-19T09:17:55Z</time>
      </trkpt>
      <trkpt lat="43.02052" lon="0.18004">
        <ele>730.5</ele>
        <time>2023-11-19T09:17:56Z</time>
      </trkpt>
      <trkpt lat="43.02053" lon="0.18004">
        <ele>730.6</ele>
        <time>2023-11-19T09:17:57Z</time>
      </trkpt>
      <trkpt lat="43.02054" lon="0.18004">
        <ele>730.8</ele>
        <time>2023-11-19T09:17:58Z</time>
      </trkpt>
      <trkpt lat="43.02055" lon="0.18004">
        <ele>731</ele>
        <time>2023-11-19T09:17:59Z</time>
      </trkpt>
      <trkpt lat="43.02056" lon="0.18005">
        <ele>731.1</ele>
        <time>2023-11-19T09:18:00Z</time>
      </trkpt>
      <trkpt lat="43.02057" lon="0.18005">
        <ele>731.3</ele>
        <time>2023-11-19T09:18:01Z</time>
      </trkpt>
      <trkpt lat="43.02058" lon="0.18005">
        <ele>731.4</ele>
        <time>2023-11-19T09:18:02Z</time>
      </trkpt>
      <trkpt lat="43.02059" lon="0.18005">
        <ele>731.5</ele>
        <time>2023-11-19T09:18:03Z</time>
      </trkpt>
      <trkpt lat="43.02059" lon="0.18005">
        <ele>731.7</ele>
        <time>2023-11-19T09:18:04Z</time>
      </trkpt>
      <trkpt lat="43.0206" lon="0.18006">
        <ele>731.8</ele>
        <time>2023-11-19T09:18:05Z</time>
      </trkpt>
      <trkpt lat="43.0206" lon="0.18006">
        <ele>731.9</ele>
        <time>2023-11-19T09:18:06Z</time>
      </trkpt>
      <trkpt lat="43.02062" lon="0.18006">
        <ele>732.2</ele>
        <time>2023-11-19T09:18:07Z</time>
      </trkpt>
      <trkpt lat="43.02063" lon="0.18006">
        <ele>732.3</ele>
        <time>2023-11-19T09:18:08Z</time>
      </trkpt>
      <trkpt lat="43.02064" lon="0.18006">
        <ele>732.5</ele>
        <time>2023-11-19T09:18:09Z</time>
      </trkpt>
      <trkpt lat="43.02065" lon="0.18007">
        <ele>732.7</ele>
        <time>2023-11-19T09:18:10Z</time>
      </trkpt>
      <trkpt lat="43.02066" lon="0.18006">
        <ele>732.8</ele>
        <time>2023-11-19T09:18:11Z</time>
      </trkpt>
      <trkpt lat="43.02066" lon="0.18006">
        <ele>732.9</ele>
        <time>2023-11-19T09:18:12Z</time>
      </trkpt>
      <trkpt lat="43.02067" lon="0.18006">
        <ele>733.1</ele>
        <time>2023-11-19T09:18:13Z</time>
      </trkpt>
      <trkpt lat="43.02068" lon="0.18007">
        <ele>733.3</ele>
        <time>2023-11-19T09:18:14Z</time>
      </trkpt>
      <trkpt lat="43.02069" lon="0.18007">
        <ele>733.4</ele>
        <time>2023-11-19T09:18:15Z</time>
      </trkpt>
      <trkpt lat="43.0207" lon="0.18007">
        <ele>733.6</ele>
        <time>2023-11-19T09:18:16Z</time>
      </trkpt>
      <trkpt lat="43.02071" lon="0.18007">
        <ele>733.8</ele>
        <time>2023-11-19T09:18:17Z</time>
      </trkpt>
      <trkpt lat="43.02072" lon="0.18007">
        <ele>734</ele>
        <time>2023-11-19T09:18:18Z</time>
      </trkpt>
      <trkpt lat="43.02073" lon="0.18007">
        <ele>734.1</ele>
        <time>2023-11-19T09:18:19Z</time>
      </trkpt>
      <trkpt lat="43.02074" lon="0.18007">
        <ele>734.3</ele>
        <time>2023-11-19T09:18:20Z</time>
      </trkpt>
      <trkpt lat="43.02075" lon="0.18008">
        <ele>734.4</ele>
        <time>2023-11-19T09:18:21Z</time>
      </trkpt>
      <trkpt lat="43.02076" lon="0.18007">
        <ele>734.6</ele>
        <time>2023-11-19T09:18:22Z</time>
      </trkpt>
      <trkpt lat="43.02077" lon="0.18008">
        <ele>734.8</ele>
        <time>2023-11-19T09:18:23Z</time>
      </trkpt>
      <trkpt lat="43.02078" lon="0.18008">
        <ele>734.9</ele>
        <time>2023-11-19T09:18:24Z</time>
      </trkpt>
      <trkpt lat="43.02079" lon="0.18008">
        <ele>735.1</ele>
        <time>2023-11-19T09:18:25Z</time>
      </trkpt>
      <trkpt lat="43.0208" lon="0.18008">
        <ele>735.2</ele>
        <time>2023-11-19T09:18:26Z</time>
      </trkpt>
      <trkpt lat="43.02081" lon="0.18008">
        <ele>735.4</ele>
        <time>2023-11-19T09:18:27Z</time>
      </trkpt>
      <trkpt lat="43.02082" lon="0.18008">
        <ele>735.6</ele>
        <time>2023-11-19T09:18:28Z</time>
      </trkpt>
      <trkpt lat="43.02083" lon="0.18008">
        <ele>735.7</ele>
        <time>2023-11-19T09:18:29Z</time>
      </trkpt>
      <trkpt lat="43.02084" lon="0.18008">
        <ele>735.9</ele>
        <time>2023-11-19T09:18:30Z</time>
      </trkpt>
      <trkpt lat="43.02085" lon="0.18008">
        <ele>736</ele>
        <time>2023-11-19T09:18:31Z</time>
      </trkpt>
      <trkpt lat="43.02086" lon="0.18008">
        <ele>736.2</ele>
        <time>2023-11-19T09:18:32Z</time>
      </trkpt>
      <trkpt lat="43.02086" lon="0.18008">
        <ele>736.3</ele>
        <time>2023-11-19T09:18:33Z</time>
      </trkpt>
      <trkpt lat="43.02087" lon="0.18008">
        <ele>736.5</ele>
        <time>2023-11-19T09:18:34Z</time>
      </trkpt>
      <trkpt lat="43.02088" lon="0.18008">
        <ele>736.6</ele>
        <time>2023-11-19T09:18:35Z</time>
      </trkpt>
      <trkpt lat="43.02089" lon="0.18008">
        <ele>736.7</ele>
        <time>2023-11-19T09:18:36Z</time>
      </trkpt>
      <trkpt lat="43.0209" lon="0.18008">
        <ele>736.9</ele>
        <time>2023-11-19T09:18:37Z</time>
      </trkpt>
      <trkpt lat="43.02091" lon="0.18008">
        <ele>737.1</ele>
        <time>2023-11-19T09:18:38Z</time>
      </trkpt>
      <trkpt lat="43.02092" lon="0.18009">
        <ele>737.3</ele>
        <time>2023-11-19T09:18:39Z</time>
      </trkpt>
      <trkpt lat="43.02092" lon="0.1801">
        <ele>737.4</ele>
        <time>2023-11-19T09:18:40Z</time>
      </trkpt>
      <trkpt lat="43.02093" lon="0.1801">
        <ele>737.5</ele>
        <time>2023-11-19T09:18:41Z</time>
      </trkpt>
      <trkpt lat="43.02094" lon="0.1801">
        <ele>737.7</ele>
        <time>2023-11-19T09:18:42Z</time>
      </trkpt>
      <trkpt lat="43.02095" lon="0.18011">
        <ele>737.8</ele>
        <time>2023-11-19T09:18:43Z</time>
      </trkpt>
      <trkpt lat="43.02095" lon="0.18011">
        <ele>737.9</ele>
        <time>2023-11-19T09:18:44Z</time>
      </trkpt>
      <trkpt lat="43.02096" lon="0.18012">
        <ele>738</ele>
        <time>2023-11-19T09:18:45Z</time>
      </trkpt>
      <trkpt lat="43.02096" lon="0.18012">
        <ele>738.1</ele>
        <time>2023-11-19T09:18:46Z</time>
      </trkpt>
      <trkpt lat="43.02097" lon="0.18013">
        <ele>738.2</ele>
        <time>2023-11-19T09:18:47Z</time>
      </trkpt>
      <trkpt lat="43.02097" lon="0.18012">
        <ele>738.3</ele>
        <time>2023-11-19T09:18:48Z</time>
      </trkpt>
      <trkpt lat="43.02098" lon="0.18013">
        <ele>738.4</ele>
        <time>2023-11-19T09:18:49Z</time>
      </trkpt>
      <trkpt lat="43.02098" lon="0.18014">
        <ele>738.5</ele>
        <time>2023-11-19T09:18:50Z</time>
      </trkpt>
      <trkpt lat="43.02098" lon="0.18014">
        <ele>738.6</ele>
        <time>2023-11-19T09:18:51Z</time>
      </trkpt>
      <trkpt lat="43.02099" lon="0.18014">
        <ele>738.8</ele>
        <time>2023-11-19T09:18:52Z</time>
      </trkpt>
      <trkpt lat="43.021" lon="0.18014">
        <ele>738.9</ele>
        <time>2023-11-19T09:18:53Z</time>
      </trkpt>
      <trkpt lat="43.02101" lon="0.18014">
        <ele>739.1</ele>
        <time>2023-11-19T09:18:54Z</time>
      </trkpt>
      <trkpt lat="43.02102" lon="0.18013">
        <ele>739.3</ele>
        <time>2023-11-19T09:18:55Z</time>
      </trkpt>
      <trkpt lat="43.02103" lon="0.18014">
        <ele>739.4</ele>
        <time>2023-11-19T09:18:56Z</time>
      </trkpt>
      <trkpt lat="43.02103" lon="0.18014">
        <ele>739.5</ele>
        <time>2023-11-19T09:18:57Z</time>
      </trkpt>
      <trkpt lat="43.02104" lon="0.18014">
        <ele>739.7</ele>
        <time>2023-11-19T09:18:58Z</time>
      </trkpt>
      <trkpt lat="43.02105" lon="0.18015">
        <ele>739.8</ele>
        <time>2023-11-19T09:18:59Z</time>
      </trkpt>
      <trkpt lat="43.02106" lon="0.18015">
        <ele>740</ele>
        <time>2023-11-19T09:19:00Z</time>
      </trkpt>
      <trkpt lat="43.02107" lon="0.18015">
        <ele>740.2</ele>
        <time>2023-11-19T09:19:01Z</time>
      </trkpt>
      <trkpt lat="43.02107" lon="0.18015">
        <ele>740.3</ele>
        <time>2023-11-19T09:19:02Z</time>
      </trkpt>
      <trkpt lat="43.02108" lon="0.18016">
        <ele>740.4</ele>
        <time>2023-11-19T09:19:03Z</time>
      </trkpt>
      <trkpt lat="43.02109" lon="0.18016">
        <ele>740.6</ele>
        <time>2023-11-19T09:19:04Z</time>
      </trkpt>
      <trkpt lat="43.02109" lon="0.18016">
        <ele>740.7</ele>
        <time>2023-11-19T09:19:05Z</time>
      </trkpt>
      <trkpt lat="43.0211" lon="0.18017">
        <ele>740.8</ele>
        <time>2023-11-19T09:19:06Z</time>
      </trkpt>
      <trkpt lat="43.0211" lon="0.18018">
        <ele>740.9</ele>
        <time>2023-11-19T09:19:07Z</time>
      </trkpt>
      <trkpt lat="43.0211" lon="0.18018">
        <ele>741</ele>
        <time>2023-11-19T09:19:08Z</time>
      </trkpt>
      <trkpt lat="43.02111" lon="0.18019">
        <ele>741.1</ele>
        <time>2023-11-19T09:19:09Z</time>
      </trkpt>
      <trkpt lat="43.02111" lon="0.1802">
        <ele>741.2</ele>
        <time>2023-11-19T09:19:10Z</time>
      </trkpt>
      <trkpt lat="43.02112" lon="0.1802">
        <ele>741.4</ele>
        <time>2023-11-19T09:19:11Z</time>
      </trkpt>
      <trkpt lat="43.02112" lon="0.18021">
        <ele>741.5</ele>
        <time>2023-11-19T09:19:12Z</time>
      </trkpt>
      <trkpt lat="43.02112" lon="0.18021">
        <ele>741.6</ele>
        <time>2023-11-19T09:19:13Z</time>
      </trkpt>
      <trkpt lat="43.02113" lon="0.18022">
        <ele>741.7</ele>
        <time>2023-11-19T09:19:14Z</time>
      </trkpt>
      <trkpt lat="43.02113" lon="0.18022">
        <ele>741.7</ele>
        <time>2023-11-19T09:19:15Z</time>
      </trkpt>
      <trkpt lat="43.02114" lon="0.18022">
        <ele>741.8</ele>
        <time>2023-11-19T09:19:16Z</time>
      </trkpt>
      <trkpt lat="43.02114" lon="0.18022">
        <ele>741.9</ele>
        <time>2023-11-19T09:19:17Z</time>
      </trkpt>
      <trkpt lat="43.02115" lon="0.18022">
        <ele>742</ele>
        <time>2023-11-19T09:19:18Z</time>
      </trkpt>
      <trkpt lat="43.02115" lon="0.18023">
        <ele>742.2</ele>
        <time>2023-11-19T09:19:19Z</time>
      </trkpt>
      <trkpt lat="43.02116" lon="0.18023">
        <ele>742.3</ele>
        <time>2023-11-19T09:19:20Z</time>
      </trkpt>
      <trkpt lat="43.02117" lon="0.18024">
        <ele>742.4</ele>
        <time>2023-11-19T09:19:21Z</time>
      </trkpt>
      <trkpt lat="43.02117" lon="0.18024">
        <ele>742.6</ele>
        <time>2023-11-19T09:19:22Z</time>
      </trkpt>
      <trkpt lat="43.02118" lon="0.18025">
        <ele>742.7</ele>
        <time>2023-11-19T09:19:23Z</time>
      </trkpt>
      <trkpt lat="43.02118" lon="0.18025">
        <ele>742.8</ele>
        <time>2023-11-19T09:19:24Z</time>
      </trkpt>
      <trkpt lat="43.02119" lon="0.18026">
        <ele>742.9</ele>
        <time>2023-11-19T09:19:25Z</time>
      </trkpt>
      <trkpt lat="43.0212" lon="0.18026">
        <ele>743</ele>
        <time>2023-11-19T09:19:26Z</time>
      </trkpt>
      <trkpt lat="43.0212" lon="0.18026">
        <ele>743.2</ele>
        <time>2023-11-19T09:19:27Z</time>
      </trkpt>
      <trkpt lat="43.02122" lon="0.18026">
        <ele>743.4</ele>
        <time>2023-11-19T09:19:28Z</time>
      </trkpt>
      <trkpt lat="43.02123" lon="0.18027">
        <ele>743.6</ele>
        <time>2023-11-19T09:19:29Z</time>
      </trkpt>
      <trkpt lat="43.02124" lon="0.18027">
        <ele>743.7</ele>
        <time>2023-11-19T09:19:30Z</time>
      </trkpt>
      <trkpt lat="43.02124" lon="0.18028">
        <ele>743.8</ele>
        <time>2023-11-19T09:19:31Z</time>
      </trkpt>
      <trkpt lat="43.02124" lon="0.18028">
        <ele>743.9</ele>
        <time>2023-11-19T09:19:32Z</time>
      </trkpt>
      <trkpt lat="43.02125" lon="0.18029">
        <ele>744</ele>
        <time>2023-11-19T09:19:33Z</time>
      </trkpt>
      <trkpt lat="43.02125" lon="0.1803">
        <ele>744.1</ele>
        <time>2023-11-19T09:19:34Z</time>
      </trkpt>
      <trkpt lat="43.02126" lon="0.1803">
        <ele>744.3</ele>
        <time>2023-11-19T09:19:35Z</time>
      </trkpt>
      <trkpt lat="43.02127" lon="0.1803">
        <ele>744.5</ele>
        <time>2023-11-19T09:19:36Z</time>
      </trkpt>
      <trkpt lat="43.02129" lon="0.18031">
        <ele>744.8</ele>
        <time>2023-11-19T09:19:37Z</time>
      </trkpt>
      <trkpt lat="43.02129" lon="0.18031">
        <ele>744.9</ele>
        <time>2023-11-19T09:19:38Z</time>
      </trkpt>
      <trkpt lat="43.0213" lon="0.18031">
        <ele>745</ele>
        <time>2023-11-19T09:19:39Z</time>
      </trkpt>
      <trkpt lat="43.02131" lon="0.18032">
        <ele>745.2</ele>
        <time>2023-11-19T09:19:40Z</time>
      </trkpt>
      <trkpt lat="43.02132" lon="0.18033">
        <ele>745.4</ele>
        <time>2023-11-19T09:19:41Z</time>
      </trkpt>
      <trkpt lat="43.02133" lon="0.18033">
        <ele>745.6</ele>
        <time>2023-11-19T09:19:42Z</time>
      </trkpt>
      <trkpt lat="43.02134" lon="0.18034">
        <ele>745.8</ele>
        <time>2023-11-19T09:19:43Z</time>
      </trkpt>
      <trkpt lat="43.02134" lon="0.18034">
        <ele>745.9</ele>
        <time>2023-11-19T09:19:44Z</time>
      </trkpt>
      <trkpt lat="43.02134" lon="0.18035">
        <ele>746</ele>
        <time>2023-11-19T09:19:45Z</time>
      </trkpt>
      <trkpt lat="43.02135" lon="0.18036">
        <ele>746.1</ele>
        <time>2023-11-19T09:19:46Z</time>
      </trkpt>
      <trkpt lat="43.02135" lon="0.18036">
        <ele>746.3</ele>
        <time>2023-11-19T09:19:47Z</time>
      </trkpt>
      <trkpt lat="43.02136" lon="0.18037">
        <ele>746.4</ele>
        <time>2023-11-19T09:19:48Z</time>
      </trkpt>
      <trkpt lat="43.02136" lon="0.18037">
        <ele>746.5</ele>
        <time>2023-11-19T09:19:49Z</time>
      </trkpt>
      <trkpt lat="43.02136" lon="0.18038">
        <ele>746.7</ele>
        <time>2023-11-19T09:19:50Z</time>
      </trkpt>
      <trkpt lat="43.02137" lon="0.18038">
        <ele>746.8</ele>
        <time>2023-11-19T09:19:51Z</time>
      </trkpt>
      <trkpt lat="43.02138" lon="0.18039">
        <ele>746.9</ele>
        <time>2023-11-19T09:19:52Z</time>
      </trkpt>
      <trkpt lat="43.02138" lon="0.18039">
        <ele>747.1</ele>
        <time>2023-11-19T09:19:53Z</time>
      </trkpt>
      <trkpt lat="43.02138" lon="0.1804">
        <ele>747.2</ele>
        <time>2023-11-19T09:19:54Z</time>
      </trkpt>
      <trkpt lat="43.02139" lon="0.18041">
        <ele>747.3</ele>
        <time>2023-11-19T09:19:55Z</time>
      </trkpt>
      <trkpt lat="43.02138" lon="0.18041">
        <ele>747.4</ele>
        <time>2023-11-19T09:19:56Z</time>
      </trkpt>
      <trkpt lat="43.02139" lon="0.18042">
        <ele>747.6</ele>
        <time>2023-11-19T09:19:57Z</time>
      </trkpt>
      <trkpt lat="43.02139" lon="0.18042">
        <ele>747.7</ele>
        <time>2023-11-19T09:19:58Z</time>
      </trkpt>
      <trkpt lat="43.02139" lon="0.18043">
        <ele>747.8</ele>
        <time>2023-11-19T09:19:59Z</time>
      </trkpt>
      <trkpt lat="43.0214" lon="0.18044">
        <ele>748</ele>
        <time>2023-11-19T09:20:00Z</time>
      </trkpt>
      <trkpt lat="43.02141" lon="0.18044">
        <ele>748.1</ele>
        <time>2023-11-19T09:20:01Z</time>
      </trkpt>
      <trkpt lat="43.02142" lon="0.18044">
        <ele>748.4</ele>
        <time>2023-11-19T09:20:02Z</time>
      </trkpt>
      <trkpt lat="43.02143" lon="0.18045">
        <ele>748.6</ele>
        <time>2023-11-19T09:20:03Z</time>
      </trkpt>
      <trkpt lat="43.02143" lon="0.18046">
        <ele>748.8</ele>
        <time>2023-11-19T09:20:04Z</time>
      </trkpt>
      <trkpt lat="43.02144" lon="0.18047">
        <ele>749</ele>
        <time>2023-11-19T09:20:05Z</time>
      </trkpt>
      <trkpt lat="43.02144" lon="0.18049">
        <ele>749.4</ele>
        <time>2023-11-19T09:20:06Z</time>
      </trkpt>
      <trkpt lat="43.02145" lon="0.1805">
        <ele>749.6</ele>
        <time>2023-11-19T09:20:07Z</time>
      </trkpt>
      <trkpt lat="43.02146" lon="0.18051">
        <ele>749.8</ele>
        <time>2023-11-19T09:20:08Z</time>
      </trkpt>
      <trkpt lat="43.02146" lon="0.18052">
        <ele>750</ele>
        <time>2023-11-19T09:20:09Z</time>
      </trkpt>
      <trkpt lat="43.02146" lon="0.18053">
        <ele>750.1</ele>
        <time>2023-11-19T09:20:10Z</time>
      </trkpt>
      <trkpt lat="43.02147" lon="0.18054">
        <ele>750.3</ele>
        <time>2023-11-19T09:20:11Z</time>
      </trkpt>
      <trkpt lat="43.02147" lon="0.18054">
        <ele>750.4</ele>
        <time>2023-11-19T09:20:12Z</time>
      </trkpt>
      <trkpt lat="43.02148" lon="0.18055">
        <ele>750.6</ele>
        <time>2023-11-19T09:20:13Z</time>
      </trkpt>
      <trkpt lat="43.02148" lon="0.18056">
        <ele>750.8</ele>
        <time>2023-11-19T09:20:14Z</time>
      </trkpt>
      <trkpt lat="43.02148" lon="0.18057">
        <ele>750.9</ele>
        <time>2023-11-19T09:20:15Z</time>
      </trkpt>
      <trkpt lat="43.02149" lon="0.18058">
        <ele>751.2</ele>
        <time>2023-11-19T09:20:16Z</time>
      </trkpt>
      <trkpt lat="43.02149" lon="0.18058">
        <ele>751.3</ele>
        <time>2023-11-19T09:20:17Z</time>
      </trkpt>
      <trkpt lat="43.02149" lon="0.18059">
        <ele>751.5</ele>
        <time>2023-11-19T09:20:18Z</time>
      </trkpt>
      <trkpt lat="43.02149" lon="0.1806">
        <ele>751.6</ele>
        <time>2023-11-19T09:20:19Z</time>
      </trkpt>
      <trkpt lat="43.02149" lon="0.18061">
        <ele>751.8</ele>
        <time>2023-11-19T09:20:20Z</time>
      </trkpt>
      <trkpt lat="43.0215" lon="0.18061">
        <ele>751.9</ele>
        <time>2023-11-19T09:20:21Z</time>
      </trkpt>
      <trkpt lat="43.0215" lon="0.18062">
        <ele>751.9</ele>
        <time>2023-11-19T09:20:22Z</time>
      </trkpt>
      <trkpt lat="43.02151" lon="0.18062">
        <ele>752.1</ele>
        <time>2023-11-19T09:20:23Z</time>
      </trkpt>
      <trkpt lat="43.02151" lon="0.18063">
        <ele>752.2</ele>
        <time>2023-11-19T09:20:24Z</time>
      </trkpt>
      <trkpt lat="43.02152" lon="0.18064">
        <ele>752.5</ele>
        <time>2023-11-19T09:20:25Z</time>
      </trkpt>
      <trkpt lat="43.02152" lon="0.18064">
        <ele>752.6</ele>
        <time>2023-11-19T09:20:26Z</time>
      </trkpt>
      <trkpt lat="43.02153" lon="0.18065">
        <ele>752.8</ele>
        <time>2023-11-19T09:20:27Z</time>
      </trkpt>
      <trkpt lat="43.02154" lon="0.18065">
        <ele>753</ele>
        <time>2023-11-19T09:20:28Z</time>
      </trkpt>
      <trkpt lat="43.02155" lon="0.18066">
        <ele>753.2</ele>
        <time>2023-11-19T09:20:29Z</time>
      </trkpt>
      <trkpt lat="43.02155" lon="0.18067">
        <ele>753.3</ele>
        <time>2023-11-19T09:20:30Z</time>
      </trkpt>
      <trkpt lat="43.02155" lon="0.18067">
        <ele>753.5</ele>
        <time>2023-11-19T09:20:31Z</time>
      </trkpt>
      <trkpt lat="43.02156" lon="0.18068">
        <ele>753.7</ele>
        <time>2023-11-19T09:20:32Z</time>
      </trkpt>
      <trkpt lat="43.02156" lon="0.18069">
        <ele>753.8</ele>
        <time>2023-11-19T09:20:33Z</time>
      </trkpt>
      <trkpt lat="43.02156" lon="0.1807">
        <ele>754</ele>
        <time>2023-11-19T09:20:34Z</time>
      </trkpt>
      <trkpt lat="43.02157" lon="0.18071">
        <ele>754.1</ele>
        <time>2023-11-19T09:20:35Z</time>
      </trkpt>
      <trkpt lat="43.02157" lon="0.18071">
        <ele>754.3</ele>
        <time>2023-11-19T09:20:36Z</time>
      </trkpt>
      <trkpt lat="43.02158" lon="0.18072">
        <ele>754.5</ele>
        <time>2023-11-19T09:20:37Z</time>
      </trkpt>
      <trkpt lat="43.02159" lon="0.18073">
        <ele>754.7</ele>
        <time>2023-11-19T09:20:38Z</time>
      </trkpt>
      <trkpt lat="43.02159" lon="0.18073">
        <ele>754.8</ele>
        <time>2023-11-19T09:20:39Z</time>
      </trkpt>
      <trkpt lat="43.02159" lon="0.18073">
        <ele>754.9</ele>
        <time>2023-11-19T09:20:40Z</time>
      </trkpt>
      <trkpt lat="43.02159" lon="0.18074">
        <ele>755.1</ele>
        <time>2023-11-19T09:20:41Z</time>
      </trkpt>
      <trkpt lat="43.0216" lon="0.18075">
        <ele>755.3</ele>
        <time>2023-11-19T09:20:42Z</time>
      </trkpt>
      <trkpt lat="43.0216" lon="0.18076">
        <ele>755.5</ele>
        <time>2023-11-19T09:20:43Z</time>
      </trkpt>
      <trkpt lat="43.0216" lon="0.18077">
        <ele>755.6</ele>
        <time>2023-11-19T09:20:44Z</time>
      </trkpt>
      <trkpt lat="43.02161" lon="0.18078">
        <ele>755.8</ele>
        <time>2023-11-19T09:20:45Z</time>
      </trkpt>
      <trkpt lat="43.02161" lon="0.18078">
        <ele>755.9</ele>
        <time>2023-11-19T09:20:46Z</time>
      </trkpt>
      <trkpt lat="43.02161" lon="0.18078">
        <ele>756</ele>
        <time>2023-11-19T09:20:47Z</time>
      </trkpt>
      <trkpt lat="43.02161" lon="0.18079">
        <ele>756.2</ele>
        <time>2023-11-19T09:20:48Z</time>
      </trkpt>
      <trkpt lat="43.02161" lon="0.1808">
        <ele>756.3</ele>
        <time>2023-11-19T09:20:49Z</time>
      </trkpt>
      <trkpt lat="43.02161" lon="0.18081">
        <ele>756.5</ele>
        <time>2023-11-19T09:20:50Z</time>
      </trkpt>
      <trkpt lat="43.0216" lon="0.18082">
        <ele>756.6</ele>
        <time>2023-11-19T09:20:51Z</time>
      </trkpt>
      <trkpt lat="43.02161" lon="0.18083">
        <ele>756.8</ele>
        <time>2023-11-19T09:20:52Z</time>
      </trkpt>
      <trkpt lat="43.02161" lon="0.18083">
        <ele>757</ele>
        <time>2023-11-19T09:20:53Z</time>
      </trkpt>
      <trkpt lat="43.02162" lon="0.18084">
        <ele>757.3</ele>
        <time>2023-11-19T09:20:54Z</time>
      </trkpt>
      <trkpt lat="43.02163" lon="0.18085">
        <ele>757.6</ele>
        <time>2023-11-19T09:20:55Z</time>
      </trkpt>
      <trkpt lat="43.02163" lon="0.18086">
        <ele>757.8</ele>
        <time>2023-11-19T09:20:56Z</time>
      </trkpt>
      <trkpt lat="43.02163" lon="0.18087">
        <ele>758</ele>
        <time>2023-11-19T09:20:57Z</time>
      </trkpt>
      <trkpt lat="43.02163" lon="0.18088">
        <ele>758.1</ele>
        <time>2023-11-19T09:20:58Z</time>
      </trkpt>
      <trkpt lat="43.02164" lon="0.18089">
        <ele>758.4</ele>
        <time>2023-11-19T09:20:59Z</time>
      </trkpt>
      <trkpt lat="43.02165" lon="0.1809">
        <ele>758.6</ele>
        <time>2023-11-19T09:21:00Z</time>
      </trkpt>
      <trkpt lat="43.02165" lon="0.1809">
        <ele>758.8</ele>
        <time>2023-11-19T09:21:01Z</time>
      </trkpt>
      <trkpt lat="43.02165" lon="0.18091">
        <ele>759</ele>
        <time>2023-11-19T09:21:02Z</time>
      </trkpt>
      <trkpt lat="43.02166" lon="0.18093">
        <ele>759.4</ele>
        <time>2023-11-19T09:21:03Z</time>
      </trkpt>
      <trkpt lat="43.02167" lon="0.18093">
        <ele>759.6</ele>
        <time>2023-11-19T09:21:04Z</time>
      </trkpt>
      <trkpt lat="43.02167" lon="0.18094">
        <ele>759.8</ele>
        <time>2023-11-19T09:21:05Z</time>
      </trkpt>
      <trkpt lat="43.02168" lon="0.18095">
        <ele>760</ele>
        <time>2023-11-19T09:21:06Z</time>
      </trkpt>
      <trkpt lat="43.02168" lon="0.18096">
        <ele>760.2</ele>
        <time>2023-11-19T09:21:07Z</time>
      </trkpt>
      <trkpt lat="43.02169" lon="0.18097">
        <ele>760.5</ele>
        <time>2023-11-19T09:21:08Z</time>
      </trkpt>
      <trkpt lat="43.0217" lon="0.18097">
        <ele>760.7</ele>
        <time>2023-11-19T09:21:09Z</time>
      </trkpt>
      <trkpt lat="43.0217" lon="0.18098">
        <ele>760.9</ele>
        <time>2023-11-19T09:21:10Z</time>
      </trkpt>
      <trkpt lat="43.0217" lon="0.18099">
        <ele>761.1</ele>
        <time>2023-11-19T09:21:11Z</time>
      </trkpt>
      <trkpt lat="43.0217" lon="0.181">
        <ele>761.3</ele>
        <time>2023-11-19T09:21:12Z</time>
      </trkpt>
      <trkpt lat="43.02171" lon="0.18101">
        <ele>761.5</ele>
        <time>2023-11-19T09:21:13Z</time>
      </trkpt>
      <trkpt lat="43.02171" lon="0.18102">
        <ele>761.7</ele>
        <time>2023-11-19T09:21:14Z</time>
      </trkpt>
      <trkpt lat="43.02172" lon="0.18103">
        <ele>761.9</ele>
        <time>2023-11-19T09:21:15Z</time>
      </trkpt>
      <trkpt lat="43.02172" lon="0.18104">
        <ele>762</ele>
        <time>2023-11-19T09:21:16Z</time>
      </trkpt>
      <trkpt lat="43.02172" lon="0.18104">
        <ele>762.2</ele>
        <time>2023-11-19T09:21:17Z</time>
      </trkpt>
      <trkpt lat="43.02173" lon="0.18105">
        <ele>762.3</ele>
        <time>2023-11-19T09:21:18Z</time>
      </trkpt>
      <trkpt lat="43.02173" lon="0.18106">
        <ele>762.5</ele>
        <time>2023-11-19T09:21:19Z</time>
      </trkpt>
      <trkpt lat="43.02173" lon="0.18107">
        <ele>762.7</ele>
        <time>2023-11-19T09:21:20Z</time>
      </trkpt>
      <trkpt lat="43.02174" lon="0.18107">
        <ele>762.9</ele>
        <time>2023-11-19T09:21:21Z</time>
      </trkpt>
      <trkpt lat="43.02175" lon="0.18108">
        <ele>763.1</ele>
        <time>2023-11-19T09:21:22Z</time>
      </trkpt>
      <trkpt lat="43.02175" lon="0.18108">
        <ele>763.3</ele>
        <time>2023-11-19T09:21:23Z</time>
      </trkpt>
      <trkpt lat="43.02176" lon="0.18109">
        <ele>763.5</ele>
        <time>2023-11-19T09:21:24Z</time>
      </trkpt>
      <trkpt lat="43.02176" lon="0.18109">
        <ele>763.6</ele>
        <time>2023-11-19T09:21:25Z</time>
      </trkpt>
      <trkpt lat="43.02176" lon="0.1811">
        <ele>763.7</ele>
        <time>2023-11-19T09:21:26Z</time>
      </trkpt>
      <trkpt lat="43.02176" lon="0.18111">
        <ele>763.9</ele>
        <time>2023-11-19T09:21:27Z</time>
      </trkpt>
      <trkpt lat="43.02177" lon="0.18111">
        <ele>764</ele>
        <time>2023-11-19T09:21:28Z</time>
      </trkpt>
      <trkpt lat="43.02177" lon="0.18112">
        <ele>764.1</ele>
        <time>2023-11-19T09:21:29Z</time>
      </trkpt>
      <trkpt lat="43.02177" lon="0.18112">
        <ele>764.2</ele>
        <time>2023-11-19T09:21:30Z</time>
      </trkpt>
      <trkpt lat="43.02177" lon="0.18113">
        <ele>764.3</ele>
        <time>2023-11-19T09:21:31Z</time>
      </trkpt>
      <trkpt lat="43.02177" lon="0.18113">
        <ele>764.3</ele>
        <time>2023-11-19T09:21:32Z</time>
      </trkpt>
      <trkpt lat="43.02177" lon="0.18114">
        <ele>764.5</ele>
        <time>2023-11-19T09:21:33Z</time>
      </trkpt>
      <trkpt lat="43.02177" lon="0.18115">
        <ele>764.6</ele>
        <time>2023-11-19T09:21:34Z</time>
      </trkpt>
      <trkpt lat="43.02178" lon="0.18116">
        <ele>764.8</ele>
        <time>2023-11-19T09:21:35Z</time>
      </trkpt>
      <trkpt lat="43.02178" lon="0.18117">
        <ele>765</ele>
        <time>2023-11-19T09:21:36Z</time>
      </trkpt>
      <trkpt lat="43.02179" lon="0.18117">
        <ele>765.1</ele>
        <time>2023-11-19T09:21:37Z</time>
      </trkpt>
      <trkpt lat="43.02179" lon="0.18118">
        <ele>765.3</ele>
        <time>2023-11-19T09:21:38Z</time>
      </trkpt>
      <trkpt lat="43.0218" lon="0.18118">
        <ele>765.5</ele>
        <time>2023-11-19T09:21:39Z</time>
      </trkpt>
      <trkpt lat="43.0218" lon="0.18119">
        <ele>765.7</ele>
        <time>2023-11-19T09:21:40Z</time>
      </trkpt>
      <trkpt lat="43.02181" lon="0.1812">
        <ele>765.8</ele>
        <time>2023-11-19T09:21:41Z</time>
      </trkpt>
      <trkpt lat="43.02181" lon="0.18121">
        <ele>766</ele>
        <time>2023-11-19T09:21:42Z</time>
      </trkpt>
      <trkpt lat="43.02181" lon="0.18122">
        <ele>766.2</ele>
        <time>2023-11-19T09:21:43Z</time>
      </trkpt>
      <trkpt lat="43.02182" lon="0.18122">
        <ele>766.4</ele>
        <time>2023-11-19T09:21:44Z</time>
      </trkpt>
      <trkpt lat="43.02182" lon="0.18123">
        <ele>766.5</ele>
        <time>2023-11-19T09:21:45Z</time>
      </trkpt>
      <trkpt lat="43.02182" lon="0.18124">
        <ele>766.6</ele>
        <time>2023-11-19T09:21:46Z</time>
      </trkpt>
      <trkpt lat="43.02182" lon="0.18124">
        <ele>766.7</ele>
        <time>2023-11-19T09:21:47Z</time>
      </trkpt>
      <trkpt lat="43.02182" lon="0.18125">
        <ele>766.8</ele>
        <time>2023-11-19T09:21:48Z</time>
      </trkpt>
      <trkpt lat="43.02183" lon="0.18125">
        <ele>767</ele>
        <time>2023-11-19T09:21:49Z</time>
      </trkpt>
      <trkpt lat="43.02183" lon="0.18126">
        <ele>767.2</ele>
        <time>2023-11-19T09:21:50Z</time>
      </trkpt>
      <trkpt lat="43.02184" lon="0.18127">
        <ele>767.4</ele>
        <time>2023-11-19T09:21:51Z</time>
      </trkpt>
      <trkpt lat="43.02183" lon="0.18129">
        <ele>767.7</ele>
        <time>2023-11-19T09:21:52Z</time>
      </trkpt>
      <trkpt lat="43.02184" lon="0.18129">
        <ele>767.8</ele>
        <time>2023-11-19T09:21:53Z</time>
      </trkpt>
      <trkpt lat="43.02184" lon="0.1813">
        <ele>767.9</ele>
        <time>2023-11-19T09:21:54Z</time>
      </trkpt>
      <trkpt lat="43.02184" lon="0.18131">
        <ele>768.1</ele>
        <time>2023-11-19T09:21:55Z</time>
      </trkpt>
      <trkpt lat="43.02185" lon="0.18131">
        <ele>768.3</ele>
        <time>2023-11-19T09:21:56Z</time>
      </trkpt>
      <trkpt lat="43.02185" lon="0.18132">
        <ele>768.4</ele>
        <time>2023-11-19T09:21:57Z</time>
      </trkpt>
      <trkpt lat="43.02185" lon="0.18132">
        <ele>768.5</ele>
        <time>2023-11-19T09:21:58Z</time>
      </trkpt>
      <trkpt lat="43.02185" lon="0.18132">
        <ele>768.5</ele>
        <time>2023-11-19T09:21:59Z</time>
      </trkpt>
      <trkpt lat="43.02185" lon="0.18132">
        <ele>768.6</ele>
        <time>2023-11-19T09:22:00Z</time>
      </trkpt>
      <trkpt lat="43.02185" lon="0.18132">
        <ele>768.6</ele>
        <time>2023-11-19T09:22:01Z</time>
      </trkpt>
      <trkpt lat="43.02185" lon="0.18132">
        <ele>768.7</ele>
        <time>2023-11-19T09:22:02Z</time>
      </trkpt>
      <trkpt lat="43.02186" lon="0.18132">
        <ele>768.8</ele>
        <time>2023-11-19T09:22:03Z</time>
      </trkpt>
      <trkpt lat="43.02186" lon="0.18132">
        <ele>768.8</ele>
        <time>2023-11-19T09:22:04Z</time>
      </trkpt>
      <trkpt lat="43.02186" lon="0.18132">
        <ele>768.8</ele>
        <time>2023-11-19T09:22:05Z</time>
      </trkpt>
      <trkpt lat="43.02185" lon="0.18133">
        <ele>768.8</ele>
        <time>2023-11-19T09:22:06Z</time>
      </trkpt>
      <trkpt lat="43.02186" lon="0.18133">
        <ele>768.9</ele>
        <time>2023-11-19T09:22:07Z</time>
      </trkpt>
      <trkpt lat="43.02186" lon="0.18133">
        <ele>769</ele>
        <time>2023-11-19T09:22:08Z</time>
      </trkpt>
      <trkpt lat="43.02186" lon="0.18134">
        <ele>769.1</ele>
        <time>2023-11-19T09:22:09Z</time>
      </trkpt>
      <trkpt lat="43.02187" lon="0.18134">
        <ele>769.3</ele>
        <time>2023-11-19T09:22:10Z</time>
      </trkpt>
      <trkpt lat="43.02186" lon="0.18133">
        <ele>769.5</ele>
        <time>2023-11-19T09:22:11Z</time>
      </trkpt>
      <trkpt lat="43.02186" lon="0.18133">
        <ele>769.5</ele>
        <time>2023-11-19T09:22:12Z</time>
      </trkpt>
      <trkpt lat="43.02186" lon="0.18133">
        <ele>769.6</ele>
        <time>2023-11-19T09:22:13Z</time>
      </trkpt>
      <trkpt lat="43.02186" lon="0.18133">
        <ele>769.6</ele>
        <time>2023-11-19T09:22:14Z</time>
      </trkpt>
      <trkpt lat="43.02186" lon="0.18133">
        <ele>769.6</ele>
        <time>2023-11-19T09:22:15Z</time>
      </trkpt>
      <trkpt lat="43.02186" lon="0.18132">
        <ele>769.7</ele>
        <time>2023-11-19T09:22:16Z</time>
      </trkpt>
      <trkpt lat="43.02186" lon="0.18132">
        <ele>769.7</ele>
        <time>2023-11-19T09:22:17Z</time>
      </trkpt>
      <trkpt lat="43.02186" lon="0.18132">
        <ele>769.8</ele>
        <time>2023-11-19T09:22:18Z</time>
      </trkpt>
      <trkpt lat="43.02186" lon="0.18131">
        <ele>769.9</ele>
        <time>2023-11-19T09:22:19Z</time>
      </trkpt>
      <trkpt lat="43.02186" lon="0.18133">
        <ele>770.1</ele>
        <time>2023-11-19T09:22:20Z</time>
      </trkpt>
      <trkpt lat="43.02186" lon="0.18133">
        <ele>770.3</ele>
        <time>2023-11-19T09:22:21Z</time>
      </trkpt>
      <trkpt lat="43.02186" lon="0.18134">
        <ele>770.4</ele>
        <time>2023-11-19T09:22:22Z</time>
      </trkpt>
      <trkpt lat="43.02186" lon="0.18135">
        <ele>770.5</ele>
        <time>2023-11-19T09:22:23Z</time>
      </trkpt>
      <trkpt lat="43.02186" lon="0.18135">
        <ele>770.7</ele>
        <time>2023-11-19T09:22:24Z</time>
      </trkpt>
      <trkpt lat="43.02187" lon="0.18136">
        <ele>770.8</ele>
        <time>2023-11-19T09:22:25Z</time>
      </trkpt>
      <trkpt lat="43.02187" lon="0.18136">
        <ele>770.8</ele>
        <time>2023-11-19T09:22:26Z</time>
      </trkpt>
      <trkpt lat="43.02187" lon="0.18136">
        <ele>770.9</ele>
        <time>2023-11-19T09:22:27Z</time>
      </trkpt>
      <trkpt lat="43.02187" lon="0.18136">
        <ele>771</ele>
        <time>2023-11-19T09:22:28Z</time>
      </trkpt>
      <trkpt lat="43.02187" lon="0.18137">
        <ele>771.1</ele>
        <time>2023-11-19T09:22:29Z</time>
      </trkpt>
      <trkpt lat="43.02187" lon="0.18136">
        <ele>771.3</ele>
        <time>2023-11-19T09:22:30Z</time>
      </trkpt>
      <trkpt lat="43.02186" lon="0.18136">
        <ele>771.4</ele>
        <time>2023-11-19T09:22:31Z</time>
      </trkpt>
      <trkpt lat="43.02187" lon="0.18136">
        <ele>771.5</ele>
        <time>2023-11-19T09:22:32Z</time>
      </trkpt>
      <trkpt lat="43.02187" lon="0.18137">
        <ele>771.6</ele>
        <time>2023-11-19T09:22:33Z</time>
      </trkpt>
      <trkpt lat="43.02187" lon="0.18138">
        <ele>771.9</ele>
        <time>2023-11-19T09:22:34Z</time>
      </trkpt>
      <trkpt lat="43.02188" lon="0.18139">
        <ele>772.1</ele>
        <time>2023-11-19T09:22:35Z</time>
      </trkpt>
      <trkpt lat="43.02189" lon="0.1814">
        <ele>772.3</ele>
        <time>2023-11-19T09:22:36Z</time>
      </trkpt>
      <trkpt lat="43.02189" lon="0.18141">
        <ele>772.5</ele>
        <time>2023-11-19T09:22:37Z</time>
      </trkpt>
      <trkpt lat="43.0219" lon="0.18142">
        <ele>772.7</ele>
        <time>2023-11-19T09:22:38Z</time>
      </trkpt>
      <trkpt lat="43.0219" lon="0.18141">
        <ele>772.7</ele>
        <time>2023-11-19T09:22:39Z</time>
      </trkpt>
      <trkpt lat="43.0219" lon="0.18141">
        <ele>772.8</ele>
        <time>2023-11-19T09:22:40Z</time>
      </trkpt>
      <trkpt lat="43.02191" lon="0.18142">
        <ele>773</ele>
        <time>2023-11-19T09:22:41Z</time>
      </trkpt>
      <trkpt lat="43.02191" lon="0.18143">
        <ele>773.2</ele>
        <time>2023-11-19T09:22:42Z</time>
      </trkpt>
      <trkpt lat="43.02192" lon="0.18143">
        <ele>773.3</ele>
        <time>2023-11-19T09:22:43Z</time>
      </trkpt>
      <trkpt lat="43.02192" lon="0.18144">
        <ele>773.6</ele>
        <time>2023-11-19T09:22:44Z</time>
      </trkpt>
      <trkpt lat="43.02193" lon="0.18145">
        <ele>773.8</ele>
        <time>2023-11-19T09:22:45Z</time>
      </trkpt>
      <trkpt lat="43.02193" lon="0.18146">
        <ele>773.9</ele>
        <time>2023-11-19T09:22:46Z</time>
      </trkpt>
      <trkpt lat="43.02193" lon="0.18147">
        <ele>774.1</ele>
        <time>2023-11-19T09:22:47Z</time>
      </trkpt>
      <trkpt lat="43.02194" lon="0.18148">
        <ele>774.3</ele>
        <time>2023-11-19T09:22:48Z</time>
      </trkpt>
      <trkpt lat="43.02194" lon="0.18148">
        <ele>774.4</ele>
        <time>2023-11-19T09:22:49Z</time>
      </trkpt>
      <trkpt lat="43.02195" lon="0.18149">
        <ele>774.7</ele>
        <time>2023-11-19T09:22:50Z</time>
      </trkpt>
      <trkpt lat="43.02196" lon="0.1815">
        <ele>774.9</ele>
        <time>2023-11-19T09:22:51Z</time>
      </trkpt>
      <trkpt lat="43.02196" lon="0.18151">
        <ele>775</ele>
        <time>2023-11-19T09:22:52Z</time>
      </trkpt>
      <trkpt lat="43.02197" lon="0.18151">
        <ele>775.2</ele>
        <time>2023-11-19T09:22:53Z</time>
      </trkpt>
      <trkpt lat="43.02197" lon="0.18152">
        <ele>775.4</ele>
        <time>2023-11-19T09:22:54Z</time>
      </trkpt>
      <trkpt lat="43.02197" lon="0.18153">
        <ele>775.5</ele>
        <time>2023-11-19T09:22:55Z</time>
      </trkpt>
      <trkpt lat="43.02197" lon="0.18153">
        <ele>775.6</ele>
        <time>2023-11-19T09:22:56Z</time>
      </trkpt>
      <trkpt lat="43.02198" lon="0.18153">
        <ele>775.7</ele>
        <time>2023-11-19T09:22:57Z</time>
      </trkpt>
      <trkpt lat="43.02198" lon="0.18154">
        <ele>775.9</ele>
        <time>2023-11-19T09:22:58Z</time>
      </trkpt>
      <trkpt lat="43.02198" lon="0.18155">
        <ele>776</ele>
        <time>2023-11-19T09:22:59Z</time>
      </trkpt>
      <trkpt lat="43.02198" lon="0.18156">
        <ele>776.2</ele>
        <time>2023-11-19T09:23:00Z</time>
      </trkpt>
      <trkpt lat="43.02199" lon="0.18157">
        <ele>776.4</ele>
        <time>2023-11-19T09:23:01Z</time>
      </trkpt>
      <trkpt lat="43.02199" lon="0.18158">
        <ele>776.7</ele>
        <time>2023-11-19T09:23:02Z</time>
      </trkpt>
      <trkpt lat="43.022" lon="0.18159">
        <ele>776.9</ele>
        <time>2023-11-19T09:23:03Z</time>
      </trkpt>
      <trkpt lat="43.02201" lon="0.18159">
        <ele>777</ele>
        <time>2023-11-19T09:23:04Z</time>
      </trkpt>
      <trkpt lat="43.022" lon="0.18161">
        <ele>777.2</ele>
        <time>2023-11-19T09:23:05Z</time>
      </trkpt>
      <trkpt lat="43.02201" lon="0.18162">
        <ele>777.5</ele>
        <time>2023-11-19T09:23:06Z</time>
      </trkpt>
      <trkpt lat="43.02201" lon="0.18162">
        <ele>777.6</ele>
        <time>2023-11-19T09:23:07Z</time>
      </trkpt>
      <trkpt lat="43.02201" lon="0.18163">
        <ele>777.8</ele>
        <time>2023-11-19T09:23:08Z</time>
      </trkpt>
      <trkpt lat="43.02201" lon="0.18164">
        <ele>777.9</ele>
        <time>2023-11-19T09:23:09Z</time>
      </trkpt>
      <trkpt lat="43.02201" lon="0.18165">
        <ele>778</ele>
        <time>2023-11-19T09:23:10Z</time>
      </trkpt>
      <trkpt lat="43.02201" lon="0.18165">
        <ele>778.1</ele>
        <time>2023-11-19T09:23:11Z</time>
      </trkpt>
      <trkpt lat="43.02202" lon="0.18166">
        <ele>778.3</ele>
        <time>2023-11-19T09:23:12Z</time>
      </trkpt>
      <trkpt lat="43.02202" lon="0.18167">
        <ele>778.4</ele>
        <time>2023-11-19T09:23:13Z</time>
      </trkpt>
      <trkpt lat="43.02202" lon="0.18167">
        <ele>778.5</ele>
        <time>2023-11-19T09:23:14Z</time>
      </trkpt>
      <trkpt lat="43.02202" lon="0.18168">
        <ele>778.6</ele>
        <time>2023-11-19T09:23:15Z</time>
      </trkpt>
      <trkpt lat="43.02203" lon="0.18169">
        <ele>778.9</ele>
        <time>2023-11-19T09:23:16Z</time>
      </trkpt>
      <trkpt lat="43.02204" lon="0.18169">
        <ele>779.1</ele>
        <time>2023-11-19T09:23:17Z</time>
      </trkpt>
      <trkpt lat="43.02204" lon="0.18169">
        <ele>779.2</ele>
        <time>2023-11-19T09:23:18Z</time>
      </trkpt>
      <trkpt lat="43.02204" lon="0.18169">
        <ele>779.2</ele>
        <time>2023-11-19T09:23:19Z</time>
      </trkpt>
      <trkpt lat="43.02205" lon="0.18171">
        <ele>779.7</ele>
        <time>2023-11-19T09:23:21Z</time>
      </trkpt>
      <trkpt lat="43.02205" lon="0.18172">
        <ele>779.9</ele>
        <time>2023-11-19T09:23:22Z</time>
      </trkpt>
      <trkpt lat="43.02205" lon="0.18174">
        <ele>780.3</ele>
        <time>2023-11-19T09:23:24Z</time>
      </trkpt>
      <trkpt lat="43.02205" lon="0.18175">
        <ele>780.5</ele>
        <time>2023-11-19T09:23:26Z</time>
      </trkpt>
      <trkpt lat="43.02205" lon="0.18176">
        <ele>780.6</ele>
        <time>2023-11-19T09:23:27Z</time>
      </trkpt>
      <trkpt lat="43.02205" lon="0.18177">
        <ele>780.8</ele>
        <time>2023-11-19T09:23:29Z</time>
      </trkpt>
      <trkpt lat="43.02205" lon="0.18178">
        <ele>781</ele>
        <time>2023-11-19T09:23:30Z</time>
      </trkpt>
      <trkpt lat="43.02206" lon="0.18177">
        <ele>781.2</ele>
        <time>2023-11-19T09:23:31Z</time>
      </trkpt>
      <trkpt lat="43.02206" lon="0.18178">
        <ele>781.5</ele>
        <time>2023-11-19T09:23:33Z</time>
      </trkpt>
      <trkpt lat="43.02205" lon="0.18179">
        <ele>781.7</ele>
        <time>2023-11-19T09:23:34Z</time>
      </trkpt>
      <trkpt lat="43.02205" lon="0.18179">
        <ele>781.8</ele>
        <time>2023-11-19T09:23:35Z</time>
      </trkpt>
      <trkpt lat="43.02206" lon="0.1818">
        <ele>781.9</ele>
        <time>2023-11-19T09:23:36Z</time>
      </trkpt>
      <trkpt lat="43.02206" lon="0.18181">
        <ele>782</ele>
        <time>2023-11-19T09:23:37Z</time>
      </trkpt>
      <trkpt lat="43.02206" lon="0.18181">
        <ele>782</ele>
        <time>2023-11-19T09:23:38Z</time>
      </trkpt>
      <trkpt lat="43.02206" lon="0.18182">
        <ele>782.2</ele>
        <time>2023-11-19T09:23:39Z</time>
      </trkpt>
      <trkpt lat="43.02207" lon="0.18183">
        <ele>782.7</ele>
        <time>2023-11-19T09:23:40Z</time>
      </trkpt>
      <trkpt lat="43.02207" lon="0.18184">
        <ele>782.8</ele>
        <time>2023-11-19T09:23:41Z</time>
      </trkpt>
      <trkpt lat="43.02207" lon="0.18185">
        <ele>783</ele>
        <time>2023-11-19T09:23:42Z</time>
      </trkpt>
      <trkpt lat="43.02208" lon="0.18185">
        <ele>783.1</ele>
        <time>2023-11-19T09:23:43Z</time>
      </trkpt>
      <trkpt lat="43.02208" lon="0.18186">
        <ele>783.3</ele>
        <time>2023-11-19T09:23:44Z</time>
      </trkpt>
      <trkpt lat="43.02208" lon="0.18186">
        <ele>783.4</ele>
        <time>2023-11-19T09:23:45Z</time>
      </trkpt>
      <trkpt lat="43.02209" lon="0.18187">
        <ele>783.6</ele>
        <time>2023-11-19T09:23:46Z</time>
      </trkpt>
      <trkpt lat="43.02208" lon="0.18187">
        <ele>783.6</ele>
        <time>2023-11-19T09:23:47Z</time>
      </trkpt>
      <trkpt lat="43.02209" lon="0.18188">
        <ele>783.9</ele>
        <time>2023-11-19T09:23:48Z</time>
      </trkpt>
      <trkpt lat="43.0221" lon="0.18188">
        <ele>784</ele>
        <time>2023-11-19T09:23:49Z</time>
      </trkpt>
      <trkpt lat="43.0221" lon="0.18189">
        <ele>784.3</ele>
        <time>2023-11-19T09:23:50Z</time>
      </trkpt>
      <trkpt lat="43.0221" lon="0.18189">
        <ele>784.3</ele>
        <time>2023-11-19T09:23:51Z</time>
      </trkpt>
      <trkpt lat="43.02211" lon="0.1819">
        <ele>784.5</ele>
        <time>2023-11-19T09:23:52Z</time>
      </trkpt>
      <trkpt lat="43.02211" lon="0.18191">
        <ele>784.6</ele>
        <time>2023-11-19T09:23:53Z</time>
      </trkpt>
      <trkpt lat="43.02211" lon="0.18191">
        <ele>784.7</ele>
        <time>2023-11-19T09:23:54Z</time>
      </trkpt>
      <trkpt lat="43.02211" lon="0.18191">
        <ele>784.8</ele>
        <time>2023-11-19T09:23:55Z</time>
      </trkpt>
      <trkpt lat="43.02212" lon="0.18192">
        <ele>785</ele>
        <time>2023-11-19T09:23:56Z</time>
      </trkpt>
      <trkpt lat="43.02211" lon="0.18194">
        <ele>785.3</ele>
        <time>2023-11-19T09:23:57Z</time>
      </trkpt>
      <trkpt lat="43.02212" lon="0.18195">
        <ele>785.6</ele>
        <time>2023-11-19T09:23:58Z</time>
      </trkpt>
      <trkpt lat="43.02212" lon="0.18197">
        <ele>785.9</ele>
        <time>2023-11-19T09:23:59Z</time>
      </trkpt>
      <trkpt lat="43.02212" lon="0.18198">
        <ele>786</ele>
        <time>2023-11-19T09:24:00Z</time>
      </trkpt>
      <trkpt lat="43.02213" lon="0.18199">
        <ele>786.3</ele>
        <time>2023-11-19T09:24:01Z</time>
      </trkpt>
      <trkpt lat="43.02213" lon="0.182">
        <ele>786.4</ele>
        <time>2023-11-19T09:24:02Z</time>
      </trkpt>
      <trkpt lat="43.02212" lon="0.18199">
        <ele>786.4</ele>
        <time>2023-11-19T09:24:03Z</time>
      </trkpt>
      <trkpt lat="43.02213" lon="0.18201">
        <ele>786.8</ele>
        <time>2023-11-19T09:24:04Z</time>
      </trkpt>
      <trkpt lat="43.02214" lon="0.18201">
        <ele>787</ele>
        <time>2023-11-19T09:24:05Z</time>
      </trkpt>
      <trkpt lat="43.02215" lon="0.18202">
        <ele>787.2</ele>
        <time>2023-11-19T09:24:06Z</time>
      </trkpt>
      <trkpt lat="43.02215" lon="0.18203">
        <ele>787.4</ele>
        <time>2023-11-19T09:24:07Z</time>
      </trkpt>
      <trkpt lat="43.02215" lon="0.18204">
        <ele>787.5</ele>
        <time>2023-11-19T09:24:08Z</time>
      </trkpt>
      <trkpt lat="43.02216" lon="0.18205">
        <ele>787.7</ele>
        <time>2023-11-19T09:24:09Z</time>
      </trkpt>
      <trkpt lat="43.02216" lon="0.18206">
        <ele>787.9</ele>
        <time>2023-11-19T09:24:10Z</time>
      </trkpt>
      <trkpt lat="43.02218" lon="0.18207">
        <ele>788.3</ele>
        <time>2023-11-19T09:24:11Z</time>
      </trkpt>
      <trkpt lat="43.02218" lon="0.18208">
        <ele>788.5</ele>
        <time>2023-11-19T09:24:12Z</time>
      </trkpt>
      <trkpt lat="43.02219" lon="0.18209">
        <ele>788.7</ele>
        <time>2023-11-19T09:24:13Z</time>
      </trkpt>
      <trkpt lat="43.02219" lon="0.1821">
        <ele>788.9</ele>
        <time>2023-11-19T09:24:14Z</time>
      </trkpt>
      <trkpt lat="43.02219" lon="0.18212">
        <ele>789.2</ele>
        <time>2023-11-19T09:24:15Z</time>
      </trkpt>
      <trkpt lat="43.02219" lon="0.18212">
        <ele>789.2</ele>
        <time>2023-11-19T09:24:16Z</time>
      </trkpt>
      <trkpt lat="43.0222" lon="0.18213">
        <ele>789.4</ele>
        <time>2023-11-19T09:24:17Z</time>
      </trkpt>
      <trkpt lat="43.0222" lon="0.18212">
        <ele>789.5</ele>
        <time>2023-11-19T09:24:18Z</time>
      </trkpt>
      <trkpt lat="43.0222" lon="0.18212">
        <ele>789.5</ele>
        <time>2023-11-19T09:24:19Z</time>
      </trkpt>
      <trkpt lat="43.02221" lon="0.18212">
        <ele>789.6</ele>
        <time>2023-11-19T09:24:20Z</time>
      </trkpt>
      <trkpt lat="43.02221" lon="0.18213">
        <ele>789.8</ele>
        <time>2023-11-19T09:24:21Z</time>
      </trkpt>
      <trkpt lat="43.0222" lon="0.18215">
        <ele>790.1</ele>
        <time>2023-11-19T09:24:22Z</time>
      </trkpt>
      <trkpt lat="43.02221" lon="0.18215">
        <ele>790.1</ele>
        <time>2023-11-19T09:24:23Z</time>
      </trkpt>
      <trkpt lat="43.02221" lon="0.18215">
        <ele>790.2</ele>
        <time>2023-11-19T09:24:24Z</time>
      </trkpt>
      <trkpt lat="43.02221" lon="0.18216">
        <ele>790.4</ele>
        <time>2023-11-19T09:24:25Z</time>
      </trkpt>
      <trkpt lat="43.02223" lon="0.18216">
        <ele>790.7</ele>
        <time>2023-11-19T09:24:26Z</time>
      </trkpt>
      <trkpt lat="43.02223" lon="0.18217">
        <ele>790.8</ele>
        <time>2023-11-19T09:24:27Z</time>
      </trkpt>
      <trkpt lat="43.02223" lon="0.18217">
        <ele>791</ele>
        <time>2023-11-19T09:24:28Z</time>
      </trkpt>
      <trkpt lat="43.02224" lon="0.18218">
        <ele>791.1</ele>
        <time>2023-11-19T09:24:29Z</time>
      </trkpt>
      <trkpt lat="43.02224" lon="0.18218">
        <ele>791.2</ele>
        <time>2023-11-19T09:24:30Z</time>
      </trkpt>
      <trkpt lat="43.02225" lon="0.1822">
        <ele>791.5</ele>
        <time>2023-11-19T09:24:31Z</time>
      </trkpt>
      <trkpt lat="43.02226" lon="0.18221">
        <ele>791.7</ele>
        <time>2023-11-19T09:24:32Z</time>
      </trkpt>
      <trkpt lat="43.02227" lon="0.18222">
        <ele>792</ele>
        <time>2023-11-19T09:24:33Z</time>
      </trkpt>
      <trkpt lat="43.02227" lon="0.18222">
        <ele>792.1</ele>
        <time>2023-11-19T09:24:34Z</time>
      </trkpt>
      <trkpt lat="43.02228" lon="0.18223">
        <ele>792.3</ele>
        <time>2023-11-19T09:24:35Z</time>
      </trkpt>
      <trkpt lat="43.02228" lon="0.18224">
        <ele>792.4</ele>
        <time>2023-11-19T09:24:36Z</time>
      </trkpt>
      <trkpt lat="43.02229" lon="0.18226">
        <ele>792.7</ele>
        <time>2023-11-19T09:24:37Z</time>
      </trkpt>
      <trkpt lat="43.0223" lon="0.18227">
        <ele>792.9</ele>
        <time>2023-11-19T09:24:38Z</time>
      </trkpt>
      <trkpt lat="43.02231" lon="0.18228">
        <ele>793.1</ele>
        <time>2023-11-19T09:24:39Z</time>
      </trkpt>
      <trkpt lat="43.02232" lon="0.18229">
        <ele>793.4</ele>
        <time>2023-11-19T09:24:40Z</time>
      </trkpt>
      <trkpt lat="43.02234" lon="0.1823">
        <ele>793.8</ele>
        <time>2023-11-19T09:24:41Z</time>
      </trkpt>
      <trkpt lat="43.02235" lon="0.1823">
        <ele>793.9</ele>
        <time>2023-11-19T09:24:42Z</time>
      </trkpt>
      <trkpt lat="43.02236" lon="0.18231">
        <ele>794.1</ele>
        <time>2023-11-19T09:24:43Z</time>
      </trkpt>
      <trkpt lat="43.02235" lon="0.1823">
        <ele>794.1</ele>
        <time>2023-11-19T09:24:44Z</time>
      </trkpt>
      <trkpt lat="43.02236" lon="0.18231">
        <ele>794.3</ele>
        <time>2023-11-19T09:24:45Z</time>
      </trkpt>
      <trkpt lat="43.02237" lon="0.18232">
        <ele>794.5</ele>
        <time>2023-11-19T09:24:46Z</time>
      </trkpt>
      <trkpt lat="43.02238" lon="0.18233">
        <ele>794.6</ele>
        <time>2023-11-19T09:24:47Z</time>
      </trkpt>
      <trkpt lat="43.02238" lon="0.18233">
        <ele>794.8</ele>
        <time>2023-11-19T09:24:48Z</time>
      </trkpt>
      <trkpt lat="43.02239" lon="0.18234">
        <ele>794.9</ele>
        <time>2023-11-19T09:24:49Z</time>
      </trkpt>
      <trkpt lat="43.0224" lon="0.18234">
        <ele>795</ele>
        <time>2023-11-19T09:24:50Z</time>
      </trkpt>
      <trkpt lat="43.0224" lon="0.18235">
        <ele>795.1</ele>
        <time>2023-11-19T09:24:51Z</time>
      </trkpt>
      <trkpt lat="43.02241" lon="0.18235">
        <ele>795.2</ele>
        <time>2023-11-19T09:24:52Z</time>
      </trkpt>
      <trkpt lat="43.02242" lon="0.18236">
        <ele>795.3</ele>
        <time>2023-11-19T09:24:53Z</time>
      </trkpt>
      <trkpt lat="43.02242" lon="0.18237">
        <ele>795.4</ele>
        <time>2023-11-19T09:24:54Z</time>
      </trkpt>
      <trkpt lat="43.02243" lon="0.18238">
        <ele>795.6</ele>
        <time>2023-11-19T09:24:55Z</time>
      </trkpt>
      <trkpt lat="43.02244" lon="0.18238">
        <ele>795.7</ele>
        <time>2023-11-19T09:24:56Z</time>
      </trkpt>
      <trkpt lat="43.02244" lon="0.18238">
        <ele>795.7</ele>
        <time>2023-11-19T09:24:57Z</time>
      </trkpt>
      <trkpt lat="43.02245" lon="0.18239">
        <ele>795.8</ele>
        <time>2023-11-19T09:24:58Z</time>
      </trkpt>
      <trkpt lat="43.02245" lon="0.18239">
        <ele>795.9</ele>
        <time>2023-11-19T09:24:59Z</time>
      </trkpt>
      <trkpt lat="43.02245" lon="0.18239">
        <ele>795.9</ele>
        <time>2023-11-19T09:25:00Z</time>
      </trkpt>
      <trkpt lat="43.02246" lon="0.18239">
        <ele>796</ele>
        <time>2023-11-19T09:25:01Z</time>
      </trkpt>
      <trkpt lat="43.02247" lon="0.1824">
        <ele>796.1</ele>
        <time>2023-11-19T09:25:02Z</time>
      </trkpt>
      <trkpt lat="43.02247" lon="0.1824">
        <ele>796.3</ele>
        <time>2023-11-19T09:25:03Z</time>
      </trkpt>
      <trkpt lat="43.02248" lon="0.1824">
        <ele>796.3</ele>
        <time>2023-11-19T09:25:04Z</time>
      </trkpt>
      <trkpt lat="43.02249" lon="0.18242">
        <ele>796.5</ele>
        <time>2023-11-19T09:25:05Z</time>
      </trkpt>
      <trkpt lat="43.02249" lon="0.18242">
        <ele>796.6</ele>
        <time>2023-11-19T09:25:06Z</time>
      </trkpt>
      <trkpt lat="43.0225" lon="0.18243">
        <ele>796.7</ele>
        <time>2023-11-19T09:25:07Z</time>
      </trkpt>
      <trkpt lat="43.02251" lon="0.18244">
        <ele>796.9</ele>
        <time>2023-11-19T09:25:08Z</time>
      </trkpt>
      <trkpt lat="43.02251" lon="0.18244">
        <ele>796.9</ele>
        <time>2023-11-19T09:25:09Z</time>
      </trkpt>
      <trkpt lat="43.02252" lon="0.18244">
        <ele>797</ele>
        <time>2023-11-19T09:25:10Z</time>
      </trkpt>
      <trkpt lat="43.02253" lon="0.18245">
        <ele>797.1</ele>
        <time>2023-11-19T09:25:11Z</time>
      </trkpt>
      <trkpt lat="43.02253" lon="0.18245">
        <ele>797.2</ele>
        <time>2023-11-19T09:25:12Z</time>
      </trkpt>
      <trkpt lat="43.02253" lon="0.18246">
        <ele>797.3</ele>
        <time>2023-11-19T09:25:13Z</time>
      </trkpt>
      <trkpt lat="43.02254" lon="0.18247">
        <ele>797.4</ele>
        <time>2023-11-19T09:25:14Z</time>
      </trkpt>
      <trkpt lat="43.02254" lon="0.18247">
        <ele>797.5</ele>
        <time>2023-11-19T09:25:15Z</time>
      </trkpt>
      <trkpt lat="43.02255" lon="0.18248">
        <ele>797.6</ele>
        <time>2023-11-19T09:25:16Z</time>
      </trkpt>
      <trkpt lat="43.02256" lon="0.18248">
        <ele>797.7</ele>
        <time>2023-11-19T09:25:17Z</time>
      </trkpt>
      <trkpt lat="43.02256" lon="0.18248">
        <ele>797.8</ele>
        <time>2023-11-19T09:25:18Z</time>
      </trkpt>
      <trkpt lat="43.02257" lon="0.18249">
        <ele>797.9</ele>
        <time>2023-11-19T09:25:19Z</time>
      </trkpt>
      <trkpt lat="43.02257" lon="0.1825">
        <ele>797.9</ele>
        <time>2023-11-19T09:25:20Z</time>
      </trkpt>
      <trkpt lat="43.02258" lon="0.1825">
        <ele>798.1</ele>
        <time>2023-11-19T09:25:21Z</time>
      </trkpt>
      <trkpt lat="43.02258" lon="0.18251">
        <ele>798.2</ele>
        <time>2023-11-19T09:25:22Z</time>
      </trkpt>
      <trkpt lat="43.02259" lon="0.18251">
        <ele>798.3</ele>
        <time>2023-11-19T09:25:23Z</time>
      </trkpt>
      <trkpt lat="43.0226" lon="0.18252">
        <ele>798.4</ele>
        <time>2023-11-19T09:25:24Z</time>
      </trkpt>
      <trkpt lat="43.02261" lon="0.18252">
        <ele>798.6</ele>
        <time>2023-11-19T09:25:25Z</time>
      </trkpt>
      <trkpt lat="43.02261" lon="0.18252">
        <ele>798.7</ele>
        <time>2023-11-19T09:25:26Z</time>
      </trkpt>
      <trkpt lat="43.02262" lon="0.18252">
        <ele>798.7</ele>
        <time>2023-11-19T09:25:27Z</time>
      </trkpt>
      <trkpt lat="43.02262" lon="0.18252">
        <ele>798.8</ele>
        <time>2023-11-19T09:25:28Z</time>
      </trkpt>
      <trkpt lat="43.02263" lon="0.18252">
        <ele>798.9</ele>
        <time>2023-11-19T09:25:29Z</time>
      </trkpt>
      <trkpt lat="43.02263" lon="0.18252">
        <ele>799</ele>
        <time>2023-11-19T09:25:30Z</time>
      </trkpt>
      <trkpt lat="43.02265" lon="0.18253">
        <ele>799.2</ele>
        <time>2023-11-19T09:25:31Z</time>
      </trkpt>
      <trkpt lat="43.02265" lon="0.18253">
        <ele>799.3</ele>
        <time>2023-11-19T09:25:32Z</time>
      </trkpt>
      <trkpt lat="43.02265" lon="0.18252">
        <ele>799.3</ele>
        <time>2023-11-19T09:25:33Z</time>
      </trkpt>
      <trkpt lat="43.02265" lon="0.18252">
        <ele>799.3</ele>
        <time>2023-11-19T09:25:34Z</time>
      </trkpt>
      <trkpt lat="43.02265" lon="0.18252">
        <ele>799.3</ele>
        <time>2023-11-19T09:25:35Z</time>
      </trkpt>
      <trkpt lat="43.02265" lon="0.18253">
        <ele>799.3</ele>
        <time>2023-11-19T09:25:36Z</time>
      </trkpt>
      <trkpt lat="43.02265" lon="0.18252">
        <ele>799.3</ele>
        <time>2023-11-19T09:25:37Z</time>
      </trkpt>
      <trkpt lat="43.02265" lon="0.18252">
        <ele>799.4</ele>
        <time>2023-11-19T09:25:38Z</time>
      </trkpt>
      <trkpt lat="43.02265" lon="0.18252">
        <ele>799.4</ele>
        <time>2023-11-19T09:25:39Z</time>
      </trkpt>
      <trkpt lat="43.02265" lon="0.18252">
        <ele>799.4</ele>
        <time>2023-11-19T09:25:40Z</time>
      </trkpt>
      <trkpt lat="43.02265" lon="0.18252">
        <ele>799.4</ele>
        <time>2023-11-19T09:25:41Z</time>
      </trkpt>
      <trkpt lat="43.02266" lon="0.18252">
        <ele>799.5</ele>
        <time>2023-11-19T09:25:42Z</time>
      </trkpt>
      <trkpt lat="43.02266" lon="0.18252">
        <ele>799.5</ele>
        <time>2023-11-19T09:25:43Z</time>
      </trkpt>
      <trkpt lat="43.02266" lon="0.18252">
        <ele>799.5</ele>
        <time>2023-11-19T09:25:44Z</time>
      </trkpt>
      <trkpt lat="43.02267" lon="0.18252">
        <ele>799.6</ele>
        <time>2023-11-19T09:25:45Z</time>
      </trkpt>
      <trkpt lat="43.02267" lon="0.18252">
        <ele>799.7</ele>
        <time>2023-11-19T09:25:46Z</time>
      </trkpt>
      <trkpt lat="43.02268" lon="0.18253">
        <ele>799.8</ele>
        <time>2023-11-19T09:25:47Z</time>
      </trkpt>
      <trkpt lat="43.02268" lon="0.18254">
        <ele>799.9</ele>
        <time>2023-11-19T09:25:48Z</time>
      </trkpt>
      <trkpt lat="43.02268" lon="0.18254">
        <ele>800</ele>
        <time>2023-11-19T09:25:49Z</time>
      </trkpt>
      <trkpt lat="43.02269" lon="0.18255">
        <ele>800.2</ele>
        <time>2023-11-19T09:25:50Z</time>
      </trkpt>
      <trkpt lat="43.0227" lon="0.18255">
        <ele>800.2</ele>
        <time>2023-11-19T09:25:51Z</time>
      </trkpt>
      <trkpt lat="43.0227" lon="0.18255">
        <ele>800.4</ele>
        <time>2023-11-19T09:25:52Z</time>
      </trkpt>
      <trkpt lat="43.02272" lon="0.18257">
        <ele>800.7</ele>
        <time>2023-11-19T09:25:53Z</time>
      </trkpt>
      <trkpt lat="43.02272" lon="0.18258">
        <ele>800.8</ele>
        <time>2023-11-19T09:25:54Z</time>
      </trkpt>
      <trkpt lat="43.02273" lon="0.18258">
        <ele>800.9</ele>
        <time>2023-11-19T09:25:55Z</time>
      </trkpt>
      <trkpt lat="43.02273" lon="0.18259">
        <ele>801</ele>
        <time>2023-11-19T09:25:56Z</time>
      </trkpt>
      <trkpt lat="43.02274" lon="0.18259">
        <ele>801.1</ele>
        <time>2023-11-19T09:25:57Z</time>
      </trkpt>
      <trkpt lat="43.02274" lon="0.1826">
        <ele>801.3</ele>
        <time>2023-11-19T09:25:58Z</time>
      </trkpt>
      <trkpt lat="43.02275" lon="0.18261">
        <ele>801.5</ele>
        <time>2023-11-19T09:25:59Z</time>
      </trkpt>
      <trkpt lat="43.02276" lon="0.18262">
        <ele>801.6</ele>
        <time>2023-11-19T09:26:00Z</time>
      </trkpt>
      <trkpt lat="43.02276" lon="0.18263">
        <ele>801.8</ele>
        <time>2023-11-19T09:26:01Z</time>
      </trkpt>
      <trkpt lat="43.02277" lon="0.18264">
        <ele>801.9</ele>
        <time>2023-11-19T09:26:02Z</time>
      </trkpt>
      <trkpt lat="43.02277" lon="0.18264">
        <ele>802</ele>
        <time>2023-11-19T09:26:03Z</time>
      </trkpt>
      <trkpt lat="43.02277" lon="0.18265">
        <ele>802.2</ele>
        <time>2023-11-19T09:26:04Z</time>
      </trkpt>
      <trkpt lat="43.02278" lon="0.18266">
        <ele>802.3</ele>
        <time>2023-11-19T09:26:05Z</time>
      </trkpt>
      <trkpt lat="43.02278" lon="0.18266">
        <ele>802.3</ele>
        <time>2023-11-19T09:26:06Z</time>
      </trkpt>
      <trkpt lat="43.02279" lon="0.18267">
        <ele>802.5</ele>
        <time>2023-11-19T09:26:07Z</time>
      </trkpt>
      <trkpt lat="43.02278" lon="0.18268">
        <ele>802.7</ele>
        <time>2023-11-19T09:26:08Z</time>
      </trkpt>
      <trkpt lat="43.02279" lon="0.18269">
        <ele>802.8</ele>
        <time>2023-11-19T09:26:09Z</time>
      </trkpt>
      <trkpt lat="43.02279" lon="0.18269">
        <ele>802.9</ele>
        <time>2023-11-19T09:26:10Z</time>
      </trkpt>
      <trkpt lat="43.02279" lon="0.1827">
        <ele>803.1</ele>
        <time>2023-11-19T09:26:11Z</time>
      </trkpt>
      <trkpt lat="43.02279" lon="0.18271">
        <ele>803.2</ele>
        <time>2023-11-19T09:26:12Z</time>
      </trkpt>
      <trkpt lat="43.0228" lon="0.18272">
        <ele>803.4</ele>
        <time>2023-11-19T09:26:13Z</time>
      </trkpt>
      <trkpt lat="43.0228" lon="0.18272">
        <ele>803.5</ele>
        <time>2023-11-19T09:26:14Z</time>
      </trkpt>
      <trkpt lat="43.02281" lon="0.18273">
        <ele>803.7</ele>
        <time>2023-11-19T09:26:15Z</time>
      </trkpt>
      <trkpt lat="43.02282" lon="0.18273">
        <ele>803.9</ele>
        <time>2023-11-19T09:26:16Z</time>
      </trkpt>
      <trkpt lat="43.02283" lon="0.18274">
        <ele>804.1</ele>
        <time>2023-11-19T09:26:17Z</time>
      </trkpt>
      <trkpt lat="43.02284" lon="0.18274">
        <ele>804.2</ele>
        <time>2023-11-19T09:26:18Z</time>
      </trkpt>
      <trkpt lat="43.02285" lon="0.18274">
        <ele>804.4</ele>
        <time>2023-11-19T09:26:19Z</time>
      </trkpt>
      <trkpt lat="43.02285" lon="0.18275">
        <ele>804.5</ele>
        <time>2023-11-19T09:26:20Z</time>
      </trkpt>
      <trkpt lat="43.02285" lon="0.18276">
        <ele>804.8</ele>
        <time>2023-11-19T09:26:21Z</time>
      </trkpt>
      <trkpt lat="43.02286" lon="0.18277">
        <ele>804.9</ele>
        <time>2023-11-19T09:26:22Z</time>
      </trkpt>
      <trkpt lat="43.02286" lon="0.18277">
        <ele>805</ele>
        <time>2023-11-19T09:26:23Z</time>
      </trkpt>
      <trkpt lat="43.02287" lon="0.18277">
        <ele>805.2</ele>
        <time>2023-11-19T09:26:24Z</time>
      </trkpt>
      <trkpt lat="43.02288" lon="0.18278">
        <ele>805.3</ele>
        <time>2023-11-19T09:26:25Z</time>
      </trkpt>
      <trkpt lat="43.02288" lon="0.18278">
        <ele>805.4</ele>
        <time>2023-11-19T09:26:26Z</time>
      </trkpt>
      <trkpt lat="43.0229" lon="0.1828">
        <ele>805.8</ele>
        <time>2023-11-19T09:26:27Z</time>
      </trkpt>
      <trkpt lat="43.0229" lon="0.18281">
        <ele>806</ele>
        <time>2023-11-19T09:26:28Z</time>
      </trkpt>
      <trkpt lat="43.02291" lon="0.18281">
        <ele>806.2</ele>
        <time>2023-11-19T09:26:29Z</time>
      </trkpt>
      <trkpt lat="43.02292" lon="0.18282">
        <ele>806.3</ele>
        <time>2023-11-19T09:26:30Z</time>
      </trkpt>
      <trkpt lat="43.02293" lon="0.18283">
        <ele>806.6</ele>
        <time>2023-11-19T09:26:31Z</time>
      </trkpt>
      <trkpt lat="43.02293" lon="0.18284">
        <ele>806.8</ele>
        <time>2023-11-19T09:26:32Z</time>
      </trkpt>
      <trkpt lat="43.02294" lon="0.18285">
        <ele>807</ele>
        <time>2023-11-19T09:26:33Z</time>
      </trkpt>
      <trkpt lat="43.02295" lon="0.18286">
        <ele>807.2</ele>
        <time>2023-11-19T09:26:34Z</time>
      </trkpt>
      <trkpt lat="43.02296" lon="0.18286">
        <ele>807.4</ele>
        <time>2023-11-19T09:26:35Z</time>
      </trkpt>
      <trkpt lat="43.02296" lon="0.18287">
        <ele>807.6</ele>
        <time>2023-11-19T09:26:36Z</time>
      </trkpt>
      <trkpt lat="43.02297" lon="0.18288">
        <ele>807.7</ele>
        <time>2023-11-19T09:26:37Z</time>
      </trkpt>
      <trkpt lat="43.02297" lon="0.18289">
        <ele>807.8</ele>
        <time>2023-11-19T09:26:38Z</time>
      </trkpt>
      <trkpt lat="43.02297" lon="0.18289">
        <ele>807.9</ele>
        <time>2023-11-19T09:26:39Z</time>
      </trkpt>
      <trkpt lat="43.02298" lon="0.1829">
        <ele>808</ele>
        <time>2023-11-19T09:26:40Z</time>
      </trkpt>
      <trkpt lat="43.02298" lon="0.18291">
        <ele>808.2</ele>
        <time>2023-11-19T09:26:41Z</time>
      </trkpt>
      <trkpt lat="43.02299" lon="0.18291">
        <ele>808.3</ele>
        <time>2023-11-19T09:26:42Z</time>
      </trkpt>
      <trkpt lat="43.023" lon="0.18292">
        <ele>808.4</ele>
        <time>2023-11-19T09:26:43Z</time>
      </trkpt>
      <trkpt lat="43.023" lon="0.18293">
        <ele>808.6</ele>
        <time>2023-11-19T09:26:44Z</time>
      </trkpt>
      <trkpt lat="43.02301" lon="0.18294">
        <ele>808.8</ele>
        <time>2023-11-19T09:26:45Z</time>
      </trkpt>
      <trkpt lat="43.02302" lon="0.18295">
        <ele>809</ele>
        <time>2023-11-19T09:26:46Z</time>
      </trkpt>
      <trkpt lat="43.02303" lon="0.18296">
        <ele>809.1</ele>
        <time>2023-11-19T09:26:47Z</time>
      </trkpt>
      <trkpt lat="43.02304" lon="0.18296">
        <ele>809.3</ele>
        <time>2023-11-19T09:26:48Z</time>
      </trkpt>
      <trkpt lat="43.02305" lon="0.18297">
        <ele>809.4</ele>
        <time>2023-11-19T09:26:49Z</time>
      </trkpt>
      <trkpt lat="43.02305" lon="0.18297">
        <ele>809.6</ele>
        <time>2023-11-19T09:26:50Z</time>
      </trkpt>
      <trkpt lat="43.02306" lon="0.18298">
        <ele>809.7</ele>
        <time>2023-11-19T09:26:51Z</time>
      </trkpt>
      <trkpt lat="43.02307" lon="0.18298">
        <ele>809.7</ele>
        <time>2023-11-19T09:26:52Z</time>
      </trkpt>
      <trkpt lat="43.02307" lon="0.18298">
        <ele>809.9</ele>
        <time>2023-11-19T09:26:53Z</time>
      </trkpt>
      <trkpt lat="43.02308" lon="0.18299">
        <ele>810</ele>
        <time>2023-11-19T09:26:54Z</time>
      </trkpt>
      <trkpt lat="43.02308" lon="0.183">
        <ele>810</ele>
        <time>2023-11-19T09:26:55Z</time>
      </trkpt>
      <trkpt lat="43.02309" lon="0.183">
        <ele>810.1</ele>
        <time>2023-11-19T09:26:56Z</time>
      </trkpt>
      <trkpt lat="43.02309" lon="0.18301">
        <ele>810.2</ele>
        <time>2023-11-19T09:26:57Z</time>
      </trkpt>
      <trkpt lat="43.0231" lon="0.18301">
        <ele>810.3</ele>
        <time>2023-11-19T09:26:58Z</time>
      </trkpt>
      <trkpt lat="43.0231" lon="0.18302">
        <ele>810.4</ele>
        <time>2023-11-19T09:26:59Z</time>
      </trkpt>
      <trkpt lat="43.0231" lon="0.18302">
        <ele>810.5</ele>
        <time>2023-11-19T09:27:00Z</time>
      </trkpt>
      <trkpt lat="43.02311" lon="0.18303">
        <ele>810.7</ele>
        <time>2023-11-19T09:27:01Z</time>
      </trkpt>
      <trkpt lat="43.02312" lon="0.18304">
        <ele>810.7</ele>
        <time>2023-11-19T09:27:02Z</time>
      </trkpt>
      <trkpt lat="43.02312" lon="0.18304">
        <ele>810.8</ele>
        <time>2023-11-19T09:27:03Z</time>
      </trkpt>
      <trkpt lat="43.02312" lon="0.18305">
        <ele>810.9</ele>
        <time>2023-11-19T09:27:04Z</time>
      </trkpt>
      <trkpt lat="43.02313" lon="0.18306">
        <ele>811</ele>
        <time>2023-11-19T09:27:05Z</time>
      </trkpt>
      <trkpt lat="43.02314" lon="0.18307">
        <ele>811.2</ele>
        <time>2023-11-19T09:27:06Z</time>
      </trkpt>
      <trkpt lat="43.02315" lon="0.18308">
        <ele>811.3</ele>
        <time>2023-11-19T09:27:07Z</time>
      </trkpt>
      <trkpt lat="43.02315" lon="0.18308">
        <ele>811.4</ele>
        <time>2023-11-19T09:27:08Z</time>
      </trkpt>
      <trkpt lat="43.02316" lon="0.18308">
        <ele>811.5</ele>
        <time>2023-11-19T09:27:09Z</time>
      </trkpt>
      <trkpt lat="43.02316" lon="0.18308">
        <ele>811.6</ele>
        <time>2023-11-19T09:27:10Z</time>
      </trkpt>
      <trkpt lat="43.02316" lon="0.18308">
        <ele>811.6</ele>
        <time>2023-11-19T09:27:11Z</time>
      </trkpt>
      <trkpt lat="43.02317" lon="0.18309">
        <ele>811.8</ele>
        <time>2023-11-19T09:27:12Z</time>
      </trkpt>
      <trkpt lat="43.02318" lon="0.1831">
        <ele>812</ele>
        <time>2023-11-19T09:27:13Z</time>
      </trkpt>
      <trkpt lat="43.02319" lon="0.1831">
        <ele>812.1</ele>
        <time>2023-11-19T09:27:14Z</time>
      </trkpt>
      <trkpt lat="43.0232" lon="0.18311">
        <ele>812.2</ele>
        <time>2023-11-19T09:27:15Z</time>
      </trkpt>
      <trkpt lat="43.02321" lon="0.18312">
        <ele>812.4</ele>
        <time>2023-11-19T09:27:16Z</time>
      </trkpt>
      <trkpt lat="43.02322" lon="0.18313">
        <ele>812.6</ele>
        <time>2023-11-19T09:27:17Z</time>
      </trkpt>
      <trkpt lat="43.02323" lon="0.18313">
        <ele>812.8</ele>
        <time>2023-11-19T09:27:18Z</time>
      </trkpt>
      <trkpt lat="43.02323" lon="0.18313">
        <ele>812.8</ele>
        <time>2023-11-19T09:27:19Z</time>
      </trkpt>
      <trkpt lat="43.02323" lon="0.18314">
        <ele>812.8</ele>
        <time>2023-11-19T09:27:20Z</time>
      </trkpt>
      <trkpt lat="43.02324" lon="0.18314">
        <ele>813</ele>
        <time>2023-11-19T09:27:21Z</time>
      </trkpt>
      <trkpt lat="43.02324" lon="0.18314">
        <ele>813</ele>
        <time>2023-11-19T09:27:22Z</time>
      </trkpt>
      <trkpt lat="43.02325" lon="0.18313">
        <ele>813.1</ele>
        <time>2023-11-19T09:27:23Z</time>
      </trkpt>
      <trkpt lat="43.02326" lon="0.18314">
        <ele>813.2</ele>
        <time>2023-11-19T09:27:24Z</time>
      </trkpt>
      <trkpt lat="43.02325" lon="0.18314">
        <ele>813.2</ele>
        <time>2023-11-19T09:27:25Z</time>
      </trkpt>
      <trkpt lat="43.02325" lon="0.18314">
        <ele>813.2</ele>
        <time>2023-11-19T09:27:26Z</time>
      </trkpt>
      <trkpt lat="43.02325" lon="0.18314">
        <ele>813.2</ele>
        <time>2023-11-19T09:27:27Z</time>
      </trkpt>
      <trkpt lat="43.02325" lon="0.18314">
        <ele>813.2</ele>
        <time>2023-11-19T09:27:28Z</time>
      </trkpt>
      <trkpt lat="43.02325" lon="0.18314">
        <ele>813.2</ele>
        <time>2023-11-19T09:27:29Z</time>
      </trkpt>
      <trkpt lat="43.02326" lon="0.18315">
        <ele>813.5</ele>
        <time>2023-11-19T09:27:30Z</time>
      </trkpt>
      <trkpt lat="43.02326" lon="0.18317">
        <ele>813.7</ele>
        <time>2023-11-19T09:27:31Z</time>
      </trkpt>
      <trkpt lat="43.02326" lon="0.18318">
        <ele>813.8</ele>
        <time>2023-11-19T09:27:32Z</time>
      </trkpt>
      <trkpt lat="43.02326" lon="0.18319">
        <ele>813.9</ele>
        <time>2023-11-19T09:27:33Z</time>
      </trkpt>
      <trkpt lat="43.02326" lon="0.1832">
        <ele>814</ele>
        <time>2023-11-19T09:27:34Z</time>
      </trkpt>
      <trkpt lat="43.02326" lon="0.1832">
        <ele>814.1</ele>
        <time>2023-11-19T09:27:35Z</time>
      </trkpt>
      <trkpt lat="43.02326" lon="0.18321">
        <ele>814.2</ele>
        <time>2023-11-19T09:27:36Z</time>
      </trkpt>
      <trkpt lat="43.02326" lon="0.18321">
        <ele>814.3</ele>
        <time>2023-11-19T09:27:37Z</time>
      </trkpt>
      <trkpt lat="43.02327" lon="0.18321">
        <ele>814.4</ele>
        <time>2023-11-19T09:27:38Z</time>
      </trkpt>
      <trkpt lat="43.02327" lon="0.18322">
        <ele>814.6</ele>
        <time>2023-11-19T09:27:39Z</time>
      </trkpt>
      <trkpt lat="43.02329" lon="0.18324">
        <ele>814.9</ele>
        <time>2023-11-19T09:27:40Z</time>
      </trkpt>
      <trkpt lat="43.0233" lon="0.18324">
        <ele>815.1</ele>
        <time>2023-11-19T09:27:41Z</time>
      </trkpt>
      <trkpt lat="43.02331" lon="0.18327">
        <ele>815.5</ele>
        <time>2023-11-19T09:27:42Z</time>
      </trkpt>
      <trkpt lat="43.0233" lon="0.18328">
        <ele>815.8</ele>
        <time>2023-11-19T09:27:43Z</time>
      </trkpt>
      <trkpt lat="43.0233" lon="0.18329">
        <ele>815.8</ele>
        <time>2023-11-19T09:27:44Z</time>
      </trkpt>
      <trkpt lat="43.0233" lon="0.18329">
        <ele>815.9</ele>
        <time>2023-11-19T09:27:45Z</time>
      </trkpt>
      <trkpt lat="43.02331" lon="0.1833">
        <ele>816.1</ele>
        <time>2023-11-19T09:27:46Z</time>
      </trkpt>
      <trkpt lat="43.02329" lon="0.18331">
        <ele>816.4</ele>
        <time>2023-11-19T09:27:47Z</time>
      </trkpt>
      <trkpt lat="43.02328" lon="0.1833">
        <ele>816.7</ele>
        <time>2023-11-19T09:27:48Z</time>
      </trkpt>
      <trkpt lat="43.02329" lon="0.1833">
        <ele>816.8</ele>
        <time>2023-11-19T09:27:49Z</time>
      </trkpt>
      <trkpt lat="43.02329" lon="0.18332">
        <ele>817</ele>
        <time>2023-11-19T09:27:50Z</time>
      </trkpt>
      <trkpt lat="43.02329" lon="0.18332">
        <ele>817</ele>
        <time>2023-11-19T09:27:51Z</time>
      </trkpt>
      <trkpt lat="43.0233" lon="0.18332">
        <ele>817.3</ele>
        <time>2023-11-19T09:27:52Z</time>
      </trkpt>
      <trkpt lat="43.02331" lon="0.18333">
        <ele>817.5</ele>
        <time>2023-11-19T09:27:53Z</time>
      </trkpt>
      <trkpt lat="43.0233" lon="0.18333">
        <ele>817.6</ele>
        <time>2023-11-19T09:27:54Z</time>
      </trkpt>
      <trkpt lat="43.02331" lon="0.18333">
        <ele>817.8</ele>
        <time>2023-11-19T09:27:55Z</time>
      </trkpt>
      <trkpt lat="43.02331" lon="0.18332">
        <ele>818</ele>
        <time>2023-11-19T09:27:56Z</time>
      </trkpt>
      <trkpt lat="43.02331" lon="0.18333">
        <ele>818.1</ele>
        <time>2023-11-19T09:27:57Z</time>
      </trkpt>
      <trkpt lat="43.02331" lon="0.18333">
        <ele>818.2</ele>
        <time>2023-11-19T09:27:58Z</time>
      </trkpt>
      <trkpt lat="43.02331" lon="0.18334">
        <ele>818.4</ele>
        <time>2023-11-19T09:27:59Z</time>
      </trkpt>
      <trkpt lat="43.02331" lon="0.18334">
        <ele>818.5</ele>
        <time>2023-11-19T09:28:00Z</time>
      </trkpt>
      <trkpt lat="43.02331" lon="0.18334">
        <ele>818.5</ele>
        <time>2023-11-19T09:28:01Z</time>
      </trkpt>
      <trkpt lat="43.02331" lon="0.18335">
        <ele>818.7</ele>
        <time>2023-11-19T09:28:02Z</time>
      </trkpt>
      <trkpt lat="43.02331" lon="0.18336">
        <ele>818.9</ele>
        <time>2023-11-19T09:28:03Z</time>
      </trkpt>
      <trkpt lat="43.02331" lon="0.18338">
        <ele>819.3</ele>
        <time>2023-11-19T09:28:04Z</time>
      </trkpt>
      <trkpt lat="43.02331" lon="0.18338">
        <ele>819.4</ele>
        <time>2023-11-19T09:28:05Z</time>
      </trkpt>
      <trkpt lat="43.02331" lon="0.18339">
        <ele>819.5</ele>
        <time>2023-11-19T09:28:06Z</time>
      </trkpt>
      <trkpt lat="43.02332" lon="0.1834">
        <ele>819.7</ele>
        <time>2023-11-19T09:28:07Z</time>
      </trkpt>
      <trkpt lat="43.02332" lon="0.1834">
        <ele>819.9</ele>
        <time>2023-11-19T09:28:08Z</time>
      </trkpt>
      <trkpt lat="43.02332" lon="0.18341">
        <ele>820.1</ele>
        <time>2023-11-19T09:28:09Z</time>
      </trkpt>
      <trkpt lat="43.02332" lon="0.18341">
        <ele>820.2</ele>
        <time>2023-11-19T09:28:10Z</time>
      </trkpt>
      <trkpt lat="43.02332" lon="0.18342">
        <ele>820.5</ele>
        <time>2023-11-19T09:28:11Z</time>
      </trkpt>
      <trkpt lat="43.02332" lon="0.18343">
        <ele>820.6</ele>
        <time>2023-11-19T09:28:12Z</time>
      </trkpt>
      <trkpt lat="43.02333" lon="0.18343">
        <ele>820.6</ele>
        <time>2023-11-19T09:28:13Z</time>
      </trkpt>
      <trkpt lat="43.02333" lon="0.18343">
        <ele>820.8</ele>
        <time>2023-11-19T09:28:14Z</time>
      </trkpt>
      <trkpt lat="43.02334" lon="0.18345">
        <ele>821.2</ele>
        <time>2023-11-19T09:28:15Z</time>
      </trkpt>
      <trkpt lat="43.02334" lon="0.18345">
        <ele>821.2</ele>
        <time>2023-11-19T09:28:16Z</time>
      </trkpt>
      <trkpt lat="43.02334" lon="0.18346">
        <ele>821.5</ele>
        <time>2023-11-19T09:28:17Z</time>
      </trkpt>
      <trkpt lat="43.02334" lon="0.18346">
        <ele>821.6</ele>
        <time>2023-11-19T09:28:18Z</time>
      </trkpt>
      <trkpt lat="43.02335" lon="0.18346">
        <ele>821.8</ele>
        <time>2023-11-19T09:28:19Z</time>
      </trkpt>
      <trkpt lat="43.02335" lon="0.18347">
        <ele>822</ele>
        <time>2023-11-19T09:28:20Z</time>
      </trkpt>
      <trkpt lat="43.02335" lon="0.18347">
        <ele>822.1</ele>
        <time>2023-11-19T09:28:21Z</time>
      </trkpt>
      <trkpt lat="43.02336" lon="0.18348">
        <ele>822.3</ele>
        <time>2023-11-19T09:28:22Z</time>
      </trkpt>
      <trkpt lat="43.02336" lon="0.18348">
        <ele>822.5</ele>
        <time>2023-11-19T09:28:23Z</time>
      </trkpt>
      <trkpt lat="43.02337" lon="0.18349">
        <ele>822.6</ele>
        <time>2023-11-19T09:28:24Z</time>
      </trkpt>
      <trkpt lat="43.02337" lon="0.18349">
        <ele>822.8</ele>
        <time>2023-11-19T09:28:25Z</time>
      </trkpt>
      <trkpt lat="43.02337" lon="0.1835">
        <ele>823</ele>
        <time>2023-11-19T09:28:26Z</time>
      </trkpt>
      <trkpt lat="43.02337" lon="0.1835">
        <ele>823</ele>
        <time>2023-11-19T09:28:27Z</time>
      </trkpt>
      <trkpt lat="43.02337" lon="0.1835">
        <ele>823.1</ele>
        <time>2023-11-19T09:28:28Z</time>
      </trkpt>
      <trkpt lat="43.02337" lon="0.18351">
        <ele>823.4</ele>
        <time>2023-11-19T09:28:29Z</time>
      </trkpt>
      <trkpt lat="43.02337" lon="0.18352">
        <ele>823.5</ele>
        <time>2023-11-19T09:28:30Z</time>
      </trkpt>
      <trkpt lat="43.02338" lon="0.18352">
        <ele>823.6</ele>
        <time>2023-11-19T09:28:31Z</time>
      </trkpt>
      <trkpt lat="43.02338" lon="0.18353">
        <ele>823.8</ele>
        <time>2023-11-19T09:28:32Z</time>
      </trkpt>
      <trkpt lat="43.02338" lon="0.18353">
        <ele>823.9</ele>
        <time>2023-11-19T09:28:33Z</time>
      </trkpt>
      <trkpt lat="43.02338" lon="0.18353">
        <ele>824</ele>
        <time>2023-11-19T09:28:34Z</time>
      </trkpt>
      <trkpt lat="43.02339" lon="0.18354">
        <ele>824.4</ele>
        <time>2023-11-19T09:28:35Z</time>
      </trkpt>
      <trkpt lat="43.0234" lon="0.18355">
        <ele>824.5</ele>
        <time>2023-11-19T09:28:36Z</time>
      </trkpt>
      <trkpt lat="43.0234" lon="0.18355">
        <ele>824.7</ele>
        <time>2023-11-19T09:28:37Z</time>
      </trkpt>
      <trkpt lat="43.0234" lon="0.18356">
        <ele>824.9</ele>
        <time>2023-11-19T09:28:38Z</time>
      </trkpt>
      <trkpt lat="43.02341" lon="0.18356">
        <ele>825.1</ele>
        <time>2023-11-19T09:28:39Z</time>
      </trkpt>
      <trkpt lat="43.02341" lon="0.18357">
        <ele>825.2</ele>
        <time>2023-11-19T09:28:40Z</time>
      </trkpt>
      <trkpt lat="43.02342" lon="0.18359">
        <ele>825.8</ele>
        <time>2023-11-19T09:28:41Z</time>
      </trkpt>
      <trkpt lat="43.02342" lon="0.1836">
        <ele>826</ele>
        <time>2023-11-19T09:28:42Z</time>
      </trkpt>
      <trkpt lat="43.02343" lon="0.1836">
        <ele>826.2</ele>
        <time>2023-11-19T09:28:43Z</time>
      </trkpt>
      <trkpt lat="43.02343" lon="0.18361">
        <ele>826.4</ele>
        <time>2023-11-19T09:28:44Z</time>
      </trkpt>
      <trkpt lat="43.02343" lon="0.18362">
        <ele>826.6</ele>
        <time>2023-11-19T09:28:45Z</time>
      </trkpt>
      <trkpt lat="43.02344" lon="0.18362">
        <ele>826.8</ele>
        <time>2023-11-19T09:28:46Z</time>
      </trkpt>
      <trkpt lat="43.02344" lon="0.18363">
        <ele>827</ele>
        <time>2023-11-19T09:28:47Z</time>
      </trkpt>
      <trkpt lat="43.02344" lon="0.18364">
        <ele>827.1</ele>
        <time>2023-11-19T09:28:48Z</time>
      </trkpt>
      <trkpt lat="43.02344" lon="0.18364">
        <ele>827.3</ele>
        <time>2023-11-19T09:28:49Z</time>
      </trkpt>
      <trkpt lat="43.02344" lon="0.18365">
        <ele>827.4</ele>
        <time>2023-11-19T09:28:50Z</time>
      </trkpt>
      <trkpt lat="43.02344" lon="0.18365">
        <ele>827.6</ele>
        <time>2023-11-19T09:28:51Z</time>
      </trkpt>
      <trkpt lat="43.02344" lon="0.18366">
        <ele>827.7</ele>
        <time>2023-11-19T09:28:52Z</time>
      </trkpt>
      <trkpt lat="43.02345" lon="0.18367">
        <ele>827.9</ele>
        <time>2023-11-19T09:28:53Z</time>
      </trkpt>
      <trkpt lat="43.02345" lon="0.18367">
        <ele>828</ele>
        <time>2023-11-19T09:28:54Z</time>
      </trkpt>
      <trkpt lat="43.02345" lon="0.18368">
        <ele>828.4</ele>
        <time>2023-11-19T09:28:55Z</time>
      </trkpt>
      <trkpt lat="43.02345" lon="0.18369">
        <ele>828.5</ele>
        <time>2023-11-19T09:28:56Z</time>
      </trkpt>
      <trkpt lat="43.02345" lon="0.1837">
        <ele>828.7</ele>
        <time>2023-11-19T09:28:57Z</time>
      </trkpt>
      <trkpt lat="43.02345" lon="0.1837">
        <ele>828.9</ele>
        <time>2023-11-19T09:28:58Z</time>
      </trkpt>
      <trkpt lat="43.02346" lon="0.18371">
        <ele>829.1</ele>
        <time>2023-11-19T09:28:59Z</time>
      </trkpt>
      <trkpt lat="43.02346" lon="0.18371">
        <ele>829.3</ele>
        <time>2023-11-19T09:29:00Z</time>
      </trkpt>
      <trkpt lat="43.02347" lon="0.18372">
        <ele>829.4</ele>
        <time>2023-11-19T09:29:01Z</time>
      </trkpt>
      <trkpt lat="43.02347" lon="0.18372">
        <ele>829.6</ele>
        <time>2023-11-19T09:29:02Z</time>
      </trkpt>
      <trkpt lat="43.02347" lon="0.18373">
        <ele>829.8</ele>
        <time>2023-11-19T09:29:03Z</time>
      </trkpt>
      <trkpt lat="43.02347" lon="0.18373">
        <ele>829.9</ele>
        <time>2023-11-19T09:29:04Z</time>
      </trkpt>
      <trkpt lat="43.02347" lon="0.18373">
        <ele>830</ele>
        <time>2023-11-19T09:29:05Z</time>
      </trkpt>
      <trkpt lat="43.02347" lon="0.18374">
        <ele>830.2</ele>
        <time>2023-11-19T09:29:06Z</time>
      </trkpt>
      <trkpt lat="43.02348" lon="0.18375">
        <ele>830.5</ele>
        <time>2023-11-19T09:29:07Z</time>
      </trkpt>
      <trkpt lat="43.02348" lon="0.18376">
        <ele>830.7</ele>
        <time>2023-11-19T09:29:08Z</time>
      </trkpt>
      <trkpt lat="43.02349" lon="0.18376">
        <ele>830.9</ele>
        <time>2023-11-19T09:29:09Z</time>
      </trkpt>
      <trkpt lat="43.02349" lon="0.18377">
        <ele>831.1</ele>
        <time>2023-11-19T09:29:10Z</time>
      </trkpt>
      <trkpt lat="43.02349" lon="0.18377">
        <ele>831.2</ele>
        <time>2023-11-19T09:29:11Z</time>
      </trkpt>
      <trkpt lat="43.02349" lon="0.18377">
        <ele>831.3</ele>
        <time>2023-11-19T09:29:12Z</time>
      </trkpt>
      <trkpt lat="43.0235" lon="0.18378">
        <ele>831.5</ele>
        <time>2023-11-19T09:29:13Z</time>
      </trkpt>
      <trkpt lat="43.0235" lon="0.18378">
        <ele>831.7</ele>
        <time>2023-11-19T09:29:14Z</time>
      </trkpt>
      <trkpt lat="43.0235" lon="0.18379">
        <ele>831.9</ele>
        <time>2023-11-19T09:29:15Z</time>
      </trkpt>
      <trkpt lat="43.02352" lon="0.18379">
        <ele>832.8</ele>
        <time>2023-11-19T09:29:16Z</time>
      </trkpt>
      <trkpt lat="43.02352" lon="0.1838">
        <ele>833.1</ele>
        <time>2023-11-19T09:29:17Z</time>
      </trkpt>
      <trkpt lat="43.02352" lon="0.18381">
        <ele>833.3</ele>
        <time>2023-11-19T09:29:18Z</time>
      </trkpt>
      <trkpt lat="43.02351" lon="0.18381">
        <ele>833.5</ele>
        <time>2023-11-19T09:29:19Z</time>
      </trkpt>
      <trkpt lat="43.02351" lon="0.18383">
        <ele>833.8</ele>
        <time>2023-11-19T09:29:20Z</time>
      </trkpt>
      <trkpt lat="43.02353" lon="0.18383">
        <ele>834.2</ele>
        <time>2023-11-19T09:29:21Z</time>
      </trkpt>
      <trkpt lat="43.02354" lon="0.18383">
        <ele>834.5</ele>
        <time>2023-11-19T09:29:22Z</time>
      </trkpt>
      <trkpt lat="43.02354" lon="0.18383">
        <ele>834.8</ele>
        <time>2023-11-19T09:29:23Z</time>
      </trkpt>
      <trkpt lat="43.02355" lon="0.18383">
        <ele>835.1</ele>
        <time>2023-11-19T09:29:24Z</time>
      </trkpt>
      <trkpt lat="43.02355" lon="0.18384">
        <ele>835.2</ele>
        <time>2023-11-19T09:29:25Z</time>
      </trkpt>
      <trkpt lat="43.02357" lon="0.18384">
        <ele>835.7</ele>
        <time>2023-11-19T09:29:26Z</time>
      </trkpt>
      <trkpt lat="43.02358" lon="0.18383">
        <ele>836</ele>
        <time>2023-11-19T09:29:27Z</time>
      </trkpt>
      <trkpt lat="43.02358" lon="0.18382">
        <ele>836.1</ele>
        <time>2023-11-19T09:29:28Z</time>
      </trkpt>
      <trkpt lat="43.02358" lon="0.18384">
        <ele>836.5</ele>
        <time>2023-11-19T09:29:29Z</time>
      </trkpt>
      <trkpt lat="43.02359" lon="0.18383">
        <ele>836.7</ele>
        <time>2023-11-19T09:29:30Z</time>
      </trkpt>
      <trkpt lat="43.02358" lon="0.18382">
        <ele>836.9</ele>
        <time>2023-11-19T09:29:31Z</time>
      </trkpt>
      <trkpt lat="43.02359" lon="0.18382">
        <ele>837.1</ele>
        <time>2023-11-19T09:29:32Z</time>
      </trkpt>
      <trkpt lat="43.02359" lon="0.18381">
        <ele>837.3</ele>
        <time>2023-11-19T09:29:33Z</time>
      </trkpt>
      <trkpt lat="43.0236" lon="0.18381">
        <ele>837.6</ele>
        <time>2023-11-19T09:29:34Z</time>
      </trkpt>
      <trkpt lat="43.02361" lon="0.1838">
        <ele>837.9</ele>
        <time>2023-11-19T09:29:35Z</time>
      </trkpt>
      <trkpt lat="43.02361" lon="0.18379">
        <ele>838.1</ele>
        <time>2023-11-19T09:29:36Z</time>
      </trkpt>
      <trkpt lat="43.02361" lon="0.18379">
        <ele>838.2</ele>
        <time>2023-11-19T09:29:37Z</time>
      </trkpt>
      <trkpt lat="43.02362" lon="0.1838">
        <ele>838.4</ele>
        <time>2023-11-19T09:29:38Z</time>
      </trkpt>
      <trkpt lat="43.02363" lon="0.18379">
        <ele>838.8</ele>
        <time>2023-11-19T09:29:39Z</time>
      </trkpt>
      <trkpt lat="43.02364" lon="0.18379">
        <ele>839.1</ele>
        <time>2023-11-19T09:29:40Z</time>
      </trkpt>
      <trkpt lat="43.02364" lon="0.18379">
        <ele>839.2</ele>
        <time>2023-11-19T09:29:41Z</time>
      </trkpt>
      <trkpt lat="43.02364" lon="0.18378">
        <ele>839.2</ele>
        <time>2023-11-19T09:29:42Z</time>
      </trkpt>
      <trkpt lat="43.02364" lon="0.18379">
        <ele>839.4</ele>
        <time>2023-11-19T09:29:43Z</time>
      </trkpt>
      <trkpt lat="43.02364" lon="0.18378">
        <ele>839.5</ele>
        <time>2023-11-19T09:29:44Z</time>
      </trkpt>
      <trkpt lat="43.02364" lon="0.18379">
        <ele>839.6</ele>
        <time>2023-11-19T09:29:45Z</time>
      </trkpt>
      <trkpt lat="43.02364" lon="0.18378">
        <ele>839.8</ele>
        <time>2023-11-19T09:29:46Z</time>
      </trkpt>
      <trkpt lat="43.02365" lon="0.18378">
        <ele>839.9</ele>
        <time>2023-11-19T09:29:47Z</time>
      </trkpt>
      <trkpt lat="43.02365" lon="0.18378">
        <ele>840</ele>
        <time>2023-11-19T09:29:48Z</time>
      </trkpt>
      <trkpt lat="43.02365" lon="0.18378">
        <ele>840.2</ele>
        <time>2023-11-19T09:29:49Z</time>
      </trkpt>
      <trkpt lat="43.02365" lon="0.18375">
        <ele>840.8</ele>
        <time>2023-11-19T09:29:50Z</time>
      </trkpt>
      <trkpt lat="43.02366" lon="0.18376">
        <ele>840.9</ele>
        <time>2023-11-19T09:29:51Z</time>
      </trkpt>
      <trkpt lat="43.02366" lon="0.18375">
        <ele>841.1</ele>
        <time>2023-11-19T09:29:52Z</time>
      </trkpt>
      <trkpt lat="43.02366" lon="0.18375">
        <ele>841.1</ele>
        <time>2023-11-19T09:29:53Z</time>
      </trkpt>
      <trkpt lat="43.02366" lon="0.18374">
        <ele>841.3</ele>
        <time>2023-11-19T09:29:54Z</time>
      </trkpt>
      <trkpt lat="43.02368" lon="0.18375">
        <ele>841.7</ele>
        <time>2023-11-19T09:29:55Z</time>
      </trkpt>
      <trkpt lat="43.02368" lon="0.18374">
        <ele>841.9</ele>
        <time>2023-11-19T09:29:56Z</time>
      </trkpt>
      <trkpt lat="43.02368" lon="0.18373">
        <ele>842.1</ele>
        <time>2023-11-19T09:29:57Z</time>
      </trkpt>
      <trkpt lat="43.02369" lon="0.18372">
        <ele>842.3</ele>
        <time>2023-11-19T09:29:58Z</time>
      </trkpt>
      <trkpt lat="43.02369" lon="0.18371">
        <ele>842.5</ele>
        <time>2023-11-19T09:29:59Z</time>
      </trkpt>
      <trkpt lat="43.02369" lon="0.1837">
        <ele>842.7</ele>
        <time>2023-11-19T09:30:00Z</time>
      </trkpt>
      <trkpt lat="43.0237" lon="0.1837">
        <ele>842.9</ele>
        <time>2023-11-19T09:30:01Z</time>
      </trkpt>
      <trkpt lat="43.0237" lon="0.18369">
        <ele>843.1</ele>
        <time>2023-11-19T09:30:02Z</time>
      </trkpt>
      <trkpt lat="43.02371" lon="0.18369">
        <ele>843.3</ele>
        <time>2023-11-19T09:30:03Z</time>
      </trkpt>
      <trkpt lat="43.02371" lon="0.18368">
        <ele>843.4</ele>
        <time>2023-11-19T09:30:04Z</time>
      </trkpt>
      <trkpt lat="43.02372" lon="0.18367">
        <ele>843.6</ele>
        <time>2023-11-19T09:30:05Z</time>
      </trkpt>
      <trkpt lat="43.02372" lon="0.18366">
        <ele>843.8</ele>
        <time>2023-11-19T09:30:06Z</time>
      </trkpt>
      <trkpt lat="43.02372" lon="0.18365">
        <ele>844</ele>
        <time>2023-11-19T09:30:07Z</time>
      </trkpt>
      <trkpt lat="43.02373" lon="0.18365">
        <ele>844.2</ele>
        <time>2023-11-19T09:30:08Z</time>
      </trkpt>
      <trkpt lat="43.02374" lon="0.18364">
        <ele>844.4</ele>
        <time>2023-11-19T09:30:09Z</time>
      </trkpt>
      <trkpt lat="43.02374" lon="0.18364">
        <ele>844.6</ele>
        <time>2023-11-19T09:30:10Z</time>
      </trkpt>
      <trkpt lat="43.02375" lon="0.18363">
        <ele>844.7</ele>
        <time>2023-11-19T09:30:11Z</time>
      </trkpt>
      <trkpt lat="43.02376" lon="0.18362">
        <ele>844.9</ele>
        <time>2023-11-19T09:30:12Z</time>
      </trkpt>
      <trkpt lat="43.02376" lon="0.18362">
        <ele>845</ele>
        <time>2023-11-19T09:30:13Z</time>
      </trkpt>
      <trkpt lat="43.02376" lon="0.18361">
        <ele>845.2</ele>
        <time>2023-11-19T09:30:14Z</time>
      </trkpt>
      <trkpt lat="43.02376" lon="0.18361">
        <ele>845.2</ele>
        <time>2023-11-19T09:30:15Z</time>
      </trkpt>
      <trkpt lat="43.02378" lon="0.18361">
        <ele>845.5</ele>
        <time>2023-11-19T09:30:16Z</time>
      </trkpt>
      <trkpt lat="43.02377" lon="0.1836">
        <ele>845.7</ele>
        <time>2023-11-19T09:30:17Z</time>
      </trkpt>
      <trkpt lat="43.02378" lon="0.18359">
        <ele>845.9</ele>
        <time>2023-11-19T09:30:18Z</time>
      </trkpt>
      <trkpt lat="43.02378" lon="0.18359">
        <ele>846</ele>
        <time>2023-11-19T09:30:19Z</time>
      </trkpt>
      <trkpt lat="43.02378" lon="0.18359">
        <ele>846.1</ele>
        <time>2023-11-19T09:30:20Z</time>
      </trkpt>
      <trkpt lat="43.02379" lon="0.18359">
        <ele>846.4</ele>
        <time>2023-11-19T09:30:21Z</time>
      </trkpt>
      <trkpt lat="43.02379" lon="0.18358">
        <ele>846.5</ele>
        <time>2023-11-19T09:30:22Z</time>
      </trkpt>
      <trkpt lat="43.0238" lon="0.18357">
        <ele>846.7</ele>
        <time>2023-11-19T09:30:23Z</time>
      </trkpt>
      <trkpt lat="43.0238" lon="0.18356">
        <ele>846.9</ele>
        <time>2023-11-19T09:30:24Z</time>
      </trkpt>
      <trkpt lat="43.02381" lon="0.18354">
        <ele>847.3</ele>
        <time>2023-11-19T09:30:25Z</time>
      </trkpt>
      <trkpt lat="43.02381" lon="0.18353">
        <ele>847.4</ele>
        <time>2023-11-19T09:30:26Z</time>
      </trkpt>
      <trkpt lat="43.02382" lon="0.18353">
        <ele>847.6</ele>
        <time>2023-11-19T09:30:27Z</time>
      </trkpt>
      <trkpt lat="43.02382" lon="0.18352">
        <ele>847.7</ele>
        <time>2023-11-19T09:30:28Z</time>
      </trkpt>
      <trkpt lat="43.02383" lon="0.18351">
        <ele>847.9</ele>
        <time>2023-11-19T09:30:29Z</time>
      </trkpt>
      <trkpt lat="43.02383" lon="0.1835">
        <ele>848.1</ele>
        <time>2023-11-19T09:30:30Z</time>
      </trkpt>
      <trkpt lat="43.02383" lon="0.18349">
        <ele>848.3</ele>
        <time>2023-11-19T09:30:31Z</time>
      </trkpt>
      <trkpt lat="43.02384" lon="0.18348">
        <ele>848.4</ele>
        <time>2023-11-19T09:30:32Z</time>
      </trkpt>
      <trkpt lat="43.02384" lon="0.18348">
        <ele>848.6</ele>
        <time>2023-11-19T09:30:33Z</time>
      </trkpt>
      <trkpt lat="43.02385" lon="0.18346">
        <ele>848.8</ele>
        <time>2023-11-19T09:30:34Z</time>
      </trkpt>
      <trkpt lat="43.02385" lon="0.18346">
        <ele>848.9</ele>
        <time>2023-11-19T09:30:35Z</time>
      </trkpt>
      <trkpt lat="43.02386" lon="0.18345">
        <ele>849.1</ele>
        <time>2023-11-19T09:30:36Z</time>
      </trkpt>
      <trkpt lat="43.02386" lon="0.18344">
        <ele>849.3</ele>
        <time>2023-11-19T09:30:37Z</time>
      </trkpt>
      <trkpt lat="43.02386" lon="0.18343">
        <ele>849.5</ele>
        <time>2023-11-19T09:30:38Z</time>
      </trkpt>
      <trkpt lat="43.02386" lon="0.18342">
        <ele>849.6</ele>
        <time>2023-11-19T09:30:39Z</time>
      </trkpt>
      <trkpt lat="43.02387" lon="0.18341">
        <ele>849.8</ele>
        <time>2023-11-19T09:30:40Z</time>
      </trkpt>
      <trkpt lat="43.02387" lon="0.18341">
        <ele>849.9</ele>
        <time>2023-11-19T09:30:41Z</time>
      </trkpt>
      <trkpt lat="43.02388" lon="0.1834">
        <ele>850</ele>
        <time>2023-11-19T09:30:42Z</time>
      </trkpt>
      <trkpt lat="43.02388" lon="0.1834">
        <ele>850.1</ele>
        <time>2023-11-19T09:30:43Z</time>
      </trkpt>
      <trkpt lat="43.02389" lon="0.18339">
        <ele>850.3</ele>
        <time>2023-11-19T09:30:44Z</time>
      </trkpt>
      <trkpt lat="43.02389" lon="0.18339">
        <ele>850.3</ele>
        <time>2023-11-19T09:30:45Z</time>
      </trkpt>
      <trkpt lat="43.02389" lon="0.18338">
        <ele>850.5</ele>
        <time>2023-11-19T09:30:46Z</time>
      </trkpt>
      <trkpt lat="43.0239" lon="0.18337">
        <ele>850.7</ele>
        <time>2023-11-19T09:30:47Z</time>
      </trkpt>
      <trkpt lat="43.0239" lon="0.18337">
        <ele>850.8</ele>
        <time>2023-11-19T09:30:48Z</time>
      </trkpt>
      <trkpt lat="43.0239" lon="0.18336">
        <ele>850.9</ele>
        <time>2023-11-19T09:30:49Z</time>
      </trkpt>
      <trkpt lat="43.0239" lon="0.18335">
        <ele>851</ele>
        <time>2023-11-19T09:30:50Z</time>
      </trkpt>
      <trkpt lat="43.02391" lon="0.18335">
        <ele>851.1</ele>
        <time>2023-11-19T09:30:51Z</time>
      </trkpt>
      <trkpt lat="43.02391" lon="0.18334">
        <ele>851.2</ele>
        <time>2023-11-19T09:30:52Z</time>
      </trkpt>
      <trkpt lat="43.02391" lon="0.18333">
        <ele>851.4</ele>
        <time>2023-11-19T09:30:53Z</time>
      </trkpt>
      <trkpt lat="43.02392" lon="0.18332">
        <ele>851.6</ele>
        <time>2023-11-19T09:30:54Z</time>
      </trkpt>
      <trkpt lat="43.02393" lon="0.18331">
        <ele>851.8</ele>
        <time>2023-11-19T09:30:55Z</time>
      </trkpt>
      <trkpt lat="43.02393" lon="0.1833">
        <ele>851.9</ele>
        <time>2023-11-19T09:30:56Z</time>
      </trkpt>
      <trkpt lat="43.02393" lon="0.18329">
        <ele>852.1</ele>
        <time>2023-11-19T09:30:57Z</time>
      </trkpt>
      <trkpt lat="43.02393" lon="0.18328">
        <ele>852.2</ele>
        <time>2023-11-19T09:30:58Z</time>
      </trkpt>
      <trkpt lat="43.02393" lon="0.18328">
        <ele>852.3</ele>
        <time>2023-11-19T09:30:59Z</time>
      </trkpt>
      <trkpt lat="43.02393" lon="0.18328">
        <ele>852.4</ele>
        <time>2023-11-19T09:31:00Z</time>
      </trkpt>
      <trkpt lat="43.02393" lon="0.18328">
        <ele>852.4</ele>
        <time>2023-11-19T09:31:01Z</time>
      </trkpt>
      <trkpt lat="43.02393" lon="0.18327">
        <ele>852.5</ele>
        <time>2023-11-19T09:31:02Z</time>
      </trkpt>
      <trkpt lat="43.02393" lon="0.18327">
        <ele>852.5</ele>
        <time>2023-11-19T09:31:03Z</time>
      </trkpt>
      <trkpt lat="43.02393" lon="0.18327">
        <ele>852.6</ele>
        <time>2023-11-19T09:31:04Z</time>
      </trkpt>
      <trkpt lat="43.02392" lon="0.18327">
        <ele>852.6</ele>
        <time>2023-11-19T09:31:05Z</time>
      </trkpt>
      <trkpt lat="43.02393" lon="0.18327">
        <ele>852.6</ele>
        <time>2023-11-19T09:31:06Z</time>
      </trkpt>
      <trkpt lat="43.02393" lon="0.18327">
        <ele>852.7</ele>
        <time>2023-11-19T09:31:07Z</time>
      </trkpt>
      <trkpt lat="43.02393" lon="0.18327">
        <ele>852.7</ele>
        <time>2023-11-19T09:31:08Z</time>
      </trkpt>
      <trkpt lat="43.02393" lon="0.18327">
        <ele>852.7</ele>
        <time>2023-11-19T09:31:09Z</time>
      </trkpt>
      <trkpt lat="43.02393" lon="0.18327">
        <ele>852.7</ele>
        <time>2023-11-19T09:31:10Z</time>
      </trkpt>
      <trkpt lat="43.02393" lon="0.18327">
        <ele>852.7</ele>
        <time>2023-11-19T09:31:11Z</time>
      </trkpt>
      <trkpt lat="43.02393" lon="0.18327">
        <ele>852.7</ele>
        <time>2023-11-19T09:31:12Z</time>
      </trkpt>
      <trkpt lat="43.02393" lon="0.18327">
        <ele>852.7</ele>
        <time>2023-11-19T09:31:13Z</time>
      </trkpt>
      <trkpt lat="43.02393" lon="0.18327">
        <ele>852.7</ele>
        <time>2023-11-19T09:31:14Z</time>
      </trkpt>
      <trkpt lat="43.02393" lon="0.18327">
        <ele>852.7</ele>
        <time>2023-11-19T09:31:15Z</time>
      </trkpt>
      <trkpt lat="43.02393" lon="0.18327">
        <ele>852.7</ele>
        <time>2023-11-19T09:31:16Z</time>
      </trkpt>
      <trkpt lat="43.02393" lon="0.18327">
        <ele>852.7</ele>
        <time>2023-11-19T09:31:17Z</time>
      </trkpt>
      <trkpt lat="43.02393" lon="0.18327">
        <ele>852.7</ele>
        <time>2023-11-19T09:31:18Z</time>
      </trkpt>
      <trkpt lat="43.02393" lon="0.18327">
        <ele>852.7</ele>
        <time>2023-11-19T09:31:19Z</time>
      </trkpt>
      <trkpt lat="43.02393" lon="0.18327">
        <ele>852.7</ele>
        <time>2023-11-19T09:31:20Z</time>
      </trkpt>
      <trkpt lat="43.02393" lon="0.18327">
        <ele>852.7</ele>
        <time>2023-11-19T09:31:21Z</time>
      </trkpt>
      <trkpt lat="43.02393" lon="0.18327">
        <ele>852.7</ele>
        <time>2023-11-19T09:31:22Z</time>
      </trkpt>
      <trkpt lat="43.02393" lon="0.18327">
        <ele>852.7</ele>
        <time>2023-11-19T09:31:23Z</time>
      </trkpt>
      <trkpt lat="43.02393" lon="0.18327">
        <ele>852.7</ele>
        <time>2023-11-19T09:31:24Z</time>
      </trkpt>
      <trkpt lat="43.02393" lon="0.18325">
        <ele>853</ele>
        <time>2023-11-19T09:31:25Z</time>
      </trkpt>
      <trkpt lat="43.02393" lon="0.18325">
        <ele>853</ele>
        <time>2023-11-19T09:31:26Z</time>
      </trkpt>
      <trkpt lat="43.02393" lon="0.18325">
        <ele>853</ele>
        <time>2023-11-19T09:31:27Z</time>
      </trkpt>
      <trkpt lat="43.02393" lon="0.18325">
        <ele>853</ele>
        <time>2023-11-19T09:31:28Z</time>
      </trkpt>
      <trkpt lat="43.02393" lon="0.18325">
        <ele>853</ele>
        <time>2023-11-19T09:31:29Z</time>
      </trkpt>
      <trkpt lat="43.02393" lon="0.18325">
        <ele>853</ele>
        <time>2023-11-19T09:31:30Z</time>
      </trkpt>
      <trkpt lat="43.02393" lon="0.18325">
        <ele>853</ele>
        <time>2023-11-19T09:31:31Z</time>
      </trkpt>
      <trkpt lat="43.02393" lon="0.18325">
        <ele>853</ele>
        <time>2023-11-19T09:31:32Z</time>
      </trkpt>
      <trkpt lat="43.02393" lon="0.18325">
        <ele>853</ele>
        <time>2023-11-19T09:31:33Z</time>
      </trkpt>
      <trkpt lat="43.02393" lon="0.18325">
        <ele>853</ele>
        <time>2023-11-19T09:31:34Z</time>
      </trkpt>
      <trkpt lat="43.02393" lon="0.18325">
        <ele>853.1</ele>
        <time>2023-11-19T09:31:35Z</time>
      </trkpt>
      <trkpt lat="43.02393" lon="0.18325">
        <ele>853.1</ele>
        <time>2023-11-19T09:31:36Z</time>
      </trkpt>
      <trkpt lat="43.02393" lon="0.18325">
        <ele>853.1</ele>
        <time>2023-11-19T09:31:37Z</time>
      </trkpt>
      <trkpt lat="43.02393" lon="0.18325">
        <ele>853.1</ele>
        <time>2023-11-19T09:31:38Z</time>
      </trkpt>
      <trkpt lat="43.02393" lon="0.18324">
        <ele>853.2</ele>
        <time>2023-11-19T09:31:39Z</time>
      </trkpt>
      <trkpt lat="43.02393" lon="0.18324">
        <ele>853.2</ele>
        <time>2023-11-19T09:31:40Z</time>
      </trkpt>
      <trkpt lat="43.02395" lon="0.18327">
        <ele>853.7</ele>
        <time>2023-11-19T09:31:41Z</time>
      </trkpt>
      <trkpt lat="43.02394" lon="0.18325">
        <ele>854.1</ele>
        <time>2023-11-19T09:31:42Z</time>
      </trkpt>
      <trkpt lat="43.02393" lon="0.18325">
        <ele>854.2</ele>
        <time>2023-11-19T09:31:43Z</time>
      </trkpt>
      <trkpt lat="43.02393" lon="0.18325">
        <ele>854.2</ele>
        <time>2023-11-19T09:31:44Z</time>
      </trkpt>
      <trkpt lat="43.02393" lon="0.18325">
        <ele>854.3</ele>
        <time>2023-11-19T09:31:45Z</time>
      </trkpt>
      <trkpt lat="43.02393" lon="0.18325">
        <ele>854.4</ele>
        <time>2023-11-19T09:31:46Z</time>
      </trkpt>
      <trkpt lat="43.02393" lon="0.18325">
        <ele>854.4</ele>
        <time>2023-11-19T09:31:47Z</time>
      </trkpt>
      <trkpt lat="43.02393" lon="0.18325">
        <ele>854.5</ele>
        <time>2023-11-19T09:31:48Z</time>
      </trkpt>
      <trkpt lat="43.02393" lon="0.18325">
        <ele>854.6</ele>
        <time>2023-11-19T09:31:49Z</time>
      </trkpt>
      <trkpt lat="43.02393" lon="0.18324">
        <ele>854.7</ele>
        <time>2023-11-19T09:31:50Z</time>
      </trkpt>
      <trkpt lat="43.02393" lon="0.18324">
        <ele>854.7</ele>
        <time>2023-11-19T09:31:51Z</time>
      </trkpt>
      <trkpt lat="43.02394" lon="0.18324">
        <ele>854.8</ele>
        <time>2023-11-19T09:31:52Z</time>
      </trkpt>
      <trkpt lat="43.02394" lon="0.18323">
        <ele>855</ele>
        <time>2023-11-19T09:31:53Z</time>
      </trkpt>
      <trkpt lat="43.02395" lon="0.18322">
        <ele>855.1</ele>
        <time>2023-11-19T09:31:54Z</time>
      </trkpt>
      <trkpt lat="43.02395" lon="0.18321">
        <ele>855.2</ele>
        <time>2023-11-19T09:31:55Z</time>
      </trkpt>
      <trkpt lat="43.02395" lon="0.1832">
        <ele>855.3</ele>
        <time>2023-11-19T09:31:56Z</time>
      </trkpt>
      <trkpt lat="43.02395" lon="0.1832">
        <ele>855.5</ele>
        <time>2023-11-19T09:31:57Z</time>
      </trkpt>
      <trkpt lat="43.02396" lon="0.18318">
        <ele>855.6</ele>
        <time>2023-11-19T09:31:58Z</time>
      </trkpt>
      <trkpt lat="43.02396" lon="0.18318">
        <ele>855.7</ele>
        <time>2023-11-19T09:31:59Z</time>
      </trkpt>
      <trkpt lat="43.02396" lon="0.18317">
        <ele>855.9</ele>
        <time>2023-11-19T09:32:00Z</time>
      </trkpt>
      <trkpt lat="43.02397" lon="0.18316">
        <ele>856</ele>
        <time>2023-11-19T09:32:01Z</time>
      </trkpt>
      <trkpt lat="43.02397" lon="0.18316">
        <ele>856.1</ele>
        <time>2023-11-19T09:32:02Z</time>
      </trkpt>
      <trkpt lat="43.02397" lon="0.18316">
        <ele>856.1</ele>
        <time>2023-11-19T09:32:03Z</time>
      </trkpt>
      <trkpt lat="43.02397" lon="0.18315">
        <ele>856.3</ele>
        <time>2023-11-19T09:32:04Z</time>
      </trkpt>
      <trkpt lat="43.02398" lon="0.18314">
        <ele>856.4</ele>
        <time>2023-11-19T09:32:05Z</time>
      </trkpt>
      <trkpt lat="43.02398" lon="0.18314">
        <ele>856.5</ele>
        <time>2023-11-19T09:32:06Z</time>
      </trkpt>
      <trkpt lat="43.02399" lon="0.18314">
        <ele>856.6</ele>
        <time>2023-11-19T09:32:07Z</time>
      </trkpt>
      <trkpt lat="43.02399" lon="0.18313">
        <ele>856.7</ele>
        <time>2023-11-19T09:32:08Z</time>
      </trkpt>
      <trkpt lat="43.02399" lon="0.18313">
        <ele>856.7</ele>
        <time>2023-11-19T09:32:09Z</time>
      </trkpt>
      <trkpt lat="43.024" lon="0.18312">
        <ele>856.9</ele>
        <time>2023-11-19T09:32:10Z</time>
      </trkpt>
      <trkpt lat="43.024" lon="0.18312">
        <ele>857</ele>
        <time>2023-11-19T09:32:11Z</time>
      </trkpt>
      <trkpt lat="43.024" lon="0.18311">
        <ele>857.1</ele>
        <time>2023-11-19T09:32:12Z</time>
      </trkpt>
      <trkpt lat="43.024" lon="0.18311">
        <ele>857.2</ele>
        <time>2023-11-19T09:32:13Z</time>
      </trkpt>
      <trkpt lat="43.02401" lon="0.1831">
        <ele>857.4</ele>
        <time>2023-11-19T09:32:14Z</time>
      </trkpt>
      <trkpt lat="43.02402" lon="0.18309">
        <ele>857.6</ele>
        <time>2023-11-19T09:32:15Z</time>
      </trkpt>
      <trkpt lat="43.02401" lon="0.18309">
        <ele>857.8</ele>
        <time>2023-11-19T09:32:16Z</time>
      </trkpt>
      <trkpt lat="43.02402" lon="0.18308">
        <ele>857.9</ele>
        <time>2023-11-19T09:32:17Z</time>
      </trkpt>
      <trkpt lat="43.02402" lon="0.18308">
        <ele>858</ele>
        <time>2023-11-19T09:32:18Z</time>
      </trkpt>
      <trkpt lat="43.02403" lon="0.18307">
        <ele>858.1</ele>
        <time>2023-11-19T09:32:19Z</time>
      </trkpt>
      <trkpt lat="43.02403" lon="0.18307">
        <ele>858.2</ele>
        <time>2023-11-19T09:32:20Z</time>
      </trkpt>
      <trkpt lat="43.02403" lon="0.18307">
        <ele>858.3</ele>
        <time>2023-11-19T09:32:21Z</time>
      </trkpt>
      <trkpt lat="43.02403" lon="0.18306">
        <ele>858.3</ele>
        <time>2023-11-19T09:32:22Z</time>
      </trkpt>
      <trkpt lat="43.02404" lon="0.18305">
        <ele>858.5</ele>
        <time>2023-11-19T09:32:23Z</time>
      </trkpt>
      <trkpt lat="43.02404" lon="0.18305">
        <ele>858.6</ele>
        <time>2023-11-19T09:32:24Z</time>
      </trkpt>
      <trkpt lat="43.02404" lon="0.18304">
        <ele>858.8</ele>
        <time>2023-11-19T09:32:25Z</time>
      </trkpt>
      <trkpt lat="43.02404" lon="0.18302">
        <ele>859</ele>
        <time>2023-11-19T09:32:26Z</time>
      </trkpt>
      <trkpt lat="43.02404" lon="0.18302">
        <ele>859</ele>
        <time>2023-11-19T09:32:27Z</time>
      </trkpt>
      <trkpt lat="43.02405" lon="0.18303">
        <ele>859.1</ele>
        <time>2023-11-19T09:32:28Z</time>
      </trkpt>
      <trkpt lat="43.02405" lon="0.18302">
        <ele>859.3</ele>
        <time>2023-11-19T09:32:29Z</time>
      </trkpt>
      <trkpt lat="43.02406" lon="0.18301">
        <ele>859.5</ele>
        <time>2023-11-19T09:32:30Z</time>
      </trkpt>
      <trkpt lat="43.02406" lon="0.183">
        <ele>859.6</ele>
        <time>2023-11-19T09:32:31Z</time>
      </trkpt>
      <trkpt lat="43.02407" lon="0.183">
        <ele>859.7</ele>
        <time>2023-11-19T09:32:32Z</time>
      </trkpt>
      <trkpt lat="43.02407" lon="0.183">
        <ele>859.8</ele>
        <time>2023-11-19T09:32:33Z</time>
      </trkpt>
      <trkpt lat="43.02408" lon="0.183">
        <ele>860</ele>
        <time>2023-11-19T09:32:34Z</time>
      </trkpt>
      <trkpt lat="43.02409" lon="0.183">
        <ele>860.2</ele>
        <time>2023-11-19T09:32:35Z</time>
      </trkpt>
      <trkpt lat="43.02409" lon="0.18299">
        <ele>860.3</ele>
        <time>2023-11-19T09:32:36Z</time>
      </trkpt>
      <trkpt lat="43.0241" lon="0.18298">
        <ele>860.4</ele>
        <time>2023-11-19T09:32:37Z</time>
      </trkpt>
      <trkpt lat="43.0241" lon="0.18298">
        <ele>860.5</ele>
        <time>2023-11-19T09:32:38Z</time>
      </trkpt>
      <trkpt lat="43.0241" lon="0.18298">
        <ele>860.6</ele>
        <time>2023-11-19T09:32:39Z</time>
      </trkpt>
      <trkpt lat="43.0241" lon="0.18298">
        <ele>860.6</ele>
        <time>2023-11-19T09:32:40Z</time>
      </trkpt>
      <trkpt lat="43.0241" lon="0.18297">
        <ele>860.7</ele>
        <time>2023-11-19T09:32:41Z</time>
      </trkpt>
      <trkpt lat="43.02411" lon="0.18296">
        <ele>860.9</ele>
        <time>2023-11-19T09:32:42Z</time>
      </trkpt>
      <trkpt lat="43.02411" lon="0.18295">
        <ele>861.2</ele>
        <time>2023-11-19T09:32:43Z</time>
      </trkpt>
      <trkpt lat="43.02412" lon="0.18294">
        <ele>861.4</ele>
        <time>2023-11-19T09:32:44Z</time>
      </trkpt>
      <trkpt lat="43.02412" lon="0.18293">
        <ele>861.5</ele>
        <time>2023-11-19T09:32:45Z</time>
      </trkpt>
      <trkpt lat="43.02412" lon="0.18292">
        <ele>861.6</ele>
        <time>2023-11-19T09:32:46Z</time>
      </trkpt>
      <trkpt lat="43.02413" lon="0.18292">
        <ele>861.8</ele>
        <time>2023-11-19T09:32:47Z</time>
      </trkpt>
      <trkpt lat="43.02412" lon="0.18291">
        <ele>862</ele>
        <time>2023-11-19T09:32:48Z</time>
      </trkpt>
      <trkpt lat="43.02412" lon="0.1829">
        <ele>862.1</ele>
        <time>2023-11-19T09:32:49Z</time>
      </trkpt>
      <trkpt lat="43.02411" lon="0.18289">
        <ele>862.3</ele>
        <time>2023-11-19T09:32:50Z</time>
      </trkpt>
      <trkpt lat="43.02411" lon="0.18289">
        <ele>862.4</ele>
        <time>2023-11-19T09:32:51Z</time>
      </trkpt>
      <trkpt lat="43.02411" lon="0.18287">
        <ele>862.6</ele>
        <time>2023-11-19T09:32:52Z</time>
      </trkpt>
      <trkpt lat="43.02412" lon="0.18287">
        <ele>862.7</ele>
        <time>2023-11-19T09:32:53Z</time>
      </trkpt>
      <trkpt lat="43.02412" lon="0.18286">
        <ele>862.9</ele>
        <time>2023-11-19T09:32:54Z</time>
      </trkpt>
      <trkpt lat="43.02411" lon="0.18286">
        <ele>863</ele>
        <time>2023-11-19T09:32:55Z</time>
      </trkpt>
      <trkpt lat="43.02412" lon="0.18285">
        <ele>863.1</ele>
        <time>2023-11-19T09:32:56Z</time>
      </trkpt>
      <trkpt lat="43.02412" lon="0.18286">
        <ele>863.2</ele>
        <time>2023-11-19T09:32:57Z</time>
      </trkpt>
      <trkpt lat="43.02413" lon="0.18285">
        <ele>863.4</ele>
        <time>2023-11-19T09:32:58Z</time>
      </trkpt>
      <trkpt lat="43.02413" lon="0.18284">
        <ele>863.5</ele>
        <time>2023-11-19T09:32:59Z</time>
      </trkpt>
      <trkpt lat="43.02414" lon="0.18284">
        <ele>863.7</ele>
        <time>2023-11-19T09:33:00Z</time>
      </trkpt>
      <trkpt lat="43.02415" lon="0.18283">
        <ele>864</ele>
        <time>2023-11-19T09:33:01Z</time>
      </trkpt>
      <trkpt lat="43.02415" lon="0.18283">
        <ele>864.1</ele>
        <time>2023-11-19T09:33:02Z</time>
      </trkpt>
      <trkpt lat="43.02416" lon="0.18283">
        <ele>864.2</ele>
        <time>2023-11-19T09:33:03Z</time>
      </trkpt>
      <trkpt lat="43.02416" lon="0.18282">
        <ele>864.3</ele>
        <time>2023-11-19T09:33:04Z</time>
      </trkpt>
      <trkpt lat="43.02416" lon="0.18281">
        <ele>864.6</ele>
        <time>2023-11-19T09:33:05Z</time>
      </trkpt>
      <trkpt lat="43.02416" lon="0.1828">
        <ele>864.7</ele>
        <time>2023-11-19T09:33:06Z</time>
      </trkpt>
      <trkpt lat="43.02417" lon="0.18279">
        <ele>864.9</ele>
        <time>2023-11-19T09:33:07Z</time>
      </trkpt>
      <trkpt lat="43.02417" lon="0.18279">
        <ele>865</ele>
        <time>2023-11-19T09:33:08Z</time>
      </trkpt>
      <trkpt lat="43.02417" lon="0.18278">
        <ele>865.1</ele>
        <time>2023-11-19T09:33:09Z</time>
      </trkpt>
      <trkpt lat="43.02418" lon="0.18277">
        <ele>865.3</ele>
        <time>2023-11-19T09:33:10Z</time>
      </trkpt>
      <trkpt lat="43.02418" lon="0.18277">
        <ele>865.4</ele>
        <time>2023-11-19T09:33:11Z</time>
      </trkpt>
      <trkpt lat="43.02418" lon="0.18276">
        <ele>865.5</ele>
        <time>2023-11-19T09:33:12Z</time>
      </trkpt>
      <trkpt lat="43.02418" lon="0.18276">
        <ele>865.6</ele>
        <time>2023-11-19T09:33:13Z</time>
      </trkpt>
      <trkpt lat="43.02418" lon="0.18276">
        <ele>865.6</ele>
        <time>2023-11-19T09:33:14Z</time>
      </trkpt>
      <trkpt lat="43.02418" lon="0.18276">
        <ele>865.7</ele>
        <time>2023-11-19T09:33:15Z</time>
      </trkpt>
      <trkpt lat="43.02419" lon="0.18276">
        <ele>865.8</ele>
        <time>2023-11-19T09:33:16Z</time>
      </trkpt>
      <trkpt lat="43.02419" lon="0.18275">
        <ele>866.1</ele>
        <time>2023-11-19T09:33:17Z</time>
      </trkpt>
      <trkpt lat="43.0242" lon="0.18276">
        <ele>866.2</ele>
        <time>2023-11-19T09:33:18Z</time>
      </trkpt>
      <trkpt lat="43.0242" lon="0.18277">
        <ele>866.3</ele>
        <time>2023-11-19T09:33:19Z</time>
      </trkpt>
      <trkpt lat="43.0242" lon="0.18277">
        <ele>866.5</ele>
        <time>2023-11-19T09:33:20Z</time>
      </trkpt>
      <trkpt lat="43.0242" lon="0.18277">
        <ele>866.5</ele>
        <time>2023-11-19T09:33:21Z</time>
      </trkpt>
      <trkpt lat="43.0242" lon="0.18278">
        <ele>866.6</ele>
        <time>2023-11-19T09:33:22Z</time>
      </trkpt>
      <trkpt lat="43.0242" lon="0.18278">
        <ele>866.7</ele>
        <time>2023-11-19T09:33:23Z</time>
      </trkpt>
      <trkpt lat="43.0242" lon="0.18278">
        <ele>866.7</ele>
        <time>2023-11-19T09:33:24Z</time>
      </trkpt>
      <trkpt lat="43.02421" lon="0.18279">
        <ele>866.9</ele>
        <time>2023-11-19T09:33:25Z</time>
      </trkpt>
      <trkpt lat="43.02421" lon="0.18279">
        <ele>867</ele>
        <time>2023-11-19T09:33:26Z</time>
      </trkpt>
      <trkpt lat="43.02421" lon="0.1828">
        <ele>867.1</ele>
        <time>2023-11-19T09:33:27Z</time>
      </trkpt>
      <trkpt lat="43.02422" lon="0.18281">
        <ele>867.3</ele>
        <time>2023-11-19T09:33:28Z</time>
      </trkpt>
      <trkpt lat="43.02422" lon="0.18281">
        <ele>867.5</ele>
        <time>2023-11-19T09:33:29Z</time>
      </trkpt>
      <trkpt lat="43.02422" lon="0.18282">
        <ele>867.6</ele>
        <time>2023-11-19T09:33:30Z</time>
      </trkpt>
      <trkpt lat="43.02423" lon="0.18283">
        <ele>867.8</ele>
        <time>2023-11-19T09:33:31Z</time>
      </trkpt>
      <trkpt lat="43.02423" lon="0.18283">
        <ele>867.8</ele>
        <time>2023-11-19T09:33:32Z</time>
      </trkpt>
      <trkpt lat="43.02423" lon="0.18283">
        <ele>867.9</ele>
        <time>2023-11-19T09:33:33Z</time>
      </trkpt>
      <trkpt lat="43.02423" lon="0.18283">
        <ele>868</ele>
        <time>2023-11-19T09:33:34Z</time>
      </trkpt>
      <trkpt lat="43.02424" lon="0.18284">
        <ele>868.3</ele>
        <time>2023-11-19T09:33:35Z</time>
      </trkpt>
      <trkpt lat="43.02424" lon="0.18283">
        <ele>868.4</ele>
        <time>2023-11-19T09:33:36Z</time>
      </trkpt>
      <trkpt lat="43.02424" lon="0.18283">
        <ele>868.4</ele>
        <time>2023-11-19T09:33:37Z</time>
      </trkpt>
      <trkpt lat="43.02425" lon="0.18283">
        <ele>868.6</ele>
        <time>2023-11-19T09:33:38Z</time>
      </trkpt>
      <trkpt lat="43.02425" lon="0.18282">
        <ele>868.8</ele>
        <time>2023-11-19T09:33:39Z</time>
      </trkpt>
      <trkpt lat="43.02425" lon="0.18282">
        <ele>868.9</ele>
        <time>2023-11-19T09:33:40Z</time>
      </trkpt>
      <trkpt lat="43.02425" lon="0.18282">
        <ele>869</ele>
        <time>2023-11-19T09:33:41Z</time>
      </trkpt>
      <trkpt lat="43.02426" lon="0.18281">
        <ele>869.2</ele>
        <time>2023-11-19T09:33:42Z</time>
      </trkpt>
      <trkpt lat="43.02426" lon="0.18281">
        <ele>869.3</ele>
        <time>2023-11-19T09:33:43Z</time>
      </trkpt>
      <trkpt lat="43.02426" lon="0.18279">
        <ele>869.7</ele>
        <time>2023-11-19T09:33:44Z</time>
      </trkpt>
      <trkpt lat="43.02426" lon="0.18279">
        <ele>869.7</ele>
        <time>2023-11-19T09:33:45Z</time>
      </trkpt>
      <trkpt lat="43.02426" lon="0.18279">
        <ele>869.7</ele>
        <time>2023-11-19T09:33:46Z</time>
      </trkpt>
      <trkpt lat="43.02426" lon="0.18279">
        <ele>869.9</ele>
        <time>2023-11-19T09:33:47Z</time>
      </trkpt>
      <trkpt lat="43.02427" lon="0.18277">
        <ele>870.2</ele>
        <time>2023-11-19T09:33:48Z</time>
      </trkpt>
      <trkpt lat="43.02427" lon="0.18277">
        <ele>870.4</ele>
        <time>2023-11-19T09:33:49Z</time>
      </trkpt>
      <trkpt lat="43.02427" lon="0.18276">
        <ele>870.5</ele>
        <time>2023-11-19T09:33:50Z</time>
      </trkpt>
      <trkpt lat="43.02427" lon="0.18275">
        <ele>870.8</ele>
        <time>2023-11-19T09:33:51Z</time>
      </trkpt>
      <trkpt lat="43.02428" lon="0.18274">
        <ele>871</ele>
        <time>2023-11-19T09:33:52Z</time>
      </trkpt>
      <trkpt lat="43.02428" lon="0.18273">
        <ele>871.2</ele>
        <time>2023-11-19T09:33:53Z</time>
      </trkpt>
      <trkpt lat="43.02428" lon="0.18272">
        <ele>871.5</ele>
        <time>2023-11-19T09:33:54Z</time>
      </trkpt>
      <trkpt lat="43.02429" lon="0.18271">
        <ele>871.7</ele>
        <time>2023-11-19T09:33:55Z</time>
      </trkpt>
      <trkpt lat="43.02429" lon="0.1827">
        <ele>871.9</ele>
        <time>2023-11-19T09:33:56Z</time>
      </trkpt>
      <trkpt lat="43.0243" lon="0.18269">
        <ele>872.2</ele>
        <time>2023-11-19T09:33:57Z</time>
      </trkpt>
      <trkpt lat="43.0243" lon="0.18268">
        <ele>872.3</ele>
        <time>2023-11-19T09:33:58Z</time>
      </trkpt>
      <trkpt lat="43.0243" lon="0.18268">
        <ele>872.5</ele>
        <time>2023-11-19T09:33:59Z</time>
      </trkpt>
      <trkpt lat="43.0243" lon="0.18267">
        <ele>872.6</ele>
        <time>2023-11-19T09:34:00Z</time>
      </trkpt>
      <trkpt lat="43.0243" lon="0.18266">
        <ele>872.8</ele>
        <time>2023-11-19T09:34:01Z</time>
      </trkpt>
      <trkpt lat="43.0243" lon="0.18265">
        <ele>872.9</ele>
        <time>2023-11-19T09:34:02Z</time>
      </trkpt>
      <trkpt lat="43.0243" lon="0.18265">
        <ele>873</ele>
        <time>2023-11-19T09:34:03Z</time>
      </trkpt>
      <trkpt lat="43.02431" lon="0.18264">
        <ele>873.2</ele>
        <time>2023-11-19T09:34:04Z</time>
      </trkpt>
      <trkpt lat="43.0243" lon="0.18264">
        <ele>873.3</ele>
        <time>2023-11-19T09:34:05Z</time>
      </trkpt>
      <trkpt lat="43.02431" lon="0.18263">
        <ele>873.5</ele>
        <time>2023-11-19T09:34:06Z</time>
      </trkpt>
      <trkpt lat="43.02431" lon="0.18261">
        <ele>873.7</ele>
        <time>2023-11-19T09:34:07Z</time>
      </trkpt>
      <trkpt lat="43.02431" lon="0.18261">
        <ele>873.9</ele>
        <time>2023-11-19T09:34:08Z</time>
      </trkpt>
      <trkpt lat="43.02432" lon="0.1826">
        <ele>874.1</ele>
        <time>2023-11-19T09:34:09Z</time>
      </trkpt>
      <trkpt lat="43.02431" lon="0.18259">
        <ele>874.2</ele>
        <time>2023-11-19T09:34:10Z</time>
      </trkpt>
      <trkpt lat="43.02431" lon="0.18259">
        <ele>874.3</ele>
        <time>2023-11-19T09:34:11Z</time>
      </trkpt>
      <trkpt lat="43.02432" lon="0.18257">
        <ele>874.6</ele>
        <time>2023-11-19T09:34:12Z</time>
      </trkpt>
      <trkpt lat="43.02433" lon="0.18256">
        <ele>874.8</ele>
        <time>2023-11-19T09:34:13Z</time>
      </trkpt>
      <trkpt lat="43.02432" lon="0.18255">
        <ele>874.9</ele>
        <time>2023-11-19T09:34:14Z</time>
      </trkpt>
      <trkpt lat="43.02432" lon="0.18254">
        <ele>875.2</ele>
        <time>2023-11-19T09:34:15Z</time>
      </trkpt>
      <trkpt lat="43.02433" lon="0.18252">
        <ele>875.4</ele>
        <time>2023-11-19T09:34:16Z</time>
      </trkpt>
      <trkpt lat="43.02433" lon="0.18251">
        <ele>875.6</ele>
        <time>2023-11-19T09:34:17Z</time>
      </trkpt>
      <trkpt lat="43.02433" lon="0.18251">
        <ele>875.7</ele>
        <time>2023-11-19T09:34:18Z</time>
      </trkpt>
      <trkpt lat="43.02433" lon="0.1825">
        <ele>875.8</ele>
        <time>2023-11-19T09:34:19Z</time>
      </trkpt>
      <trkpt lat="43.02434" lon="0.18249">
        <ele>876</ele>
        <time>2023-11-19T09:34:20Z</time>
      </trkpt>
      <trkpt lat="43.02434" lon="0.18247">
        <ele>876.2</ele>
        <time>2023-11-19T09:34:21Z</time>
      </trkpt>
      <trkpt lat="43.02434" lon="0.18246">
        <ele>876.3</ele>
        <time>2023-11-19T09:34:22Z</time>
      </trkpt>
      <trkpt lat="43.02434" lon="0.18246">
        <ele>876.4</ele>
        <time>2023-11-19T09:34:23Z</time>
      </trkpt>
      <trkpt lat="43.02434" lon="0.18244">
        <ele>876.6</ele>
        <time>2023-11-19T09:34:24Z</time>
      </trkpt>
      <trkpt lat="43.02434" lon="0.18243">
        <ele>876.8</ele>
        <time>2023-11-19T09:34:25Z</time>
      </trkpt>
      <trkpt lat="43.02434" lon="0.18243">
        <ele>876.9</ele>
        <time>2023-11-19T09:34:26Z</time>
      </trkpt>
      <trkpt lat="43.02434" lon="0.18241">
        <ele>877.1</ele>
        <time>2023-11-19T09:34:27Z</time>
      </trkpt>
      <trkpt lat="43.02434" lon="0.18241">
        <ele>877.1</ele>
        <time>2023-11-19T09:34:28Z</time>
      </trkpt>
      <trkpt lat="43.02434" lon="0.18241">
        <ele>877.1</ele>
        <time>2023-11-19T09:34:29Z</time>
      </trkpt>
      <trkpt lat="43.02434" lon="0.18239">
        <ele>877.3</ele>
        <time>2023-11-19T09:34:30Z</time>
      </trkpt>
      <trkpt lat="43.02434" lon="0.18239">
        <ele>877.4</ele>
        <time>2023-11-19T09:34:31Z</time>
      </trkpt>
      <trkpt lat="43.02435" lon="0.18237">
        <ele>877.6</ele>
        <time>2023-11-19T09:34:32Z</time>
      </trkpt>
      <trkpt lat="43.02435" lon="0.18236">
        <ele>877.7</ele>
        <time>2023-11-19T09:34:33Z</time>
      </trkpt>
      <trkpt lat="43.02434" lon="0.18235">
        <ele>877.9</ele>
        <time>2023-11-19T09:34:34Z</time>
      </trkpt>
      <trkpt lat="43.02435" lon="0.18233">
        <ele>878.1</ele>
        <time>2023-11-19T09:34:35Z</time>
      </trkpt>
      <trkpt lat="43.02435" lon="0.18232">
        <ele>878.2</ele>
        <time>2023-11-19T09:34:36Z</time>
      </trkpt>
      <trkpt lat="43.02435" lon="0.18231">
        <ele>878.3</ele>
        <time>2023-11-19T09:34:37Z</time>
      </trkpt>
      <trkpt lat="43.02435" lon="0.1823">
        <ele>878.4</ele>
        <time>2023-11-19T09:34:38Z</time>
      </trkpt>
      <trkpt lat="43.02435" lon="0.18229">
        <ele>878.5</ele>
        <time>2023-11-19T09:34:39Z</time>
      </trkpt>
      <trkpt lat="43.02436" lon="0.18228">
        <ele>878.7</ele>
        <time>2023-11-19T09:34:40Z</time>
      </trkpt>
      <trkpt lat="43.02436" lon="0.18227">
        <ele>878.8</ele>
        <time>2023-11-19T09:34:41Z</time>
      </trkpt>
      <trkpt lat="43.02436" lon="0.18227">
        <ele>878.8</ele>
        <time>2023-11-19T09:34:42Z</time>
      </trkpt>
      <trkpt lat="43.02436" lon="0.18226">
        <ele>879</ele>
        <time>2023-11-19T09:34:43Z</time>
      </trkpt>
      <trkpt lat="43.02437" lon="0.18224">
        <ele>879.3</ele>
        <time>2023-11-19T09:34:44Z</time>
      </trkpt>
      <trkpt lat="43.02437" lon="0.18223">
        <ele>879.3</ele>
        <time>2023-11-19T09:34:45Z</time>
      </trkpt>
      <trkpt lat="43.02437" lon="0.18222">
        <ele>879.4</ele>
        <time>2023-11-19T09:34:46Z</time>
      </trkpt>
      <trkpt lat="43.02437" lon="0.18222">
        <ele>879.5</ele>
        <time>2023-11-19T09:34:47Z</time>
      </trkpt>
      <trkpt lat="43.02437" lon="0.18221">
        <ele>879.6</ele>
        <time>2023-11-19T09:34:48Z</time>
      </trkpt>
      <trkpt lat="43.02437" lon="0.1822">
        <ele>879.8</ele>
        <time>2023-11-19T09:34:49Z</time>
      </trkpt>
      <trkpt lat="43.02437" lon="0.18219">
        <ele>879.9</ele>
        <time>2023-11-19T09:34:50Z</time>
      </trkpt>
      <trkpt lat="43.02437" lon="0.18218">
        <ele>880</ele>
        <time>2023-11-19T09:34:51Z</time>
      </trkpt>
      <trkpt lat="43.02437" lon="0.18216">
        <ele>880.2</ele>
        <time>2023-11-19T09:34:52Z</time>
      </trkpt>
      <trkpt lat="43.02437" lon="0.18215">
        <ele>880.3</ele>
        <time>2023-11-19T09:34:53Z</time>
      </trkpt>
      <trkpt lat="43.02438" lon="0.18214">
        <ele>880.4</ele>
        <time>2023-11-19T09:34:54Z</time>
      </trkpt>
      <trkpt lat="43.02438" lon="0.18213">
        <ele>880.6</ele>
        <time>2023-11-19T09:34:55Z</time>
      </trkpt>
      <trkpt lat="43.02438" lon="0.18212">
        <ele>880.7</ele>
        <time>2023-11-19T09:34:56Z</time>
      </trkpt>
      <trkpt lat="43.02438" lon="0.18211">
        <ele>880.8</ele>
        <time>2023-11-19T09:34:57Z</time>
      </trkpt>
      <trkpt lat="43.02438" lon="0.1821">
        <ele>881</ele>
        <time>2023-11-19T09:34:58Z</time>
      </trkpt>
      <trkpt lat="43.02439" lon="0.18209">
        <ele>881.2</ele>
        <time>2023-11-19T09:34:59Z</time>
      </trkpt>
      <trkpt lat="43.02438" lon="0.18208">
        <ele>881.3</ele>
        <time>2023-11-19T09:35:00Z</time>
      </trkpt>
      <trkpt lat="43.02438" lon="0.18207">
        <ele>881.4</ele>
        <time>2023-11-19T09:35:01Z</time>
      </trkpt>
      <trkpt lat="43.02439" lon="0.18206">
        <ele>881.5</ele>
        <time>2023-11-19T09:35:02Z</time>
      </trkpt>
      <trkpt lat="43.02439" lon="0.18206">
        <ele>881.6</ele>
        <time>2023-11-19T09:35:03Z</time>
      </trkpt>
      <trkpt lat="43.02439" lon="0.18205">
        <ele>881.8</ele>
        <time>2023-11-19T09:35:04Z</time>
      </trkpt>
      <trkpt lat="43.02439" lon="0.18204">
        <ele>881.9</ele>
        <time>2023-11-19T09:35:05Z</time>
      </trkpt>
      <trkpt lat="43.02439" lon="0.18204">
        <ele>882</ele>
        <time>2023-11-19T09:35:06Z</time>
      </trkpt>
      <trkpt lat="43.02439" lon="0.18203">
        <ele>882.1</ele>
        <time>2023-11-19T09:35:07Z</time>
      </trkpt>
      <trkpt lat="43.02439" lon="0.18202">
        <ele>882.2</ele>
        <time>2023-11-19T09:35:08Z</time>
      </trkpt>
      <trkpt lat="43.02439" lon="0.18202">
        <ele>882.3</ele>
        <time>2023-11-19T09:35:09Z</time>
      </trkpt>
      <trkpt lat="43.0244" lon="0.18201">
        <ele>882.4</ele>
        <time>2023-11-19T09:35:10Z</time>
      </trkpt>
      <trkpt lat="43.0244" lon="0.182">
        <ele>882.4</ele>
        <time>2023-11-19T09:35:11Z</time>
      </trkpt>
      <trkpt lat="43.0244" lon="0.182">
        <ele>882.5</ele>
        <time>2023-11-19T09:35:12Z</time>
      </trkpt>
      <trkpt lat="43.0244" lon="0.18199">
        <ele>882.6</ele>
        <time>2023-11-19T09:35:13Z</time>
      </trkpt>
      <trkpt lat="43.0244" lon="0.18197">
        <ele>882.8</ele>
        <time>2023-11-19T09:35:14Z</time>
      </trkpt>
      <trkpt lat="43.0244" lon="0.18196">
        <ele>883</ele>
        <time>2023-11-19T09:35:15Z</time>
      </trkpt>
      <trkpt lat="43.0244" lon="0.18196">
        <ele>883.1</ele>
        <time>2023-11-19T09:35:16Z</time>
      </trkpt>
      <trkpt lat="43.0244" lon="0.18196">
        <ele>883.1</ele>
        <time>2023-11-19T09:35:17Z</time>
      </trkpt>
      <trkpt lat="43.0244" lon="0.18195">
        <ele>883.3</ele>
        <time>2023-11-19T09:35:18Z</time>
      </trkpt>
      <trkpt lat="43.02441" lon="0.18193">
        <ele>883.5</ele>
        <time>2023-11-19T09:35:19Z</time>
      </trkpt>
      <trkpt lat="43.02441" lon="0.18192">
        <ele>883.6</ele>
        <time>2023-11-19T09:35:20Z</time>
      </trkpt>
      <trkpt lat="43.02441" lon="0.18191">
        <ele>883.7</ele>
        <time>2023-11-19T09:35:21Z</time>
      </trkpt>
      <trkpt lat="43.02441" lon="0.1819">
        <ele>883.9</ele>
        <time>2023-11-19T09:35:22Z</time>
      </trkpt>
      <trkpt lat="43.02441" lon="0.18189">
        <ele>884.1</ele>
        <time>2023-11-19T09:35:23Z</time>
      </trkpt>
      <trkpt lat="43.02441" lon="0.18188">
        <ele>884.2</ele>
        <time>2023-11-19T09:35:24Z</time>
      </trkpt>
      <trkpt lat="43.02442" lon="0.18188">
        <ele>884.2</ele>
        <time>2023-11-19T09:35:25Z</time>
      </trkpt>
      <trkpt lat="43.02442" lon="0.18187">
        <ele>884.4</ele>
        <time>2023-11-19T09:35:26Z</time>
      </trkpt>
      <trkpt lat="43.02442" lon="0.18187">
        <ele>884.5</ele>
        <time>2023-11-19T09:35:27Z</time>
      </trkpt>
      <trkpt lat="43.02442" lon="0.18186">
        <ele>884.5</ele>
        <time>2023-11-19T09:35:28Z</time>
      </trkpt>
      <trkpt lat="43.02442" lon="0.18186">
        <ele>884.6</ele>
        <time>2023-11-19T09:35:29Z</time>
      </trkpt>
      <trkpt lat="43.02443" lon="0.18185">
        <ele>884.7</ele>
        <time>2023-11-19T09:35:30Z</time>
      </trkpt>
      <trkpt lat="43.02443" lon="0.18184">
        <ele>884.9</ele>
        <time>2023-11-19T09:35:31Z</time>
      </trkpt>
      <trkpt lat="43.02443" lon="0.18184">
        <ele>884.9</ele>
        <time>2023-11-19T09:35:32Z</time>
      </trkpt>
      <trkpt lat="43.02443" lon="0.18183">
        <ele>885</ele>
        <time>2023-11-19T09:35:33Z</time>
      </trkpt>
      <trkpt lat="43.02443" lon="0.18182">
        <ele>885.2</ele>
        <time>2023-11-19T09:35:34Z</time>
      </trkpt>
      <trkpt lat="43.02443" lon="0.18181">
        <ele>885.4</ele>
        <time>2023-11-19T09:35:35Z</time>
      </trkpt>
      <trkpt lat="43.02444" lon="0.1818">
        <ele>885.5</ele>
        <time>2023-11-19T09:35:36Z</time>
      </trkpt>
      <trkpt lat="43.02444" lon="0.1818">
        <ele>885.5</ele>
        <time>2023-11-19T09:35:37Z</time>
      </trkpt>
      <trkpt lat="43.02444" lon="0.18179">
        <ele>885.7</ele>
        <time>2023-11-19T09:35:38Z</time>
      </trkpt>
      <trkpt lat="43.02444" lon="0.18178">
        <ele>885.8</ele>
        <time>2023-11-19T09:35:39Z</time>
      </trkpt>
      <trkpt lat="43.02444" lon="0.18178">
        <ele>885.9</ele>
        <time>2023-11-19T09:35:40Z</time>
      </trkpt>
      <trkpt lat="43.02444" lon="0.18177">
        <ele>886</ele>
        <time>2023-11-19T09:35:41Z</time>
      </trkpt>
      <trkpt lat="43.02444" lon="0.18176">
        <ele>886.1</ele>
        <time>2023-11-19T09:35:42Z</time>
      </trkpt>
      <trkpt lat="43.02445" lon="0.18178">
        <ele>886.3</ele>
        <time>2023-11-19T09:35:43Z</time>
      </trkpt>
      <trkpt lat="43.02444" lon="0.18175">
        <ele>886.7</ele>
        <time>2023-11-19T09:35:44Z</time>
      </trkpt>
      <trkpt lat="43.02444" lon="0.18175">
        <ele>886.8</ele>
        <time>2023-11-19T09:35:45Z</time>
      </trkpt>
      <trkpt lat="43.02445" lon="0.18174">
        <ele>886.8</ele>
        <time>2023-11-19T09:35:46Z</time>
      </trkpt>
      <trkpt lat="43.02445" lon="0.18173">
        <ele>886.9</ele>
        <time>2023-11-19T09:35:47Z</time>
      </trkpt>
      <trkpt lat="43.02445" lon="0.18173">
        <ele>887</ele>
        <time>2023-11-19T09:35:48Z</time>
      </trkpt>
      <trkpt lat="43.02445" lon="0.18172">
        <ele>887.1</ele>
        <time>2023-11-19T09:35:49Z</time>
      </trkpt>
      <trkpt lat="43.02445" lon="0.18171">
        <ele>887.2</ele>
        <time>2023-11-19T09:35:50Z</time>
      </trkpt>
      <trkpt lat="43.02445" lon="0.18172">
        <ele>887.3</ele>
        <time>2023-11-19T09:35:51Z</time>
      </trkpt>
      <trkpt lat="43.02445" lon="0.18172">
        <ele>887.3</ele>
        <time>2023-11-19T09:35:52Z</time>
      </trkpt>
      <trkpt lat="43.02445" lon="0.18171">
        <ele>887.4</ele>
        <time>2023-11-19T09:35:53Z</time>
      </trkpt>
      <trkpt lat="43.02445" lon="0.1817">
        <ele>887.6</ele>
        <time>2023-11-19T09:35:54Z</time>
      </trkpt>
      <trkpt lat="43.02445" lon="0.18169">
        <ele>887.7</ele>
        <time>2023-11-19T09:35:56Z</time>
      </trkpt>
      <trkpt lat="43.02445" lon="0.18168">
        <ele>887.9</ele>
        <time>2023-11-19T09:35:57Z</time>
      </trkpt>
      <trkpt lat="43.02445" lon="0.18167">
        <ele>888</ele>
        <time>2023-11-19T09:35:58Z</time>
      </trkpt>
      <trkpt lat="43.02445" lon="0.18166">
        <ele>888.1</ele>
        <time>2023-11-19T09:35:59Z</time>
      </trkpt>
      <trkpt lat="43.02445" lon="0.18165">
        <ele>888.2</ele>
        <time>2023-11-19T09:36:00Z</time>
      </trkpt>
      <trkpt lat="43.02446" lon="0.18164">
        <ele>888.3</ele>
        <time>2023-11-19T09:36:01Z</time>
      </trkpt>
      <trkpt lat="43.02446" lon="0.18163">
        <ele>888.4</ele>
        <time>2023-11-19T09:36:02Z</time>
      </trkpt>
      <trkpt lat="43.02446" lon="0.18163">
        <ele>888.5</ele>
        <time>2023-11-19T09:36:03Z</time>
      </trkpt>
      <trkpt lat="43.02446" lon="0.18163">
        <ele>888.5</ele>
        <time>2023-11-19T09:36:04Z</time>
      </trkpt>
      <trkpt lat="43.02446" lon="0.18162">
        <ele>888.6</ele>
        <time>2023-11-19T09:36:05Z</time>
      </trkpt>
      <trkpt lat="43.02446" lon="0.18161">
        <ele>888.7</ele>
        <time>2023-11-19T09:36:06Z</time>
      </trkpt>
      <trkpt lat="43.02446" lon="0.1816">
        <ele>888.9</ele>
        <time>2023-11-19T09:36:07Z</time>
      </trkpt>
      <trkpt lat="43.02446" lon="0.18159">
        <ele>889</ele>
        <time>2023-11-19T09:36:08Z</time>
      </trkpt>
      <trkpt lat="43.02447" lon="0.18158">
        <ele>889.2</ele>
        <time>2023-11-19T09:36:09Z</time>
      </trkpt>
      <trkpt lat="43.02447" lon="0.18157">
        <ele>889.3</ele>
        <time>2023-11-19T09:36:10Z</time>
      </trkpt>
      <trkpt lat="43.02447" lon="0.18156">
        <ele>889.4</ele>
        <time>2023-11-19T09:36:11Z</time>
      </trkpt>
      <trkpt lat="43.02447" lon="0.18155">
        <ele>889.5</ele>
        <time>2023-11-19T09:36:12Z</time>
      </trkpt>
      <trkpt lat="43.02447" lon="0.18155">
        <ele>889.5</ele>
        <time>2023-11-19T09:36:13Z</time>
      </trkpt>
      <trkpt lat="43.02447" lon="0.18155">
        <ele>889.6</ele>
        <time>2023-11-19T09:36:14Z</time>
      </trkpt>
      <trkpt lat="43.02447" lon="0.18155">
        <ele>889.6</ele>
        <time>2023-11-19T09:36:15Z</time>
      </trkpt>
      <trkpt lat="43.02447" lon="0.18155">
        <ele>889.6</ele>
        <time>2023-11-19T09:36:16Z</time>
      </trkpt>
      <trkpt lat="43.02447" lon="0.18155">
        <ele>889.7</ele>
        <time>2023-11-19T09:36:17Z</time>
      </trkpt>
      <trkpt lat="43.02447" lon="0.18153">
        <ele>889.9</ele>
        <time>2023-11-19T09:36:18Z</time>
      </trkpt>
      <trkpt lat="43.02448" lon="0.18152">
        <ele>890</ele>
        <time>2023-11-19T09:36:19Z</time>
      </trkpt>
      <trkpt lat="43.02448" lon="0.18151">
        <ele>890.1</ele>
        <time>2023-11-19T09:36:20Z</time>
      </trkpt>
      <trkpt lat="43.02448" lon="0.1815">
        <ele>890.2</ele>
        <time>2023-11-19T09:36:21Z</time>
      </trkpt>
      <trkpt lat="43.02449" lon="0.18149">
        <ele>890.4</ele>
        <time>2023-11-19T09:36:22Z</time>
      </trkpt>
      <trkpt lat="43.02449" lon="0.18148">
        <ele>890.6</ele>
        <time>2023-11-19T09:36:23Z</time>
      </trkpt>
      <trkpt lat="43.02449" lon="0.18147">
        <ele>890.7</ele>
        <time>2023-11-19T09:36:24Z</time>
      </trkpt>
      <trkpt lat="43.02449" lon="0.18146">
        <ele>890.8</ele>
        <time>2023-11-19T09:36:25Z</time>
      </trkpt>
      <trkpt lat="43.0245" lon="0.18145">
        <ele>890.9</ele>
        <time>2023-11-19T09:36:26Z</time>
      </trkpt>
      <trkpt lat="43.0245" lon="0.18144">
        <ele>891.1</ele>
        <time>2023-11-19T09:36:27Z</time>
      </trkpt>
      <trkpt lat="43.0245" lon="0.18143">
        <ele>891.2</ele>
        <time>2023-11-19T09:36:28Z</time>
      </trkpt>
      <trkpt lat="43.02451" lon="0.18142">
        <ele>891.3</ele>
        <time>2023-11-19T09:36:29Z</time>
      </trkpt>
      <trkpt lat="43.02451" lon="0.18141">
        <ele>891.4</ele>
        <time>2023-11-19T09:36:30Z</time>
      </trkpt>
      <trkpt lat="43.02451" lon="0.18139">
        <ele>891.6</ele>
        <time>2023-11-19T09:36:31Z</time>
      </trkpt>
      <trkpt lat="43.02452" lon="0.18138">
        <ele>891.7</ele>
        <time>2023-11-19T09:36:32Z</time>
      </trkpt>
      <trkpt lat="43.02452" lon="0.18137">
        <ele>891.8</ele>
        <time>2023-11-19T09:36:33Z</time>
      </trkpt>
      <trkpt lat="43.02453" lon="0.18136">
        <ele>891.9</ele>
        <time>2023-11-19T09:36:34Z</time>
      </trkpt>
      <trkpt lat="43.02453" lon="0.18135">
        <ele>892</ele>
        <time>2023-11-19T09:36:35Z</time>
      </trkpt>
      <trkpt lat="43.02454" lon="0.18135">
        <ele>892.2</ele>
        <time>2023-11-19T09:36:36Z</time>
      </trkpt>
      <trkpt lat="43.02454" lon="0.18134">
        <ele>892.3</ele>
        <time>2023-11-19T09:36:37Z</time>
      </trkpt>
      <trkpt lat="43.02455" lon="0.18133">
        <ele>892.4</ele>
        <time>2023-11-19T09:36:38Z</time>
      </trkpt>
      <trkpt lat="43.02456" lon="0.18132">
        <ele>892.5</ele>
        <time>2023-11-19T09:36:39Z</time>
      </trkpt>
      <trkpt lat="43.02456" lon="0.18131">
        <ele>892.6</ele>
        <time>2023-11-19T09:36:40Z</time>
      </trkpt>
      <trkpt lat="43.02456" lon="0.18131">
        <ele>892.6</ele>
        <time>2023-11-19T09:36:41Z</time>
      </trkpt>
      <trkpt lat="43.02457" lon="0.18131">
        <ele>892.7</ele>
        <time>2023-11-19T09:36:42Z</time>
      </trkpt>
      <trkpt lat="43.02458" lon="0.18131">
        <ele>892.8</ele>
        <time>2023-11-19T09:36:43Z</time>
      </trkpt>
      <trkpt lat="43.02458" lon="0.18131">
        <ele>892.9</ele>
        <time>2023-11-19T09:36:44Z</time>
      </trkpt>
      <trkpt lat="43.02458" lon="0.18131">
        <ele>892.9</ele>
        <time>2023-11-19T09:36:45Z</time>
      </trkpt>
      <trkpt lat="43.02459" lon="0.1813">
        <ele>893</ele>
        <time>2023-11-19T09:36:46Z</time>
      </trkpt>
      <trkpt lat="43.0246" lon="0.1813">
        <ele>893</ele>
        <time>2023-11-19T09:36:47Z</time>
      </trkpt>
      <trkpt lat="43.0246" lon="0.18129">
        <ele>893.1</ele>
        <time>2023-11-19T09:36:48Z</time>
      </trkpt>
      <trkpt lat="43.02461" lon="0.18129">
        <ele>893.2</ele>
        <time>2023-11-19T09:36:49Z</time>
      </trkpt>
      <trkpt lat="43.02462" lon="0.18129">
        <ele>893.2</ele>
        <time>2023-11-19T09:36:50Z</time>
      </trkpt>
      <trkpt lat="43.02462" lon="0.18129">
        <ele>893.3</ele>
        <time>2023-11-19T09:36:51Z</time>
      </trkpt>
      <trkpt lat="43.02463" lon="0.18128">
        <ele>893.4</ele>
        <time>2023-11-19T09:36:52Z</time>
      </trkpt>
      <trkpt lat="43.02464" lon="0.18128">
        <ele>893.5</ele>
        <time>2023-11-19T09:36:53Z</time>
      </trkpt>
      <trkpt lat="43.02464" lon="0.18128">
        <ele>893.6</ele>
        <time>2023-11-19T09:36:54Z</time>
      </trkpt>
      <trkpt lat="43.02465" lon="0.18128">
        <ele>893.6</ele>
        <time>2023-11-19T09:36:55Z</time>
      </trkpt>
      <trkpt lat="43.02466" lon="0.18128">
        <ele>893.7</ele>
        <time>2023-11-19T09:36:56Z</time>
      </trkpt>
      <trkpt lat="43.02466" lon="0.18128">
        <ele>893.7</ele>
        <time>2023-11-19T09:36:57Z</time>
      </trkpt>
      <trkpt lat="43.02467" lon="0.18127">
        <ele>893.8</ele>
        <time>2023-11-19T09:36:58Z</time>
      </trkpt>
      <trkpt lat="43.02468" lon="0.18127">
        <ele>893.9</ele>
        <time>2023-11-19T09:36:59Z</time>
      </trkpt>
      <trkpt lat="43.02469" lon="0.18127">
        <ele>894</ele>
        <time>2023-11-19T09:37:00Z</time>
      </trkpt>
      <trkpt lat="43.02469" lon="0.18126">
        <ele>894</ele>
        <time>2023-11-19T09:37:01Z</time>
      </trkpt>
      <trkpt lat="43.0247" lon="0.18126">
        <ele>894.1</ele>
        <time>2023-11-19T09:37:02Z</time>
      </trkpt>
      <trkpt lat="43.0247" lon="0.18126">
        <ele>894.1</ele>
        <time>2023-11-19T09:37:03Z</time>
      </trkpt>
      <trkpt lat="43.02471" lon="0.18126">
        <ele>894.2</ele>
        <time>2023-11-19T09:37:04Z</time>
      </trkpt>
      <trkpt lat="43.02472" lon="0.18126">
        <ele>894.3</ele>
        <time>2023-11-19T09:37:05Z</time>
      </trkpt>
      <trkpt lat="43.02473" lon="0.18126">
        <ele>894.4</ele>
        <time>2023-11-19T09:37:06Z</time>
      </trkpt>
      <trkpt lat="43.02474" lon="0.18126">
        <ele>894.4</ele>
        <time>2023-11-19T09:37:07Z</time>
      </trkpt>
      <trkpt lat="43.02474" lon="0.18126">
        <ele>894.5</ele>
        <time>2023-11-19T09:37:08Z</time>
      </trkpt>
      <trkpt lat="43.02475" lon="0.18126">
        <ele>894.6</ele>
        <time>2023-11-19T09:37:09Z</time>
      </trkpt>
      <trkpt lat="43.02476" lon="0.18127">
        <ele>894.6</ele>
        <time>2023-11-19T09:37:10Z</time>
      </trkpt>
      <trkpt lat="43.02476" lon="0.18128">
        <ele>894.7</ele>
        <time>2023-11-19T09:37:11Z</time>
      </trkpt>
      <trkpt lat="43.02476" lon="0.18128">
        <ele>894.8</ele>
        <time>2023-11-19T09:37:12Z</time>
      </trkpt>
      <trkpt lat="43.02476" lon="0.18129">
        <ele>894.8</ele>
        <time>2023-11-19T09:37:13Z</time>
      </trkpt>
      <trkpt lat="43.02475" lon="0.1813">
        <ele>894.9</ele>
        <time>2023-11-19T09:37:14Z</time>
      </trkpt>
      <trkpt lat="43.02475" lon="0.1813">
        <ele>894.9</ele>
        <time>2023-11-19T09:37:15Z</time>
      </trkpt>
      <trkpt lat="43.02474" lon="0.1813">
        <ele>895</ele>
        <time>2023-11-19T09:37:16Z</time>
      </trkpt>
      <trkpt lat="43.02474" lon="0.1813">
        <ele>895.1</ele>
        <time>2023-11-19T09:37:17Z</time>
      </trkpt>
      <trkpt lat="43.02473" lon="0.18131">
        <ele>895.2</ele>
        <time>2023-11-19T09:37:18Z</time>
      </trkpt>
      <trkpt lat="43.02473" lon="0.18131">
        <ele>895.2</ele>
        <time>2023-11-19T09:37:19Z</time>
      </trkpt>
      <trkpt lat="43.02473" lon="0.18132">
        <ele>895.3</ele>
        <time>2023-11-19T09:37:20Z</time>
      </trkpt>
      <trkpt lat="43.02472" lon="0.18132">
        <ele>895.3</ele>
        <time>2023-11-19T09:37:21Z</time>
      </trkpt>
      <trkpt lat="43.02472" lon="0.18133">
        <ele>895.4</ele>
        <time>2023-11-19T09:37:22Z</time>
      </trkpt>
      <trkpt lat="43.02472" lon="0.18134">
        <ele>895.5</ele>
        <time>2023-11-19T09:37:23Z</time>
      </trkpt>
      <trkpt lat="43.02472" lon="0.18134">
        <ele>895.5</ele>
        <time>2023-11-19T09:37:24Z</time>
      </trkpt>
      <trkpt lat="43.02472" lon="0.18135">
        <ele>895.6</ele>
        <time>2023-11-19T09:37:25Z</time>
      </trkpt>
      <trkpt lat="43.02472" lon="0.18136">
        <ele>895.6</ele>
        <time>2023-11-19T09:37:26Z</time>
      </trkpt>
      <trkpt lat="43.02471" lon="0.18136">
        <ele>895.7</ele>
        <time>2023-11-19T09:37:27Z</time>
      </trkpt>
      <trkpt lat="43.02472" lon="0.18136">
        <ele>895.7</ele>
        <time>2023-11-19T09:37:28Z</time>
      </trkpt>
      <trkpt lat="43.02472" lon="0.18137">
        <ele>895.7</ele>
        <time>2023-11-19T09:37:29Z</time>
      </trkpt>
      <trkpt lat="43.02472" lon="0.18137">
        <ele>895.8</ele>
        <time>2023-11-19T09:37:30Z</time>
      </trkpt>
      <trkpt lat="43.02472" lon="0.18138">
        <ele>895.9</ele>
        <time>2023-11-19T09:37:31Z</time>
      </trkpt>
      <trkpt lat="43.02471" lon="0.18138">
        <ele>896</ele>
        <time>2023-11-19T09:37:32Z</time>
      </trkpt>
      <trkpt lat="43.02471" lon="0.18138">
        <ele>896</ele>
        <time>2023-11-19T09:37:33Z</time>
      </trkpt>
      <trkpt lat="43.02471" lon="0.18139">
        <ele>896.1</ele>
        <time>2023-11-19T09:37:34Z</time>
      </trkpt>
      <trkpt lat="43.02471" lon="0.1814">
        <ele>896.2</ele>
        <time>2023-11-19T09:37:35Z</time>
      </trkpt>
      <trkpt lat="43.02471" lon="0.18141">
        <ele>896.2</ele>
        <time>2023-11-19T09:37:36Z</time>
      </trkpt>
      <trkpt lat="43.02471" lon="0.18141">
        <ele>896.3</ele>
        <time>2023-11-19T09:37:37Z</time>
      </trkpt>
      <trkpt lat="43.02471" lon="0.18142">
        <ele>896.3</ele>
        <time>2023-11-19T09:37:38Z</time>
      </trkpt>
      <trkpt lat="43.02471" lon="0.18142">
        <ele>896.4</ele>
        <time>2023-11-19T09:37:39Z</time>
      </trkpt>
      <trkpt lat="43.02471" lon="0.18143">
        <ele>896.5</ele>
        <time>2023-11-19T09:37:40Z</time>
      </trkpt>
      <trkpt lat="43.0247" lon="0.18144">
        <ele>896.6</ele>
        <time>2023-11-19T09:37:41Z</time>
      </trkpt>
      <trkpt lat="43.0247" lon="0.18144">
        <ele>896.7</ele>
        <time>2023-11-19T09:37:42Z</time>
      </trkpt>
      <trkpt lat="43.0247" lon="0.18145">
        <ele>896.7</ele>
        <time>2023-11-19T09:37:43Z</time>
      </trkpt>
      <trkpt lat="43.0247" lon="0.18145">
        <ele>896.8</ele>
        <time>2023-11-19T09:37:44Z</time>
      </trkpt>
      <trkpt lat="43.0247" lon="0.18145">
        <ele>896.8</ele>
        <time>2023-11-19T09:37:45Z</time>
      </trkpt>
      <trkpt lat="43.0247" lon="0.18145">
        <ele>896.8</ele>
        <time>2023-11-19T09:37:46Z</time>
      </trkpt>
      <trkpt lat="43.02469" lon="0.18145">
        <ele>896.9</ele>
        <time>2023-11-19T09:37:47Z</time>
      </trkpt>
      <trkpt lat="43.02469" lon="0.18146">
        <ele>897</ele>
        <time>2023-11-19T09:37:48Z</time>
      </trkpt>
      <trkpt lat="43.02469" lon="0.18147">
        <ele>897.1</ele>
        <time>2023-11-19T09:37:49Z</time>
      </trkpt>
      <trkpt lat="43.02469" lon="0.18147">
        <ele>897.2</ele>
        <time>2023-11-19T09:37:50Z</time>
      </trkpt>
      <trkpt lat="43.02469" lon="0.18148">
        <ele>897.3</ele>
        <time>2023-11-19T09:37:51Z</time>
      </trkpt>
      <trkpt lat="43.02469" lon="0.18149">
        <ele>897.4</ele>
        <time>2023-11-19T09:37:52Z</time>
      </trkpt>
      <trkpt lat="43.02469" lon="0.18148">
        <ele>897.4</ele>
        <time>2023-11-19T09:37:53Z</time>
      </trkpt>
      <trkpt lat="43.0247" lon="0.18148">
        <ele>897.5</ele>
        <time>2023-11-19T09:37:54Z</time>
      </trkpt>
      <trkpt lat="43.02471" lon="0.18149">
        <ele>897.7</ele>
        <time>2023-11-19T09:37:55Z</time>
      </trkpt>
      <trkpt lat="43.02471" lon="0.18148">
        <ele>897.8</ele>
        <time>2023-11-19T09:37:56Z</time>
      </trkpt>
      <trkpt lat="43.02471" lon="0.18148">
        <ele>897.8</ele>
        <time>2023-11-19T09:37:57Z</time>
      </trkpt>
      <trkpt lat="43.02471" lon="0.18148">
        <ele>897.9</ele>
        <time>2023-11-19T09:37:58Z</time>
      </trkpt>
      <trkpt lat="43.02472" lon="0.18148">
        <ele>898</ele>
        <time>2023-11-19T09:37:59Z</time>
      </trkpt>
      <trkpt lat="43.02472" lon="0.18148">
        <ele>898.1</ele>
        <time>2023-11-19T09:38:00Z</time>
      </trkpt>
      <trkpt lat="43.02472" lon="0.18148">
        <ele>898.1</ele>
        <time>2023-11-19T09:38:01Z</time>
      </trkpt>
      <trkpt lat="43.02473" lon="0.18148">
        <ele>898.2</ele>
        <time>2023-11-19T09:38:02Z</time>
      </trkpt>
      <trkpt lat="43.02473" lon="0.18148">
        <ele>898.3</ele>
        <time>2023-11-19T09:38:03Z</time>
      </trkpt>
      <trkpt lat="43.02474" lon="0.18148">
        <ele>898.4</ele>
        <time>2023-11-19T09:38:04Z</time>
      </trkpt>
      <trkpt lat="43.02474" lon="0.18148">
        <ele>898.4</ele>
        <time>2023-11-19T09:38:05Z</time>
      </trkpt>
      <trkpt lat="43.02474" lon="0.18148">
        <ele>898.5</ele>
        <time>2023-11-19T09:38:06Z</time>
      </trkpt>
      <trkpt lat="43.02475" lon="0.18148">
        <ele>898.7</ele>
        <time>2023-11-19T09:38:07Z</time>
      </trkpt>
      <trkpt lat="43.02475" lon="0.18148">
        <ele>898.8</ele>
        <time>2023-11-19T09:38:08Z</time>
      </trkpt>
      <trkpt lat="43.02476" lon="0.18148">
        <ele>898.9</ele>
        <time>2023-11-19T09:38:09Z</time>
      </trkpt>
      <trkpt lat="43.02476" lon="0.18149">
        <ele>899</ele>
        <time>2023-11-19T09:38:10Z</time>
      </trkpt>
      <trkpt lat="43.02476" lon="0.18149">
        <ele>899</ele>
        <time>2023-11-19T09:38:11Z</time>
      </trkpt>
      <trkpt lat="43.02477" lon="0.18149">
        <ele>899.1</ele>
        <time>2023-11-19T09:38:12Z</time>
      </trkpt>
      <trkpt lat="43.02477" lon="0.18149">
        <ele>899.2</ele>
        <time>2023-11-19T09:38:13Z</time>
      </trkpt>
      <trkpt lat="43.02477" lon="0.18149">
        <ele>899.2</ele>
        <time>2023-11-19T09:38:14Z</time>
      </trkpt>
      <trkpt lat="43.02477" lon="0.18149">
        <ele>899.3</ele>
        <time>2023-11-19T09:38:15Z</time>
      </trkpt>
      <trkpt lat="43.02477" lon="0.18149">
        <ele>899.4</ele>
        <time>2023-11-19T09:38:16Z</time>
      </trkpt>
      <trkpt lat="43.02478" lon="0.18149">
        <ele>899.4</ele>
        <time>2023-11-19T09:38:17Z</time>
      </trkpt>
      <trkpt lat="43.02478" lon="0.1815">
        <ele>899.5</ele>
        <time>2023-11-19T09:38:18Z</time>
      </trkpt>
      <trkpt lat="43.02478" lon="0.1815">
        <ele>899.6</ele>
        <time>2023-11-19T09:38:19Z</time>
      </trkpt>
      <trkpt lat="43.02479" lon="0.1815">
        <ele>899.8</ele>
        <time>2023-11-19T09:38:20Z</time>
      </trkpt>
      <trkpt lat="43.02479" lon="0.18151">
        <ele>899.9</ele>
        <time>2023-11-19T09:38:21Z</time>
      </trkpt>
      <trkpt lat="43.02479" lon="0.1815">
        <ele>900</ele>
        <time>2023-11-19T09:38:22Z</time>
      </trkpt>
      <trkpt lat="43.0248" lon="0.1815">
        <ele>900.2</ele>
        <time>2023-11-19T09:38:23Z</time>
      </trkpt>
      <trkpt lat="43.02481" lon="0.1815">
        <ele>900.4</ele>
        <time>2023-11-19T09:38:24Z</time>
      </trkpt>
      <trkpt lat="43.02482" lon="0.1815">
        <ele>900.6</ele>
        <time>2023-11-19T09:38:25Z</time>
      </trkpt>
      <trkpt lat="43.02482" lon="0.18149">
        <ele>900.7</ele>
        <time>2023-11-19T09:38:26Z</time>
      </trkpt>
      <trkpt lat="43.02482" lon="0.18149">
        <ele>900.8</ele>
        <time>2023-11-19T09:38:27Z</time>
      </trkpt>
      <trkpt lat="43.02483" lon="0.18148">
        <ele>901.1</ele>
        <time>2023-11-19T09:38:28Z</time>
      </trkpt>
      <trkpt lat="43.02483" lon="0.18148">
        <ele>901.3</ele>
        <time>2023-11-19T09:38:29Z</time>
      </trkpt>
      <trkpt lat="43.02484" lon="0.18149">
        <ele>901.4</ele>
        <time>2023-11-19T09:38:30Z</time>
      </trkpt>
      <trkpt lat="43.02485" lon="0.18148">
        <ele>901.7</ele>
        <time>2023-11-19T09:38:31Z</time>
      </trkpt>
      <trkpt lat="43.02485" lon="0.18149">
        <ele>901.8</ele>
        <time>2023-11-19T09:38:32Z</time>
      </trkpt>
      <trkpt lat="43.02485" lon="0.18149">
        <ele>902</ele>
        <time>2023-11-19T09:38:33Z</time>
      </trkpt>
      <trkpt lat="43.02486" lon="0.18149">
        <ele>902.3</ele>
        <time>2023-11-19T09:38:34Z</time>
      </trkpt>
      <trkpt lat="43.02487" lon="0.18149">
        <ele>902.6</ele>
        <time>2023-11-19T09:38:35Z</time>
      </trkpt>
      <trkpt lat="43.02487" lon="0.1815">
        <ele>902.8</ele>
        <time>2023-11-19T09:38:36Z</time>
      </trkpt>
      <trkpt lat="43.02488" lon="0.18151">
        <ele>902.9</ele>
        <time>2023-11-19T09:38:37Z</time>
      </trkpt>
      <trkpt lat="43.02488" lon="0.18151">
        <ele>903</ele>
        <time>2023-11-19T09:38:38Z</time>
      </trkpt>
      <trkpt lat="43.02489" lon="0.18152">
        <ele>903.3</ele>
        <time>2023-11-19T09:38:39Z</time>
      </trkpt>
      <trkpt lat="43.0249" lon="0.1815">
        <ele>903.8</ele>
        <time>2023-11-19T09:38:40Z</time>
      </trkpt>
      <trkpt lat="43.02492" lon="0.18149">
        <ele>904.2</ele>
        <time>2023-11-19T09:38:41Z</time>
      </trkpt>
      <trkpt lat="43.02492" lon="0.18148">
        <ele>904.3</ele>
        <time>2023-11-19T09:38:42Z</time>
      </trkpt>
      <trkpt lat="43.02492" lon="0.18148">
        <ele>904.4</ele>
        <time>2023-11-19T09:38:43Z</time>
      </trkpt>
      <trkpt lat="43.02492" lon="0.18148">
        <ele>904.4</ele>
        <time>2023-11-19T09:38:44Z</time>
      </trkpt>
      <trkpt lat="43.02492" lon="0.18148">
        <ele>904.5</ele>
        <time>2023-11-19T09:38:45Z</time>
      </trkpt>
      <trkpt lat="43.02493" lon="0.18148">
        <ele>904.8</ele>
        <time>2023-11-19T09:38:46Z</time>
      </trkpt>
      <trkpt lat="43.02493" lon="0.18148">
        <ele>904.9</ele>
        <time>2023-11-19T09:38:47Z</time>
      </trkpt>
      <trkpt lat="43.02494" lon="0.18147">
        <ele>905.1</ele>
        <time>2023-11-19T09:38:48Z</time>
      </trkpt>
      <trkpt lat="43.02495" lon="0.18147">
        <ele>905.4</ele>
        <time>2023-11-19T09:38:49Z</time>
      </trkpt>
      <trkpt lat="43.02496" lon="0.18146">
        <ele>905.6</ele>
        <time>2023-11-19T09:38:50Z</time>
      </trkpt>
      <trkpt lat="43.02497" lon="0.18145">
        <ele>905.9</ele>
        <time>2023-11-19T09:38:51Z</time>
      </trkpt>
      <trkpt lat="43.02497" lon="0.18146">
        <ele>906</ele>
        <time>2023-11-19T09:38:52Z</time>
      </trkpt>
      <trkpt lat="43.02499" lon="0.18146">
        <ele>906.3</ele>
        <time>2023-11-19T09:38:53Z</time>
      </trkpt>
      <trkpt lat="43.02499" lon="0.18146">
        <ele>906.5</ele>
        <time>2023-11-19T09:38:54Z</time>
      </trkpt>
      <trkpt lat="43.025" lon="0.18147">
        <ele>906.6</ele>
        <time>2023-11-19T09:38:55Z</time>
      </trkpt>
      <trkpt lat="43.025" lon="0.18147">
        <ele>906.8</ele>
        <time>2023-11-19T09:38:56Z</time>
      </trkpt>
      <trkpt lat="43.02501" lon="0.18147">
        <ele>906.9</ele>
        <time>2023-11-19T09:38:57Z</time>
      </trkpt>
      <trkpt lat="43.02502" lon="0.18147">
        <ele>907.1</ele>
        <time>2023-11-19T09:38:58Z</time>
      </trkpt>
      <trkpt lat="43.02503" lon="0.18148">
        <ele>907.3</ele>
        <time>2023-11-19T09:38:59Z</time>
      </trkpt>
      <trkpt lat="43.02503" lon="0.18149">
        <ele>907.5</ele>
        <time>2023-11-19T09:39:00Z</time>
      </trkpt>
      <trkpt lat="43.02504" lon="0.18149">
        <ele>907.6</ele>
        <time>2023-11-19T09:39:01Z</time>
      </trkpt>
      <trkpt lat="43.02505" lon="0.18149">
        <ele>907.8</ele>
        <time>2023-11-19T09:39:02Z</time>
      </trkpt>
      <trkpt lat="43.02506" lon="0.18149">
        <ele>908</ele>
        <time>2023-11-19T09:39:03Z</time>
      </trkpt>
      <trkpt lat="43.02506" lon="0.1815">
        <ele>908.1</ele>
        <time>2023-11-19T09:39:04Z</time>
      </trkpt>
      <trkpt lat="43.02507" lon="0.1815">
        <ele>908.3</ele>
        <time>2023-11-19T09:39:05Z</time>
      </trkpt>
      <trkpt lat="43.02508" lon="0.1815">
        <ele>908.5</ele>
        <time>2023-11-19T09:39:06Z</time>
      </trkpt>
      <trkpt lat="43.02509" lon="0.1815">
        <ele>908.5</ele>
        <time>2023-11-19T09:39:07Z</time>
      </trkpt>
      <trkpt lat="43.02509" lon="0.1815">
        <ele>908.7</ele>
        <time>2023-11-19T09:39:08Z</time>
      </trkpt>
      <trkpt lat="43.0251" lon="0.1815">
        <ele>908.8</ele>
        <time>2023-11-19T09:39:09Z</time>
      </trkpt>
      <trkpt lat="43.02511" lon="0.1815">
        <ele>909</ele>
        <time>2023-11-19T09:39:10Z</time>
      </trkpt>
      <trkpt lat="43.02512" lon="0.1815">
        <ele>909.1</ele>
        <time>2023-11-19T09:39:11Z</time>
      </trkpt>
      <trkpt lat="43.02512" lon="0.1815">
        <ele>909.2</ele>
        <time>2023-11-19T09:39:12Z</time>
      </trkpt>
      <trkpt lat="43.02513" lon="0.1815">
        <ele>909.4</ele>
        <time>2023-11-19T09:39:13Z</time>
      </trkpt>
      <trkpt lat="43.02514" lon="0.1815">
        <ele>909.5</ele>
        <time>2023-11-19T09:39:14Z</time>
      </trkpt>
      <trkpt lat="43.02515" lon="0.1815">
        <ele>909.6</ele>
        <time>2023-11-19T09:39:15Z</time>
      </trkpt>
      <trkpt lat="43.02516" lon="0.1815">
        <ele>909.8</ele>
        <time>2023-11-19T09:39:16Z</time>
      </trkpt>
      <trkpt lat="43.02516" lon="0.18151">
        <ele>909.9</ele>
        <time>2023-11-19T09:39:17Z</time>
      </trkpt>
      <trkpt lat="43.02516" lon="0.18151">
        <ele>909.9</ele>
        <time>2023-11-19T09:39:18Z</time>
      </trkpt>
      <trkpt lat="43.02517" lon="0.18151">
        <ele>910</ele>
        <time>2023-11-19T09:39:19Z</time>
      </trkpt>
      <trkpt lat="43.02517" lon="0.18151">
        <ele>910.1</ele>
        <time>2023-11-19T09:39:20Z</time>
      </trkpt>
      <trkpt lat="43.02518" lon="0.18151">
        <ele>910.3</ele>
        <time>2023-11-19T09:39:21Z</time>
      </trkpt>
      <trkpt lat="43.02519" lon="0.18151">
        <ele>910.4</ele>
        <time>2023-11-19T09:39:22Z</time>
      </trkpt>
      <trkpt lat="43.0252" lon="0.1815">
        <ele>910.5</ele>
        <time>2023-11-19T09:39:23Z</time>
      </trkpt>
      <trkpt lat="43.0252" lon="0.18151">
        <ele>910.6</ele>
        <time>2023-11-19T09:39:24Z</time>
      </trkpt>
      <trkpt lat="43.02521" lon="0.18151">
        <ele>910.7</ele>
        <time>2023-11-19T09:39:25Z</time>
      </trkpt>
      <trkpt lat="43.02522" lon="0.1815">
        <ele>911</ele>
        <time>2023-11-19T09:39:26Z</time>
      </trkpt>
      <trkpt lat="43.02522" lon="0.18149">
        <ele>911</ele>
        <time>2023-11-19T09:39:27Z</time>
      </trkpt>
      <trkpt lat="43.02522" lon="0.18149">
        <ele>911</ele>
        <time>2023-11-19T09:39:28Z</time>
      </trkpt>
      <trkpt lat="43.02522" lon="0.18149">
        <ele>911</ele>
        <time>2023-11-19T09:39:29Z</time>
      </trkpt>
      <trkpt lat="43.02522" lon="0.18148">
        <ele>911.2</ele>
        <time>2023-11-19T09:39:30Z</time>
      </trkpt>
      <trkpt lat="43.02522" lon="0.18148">
        <ele>911.2</ele>
        <time>2023-11-19T09:39:31Z</time>
      </trkpt>
      <trkpt lat="43.02523" lon="0.18147">
        <ele>911.3</ele>
        <time>2023-11-19T09:39:32Z</time>
      </trkpt>
      <trkpt lat="43.02523" lon="0.18147">
        <ele>911.4</ele>
        <time>2023-11-19T09:39:33Z</time>
      </trkpt>
      <trkpt lat="43.02523" lon="0.18146">
        <ele>911.4</ele>
        <time>2023-11-19T09:39:34Z</time>
      </trkpt>
      <trkpt lat="43.02524" lon="0.18147">
        <ele>911.5</ele>
        <time>2023-11-19T09:39:35Z</time>
      </trkpt>
      <trkpt lat="43.02524" lon="0.18147">
        <ele>911.6</ele>
        <time>2023-11-19T09:39:36Z</time>
      </trkpt>
      <trkpt lat="43.02525" lon="0.18147">
        <ele>911.7</ele>
        <time>2023-11-19T09:39:37Z</time>
      </trkpt>
      <trkpt lat="43.02525" lon="0.18147">
        <ele>911.8</ele>
        <time>2023-11-19T09:39:38Z</time>
      </trkpt>
      <trkpt lat="43.02526" lon="0.18147">
        <ele>911.9</ele>
        <time>2023-11-19T09:39:39Z</time>
      </trkpt>
      <trkpt lat="43.02527" lon="0.18147">
        <ele>912</ele>
        <time>2023-11-19T09:39:40Z</time>
      </trkpt>
      <trkpt lat="43.02527" lon="0.18148">
        <ele>912.1</ele>
        <time>2023-11-19T09:39:41Z</time>
      </trkpt>
      <trkpt lat="43.02528" lon="0.18148">
        <ele>912.2</ele>
        <time>2023-11-19T09:39:42Z</time>
      </trkpt>
      <trkpt lat="43.02529" lon="0.18148">
        <ele>912.4</ele>
        <time>2023-11-19T09:39:43Z</time>
      </trkpt>
      <trkpt lat="43.0253" lon="0.18148">
        <ele>912.6</ele>
        <time>2023-11-19T09:39:44Z</time>
      </trkpt>
      <trkpt lat="43.02531" lon="0.18148">
        <ele>912.6</ele>
        <time>2023-11-19T09:39:45Z</time>
      </trkpt>
      <trkpt lat="43.02531" lon="0.18149">
        <ele>912.7</ele>
        <time>2023-11-19T09:39:46Z</time>
      </trkpt>
      <trkpt lat="43.02532" lon="0.18149">
        <ele>912.8</ele>
        <time>2023-11-19T09:39:47Z</time>
      </trkpt>
      <trkpt lat="43.02532" lon="0.18149">
        <ele>912.9</ele>
        <time>2023-11-19T09:39:48Z</time>
      </trkpt>
      <trkpt lat="43.02533" lon="0.1815">
        <ele>913</ele>
        <time>2023-11-19T09:39:49Z</time>
      </trkpt>
      <trkpt lat="43.02533" lon="0.1815">
        <ele>913.1</ele>
        <time>2023-11-19T09:39:50Z</time>
      </trkpt>
      <trkpt lat="43.02534" lon="0.1815">
        <ele>913.2</ele>
        <time>2023-11-19T09:39:51Z</time>
      </trkpt>
      <trkpt lat="43.02534" lon="0.18151">
        <ele>913.2</ele>
        <time>2023-11-19T09:39:52Z</time>
      </trkpt>
      <trkpt lat="43.02534" lon="0.1815">
        <ele>913.3</ele>
        <time>2023-11-19T09:39:53Z</time>
      </trkpt>
      <trkpt lat="43.02535" lon="0.18151">
        <ele>913.4</ele>
        <time>2023-11-19T09:39:54Z</time>
      </trkpt>
      <trkpt lat="43.02535" lon="0.18152">
        <ele>913.6</ele>
        <time>2023-11-19T09:39:55Z</time>
      </trkpt>
      <trkpt lat="43.02536" lon="0.18152">
        <ele>913.7</ele>
        <time>2023-11-19T09:39:56Z</time>
      </trkpt>
      <trkpt lat="43.02537" lon="0.18152">
        <ele>913.8</ele>
        <time>2023-11-19T09:39:57Z</time>
      </trkpt>
      <trkpt lat="43.02537" lon="0.18152">
        <ele>913.9</ele>
        <time>2023-11-19T09:39:58Z</time>
      </trkpt>
      <trkpt lat="43.02538" lon="0.18153">
        <ele>914</ele>
        <time>2023-11-19T09:39:59Z</time>
      </trkpt>
      <trkpt lat="43.02539" lon="0.18154">
        <ele>914.2</ele>
        <time>2023-11-19T09:40:00Z</time>
      </trkpt>
      <trkpt lat="43.02539" lon="0.18154">
        <ele>914.3</ele>
        <time>2023-11-19T09:40:01Z</time>
      </trkpt>
      <trkpt lat="43.0254" lon="0.18154">
        <ele>914.4</ele>
        <time>2023-11-19T09:40:02Z</time>
      </trkpt>
      <trkpt lat="43.02541" lon="0.18154">
        <ele>914.6</ele>
        <time>2023-11-19T09:40:03Z</time>
      </trkpt>
      <trkpt lat="43.02541" lon="0.18154">
        <ele>914.6</ele>
        <time>2023-11-19T09:40:04Z</time>
      </trkpt>
      <trkpt lat="43.02542" lon="0.18154">
        <ele>914.7</ele>
        <time>2023-11-19T09:40:05Z</time>
      </trkpt>
      <trkpt lat="43.02542" lon="0.18154">
        <ele>914.8</ele>
        <time>2023-11-19T09:40:06Z</time>
      </trkpt>
      <trkpt lat="43.02542" lon="0.18155">
        <ele>914.8</ele>
        <time>2023-11-19T09:40:07Z</time>
      </trkpt>
      <trkpt lat="43.02543" lon="0.18156">
        <ele>915.1</ele>
        <time>2023-11-19T09:40:09Z</time>
      </trkpt>
      <trkpt lat="43.02544" lon="0.18157">
        <ele>915.3</ele>
        <time>2023-11-19T09:40:10Z</time>
      </trkpt>
      <trkpt lat="43.02545" lon="0.18157">
        <ele>915.4</ele>
        <time>2023-11-19T09:40:11Z</time>
      </trkpt>
      <trkpt lat="43.02545" lon="0.18158">
        <ele>915.6</ele>
        <time>2023-11-19T09:40:12Z</time>
      </trkpt>
      <trkpt lat="43.02546" lon="0.18159">
        <ele>915.8</ele>
        <time>2023-11-19T09:40:13Z</time>
      </trkpt>
      <trkpt lat="43.02547" lon="0.1816">
        <ele>915.9</ele>
        <time>2023-11-19T09:40:14Z</time>
      </trkpt>
      <trkpt lat="43.02548" lon="0.1816">
        <ele>916.2</ele>
        <time>2023-11-19T09:40:15Z</time>
      </trkpt>
      <trkpt lat="43.02549" lon="0.1816">
        <ele>916.3</ele>
        <time>2023-11-19T09:40:16Z</time>
      </trkpt>
      <trkpt lat="43.0255" lon="0.18161">
        <ele>916.6</ele>
        <time>2023-11-19T09:40:17Z</time>
      </trkpt>
      <trkpt lat="43.0255" lon="0.18161">
        <ele>916.6</ele>
        <time>2023-11-19T09:40:18Z</time>
      </trkpt>
      <trkpt lat="43.02551" lon="0.18161">
        <ele>916.8</ele>
        <time>2023-11-19T09:40:19Z</time>
      </trkpt>
      <trkpt lat="43.02552" lon="0.18161">
        <ele>917</ele>
        <time>2023-11-19T09:40:20Z</time>
      </trkpt>
      <trkpt lat="43.02553" lon="0.18161">
        <ele>917.2</ele>
        <time>2023-11-19T09:40:21Z</time>
      </trkpt>
      <trkpt lat="43.02555" lon="0.18161">
        <ele>917.5</ele>
        <time>2023-11-19T09:40:22Z</time>
      </trkpt>
      <trkpt lat="43.02557" lon="0.18161">
        <ele>917.8</ele>
        <time>2023-11-19T09:40:23Z</time>
      </trkpt>
      <trkpt lat="43.02557" lon="0.18161">
        <ele>918</ele>
        <time>2023-11-19T09:40:24Z</time>
      </trkpt>
      <trkpt lat="43.02558" lon="0.18161">
        <ele>918.2</ele>
        <time>2023-11-19T09:40:25Z</time>
      </trkpt>
      <trkpt lat="43.02559" lon="0.18161">
        <ele>918.3</ele>
        <time>2023-11-19T09:40:26Z</time>
      </trkpt>
      <trkpt lat="43.0256" lon="0.18159">
        <ele>918.6</ele>
        <time>2023-11-19T09:40:27Z</time>
      </trkpt>
      <trkpt lat="43.02561" lon="0.18158">
        <ele>918.9</ele>
        <time>2023-11-19T09:40:28Z</time>
      </trkpt>
      <trkpt lat="43.02562" lon="0.18158">
        <ele>919</ele>
        <time>2023-11-19T09:40:29Z</time>
      </trkpt>
      <trkpt lat="43.02564" lon="0.18158">
        <ele>919.3</ele>
        <time>2023-11-19T09:40:30Z</time>
      </trkpt>
      <trkpt lat="43.02564" lon="0.18157">
        <ele>919.5</ele>
        <time>2023-11-19T09:40:31Z</time>
      </trkpt>
      <trkpt lat="43.02566" lon="0.18157">
        <ele>919.7</ele>
        <time>2023-11-19T09:40:32Z</time>
      </trkpt>
      <trkpt lat="43.02567" lon="0.18157">
        <ele>920</ele>
        <time>2023-11-19T09:40:33Z</time>
      </trkpt>
      <trkpt lat="43.02567" lon="0.18158">
        <ele>920.1</ele>
        <time>2023-11-19T09:40:34Z</time>
      </trkpt>
      <trkpt lat="43.02568" lon="0.18159">
        <ele>920.3</ele>
        <time>2023-11-19T09:40:35Z</time>
      </trkpt>
      <trkpt lat="43.02569" lon="0.18159">
        <ele>920.4</ele>
        <time>2023-11-19T09:40:36Z</time>
      </trkpt>
      <trkpt lat="43.0257" lon="0.1816">
        <ele>920.5</ele>
        <time>2023-11-19T09:40:37Z</time>
      </trkpt>
      <trkpt lat="43.02571" lon="0.1816">
        <ele>920.8</ele>
        <time>2023-11-19T09:40:38Z</time>
      </trkpt>
      <trkpt lat="43.02572" lon="0.1816">
        <ele>921</ele>
        <time>2023-11-19T09:40:39Z</time>
      </trkpt>
      <trkpt lat="43.02573" lon="0.1816">
        <ele>921.1</ele>
        <time>2023-11-19T09:40:40Z</time>
      </trkpt>
      <trkpt lat="43.02573" lon="0.1816">
        <ele>921.2</ele>
        <time>2023-11-19T09:40:41Z</time>
      </trkpt>
      <trkpt lat="43.02574" lon="0.1816">
        <ele>921.2</ele>
        <time>2023-11-19T09:40:42Z</time>
      </trkpt>
      <trkpt lat="43.02575" lon="0.1816">
        <ele>921.4</ele>
        <time>2023-11-19T09:40:43Z</time>
      </trkpt>
      <trkpt lat="43.02576" lon="0.1816">
        <ele>921.6</ele>
        <time>2023-11-19T09:40:44Z</time>
      </trkpt>
      <trkpt lat="43.02577" lon="0.18161">
        <ele>921.7</ele>
        <time>2023-11-19T09:40:45Z</time>
      </trkpt>
      <trkpt lat="43.02578" lon="0.18161">
        <ele>921.9</ele>
        <time>2023-11-19T09:40:46Z</time>
      </trkpt>
      <trkpt lat="43.02579" lon="0.18161">
        <ele>922</ele>
        <time>2023-11-19T09:40:47Z</time>
      </trkpt>
      <trkpt lat="43.0258" lon="0.18162">
        <ele>922.1</ele>
        <time>2023-11-19T09:40:48Z</time>
      </trkpt>
      <trkpt lat="43.02581" lon="0.18161">
        <ele>922.2</ele>
        <time>2023-11-19T09:40:49Z</time>
      </trkpt>
      <trkpt lat="43.02582" lon="0.18161">
        <ele>922.3</ele>
        <time>2023-11-19T09:40:50Z</time>
      </trkpt>
      <trkpt lat="43.02583" lon="0.18161">
        <ele>922.4</ele>
        <time>2023-11-19T09:40:51Z</time>
      </trkpt>
      <trkpt lat="43.02585" lon="0.18161">
        <ele>922.6</ele>
        <time>2023-11-19T09:40:52Z</time>
      </trkpt>
      <trkpt lat="43.02586" lon="0.1816">
        <ele>922.7</ele>
        <time>2023-11-19T09:40:53Z</time>
      </trkpt>
      <trkpt lat="43.02586" lon="0.1816">
        <ele>922.7</ele>
        <time>2023-11-19T09:40:54Z</time>
      </trkpt>
      <trkpt lat="43.02587" lon="0.1816">
        <ele>922.8</ele>
        <time>2023-11-19T09:40:55Z</time>
      </trkpt>
      <trkpt lat="43.02588" lon="0.1816">
        <ele>922.9</ele>
        <time>2023-11-19T09:40:56Z</time>
      </trkpt>
      <trkpt lat="43.02589" lon="0.18161">
        <ele>922.9</ele>
        <time>2023-11-19T09:40:57Z</time>
      </trkpt>
      <trkpt lat="43.0259" lon="0.18162">
        <ele>923</ele>
        <time>2023-11-19T09:40:58Z</time>
      </trkpt>
      <trkpt lat="43.0259" lon="0.18162">
        <ele>923.1</ele>
        <time>2023-11-19T09:40:59Z</time>
      </trkpt>
      <trkpt lat="43.02591" lon="0.18163">
        <ele>923.1</ele>
        <time>2023-11-19T09:41:00Z</time>
      </trkpt>
      <trkpt lat="43.0259" lon="0.18163">
        <ele>923.1</ele>
        <time>2023-11-19T09:41:01Z</time>
      </trkpt>
      <trkpt lat="43.02591" lon="0.18164">
        <ele>923.2</ele>
        <time>2023-11-19T09:41:02Z</time>
      </trkpt>
      <trkpt lat="43.02591" lon="0.18164">
        <ele>923.2</ele>
        <time>2023-11-19T09:41:03Z</time>
      </trkpt>
      <trkpt lat="43.02591" lon="0.18164">
        <ele>923.2</ele>
        <time>2023-11-19T09:41:04Z</time>
      </trkpt>
      <trkpt lat="43.02591" lon="0.18163">
        <ele>923.2</ele>
        <time>2023-11-19T09:41:05Z</time>
      </trkpt>
      <trkpt lat="43.02591" lon="0.18164">
        <ele>923.3</ele>
        <time>2023-11-19T09:41:06Z</time>
      </trkpt>
      <trkpt lat="43.0259" lon="0.18163">
        <ele>923.3</ele>
        <time>2023-11-19T09:41:07Z</time>
      </trkpt>
      <trkpt lat="43.0259" lon="0.18164">
        <ele>923.4</ele>
        <time>2023-11-19T09:41:08Z</time>
      </trkpt>
      <trkpt lat="43.0259" lon="0.18164">
        <ele>923.4</ele>
        <time>2023-11-19T09:41:09Z</time>
      </trkpt>
      <trkpt lat="43.0259" lon="0.18164">
        <ele>923.4</ele>
        <time>2023-11-19T09:41:10Z</time>
      </trkpt>
      <trkpt lat="43.0259" lon="0.18164">
        <ele>923.4</ele>
        <time>2023-11-19T09:41:11Z</time>
      </trkpt>
      <trkpt lat="43.0259" lon="0.18164">
        <ele>923.5</ele>
        <time>2023-11-19T09:41:12Z</time>
      </trkpt>
      <trkpt lat="43.0259" lon="0.18164">
        <ele>923.5</ele>
        <time>2023-11-19T09:41:13Z</time>
      </trkpt>
      <trkpt lat="43.0259" lon="0.18164">
        <ele>923.5</ele>
        <time>2023-11-19T09:41:14Z</time>
      </trkpt>
      <trkpt lat="43.0259" lon="0.18164">
        <ele>923.5</ele>
        <time>2023-11-19T09:41:15Z</time>
      </trkpt>
      <trkpt lat="43.0259" lon="0.18164">
        <ele>923.5</ele>
        <time>2023-11-19T09:41:16Z</time>
      </trkpt>
      <trkpt lat="43.0259" lon="0.18164">
        <ele>923.5</ele>
        <time>2023-11-19T09:41:17Z</time>
      </trkpt>
      <trkpt lat="43.0259" lon="0.18164">
        <ele>923.5</ele>
        <time>2023-11-19T09:41:18Z</time>
      </trkpt>
      <trkpt lat="43.0259" lon="0.18164">
        <ele>923.5</ele>
        <time>2023-11-19T09:41:19Z</time>
      </trkpt>
      <trkpt lat="43.0259" lon="0.18164">
        <ele>923.5</ele>
        <time>2023-11-19T09:41:20Z</time>
      </trkpt>
      <trkpt lat="43.0259" lon="0.18164">
        <ele>923.5</ele>
        <time>2023-11-19T09:41:21Z</time>
      </trkpt>
      <trkpt lat="43.0259" lon="0.18165">
        <ele>923.6</ele>
        <time>2023-11-19T09:41:22Z</time>
      </trkpt>
      <trkpt lat="43.0259" lon="0.18165">
        <ele>923.6</ele>
        <time>2023-11-19T09:41:23Z</time>
      </trkpt>
      <trkpt lat="43.0259" lon="0.18165">
        <ele>923.6</ele>
        <time>2023-11-19T09:41:24Z</time>
      </trkpt>
      <trkpt lat="43.0259" lon="0.18165">
        <ele>923.6</ele>
        <time>2023-11-19T09:41:25Z</time>
      </trkpt>
      <trkpt lat="43.0259" lon="0.18165">
        <ele>923.6</ele>
        <time>2023-11-19T09:41:26Z</time>
      </trkpt>
      <trkpt lat="43.0259" lon="0.18165">
        <ele>923.6</ele>
        <time>2023-11-19T09:41:27Z</time>
      </trkpt>
      <trkpt lat="43.0259" lon="0.18165">
        <ele>923.6</ele>
        <time>2023-11-19T09:41:28Z</time>
      </trkpt>
      <trkpt lat="43.02591" lon="0.18164">
        <ele>923.7</ele>
        <time>2023-11-19T09:41:29Z</time>
      </trkpt>
      <trkpt lat="43.02591" lon="0.18163">
        <ele>923.8</ele>
        <time>2023-11-19T09:41:30Z</time>
      </trkpt>
      <trkpt lat="43.02592" lon="0.18162">
        <ele>923.9</ele>
        <time>2023-11-19T09:41:31Z</time>
      </trkpt>
      <trkpt lat="43.02592" lon="0.18162">
        <ele>923.9</ele>
        <time>2023-11-19T09:41:32Z</time>
      </trkpt>
      <trkpt lat="43.02594" lon="0.18161">
        <ele>924</ele>
        <time>2023-11-19T09:41:33Z</time>
      </trkpt>
      <trkpt lat="43.02593" lon="0.18161">
        <ele>924</ele>
        <time>2023-11-19T09:41:34Z</time>
      </trkpt>
      <trkpt lat="43.02593" lon="0.18161">
        <ele>924.1</ele>
        <time>2023-11-19T09:41:35Z</time>
      </trkpt>
      <trkpt lat="43.02593" lon="0.18161">
        <ele>924.1</ele>
        <time>2023-11-19T09:41:36Z</time>
      </trkpt>
      <trkpt lat="43.02593" lon="0.18161">
        <ele>924.1</ele>
        <time>2023-11-19T09:41:37Z</time>
      </trkpt>
      <trkpt lat="43.02593" lon="0.18161">
        <ele>924.1</ele>
        <time>2023-11-19T09:41:38Z</time>
      </trkpt>
      <trkpt lat="43.02593" lon="0.18161">
        <ele>924.1</ele>
        <time>2023-11-19T09:41:39Z</time>
      </trkpt>
      <trkpt lat="43.02592" lon="0.18157">
        <ele>924.3</ele>
        <time>2023-11-19T09:41:40Z</time>
      </trkpt>
      <trkpt lat="43.02592" lon="0.18157">
        <ele>924.3</ele>
        <time>2023-11-19T09:41:41Z</time>
      </trkpt>
      <trkpt lat="43.02592" lon="0.18157">
        <ele>924.4</ele>
        <time>2023-11-19T09:41:42Z</time>
      </trkpt>
      <trkpt lat="43.02592" lon="0.18157">
        <ele>924.4</ele>
        <time>2023-11-19T09:41:43Z</time>
      </trkpt>
      <trkpt lat="43.02592" lon="0.18157">
        <ele>924.4</ele>
        <time>2023-11-19T09:41:44Z</time>
      </trkpt>
      <trkpt lat="43.02592" lon="0.18157">
        <ele>924.4</ele>
        <time>2023-11-19T09:41:45Z</time>
      </trkpt>
      <trkpt lat="43.02592" lon="0.18157">
        <ele>924.4</ele>
        <time>2023-11-19T09:41:46Z</time>
      </trkpt>
      <trkpt lat="43.02592" lon="0.18157">
        <ele>924.4</ele>
        <time>2023-11-19T09:41:47Z</time>
      </trkpt>
      <trkpt lat="43.02591" lon="0.18157">
        <ele>924.4</ele>
        <time>2023-11-19T09:41:48Z</time>
      </trkpt>
      <trkpt lat="43.02591" lon="0.18157">
        <ele>924.4</ele>
        <time>2023-11-19T09:41:49Z</time>
      </trkpt>
      <trkpt lat="43.02591" lon="0.18157">
        <ele>924.4</ele>
        <time>2023-11-19T09:41:50Z</time>
      </trkpt>
      <trkpt lat="43.02591" lon="0.18157">
        <ele>924.4</ele>
        <time>2023-11-19T09:41:51Z</time>
      </trkpt>
      <trkpt lat="43.02591" lon="0.18156">
        <ele>924.5</ele>
        <time>2023-11-19T09:41:52Z</time>
      </trkpt>
      <trkpt lat="43.02591" lon="0.18156">
        <ele>924.5</ele>
        <time>2023-11-19T09:41:53Z</time>
      </trkpt>
      <trkpt lat="43.02591" lon="0.18155">
        <ele>924.5</ele>
        <time>2023-11-19T09:41:54Z</time>
      </trkpt>
      <trkpt lat="43.02591" lon="0.18155">
        <ele>924.5</ele>
        <time>2023-11-19T09:41:55Z</time>
      </trkpt>
      <trkpt lat="43.02591" lon="0.18155">
        <ele>924.6</ele>
        <time>2023-11-19T09:41:56Z</time>
      </trkpt>
      <trkpt lat="43.02591" lon="0.18155">
        <ele>924.6</ele>
        <time>2023-11-19T09:41:57Z</time>
      </trkpt>
      <trkpt lat="43.02591" lon="0.18155">
        <ele>924.6</ele>
        <time>2023-11-19T09:41:58Z</time>
      </trkpt>
      <trkpt lat="43.02591" lon="0.18155">
        <ele>924.6</ele>
        <time>2023-11-19T09:41:59Z</time>
      </trkpt>
      <trkpt lat="43.02591" lon="0.18155">
        <ele>924.6</ele>
        <time>2023-11-19T09:42:00Z</time>
      </trkpt>
      <trkpt lat="43.02591" lon="0.18155">
        <ele>924.6</ele>
        <time>2023-11-19T09:42:01Z</time>
      </trkpt>
      <trkpt lat="43.02591" lon="0.18155">
        <ele>924.6</ele>
        <time>2023-11-19T09:42:02Z</time>
      </trkpt>
      <trkpt lat="43.02591" lon="0.18155">
        <ele>924.6</ele>
        <time>2023-11-19T09:42:03Z</time>
      </trkpt>
      <trkpt lat="43.02591" lon="0.18155">
        <ele>924.6</ele>
        <time>2023-11-19T09:42:04Z</time>
      </trkpt>
      <trkpt lat="43.02591" lon="0.18154">
        <ele>924.7</ele>
        <time>2023-11-19T09:42:05Z</time>
      </trkpt>
      <trkpt lat="43.02591" lon="0.18153">
        <ele>924.7</ele>
        <time>2023-11-19T09:42:06Z</time>
      </trkpt>
      <trkpt lat="43.02591" lon="0.18153">
        <ele>924.7</ele>
        <time>2023-11-19T09:42:07Z</time>
      </trkpt>
      <trkpt lat="43.02591" lon="0.18153">
        <ele>924.7</ele>
        <time>2023-11-19T09:42:08Z</time>
      </trkpt>
      <trkpt lat="43.02591" lon="0.18154">
        <ele>924.8</ele>
        <time>2023-11-19T09:42:09Z</time>
      </trkpt>
      <trkpt lat="43.02591" lon="0.18154">
        <ele>924.8</ele>
        <time>2023-11-19T09:42:10Z</time>
      </trkpt>
      <trkpt lat="43.02591" lon="0.18154">
        <ele>924.8</ele>
        <time>2023-11-19T09:42:11Z</time>
      </trkpt>
      <trkpt lat="43.02591" lon="0.18154">
        <ele>924.8</ele>
        <time>2023-11-19T09:42:12Z</time>
      </trkpt>
      <trkpt lat="43.0259" lon="0.18155">
        <ele>924.9</ele>
        <time>2023-11-19T09:42:13Z</time>
      </trkpt>
      <trkpt lat="43.0259" lon="0.18154">
        <ele>924.9</ele>
        <time>2023-11-19T09:42:14Z</time>
      </trkpt>
      <trkpt lat="43.0259" lon="0.18154">
        <ele>925</ele>
        <time>2023-11-19T09:42:15Z</time>
      </trkpt>
      <trkpt lat="43.0259" lon="0.18154">
        <ele>925</ele>
        <time>2023-11-19T09:42:16Z</time>
      </trkpt>
      <trkpt lat="43.0259" lon="0.18154">
        <ele>925</ele>
        <time>2023-11-19T09:42:17Z</time>
      </trkpt>
      <trkpt lat="43.0259" lon="0.18154">
        <ele>925.1</ele>
        <time>2023-11-19T09:42:18Z</time>
      </trkpt>
      <trkpt lat="43.0259" lon="0.18154">
        <ele>925.1</ele>
        <time>2023-11-19T09:42:19Z</time>
      </trkpt>
      <trkpt lat="43.0259" lon="0.18154">
        <ele>925.2</ele>
        <time>2023-11-19T09:42:20Z</time>
      </trkpt>
      <trkpt lat="43.0259" lon="0.18154">
        <ele>925.2</ele>
        <time>2023-11-19T09:42:21Z</time>
      </trkpt>
      <trkpt lat="43.0259" lon="0.18154">
        <ele>925.2</ele>
        <time>2023-11-19T09:42:22Z</time>
      </trkpt>
      <trkpt lat="43.0259" lon="0.18155">
        <ele>925.4</ele>
        <time>2023-11-19T09:42:23Z</time>
      </trkpt>
      <trkpt lat="43.02591" lon="0.18156">
        <ele>925.4</ele>
        <time>2023-11-19T09:42:24Z</time>
      </trkpt>
      <trkpt lat="43.02591" lon="0.18156">
        <ele>925.5</ele>
        <time>2023-11-19T09:42:25Z</time>
      </trkpt>
      <trkpt lat="43.02591" lon="0.18156">
        <ele>925.5</ele>
        <time>2023-11-19T09:42:26Z</time>
      </trkpt>
      <trkpt lat="43.02591" lon="0.18156">
        <ele>925.5</ele>
        <time>2023-11-19T09:42:27Z</time>
      </trkpt>
      <trkpt lat="43.02591" lon="0.18156">
        <ele>925.5</ele>
        <time>2023-11-19T09:42:28Z</time>
      </trkpt>
      <trkpt lat="43.02591" lon="0.18156">
        <ele>925.5</ele>
        <time>2023-11-19T09:42:29Z</time>
      </trkpt>
      <trkpt lat="43.02591" lon="0.18156">
        <ele>925.5</ele>
        <time>2023-11-19T09:42:30Z</time>
      </trkpt>
      <trkpt lat="43.02591" lon="0.18156">
        <ele>925.5</ele>
        <time>2023-11-19T09:42:31Z</time>
      </trkpt>
      <trkpt lat="43.02591" lon="0.18156">
        <ele>925.5</ele>
        <time>2023-11-19T09:42:32Z</time>
      </trkpt>
      <trkpt lat="43.02591" lon="0.18156">
        <ele>925.5</ele>
        <time>2023-11-19T09:42:33Z</time>
      </trkpt>
      <trkpt lat="43.02591" lon="0.18156">
        <ele>925.5</ele>
        <time>2023-11-19T09:42:34Z</time>
      </trkpt>
      <trkpt lat="43.02591" lon="0.18156">
        <ele>925.5</ele>
        <time>2023-11-19T09:42:35Z</time>
      </trkpt>
      <trkpt lat="43.02591" lon="0.18156">
        <ele>925.5</ele>
        <time>2023-11-19T09:42:36Z</time>
      </trkpt>
      <trkpt lat="43.02591" lon="0.18156">
        <ele>925.5</ele>
        <time>2023-11-19T09:42:37Z</time>
      </trkpt>
      <trkpt lat="43.02593" lon="0.18157">
        <ele>925.8</ele>
        <time>2023-11-19T09:42:38Z</time>
      </trkpt>
      <trkpt lat="43.02593" lon="0.18157">
        <ele>925.8</ele>
        <time>2023-11-19T09:42:39Z</time>
      </trkpt>
      <trkpt lat="43.02593" lon="0.18157">
        <ele>925.8</ele>
        <time>2023-11-19T09:42:40Z</time>
      </trkpt>
      <trkpt lat="43.02593" lon="0.18157">
        <ele>925.8</ele>
        <time>2023-11-19T09:42:41Z</time>
      </trkpt>
      <trkpt lat="43.02593" lon="0.18157">
        <ele>925.8</ele>
        <time>2023-11-19T09:42:42Z</time>
      </trkpt>
      <trkpt lat="43.02593" lon="0.18157">
        <ele>925.8</ele>
        <time>2023-11-19T09:42:43Z</time>
      </trkpt>
      <trkpt lat="43.02593" lon="0.18157">
        <ele>925.8</ele>
        <time>2023-11-19T09:42:44Z</time>
      </trkpt>
      <trkpt lat="43.02593" lon="0.18157">
        <ele>925.8</ele>
        <time>2023-11-19T09:42:45Z</time>
      </trkpt>
      <trkpt lat="43.02593" lon="0.18157">
        <ele>925.8</ele>
        <time>2023-11-19T09:42:46Z</time>
      </trkpt>
      <trkpt lat="43.02593" lon="0.18157">
        <ele>925.8</ele>
        <time>2023-11-19T09:42:47Z</time>
      </trkpt>
      <trkpt lat="43.02593" lon="0.18157">
        <ele>925.8</ele>
        <time>2023-11-19T09:42:48Z</time>
      </trkpt>
      <trkpt lat="43.02593" lon="0.18157">
        <ele>925.8</ele>
        <time>2023-11-19T09:42:49Z</time>
      </trkpt>
      <trkpt lat="43.02593" lon="0.18157">
        <ele>925.8</ele>
        <time>2023-11-19T09:42:50Z</time>
      </trkpt>
      <trkpt lat="43.02593" lon="0.18157">
        <ele>925.8</ele>
        <time>2023-11-19T09:42:51Z</time>
      </trkpt>
      <trkpt lat="43.02593" lon="0.18157">
        <ele>925.8</ele>
        <time>2023-11-19T09:42:52Z</time>
      </trkpt>
      <trkpt lat="43.02593" lon="0.18157">
        <ele>925.8</ele>
        <time>2023-11-19T09:42:53Z</time>
      </trkpt>
      <trkpt lat="43.02593" lon="0.18157">
        <ele>925.8</ele>
        <time>2023-11-19T09:42:54Z</time>
      </trkpt>
      <trkpt lat="43.02593" lon="0.18157">
        <ele>925.8</ele>
        <time>2023-11-19T09:42:55Z</time>
      </trkpt>
      <trkpt lat="43.02593" lon="0.18157">
        <ele>925.8</ele>
        <time>2023-11-19T09:42:56Z</time>
      </trkpt>
      <trkpt lat="43.02593" lon="0.18157">
        <ele>925.8</ele>
        <time>2023-11-19T09:42:57Z</time>
      </trkpt>
      <trkpt lat="43.02593" lon="0.18157">
        <ele>925.8</ele>
        <time>2023-11-19T09:42:58Z</time>
      </trkpt>
      <trkpt lat="43.02593" lon="0.18157">
        <ele>925.8</ele>
        <time>2023-11-19T09:42:59Z</time>
      </trkpt>
      <trkpt lat="43.02593" lon="0.18157">
        <ele>925.8</ele>
        <time>2023-11-19T09:43:00Z</time>
      </trkpt>
      <trkpt lat="43.02593" lon="0.18157">
        <ele>925.8</ele>
        <time>2023-11-19T09:43:01Z</time>
      </trkpt>
      <trkpt lat="43.02593" lon="0.18157">
        <ele>925.8</ele>
        <time>2023-11-19T09:43:02Z</time>
      </trkpt>
      <trkpt lat="43.02593" lon="0.18157">
        <ele>925.8</ele>
        <time>2023-11-19T09:43:03Z</time>
      </trkpt>
      <trkpt lat="43.02593" lon="0.18157">
        <ele>925.8</ele>
        <time>2023-11-19T09:43:04Z</time>
      </trkpt>
      <trkpt lat="43.02593" lon="0.18157">
        <ele>925.8</ele>
        <time>2023-11-19T09:43:05Z</time>
      </trkpt>
      <trkpt lat="43.02593" lon="0.18157">
        <ele>925.8</ele>
        <time>2023-11-19T09:43:06Z</time>
      </trkpt>
      <trkpt lat="43.02593" lon="0.18157">
        <ele>925.8</ele>
        <time>2023-11-19T09:43:07Z</time>
      </trkpt>
      <trkpt lat="43.02593" lon="0.18157">
        <ele>925.8</ele>
        <time>2023-11-19T09:43:08Z</time>
      </trkpt>
      <trkpt lat="43.02593" lon="0.18157">
        <ele>925.8</ele>
        <time>2023-11-19T09:43:09Z</time>
      </trkpt>
      <trkpt lat="43.02593" lon="0.18157">
        <ele>925.8</ele>
        <time>2023-11-19T09:43:10Z</time>
      </trkpt>
      <trkpt lat="43.02593" lon="0.18157">
        <ele>925.8</ele>
        <time>2023-11-19T09:43:11Z</time>
      </trkpt>
      <trkpt lat="43.02593" lon="0.18157">
        <ele>925.8</ele>
        <time>2023-11-19T09:43:12Z</time>
      </trkpt>
      <trkpt lat="43.02593" lon="0.18157">
        <ele>925.8</ele>
        <time>2023-11-19T09:43:13Z</time>
      </trkpt>
      <trkpt lat="43.02593" lon="0.18157">
        <ele>925.8</ele>
        <time>2023-11-19T09:43:14Z</time>
      </trkpt>
      <trkpt lat="43.02593" lon="0.18157">
        <ele>925.8</ele>
        <time>2023-11-19T09:43:15Z</time>
      </trkpt>
      <trkpt lat="43.02593" lon="0.18157">
        <ele>925.8</ele>
        <time>2023-11-19T09:43:16Z</time>
      </trkpt>
      <trkpt lat="43.02593" lon="0.18157">
        <ele>925.8</ele>
        <time>2023-11-19T09:43:17Z</time>
      </trkpt>
      <trkpt lat="43.02593" lon="0.18157">
        <ele>925.8</ele>
        <time>2023-11-19T09:43:18Z</time>
      </trkpt>
      <trkpt lat="43.02592" lon="0.18155">
        <ele>926.2</ele>
        <time>2023-11-19T09:43:19Z</time>
      </trkpt>
      <trkpt lat="43.02592" lon="0.18155">
        <ele>926.2</ele>
        <time>2023-11-19T09:43:20Z</time>
      </trkpt>
      <trkpt lat="43.02592" lon="0.18155">
        <ele>926.2</ele>
        <time>2023-11-19T09:43:21Z</time>
      </trkpt>
      <trkpt lat="43.02592" lon="0.18155">
        <ele>926.2</ele>
        <time>2023-11-19T09:43:22Z</time>
      </trkpt>
      <trkpt lat="43.02592" lon="0.18155">
        <ele>926.2</ele>
        <time>2023-11-19T09:43:23Z</time>
      </trkpt>
      <trkpt lat="43.02592" lon="0.18155">
        <ele>926.2</ele>
        <time>2023-11-19T09:43:24Z</time>
      </trkpt>
      <trkpt lat="43.02592" lon="0.18155">
        <ele>926.2</ele>
        <time>2023-11-19T09:43:25Z</time>
      </trkpt>
      <trkpt lat="43.02592" lon="0.18155">
        <ele>926.2</ele>
        <time>2023-11-19T09:43:26Z</time>
      </trkpt>
      <trkpt lat="43.02592" lon="0.18155">
        <ele>926.2</ele>
        <time>2023-11-19T09:43:27Z</time>
      </trkpt>
      <trkpt lat="43.02592" lon="0.18155">
        <ele>926.2</ele>
        <time>2023-11-19T09:43:28Z</time>
      </trkpt>
      <trkpt lat="43.02592" lon="0.18155">
        <ele>926.2</ele>
        <time>2023-11-19T09:43:29Z</time>
      </trkpt>
      <trkpt lat="43.02592" lon="0.18155">
        <ele>926.2</ele>
        <time>2023-11-19T09:43:30Z</time>
      </trkpt>
      <trkpt lat="43.02592" lon="0.18155">
        <ele>926.2</ele>
        <time>2023-11-19T09:43:31Z</time>
      </trkpt>
      <trkpt lat="43.02592" lon="0.18155">
        <ele>926.2</ele>
        <time>2023-11-19T09:43:32Z</time>
      </trkpt>
      <trkpt lat="43.02592" lon="0.18155">
        <ele>926.2</ele>
        <time>2023-11-19T09:43:33Z</time>
      </trkpt>
      <trkpt lat="43.02592" lon="0.18155">
        <ele>926.2</ele>
        <time>2023-11-19T09:43:34Z</time>
      </trkpt>
      <trkpt lat="43.02592" lon="0.18155">
        <ele>926.2</ele>
        <time>2023-11-19T09:43:35Z</time>
      </trkpt>
      <trkpt lat="43.02592" lon="0.18155">
        <ele>926.2</ele>
        <time>2023-11-19T09:43:36Z</time>
      </trkpt>
      <trkpt lat="43.02592" lon="0.18155">
        <ele>926.2</ele>
        <time>2023-11-19T09:43:37Z</time>
      </trkpt>
      <trkpt lat="43.02592" lon="0.18155">
        <ele>926.2</ele>
        <time>2023-11-19T09:43:38Z</time>
      </trkpt>
      <trkpt lat="43.02592" lon="0.18155">
        <ele>926.2</ele>
        <time>2023-11-19T09:43:39Z</time>
      </trkpt>
      <trkpt lat="43.02592" lon="0.18155">
        <ele>926.2</ele>
        <time>2023-11-19T09:43:40Z</time>
      </trkpt>
      <trkpt lat="43.02592" lon="0.18155">
        <ele>926.2</ele>
        <time>2023-11-19T09:43:41Z</time>
      </trkpt>
      <trkpt lat="43.02592" lon="0.18155">
        <ele>926.2</ele>
        <time>2023-11-19T09:43:42Z</time>
      </trkpt>
      <trkpt lat="43.02592" lon="0.18155">
        <ele>926.2</ele>
        <time>2023-11-19T09:43:43Z</time>
      </trkpt>
      <trkpt lat="43.02592" lon="0.18155">
        <ele>926.2</ele>
        <time>2023-11-19T09:43:44Z</time>
      </trkpt>
      <trkpt lat="43.02592" lon="0.18155">
        <ele>926.2</ele>
        <time>2023-11-19T09:43:45Z</time>
      </trkpt>
      <trkpt lat="43.02592" lon="0.18155">
        <ele>926.2</ele>
        <time>2023-11-19T09:43:46Z</time>
      </trkpt>
      <trkpt lat="43.02592" lon="0.18155">
        <ele>926.2</ele>
        <time>2023-11-19T09:43:47Z</time>
      </trkpt>
      <trkpt lat="43.02592" lon="0.18155">
        <ele>926.2</ele>
        <time>2023-11-19T09:43:48Z</time>
      </trkpt>
      <trkpt lat="43.02592" lon="0.18155">
        <ele>926.2</ele>
        <time>2023-11-19T09:43:49Z</time>
      </trkpt>
      <trkpt lat="43.02592" lon="0.18155">
        <ele>926.2</ele>
        <time>2023-11-19T09:43:50Z</time>
      </trkpt>
      <trkpt lat="43.02592" lon="0.18155">
        <ele>926.2</ele>
        <time>2023-11-19T09:43:51Z</time>
      </trkpt>
      <trkpt lat="43.02593" lon="0.18153">
        <ele>926.4</ele>
        <time>2023-11-19T09:43:52Z</time>
      </trkpt>
      <trkpt lat="43.02593" lon="0.18153">
        <ele>926.4</ele>
        <time>2023-11-19T09:43:53Z</time>
      </trkpt>
      <trkpt lat="43.02593" lon="0.18153">
        <ele>926.4</ele>
        <time>2023-11-19T09:43:54Z</time>
      </trkpt>
      <trkpt lat="43.02593" lon="0.18153">
        <ele>926.4</ele>
        <time>2023-11-19T09:43:55Z</time>
      </trkpt>
      <trkpt lat="43.02593" lon="0.18153">
        <ele>926.4</ele>
        <time>2023-11-19T09:43:56Z</time>
      </trkpt>
      <trkpt lat="43.02593" lon="0.18154">
        <ele>926.5</ele>
        <time>2023-11-19T09:43:57Z</time>
      </trkpt>
      <trkpt lat="43.02593" lon="0.18154">
        <ele>926.5</ele>
        <time>2023-11-19T09:43:58Z</time>
      </trkpt>
      <trkpt lat="43.02593" lon="0.18154">
        <ele>926.5</ele>
        <time>2023-11-19T09:43:59Z</time>
      </trkpt>
      <trkpt lat="43.02593" lon="0.18154">
        <ele>926.5</ele>
        <time>2023-11-19T09:44:00Z</time>
      </trkpt>
      <trkpt lat="43.02593" lon="0.18154">
        <ele>926.5</ele>
        <time>2023-11-19T09:44:01Z</time>
      </trkpt>
      <trkpt lat="43.02593" lon="0.18154">
        <ele>926.5</ele>
        <time>2023-11-19T09:44:02Z</time>
      </trkpt>
      <trkpt lat="43.02593" lon="0.18154">
        <ele>926.5</ele>
        <time>2023-11-19T09:44:03Z</time>
      </trkpt>
      <trkpt lat="43.02593" lon="0.18154">
        <ele>926.5</ele>
        <time>2023-11-19T09:44:04Z</time>
      </trkpt>
      <trkpt lat="43.02593" lon="0.18154">
        <ele>926.5</ele>
        <time>2023-11-19T09:44:05Z</time>
      </trkpt>
      <trkpt lat="43.02593" lon="0.18153">
        <ele>926.6</ele>
        <time>2023-11-19T09:44:06Z</time>
      </trkpt>
      <trkpt lat="43.02592" lon="0.18153">
        <ele>926.7</ele>
        <time>2023-11-19T09:44:07Z</time>
      </trkpt>
      <trkpt lat="43.02592" lon="0.18153">
        <ele>926.7</ele>
        <time>2023-11-19T09:44:08Z</time>
      </trkpt>
      <trkpt lat="43.02592" lon="0.18153">
        <ele>926.7</ele>
        <time>2023-11-19T09:44:09Z</time>
      </trkpt>
      <trkpt lat="43.02592" lon="0.18152">
        <ele>926.8</ele>
        <time>2023-11-19T09:44:10Z</time>
      </trkpt>
      <trkpt lat="43.02592" lon="0.18152">
        <ele>926.9</ele>
        <time>2023-11-19T09:44:11Z</time>
      </trkpt>
      <trkpt lat="43.02592" lon="0.18152">
        <ele>926.9</ele>
        <time>2023-11-19T09:44:12Z</time>
      </trkpt>
      <trkpt lat="43.02592" lon="0.18152">
        <ele>926.9</ele>
        <time>2023-11-19T09:44:13Z</time>
      </trkpt>
      <trkpt lat="43.02592" lon="0.18152">
        <ele>927</ele>
        <time>2023-11-19T09:44:14Z</time>
      </trkpt>
      <trkpt lat="43.02591" lon="0.18152">
        <ele>927</ele>
        <time>2023-11-19T09:44:15Z</time>
      </trkpt>
      <trkpt lat="43.02592" lon="0.18152">
        <ele>927.1</ele>
        <time>2023-11-19T09:44:16Z</time>
      </trkpt>
      <trkpt lat="43.02591" lon="0.18152">
        <ele>927.1</ele>
        <time>2023-11-19T09:44:17Z</time>
      </trkpt>
      <trkpt lat="43.02591" lon="0.18151">
        <ele>927.2</ele>
        <time>2023-11-19T09:44:18Z</time>
      </trkpt>
      <trkpt lat="43.02591" lon="0.18151">
        <ele>927.3</ele>
        <time>2023-11-19T09:44:19Z</time>
      </trkpt>
      <trkpt lat="43.02591" lon="0.18151">
        <ele>927.4</ele>
        <time>2023-11-19T09:44:20Z</time>
      </trkpt>
      <trkpt lat="43.0259" lon="0.18151">
        <ele>927.4</ele>
        <time>2023-11-19T09:44:21Z</time>
      </trkpt>
      <trkpt lat="43.0259" lon="0.18151">
        <ele>927.5</ele>
        <time>2023-11-19T09:44:22Z</time>
      </trkpt>
      <trkpt lat="43.02589" lon="0.18152">
        <ele>927.7</ele>
        <time>2023-11-19T09:44:23Z</time>
      </trkpt>
      <trkpt lat="43.02587" lon="0.18152">
        <ele>927.8</ele>
        <time>2023-11-19T09:44:24Z</time>
      </trkpt>
      <trkpt lat="43.02587" lon="0.18153">
        <ele>928</ele>
        <time>2023-11-19T09:44:25Z</time>
      </trkpt>
      <trkpt lat="43.02587" lon="0.18153">
        <ele>928</ele>
        <time>2023-11-19T09:44:26Z</time>
      </trkpt>
      <trkpt lat="43.02586" lon="0.18156">
        <ele>928.4</ele>
        <time>2023-11-19T09:44:27Z</time>
      </trkpt>
      <trkpt lat="43.02584" lon="0.18156">
        <ele>928.5</ele>
        <time>2023-11-19T09:44:28Z</time>
      </trkpt>
      <trkpt lat="43.02584" lon="0.18156">
        <ele>928.6</ele>
        <time>2023-11-19T09:44:29Z</time>
      </trkpt>
      <trkpt lat="43.02584" lon="0.18156">
        <ele>928.6</ele>
        <time>2023-11-19T09:44:30Z</time>
      </trkpt>
      <trkpt lat="43.02583" lon="0.18156">
        <ele>928.7</ele>
        <time>2023-11-19T09:44:31Z</time>
      </trkpt>
      <trkpt lat="43.02583" lon="0.18157">
        <ele>928.8</ele>
        <time>2023-11-19T09:44:32Z</time>
      </trkpt>
      <trkpt lat="43.02583" lon="0.18157">
        <ele>928.9</ele>
        <time>2023-11-19T09:44:33Z</time>
      </trkpt>
      <trkpt lat="43.02582" lon="0.18158">
        <ele>929</ele>
        <time>2023-11-19T09:44:34Z</time>
      </trkpt>
      <trkpt lat="43.02581" lon="0.18157">
        <ele>929.1</ele>
        <time>2023-11-19T09:44:35Z</time>
      </trkpt>
      <trkpt lat="43.0258" lon="0.18158">
        <ele>929.3</ele>
        <time>2023-11-19T09:44:36Z</time>
      </trkpt>
      <trkpt lat="43.0258" lon="0.18159">
        <ele>929.4</ele>
        <time>2023-11-19T09:44:37Z</time>
      </trkpt>
      <trkpt lat="43.02579" lon="0.1816">
        <ele>929.6</ele>
        <time>2023-11-19T09:44:38Z</time>
      </trkpt>
      <trkpt lat="43.02578" lon="0.1816">
        <ele>929.7</ele>
        <time>2023-11-19T09:44:39Z</time>
      </trkpt>
      <trkpt lat="43.02578" lon="0.1816">
        <ele>929.8</ele>
        <time>2023-11-19T09:44:40Z</time>
      </trkpt>
      <trkpt lat="43.02577" lon="0.18161">
        <ele>929.9</ele>
        <time>2023-11-19T09:44:41Z</time>
      </trkpt>
      <trkpt lat="43.02576" lon="0.18161">
        <ele>930</ele>
        <time>2023-11-19T09:44:42Z</time>
      </trkpt>
      <trkpt lat="43.02576" lon="0.18162">
        <ele>930.1</ele>
        <time>2023-11-19T09:44:43Z</time>
      </trkpt>
      <trkpt lat="43.02575" lon="0.18162">
        <ele>930.2</ele>
        <time>2023-11-19T09:44:44Z</time>
      </trkpt>
      <trkpt lat="43.02575" lon="0.18162">
        <ele>930.2</ele>
        <time>2023-11-19T09:44:45Z</time>
      </trkpt>
      <trkpt lat="43.02574" lon="0.18163">
        <ele>930.5</ele>
        <time>2023-11-19T09:44:46Z</time>
      </trkpt>
      <trkpt lat="43.02573" lon="0.18164">
        <ele>930.6</ele>
        <time>2023-11-19T09:44:47Z</time>
      </trkpt>
      <trkpt lat="43.02572" lon="0.18164">
        <ele>930.7</ele>
        <time>2023-11-19T09:44:48Z</time>
      </trkpt>
      <trkpt lat="43.02572" lon="0.18164">
        <ele>930.8</ele>
        <time>2023-11-19T09:44:49Z</time>
      </trkpt>
      <trkpt lat="43.02571" lon="0.18164">
        <ele>930.9</ele>
        <time>2023-11-19T09:44:50Z</time>
      </trkpt>
      <trkpt lat="43.0257" lon="0.18165">
        <ele>931</ele>
        <time>2023-11-19T09:44:51Z</time>
      </trkpt>
      <trkpt lat="43.0257" lon="0.18166">
        <ele>931.1</ele>
        <time>2023-11-19T09:44:52Z</time>
      </trkpt>
      <trkpt lat="43.02569" lon="0.18167">
        <ele>931.2</ele>
        <time>2023-11-19T09:44:53Z</time>
      </trkpt>
      <trkpt lat="43.02569" lon="0.18168">
        <ele>931.4</ele>
        <time>2023-11-19T09:44:54Z</time>
      </trkpt>
      <trkpt lat="43.02569" lon="0.18168">
        <ele>931.4</ele>
        <time>2023-11-19T09:44:55Z</time>
      </trkpt>
      <trkpt lat="43.02568" lon="0.18169">
        <ele>931.6</ele>
        <time>2023-11-19T09:44:56Z</time>
      </trkpt>
      <trkpt lat="43.02567" lon="0.18169">
        <ele>931.7</ele>
        <time>2023-11-19T09:44:57Z</time>
      </trkpt>
      <trkpt lat="43.02567" lon="0.1817">
        <ele>931.8</ele>
        <time>2023-11-19T09:44:58Z</time>
      </trkpt>
      <trkpt lat="43.02567" lon="0.18171">
        <ele>931.9</ele>
        <time>2023-11-19T09:44:59Z</time>
      </trkpt>
      <trkpt lat="43.02566" lon="0.18172">
        <ele>932.1</ele>
        <time>2023-11-19T09:45:00Z</time>
      </trkpt>
      <trkpt lat="43.02565" lon="0.18172">
        <ele>932.2</ele>
        <time>2023-11-19T09:45:01Z</time>
      </trkpt>
      <trkpt lat="43.02565" lon="0.18173">
        <ele>932.3</ele>
        <time>2023-11-19T09:45:02Z</time>
      </trkpt>
      <trkpt lat="43.02564" lon="0.18173">
        <ele>932.4</ele>
        <time>2023-11-19T09:45:03Z</time>
      </trkpt>
      <trkpt lat="43.02563" lon="0.18173">
        <ele>932.5</ele>
        <time>2023-11-19T09:45:04Z</time>
      </trkpt>
      <trkpt lat="43.02563" lon="0.18174">
        <ele>932.6</ele>
        <time>2023-11-19T09:45:05Z</time>
      </trkpt>
      <trkpt lat="43.02563" lon="0.18174">
        <ele>932.6</ele>
        <time>2023-11-19T09:45:06Z</time>
      </trkpt>
      <trkpt lat="43.02562" lon="0.18174">
        <ele>932.7</ele>
        <time>2023-11-19T09:45:07Z</time>
      </trkpt>
      <trkpt lat="43.02562" lon="0.18175">
        <ele>932.8</ele>
        <time>2023-11-19T09:45:08Z</time>
      </trkpt>
      <trkpt lat="43.02561" lon="0.18176">
        <ele>932.9</ele>
        <time>2023-11-19T09:45:09Z</time>
      </trkpt>
      <trkpt lat="43.0256" lon="0.18176">
        <ele>933</ele>
        <time>2023-11-19T09:45:10Z</time>
      </trkpt>
      <trkpt lat="43.0256" lon="0.18177">
        <ele>933.1</ele>
        <time>2023-11-19T09:45:11Z</time>
      </trkpt>
      <trkpt lat="43.0256" lon="0.18178">
        <ele>933.2</ele>
        <time>2023-11-19T09:45:12Z</time>
      </trkpt>
      <trkpt lat="43.02559" lon="0.18179">
        <ele>933.3</ele>
        <time>2023-11-19T09:45:13Z</time>
      </trkpt>
      <trkpt lat="43.02559" lon="0.18179">
        <ele>933.5</ele>
        <time>2023-11-19T09:45:14Z</time>
      </trkpt>
      <trkpt lat="43.02558" lon="0.1818">
        <ele>933.5</ele>
        <time>2023-11-19T09:45:15Z</time>
      </trkpt>
      <trkpt lat="43.02558" lon="0.1818">
        <ele>933.6</ele>
        <time>2023-11-19T09:45:16Z</time>
      </trkpt>
      <trkpt lat="43.02557" lon="0.1818">
        <ele>933.7</ele>
        <time>2023-11-19T09:45:17Z</time>
      </trkpt>
      <trkpt lat="43.02557" lon="0.18181">
        <ele>933.8</ele>
        <time>2023-11-19T09:45:18Z</time>
      </trkpt>
      <trkpt lat="43.02557" lon="0.18182">
        <ele>933.9</ele>
        <time>2023-11-19T09:45:19Z</time>
      </trkpt>
      <trkpt lat="43.02558" lon="0.18182">
        <ele>933.9</ele>
        <time>2023-11-19T09:45:20Z</time>
      </trkpt>
      <trkpt lat="43.02558" lon="0.18182">
        <ele>933.9</ele>
        <time>2023-11-19T09:45:21Z</time>
      </trkpt>
      <trkpt lat="43.02558" lon="0.18182">
        <ele>933.9</ele>
        <time>2023-11-19T09:45:22Z</time>
      </trkpt>
      <trkpt lat="43.02558" lon="0.18182">
        <ele>933.9</ele>
        <time>2023-11-19T09:45:23Z</time>
      </trkpt>
      <trkpt lat="43.02558" lon="0.18182">
        <ele>934</ele>
        <time>2023-11-19T09:45:24Z</time>
      </trkpt>
      <trkpt lat="43.02558" lon="0.18182">
        <ele>934.1</ele>
        <time>2023-11-19T09:45:25Z</time>
      </trkpt>
      <trkpt lat="43.02558" lon="0.18182">
        <ele>934.1</ele>
        <time>2023-11-19T09:45:26Z</time>
      </trkpt>
      <trkpt lat="43.02558" lon="0.18183">
        <ele>934.1</ele>
        <time>2023-11-19T09:45:27Z</time>
      </trkpt>
      <trkpt lat="43.02558" lon="0.18183">
        <ele>934.2</ele>
        <time>2023-11-19T09:45:28Z</time>
      </trkpt>
      <trkpt lat="43.02558" lon="0.18184">
        <ele>934.3</ele>
        <time>2023-11-19T09:45:29Z</time>
      </trkpt>
      <trkpt lat="43.02557" lon="0.18184">
        <ele>934.3</ele>
        <time>2023-11-19T09:45:30Z</time>
      </trkpt>
      <trkpt lat="43.02557" lon="0.18185">
        <ele>934.5</ele>
        <time>2023-11-19T09:45:31Z</time>
      </trkpt>
      <trkpt lat="43.02557" lon="0.18186">
        <ele>934.6</ele>
        <time>2023-11-19T09:45:32Z</time>
      </trkpt>
      <trkpt lat="43.02556" lon="0.18186">
        <ele>934.7</ele>
        <time>2023-11-19T09:45:33Z</time>
      </trkpt>
      <trkpt lat="43.02555" lon="0.18187">
        <ele>934.8</ele>
        <time>2023-11-19T09:45:34Z</time>
      </trkpt>
      <trkpt lat="43.02555" lon="0.18187">
        <ele>934.9</ele>
        <time>2023-11-19T09:45:35Z</time>
      </trkpt>
      <trkpt lat="43.02555" lon="0.18188">
        <ele>934.9</ele>
        <time>2023-11-19T09:45:36Z</time>
      </trkpt>
      <trkpt lat="43.02554" lon="0.18188">
        <ele>935.1</ele>
        <time>2023-11-19T09:45:37Z</time>
      </trkpt>
      <trkpt lat="43.02553" lon="0.18189">
        <ele>935.2</ele>
        <time>2023-11-19T09:45:38Z</time>
      </trkpt>
      <trkpt lat="43.02552" lon="0.1819">
        <ele>935.4</ele>
        <time>2023-11-19T09:45:39Z</time>
      </trkpt>
      <trkpt lat="43.02552" lon="0.18191">
        <ele>935.5</ele>
        <time>2023-11-19T09:45:40Z</time>
      </trkpt>
      <trkpt lat="43.02551" lon="0.18191">
        <ele>935.6</ele>
        <time>2023-11-19T09:45:41Z</time>
      </trkpt>
      <trkpt lat="43.0255" lon="0.18192">
        <ele>935.8</ele>
        <time>2023-11-19T09:45:42Z</time>
      </trkpt>
      <trkpt lat="43.02549" lon="0.18193">
        <ele>935.9</ele>
        <time>2023-11-19T09:45:43Z</time>
      </trkpt>
      <trkpt lat="43.02549" lon="0.18193">
        <ele>936.1</ele>
        <time>2023-11-19T09:45:44Z</time>
      </trkpt>
      <trkpt lat="43.02548" lon="0.18194">
        <ele>936.2</ele>
        <time>2023-11-19T09:45:45Z</time>
      </trkpt>
      <trkpt lat="43.02547" lon="0.18194">
        <ele>936.3</ele>
        <time>2023-11-19T09:45:46Z</time>
      </trkpt>
      <trkpt lat="43.02547" lon="0.18195">
        <ele>936.4</ele>
        <time>2023-11-19T09:45:47Z</time>
      </trkpt>
      <trkpt lat="43.02546" lon="0.18195">
        <ele>936.5</ele>
        <time>2023-11-19T09:45:48Z</time>
      </trkpt>
      <trkpt lat="43.02545" lon="0.18196">
        <ele>936.7</ele>
        <time>2023-11-19T09:45:49Z</time>
      </trkpt>
      <trkpt lat="43.02544" lon="0.18197">
        <ele>936.8</ele>
        <time>2023-11-19T09:45:50Z</time>
      </trkpt>
      <trkpt lat="43.02543" lon="0.18198">
        <ele>937</ele>
        <time>2023-11-19T09:45:51Z</time>
      </trkpt>
      <trkpt lat="43.02543" lon="0.18199">
        <ele>937</ele>
        <time>2023-11-19T09:45:52Z</time>
      </trkpt>
      <trkpt lat="43.02542" lon="0.18199">
        <ele>937.2</ele>
        <time>2023-11-19T09:45:53Z</time>
      </trkpt>
      <trkpt lat="43.02542" lon="0.182">
        <ele>937.3</ele>
        <time>2023-11-19T09:45:54Z</time>
      </trkpt>
      <trkpt lat="43.02541" lon="0.182">
        <ele>937.4</ele>
        <time>2023-11-19T09:45:55Z</time>
      </trkpt>
      <trkpt lat="43.02541" lon="0.182">
        <ele>937.4</ele>
        <time>2023-11-19T09:45:56Z</time>
      </trkpt>
      <trkpt lat="43.02542" lon="0.18201">
        <ele>937.4</ele>
        <time>2023-11-19T09:45:57Z</time>
      </trkpt>
      <trkpt lat="43.02542" lon="0.18201">
        <ele>937.4</ele>
        <time>2023-11-19T09:45:58Z</time>
      </trkpt>
      <trkpt lat="43.02542" lon="0.18201">
        <ele>937.5</ele>
        <time>2023-11-19T09:45:59Z</time>
      </trkpt>
      <trkpt lat="43.02542" lon="0.18201">
        <ele>937.5</ele>
        <time>2023-11-19T09:46:00Z</time>
      </trkpt>
      <trkpt lat="43.02542" lon="0.18201">
        <ele>937.5</ele>
        <time>2023-11-19T09:46:01Z</time>
      </trkpt>
      <trkpt lat="43.02542" lon="0.18201">
        <ele>937.5</ele>
        <time>2023-11-19T09:46:02Z</time>
      </trkpt>
      <trkpt lat="43.02542" lon="0.18201">
        <ele>937.5</ele>
        <time>2023-11-19T09:46:03Z</time>
      </trkpt>
      <trkpt lat="43.02542" lon="0.18201">
        <ele>937.5</ele>
        <time>2023-11-19T09:46:04Z</time>
      </trkpt>
      <trkpt lat="43.02542" lon="0.18201">
        <ele>937.5</ele>
        <time>2023-11-19T09:46:05Z</time>
      </trkpt>
      <trkpt lat="43.02542" lon="0.18201">
        <ele>937.5</ele>
        <time>2023-11-19T09:46:06Z</time>
      </trkpt>
      <trkpt lat="43.02541" lon="0.18202">
        <ele>937.7</ele>
        <time>2023-11-19T09:46:07Z</time>
      </trkpt>
      <trkpt lat="43.0254" lon="0.18202">
        <ele>937.7</ele>
        <time>2023-11-19T09:46:08Z</time>
      </trkpt>
      <trkpt lat="43.0254" lon="0.18202">
        <ele>937.7</ele>
        <time>2023-11-19T09:46:09Z</time>
      </trkpt>
      <trkpt lat="43.02541" lon="0.18203">
        <ele>937.8</ele>
        <time>2023-11-19T09:46:10Z</time>
      </trkpt>
      <trkpt lat="43.02541" lon="0.18202">
        <ele>937.8</ele>
        <time>2023-11-19T09:46:11Z</time>
      </trkpt>
      <trkpt lat="43.02541" lon="0.18202">
        <ele>937.8</ele>
        <time>2023-11-19T09:46:12Z</time>
      </trkpt>
      <trkpt lat="43.02542" lon="0.18202">
        <ele>938</ele>
        <time>2023-11-19T09:46:13Z</time>
      </trkpt>
      <trkpt lat="43.02543" lon="0.18201">
        <ele>938.1</ele>
        <time>2023-11-19T09:46:14Z</time>
      </trkpt>
      <trkpt lat="43.02543" lon="0.18202">
        <ele>938.2</ele>
        <time>2023-11-19T09:46:15Z</time>
      </trkpt>
      <trkpt lat="43.02543" lon="0.18201">
        <ele>938.3</ele>
        <time>2023-11-19T09:46:16Z</time>
      </trkpt>
      <trkpt lat="43.02544" lon="0.182">
        <ele>938.4</ele>
        <time>2023-11-19T09:46:17Z</time>
      </trkpt>
      <trkpt lat="43.02543" lon="0.18202">
        <ele>938.6</ele>
        <time>2023-11-19T09:46:18Z</time>
      </trkpt>
      <trkpt lat="43.02543" lon="0.18202">
        <ele>938.7</ele>
        <time>2023-11-19T09:46:19Z</time>
      </trkpt>
      <trkpt lat="43.02542" lon="0.18202">
        <ele>938.7</ele>
        <time>2023-11-19T09:46:20Z</time>
      </trkpt>
      <trkpt lat="43.02542" lon="0.18202">
        <ele>938.8</ele>
        <time>2023-11-19T09:46:21Z</time>
      </trkpt>
      <trkpt lat="43.02542" lon="0.18202">
        <ele>938.8</ele>
        <time>2023-11-19T09:46:22Z</time>
      </trkpt>
      <trkpt lat="43.02543" lon="0.18203">
        <ele>939</ele>
        <time>2023-11-19T09:46:23Z</time>
      </trkpt>
      <trkpt lat="43.02541" lon="0.18203">
        <ele>939.3</ele>
        <time>2023-11-19T09:46:24Z</time>
      </trkpt>
      <trkpt lat="43.02541" lon="0.18203">
        <ele>939.4</ele>
        <time>2023-11-19T09:46:26Z</time>
      </trkpt>
      <trkpt lat="43.02541" lon="0.18204">
        <ele>939.4</ele>
        <time>2023-11-19T09:46:27Z</time>
      </trkpt>
      <trkpt lat="43.02542" lon="0.18203">
        <ele>939.5</ele>
        <time>2023-11-19T09:46:28Z</time>
      </trkpt>
      <trkpt lat="43.02542" lon="0.18203">
        <ele>939.6</ele>
        <time>2023-11-19T09:46:29Z</time>
      </trkpt>
      <trkpt lat="43.02542" lon="0.18202">
        <ele>939.7</ele>
        <time>2023-11-19T09:46:30Z</time>
      </trkpt>
      <trkpt lat="43.02542" lon="0.18201">
        <ele>939.8</ele>
        <time>2023-11-19T09:46:31Z</time>
      </trkpt>
      <trkpt lat="43.02542" lon="0.18201">
        <ele>939.9</ele>
        <time>2023-11-19T09:46:32Z</time>
      </trkpt>
      <trkpt lat="43.02542" lon="0.18202">
        <ele>940.1</ele>
        <time>2023-11-19T09:46:33Z</time>
      </trkpt>
      <trkpt lat="43.02541" lon="0.18203">
        <ele>940.2</ele>
        <time>2023-11-19T09:46:34Z</time>
      </trkpt>
      <trkpt lat="43.02542" lon="0.18202">
        <ele>940.4</ele>
        <time>2023-11-19T09:46:35Z</time>
      </trkpt>
      <trkpt lat="43.02541" lon="0.18202">
        <ele>940.4</ele>
        <time>2023-11-19T09:46:36Z</time>
      </trkpt>
      <trkpt lat="43.02541" lon="0.18202">
        <ele>940.5</ele>
        <time>2023-11-19T09:46:37Z</time>
      </trkpt>
      <trkpt lat="43.02541" lon="0.18202">
        <ele>940.5</ele>
        <time>2023-11-19T09:46:38Z</time>
      </trkpt>
      <trkpt lat="43.02541" lon="0.18202">
        <ele>940.5</ele>
        <time>2023-11-19T09:46:39Z</time>
      </trkpt>
      <trkpt lat="43.02541" lon="0.18202">
        <ele>940.5</ele>
        <time>2023-11-19T09:46:40Z</time>
      </trkpt>
      <trkpt lat="43.02541" lon="0.18202">
        <ele>940.5</ele>
        <time>2023-11-19T09:46:41Z</time>
      </trkpt>
      <trkpt lat="43.02541" lon="0.18202">
        <ele>940.5</ele>
        <time>2023-11-19T09:46:42Z</time>
      </trkpt>
      <trkpt lat="43.02541" lon="0.18202">
        <ele>940.5</ele>
        <time>2023-11-19T09:46:43Z</time>
      </trkpt>
      <trkpt lat="43.02541" lon="0.18202">
        <ele>940.5</ele>
        <time>2023-11-19T09:46:44Z</time>
      </trkpt>
      <trkpt lat="43.02541" lon="0.18202">
        <ele>940.6</ele>
        <time>2023-11-19T09:46:45Z</time>
      </trkpt>
      <trkpt lat="43.02541" lon="0.18202">
        <ele>940.6</ele>
        <time>2023-11-19T09:46:46Z</time>
      </trkpt>
      <trkpt lat="43.02541" lon="0.18202">
        <ele>940.6</ele>
        <time>2023-11-19T09:46:47Z</time>
      </trkpt>
      <trkpt lat="43.0254" lon="0.18203">
        <ele>940.7</ele>
        <time>2023-11-19T09:46:48Z</time>
      </trkpt>
      <trkpt lat="43.0254" lon="0.18203">
        <ele>940.8</ele>
        <time>2023-11-19T09:46:49Z</time>
      </trkpt>
      <trkpt lat="43.0254" lon="0.18203">
        <ele>940.8</ele>
        <time>2023-11-19T09:46:50Z</time>
      </trkpt>
      <trkpt lat="43.0254" lon="0.18203">
        <ele>940.8</ele>
        <time>2023-11-19T09:46:51Z</time>
      </trkpt>
      <trkpt lat="43.0254" lon="0.18203">
        <ele>940.8</ele>
        <time>2023-11-19T09:46:52Z</time>
      </trkpt>
      <trkpt lat="43.0254" lon="0.18204">
        <ele>940.8</ele>
        <time>2023-11-19T09:46:53Z</time>
      </trkpt>
      <trkpt lat="43.0254" lon="0.18204">
        <ele>940.8</ele>
        <time>2023-11-19T09:46:54Z</time>
      </trkpt>
      <trkpt lat="43.0254" lon="0.18204">
        <ele>940.8</ele>
        <time>2023-11-19T09:46:55Z</time>
      </trkpt>
      <trkpt lat="43.0254" lon="0.18204">
        <ele>940.9</ele>
        <time>2023-11-19T09:46:56Z</time>
      </trkpt>
      <trkpt lat="43.0254" lon="0.18204">
        <ele>940.9</ele>
        <time>2023-11-19T09:46:57Z</time>
      </trkpt>
      <trkpt lat="43.0254" lon="0.18204">
        <ele>940.9</ele>
        <time>2023-11-19T09:46:58Z</time>
      </trkpt>
      <trkpt lat="43.02539" lon="0.18204">
        <ele>940.9</ele>
        <time>2023-11-19T09:46:59Z</time>
      </trkpt>
      <trkpt lat="43.02539" lon="0.18204">
        <ele>940.9</ele>
        <time>2023-11-19T09:47:00Z</time>
      </trkpt>
      <trkpt lat="43.02539" lon="0.18204">
        <ele>940.9</ele>
        <time>2023-11-19T09:47:01Z</time>
      </trkpt>
      <trkpt lat="43.02539" lon="0.18204">
        <ele>940.9</ele>
        <time>2023-11-19T09:47:02Z</time>
      </trkpt>
      <trkpt lat="43.02539" lon="0.18205">
        <ele>941</ele>
        <time>2023-11-19T09:47:03Z</time>
      </trkpt>
      <trkpt lat="43.02539" lon="0.18205">
        <ele>941</ele>
        <time>2023-11-19T09:47:04Z</time>
      </trkpt>
      <trkpt lat="43.02539" lon="0.18205">
        <ele>941</ele>
        <time>2023-11-19T09:47:05Z</time>
      </trkpt>
      <trkpt lat="43.02539" lon="0.18205">
        <ele>941</ele>
        <time>2023-11-19T09:47:06Z</time>
      </trkpt>
      <trkpt lat="43.02539" lon="0.18205">
        <ele>941</ele>
        <time>2023-11-19T09:47:07Z</time>
      </trkpt>
      <trkpt lat="43.02539" lon="0.18205">
        <ele>941</ele>
        <time>2023-11-19T09:47:08Z</time>
      </trkpt>
      <trkpt lat="43.02539" lon="0.18205">
        <ele>941</ele>
        <time>2023-11-19T09:47:09Z</time>
      </trkpt>
      <trkpt lat="43.02539" lon="0.18205">
        <ele>941.1</ele>
        <time>2023-11-19T09:47:10Z</time>
      </trkpt>
      <trkpt lat="43.02539" lon="0.18205">
        <ele>941.1</ele>
        <time>2023-11-19T09:47:11Z</time>
      </trkpt>
      <trkpt lat="43.02539" lon="0.18206">
        <ele>941.1</ele>
        <time>2023-11-19T09:47:12Z</time>
      </trkpt>
      <trkpt lat="43.02539" lon="0.18206">
        <ele>941.1</ele>
        <time>2023-11-19T09:47:13Z</time>
      </trkpt>
      <trkpt lat="43.02539" lon="0.18206">
        <ele>941.1</ele>
        <time>2023-11-19T09:47:14Z</time>
      </trkpt>
      <trkpt lat="43.02539" lon="0.18206">
        <ele>941.2</ele>
        <time>2023-11-19T09:47:15Z</time>
      </trkpt>
      <trkpt lat="43.02539" lon="0.18206">
        <ele>941.2</ele>
        <time>2023-11-19T09:47:16Z</time>
      </trkpt>
      <trkpt lat="43.02539" lon="0.18206">
        <ele>941.2</ele>
        <time>2023-11-19T09:47:17Z</time>
      </trkpt>
      <trkpt lat="43.02539" lon="0.18206">
        <ele>941.2</ele>
        <time>2023-11-19T09:47:18Z</time>
      </trkpt>
      <trkpt lat="43.02539" lon="0.18206">
        <ele>941.2</ele>
        <time>2023-11-19T09:47:19Z</time>
      </trkpt>
      <trkpt lat="43.02539" lon="0.18206">
        <ele>941.2</ele>
        <time>2023-11-19T09:47:20Z</time>
      </trkpt>
      <trkpt lat="43.02539" lon="0.18206">
        <ele>941.2</ele>
        <time>2023-11-19T09:47:21Z</time>
      </trkpt>
      <trkpt lat="43.02539" lon="0.18207">
        <ele>941.3</ele>
        <time>2023-11-19T09:47:22Z</time>
      </trkpt>
      <trkpt lat="43.02539" lon="0.18207">
        <ele>941.3</ele>
        <time>2023-11-19T09:47:23Z</time>
      </trkpt>
      <trkpt lat="43.02539" lon="0.18207">
        <ele>941.3</ele>
        <time>2023-11-19T09:47:24Z</time>
      </trkpt>
      <trkpt lat="43.02539" lon="0.18207">
        <ele>941.3</ele>
        <time>2023-11-19T09:47:25Z</time>
      </trkpt>
      <trkpt lat="43.02539" lon="0.18207">
        <ele>941.3</ele>
        <time>2023-11-19T09:47:26Z</time>
      </trkpt>
      <trkpt lat="43.02538" lon="0.18207">
        <ele>941.3</ele>
        <time>2023-11-19T09:47:27Z</time>
      </trkpt>
      <trkpt lat="43.02538" lon="0.18207">
        <ele>941.3</ele>
        <time>2023-11-19T09:47:28Z</time>
      </trkpt>
      <trkpt lat="43.02538" lon="0.18207">
        <ele>941.4</ele>
        <time>2023-11-19T09:47:29Z</time>
      </trkpt>
      <trkpt lat="43.02538" lon="0.18207">
        <ele>941.4</ele>
        <time>2023-11-19T09:47:30Z</time>
      </trkpt>
      <trkpt lat="43.02538" lon="0.18207">
        <ele>941.4</ele>
        <time>2023-11-19T09:47:31Z</time>
      </trkpt>
      <trkpt lat="43.02538" lon="0.18208">
        <ele>941.6</ele>
        <time>2023-11-19T09:47:32Z</time>
      </trkpt>
      <trkpt lat="43.02538" lon="0.18209">
        <ele>941.7</ele>
        <time>2023-11-19T09:47:33Z</time>
      </trkpt>
      <trkpt lat="43.02538" lon="0.1821">
        <ele>941.7</ele>
        <time>2023-11-19T09:47:34Z</time>
      </trkpt>
      <trkpt lat="43.02538" lon="0.18211">
        <ele>941.9</ele>
        <time>2023-11-19T09:47:35Z</time>
      </trkpt>
      <trkpt lat="43.02537" lon="0.18211">
        <ele>942</ele>
        <time>2023-11-19T09:47:36Z</time>
      </trkpt>
      <trkpt lat="43.02537" lon="0.18213">
        <ele>942.2</ele>
        <time>2023-11-19T09:47:37Z</time>
      </trkpt>
      <trkpt lat="43.02536" lon="0.18214">
        <ele>942.5</ele>
        <time>2023-11-19T09:47:38Z</time>
      </trkpt>
      <trkpt lat="43.02537" lon="0.18216">
        <ele>942.7</ele>
        <time>2023-11-19T09:47:39Z</time>
      </trkpt>
      <trkpt lat="43.02537" lon="0.18217">
        <ele>942.9</ele>
        <time>2023-11-19T09:47:40Z</time>
      </trkpt>
      <trkpt lat="43.02537" lon="0.18218">
        <ele>943</ele>
        <time>2023-11-19T09:47:41Z</time>
      </trkpt>
      <trkpt lat="43.02538" lon="0.18219">
        <ele>943.1</ele>
        <time>2023-11-19T09:47:42Z</time>
      </trkpt>
      <trkpt lat="43.02539" lon="0.1822">
        <ele>943.3</ele>
        <time>2023-11-19T09:47:43Z</time>
      </trkpt>
      <trkpt lat="43.02539" lon="0.18221">
        <ele>943.5</ele>
        <time>2023-11-19T09:47:44Z</time>
      </trkpt>
      <trkpt lat="43.0254" lon="0.18221">
        <ele>943.6</ele>
        <time>2023-11-19T09:47:45Z</time>
      </trkpt>
      <trkpt lat="43.0254" lon="0.18222">
        <ele>943.7</ele>
        <time>2023-11-19T09:47:46Z</time>
      </trkpt>
      <trkpt lat="43.0254" lon="0.18223">
        <ele>943.8</ele>
        <time>2023-11-19T09:47:47Z</time>
      </trkpt>
      <trkpt lat="43.02541" lon="0.18223">
        <ele>943.8</ele>
        <time>2023-11-19T09:47:48Z</time>
      </trkpt>
      <trkpt lat="43.02541" lon="0.18223">
        <ele>944</ele>
        <time>2023-11-19T09:47:49Z</time>
      </trkpt>
      <trkpt lat="43.02541" lon="0.18224">
        <ele>944.1</ele>
        <time>2023-11-19T09:47:50Z</time>
      </trkpt>
      <trkpt lat="43.02541" lon="0.18224">
        <ele>944.2</ele>
        <time>2023-11-19T09:47:51Z</time>
      </trkpt>
      <trkpt lat="43.02541" lon="0.18224">
        <ele>944.3</ele>
        <time>2023-11-19T09:47:52Z</time>
      </trkpt>
      <trkpt lat="43.02542" lon="0.18225">
        <ele>944.6</ele>
        <time>2023-11-19T09:47:53Z</time>
      </trkpt>
      <trkpt lat="43.02542" lon="0.18226">
        <ele>944.8</ele>
        <time>2023-11-19T09:47:54Z</time>
      </trkpt>
      <trkpt lat="43.02542" lon="0.18226">
        <ele>945</ele>
        <time>2023-11-19T09:47:55Z</time>
      </trkpt>
      <trkpt lat="43.02542" lon="0.18227">
        <ele>945.2</ele>
        <time>2023-11-19T09:47:56Z</time>
      </trkpt>
      <trkpt lat="43.02543" lon="0.18228">
        <ele>945.4</ele>
        <time>2023-11-19T09:47:57Z</time>
      </trkpt>
      <trkpt lat="43.02543" lon="0.18229">
        <ele>945.6</ele>
        <time>2023-11-19T09:47:58Z</time>
      </trkpt>
      <trkpt lat="43.02543" lon="0.1823">
        <ele>945.8</ele>
        <time>2023-11-19T09:47:59Z</time>
      </trkpt>
      <trkpt lat="43.02543" lon="0.1823">
        <ele>945.9</ele>
        <time>2023-11-19T09:48:00Z</time>
      </trkpt>
      <trkpt lat="43.02543" lon="0.18231">
        <ele>946.1</ele>
        <time>2023-11-19T09:48:01Z</time>
      </trkpt>
      <trkpt lat="43.02543" lon="0.18231">
        <ele>946.2</ele>
        <time>2023-11-19T09:48:02Z</time>
      </trkpt>
      <trkpt lat="43.02543" lon="0.18232">
        <ele>946.3</ele>
        <time>2023-11-19T09:48:03Z</time>
      </trkpt>
      <trkpt lat="43.02543" lon="0.18233">
        <ele>946.6</ele>
        <time>2023-11-19T09:48:04Z</time>
      </trkpt>
      <trkpt lat="43.02543" lon="0.18233">
        <ele>946.8</ele>
        <time>2023-11-19T09:48:05Z</time>
      </trkpt>
      <trkpt lat="43.02544" lon="0.18234">
        <ele>947</ele>
        <time>2023-11-19T09:48:06Z</time>
      </trkpt>
      <trkpt lat="43.02544" lon="0.18235">
        <ele>947.1</ele>
        <time>2023-11-19T09:48:07Z</time>
      </trkpt>
      <trkpt lat="43.02544" lon="0.18236">
        <ele>947.4</ele>
        <time>2023-11-19T09:48:08Z</time>
      </trkpt>
      <trkpt lat="43.02544" lon="0.18237">
        <ele>947.6</ele>
        <time>2023-11-19T09:48:09Z</time>
      </trkpt>
      <trkpt lat="43.02544" lon="0.18237">
        <ele>947.7</ele>
        <time>2023-11-19T09:48:10Z</time>
      </trkpt>
      <trkpt lat="43.02545" lon="0.18238">
        <ele>948.1</ele>
        <time>2023-11-19T09:48:11Z</time>
      </trkpt>
      <trkpt lat="43.02545" lon="0.18239">
        <ele>948.3</ele>
        <time>2023-11-19T09:48:12Z</time>
      </trkpt>
      <trkpt lat="43.02545" lon="0.18239">
        <ele>948.4</ele>
        <time>2023-11-19T09:48:13Z</time>
      </trkpt>
      <trkpt lat="43.02545" lon="0.1824">
        <ele>948.7</ele>
        <time>2023-11-19T09:48:14Z</time>
      </trkpt>
      <trkpt lat="43.02546" lon="0.1824">
        <ele>948.9</ele>
        <time>2023-11-19T09:48:15Z</time>
      </trkpt>
      <trkpt lat="43.02546" lon="0.1824">
        <ele>949</ele>
        <time>2023-11-19T09:48:16Z</time>
      </trkpt>
      <trkpt lat="43.02547" lon="0.18241">
        <ele>949.3</ele>
        <time>2023-11-19T09:48:17Z</time>
      </trkpt>
      <trkpt lat="43.02547" lon="0.18241">
        <ele>949.3</ele>
        <time>2023-11-19T09:48:18Z</time>
      </trkpt>
      <trkpt lat="43.02547" lon="0.18242">
        <ele>949.5</ele>
        <time>2023-11-19T09:48:19Z</time>
      </trkpt>
      <trkpt lat="43.02547" lon="0.18243">
        <ele>949.8</ele>
        <time>2023-11-19T09:48:20Z</time>
      </trkpt>
      <trkpt lat="43.02548" lon="0.18243">
        <ele>949.9</ele>
        <time>2023-11-19T09:48:21Z</time>
      </trkpt>
      <trkpt lat="43.02548" lon="0.18244">
        <ele>950.1</ele>
        <time>2023-11-19T09:48:22Z</time>
      </trkpt>
      <trkpt lat="43.02548" lon="0.18245">
        <ele>950.3</ele>
        <time>2023-11-19T09:48:23Z</time>
      </trkpt>
      <trkpt lat="43.02548" lon="0.18246">
        <ele>950.7</ele>
        <time>2023-11-19T09:48:24Z</time>
      </trkpt>
      <trkpt lat="43.02549" lon="0.18247">
        <ele>950.9</ele>
        <time>2023-11-19T09:48:25Z</time>
      </trkpt>
      <trkpt lat="43.02549" lon="0.18248">
        <ele>951.1</ele>
        <time>2023-11-19T09:48:26Z</time>
      </trkpt>
      <trkpt lat="43.02549" lon="0.18248">
        <ele>951.3</ele>
        <time>2023-11-19T09:48:27Z</time>
      </trkpt>
      <trkpt lat="43.0255" lon="0.18249">
        <ele>951.5</ele>
        <time>2023-11-19T09:48:28Z</time>
      </trkpt>
      <trkpt lat="43.0255" lon="0.1825">
        <ele>951.9</ele>
        <time>2023-11-19T09:48:29Z</time>
      </trkpt>
      <trkpt lat="43.02551" lon="0.18251">
        <ele>952.1</ele>
        <time>2023-11-19T09:48:30Z</time>
      </trkpt>
      <trkpt lat="43.02551" lon="0.18252">
        <ele>952.4</ele>
        <time>2023-11-19T09:48:31Z</time>
      </trkpt>
      <trkpt lat="43.02551" lon="0.18253">
        <ele>952.5</ele>
        <time>2023-11-19T09:48:32Z</time>
      </trkpt>
      <trkpt lat="43.02552" lon="0.18254">
        <ele>952.7</ele>
        <time>2023-11-19T09:48:33Z</time>
      </trkpt>
      <trkpt lat="43.02553" lon="0.18254">
        <ele>953</ele>
        <time>2023-11-19T09:48:34Z</time>
      </trkpt>
      <trkpt lat="43.02552" lon="0.18255">
        <ele>953.2</ele>
        <time>2023-11-19T09:48:35Z</time>
      </trkpt>
      <trkpt lat="43.02553" lon="0.18255">
        <ele>953.5</ele>
        <time>2023-11-19T09:48:36Z</time>
      </trkpt>
      <trkpt lat="43.02554" lon="0.18256">
        <ele>953.7</ele>
        <time>2023-11-19T09:48:37Z</time>
      </trkpt>
      <trkpt lat="43.02554" lon="0.18256">
        <ele>953.8</ele>
        <time>2023-11-19T09:48:38Z</time>
      </trkpt>
      <trkpt lat="43.02553" lon="0.18256">
        <ele>954</ele>
        <time>2023-11-19T09:48:39Z</time>
      </trkpt>
      <trkpt lat="43.02555" lon="0.18256">
        <ele>954.5</ele>
        <time>2023-11-19T09:48:40Z</time>
      </trkpt>
      <trkpt lat="43.02555" lon="0.18256">
        <ele>954.6</ele>
        <time>2023-11-19T09:48:41Z</time>
      </trkpt>
      <trkpt lat="43.02555" lon="0.18257">
        <ele>954.7</ele>
        <time>2023-11-19T09:48:42Z</time>
      </trkpt>
      <trkpt lat="43.02555" lon="0.18258">
        <ele>955</ele>
        <time>2023-11-19T09:48:43Z</time>
      </trkpt>
      <trkpt lat="43.02555" lon="0.18259">
        <ele>955.3</ele>
        <time>2023-11-19T09:48:44Z</time>
      </trkpt>
      <trkpt lat="43.02555" lon="0.1826">
        <ele>955.6</ele>
        <time>2023-11-19T09:48:45Z</time>
      </trkpt>
      <trkpt lat="43.02555" lon="0.18261">
        <ele>955.6</ele>
        <time>2023-11-19T09:48:46Z</time>
      </trkpt>
      <trkpt lat="43.02555" lon="0.18262">
        <ele>955.9</ele>
        <time>2023-11-19T09:48:47Z</time>
      </trkpt>
      <trkpt lat="43.02555" lon="0.18263">
        <ele>956.1</ele>
        <time>2023-11-19T09:48:48Z</time>
      </trkpt>
      <trkpt lat="43.02556" lon="0.18263">
        <ele>956.2</ele>
        <time>2023-11-19T09:48:49Z</time>
      </trkpt>
      <trkpt lat="43.02556" lon="0.18263">
        <ele>956.4</ele>
        <time>2023-11-19T09:48:50Z</time>
      </trkpt>
      <trkpt lat="43.02557" lon="0.18265">
        <ele>956.7</ele>
        <time>2023-11-19T09:48:51Z</time>
      </trkpt>
      <trkpt lat="43.02557" lon="0.18264">
        <ele>956.9</ele>
        <time>2023-11-19T09:48:52Z</time>
      </trkpt>
      <trkpt lat="43.02557" lon="0.18265">
        <ele>957</ele>
        <time>2023-11-19T09:48:53Z</time>
      </trkpt>
      <trkpt lat="43.02558" lon="0.18265">
        <ele>957.3</ele>
        <time>2023-11-19T09:48:54Z</time>
      </trkpt>
      <trkpt lat="43.02559" lon="0.18266">
        <ele>957.6</ele>
        <time>2023-11-19T09:48:55Z</time>
      </trkpt>
      <trkpt lat="43.02559" lon="0.18267">
        <ele>957.7</ele>
        <time>2023-11-19T09:48:56Z</time>
      </trkpt>
      <trkpt lat="43.02559" lon="0.18267">
        <ele>957.8</ele>
        <time>2023-11-19T09:48:57Z</time>
      </trkpt>
      <trkpt lat="43.02559" lon="0.18268">
        <ele>958</ele>
        <time>2023-11-19T09:48:58Z</time>
      </trkpt>
      <trkpt lat="43.02559" lon="0.18269">
        <ele>958.3</ele>
        <time>2023-11-19T09:48:59Z</time>
      </trkpt>
      <trkpt lat="43.0256" lon="0.1827">
        <ele>958.5</ele>
        <time>2023-11-19T09:49:00Z</time>
      </trkpt>
      <trkpt lat="43.0256" lon="0.1827">
        <ele>958.6</ele>
        <time>2023-11-19T09:49:01Z</time>
      </trkpt>
      <trkpt lat="43.0256" lon="0.1827">
        <ele>958.7</ele>
        <time>2023-11-19T09:49:02Z</time>
      </trkpt>
      <trkpt lat="43.0256" lon="0.1827">
        <ele>958.8</ele>
        <time>2023-11-19T09:49:03Z</time>
      </trkpt>
      <trkpt lat="43.02561" lon="0.18271">
        <ele>958.9</ele>
        <time>2023-11-19T09:49:04Z</time>
      </trkpt>
      <trkpt lat="43.02561" lon="0.18271">
        <ele>959</ele>
        <time>2023-11-19T09:49:05Z</time>
      </trkpt>
      <trkpt lat="43.02561" lon="0.18271">
        <ele>959.1</ele>
        <time>2023-11-19T09:49:06Z</time>
      </trkpt>
      <trkpt lat="43.02561" lon="0.18272">
        <ele>959.2</ele>
        <time>2023-11-19T09:49:07Z</time>
      </trkpt>
      <trkpt lat="43.02561" lon="0.18272">
        <ele>959.3</ele>
        <time>2023-11-19T09:49:08Z</time>
      </trkpt>
      <trkpt lat="43.02562" lon="0.18272">
        <ele>959.4</ele>
        <time>2023-11-19T09:49:09Z</time>
      </trkpt>
      <trkpt lat="43.02562" lon="0.18273">
        <ele>959.5</ele>
        <time>2023-11-19T09:49:10Z</time>
      </trkpt>
      <trkpt lat="43.02562" lon="0.18273">
        <ele>959.6</ele>
        <time>2023-11-19T09:49:11Z</time>
      </trkpt>
      <trkpt lat="43.02562" lon="0.18273">
        <ele>959.7</ele>
        <time>2023-11-19T09:49:12Z</time>
      </trkpt>
      <trkpt lat="43.02562" lon="0.18274">
        <ele>959.8</ele>
        <time>2023-11-19T09:49:13Z</time>
      </trkpt>
      <trkpt lat="43.02563" lon="0.18274">
        <ele>959.9</ele>
        <time>2023-11-19T09:49:14Z</time>
      </trkpt>
      <trkpt lat="43.02563" lon="0.18274">
        <ele>960</ele>
        <time>2023-11-19T09:49:15Z</time>
      </trkpt>
      <trkpt lat="43.02563" lon="0.18275">
        <ele>960</ele>
        <time>2023-11-19T09:49:16Z</time>
      </trkpt>
      <trkpt lat="43.02563" lon="0.18275">
        <ele>960.1</ele>
        <time>2023-11-19T09:49:17Z</time>
      </trkpt>
      <trkpt lat="43.02563" lon="0.18275">
        <ele>960.2</ele>
        <time>2023-11-19T09:49:18Z</time>
      </trkpt>
      <trkpt lat="43.02563" lon="0.18275">
        <ele>960.2</ele>
        <time>2023-11-19T09:49:19Z</time>
      </trkpt>
      <trkpt lat="43.02563" lon="0.18275">
        <ele>960.3</ele>
        <time>2023-11-19T09:49:20Z</time>
      </trkpt>
      <trkpt lat="43.02564" lon="0.18275">
        <ele>960.4</ele>
        <time>2023-11-19T09:49:21Z</time>
      </trkpt>
      <trkpt lat="43.02564" lon="0.18275">
        <ele>960.4</ele>
        <time>2023-11-19T09:49:22Z</time>
      </trkpt>
      <trkpt lat="43.02564" lon="0.18275">
        <ele>960.4</ele>
        <time>2023-11-19T09:49:23Z</time>
      </trkpt>
      <trkpt lat="43.02564" lon="0.18275">
        <ele>960.4</ele>
        <time>2023-11-19T09:49:24Z</time>
      </trkpt>
      <trkpt lat="43.02564" lon="0.18275">
        <ele>960.4</ele>
        <time>2023-11-19T09:49:25Z</time>
      </trkpt>
      <trkpt lat="43.02564" lon="0.18275">
        <ele>960.4</ele>
        <time>2023-11-19T09:49:26Z</time>
      </trkpt>
      <trkpt lat="43.02564" lon="0.18275">
        <ele>960.4</ele>
        <time>2023-11-19T09:49:27Z</time>
      </trkpt>
      <trkpt lat="43.02564" lon="0.18275">
        <ele>960.4</ele>
        <time>2023-11-19T09:49:28Z</time>
      </trkpt>
      <trkpt lat="43.02565" lon="0.18275">
        <ele>960.9</ele>
        <time>2023-11-19T09:49:29Z</time>
      </trkpt>
      <trkpt lat="43.02565" lon="0.18276">
        <ele>960.9</ele>
        <time>2023-11-19T09:49:30Z</time>
      </trkpt>
      <trkpt lat="43.02565" lon="0.18276">
        <ele>961</ele>
        <time>2023-11-19T09:49:31Z</time>
      </trkpt>
      <trkpt lat="43.02565" lon="0.18276">
        <ele>961.3</ele>
        <time>2023-11-19T09:49:32Z</time>
      </trkpt>
      <trkpt lat="43.02565" lon="0.18276">
        <ele>961.3</ele>
        <time>2023-11-19T09:49:33Z</time>
      </trkpt>
      <trkpt lat="43.02565" lon="0.18276">
        <ele>961.4</ele>
        <time>2023-11-19T09:49:34Z</time>
      </trkpt>
      <trkpt lat="43.02565" lon="0.18276">
        <ele>961.4</ele>
        <time>2023-11-19T09:49:35Z</time>
      </trkpt>
      <trkpt lat="43.02565" lon="0.18276">
        <ele>961.5</ele>
        <time>2023-11-19T09:49:36Z</time>
      </trkpt>
      <trkpt lat="43.02565" lon="0.18279">
        <ele>962.1</ele>
        <time>2023-11-19T09:49:37Z</time>
      </trkpt>
      <trkpt lat="43.02566" lon="0.18279">
        <ele>962.3</ele>
        <time>2023-11-19T09:49:38Z</time>
      </trkpt>
      <trkpt lat="43.02566" lon="0.1828">
        <ele>962.6</ele>
        <time>2023-11-19T09:49:39Z</time>
      </trkpt>
      <trkpt lat="43.02567" lon="0.18281">
        <ele>962.9</ele>
        <time>2023-11-19T09:49:40Z</time>
      </trkpt>
      <trkpt lat="43.02567" lon="0.18282">
        <ele>963.2</ele>
        <time>2023-11-19T09:49:41Z</time>
      </trkpt>
      <trkpt lat="43.02568" lon="0.18283">
        <ele>963.5</ele>
        <time>2023-11-19T09:49:42Z</time>
      </trkpt>
      <trkpt lat="43.02569" lon="0.18283">
        <ele>963.8</ele>
        <time>2023-11-19T09:49:43Z</time>
      </trkpt>
      <trkpt lat="43.02569" lon="0.18282">
        <ele>963.9</ele>
        <time>2023-11-19T09:49:44Z</time>
      </trkpt>
      <trkpt lat="43.02569" lon="0.18282">
        <ele>964</ele>
        <time>2023-11-19T09:49:45Z</time>
      </trkpt>
      <trkpt lat="43.0257" lon="0.18283">
        <ele>964.6</ele>
        <time>2023-11-19T09:49:46Z</time>
      </trkpt>
      <trkpt lat="43.02571" lon="0.18283">
        <ele>964.7</ele>
        <time>2023-11-19T09:49:47Z</time>
      </trkpt>
      <trkpt lat="43.02569" lon="0.18283">
        <ele>965.1</ele>
        <time>2023-11-19T09:49:48Z</time>
      </trkpt>
      <trkpt lat="43.02569" lon="0.18284">
        <ele>965.5</ele>
        <time>2023-11-19T09:49:49Z</time>
      </trkpt>
      <trkpt lat="43.02571" lon="0.18284">
        <ele>965.8</ele>
        <time>2023-11-19T09:49:50Z</time>
      </trkpt>
      <trkpt lat="43.0257" lon="0.18284">
        <ele>966</ele>
        <time>2023-11-19T09:49:51Z</time>
      </trkpt>
      <trkpt lat="43.02571" lon="0.18285">
        <ele>966.3</ele>
        <time>2023-11-19T09:49:52Z</time>
      </trkpt>
      <trkpt lat="43.02571" lon="0.18286">
        <ele>966.5</ele>
        <time>2023-11-19T09:49:53Z</time>
      </trkpt>
      <trkpt lat="43.02571" lon="0.18286">
        <ele>966.5</ele>
        <time>2023-11-19T09:49:54Z</time>
      </trkpt>
      <trkpt lat="43.02571" lon="0.18287">
        <ele>966.7</ele>
        <time>2023-11-19T09:49:55Z</time>
      </trkpt>
      <trkpt lat="43.02571" lon="0.18288">
        <ele>966.9</ele>
        <time>2023-11-19T09:49:56Z</time>
      </trkpt>
      <trkpt lat="43.02572" lon="0.18289">
        <ele>967.4</ele>
        <time>2023-11-19T09:49:57Z</time>
      </trkpt>
      <trkpt lat="43.02572" lon="0.18289">
        <ele>967.4</ele>
        <time>2023-11-19T09:49:58Z</time>
      </trkpt>
      <trkpt lat="43.02572" lon="0.1829">
        <ele>967.6</ele>
        <time>2023-11-19T09:49:59Z</time>
      </trkpt>
      <trkpt lat="43.02572" lon="0.18289">
        <ele>967.8</ele>
        <time>2023-11-19T09:50:00Z</time>
      </trkpt>
      <trkpt lat="43.02572" lon="0.18289">
        <ele>967.9</ele>
        <time>2023-11-19T09:50:01Z</time>
      </trkpt>
      <trkpt lat="43.02572" lon="0.1829">
        <ele>968.1</ele>
        <time>2023-11-19T09:50:02Z</time>
      </trkpt>
      <trkpt lat="43.02573" lon="0.1829">
        <ele>968.3</ele>
        <time>2023-11-19T09:50:03Z</time>
      </trkpt>
      <trkpt lat="43.02573" lon="0.18291">
        <ele>968.6</ele>
        <time>2023-11-19T09:50:04Z</time>
      </trkpt>
      <trkpt lat="43.02573" lon="0.18293">
        <ele>968.9</ele>
        <time>2023-11-19T09:50:05Z</time>
      </trkpt>
      <trkpt lat="43.02573" lon="0.18293">
        <ele>968.9</ele>
        <time>2023-11-19T09:50:06Z</time>
      </trkpt>
      <trkpt lat="43.02573" lon="0.18294">
        <ele>969.1</ele>
        <time>2023-11-19T09:50:07Z</time>
      </trkpt>
      <trkpt lat="43.02573" lon="0.18294">
        <ele>969.2</ele>
        <time>2023-11-19T09:50:08Z</time>
      </trkpt>
      <trkpt lat="43.02575" lon="0.18296">
        <ele>969.9</ele>
        <time>2023-11-19T09:50:09Z</time>
      </trkpt>
      <trkpt lat="43.02574" lon="0.18296">
        <ele>970.1</ele>
        <time>2023-11-19T09:50:10Z</time>
      </trkpt>
      <trkpt lat="43.02574" lon="0.18296">
        <ele>970.2</ele>
        <time>2023-11-19T09:50:11Z</time>
      </trkpt>
      <trkpt lat="43.02574" lon="0.18297">
        <ele>970.4</ele>
        <time>2023-11-19T09:50:12Z</time>
      </trkpt>
      <trkpt lat="43.02575" lon="0.18297">
        <ele>970.5</ele>
        <time>2023-11-19T09:50:13Z</time>
      </trkpt>
      <trkpt lat="43.02575" lon="0.18298">
        <ele>970.6</ele>
        <time>2023-11-19T09:50:14Z</time>
      </trkpt>
      <trkpt lat="43.02574" lon="0.18297">
        <ele>970.8</ele>
        <time>2023-11-19T09:50:15Z</time>
      </trkpt>
      <trkpt lat="43.02575" lon="0.18299">
        <ele>971</ele>
        <time>2023-11-19T09:50:16Z</time>
      </trkpt>
      <trkpt lat="43.02575" lon="0.18299">
        <ele>971</ele>
        <time>2023-11-19T09:50:17Z</time>
      </trkpt>
      <trkpt lat="43.02576" lon="0.18299">
        <ele>971.2</ele>
        <time>2023-11-19T09:50:18Z</time>
      </trkpt>
      <trkpt lat="43.02574" lon="0.18297">
        <ele>971.7</ele>
        <time>2023-11-19T09:50:19Z</time>
      </trkpt>
      <trkpt lat="43.02576" lon="0.183">
        <ele>972.3</ele>
        <time>2023-11-19T09:50:20Z</time>
      </trkpt>
      <trkpt lat="43.02575" lon="0.18301">
        <ele>972.5</ele>
        <time>2023-11-19T09:50:21Z</time>
      </trkpt>
      <trkpt lat="43.02575" lon="0.18303">
        <ele>972.7</ele>
        <time>2023-11-19T09:50:22Z</time>
      </trkpt>
      <trkpt lat="43.02575" lon="0.18304">
        <ele>972.9</ele>
        <time>2023-11-19T09:50:23Z</time>
      </trkpt>
      <trkpt lat="43.02575" lon="0.18304">
        <ele>973.1</ele>
        <time>2023-11-19T09:50:24Z</time>
      </trkpt>
      <trkpt lat="43.02575" lon="0.18306">
        <ele>973.3</ele>
        <time>2023-11-19T09:50:25Z</time>
      </trkpt>
      <trkpt lat="43.02575" lon="0.18306">
        <ele>973.4</ele>
        <time>2023-11-19T09:50:26Z</time>
      </trkpt>
      <trkpt lat="43.02575" lon="0.18307">
        <ele>973.5</ele>
        <time>2023-11-19T09:50:27Z</time>
      </trkpt>
      <trkpt lat="43.02575" lon="0.18308">
        <ele>973.6</ele>
        <time>2023-11-19T09:50:28Z</time>
      </trkpt>
      <trkpt lat="43.02575" lon="0.18309">
        <ele>973.7</ele>
        <time>2023-11-19T09:50:29Z</time>
      </trkpt>
      <trkpt lat="43.02575" lon="0.18308">
        <ele>973.8</ele>
        <time>2023-11-19T09:50:30Z</time>
      </trkpt>
      <trkpt lat="43.02574" lon="0.18308">
        <ele>973.8</ele>
        <time>2023-11-19T09:50:31Z</time>
      </trkpt>
      <trkpt lat="43.02574" lon="0.18308">
        <ele>973.9</ele>
        <time>2023-11-19T09:50:32Z</time>
      </trkpt>
      <trkpt lat="43.02574" lon="0.18308">
        <ele>973.9</ele>
        <time>2023-11-19T09:50:33Z</time>
      </trkpt>
      <trkpt lat="43.02574" lon="0.18308">
        <ele>973.9</ele>
        <time>2023-11-19T09:50:34Z</time>
      </trkpt>
      <trkpt lat="43.02573" lon="0.18309">
        <ele>974.1</ele>
        <time>2023-11-19T09:50:35Z</time>
      </trkpt>
      <trkpt lat="43.02574" lon="0.18309">
        <ele>974.2</ele>
        <time>2023-11-19T09:50:36Z</time>
      </trkpt>
      <trkpt lat="43.02574" lon="0.1831">
        <ele>974.3</ele>
        <time>2023-11-19T09:50:37Z</time>
      </trkpt>
      <trkpt lat="43.02573" lon="0.1831">
        <ele>974.5</ele>
        <time>2023-11-19T09:50:38Z</time>
      </trkpt>
      <trkpt lat="43.02572" lon="0.18312">
        <ele>974.7</ele>
        <time>2023-11-19T09:50:39Z</time>
      </trkpt>
      <trkpt lat="43.02573" lon="0.18313">
        <ele>974.9</ele>
        <time>2023-11-19T09:50:40Z</time>
      </trkpt>
      <trkpt lat="43.02574" lon="0.18315">
        <ele>975.1</ele>
        <time>2023-11-19T09:50:41Z</time>
      </trkpt>
      <trkpt lat="43.02574" lon="0.18315">
        <ele>975.1</ele>
        <time>2023-11-19T09:50:42Z</time>
      </trkpt>
      <trkpt lat="43.02573" lon="0.18317">
        <ele>975.3</ele>
        <time>2023-11-19T09:50:43Z</time>
      </trkpt>
      <trkpt lat="43.02574" lon="0.18318">
        <ele>975.4</ele>
        <time>2023-11-19T09:50:44Z</time>
      </trkpt>
      <trkpt lat="43.02574" lon="0.18319">
        <ele>975.5</ele>
        <time>2023-11-19T09:50:45Z</time>
      </trkpt>
      <trkpt lat="43.02573" lon="0.18321">
        <ele>975.8</ele>
        <time>2023-11-19T09:50:46Z</time>
      </trkpt>
      <trkpt lat="43.02573" lon="0.1832">
        <ele>975.9</ele>
        <time>2023-11-19T09:50:47Z</time>
      </trkpt>
      <trkpt lat="43.02573" lon="0.18321">
        <ele>975.9</ele>
        <time>2023-11-19T09:50:48Z</time>
      </trkpt>
      <trkpt lat="43.02573" lon="0.18322">
        <ele>976</ele>
        <time>2023-11-19T09:50:49Z</time>
      </trkpt>
      <trkpt lat="43.02573" lon="0.18324">
        <ele>976.2</ele>
        <time>2023-11-19T09:50:50Z</time>
      </trkpt>
      <trkpt lat="43.02574" lon="0.18325">
        <ele>976.3</ele>
        <time>2023-11-19T09:50:51Z</time>
      </trkpt>
      <trkpt lat="43.02573" lon="0.18325">
        <ele>976.4</ele>
        <time>2023-11-19T09:50:52Z</time>
      </trkpt>
      <trkpt lat="43.02573" lon="0.18326">
        <ele>976.5</ele>
        <time>2023-11-19T09:50:53Z</time>
      </trkpt>
      <trkpt lat="43.02573" lon="0.18327">
        <ele>976.6</ele>
        <time>2023-11-19T09:50:54Z</time>
      </trkpt>
      <trkpt lat="43.02573" lon="0.18328">
        <ele>976.7</ele>
        <time>2023-11-19T09:50:55Z</time>
      </trkpt>
      <trkpt lat="43.02573" lon="0.18329">
        <ele>976.8</ele>
        <time>2023-11-19T09:50:56Z</time>
      </trkpt>
      <trkpt lat="43.02573" lon="0.1833">
        <ele>976.9</ele>
        <time>2023-11-19T09:50:57Z</time>
      </trkpt>
      <trkpt lat="43.02572" lon="0.18331">
        <ele>977</ele>
        <time>2023-11-19T09:50:58Z</time>
      </trkpt>
      <trkpt lat="43.02573" lon="0.18333">
        <ele>977.2</ele>
        <time>2023-11-19T09:50:59Z</time>
      </trkpt>
      <trkpt lat="43.02572" lon="0.18334">
        <ele>977.3</ele>
        <time>2023-11-19T09:51:00Z</time>
      </trkpt>
      <trkpt lat="43.02572" lon="0.18335">
        <ele>977.4</ele>
        <time>2023-11-19T09:51:01Z</time>
      </trkpt>
      <trkpt lat="43.02572" lon="0.18334">
        <ele>977.5</ele>
        <time>2023-11-19T09:51:02Z</time>
      </trkpt>
      <trkpt lat="43.02572" lon="0.18335">
        <ele>977.6</ele>
        <time>2023-11-19T09:51:03Z</time>
      </trkpt>
      <trkpt lat="43.02572" lon="0.18336">
        <ele>977.6</ele>
        <time>2023-11-19T09:51:04Z</time>
      </trkpt>
      <trkpt lat="43.02572" lon="0.18335">
        <ele>977.7</ele>
        <time>2023-11-19T09:51:05Z</time>
      </trkpt>
      <trkpt lat="43.02572" lon="0.18335">
        <ele>977.7</ele>
        <time>2023-11-19T09:51:06Z</time>
      </trkpt>
      <trkpt lat="43.02571" lon="0.18335">
        <ele>977.7</ele>
        <time>2023-11-19T09:51:07Z</time>
      </trkpt>
      <trkpt lat="43.02571" lon="0.18335">
        <ele>977.7</ele>
        <time>2023-11-19T09:51:08Z</time>
      </trkpt>
      <trkpt lat="43.02571" lon="0.18336">
        <ele>977.8</ele>
        <time>2023-11-19T09:51:09Z</time>
      </trkpt>
      <trkpt lat="43.02572" lon="0.18337">
        <ele>978</ele>
        <time>2023-11-19T09:51:10Z</time>
      </trkpt>
      <trkpt lat="43.02571" lon="0.1834">
        <ele>978.2</ele>
        <time>2023-11-19T09:51:11Z</time>
      </trkpt>
      <trkpt lat="43.02571" lon="0.18341">
        <ele>978.3</ele>
        <time>2023-11-19T09:51:12Z</time>
      </trkpt>
      <trkpt lat="43.02571" lon="0.18342">
        <ele>978.4</ele>
        <time>2023-11-19T09:51:13Z</time>
      </trkpt>
      <trkpt lat="43.02571" lon="0.18342">
        <ele>978.5</ele>
        <time>2023-11-19T09:51:14Z</time>
      </trkpt>
      <trkpt lat="43.0257" lon="0.18344">
        <ele>978.7</ele>
        <time>2023-11-19T09:51:15Z</time>
      </trkpt>
      <trkpt lat="43.0257" lon="0.18345">
        <ele>978.8</ele>
        <time>2023-11-19T09:51:16Z</time>
      </trkpt>
      <trkpt lat="43.0257" lon="0.18346">
        <ele>978.9</ele>
        <time>2023-11-19T09:51:17Z</time>
      </trkpt>
      <trkpt lat="43.0257" lon="0.18347">
        <ele>979</ele>
        <time>2023-11-19T09:51:18Z</time>
      </trkpt>
      <trkpt lat="43.0257" lon="0.18348">
        <ele>979.1</ele>
        <time>2023-11-19T09:51:19Z</time>
      </trkpt>
      <trkpt lat="43.0257" lon="0.1835">
        <ele>979.4</ele>
        <time>2023-11-19T09:51:20Z</time>
      </trkpt>
      <trkpt lat="43.0257" lon="0.1835">
        <ele>979.4</ele>
        <time>2023-11-19T09:51:21Z</time>
      </trkpt>
      <trkpt lat="43.02571" lon="0.18352">
        <ele>979.7</ele>
        <time>2023-11-19T09:51:22Z</time>
      </trkpt>
      <trkpt lat="43.02571" lon="0.18351">
        <ele>979.8</ele>
        <time>2023-11-19T09:51:23Z</time>
      </trkpt>
      <trkpt lat="43.0257" lon="0.18351">
        <ele>979.9</ele>
        <time>2023-11-19T09:51:24Z</time>
      </trkpt>
      <trkpt lat="43.0257" lon="0.18351">
        <ele>980</ele>
        <time>2023-11-19T09:51:25Z</time>
      </trkpt>
      <trkpt lat="43.02571" lon="0.18353">
        <ele>980.2</ele>
        <time>2023-11-19T09:51:26Z</time>
      </trkpt>
      <trkpt lat="43.02571" lon="0.18355">
        <ele>980.5</ele>
        <time>2023-11-19T09:51:27Z</time>
      </trkpt>
      <trkpt lat="43.02571" lon="0.18356">
        <ele>980.7</ele>
        <time>2023-11-19T09:51:28Z</time>
      </trkpt>
      <trkpt lat="43.02571" lon="0.18356">
        <ele>980.8</ele>
        <time>2023-11-19T09:51:29Z</time>
      </trkpt>
      <trkpt lat="43.02572" lon="0.18357">
        <ele>980.9</ele>
        <time>2023-11-19T09:51:30Z</time>
      </trkpt>
      <trkpt lat="43.02571" lon="0.18356">
        <ele>981</ele>
        <time>2023-11-19T09:51:31Z</time>
      </trkpt>
      <trkpt lat="43.02572" lon="0.18357">
        <ele>981.1</ele>
        <time>2023-11-19T09:51:32Z</time>
      </trkpt>
      <trkpt lat="43.02573" lon="0.18358">
        <ele>981.3</ele>
        <time>2023-11-19T09:51:33Z</time>
      </trkpt>
      <trkpt lat="43.02573" lon="0.18359">
        <ele>981.4</ele>
        <time>2023-11-19T09:51:34Z</time>
      </trkpt>
      <trkpt lat="43.02572" lon="0.18359">
        <ele>981.5</ele>
        <time>2023-11-19T09:51:35Z</time>
      </trkpt>
      <trkpt lat="43.02573" lon="0.1836">
        <ele>981.7</ele>
        <time>2023-11-19T09:51:36Z</time>
      </trkpt>
      <trkpt lat="43.02573" lon="0.18363">
        <ele>982.1</ele>
        <time>2023-11-19T09:51:37Z</time>
      </trkpt>
      <trkpt lat="43.02573" lon="0.18364">
        <ele>982.2</ele>
        <time>2023-11-19T09:51:38Z</time>
      </trkpt>
      <trkpt lat="43.02573" lon="0.18365">
        <ele>982.3</ele>
        <time>2023-11-19T09:51:39Z</time>
      </trkpt>
      <trkpt lat="43.02573" lon="0.18365">
        <ele>982.4</ele>
        <time>2023-11-19T09:51:40Z</time>
      </trkpt>
      <trkpt lat="43.02572" lon="0.18366">
        <ele>982.5</ele>
        <time>2023-11-19T09:51:41Z</time>
      </trkpt>
      <trkpt lat="43.02572" lon="0.18367">
        <ele>982.6</ele>
        <time>2023-11-19T09:51:42Z</time>
      </trkpt>
      <trkpt lat="43.02573" lon="0.18367">
        <ele>982.7</ele>
        <time>2023-11-19T09:51:43Z</time>
      </trkpt>
      <trkpt lat="43.02573" lon="0.18368">
        <ele>982.8</ele>
        <time>2023-11-19T09:51:44Z</time>
      </trkpt>
      <trkpt lat="43.02573" lon="0.18369">
        <ele>982.9</ele>
        <time>2023-11-19T09:51:45Z</time>
      </trkpt>
      <trkpt lat="43.02573" lon="0.18369">
        <ele>983.1</ele>
        <time>2023-11-19T09:51:46Z</time>
      </trkpt>
      <trkpt lat="43.02573" lon="0.1837">
        <ele>983.2</ele>
        <time>2023-11-19T09:51:47Z</time>
      </trkpt>
      <trkpt lat="43.02574" lon="0.18371">
        <ele>983.3</ele>
        <time>2023-11-19T09:51:48Z</time>
      </trkpt>
      <trkpt lat="43.02574" lon="0.18373">
        <ele>983.6</ele>
        <time>2023-11-19T09:51:49Z</time>
      </trkpt>
      <trkpt lat="43.02575" lon="0.18374">
        <ele>983.7</ele>
        <time>2023-11-19T09:51:50Z</time>
      </trkpt>
      <trkpt lat="43.02575" lon="0.18375">
        <ele>983.9</ele>
        <time>2023-11-19T09:51:51Z</time>
      </trkpt>
      <trkpt lat="43.02576" lon="0.18375">
        <ele>984.1</ele>
        <time>2023-11-19T09:51:52Z</time>
      </trkpt>
      <trkpt lat="43.02576" lon="0.18376">
        <ele>984.1</ele>
        <time>2023-11-19T09:51:53Z</time>
      </trkpt>
      <trkpt lat="43.02576" lon="0.18377">
        <ele>984.2</ele>
        <time>2023-11-19T09:51:54Z</time>
      </trkpt>
      <trkpt lat="43.02577" lon="0.18378">
        <ele>984.6</ele>
        <time>2023-11-19T09:51:55Z</time>
      </trkpt>
      <trkpt lat="43.02577" lon="0.18379">
        <ele>984.7</ele>
        <time>2023-11-19T09:51:56Z</time>
      </trkpt>
      <trkpt lat="43.02578" lon="0.1838">
        <ele>984.9</ele>
        <time>2023-11-19T09:51:57Z</time>
      </trkpt>
      <trkpt lat="43.02578" lon="0.1838">
        <ele>985</ele>
        <time>2023-11-19T09:51:58Z</time>
      </trkpt>
      <trkpt lat="43.02579" lon="0.18382">
        <ele>985.3</ele>
        <time>2023-11-19T09:51:59Z</time>
      </trkpt>
      <trkpt lat="43.02579" lon="0.18383">
        <ele>985.5</ele>
        <time>2023-11-19T09:52:00Z</time>
      </trkpt>
      <trkpt lat="43.02578" lon="0.18384">
        <ele>985.7</ele>
        <time>2023-11-19T09:52:01Z</time>
      </trkpt>
      <trkpt lat="43.02578" lon="0.18385">
        <ele>985.8</ele>
        <time>2023-11-19T09:52:02Z</time>
      </trkpt>
      <trkpt lat="43.02578" lon="0.18386">
        <ele>986</ele>
        <time>2023-11-19T09:52:03Z</time>
      </trkpt>
      <trkpt lat="43.02578" lon="0.18388">
        <ele>986.2</ele>
        <time>2023-11-19T09:52:04Z</time>
      </trkpt>
      <trkpt lat="43.02577" lon="0.18389">
        <ele>986.4</ele>
        <time>2023-11-19T09:52:05Z</time>
      </trkpt>
      <trkpt lat="43.02577" lon="0.18389">
        <ele>986.4</ele>
        <time>2023-11-19T09:52:06Z</time>
      </trkpt>
      <trkpt lat="43.02577" lon="0.18389">
        <ele>986.5</ele>
        <time>2023-11-19T09:52:07Z</time>
      </trkpt>
      <trkpt lat="43.02577" lon="0.18389">
        <ele>986.5</ele>
        <time>2023-11-19T09:52:08Z</time>
      </trkpt>
      <trkpt lat="43.02577" lon="0.18391">
        <ele>986.7</ele>
        <time>2023-11-19T09:52:09Z</time>
      </trkpt>
      <trkpt lat="43.02577" lon="0.18391">
        <ele>986.8</ele>
        <time>2023-11-19T09:52:10Z</time>
      </trkpt>
      <trkpt lat="43.02578" lon="0.18392">
        <ele>986.9</ele>
        <time>2023-11-19T09:52:11Z</time>
      </trkpt>
      <trkpt lat="43.02577" lon="0.18394">
        <ele>987.2</ele>
        <time>2023-11-19T09:52:12Z</time>
      </trkpt>
      <trkpt lat="43.02577" lon="0.18395">
        <ele>987.4</ele>
        <time>2023-11-19T09:52:13Z</time>
      </trkpt>
      <trkpt lat="43.02577" lon="0.18396">
        <ele>987.5</ele>
        <time>2023-11-19T09:52:14Z</time>
      </trkpt>
      <trkpt lat="43.02578" lon="0.18396">
        <ele>987.6</ele>
        <time>2023-11-19T09:52:15Z</time>
      </trkpt>
      <trkpt lat="43.02578" lon="0.18397">
        <ele>987.8</ele>
        <time>2023-11-19T09:52:16Z</time>
      </trkpt>
      <trkpt lat="43.02579" lon="0.18397">
        <ele>988</ele>
        <time>2023-11-19T09:52:17Z</time>
      </trkpt>
      <trkpt lat="43.02579" lon="0.18397">
        <ele>988</ele>
        <time>2023-11-19T09:52:18Z</time>
      </trkpt>
      <trkpt lat="43.02579" lon="0.18398">
        <ele>988.1</ele>
        <time>2023-11-19T09:52:19Z</time>
      </trkpt>
      <trkpt lat="43.02579" lon="0.18399">
        <ele>988.4</ele>
        <time>2023-11-19T09:52:20Z</time>
      </trkpt>
      <trkpt lat="43.02579" lon="0.184">
        <ele>988.5</ele>
        <time>2023-11-19T09:52:21Z</time>
      </trkpt>
      <trkpt lat="43.02579" lon="0.18401">
        <ele>988.7</ele>
        <time>2023-11-19T09:52:22Z</time>
      </trkpt>
      <trkpt lat="43.02579" lon="0.18402">
        <ele>988.8</ele>
        <time>2023-11-19T09:52:23Z</time>
      </trkpt>
      <trkpt lat="43.02579" lon="0.18403">
        <ele>989</ele>
        <time>2023-11-19T09:52:24Z</time>
      </trkpt>
      <trkpt lat="43.02579" lon="0.18404">
        <ele>989.2</ele>
        <time>2023-11-19T09:52:25Z</time>
      </trkpt>
      <trkpt lat="43.02579" lon="0.18405">
        <ele>989.3</ele>
        <time>2023-11-19T09:52:26Z</time>
      </trkpt>
      <trkpt lat="43.02579" lon="0.18406">
        <ele>989.5</ele>
        <time>2023-11-19T09:52:27Z</time>
      </trkpt>
      <trkpt lat="43.02579" lon="0.18407">
        <ele>989.7</ele>
        <time>2023-11-19T09:52:28Z</time>
      </trkpt>
      <trkpt lat="43.02579" lon="0.18409">
        <ele>990</ele>
        <time>2023-11-19T09:52:29Z</time>
      </trkpt>
      <trkpt lat="43.02578" lon="0.1841">
        <ele>990.4</ele>
        <time>2023-11-19T09:52:30Z</time>
      </trkpt>
      <trkpt lat="43.02578" lon="0.18411">
        <ele>990.5</ele>
        <time>2023-11-19T09:52:31Z</time>
      </trkpt>
      <trkpt lat="43.02578" lon="0.18412">
        <ele>990.7</ele>
        <time>2023-11-19T09:52:32Z</time>
      </trkpt>
      <trkpt lat="43.02578" lon="0.18413">
        <ele>990.8</ele>
        <time>2023-11-19T09:52:33Z</time>
      </trkpt>
      <trkpt lat="43.02578" lon="0.18414">
        <ele>991</ele>
        <time>2023-11-19T09:52:34Z</time>
      </trkpt>
      <trkpt lat="43.02578" lon="0.18416">
        <ele>991.2</ele>
        <time>2023-11-19T09:52:35Z</time>
      </trkpt>
      <trkpt lat="43.02578" lon="0.18417">
        <ele>991.4</ele>
        <time>2023-11-19T09:52:36Z</time>
      </trkpt>
      <trkpt lat="43.02578" lon="0.18418">
        <ele>991.7</ele>
        <time>2023-11-19T09:52:37Z</time>
      </trkpt>
      <trkpt lat="43.02578" lon="0.18419">
        <ele>991.8</ele>
        <time>2023-11-19T09:52:38Z</time>
      </trkpt>
      <trkpt lat="43.02578" lon="0.1842">
        <ele>991.9</ele>
        <time>2023-11-19T09:52:39Z</time>
      </trkpt>
      <trkpt lat="43.02578" lon="0.18421">
        <ele>992.2</ele>
        <time>2023-11-19T09:52:40Z</time>
      </trkpt>
      <trkpt lat="43.02578" lon="0.18422">
        <ele>992.3</ele>
        <time>2023-11-19T09:52:41Z</time>
      </trkpt>
      <trkpt lat="43.02579" lon="0.18423">
        <ele>992.4</ele>
        <time>2023-11-19T09:52:42Z</time>
      </trkpt>
      <trkpt lat="43.02579" lon="0.18423">
        <ele>992.5</ele>
        <time>2023-11-19T09:52:44Z</time>
      </trkpt>
      <trkpt lat="43.02579" lon="0.18424">
        <ele>992.7</ele>
        <time>2023-11-19T09:52:45Z</time>
      </trkpt>
      <trkpt lat="43.02579" lon="0.18426">
        <ele>992.9</ele>
        <time>2023-11-19T09:52:46Z</time>
      </trkpt>
      <trkpt lat="43.02579" lon="0.18427">
        <ele>993.1</ele>
        <time>2023-11-19T09:52:47Z</time>
      </trkpt>
      <trkpt lat="43.02579" lon="0.18427">
        <ele>993.1</ele>
        <time>2023-11-19T09:52:48Z</time>
      </trkpt>
      <trkpt lat="43.02579" lon="0.18427">
        <ele>993.2</ele>
        <time>2023-11-19T09:52:49Z</time>
      </trkpt>
      <trkpt lat="43.0258" lon="0.18428">
        <ele>993.3</ele>
        <time>2023-11-19T09:52:50Z</time>
      </trkpt>
      <trkpt lat="43.0258" lon="0.18429">
        <ele>993.5</ele>
        <time>2023-11-19T09:52:51Z</time>
      </trkpt>
      <trkpt lat="43.0258" lon="0.1843">
        <ele>993.7</ele>
        <time>2023-11-19T09:52:52Z</time>
      </trkpt>
      <trkpt lat="43.0258" lon="0.1843">
        <ele>993.8</ele>
        <time>2023-11-19T09:52:53Z</time>
      </trkpt>
      <trkpt lat="43.0258" lon="0.18431">
        <ele>993.8</ele>
        <time>2023-11-19T09:52:54Z</time>
      </trkpt>
      <trkpt lat="43.0258" lon="0.18432">
        <ele>994.1</ele>
        <time>2023-11-19T09:52:55Z</time>
      </trkpt>
      <trkpt lat="43.0258" lon="0.18433">
        <ele>994.2</ele>
        <time>2023-11-19T09:52:56Z</time>
      </trkpt>
      <trkpt lat="43.0258" lon="0.18434">
        <ele>994.3</ele>
        <time>2023-11-19T09:52:57Z</time>
      </trkpt>
      <trkpt lat="43.0258" lon="0.18436">
        <ele>994.7</ele>
        <time>2023-11-19T09:52:58Z</time>
      </trkpt>
      <trkpt lat="43.0258" lon="0.18437">
        <ele>994.9</ele>
        <time>2023-11-19T09:52:59Z</time>
      </trkpt>
      <trkpt lat="43.02581" lon="0.18438">
        <ele>995</ele>
        <time>2023-11-19T09:53:00Z</time>
      </trkpt>
      <trkpt lat="43.02581" lon="0.18439">
        <ele>995.1</ele>
        <time>2023-11-19T09:53:01Z</time>
      </trkpt>
      <trkpt lat="43.0258" lon="0.18439">
        <ele>995.2</ele>
        <time>2023-11-19T09:53:02Z</time>
      </trkpt>
      <trkpt lat="43.0258" lon="0.1844">
        <ele>995.3</ele>
        <time>2023-11-19T09:53:03Z</time>
      </trkpt>
      <trkpt lat="43.0258" lon="0.18441">
        <ele>995.5</ele>
        <time>2023-11-19T09:53:04Z</time>
      </trkpt>
      <trkpt lat="43.0258" lon="0.18443">
        <ele>995.8</ele>
        <time>2023-11-19T09:53:05Z</time>
      </trkpt>
      <trkpt lat="43.0258" lon="0.18444">
        <ele>995.9</ele>
        <time>2023-11-19T09:53:06Z</time>
      </trkpt>
      <trkpt lat="43.0258" lon="0.18444">
        <ele>996</ele>
        <time>2023-11-19T09:53:07Z</time>
      </trkpt>
      <trkpt lat="43.0258" lon="0.18445">
        <ele>996.2</ele>
        <time>2023-11-19T09:53:08Z</time>
      </trkpt>
      <trkpt lat="43.0258" lon="0.18446">
        <ele>996.3</ele>
        <time>2023-11-19T09:53:09Z</time>
      </trkpt>
      <trkpt lat="43.02579" lon="0.18447">
        <ele>996.4</ele>
        <time>2023-11-19T09:53:10Z</time>
      </trkpt>
      <trkpt lat="43.02579" lon="0.18449">
        <ele>996.7</ele>
        <time>2023-11-19T09:53:11Z</time>
      </trkpt>
      <trkpt lat="43.02579" lon="0.18449">
        <ele>996.8</ele>
        <time>2023-11-19T09:53:12Z</time>
      </trkpt>
      <trkpt lat="43.0258" lon="0.1845">
        <ele>996.9</ele>
        <time>2023-11-19T09:53:13Z</time>
      </trkpt>
      <trkpt lat="43.0258" lon="0.18451">
        <ele>997</ele>
        <time>2023-11-19T09:53:14Z</time>
      </trkpt>
      <trkpt lat="43.0258" lon="0.18452">
        <ele>997.2</ele>
        <time>2023-11-19T09:53:15Z</time>
      </trkpt>
      <trkpt lat="43.0258" lon="0.18452">
        <ele>997.2</ele>
        <time>2023-11-19T09:53:16Z</time>
      </trkpt>
      <trkpt lat="43.0258" lon="0.18452">
        <ele>997.3</ele>
        <time>2023-11-19T09:53:17Z</time>
      </trkpt>
      <trkpt lat="43.0258" lon="0.18453">
        <ele>997.4</ele>
        <time>2023-11-19T09:53:18Z</time>
      </trkpt>
      <trkpt lat="43.0258" lon="0.18454">
        <ele>997.6</ele>
        <time>2023-11-19T09:53:19Z</time>
      </trkpt>
      <trkpt lat="43.0258" lon="0.18454">
        <ele>997.7</ele>
        <time>2023-11-19T09:53:20Z</time>
      </trkpt>
      <trkpt lat="43.02581" lon="0.18455">
        <ele>997.8</ele>
        <time>2023-11-19T09:53:21Z</time>
      </trkpt>
      <trkpt lat="43.02581" lon="0.18456">
        <ele>997.9</ele>
        <time>2023-11-19T09:53:22Z</time>
      </trkpt>
      <trkpt lat="43.02581" lon="0.18457">
        <ele>998.1</ele>
        <time>2023-11-19T09:53:23Z</time>
      </trkpt>
      <trkpt lat="43.02581" lon="0.18457">
        <ele>998.2</ele>
        <time>2023-11-19T09:53:24Z</time>
      </trkpt>
      <trkpt lat="43.02581" lon="0.18458">
        <ele>998.3</ele>
        <time>2023-11-19T09:53:25Z</time>
      </trkpt>
      <trkpt lat="43.02581" lon="0.18459">
        <ele>998.4</ele>
        <time>2023-11-19T09:53:26Z</time>
      </trkpt>
      <trkpt lat="43.02581" lon="0.1846">
        <ele>998.5</ele>
        <time>2023-11-19T09:53:27Z</time>
      </trkpt>
      <trkpt lat="43.02581" lon="0.18459">
        <ele>998.6</ele>
        <time>2023-11-19T09:53:28Z</time>
      </trkpt>
      <trkpt lat="43.02581" lon="0.18459">
        <ele>998.6</ele>
        <time>2023-11-19T09:53:29Z</time>
      </trkpt>
      <trkpt lat="43.02582" lon="0.18459">
        <ele>998.8</ele>
        <time>2023-11-19T09:53:30Z</time>
      </trkpt>
      <trkpt lat="43.02581" lon="0.1846">
        <ele>999</ele>
        <time>2023-11-19T09:53:31Z</time>
      </trkpt>
      <trkpt lat="43.0258" lon="0.1846">
        <ele>999.1</ele>
        <time>2023-11-19T09:53:32Z</time>
      </trkpt>
      <trkpt lat="43.0258" lon="0.18461">
        <ele>999.2</ele>
        <time>2023-11-19T09:53:33Z</time>
      </trkpt>
      <trkpt lat="43.0258" lon="0.18462">
        <ele>999.4</ele>
        <time>2023-11-19T09:53:34Z</time>
      </trkpt>
      <trkpt lat="43.0258" lon="0.18463">
        <ele>999.5</ele>
        <time>2023-11-19T09:53:35Z</time>
      </trkpt>
      <trkpt lat="43.0258" lon="0.18464">
        <ele>999.6</ele>
        <time>2023-11-19T09:53:36Z</time>
      </trkpt>
      <trkpt lat="43.0258" lon="0.18465">
        <ele>999.7</ele>
        <time>2023-11-19T09:53:37Z</time>
      </trkpt>
      <trkpt lat="43.0258" lon="0.18465">
        <ele>999.7</ele>
        <time>2023-11-19T09:53:38Z</time>
      </trkpt>
      <trkpt lat="43.0258" lon="0.18466">
        <ele>999.8</ele>
        <time>2023-11-19T09:53:39Z</time>
      </trkpt>
      <trkpt lat="43.0258" lon="0.18466">
        <ele>999.9</ele>
        <time>2023-11-19T09:53:40Z</time>
      </trkpt>
      <trkpt lat="43.0258" lon="0.18468">
        <ele>1000.1</ele>
        <time>2023-11-19T09:53:41Z</time>
      </trkpt>
      <trkpt lat="43.0258" lon="0.18468">
        <ele>1000.2</ele>
        <time>2023-11-19T09:53:42Z</time>
      </trkpt>
      <trkpt lat="43.0258" lon="0.18469">
        <ele>1000.3</ele>
        <time>2023-11-19T09:53:43Z</time>
      </trkpt>
      <trkpt lat="43.0258" lon="0.1847">
        <ele>1000.5</ele>
        <time>2023-11-19T09:53:44Z</time>
      </trkpt>
      <trkpt lat="43.0258" lon="0.18471">
        <ele>1000.5</ele>
        <time>2023-11-19T09:53:45Z</time>
      </trkpt>
      <trkpt lat="43.0258" lon="0.18472">
        <ele>1000.7</ele>
        <time>2023-11-19T09:53:46Z</time>
      </trkpt>
      <trkpt lat="43.0258" lon="0.18473">
        <ele>1000.8</ele>
        <time>2023-11-19T09:53:47Z</time>
      </trkpt>
      <trkpt lat="43.0258" lon="0.18473">
        <ele>1000.9</ele>
        <time>2023-11-19T09:53:48Z</time>
      </trkpt>
      <trkpt lat="43.0258" lon="0.18473">
        <ele>1001</ele>
        <time>2023-11-19T09:53:49Z</time>
      </trkpt>
      <trkpt lat="43.0258" lon="0.18473">
        <ele>1001</ele>
        <time>2023-11-19T09:53:50Z</time>
      </trkpt>
      <trkpt lat="43.0258" lon="0.18473">
        <ele>1001</ele>
        <time>2023-11-19T09:53:51Z</time>
      </trkpt>
      <trkpt lat="43.0258" lon="0.18474">
        <ele>1001.1</ele>
        <time>2023-11-19T09:53:52Z</time>
      </trkpt>
      <trkpt lat="43.02579" lon="0.18475">
        <ele>1001.3</ele>
        <time>2023-11-19T09:53:53Z</time>
      </trkpt>
      <trkpt lat="43.02579" lon="0.18476">
        <ele>1001.4</ele>
        <time>2023-11-19T09:53:54Z</time>
      </trkpt>
      <trkpt lat="43.02579" lon="0.18476">
        <ele>1001.5</ele>
        <time>2023-11-19T09:53:55Z</time>
      </trkpt>
      <trkpt lat="43.02579" lon="0.18477">
        <ele>1001.7</ele>
        <time>2023-11-19T09:53:56Z</time>
      </trkpt>
      <trkpt lat="43.02579" lon="0.18478">
        <ele>1001.7</ele>
        <time>2023-11-19T09:53:57Z</time>
      </trkpt>
      <trkpt lat="43.02579" lon="0.1848">
        <ele>1002</ele>
        <time>2023-11-19T09:53:58Z</time>
      </trkpt>
      <trkpt lat="43.02578" lon="0.18481">
        <ele>1002.1</ele>
        <time>2023-11-19T09:53:59Z</time>
      </trkpt>
      <trkpt lat="43.02578" lon="0.18482">
        <ele>1002.3</ele>
        <time>2023-11-19T09:54:00Z</time>
      </trkpt>
      <trkpt lat="43.02578" lon="0.18482">
        <ele>1002.4</ele>
        <time>2023-11-19T09:54:01Z</time>
      </trkpt>
      <trkpt lat="43.02578" lon="0.18484">
        <ele>1002.6</ele>
        <time>2023-11-19T09:54:02Z</time>
      </trkpt>
      <trkpt lat="43.02578" lon="0.18485">
        <ele>1002.7</ele>
        <time>2023-11-19T09:54:03Z</time>
      </trkpt>
      <trkpt lat="43.02578" lon="0.18485">
        <ele>1002.8</ele>
        <time>2023-11-19T09:54:04Z</time>
      </trkpt>
      <trkpt lat="43.02578" lon="0.18486">
        <ele>1002.8</ele>
        <time>2023-11-19T09:54:05Z</time>
      </trkpt>
      <trkpt lat="43.02578" lon="0.18487">
        <ele>1003</ele>
        <time>2023-11-19T09:54:06Z</time>
      </trkpt>
      <trkpt lat="43.02578" lon="0.18488">
        <ele>1003.2</ele>
        <time>2023-11-19T09:54:07Z</time>
      </trkpt>
      <trkpt lat="43.02578" lon="0.18489">
        <ele>1003.4</ele>
        <time>2023-11-19T09:54:08Z</time>
      </trkpt>
      <trkpt lat="43.02578" lon="0.1849">
        <ele>1003.5</ele>
        <time>2023-11-19T09:54:09Z</time>
      </trkpt>
      <trkpt lat="43.02578" lon="0.18491">
        <ele>1003.6</ele>
        <time>2023-11-19T09:54:10Z</time>
      </trkpt>
      <trkpt lat="43.02578" lon="0.18492">
        <ele>1003.8</ele>
        <time>2023-11-19T09:54:11Z</time>
      </trkpt>
      <trkpt lat="43.02577" lon="0.18493">
        <ele>1004</ele>
        <time>2023-11-19T09:54:12Z</time>
      </trkpt>
      <trkpt lat="43.02577" lon="0.18494">
        <ele>1004</ele>
        <time>2023-11-19T09:54:13Z</time>
      </trkpt>
      <trkpt lat="43.02577" lon="0.18495">
        <ele>1004.3</ele>
        <time>2023-11-19T09:54:14Z</time>
      </trkpt>
      <trkpt lat="43.02577" lon="0.18496">
        <ele>1004.5</ele>
        <time>2023-11-19T09:54:15Z</time>
      </trkpt>
      <trkpt lat="43.02577" lon="0.18497">
        <ele>1004.6</ele>
        <time>2023-11-19T09:54:16Z</time>
      </trkpt>
      <trkpt lat="43.02577" lon="0.18498">
        <ele>1004.7</ele>
        <time>2023-11-19T09:54:17Z</time>
      </trkpt>
      <trkpt lat="43.02577" lon="0.18499">
        <ele>1004.8</ele>
        <time>2023-11-19T09:54:18Z</time>
      </trkpt>
      <trkpt lat="43.02577" lon="0.185">
        <ele>1005</ele>
        <time>2023-11-19T09:54:19Z</time>
      </trkpt>
      <trkpt lat="43.02577" lon="0.18501">
        <ele>1005.2</ele>
        <time>2023-11-19T09:54:20Z</time>
      </trkpt>
      <trkpt lat="43.02577" lon="0.18502">
        <ele>1005.3</ele>
        <time>2023-11-19T09:54:21Z</time>
      </trkpt>
      <trkpt lat="43.02577" lon="0.18503">
        <ele>1005.5</ele>
        <time>2023-11-19T09:54:22Z</time>
      </trkpt>
      <trkpt lat="43.02576" lon="0.18505">
        <ele>1005.8</ele>
        <time>2023-11-19T09:54:23Z</time>
      </trkpt>
      <trkpt lat="43.02576" lon="0.18506">
        <ele>1006</ele>
        <time>2023-11-19T09:54:24Z</time>
      </trkpt>
      <trkpt lat="43.02576" lon="0.18507">
        <ele>1006.1</ele>
        <time>2023-11-19T09:54:25Z</time>
      </trkpt>
      <trkpt lat="43.02576" lon="0.18507">
        <ele>1006.2</ele>
        <time>2023-11-19T09:54:26Z</time>
      </trkpt>
      <trkpt lat="43.02576" lon="0.18508">
        <ele>1006.3</ele>
        <time>2023-11-19T09:54:27Z</time>
      </trkpt>
      <trkpt lat="43.02576" lon="0.18508">
        <ele>1006.3</ele>
        <time>2023-11-19T09:54:28Z</time>
      </trkpt>
      <trkpt lat="43.02576" lon="0.18508">
        <ele>1006.4</ele>
        <time>2023-11-19T09:54:29Z</time>
      </trkpt>
      <trkpt lat="43.02576" lon="0.18508">
        <ele>1006.4</ele>
        <time>2023-11-19T09:54:30Z</time>
      </trkpt>
      <trkpt lat="43.02576" lon="0.18507">
        <ele>1006.5</ele>
        <time>2023-11-19T09:54:31Z</time>
      </trkpt>
      <trkpt lat="43.02576" lon="0.18507">
        <ele>1006.5</ele>
        <time>2023-11-19T09:54:32Z</time>
      </trkpt>
      <trkpt lat="43.02576" lon="0.18507">
        <ele>1006.5</ele>
        <time>2023-11-19T09:54:33Z</time>
      </trkpt>
      <trkpt lat="43.02576" lon="0.18507">
        <ele>1006.5</ele>
        <time>2023-11-19T09:54:34Z</time>
      </trkpt>
      <trkpt lat="43.02577" lon="0.18508">
        <ele>1006.6</ele>
        <time>2023-11-19T09:54:35Z</time>
      </trkpt>
      <trkpt lat="43.02577" lon="0.18508">
        <ele>1006.6</ele>
        <time>2023-11-19T09:54:36Z</time>
      </trkpt>
      <trkpt lat="43.02577" lon="0.18508">
        <ele>1006.7</ele>
        <time>2023-11-19T09:54:37Z</time>
      </trkpt>
      <trkpt lat="43.02577" lon="0.18508">
        <ele>1006.7</ele>
        <time>2023-11-19T09:54:38Z</time>
      </trkpt>
      <trkpt lat="43.02577" lon="0.18508">
        <ele>1006.7</ele>
        <time>2023-11-19T09:54:39Z</time>
      </trkpt>
      <trkpt lat="43.02577" lon="0.18507">
        <ele>1006.8</ele>
        <time>2023-11-19T09:54:40Z</time>
      </trkpt>
      <trkpt lat="43.02577" lon="0.18507">
        <ele>1006.8</ele>
        <time>2023-11-19T09:54:41Z</time>
      </trkpt>
      <trkpt lat="43.02577" lon="0.18507">
        <ele>1006.8</ele>
        <time>2023-11-19T09:54:42Z</time>
      </trkpt>
      <trkpt lat="43.02577" lon="0.18507">
        <ele>1006.9</ele>
        <time>2023-11-19T09:54:43Z</time>
      </trkpt>
      <trkpt lat="43.02577" lon="0.18507">
        <ele>1006.9</ele>
        <time>2023-11-19T09:54:44Z</time>
      </trkpt>
      <trkpt lat="43.02577" lon="0.18508">
        <ele>1006.9</ele>
        <time>2023-11-19T09:54:45Z</time>
      </trkpt>
      <trkpt lat="43.02577" lon="0.18507">
        <ele>1007</ele>
        <time>2023-11-19T09:54:46Z</time>
      </trkpt>
      <trkpt lat="43.02576" lon="0.18505">
        <ele>1007.4</ele>
        <time>2023-11-19T09:54:47Z</time>
      </trkpt>
      <trkpt lat="43.02576" lon="0.18505">
        <ele>1007.4</ele>
        <time>2023-11-19T09:54:48Z</time>
      </trkpt>
      <trkpt lat="43.02577" lon="0.18507">
        <ele>1007.8</ele>
        <time>2023-11-19T09:54:50Z</time>
      </trkpt>
      <trkpt lat="43.02577" lon="0.18507">
        <ele>1008</ele>
        <time>2023-11-19T09:54:51Z</time>
      </trkpt>
      <trkpt lat="43.02577" lon="0.18508">
        <ele>1008</ele>
        <time>2023-11-19T09:54:52Z</time>
      </trkpt>
      <trkpt lat="43.02577" lon="0.18508">
        <ele>1008</ele>
        <time>2023-11-19T09:54:53Z</time>
      </trkpt>
      <trkpt lat="43.02577" lon="0.18508">
        <ele>1008.1</ele>
        <time>2023-11-19T09:54:54Z</time>
      </trkpt>
      <trkpt lat="43.02577" lon="0.18507">
        <ele>1008.1</ele>
        <time>2023-11-19T09:54:55Z</time>
      </trkpt>
      <trkpt lat="43.02577" lon="0.18507">
        <ele>1008.1</ele>
        <time>2023-11-19T09:54:56Z</time>
      </trkpt>
      <trkpt lat="43.02577" lon="0.18507">
        <ele>1008.1</ele>
        <time>2023-11-19T09:54:57Z</time>
      </trkpt>
      <trkpt lat="43.02577" lon="0.18507">
        <ele>1008.2</ele>
        <time>2023-11-19T09:54:58Z</time>
      </trkpt>
      <trkpt lat="43.02577" lon="0.18508">
        <ele>1008.3</ele>
        <time>2023-11-19T09:54:59Z</time>
      </trkpt>
      <trkpt lat="43.02576" lon="0.18508">
        <ele>1008.4</ele>
        <time>2023-11-19T09:55:00Z</time>
      </trkpt>
      <trkpt lat="43.02576" lon="0.18509">
        <ele>1008.6</ele>
        <time>2023-11-19T09:55:01Z</time>
      </trkpt>
      <trkpt lat="43.02576" lon="0.18511">
        <ele>1008.8</ele>
        <time>2023-11-19T09:55:02Z</time>
      </trkpt>
      <trkpt lat="43.02576" lon="0.18512">
        <ele>1009</ele>
        <time>2023-11-19T09:55:03Z</time>
      </trkpt>
      <trkpt lat="43.02576" lon="0.18514">
        <ele>1009.4</ele>
        <time>2023-11-19T09:55:04Z</time>
      </trkpt>
      <trkpt lat="43.02576" lon="0.18515">
        <ele>1009.5</ele>
        <time>2023-11-19T09:55:05Z</time>
      </trkpt>
      <trkpt lat="43.02576" lon="0.18516">
        <ele>1009.6</ele>
        <time>2023-11-19T09:55:06Z</time>
      </trkpt>
      <trkpt lat="43.02576" lon="0.18517">
        <ele>1009.8</ele>
        <time>2023-11-19T09:55:07Z</time>
      </trkpt>
      <trkpt lat="43.02576" lon="0.18518">
        <ele>1010</ele>
        <time>2023-11-19T09:55:08Z</time>
      </trkpt>
      <trkpt lat="43.02576" lon="0.18519">
        <ele>1010.2</ele>
        <time>2023-11-19T09:55:09Z</time>
      </trkpt>
      <trkpt lat="43.02576" lon="0.1852">
        <ele>1010.5</ele>
        <time>2023-11-19T09:55:10Z</time>
      </trkpt>
      <trkpt lat="43.02576" lon="0.18521">
        <ele>1010.6</ele>
        <time>2023-11-19T09:55:11Z</time>
      </trkpt>
      <trkpt lat="43.02575" lon="0.18522">
        <ele>1010.8</ele>
        <time>2023-11-19T09:55:12Z</time>
      </trkpt>
      <trkpt lat="43.02575" lon="0.18523">
        <ele>1011</ele>
        <time>2023-11-19T09:55:13Z</time>
      </trkpt>
      <trkpt lat="43.02575" lon="0.18524">
        <ele>1011.1</ele>
        <time>2023-11-19T09:55:14Z</time>
      </trkpt>
      <trkpt lat="43.02575" lon="0.18525">
        <ele>1011.3</ele>
        <time>2023-11-19T09:55:15Z</time>
      </trkpt>
      <trkpt lat="43.02575" lon="0.18525">
        <ele>1011.4</ele>
        <time>2023-11-19T09:55:16Z</time>
      </trkpt>
      <trkpt lat="43.02575" lon="0.18526">
        <ele>1011.5</ele>
        <time>2023-11-19T09:55:17Z</time>
      </trkpt>
      <trkpt lat="43.02575" lon="0.18526">
        <ele>1011.5</ele>
        <time>2023-11-19T09:55:18Z</time>
      </trkpt>
      <trkpt lat="43.02575" lon="0.18526">
        <ele>1011.6</ele>
        <time>2023-11-19T09:55:19Z</time>
      </trkpt>
      <trkpt lat="43.02575" lon="0.18526">
        <ele>1011.7</ele>
        <time>2023-11-19T09:55:20Z</time>
      </trkpt>
      <trkpt lat="43.02575" lon="0.18527">
        <ele>1011.8</ele>
        <time>2023-11-19T09:55:21Z</time>
      </trkpt>
      <trkpt lat="43.02574" lon="0.18528">
        <ele>1012</ele>
        <time>2023-11-19T09:55:22Z</time>
      </trkpt>
      <trkpt lat="43.02575" lon="0.18529">
        <ele>1012.1</ele>
        <time>2023-11-19T09:55:23Z</time>
      </trkpt>
      <trkpt lat="43.02575" lon="0.1853">
        <ele>1012.3</ele>
        <time>2023-11-19T09:55:24Z</time>
      </trkpt>
      <trkpt lat="43.02577" lon="0.18531">
        <ele>1012.7</ele>
        <time>2023-11-19T09:55:25Z</time>
      </trkpt>
      <trkpt lat="43.02575" lon="0.18531">
        <ele>1013.1</ele>
        <time>2023-11-19T09:55:26Z</time>
      </trkpt>
      <trkpt lat="43.02575" lon="0.18533">
        <ele>1013.3</ele>
        <time>2023-11-19T09:55:27Z</time>
      </trkpt>
      <trkpt lat="43.02575" lon="0.18534">
        <ele>1013.5</ele>
        <time>2023-11-19T09:55:28Z</time>
      </trkpt>
      <trkpt lat="43.02575" lon="0.18534">
        <ele>1013.5</ele>
        <time>2023-11-19T09:55:29Z</time>
      </trkpt>
      <trkpt lat="43.02576" lon="0.18534">
        <ele>1013.6</ele>
        <time>2023-11-19T09:55:30Z</time>
      </trkpt>
      <trkpt lat="43.02576" lon="0.18536">
        <ele>1013.9</ele>
        <time>2023-11-19T09:55:31Z</time>
      </trkpt>
      <trkpt lat="43.02576" lon="0.18538">
        <ele>1014.1</ele>
        <time>2023-11-19T09:55:32Z</time>
      </trkpt>
      <trkpt lat="43.02575" lon="0.18539">
        <ele>1014.3</ele>
        <time>2023-11-19T09:55:33Z</time>
      </trkpt>
      <trkpt lat="43.02575" lon="0.1854">
        <ele>1014.4</ele>
        <time>2023-11-19T09:55:34Z</time>
      </trkpt>
      <trkpt lat="43.02576" lon="0.18541">
        <ele>1014.6</ele>
        <time>2023-11-19T09:55:35Z</time>
      </trkpt>
      <trkpt lat="43.02576" lon="0.18542">
        <ele>1014.7</ele>
        <time>2023-11-19T09:55:36Z</time>
      </trkpt>
      <trkpt lat="43.02576" lon="0.18542">
        <ele>1014.8</ele>
        <time>2023-11-19T09:55:37Z</time>
      </trkpt>
      <trkpt lat="43.02576" lon="0.18544">
        <ele>1015</ele>
        <time>2023-11-19T09:55:38Z</time>
      </trkpt>
      <trkpt lat="43.02576" lon="0.18545">
        <ele>1015.1</ele>
        <time>2023-11-19T09:55:39Z</time>
      </trkpt>
      <trkpt lat="43.02576" lon="0.18546">
        <ele>1015.2</ele>
        <time>2023-11-19T09:55:40Z</time>
      </trkpt>
      <trkpt lat="43.02576" lon="0.18547">
        <ele>1015.4</ele>
        <time>2023-11-19T09:55:41Z</time>
      </trkpt>
      <trkpt lat="43.02577" lon="0.18548">
        <ele>1015.4</ele>
        <time>2023-11-19T09:55:42Z</time>
      </trkpt>
      <trkpt lat="43.02577" lon="0.18549">
        <ele>1015.6</ele>
        <time>2023-11-19T09:55:43Z</time>
      </trkpt>
      <trkpt lat="43.02577" lon="0.1855">
        <ele>1015.7</ele>
        <time>2023-11-19T09:55:44Z</time>
      </trkpt>
      <trkpt lat="43.02576" lon="0.18551">
        <ele>1015.8</ele>
        <time>2023-11-19T09:55:45Z</time>
      </trkpt>
      <trkpt lat="43.02576" lon="0.18551">
        <ele>1015.9</ele>
        <time>2023-11-19T09:55:46Z</time>
      </trkpt>
      <trkpt lat="43.02576" lon="0.18552">
        <ele>1015.9</ele>
        <time>2023-11-19T09:55:47Z</time>
      </trkpt>
      <trkpt lat="43.02576" lon="0.18552">
        <ele>1015.9</ele>
        <time>2023-11-19T09:55:48Z</time>
      </trkpt>
      <trkpt lat="43.02576" lon="0.18552">
        <ele>1016</ele>
        <time>2023-11-19T09:55:49Z</time>
      </trkpt>
      <trkpt lat="43.02576" lon="0.18553">
        <ele>1016</ele>
        <time>2023-11-19T09:55:50Z</time>
      </trkpt>
      <trkpt lat="43.02576" lon="0.18553">
        <ele>1016</ele>
        <time>2023-11-19T09:55:51Z</time>
      </trkpt>
      <trkpt lat="43.02576" lon="0.18553">
        <ele>1016.1</ele>
        <time>2023-11-19T09:55:52Z</time>
      </trkpt>
      <trkpt lat="43.02576" lon="0.18553">
        <ele>1016.1</ele>
        <time>2023-11-19T09:55:53Z</time>
      </trkpt>
      <trkpt lat="43.02576" lon="0.18554">
        <ele>1016.1</ele>
        <time>2023-11-19T09:55:54Z</time>
      </trkpt>
      <trkpt lat="43.02576" lon="0.18554">
        <ele>1016.2</ele>
        <time>2023-11-19T09:55:55Z</time>
      </trkpt>
      <trkpt lat="43.02576" lon="0.18554">
        <ele>1016.2</ele>
        <time>2023-11-19T09:55:56Z</time>
      </trkpt>
      <trkpt lat="43.02576" lon="0.18554">
        <ele>1016.2</ele>
        <time>2023-11-19T09:55:57Z</time>
      </trkpt>
      <trkpt lat="43.02576" lon="0.18555">
        <ele>1016.3</ele>
        <time>2023-11-19T09:55:58Z</time>
      </trkpt>
      <trkpt lat="43.02576" lon="0.18557">
        <ele>1016.5</ele>
        <time>2023-11-19T09:55:59Z</time>
      </trkpt>
      <trkpt lat="43.02576" lon="0.18558">
        <ele>1016.6</ele>
        <time>2023-11-19T09:56:00Z</time>
      </trkpt>
      <trkpt lat="43.02577" lon="0.18559">
        <ele>1016.7</ele>
        <time>2023-11-19T09:56:01Z</time>
      </trkpt>
      <trkpt lat="43.02577" lon="0.1856">
        <ele>1016.8</ele>
        <time>2023-11-19T09:56:02Z</time>
      </trkpt>
      <trkpt lat="43.02577" lon="0.18561">
        <ele>1017</ele>
        <time>2023-11-19T09:56:03Z</time>
      </trkpt>
      <trkpt lat="43.02578" lon="0.18561">
        <ele>1017.1</ele>
        <time>2023-11-19T09:56:04Z</time>
      </trkpt>
      <trkpt lat="43.02578" lon="0.18563">
        <ele>1017.3</ele>
        <time>2023-11-19T09:56:05Z</time>
      </trkpt>
      <trkpt lat="43.02578" lon="0.18565">
        <ele>1017.5</ele>
        <time>2023-11-19T09:56:06Z</time>
      </trkpt>
      <trkpt lat="43.02578" lon="0.18566">
        <ele>1017.6</ele>
        <time>2023-11-19T09:56:07Z</time>
      </trkpt>
      <trkpt lat="43.02578" lon="0.18567">
        <ele>1017.7</ele>
        <time>2023-11-19T09:56:08Z</time>
      </trkpt>
      <trkpt lat="43.02578" lon="0.18568">
        <ele>1017.9</ele>
        <time>2023-11-19T09:56:09Z</time>
      </trkpt>
      <trkpt lat="43.02578" lon="0.1857">
        <ele>1018</ele>
        <time>2023-11-19T09:56:10Z</time>
      </trkpt>
      <trkpt lat="43.02578" lon="0.18571">
        <ele>1018.3</ele>
        <time>2023-11-19T09:56:11Z</time>
      </trkpt>
      <trkpt lat="43.02579" lon="0.18572">
        <ele>1018.4</ele>
        <time>2023-11-19T09:56:12Z</time>
      </trkpt>
      <trkpt lat="43.02579" lon="0.18573">
        <ele>1018.5</ele>
        <time>2023-11-19T09:56:13Z</time>
      </trkpt>
      <trkpt lat="43.02579" lon="0.18573">
        <ele>1018.6</ele>
        <time>2023-11-19T09:56:14Z</time>
      </trkpt>
      <trkpt lat="43.02579" lon="0.18573">
        <ele>1018.6</ele>
        <time>2023-11-19T09:56:15Z</time>
      </trkpt>
      <trkpt lat="43.02578" lon="0.18572">
        <ele>1018.7</ele>
        <time>2023-11-19T09:56:16Z</time>
      </trkpt>
      <trkpt lat="43.02578" lon="0.18574">
        <ele>1018.9</ele>
        <time>2023-11-19T09:56:17Z</time>
      </trkpt>
      <trkpt lat="43.02578" lon="0.18576">
        <ele>1019.2</ele>
        <time>2023-11-19T09:56:18Z</time>
      </trkpt>
      <trkpt lat="43.02577" lon="0.18577">
        <ele>1019.4</ele>
        <time>2023-11-19T09:56:19Z</time>
      </trkpt>
      <trkpt lat="43.02578" lon="0.18577">
        <ele>1019.4</ele>
        <time>2023-11-19T09:56:20Z</time>
      </trkpt>
      <trkpt lat="43.02578" lon="0.18578">
        <ele>1019.5</ele>
        <time>2023-11-19T09:56:21Z</time>
      </trkpt>
      <trkpt lat="43.02578" lon="0.18579">
        <ele>1019.7</ele>
        <time>2023-11-19T09:56:22Z</time>
      </trkpt>
      <trkpt lat="43.02578" lon="0.1858">
        <ele>1019.8</ele>
        <time>2023-11-19T09:56:23Z</time>
      </trkpt>
      <trkpt lat="43.02578" lon="0.18581">
        <ele>1020.1</ele>
        <time>2023-11-19T09:56:24Z</time>
      </trkpt>
      <trkpt lat="43.02577" lon="0.18583">
        <ele>1020.3</ele>
        <time>2023-11-19T09:56:25Z</time>
      </trkpt>
      <trkpt lat="43.02577" lon="0.18584">
        <ele>1020.5</ele>
        <time>2023-11-19T09:56:26Z</time>
      </trkpt>
      <trkpt lat="43.02576" lon="0.18585">
        <ele>1020.8</ele>
        <time>2023-11-19T09:56:27Z</time>
      </trkpt>
      <trkpt lat="43.02576" lon="0.18587">
        <ele>1021</ele>
        <time>2023-11-19T09:56:28Z</time>
      </trkpt>
      <trkpt lat="43.02577" lon="0.18588">
        <ele>1021.2</ele>
        <time>2023-11-19T09:56:29Z</time>
      </trkpt>
      <trkpt lat="43.02577" lon="0.18589">
        <ele>1021.4</ele>
        <time>2023-11-19T09:56:30Z</time>
      </trkpt>
      <trkpt lat="43.02577" lon="0.18591">
        <ele>1021.7</ele>
        <time>2023-11-19T09:56:31Z</time>
      </trkpt>
      <trkpt lat="43.02576" lon="0.18592">
        <ele>1021.9</ele>
        <time>2023-11-19T09:56:32Z</time>
      </trkpt>
      <trkpt lat="43.02576" lon="0.18593">
        <ele>1022</ele>
        <time>2023-11-19T09:56:33Z</time>
      </trkpt>
      <trkpt lat="43.02576" lon="0.18594">
        <ele>1022.2</ele>
        <time>2023-11-19T09:56:34Z</time>
      </trkpt>
      <trkpt lat="43.02575" lon="0.18595">
        <ele>1022.6</ele>
        <time>2023-11-19T09:56:35Z</time>
      </trkpt>
      <trkpt lat="43.02575" lon="0.18597">
        <ele>1022.8</ele>
        <time>2023-11-19T09:56:36Z</time>
      </trkpt>
      <trkpt lat="43.02575" lon="0.18597">
        <ele>1022.9</ele>
        <time>2023-11-19T09:56:37Z</time>
      </trkpt>
      <trkpt lat="43.02575" lon="0.18598">
        <ele>1023.1</ele>
        <time>2023-11-19T09:56:38Z</time>
      </trkpt>
      <trkpt lat="43.02575" lon="0.18598">
        <ele>1023.2</ele>
        <time>2023-11-19T09:56:39Z</time>
      </trkpt>
      <trkpt lat="43.02575" lon="0.18599">
        <ele>1023.4</ele>
        <time>2023-11-19T09:56:40Z</time>
      </trkpt>
      <trkpt lat="43.02575" lon="0.186">
        <ele>1023.5</ele>
        <time>2023-11-19T09:56:41Z</time>
      </trkpt>
      <trkpt lat="43.02575" lon="0.18601">
        <ele>1023.6</ele>
        <time>2023-11-19T09:56:42Z</time>
      </trkpt>
      <trkpt lat="43.02575" lon="0.18601">
        <ele>1023.6</ele>
        <time>2023-11-19T09:56:43Z</time>
      </trkpt>
      <trkpt lat="43.02575" lon="0.18601">
        <ele>1023.7</ele>
        <time>2023-11-19T09:56:44Z</time>
      </trkpt>
      <trkpt lat="43.02575" lon="0.18602">
        <ele>1023.8</ele>
        <time>2023-11-19T09:56:45Z</time>
      </trkpt>
      <trkpt lat="43.02575" lon="0.18602">
        <ele>1023.9</ele>
        <time>2023-11-19T09:56:46Z</time>
      </trkpt>
      <trkpt lat="43.02575" lon="0.18602">
        <ele>1023.9</ele>
        <time>2023-11-19T09:56:47Z</time>
      </trkpt>
      <trkpt lat="43.02575" lon="0.18602">
        <ele>1023.9</ele>
        <time>2023-11-19T09:56:48Z</time>
      </trkpt>
      <trkpt lat="43.02574" lon="0.18602">
        <ele>1024.1</ele>
        <time>2023-11-19T09:56:49Z</time>
      </trkpt>
      <trkpt lat="43.02574" lon="0.18602">
        <ele>1024.1</ele>
        <time>2023-11-19T09:56:50Z</time>
      </trkpt>
      <trkpt lat="43.02574" lon="0.18602">
        <ele>1024.1</ele>
        <time>2023-11-19T09:56:51Z</time>
      </trkpt>
      <trkpt lat="43.02574" lon="0.18602">
        <ele>1024.1</ele>
        <time>2023-11-19T09:56:52Z</time>
      </trkpt>
      <trkpt lat="43.02575" lon="0.18601">
        <ele>1024.2</ele>
        <time>2023-11-19T09:56:53Z</time>
      </trkpt>
      <trkpt lat="43.02575" lon="0.18601">
        <ele>1024.2</ele>
        <time>2023-11-19T09:56:54Z</time>
      </trkpt>
      <trkpt lat="43.02575" lon="0.18601">
        <ele>1024.3</ele>
        <time>2023-11-19T09:56:55Z</time>
      </trkpt>
      <trkpt lat="43.02575" lon="0.18602">
        <ele>1024.5</ele>
        <time>2023-11-19T09:56:56Z</time>
      </trkpt>
      <trkpt lat="43.02573" lon="0.18601">
        <ele>1024.8</ele>
        <time>2023-11-19T09:56:57Z</time>
      </trkpt>
      <trkpt lat="43.02574" lon="0.18601">
        <ele>1025</ele>
        <time>2023-11-19T09:56:58Z</time>
      </trkpt>
      <trkpt lat="43.02574" lon="0.18602">
        <ele>1025.1</ele>
        <time>2023-11-19T09:56:59Z</time>
      </trkpt>
      <trkpt lat="43.02574" lon="0.18602">
        <ele>1025.2</ele>
        <time>2023-11-19T09:57:00Z</time>
      </trkpt>
      <trkpt lat="43.02574" lon="0.18602">
        <ele>1025.2</ele>
        <time>2023-11-19T09:57:01Z</time>
      </trkpt>
      <trkpt lat="43.02574" lon="0.18602">
        <ele>1025.2</ele>
        <time>2023-11-19T09:57:02Z</time>
      </trkpt>
      <trkpt lat="43.02574" lon="0.18602">
        <ele>1025.3</ele>
        <time>2023-11-19T09:57:03Z</time>
      </trkpt>
      <trkpt lat="43.02574" lon="0.18602">
        <ele>1025.3</ele>
        <time>2023-11-19T09:57:04Z</time>
      </trkpt>
      <trkpt lat="43.02574" lon="0.18601">
        <ele>1025.3</ele>
        <time>2023-11-19T09:57:05Z</time>
      </trkpt>
      <trkpt lat="43.02574" lon="0.18601">
        <ele>1025.3</ele>
        <time>2023-11-19T09:57:06Z</time>
      </trkpt>
      <trkpt lat="43.02574" lon="0.18601">
        <ele>1025.3</ele>
        <time>2023-11-19T09:57:07Z</time>
      </trkpt>
      <trkpt lat="43.02574" lon="0.18601">
        <ele>1025.3</ele>
        <time>2023-11-19T09:57:08Z</time>
      </trkpt>
      <trkpt lat="43.02574" lon="0.18601">
        <ele>1025.3</ele>
        <time>2023-11-19T09:57:09Z</time>
      </trkpt>
      <trkpt lat="43.02574" lon="0.18601">
        <ele>1025.3</ele>
        <time>2023-11-19T09:57:10Z</time>
      </trkpt>
      <trkpt lat="43.02574" lon="0.18601">
        <ele>1025.3</ele>
        <time>2023-11-19T09:57:11Z</time>
      </trkpt>
      <trkpt lat="43.02574" lon="0.18601">
        <ele>1025.3</ele>
        <time>2023-11-19T09:57:12Z</time>
      </trkpt>
      <trkpt lat="43.02574" lon="0.18601">
        <ele>1025.3</ele>
        <time>2023-11-19T09:57:13Z</time>
      </trkpt>
      <trkpt lat="43.02574" lon="0.18601">
        <ele>1025.3</ele>
        <time>2023-11-19T09:57:14Z</time>
      </trkpt>
      <trkpt lat="43.02575" lon="0.18601">
        <ele>1025.5</ele>
        <time>2023-11-19T09:57:15Z</time>
      </trkpt>
      <trkpt lat="43.02575" lon="0.186">
        <ele>1025.5</ele>
        <time>2023-11-19T09:57:16Z</time>
      </trkpt>
      <trkpt lat="43.02575" lon="0.186">
        <ele>1025.5</ele>
        <time>2023-11-19T09:57:17Z</time>
      </trkpt>
      <trkpt lat="43.02575" lon="0.186">
        <ele>1025.5</ele>
        <time>2023-11-19T09:57:18Z</time>
      </trkpt>
      <trkpt lat="43.02575" lon="0.186">
        <ele>1025.5</ele>
        <time>2023-11-19T09:57:19Z</time>
      </trkpt>
      <trkpt lat="43.02575" lon="0.186">
        <ele>1025.5</ele>
        <time>2023-11-19T09:57:20Z</time>
      </trkpt>
      <trkpt lat="43.02574" lon="0.18601">
        <ele>1025.6</ele>
        <time>2023-11-19T09:57:21Z</time>
      </trkpt>
      <trkpt lat="43.02573" lon="0.18601">
        <ele>1025.9</ele>
        <time>2023-11-19T09:57:22Z</time>
      </trkpt>
      <trkpt lat="43.02574" lon="0.18603">
        <ele>1026.1</ele>
        <time>2023-11-19T09:57:23Z</time>
      </trkpt>
      <trkpt lat="43.02573" lon="0.18604">
        <ele>1026.2</ele>
        <time>2023-11-19T09:57:24Z</time>
      </trkpt>
      <trkpt lat="43.02573" lon="0.18605">
        <ele>1026.4</ele>
        <time>2023-11-19T09:57:25Z</time>
      </trkpt>
      <trkpt lat="43.02573" lon="0.18606">
        <ele>1026.6</ele>
        <time>2023-11-19T09:57:26Z</time>
      </trkpt>
      <trkpt lat="43.02573" lon="0.18606">
        <ele>1026.7</ele>
        <time>2023-11-19T09:57:27Z</time>
      </trkpt>
      <trkpt lat="43.02573" lon="0.18607">
        <ele>1026.8</ele>
        <time>2023-11-19T09:57:28Z</time>
      </trkpt>
      <trkpt lat="43.02573" lon="0.18607">
        <ele>1026.9</ele>
        <time>2023-11-19T09:57:29Z</time>
      </trkpt>
      <trkpt lat="43.02573" lon="0.18607">
        <ele>1026.9</ele>
        <time>2023-11-19T09:57:30Z</time>
      </trkpt>
      <trkpt lat="43.02573" lon="0.18607">
        <ele>1027</ele>
        <time>2023-11-19T09:57:31Z</time>
      </trkpt>
      <trkpt lat="43.02573" lon="0.18607">
        <ele>1027</ele>
        <time>2023-11-19T09:57:32Z</time>
      </trkpt>
      <trkpt lat="43.02573" lon="0.18607">
        <ele>1027</ele>
        <time>2023-11-19T09:57:33Z</time>
      </trkpt>
      <trkpt lat="43.02573" lon="0.18607">
        <ele>1027</ele>
        <time>2023-11-19T09:57:34Z</time>
      </trkpt>
      <trkpt lat="43.02573" lon="0.18607">
        <ele>1027</ele>
        <time>2023-11-19T09:57:35Z</time>
      </trkpt>
      <trkpt lat="43.02572" lon="0.18608">
        <ele>1027</ele>
        <time>2023-11-19T09:57:36Z</time>
      </trkpt>
      <trkpt lat="43.02572" lon="0.18608">
        <ele>1027</ele>
        <time>2023-11-19T09:57:37Z</time>
      </trkpt>
      <trkpt lat="43.02572" lon="0.18608">
        <ele>1027</ele>
        <time>2023-11-19T09:57:38Z</time>
      </trkpt>
      <trkpt lat="43.02573" lon="0.18608">
        <ele>1027.1</ele>
        <time>2023-11-19T09:57:39Z</time>
      </trkpt>
      <trkpt lat="43.02572" lon="0.18608">
        <ele>1027.2</ele>
        <time>2023-11-19T09:57:40Z</time>
      </trkpt>
      <trkpt lat="43.02572" lon="0.18608">
        <ele>1027.2</ele>
        <time>2023-11-19T09:57:41Z</time>
      </trkpt>
      <trkpt lat="43.02572" lon="0.18608">
        <ele>1027.3</ele>
        <time>2023-11-19T09:57:42Z</time>
      </trkpt>
      <trkpt lat="43.02572" lon="0.18608">
        <ele>1027.3</ele>
        <time>2023-11-19T09:57:43Z</time>
      </trkpt>
      <trkpt lat="43.02572" lon="0.18608">
        <ele>1027.3</ele>
        <time>2023-11-19T09:57:44Z</time>
      </trkpt>
      <trkpt lat="43.02572" lon="0.18608">
        <ele>1027.4</ele>
        <time>2023-11-19T09:57:45Z</time>
      </trkpt>
      <trkpt lat="43.02572" lon="0.18608">
        <ele>1027.4</ele>
        <time>2023-11-19T09:57:46Z</time>
      </trkpt>
      <trkpt lat="43.02572" lon="0.18608">
        <ele>1027.4</ele>
        <time>2023-11-19T09:57:47Z</time>
      </trkpt>
      <trkpt lat="43.02572" lon="0.18608">
        <ele>1027.4</ele>
        <time>2023-11-19T09:57:48Z</time>
      </trkpt>
      <trkpt lat="43.02572" lon="0.18608">
        <ele>1027.4</ele>
        <time>2023-11-19T09:57:49Z</time>
      </trkpt>
      <trkpt lat="43.02572" lon="0.18608">
        <ele>1027.4</ele>
        <time>2023-11-19T09:57:50Z</time>
      </trkpt>
      <trkpt lat="43.02572" lon="0.18608">
        <ele>1027.4</ele>
        <time>2023-11-19T09:57:51Z</time>
      </trkpt>
      <trkpt lat="43.02572" lon="0.18608">
        <ele>1027.4</ele>
        <time>2023-11-19T09:57:52Z</time>
      </trkpt>
      <trkpt lat="43.02572" lon="0.18608">
        <ele>1027.4</ele>
        <time>2023-11-19T09:57:53Z</time>
      </trkpt>
      <trkpt lat="43.02572" lon="0.18608">
        <ele>1027.4</ele>
        <time>2023-11-19T09:57:54Z</time>
      </trkpt>
      <trkpt lat="43.02572" lon="0.18608">
        <ele>1027.4</ele>
        <time>2023-11-19T09:57:55Z</time>
      </trkpt>
      <trkpt lat="43.02572" lon="0.18608">
        <ele>1027.4</ele>
        <time>2023-11-19T09:57:56Z</time>
      </trkpt>
      <trkpt lat="43.02572" lon="0.18608">
        <ele>1027.4</ele>
        <time>2023-11-19T09:57:57Z</time>
      </trkpt>
      <trkpt lat="43.02572" lon="0.18608">
        <ele>1027.4</ele>
        <time>2023-11-19T09:57:58Z</time>
      </trkpt>
      <trkpt lat="43.02571" lon="0.18608">
        <ele>1027.6</ele>
        <time>2023-11-19T09:57:59Z</time>
      </trkpt>
      <trkpt lat="43.02571" lon="0.18608">
        <ele>1027.7</ele>
        <time>2023-11-19T09:58:00Z</time>
      </trkpt>
      <trkpt lat="43.02571" lon="0.18608">
        <ele>1027.7</ele>
        <time>2023-11-19T09:58:01Z</time>
      </trkpt>
      <trkpt lat="43.02571" lon="0.18608">
        <ele>1027.8</ele>
        <time>2023-11-19T09:58:02Z</time>
      </trkpt>
      <trkpt lat="43.02572" lon="0.18609">
        <ele>1027.9</ele>
        <time>2023-11-19T09:58:03Z</time>
      </trkpt>
      <trkpt lat="43.02573" lon="0.1861">
        <ele>1028.2</ele>
        <time>2023-11-19T09:58:04Z</time>
      </trkpt>
      <trkpt lat="43.02573" lon="0.18611">
        <ele>1028.4</ele>
        <time>2023-11-19T09:58:05Z</time>
      </trkpt>
      <trkpt lat="43.02572" lon="0.18612">
        <ele>1028.5</ele>
        <time>2023-11-19T09:58:06Z</time>
      </trkpt>
      <trkpt lat="43.02572" lon="0.18613">
        <ele>1028.7</ele>
        <time>2023-11-19T09:58:07Z</time>
      </trkpt>
      <trkpt lat="43.02572" lon="0.18614">
        <ele>1028.8</ele>
        <time>2023-11-19T09:58:08Z</time>
      </trkpt>
      <trkpt lat="43.02572" lon="0.18613">
        <ele>1029</ele>
        <time>2023-11-19T09:58:09Z</time>
      </trkpt>
      <trkpt lat="43.02572" lon="0.18615">
        <ele>1029.3</ele>
        <time>2023-11-19T09:58:10Z</time>
      </trkpt>
      <trkpt lat="43.02571" lon="0.18615">
        <ele>1029.5</ele>
        <time>2023-11-19T09:58:11Z</time>
      </trkpt>
      <trkpt lat="43.02571" lon="0.18616">
        <ele>1029.6</ele>
        <time>2023-11-19T09:58:12Z</time>
      </trkpt>
      <trkpt lat="43.02572" lon="0.18618">
        <ele>1030</ele>
        <time>2023-11-19T09:58:13Z</time>
      </trkpt>
      <trkpt lat="43.02571" lon="0.18618">
        <ele>1030.1</ele>
        <time>2023-11-19T09:58:14Z</time>
      </trkpt>
      <trkpt lat="43.02571" lon="0.18619">
        <ele>1030.3</ele>
        <time>2023-11-19T09:58:15Z</time>
      </trkpt>
      <trkpt lat="43.02571" lon="0.1862">
        <ele>1030.4</ele>
        <time>2023-11-19T09:58:16Z</time>
      </trkpt>
      <trkpt lat="43.02571" lon="0.18621">
        <ele>1030.6</ele>
        <time>2023-11-19T09:58:17Z</time>
      </trkpt>
      <trkpt lat="43.0257" lon="0.18622">
        <ele>1030.8</ele>
        <time>2023-11-19T09:58:18Z</time>
      </trkpt>
      <trkpt lat="43.0257" lon="0.18623">
        <ele>1030.9</ele>
        <time>2023-11-19T09:58:19Z</time>
      </trkpt>
      <trkpt lat="43.02569" lon="0.18624">
        <ele>1031.1</ele>
        <time>2023-11-19T09:58:20Z</time>
      </trkpt>
      <trkpt lat="43.02569" lon="0.18624">
        <ele>1031.1</ele>
        <time>2023-11-19T09:58:21Z</time>
      </trkpt>
      <trkpt lat="43.02569" lon="0.18624">
        <ele>1031.2</ele>
        <time>2023-11-19T09:58:22Z</time>
      </trkpt>
      <trkpt lat="43.02569" lon="0.18624">
        <ele>1031.2</ele>
        <time>2023-11-19T09:58:23Z</time>
      </trkpt>
      <trkpt lat="43.02568" lon="0.18627">
        <ele>1031.7</ele>
        <time>2023-11-19T09:58:24Z</time>
      </trkpt>
      <trkpt lat="43.02568" lon="0.18627">
        <ele>1031.8</ele>
        <time>2023-11-19T09:58:25Z</time>
      </trkpt>
      <trkpt lat="43.02567" lon="0.18629">
        <ele>1032.1</ele>
        <time>2023-11-19T09:58:26Z</time>
      </trkpt>
      <trkpt lat="43.02567" lon="0.1863">
        <ele>1032.2</ele>
        <time>2023-11-19T09:58:27Z</time>
      </trkpt>
      <trkpt lat="43.02567" lon="0.1863">
        <ele>1032.3</ele>
        <time>2023-11-19T09:58:28Z</time>
      </trkpt>
      <trkpt lat="43.02567" lon="0.18631">
        <ele>1032.4</ele>
        <time>2023-11-19T09:58:29Z</time>
      </trkpt>
      <trkpt lat="43.02567" lon="0.18632">
        <ele>1032.5</ele>
        <time>2023-11-19T09:58:30Z</time>
      </trkpt>
      <trkpt lat="43.02566" lon="0.18632">
        <ele>1032.7</ele>
        <time>2023-11-19T09:58:31Z</time>
      </trkpt>
      <trkpt lat="43.02566" lon="0.18633">
        <ele>1032.8</ele>
        <time>2023-11-19T09:58:32Z</time>
      </trkpt>
      <trkpt lat="43.02565" lon="0.18634">
        <ele>1033</ele>
        <time>2023-11-19T09:58:33Z</time>
      </trkpt>
      <trkpt lat="43.02565" lon="0.18635">
        <ele>1033.1</ele>
        <time>2023-11-19T09:58:34Z</time>
      </trkpt>
      <trkpt lat="43.02565" lon="0.18635">
        <ele>1033.2</ele>
        <time>2023-11-19T09:58:35Z</time>
      </trkpt>
      <trkpt lat="43.02565" lon="0.18636">
        <ele>1033.4</ele>
        <time>2023-11-19T09:58:36Z</time>
      </trkpt>
      <trkpt lat="43.02565" lon="0.18637">
        <ele>1033.5</ele>
        <time>2023-11-19T09:58:37Z</time>
      </trkpt>
      <trkpt lat="43.02564" lon="0.18637">
        <ele>1033.5</ele>
        <time>2023-11-19T09:58:38Z</time>
      </trkpt>
      <trkpt lat="43.02564" lon="0.18638">
        <ele>1033.7</ele>
        <time>2023-11-19T09:58:39Z</time>
      </trkpt>
      <trkpt lat="43.02563" lon="0.18639">
        <ele>1033.9</ele>
        <time>2023-11-19T09:58:40Z</time>
      </trkpt>
      <trkpt lat="43.02563" lon="0.18639">
        <ele>1034</ele>
        <time>2023-11-19T09:58:41Z</time>
      </trkpt>
      <trkpt lat="43.02563" lon="0.18641">
        <ele>1034.2</ele>
        <time>2023-11-19T09:58:42Z</time>
      </trkpt>
      <trkpt lat="43.02563" lon="0.18641">
        <ele>1034.3</ele>
        <time>2023-11-19T09:58:43Z</time>
      </trkpt>
      <trkpt lat="43.02563" lon="0.18642">
        <ele>1034.3</ele>
        <time>2023-11-19T09:58:44Z</time>
      </trkpt>
      <trkpt lat="43.02563" lon="0.18642">
        <ele>1034.4</ele>
        <time>2023-11-19T09:58:45Z</time>
      </trkpt>
      <trkpt lat="43.02563" lon="0.18643">
        <ele>1034.5</ele>
        <time>2023-11-19T09:58:46Z</time>
      </trkpt>
      <trkpt lat="43.02562" lon="0.18644">
        <ele>1034.7</ele>
        <time>2023-11-19T09:58:47Z</time>
      </trkpt>
      <trkpt lat="43.02562" lon="0.18645">
        <ele>1034.9</ele>
        <time>2023-11-19T09:58:48Z</time>
      </trkpt>
      <trkpt lat="43.02561" lon="0.18646">
        <ele>1035.1</ele>
        <time>2023-11-19T09:58:49Z</time>
      </trkpt>
      <trkpt lat="43.02561" lon="0.18646">
        <ele>1035.2</ele>
        <time>2023-11-19T09:58:50Z</time>
      </trkpt>
      <trkpt lat="43.02561" lon="0.18647">
        <ele>1035.2</ele>
        <time>2023-11-19T09:58:51Z</time>
      </trkpt>
      <trkpt lat="43.0256" lon="0.18647">
        <ele>1035.4</ele>
        <time>2023-11-19T09:58:52Z</time>
      </trkpt>
      <trkpt lat="43.0256" lon="0.18649">
        <ele>1035.6</ele>
        <time>2023-11-19T09:58:53Z</time>
      </trkpt>
      <trkpt lat="43.02559" lon="0.1865">
        <ele>1035.8</ele>
        <time>2023-11-19T09:58:54Z</time>
      </trkpt>
      <trkpt lat="43.02559" lon="0.1865">
        <ele>1035.9</ele>
        <time>2023-11-19T09:58:55Z</time>
      </trkpt>
      <trkpt lat="43.02559" lon="0.18651">
        <ele>1036</ele>
        <time>2023-11-19T09:58:56Z</time>
      </trkpt>
      <trkpt lat="43.0256" lon="0.18651">
        <ele>1036.2</ele>
        <time>2023-11-19T09:58:57Z</time>
      </trkpt>
      <trkpt lat="43.02559" lon="0.18652">
        <ele>1036.4</ele>
        <time>2023-11-19T09:58:58Z</time>
      </trkpt>
      <trkpt lat="43.02559" lon="0.18653">
        <ele>1036.6</ele>
        <time>2023-11-19T09:58:59Z</time>
      </trkpt>
      <trkpt lat="43.02559" lon="0.18654">
        <ele>1036.7</ele>
        <time>2023-11-19T09:59:00Z</time>
      </trkpt>
      <trkpt lat="43.02557" lon="0.18656">
        <ele>1037.1</ele>
        <time>2023-11-19T09:59:01Z</time>
      </trkpt>
      <trkpt lat="43.02556" lon="0.18657">
        <ele>1037.4</ele>
        <time>2023-11-19T09:59:02Z</time>
      </trkpt>
      <trkpt lat="43.02555" lon="0.18658">
        <ele>1037.6</ele>
        <time>2023-11-19T09:59:03Z</time>
      </trkpt>
      <trkpt lat="43.02556" lon="0.18657">
        <ele>1037.8</ele>
        <time>2023-11-19T09:59:04Z</time>
      </trkpt>
      <trkpt lat="43.02556" lon="0.18659">
        <ele>1038</ele>
        <time>2023-11-19T09:59:05Z</time>
      </trkpt>
      <trkpt lat="43.02556" lon="0.18659">
        <ele>1038</ele>
        <time>2023-11-19T09:59:06Z</time>
      </trkpt>
      <trkpt lat="43.02556" lon="0.1866">
        <ele>1038.2</ele>
        <time>2023-11-19T09:59:07Z</time>
      </trkpt>
      <trkpt lat="43.02555" lon="0.18661">
        <ele>1038.4</ele>
        <time>2023-11-19T09:59:08Z</time>
      </trkpt>
      <trkpt lat="43.02555" lon="0.18661">
        <ele>1038.6</ele>
        <time>2023-11-19T09:59:09Z</time>
      </trkpt>
      <trkpt lat="43.02554" lon="0.18662">
        <ele>1038.7</ele>
        <time>2023-11-19T09:59:10Z</time>
      </trkpt>
      <trkpt lat="43.02554" lon="0.18663">
        <ele>1038.9</ele>
        <time>2023-11-19T09:59:11Z</time>
      </trkpt>
      <trkpt lat="43.02553" lon="0.18664">
        <ele>1039.1</ele>
        <time>2023-11-19T09:59:12Z</time>
      </trkpt>
      <trkpt lat="43.02553" lon="0.18665">
        <ele>1039.2</ele>
        <time>2023-11-19T09:59:13Z</time>
      </trkpt>
      <trkpt lat="43.02552" lon="0.18665">
        <ele>1039.4</ele>
        <time>2023-11-19T09:59:14Z</time>
      </trkpt>
      <trkpt lat="43.02552" lon="0.18666">
        <ele>1039.6</ele>
        <time>2023-11-19T09:59:15Z</time>
      </trkpt>
      <trkpt lat="43.02552" lon="0.18667">
        <ele>1039.7</ele>
        <time>2023-11-19T09:59:16Z</time>
      </trkpt>
      <trkpt lat="43.02552" lon="0.18668">
        <ele>1039.9</ele>
        <time>2023-11-19T09:59:17Z</time>
      </trkpt>
      <trkpt lat="43.02552" lon="0.18669">
        <ele>1040</ele>
        <time>2023-11-19T09:59:18Z</time>
      </trkpt>
      <trkpt lat="43.02551" lon="0.1867">
        <ele>1040.2</ele>
        <time>2023-11-19T09:59:19Z</time>
      </trkpt>
      <trkpt lat="43.02552" lon="0.18671">
        <ele>1040.3</ele>
        <time>2023-11-19T09:59:20Z</time>
      </trkpt>
      <trkpt lat="43.02551" lon="0.18671">
        <ele>1040.4</ele>
        <time>2023-11-19T09:59:21Z</time>
      </trkpt>
      <trkpt lat="43.02551" lon="0.18672">
        <ele>1040.6</ele>
        <time>2023-11-19T09:59:22Z</time>
      </trkpt>
      <trkpt lat="43.02551" lon="0.18673">
        <ele>1040.7</ele>
        <time>2023-11-19T09:59:23Z</time>
      </trkpt>
      <trkpt lat="43.02551" lon="0.18673">
        <ele>1040.8</ele>
        <time>2023-11-19T09:59:24Z</time>
      </trkpt>
      <trkpt lat="43.0255" lon="0.18674">
        <ele>1041</ele>
        <time>2023-11-19T09:59:25Z</time>
      </trkpt>
      <trkpt lat="43.0255" lon="0.18675">
        <ele>1041.1</ele>
        <time>2023-11-19T09:59:26Z</time>
      </trkpt>
      <trkpt lat="43.02549" lon="0.18675">
        <ele>1041.2</ele>
        <time>2023-11-19T09:59:27Z</time>
      </trkpt>
      <trkpt lat="43.02549" lon="0.18676">
        <ele>1041.4</ele>
        <time>2023-11-19T09:59:28Z</time>
      </trkpt>
      <trkpt lat="43.02549" lon="0.18677">
        <ele>1041.6</ele>
        <time>2023-11-19T09:59:29Z</time>
      </trkpt>
      <trkpt lat="43.02549" lon="0.18677">
        <ele>1041.6</ele>
        <time>2023-11-19T09:59:30Z</time>
      </trkpt>
      <trkpt lat="43.02549" lon="0.18677">
        <ele>1041.7</ele>
        <time>2023-11-19T09:59:31Z</time>
      </trkpt>
      <trkpt lat="43.02549" lon="0.18678">
        <ele>1041.9</ele>
        <time>2023-11-19T09:59:32Z</time>
      </trkpt>
      <trkpt lat="43.02549" lon="0.18679">
        <ele>1042.1</ele>
        <time>2023-11-19T09:59:33Z</time>
      </trkpt>
      <trkpt lat="43.02549" lon="0.1868">
        <ele>1042.2</ele>
        <time>2023-11-19T09:59:34Z</time>
      </trkpt>
      <trkpt lat="43.02549" lon="0.1868">
        <ele>1042.3</ele>
        <time>2023-11-19T09:59:35Z</time>
      </trkpt>
      <trkpt lat="43.02549" lon="0.18681">
        <ele>1042.4</ele>
        <time>2023-11-19T09:59:36Z</time>
      </trkpt>
      <trkpt lat="43.02548" lon="0.18682">
        <ele>1042.6</ele>
        <time>2023-11-19T09:59:37Z</time>
      </trkpt>
      <trkpt lat="43.02548" lon="0.18683">
        <ele>1042.7</ele>
        <time>2023-11-19T09:59:38Z</time>
      </trkpt>
      <trkpt lat="43.02548" lon="0.18683">
        <ele>1042.8</ele>
        <time>2023-11-19T09:59:39Z</time>
      </trkpt>
      <trkpt lat="43.02548" lon="0.18684">
        <ele>1042.9</ele>
        <time>2023-11-19T09:59:40Z</time>
      </trkpt>
      <trkpt lat="43.02548" lon="0.18685">
        <ele>1043.1</ele>
        <time>2023-11-19T09:59:41Z</time>
      </trkpt>
      <trkpt lat="43.02548" lon="0.18686">
        <ele>1043.2</ele>
        <time>2023-11-19T09:59:42Z</time>
      </trkpt>
      <trkpt lat="43.02548" lon="0.18687">
        <ele>1043.3</ele>
        <time>2023-11-19T09:59:43Z</time>
      </trkpt>
      <trkpt lat="43.02548" lon="0.18688">
        <ele>1043.5</ele>
        <time>2023-11-19T09:59:44Z</time>
      </trkpt>
      <trkpt lat="43.02547" lon="0.18688">
        <ele>1043.6</ele>
        <time>2023-11-19T09:59:45Z</time>
      </trkpt>
      <trkpt lat="43.02547" lon="0.18689">
        <ele>1043.7</ele>
        <time>2023-11-19T09:59:46Z</time>
      </trkpt>
      <trkpt lat="43.02546" lon="0.1869">
        <ele>1043.9</ele>
        <time>2023-11-19T09:59:47Z</time>
      </trkpt>
      <trkpt lat="43.02546" lon="0.1869">
        <ele>1044</ele>
        <time>2023-11-19T09:59:48Z</time>
      </trkpt>
      <trkpt lat="43.02546" lon="0.18691">
        <ele>1044.1</ele>
        <time>2023-11-19T09:59:49Z</time>
      </trkpt>
      <trkpt lat="43.02546" lon="0.18692">
        <ele>1044.3</ele>
        <time>2023-11-19T09:59:50Z</time>
      </trkpt>
      <trkpt lat="43.02546" lon="0.18693">
        <ele>1044.5</ele>
        <time>2023-11-19T09:59:51Z</time>
      </trkpt>
      <trkpt lat="43.02546" lon="0.18694">
        <ele>1044.5</ele>
        <time>2023-11-19T09:59:52Z</time>
      </trkpt>
      <trkpt lat="43.02546" lon="0.18695">
        <ele>1044.7</ele>
        <time>2023-11-19T09:59:53Z</time>
      </trkpt>
      <trkpt lat="43.02546" lon="0.18696">
        <ele>1044.8</ele>
        <time>2023-11-19T09:59:54Z</time>
      </trkpt>
      <trkpt lat="43.02546" lon="0.18696">
        <ele>1044.9</ele>
        <time>2023-11-19T09:59:55Z</time>
      </trkpt>
      <trkpt lat="43.02545" lon="0.18697">
        <ele>1045</ele>
        <time>2023-11-19T09:59:56Z</time>
      </trkpt>
      <trkpt lat="43.02545" lon="0.18698">
        <ele>1045.2</ele>
        <time>2023-11-19T09:59:57Z</time>
      </trkpt>
      <trkpt lat="43.02545" lon="0.18699">
        <ele>1045.3</ele>
        <time>2023-11-19T09:59:58Z</time>
      </trkpt>
      <trkpt lat="43.02544" lon="0.187">
        <ele>1045.5</ele>
        <time>2023-11-19T09:59:59Z</time>
      </trkpt>
      <trkpt lat="43.02544" lon="0.187">
        <ele>1045.6</ele>
        <time>2023-11-19T10:00:00Z</time>
      </trkpt>
      <trkpt lat="43.02544" lon="0.18701">
        <ele>1045.7</ele>
        <time>2023-11-19T10:00:01Z</time>
      </trkpt>
      <trkpt lat="43.02544" lon="0.18702">
        <ele>1045.9</ele>
        <time>2023-11-19T10:00:02Z</time>
      </trkpt>
      <trkpt lat="43.02543" lon="0.18703">
        <ele>1046</ele>
        <time>2023-11-19T10:00:03Z</time>
      </trkpt>
      <trkpt lat="43.02542" lon="0.18704">
        <ele>1046.3</ele>
        <time>2023-11-19T10:00:04Z</time>
      </trkpt>
      <trkpt lat="43.02541" lon="0.18704">
        <ele>1046.4</ele>
        <time>2023-11-19T10:00:05Z</time>
      </trkpt>
      <trkpt lat="43.02541" lon="0.18705">
        <ele>1046.6</ele>
        <time>2023-11-19T10:00:06Z</time>
      </trkpt>
      <trkpt lat="43.02541" lon="0.18706">
        <ele>1046.6</ele>
        <time>2023-11-19T10:00:07Z</time>
      </trkpt>
      <trkpt lat="43.02541" lon="0.18707">
        <ele>1046.9</ele>
        <time>2023-11-19T10:00:08Z</time>
      </trkpt>
      <trkpt lat="43.0254" lon="0.18708">
        <ele>1047.1</ele>
        <time>2023-11-19T10:00:09Z</time>
      </trkpt>
      <trkpt lat="43.0254" lon="0.18708">
        <ele>1047.1</ele>
        <time>2023-11-19T10:00:10Z</time>
      </trkpt>
      <trkpt lat="43.0254" lon="0.18709">
        <ele>1047.2</ele>
        <time>2023-11-19T10:00:11Z</time>
      </trkpt>
      <trkpt lat="43.0254" lon="0.1871">
        <ele>1047.3</ele>
        <time>2023-11-19T10:00:12Z</time>
      </trkpt>
      <trkpt lat="43.0254" lon="0.18711">
        <ele>1047.4</ele>
        <time>2023-11-19T10:00:13Z</time>
      </trkpt>
      <trkpt lat="43.0254" lon="0.18711">
        <ele>1047.6</ele>
        <time>2023-11-19T10:00:14Z</time>
      </trkpt>
      <trkpt lat="43.02539" lon="0.18713">
        <ele>1047.8</ele>
        <time>2023-11-19T10:00:15Z</time>
      </trkpt>
      <trkpt lat="43.0254" lon="0.18714">
        <ele>1048</ele>
        <time>2023-11-19T10:00:16Z</time>
      </trkpt>
      <trkpt lat="43.0254" lon="0.18714">
        <ele>1048</ele>
        <time>2023-11-19T10:00:17Z</time>
      </trkpt>
      <trkpt lat="43.0254" lon="0.18715">
        <ele>1048.2</ele>
        <time>2023-11-19T10:00:18Z</time>
      </trkpt>
      <trkpt lat="43.0254" lon="0.18716">
        <ele>1048.3</ele>
        <time>2023-11-19T10:00:19Z</time>
      </trkpt>
      <trkpt lat="43.0254" lon="0.18717">
        <ele>1048.4</ele>
        <time>2023-11-19T10:00:20Z</time>
      </trkpt>
      <trkpt lat="43.02539" lon="0.18718">
        <ele>1048.6</ele>
        <time>2023-11-19T10:00:21Z</time>
      </trkpt>
      <trkpt lat="43.02539" lon="0.18718">
        <ele>1048.7</ele>
        <time>2023-11-19T10:00:22Z</time>
      </trkpt>
      <trkpt lat="43.02539" lon="0.18719">
        <ele>1048.8</ele>
        <time>2023-11-19T10:00:23Z</time>
      </trkpt>
      <trkpt lat="43.02539" lon="0.1872">
        <ele>1048.9</ele>
        <time>2023-11-19T10:00:24Z</time>
      </trkpt>
      <trkpt lat="43.02539" lon="0.18721">
        <ele>1049</ele>
        <time>2023-11-19T10:00:25Z</time>
      </trkpt>
      <trkpt lat="43.02539" lon="0.18722">
        <ele>1049.1</ele>
        <time>2023-11-19T10:00:26Z</time>
      </trkpt>
      <trkpt lat="43.02539" lon="0.18723">
        <ele>1049.3</ele>
        <time>2023-11-19T10:00:27Z</time>
      </trkpt>
      <trkpt lat="43.02538" lon="0.18723">
        <ele>1049.4</ele>
        <time>2023-11-19T10:00:28Z</time>
      </trkpt>
      <trkpt lat="43.02538" lon="0.18724">
        <ele>1049.5</ele>
        <time>2023-11-19T10:00:29Z</time>
      </trkpt>
      <trkpt lat="43.02537" lon="0.18725">
        <ele>1049.7</ele>
        <time>2023-11-19T10:00:30Z</time>
      </trkpt>
      <trkpt lat="43.02538" lon="0.18725">
        <ele>1049.8</ele>
        <time>2023-11-19T10:00:31Z</time>
      </trkpt>
      <trkpt lat="43.02538" lon="0.18726">
        <ele>1050</ele>
        <time>2023-11-19T10:00:32Z</time>
      </trkpt>
      <trkpt lat="43.02537" lon="0.18727">
        <ele>1050.1</ele>
        <time>2023-11-19T10:00:33Z</time>
      </trkpt>
      <trkpt lat="43.02537" lon="0.18727">
        <ele>1050.2</ele>
        <time>2023-11-19T10:00:34Z</time>
      </trkpt>
      <trkpt lat="43.02537" lon="0.18728">
        <ele>1050.3</ele>
        <time>2023-11-19T10:00:35Z</time>
      </trkpt>
      <trkpt lat="43.02537" lon="0.18727">
        <ele>1050.4</ele>
        <time>2023-11-19T10:00:36Z</time>
      </trkpt>
      <trkpt lat="43.02537" lon="0.18729">
        <ele>1050.6</ele>
        <time>2023-11-19T10:00:37Z</time>
      </trkpt>
      <trkpt lat="43.02536" lon="0.18729">
        <ele>1050.7</ele>
        <time>2023-11-19T10:00:38Z</time>
      </trkpt>
      <trkpt lat="43.02536" lon="0.1873">
        <ele>1050.7</ele>
        <time>2023-11-19T10:00:39Z</time>
      </trkpt>
      <trkpt lat="43.02536" lon="0.1873">
        <ele>1050.8</ele>
        <time>2023-11-19T10:00:40Z</time>
      </trkpt>
      <trkpt lat="43.02536" lon="0.18731">
        <ele>1050.8</ele>
        <time>2023-11-19T10:00:41Z</time>
      </trkpt>
      <trkpt lat="43.02536" lon="0.18731">
        <ele>1050.9</ele>
        <time>2023-11-19T10:00:42Z</time>
      </trkpt>
      <trkpt lat="43.02536" lon="0.18732">
        <ele>1051</ele>
        <time>2023-11-19T10:00:43Z</time>
      </trkpt>
      <trkpt lat="43.02536" lon="0.18733">
        <ele>1051.1</ele>
        <time>2023-11-19T10:00:44Z</time>
      </trkpt>
      <trkpt lat="43.02536" lon="0.18734">
        <ele>1051.2</ele>
        <time>2023-11-19T10:00:45Z</time>
      </trkpt>
      <trkpt lat="43.02536" lon="0.18734">
        <ele>1051.3</ele>
        <time>2023-11-19T10:00:46Z</time>
      </trkpt>
      <trkpt lat="43.02535" lon="0.18735">
        <ele>1051.4</ele>
        <time>2023-11-19T10:00:47Z</time>
      </trkpt>
      <trkpt lat="43.02535" lon="0.18736">
        <ele>1051.5</ele>
        <time>2023-11-19T10:00:48Z</time>
      </trkpt>
      <trkpt lat="43.02535" lon="0.18736">
        <ele>1051.6</ele>
        <time>2023-11-19T10:00:49Z</time>
      </trkpt>
      <trkpt lat="43.02535" lon="0.18736">
        <ele>1051.6</ele>
        <time>2023-11-19T10:00:50Z</time>
      </trkpt>
      <trkpt lat="43.02535" lon="0.18736">
        <ele>1051.6</ele>
        <time>2023-11-19T10:00:51Z</time>
      </trkpt>
      <trkpt lat="43.02535" lon="0.18736">
        <ele>1051.6</ele>
        <time>2023-11-19T10:00:52Z</time>
      </trkpt>
      <trkpt lat="43.02535" lon="0.18736">
        <ele>1051.6</ele>
        <time>2023-11-19T10:00:53Z</time>
      </trkpt>
      <trkpt lat="43.02535" lon="0.18736">
        <ele>1051.6</ele>
        <time>2023-11-19T10:00:54Z</time>
      </trkpt>
      <trkpt lat="43.02535" lon="0.18736">
        <ele>1051.6</ele>
        <time>2023-11-19T10:00:55Z</time>
      </trkpt>
      <trkpt lat="43.02535" lon="0.18736">
        <ele>1051.6</ele>
        <time>2023-11-19T10:00:56Z</time>
      </trkpt>
      <trkpt lat="43.02535" lon="0.18736">
        <ele>1051.6</ele>
        <time>2023-11-19T10:00:57Z</time>
      </trkpt>
      <trkpt lat="43.02535" lon="0.18736">
        <ele>1051.6</ele>
        <time>2023-11-19T10:00:58Z</time>
      </trkpt>
      <trkpt lat="43.02535" lon="0.18736">
        <ele>1051.6</ele>
        <time>2023-11-19T10:00:59Z</time>
      </trkpt>
      <trkpt lat="43.02535" lon="0.18736">
        <ele>1051.6</ele>
        <time>2023-11-19T10:01:00Z</time>
      </trkpt>
      <trkpt lat="43.02535" lon="0.18736">
        <ele>1051.6</ele>
        <time>2023-11-19T10:01:01Z</time>
      </trkpt>
      <trkpt lat="43.02536" lon="0.18737">
        <ele>1051.7</ele>
        <time>2023-11-19T10:01:02Z</time>
      </trkpt>
      <trkpt lat="43.02535" lon="0.18738">
        <ele>1051.9</ele>
        <time>2023-11-19T10:01:03Z</time>
      </trkpt>
      <trkpt lat="43.02535" lon="0.18739">
        <ele>1052</ele>
        <time>2023-11-19T10:01:04Z</time>
      </trkpt>
      <trkpt lat="43.02535" lon="0.18739">
        <ele>1052.1</ele>
        <time>2023-11-19T10:01:05Z</time>
      </trkpt>
      <trkpt lat="43.02534" lon="0.1874">
        <ele>1052.3</ele>
        <time>2023-11-19T10:01:06Z</time>
      </trkpt>
      <trkpt lat="43.02534" lon="0.18742">
        <ele>1052.4</ele>
        <time>2023-11-19T10:01:07Z</time>
      </trkpt>
      <trkpt lat="43.02534" lon="0.18743">
        <ele>1052.6</ele>
        <time>2023-11-19T10:01:08Z</time>
      </trkpt>
      <trkpt lat="43.02533" lon="0.18744">
        <ele>1052.8</ele>
        <time>2023-11-19T10:01:09Z</time>
      </trkpt>
      <trkpt lat="43.02533" lon="0.18745">
        <ele>1052.9</ele>
        <time>2023-11-19T10:01:10Z</time>
      </trkpt>
      <trkpt lat="43.02532" lon="0.18746">
        <ele>1053.1</ele>
        <time>2023-11-19T10:01:11Z</time>
      </trkpt>
      <trkpt lat="43.02532" lon="0.18746">
        <ele>1053.2</ele>
        <time>2023-11-19T10:01:12Z</time>
      </trkpt>
      <trkpt lat="43.02531" lon="0.18747">
        <ele>1053.3</ele>
        <time>2023-11-19T10:01:13Z</time>
      </trkpt>
      <trkpt lat="43.02531" lon="0.18748">
        <ele>1053.4</ele>
        <time>2023-11-19T10:01:14Z</time>
      </trkpt>
      <trkpt lat="43.02531" lon="0.18749">
        <ele>1053.5</ele>
        <time>2023-11-19T10:01:15Z</time>
      </trkpt>
      <trkpt lat="43.02531" lon="0.18751">
        <ele>1053.7</ele>
        <time>2023-11-19T10:01:16Z</time>
      </trkpt>
      <trkpt lat="43.02531" lon="0.18751">
        <ele>1053.8</ele>
        <time>2023-11-19T10:01:17Z</time>
      </trkpt>
      <trkpt lat="43.02531" lon="0.18752">
        <ele>1053.9</ele>
        <time>2023-11-19T10:01:18Z</time>
      </trkpt>
      <trkpt lat="43.02531" lon="0.18753">
        <ele>1054</ele>
        <time>2023-11-19T10:01:19Z</time>
      </trkpt>
      <trkpt lat="43.02531" lon="0.18754">
        <ele>1054.1</ele>
        <time>2023-11-19T10:01:20Z</time>
      </trkpt>
      <trkpt lat="43.02531" lon="0.18755">
        <ele>1054.2</ele>
        <time>2023-11-19T10:01:21Z</time>
      </trkpt>
      <trkpt lat="43.0253" lon="0.18756">
        <ele>1054.4</ele>
        <time>2023-11-19T10:01:22Z</time>
      </trkpt>
      <trkpt lat="43.0253" lon="0.18757">
        <ele>1054.5</ele>
        <time>2023-11-19T10:01:23Z</time>
      </trkpt>
      <trkpt lat="43.0253" lon="0.18758">
        <ele>1054.6</ele>
        <time>2023-11-19T10:01:24Z</time>
      </trkpt>
      <trkpt lat="43.02529" lon="0.18758">
        <ele>1054.7</ele>
        <time>2023-11-19T10:01:25Z</time>
      </trkpt>
      <trkpt lat="43.02529" lon="0.18759">
        <ele>1054.8</ele>
        <time>2023-11-19T10:01:26Z</time>
      </trkpt>
      <trkpt lat="43.02529" lon="0.1876">
        <ele>1054.9</ele>
        <time>2023-11-19T10:01:27Z</time>
      </trkpt>
      <trkpt lat="43.02529" lon="0.18762">
        <ele>1055.1</ele>
        <time>2023-11-19T10:01:28Z</time>
      </trkpt>
      <trkpt lat="43.02529" lon="0.18762">
        <ele>1055.2</ele>
        <time>2023-11-19T10:01:29Z</time>
      </trkpt>
      <trkpt lat="43.02528" lon="0.18763">
        <ele>1055.3</ele>
        <time>2023-11-19T10:01:30Z</time>
      </trkpt>
      <trkpt lat="43.02528" lon="0.18764">
        <ele>1055.4</ele>
        <time>2023-11-19T10:01:31Z</time>
      </trkpt>
      <trkpt lat="43.02528" lon="0.18765">
        <ele>1055.5</ele>
        <time>2023-11-19T10:01:32Z</time>
      </trkpt>
      <trkpt lat="43.02528" lon="0.18766">
        <ele>1055.6</ele>
        <time>2023-11-19T10:01:33Z</time>
      </trkpt>
      <trkpt lat="43.02527" lon="0.18767">
        <ele>1055.7</ele>
        <time>2023-11-19T10:01:34Z</time>
      </trkpt>
      <trkpt lat="43.02527" lon="0.18768">
        <ele>1055.8</ele>
        <time>2023-11-19T10:01:35Z</time>
      </trkpt>
      <trkpt lat="43.02527" lon="0.18769">
        <ele>1055.9</ele>
        <time>2023-11-19T10:01:36Z</time>
      </trkpt>
      <trkpt lat="43.02527" lon="0.1877">
        <ele>1056</ele>
        <time>2023-11-19T10:01:37Z</time>
      </trkpt>
      <trkpt lat="43.02526" lon="0.1877">
        <ele>1056.1</ele>
        <time>2023-11-19T10:01:38Z</time>
      </trkpt>
      <trkpt lat="43.02526" lon="0.18771">
        <ele>1056.1</ele>
        <time>2023-11-19T10:01:39Z</time>
      </trkpt>
      <trkpt lat="43.02526" lon="0.18772">
        <ele>1056.3</ele>
        <time>2023-11-19T10:01:40Z</time>
      </trkpt>
      <trkpt lat="43.02526" lon="0.18774">
        <ele>1056.5</ele>
        <time>2023-11-19T10:01:41Z</time>
      </trkpt>
      <trkpt lat="43.02526" lon="0.18775">
        <ele>1056.6</ele>
        <time>2023-11-19T10:01:42Z</time>
      </trkpt>
      <trkpt lat="43.02525" lon="0.18775">
        <ele>1056.7</ele>
        <time>2023-11-19T10:01:43Z</time>
      </trkpt>
      <trkpt lat="43.02525" lon="0.18775">
        <ele>1056.7</ele>
        <time>2023-11-19T10:01:44Z</time>
      </trkpt>
      <trkpt lat="43.02525" lon="0.18776">
        <ele>1056.8</ele>
        <time>2023-11-19T10:01:45Z</time>
      </trkpt>
      <trkpt lat="43.02525" lon="0.18777">
        <ele>1056.9</ele>
        <time>2023-11-19T10:01:46Z</time>
      </trkpt>
      <trkpt lat="43.02524" lon="0.18778">
        <ele>1057</ele>
        <time>2023-11-19T10:01:47Z</time>
      </trkpt>
      <trkpt lat="43.02524" lon="0.18779">
        <ele>1057.1</ele>
        <time>2023-11-19T10:01:48Z</time>
      </trkpt>
      <trkpt lat="43.02524" lon="0.1878">
        <ele>1057.2</ele>
        <time>2023-11-19T10:01:49Z</time>
      </trkpt>
      <trkpt lat="43.02523" lon="0.1878">
        <ele>1057.3</ele>
        <time>2023-11-19T10:01:50Z</time>
      </trkpt>
      <trkpt lat="43.02523" lon="0.18782">
        <ele>1057.5</ele>
        <time>2023-11-19T10:01:51Z</time>
      </trkpt>
      <trkpt lat="43.02522" lon="0.18783">
        <ele>1057.7</ele>
        <time>2023-11-19T10:01:52Z</time>
      </trkpt>
      <trkpt lat="43.02522" lon="0.18784">
        <ele>1057.7</ele>
        <time>2023-11-19T10:01:53Z</time>
      </trkpt>
      <trkpt lat="43.02521" lon="0.18786">
        <ele>1058</ele>
        <time>2023-11-19T10:01:54Z</time>
      </trkpt>
      <trkpt lat="43.02521" lon="0.18786">
        <ele>1058.1</ele>
        <time>2023-11-19T10:01:55Z</time>
      </trkpt>
      <trkpt lat="43.0252" lon="0.18787">
        <ele>1058.2</ele>
        <time>2023-11-19T10:01:56Z</time>
      </trkpt>
      <trkpt lat="43.0252" lon="0.18788">
        <ele>1058.3</ele>
        <time>2023-11-19T10:01:57Z</time>
      </trkpt>
      <trkpt lat="43.02519" lon="0.1879">
        <ele>1058.5</ele>
        <time>2023-11-19T10:01:58Z</time>
      </trkpt>
      <trkpt lat="43.02519" lon="0.1879">
        <ele>1058.6</ele>
        <time>2023-11-19T10:01:59Z</time>
      </trkpt>
      <trkpt lat="43.02518" lon="0.18791">
        <ele>1058.7</ele>
        <time>2023-11-19T10:02:00Z</time>
      </trkpt>
      <trkpt lat="43.02518" lon="0.18792">
        <ele>1058.8</ele>
        <time>2023-11-19T10:02:01Z</time>
      </trkpt>
      <trkpt lat="43.02518" lon="0.18792">
        <ele>1058.9</ele>
        <time>2023-11-19T10:02:02Z</time>
      </trkpt>
      <trkpt lat="43.02517" lon="0.18793">
        <ele>1059</ele>
        <time>2023-11-19T10:02:03Z</time>
      </trkpt>
      <trkpt lat="43.02517" lon="0.18794">
        <ele>1059.1</ele>
        <time>2023-11-19T10:02:04Z</time>
      </trkpt>
      <trkpt lat="43.02517" lon="0.18794">
        <ele>1059.1</ele>
        <time>2023-11-19T10:02:05Z</time>
      </trkpt>
      <trkpt lat="43.02517" lon="0.18795">
        <ele>1059.2</ele>
        <time>2023-11-19T10:02:06Z</time>
      </trkpt>
      <trkpt lat="43.02517" lon="0.18796">
        <ele>1059.4</ele>
        <time>2023-11-19T10:02:07Z</time>
      </trkpt>
      <trkpt lat="43.02517" lon="0.18797">
        <ele>1059.4</ele>
        <time>2023-11-19T10:02:08Z</time>
      </trkpt>
      <trkpt lat="43.02517" lon="0.18798">
        <ele>1059.5</ele>
        <time>2023-11-19T10:02:09Z</time>
      </trkpt>
      <trkpt lat="43.02517" lon="0.18799">
        <ele>1059.7</ele>
        <time>2023-11-19T10:02:10Z</time>
      </trkpt>
      <trkpt lat="43.02516" lon="0.188">
        <ele>1059.9</ele>
        <time>2023-11-19T10:02:11Z</time>
      </trkpt>
      <trkpt lat="43.02516" lon="0.188">
        <ele>1059.9</ele>
        <time>2023-11-19T10:02:12Z</time>
      </trkpt>
      <trkpt lat="43.02516" lon="0.18801">
        <ele>1060</ele>
        <time>2023-11-19T10:02:13Z</time>
      </trkpt>
      <trkpt lat="43.02516" lon="0.18801">
        <ele>1060</ele>
        <time>2023-11-19T10:02:14Z</time>
      </trkpt>
      <trkpt lat="43.02516" lon="0.18801">
        <ele>1060.2</ele>
        <time>2023-11-19T10:02:15Z</time>
      </trkpt>
      <trkpt lat="43.02515" lon="0.18802">
        <ele>1060.4</ele>
        <time>2023-11-19T10:02:16Z</time>
      </trkpt>
      <trkpt lat="43.02514" lon="0.18802">
        <ele>1060.5</ele>
        <time>2023-11-19T10:02:17Z</time>
      </trkpt>
      <trkpt lat="43.02512" lon="0.18803">
        <ele>1060.8</ele>
        <time>2023-11-19T10:02:18Z</time>
      </trkpt>
      <trkpt lat="43.02513" lon="0.18804">
        <ele>1061</ele>
        <time>2023-11-19T10:02:19Z</time>
      </trkpt>
      <trkpt lat="43.02513" lon="0.18805">
        <ele>1061.1</ele>
        <time>2023-11-19T10:02:20Z</time>
      </trkpt>
      <trkpt lat="43.02512" lon="0.18806">
        <ele>1061.3</ele>
        <time>2023-11-19T10:02:21Z</time>
      </trkpt>
      <trkpt lat="43.02511" lon="0.18808">
        <ele>1061.6</ele>
        <time>2023-11-19T10:02:22Z</time>
      </trkpt>
      <trkpt lat="43.0251" lon="0.18809">
        <ele>1061.8</ele>
        <time>2023-11-19T10:02:23Z</time>
      </trkpt>
      <trkpt lat="43.0251" lon="0.18809">
        <ele>1061.9</ele>
        <time>2023-11-19T10:02:24Z</time>
      </trkpt>
      <trkpt lat="43.0251" lon="0.1881">
        <ele>1062</ele>
        <time>2023-11-19T10:02:25Z</time>
      </trkpt>
      <trkpt lat="43.02509" lon="0.18809">
        <ele>1062.4</ele>
        <time>2023-11-19T10:02:26Z</time>
      </trkpt>
      <trkpt lat="43.02508" lon="0.1881">
        <ele>1062.5</ele>
        <time>2023-11-19T10:02:27Z</time>
      </trkpt>
      <trkpt lat="43.02508" lon="0.18811">
        <ele>1062.6</ele>
        <time>2023-11-19T10:02:28Z</time>
      </trkpt>
      <trkpt lat="43.02507" lon="0.18812">
        <ele>1062.8</ele>
        <time>2023-11-19T10:02:29Z</time>
      </trkpt>
      <trkpt lat="43.02507" lon="0.18812">
        <ele>1062.9</ele>
        <time>2023-11-19T10:02:30Z</time>
      </trkpt>
      <trkpt lat="43.02507" lon="0.18812">
        <ele>1062.9</ele>
        <time>2023-11-19T10:02:31Z</time>
      </trkpt>
      <trkpt lat="43.02507" lon="0.18814">
        <ele>1063.1</ele>
        <time>2023-11-19T10:02:32Z</time>
      </trkpt>
      <trkpt lat="43.02506" lon="0.18814">
        <ele>1063.3</ele>
        <time>2023-11-19T10:02:33Z</time>
      </trkpt>
      <trkpt lat="43.02506" lon="0.18815">
        <ele>1063.4</ele>
        <time>2023-11-19T10:02:34Z</time>
      </trkpt>
      <trkpt lat="43.02505" lon="0.18815">
        <ele>1063.6</ele>
        <time>2023-11-19T10:02:35Z</time>
      </trkpt>
      <trkpt lat="43.02504" lon="0.18816">
        <ele>1063.8</ele>
        <time>2023-11-19T10:02:36Z</time>
      </trkpt>
      <trkpt lat="43.02504" lon="0.18817">
        <ele>1063.9</ele>
        <time>2023-11-19T10:02:37Z</time>
      </trkpt>
      <trkpt lat="43.02504" lon="0.18817">
        <ele>1064.1</ele>
        <time>2023-11-19T10:02:38Z</time>
      </trkpt>
      <trkpt lat="43.02503" lon="0.18818">
        <ele>1064.3</ele>
        <time>2023-11-19T10:02:39Z</time>
      </trkpt>
      <trkpt lat="43.02502" lon="0.18818">
        <ele>1064.5</ele>
        <time>2023-11-19T10:02:40Z</time>
      </trkpt>
      <trkpt lat="43.02502" lon="0.18818">
        <ele>1064.7</ele>
        <time>2023-11-19T10:02:41Z</time>
      </trkpt>
      <trkpt lat="43.025" lon="0.1882">
        <ele>1065.1</ele>
        <time>2023-11-19T10:02:42Z</time>
      </trkpt>
      <trkpt lat="43.02499" lon="0.18821">
        <ele>1065.4</ele>
        <time>2023-11-19T10:02:43Z</time>
      </trkpt>
      <trkpt lat="43.02499" lon="0.18822">
        <ele>1065.5</ele>
        <time>2023-11-19T10:02:44Z</time>
      </trkpt>
      <trkpt lat="43.02499" lon="0.18822">
        <ele>1065.6</ele>
        <time>2023-11-19T10:02:45Z</time>
      </trkpt>
      <trkpt lat="43.02499" lon="0.18823">
        <ele>1065.7</ele>
        <time>2023-11-19T10:02:46Z</time>
      </trkpt>
      <trkpt lat="43.02498" lon="0.18824">
        <ele>1065.9</ele>
        <time>2023-11-19T10:02:47Z</time>
      </trkpt>
      <trkpt lat="43.02498" lon="0.18824">
        <ele>1066</ele>
        <time>2023-11-19T10:02:48Z</time>
      </trkpt>
      <trkpt lat="43.02497" lon="0.18825">
        <ele>1066.3</ele>
        <time>2023-11-19T10:02:49Z</time>
      </trkpt>
      <trkpt lat="43.02497" lon="0.18826">
        <ele>1066.5</ele>
        <time>2023-11-19T10:02:50Z</time>
      </trkpt>
      <trkpt lat="43.02497" lon="0.18827">
        <ele>1066.6</ele>
        <time>2023-11-19T10:02:51Z</time>
      </trkpt>
      <trkpt lat="43.02498" lon="0.18827">
        <ele>1066.7</ele>
        <time>2023-11-19T10:02:52Z</time>
      </trkpt>
      <trkpt lat="43.02498" lon="0.18828">
        <ele>1066.8</ele>
        <time>2023-11-19T10:02:53Z</time>
      </trkpt>
      <trkpt lat="43.02498" lon="0.18829">
        <ele>1067</ele>
        <time>2023-11-19T10:02:54Z</time>
      </trkpt>
      <trkpt lat="43.02497" lon="0.18829">
        <ele>1067.1</ele>
        <time>2023-11-19T10:02:55Z</time>
      </trkpt>
      <trkpt lat="43.02497" lon="0.1883">
        <ele>1067.3</ele>
        <time>2023-11-19T10:02:56Z</time>
      </trkpt>
      <trkpt lat="43.02497" lon="0.18831">
        <ele>1067.4</ele>
        <time>2023-11-19T10:02:57Z</time>
      </trkpt>
      <trkpt lat="43.02498" lon="0.18832">
        <ele>1067.7</ele>
        <time>2023-11-19T10:02:58Z</time>
      </trkpt>
      <trkpt lat="43.02498" lon="0.18832">
        <ele>1067.9</ele>
        <time>2023-11-19T10:02:59Z</time>
      </trkpt>
      <trkpt lat="43.02498" lon="0.18833">
        <ele>1068.1</ele>
        <time>2023-11-19T10:03:00Z</time>
      </trkpt>
      <trkpt lat="43.02497" lon="0.18833">
        <ele>1068.4</ele>
        <time>2023-11-19T10:03:01Z</time>
      </trkpt>
      <trkpt lat="43.02496" lon="0.18834">
        <ele>1068.7</ele>
        <time>2023-11-19T10:03:02Z</time>
      </trkpt>
      <trkpt lat="43.02496" lon="0.18835">
        <ele>1068.8</ele>
        <time>2023-11-19T10:03:03Z</time>
      </trkpt>
      <trkpt lat="43.02496" lon="0.18835">
        <ele>1068.9</ele>
        <time>2023-11-19T10:03:04Z</time>
      </trkpt>
      <trkpt lat="43.02495" lon="0.18836">
        <ele>1069.1</ele>
        <time>2023-11-19T10:03:05Z</time>
      </trkpt>
      <trkpt lat="43.02495" lon="0.18837">
        <ele>1069.4</ele>
        <time>2023-11-19T10:03:06Z</time>
      </trkpt>
      <trkpt lat="43.02495" lon="0.18838">
        <ele>1069.5</ele>
        <time>2023-11-19T10:03:07Z</time>
      </trkpt>
      <trkpt lat="43.02494" lon="0.18838">
        <ele>1069.6</ele>
        <time>2023-11-19T10:03:08Z</time>
      </trkpt>
      <trkpt lat="43.02494" lon="0.18839">
        <ele>1069.7</ele>
        <time>2023-11-19T10:03:09Z</time>
      </trkpt>
      <trkpt lat="43.02494" lon="0.1884">
        <ele>1069.8</ele>
        <time>2023-11-19T10:03:10Z</time>
      </trkpt>
      <trkpt lat="43.02494" lon="0.1884">
        <ele>1070</ele>
        <time>2023-11-19T10:03:11Z</time>
      </trkpt>
      <trkpt lat="43.02493" lon="0.1884">
        <ele>1070.1</ele>
        <time>2023-11-19T10:03:12Z</time>
      </trkpt>
      <trkpt lat="43.02493" lon="0.1884">
        <ele>1070.2</ele>
        <time>2023-11-19T10:03:13Z</time>
      </trkpt>
      <trkpt lat="43.02492" lon="0.18841">
        <ele>1070.5</ele>
        <time>2023-11-19T10:03:14Z</time>
      </trkpt>
      <trkpt lat="43.02492" lon="0.18842">
        <ele>1070.6</ele>
        <time>2023-11-19T10:03:15Z</time>
      </trkpt>
      <trkpt lat="43.02492" lon="0.18842">
        <ele>1070.7</ele>
        <time>2023-11-19T10:03:16Z</time>
      </trkpt>
      <trkpt lat="43.02492" lon="0.18844">
        <ele>1071</ele>
        <time>2023-11-19T10:03:17Z</time>
      </trkpt>
      <trkpt lat="43.02491" lon="0.18844">
        <ele>1071.1</ele>
        <time>2023-11-19T10:03:18Z</time>
      </trkpt>
      <trkpt lat="43.02491" lon="0.18845">
        <ele>1071.4</ele>
        <time>2023-11-19T10:03:19Z</time>
      </trkpt>
      <trkpt lat="43.02491" lon="0.18846">
        <ele>1071.6</ele>
        <time>2023-11-19T10:03:20Z</time>
      </trkpt>
      <trkpt lat="43.02491" lon="0.18846">
        <ele>1071.6</ele>
        <time>2023-11-19T10:03:21Z</time>
      </trkpt>
      <trkpt lat="43.02491" lon="0.18846">
        <ele>1071.7</ele>
        <time>2023-11-19T10:03:22Z</time>
      </trkpt>
      <trkpt lat="43.0249" lon="0.18847">
        <ele>1072</ele>
        <time>2023-11-19T10:03:23Z</time>
      </trkpt>
      <trkpt lat="43.0249" lon="0.18848">
        <ele>1072.2</ele>
        <time>2023-11-19T10:03:24Z</time>
      </trkpt>
      <trkpt lat="43.02489" lon="0.18849">
        <ele>1072.4</ele>
        <time>2023-11-19T10:03:25Z</time>
      </trkpt>
      <trkpt lat="43.02489" lon="0.18849">
        <ele>1072.5</ele>
        <time>2023-11-19T10:03:26Z</time>
      </trkpt>
      <trkpt lat="43.02488" lon="0.1885">
        <ele>1072.7</ele>
        <time>2023-11-19T10:03:27Z</time>
      </trkpt>
      <trkpt lat="43.02488" lon="0.1885">
        <ele>1072.8</ele>
        <time>2023-11-19T10:03:28Z</time>
      </trkpt>
      <trkpt lat="43.02488" lon="0.18851">
        <ele>1072.9</ele>
        <time>2023-11-19T10:03:29Z</time>
      </trkpt>
      <trkpt lat="43.02487" lon="0.18852">
        <ele>1073.2</ele>
        <time>2023-11-19T10:03:30Z</time>
      </trkpt>
      <trkpt lat="43.02487" lon="0.18853">
        <ele>1073.3</ele>
        <time>2023-11-19T10:03:31Z</time>
      </trkpt>
      <trkpt lat="43.02486" lon="0.18853">
        <ele>1073.4</ele>
        <time>2023-11-19T10:03:32Z</time>
      </trkpt>
      <trkpt lat="43.02486" lon="0.18854">
        <ele>1073.5</ele>
        <time>2023-11-19T10:03:33Z</time>
      </trkpt>
      <trkpt lat="43.02486" lon="0.18854">
        <ele>1073.6</ele>
        <time>2023-11-19T10:03:34Z</time>
      </trkpt>
      <trkpt lat="43.02487" lon="0.18854">
        <ele>1073.7</ele>
        <time>2023-11-19T10:03:35Z</time>
      </trkpt>
      <trkpt lat="43.02487" lon="0.18856">
        <ele>1073.9</ele>
        <time>2023-11-19T10:03:36Z</time>
      </trkpt>
      <trkpt lat="43.02486" lon="0.18856">
        <ele>1074</ele>
        <time>2023-11-19T10:03:37Z</time>
      </trkpt>
      <trkpt lat="43.02486" lon="0.18857">
        <ele>1074.2</ele>
        <time>2023-11-19T10:03:38Z</time>
      </trkpt>
      <trkpt lat="43.02485" lon="0.18858">
        <ele>1074.4</ele>
        <time>2023-11-19T10:03:39Z</time>
      </trkpt>
      <trkpt lat="43.02484" lon="0.18859">
        <ele>1074.7</ele>
        <time>2023-11-19T10:03:40Z</time>
      </trkpt>
      <trkpt lat="43.02483" lon="0.18859">
        <ele>1074.8</ele>
        <time>2023-11-19T10:03:41Z</time>
      </trkpt>
      <trkpt lat="43.02482" lon="0.1886">
        <ele>1075.1</ele>
        <time>2023-11-19T10:03:42Z</time>
      </trkpt>
      <trkpt lat="43.02481" lon="0.18861">
        <ele>1075.2</ele>
        <time>2023-11-19T10:03:43Z</time>
      </trkpt>
      <trkpt lat="43.02482" lon="0.1886">
        <ele>1075.3</ele>
        <time>2023-11-19T10:03:44Z</time>
      </trkpt>
      <trkpt lat="43.02482" lon="0.1886">
        <ele>1075.3</ele>
        <time>2023-11-19T10:03:45Z</time>
      </trkpt>
      <trkpt lat="43.02482" lon="0.1886">
        <ele>1075.4</ele>
        <time>2023-11-19T10:03:46Z</time>
      </trkpt>
      <trkpt lat="43.02482" lon="0.1886">
        <ele>1075.4</ele>
        <time>2023-11-19T10:03:47Z</time>
      </trkpt>
      <trkpt lat="43.02482" lon="0.1886">
        <ele>1075.4</ele>
        <time>2023-11-19T10:03:48Z</time>
      </trkpt>
      <trkpt lat="43.02482" lon="0.18861">
        <ele>1075.6</ele>
        <time>2023-11-19T10:03:49Z</time>
      </trkpt>
      <trkpt lat="43.02482" lon="0.18862">
        <ele>1075.7</ele>
        <time>2023-11-19T10:03:50Z</time>
      </trkpt>
      <trkpt lat="43.02481" lon="0.18862">
        <ele>1075.9</ele>
        <time>2023-11-19T10:03:51Z</time>
      </trkpt>
      <trkpt lat="43.02481" lon="0.18863">
        <ele>1076</ele>
        <time>2023-11-19T10:03:52Z</time>
      </trkpt>
      <trkpt lat="43.0248" lon="0.18863">
        <ele>1076.2</ele>
        <time>2023-11-19T10:03:53Z</time>
      </trkpt>
      <trkpt lat="43.0248" lon="0.18864">
        <ele>1076.3</ele>
        <time>2023-11-19T10:03:54Z</time>
      </trkpt>
      <trkpt lat="43.02479" lon="0.18866">
        <ele>1076.5</ele>
        <time>2023-11-19T10:03:55Z</time>
      </trkpt>
      <trkpt lat="43.02478" lon="0.18867">
        <ele>1076.7</ele>
        <time>2023-11-19T10:03:56Z</time>
      </trkpt>
      <trkpt lat="43.02478" lon="0.18868">
        <ele>1076.9</ele>
        <time>2023-11-19T10:03:57Z</time>
      </trkpt>
      <trkpt lat="43.02477" lon="0.18869">
        <ele>1077</ele>
        <time>2023-11-19T10:03:58Z</time>
      </trkpt>
      <trkpt lat="43.02477" lon="0.1887">
        <ele>1077.2</ele>
        <time>2023-11-19T10:03:59Z</time>
      </trkpt>
      <trkpt lat="43.02476" lon="0.18871">
        <ele>1077.3</ele>
        <time>2023-11-19T10:04:00Z</time>
      </trkpt>
      <trkpt lat="43.02475" lon="0.18872">
        <ele>1077.5</ele>
        <time>2023-11-19T10:04:01Z</time>
      </trkpt>
      <trkpt lat="43.02474" lon="0.18872">
        <ele>1077.6</ele>
        <time>2023-11-19T10:04:02Z</time>
      </trkpt>
      <trkpt lat="43.02474" lon="0.18873">
        <ele>1077.6</ele>
        <time>2023-11-19T10:04:03Z</time>
      </trkpt>
      <trkpt lat="43.02474" lon="0.18874">
        <ele>1077.8</ele>
        <time>2023-11-19T10:04:04Z</time>
      </trkpt>
      <trkpt lat="43.02473" lon="0.18875">
        <ele>1078</ele>
        <time>2023-11-19T10:04:05Z</time>
      </trkpt>
      <trkpt lat="43.02473" lon="0.18875">
        <ele>1078</ele>
        <time>2023-11-19T10:04:06Z</time>
      </trkpt>
      <trkpt lat="43.02473" lon="0.18876">
        <ele>1078.1</ele>
        <time>2023-11-19T10:04:07Z</time>
      </trkpt>
      <trkpt lat="43.02473" lon="0.18877">
        <ele>1078.2</ele>
        <time>2023-11-19T10:04:08Z</time>
      </trkpt>
      <trkpt lat="43.02472" lon="0.18877">
        <ele>1078.3</ele>
        <time>2023-11-19T10:04:09Z</time>
      </trkpt>
      <trkpt lat="43.02472" lon="0.18878">
        <ele>1078.4</ele>
        <time>2023-11-19T10:04:10Z</time>
      </trkpt>
      <trkpt lat="43.02471" lon="0.18878">
        <ele>1078.5</ele>
        <time>2023-11-19T10:04:11Z</time>
      </trkpt>
      <trkpt lat="43.02471" lon="0.18879">
        <ele>1078.6</ele>
        <time>2023-11-19T10:04:12Z</time>
      </trkpt>
      <trkpt lat="43.0247" lon="0.18879">
        <ele>1078.7</ele>
        <time>2023-11-19T10:04:13Z</time>
      </trkpt>
      <trkpt lat="43.0247" lon="0.18879">
        <ele>1078.7</ele>
        <time>2023-11-19T10:04:14Z</time>
      </trkpt>
      <trkpt lat="43.02469" lon="0.1888">
        <ele>1078.8</ele>
        <time>2023-11-19T10:04:15Z</time>
      </trkpt>
      <trkpt lat="43.02469" lon="0.18881">
        <ele>1078.9</ele>
        <time>2023-11-19T10:04:16Z</time>
      </trkpt>
      <trkpt lat="43.02469" lon="0.18882">
        <ele>1079.1</ele>
        <time>2023-11-19T10:04:17Z</time>
      </trkpt>
      <trkpt lat="43.02468" lon="0.18882">
        <ele>1079.2</ele>
        <time>2023-11-19T10:04:18Z</time>
      </trkpt>
      <trkpt lat="43.02467" lon="0.18884">
        <ele>1079.5</ele>
        <time>2023-11-19T10:04:19Z</time>
      </trkpt>
      <trkpt lat="43.02467" lon="0.18884">
        <ele>1079.5</ele>
        <time>2023-11-19T10:04:20Z</time>
      </trkpt>
      <trkpt lat="43.02466" lon="0.18885">
        <ele>1079.7</ele>
        <time>2023-11-19T10:04:21Z</time>
      </trkpt>
      <trkpt lat="43.02466" lon="0.18886">
        <ele>1079.9</ele>
        <time>2023-11-19T10:04:22Z</time>
      </trkpt>
      <trkpt lat="43.02466" lon="0.18887">
        <ele>1079.9</ele>
        <time>2023-11-19T10:04:23Z</time>
      </trkpt>
      <trkpt lat="43.02465" lon="0.18887">
        <ele>1080</ele>
        <time>2023-11-19T10:04:24Z</time>
      </trkpt>
      <trkpt lat="43.02465" lon="0.18888">
        <ele>1080.1</ele>
        <time>2023-11-19T10:04:25Z</time>
      </trkpt>
      <trkpt lat="43.02465" lon="0.18889">
        <ele>1080.2</ele>
        <time>2023-11-19T10:04:26Z</time>
      </trkpt>
      <trkpt lat="43.02465" lon="0.1889">
        <ele>1080.4</ele>
        <time>2023-11-19T10:04:27Z</time>
      </trkpt>
      <trkpt lat="43.02465" lon="0.18891">
        <ele>1080.5</ele>
        <time>2023-11-19T10:04:28Z</time>
      </trkpt>
      <trkpt lat="43.02465" lon="0.18892">
        <ele>1080.6</ele>
        <time>2023-11-19T10:04:29Z</time>
      </trkpt>
      <trkpt lat="43.02464" lon="0.18892">
        <ele>1080.7</ele>
        <time>2023-11-19T10:04:30Z</time>
      </trkpt>
      <trkpt lat="43.02464" lon="0.18893">
        <ele>1080.8</ele>
        <time>2023-11-19T10:04:31Z</time>
      </trkpt>
      <trkpt lat="43.02464" lon="0.18895">
        <ele>1081</ele>
        <time>2023-11-19T10:04:32Z</time>
      </trkpt>
      <trkpt lat="43.02464" lon="0.18895">
        <ele>1081.1</ele>
        <time>2023-11-19T10:04:33Z</time>
      </trkpt>
      <trkpt lat="43.02464" lon="0.18896">
        <ele>1081.2</ele>
        <time>2023-11-19T10:04:34Z</time>
      </trkpt>
      <trkpt lat="43.02464" lon="0.18896">
        <ele>1081.2</ele>
        <time>2023-11-19T10:04:35Z</time>
      </trkpt>
      <trkpt lat="43.02464" lon="0.18896">
        <ele>1081.3</ele>
        <time>2023-11-19T10:04:36Z</time>
      </trkpt>
      <trkpt lat="43.02464" lon="0.18897">
        <ele>1081.3</ele>
        <time>2023-11-19T10:04:37Z</time>
      </trkpt>
      <trkpt lat="43.02464" lon="0.18897">
        <ele>1081.4</ele>
        <time>2023-11-19T10:04:38Z</time>
      </trkpt>
      <trkpt lat="43.02463" lon="0.18898">
        <ele>1081.6</ele>
        <time>2023-11-19T10:04:39Z</time>
      </trkpt>
      <trkpt lat="43.02463" lon="0.18898">
        <ele>1081.7</ele>
        <time>2023-11-19T10:04:40Z</time>
      </trkpt>
      <trkpt lat="43.02462" lon="0.18899">
        <ele>1081.8</ele>
        <time>2023-11-19T10:04:41Z</time>
      </trkpt>
      <trkpt lat="43.02462" lon="0.18899">
        <ele>1081.8</ele>
        <time>2023-11-19T10:04:42Z</time>
      </trkpt>
      <trkpt lat="43.02462" lon="0.189">
        <ele>1081.9</ele>
        <time>2023-11-19T10:04:43Z</time>
      </trkpt>
      <trkpt lat="43.02461" lon="0.189">
        <ele>1082</ele>
        <time>2023-11-19T10:04:44Z</time>
      </trkpt>
      <trkpt lat="43.02461" lon="0.189">
        <ele>1082</ele>
        <time>2023-11-19T10:04:45Z</time>
      </trkpt>
      <trkpt lat="43.02461" lon="0.18901">
        <ele>1082.1</ele>
        <time>2023-11-19T10:04:46Z</time>
      </trkpt>
      <trkpt lat="43.0246" lon="0.18901">
        <ele>1082.2</ele>
        <time>2023-11-19T10:04:47Z</time>
      </trkpt>
      <trkpt lat="43.0246" lon="0.18902">
        <ele>1082.3</ele>
        <time>2023-11-19T10:04:48Z</time>
      </trkpt>
      <trkpt lat="43.0246" lon="0.18902">
        <ele>1082.4</ele>
        <time>2023-11-19T10:04:49Z</time>
      </trkpt>
      <trkpt lat="43.02459" lon="0.18903">
        <ele>1082.6</ele>
        <time>2023-11-19T10:04:50Z</time>
      </trkpt>
      <trkpt lat="43.02459" lon="0.18903">
        <ele>1082.7</ele>
        <time>2023-11-19T10:04:51Z</time>
      </trkpt>
      <trkpt lat="43.02459" lon="0.18903">
        <ele>1082.7</ele>
        <time>2023-11-19T10:04:52Z</time>
      </trkpt>
      <trkpt lat="43.02458" lon="0.18904">
        <ele>1082.9</ele>
        <time>2023-11-19T10:04:53Z</time>
      </trkpt>
      <trkpt lat="43.02458" lon="0.18905">
        <ele>1083.1</ele>
        <time>2023-11-19T10:04:54Z</time>
      </trkpt>
      <trkpt lat="43.02457" lon="0.18906">
        <ele>1083.2</ele>
        <time>2023-11-19T10:04:55Z</time>
      </trkpt>
      <trkpt lat="43.02457" lon="0.18906">
        <ele>1083.3</ele>
        <time>2023-11-19T10:04:56Z</time>
      </trkpt>
      <trkpt lat="43.02457" lon="0.18907">
        <ele>1083.4</ele>
        <time>2023-11-19T10:04:57Z</time>
      </trkpt>
      <trkpt lat="43.02457" lon="0.18908">
        <ele>1083.5</ele>
        <time>2023-11-19T10:04:58Z</time>
      </trkpt>
      <trkpt lat="43.02456" lon="0.18908">
        <ele>1083.6</ele>
        <time>2023-11-19T10:04:59Z</time>
      </trkpt>
      <trkpt lat="43.02456" lon="0.18909">
        <ele>1083.7</ele>
        <time>2023-11-19T10:05:00Z</time>
      </trkpt>
      <trkpt lat="43.02456" lon="0.1891">
        <ele>1083.8</ele>
        <time>2023-11-19T10:05:01Z</time>
      </trkpt>
      <trkpt lat="43.02455" lon="0.18911">
        <ele>1084</ele>
        <time>2023-11-19T10:05:02Z</time>
      </trkpt>
      <trkpt lat="43.02454" lon="0.18912">
        <ele>1084.2</ele>
        <time>2023-11-19T10:05:03Z</time>
      </trkpt>
      <trkpt lat="43.02454" lon="0.18913">
        <ele>1084.4</ele>
        <time>2023-11-19T10:05:04Z</time>
      </trkpt>
      <trkpt lat="43.02453" lon="0.18914">
        <ele>1084.5</ele>
        <time>2023-11-19T10:05:05Z</time>
      </trkpt>
      <trkpt lat="43.02453" lon="0.18913">
        <ele>1084.6</ele>
        <time>2023-11-19T10:05:06Z</time>
      </trkpt>
      <trkpt lat="43.02453" lon="0.18913">
        <ele>1084.7</ele>
        <time>2023-11-19T10:05:07Z</time>
      </trkpt>
      <trkpt lat="43.02453" lon="0.18913">
        <ele>1084.7</ele>
        <time>2023-11-19T10:05:08Z</time>
      </trkpt>
      <trkpt lat="43.02453" lon="0.18914">
        <ele>1084.8</ele>
        <time>2023-11-19T10:05:09Z</time>
      </trkpt>
      <trkpt lat="43.02453" lon="0.18913">
        <ele>1084.9</ele>
        <time>2023-11-19T10:05:10Z</time>
      </trkpt>
      <trkpt lat="43.02453" lon="0.18913">
        <ele>1084.9</ele>
        <time>2023-11-19T10:05:11Z</time>
      </trkpt>
      <trkpt lat="43.02453" lon="0.18913">
        <ele>1084.9</ele>
        <time>2023-11-19T10:05:12Z</time>
      </trkpt>
      <trkpt lat="43.02453" lon="0.18913">
        <ele>1084.9</ele>
        <time>2023-11-19T10:05:13Z</time>
      </trkpt>
      <trkpt lat="43.02454" lon="0.18913">
        <ele>1085</ele>
        <time>2023-11-19T10:05:14Z</time>
      </trkpt>
      <trkpt lat="43.02453" lon="0.18913">
        <ele>1085.1</ele>
        <time>2023-11-19T10:05:15Z</time>
      </trkpt>
      <trkpt lat="43.02454" lon="0.18913">
        <ele>1085.3</ele>
        <time>2023-11-19T10:05:16Z</time>
      </trkpt>
      <trkpt lat="43.02455" lon="0.18913">
        <ele>1085.4</ele>
        <time>2023-11-19T10:05:17Z</time>
      </trkpt>
      <trkpt lat="43.02455" lon="0.18913">
        <ele>1085.4</ele>
        <time>2023-11-19T10:05:18Z</time>
      </trkpt>
      <trkpt lat="43.02455" lon="0.18913">
        <ele>1085.4</ele>
        <time>2023-11-19T10:05:19Z</time>
      </trkpt>
      <trkpt lat="43.02455" lon="0.18913">
        <ele>1085.5</ele>
        <time>2023-11-19T10:05:20Z</time>
      </trkpt>
      <trkpt lat="43.02454" lon="0.18914">
        <ele>1085.6</ele>
        <time>2023-11-19T10:05:21Z</time>
      </trkpt>
      <trkpt lat="43.02454" lon="0.18914">
        <ele>1085.8</ele>
        <time>2023-11-19T10:05:22Z</time>
      </trkpt>
      <trkpt lat="43.02454" lon="0.18915">
        <ele>1085.9</ele>
        <time>2023-11-19T10:05:23Z</time>
      </trkpt>
      <trkpt lat="43.02453" lon="0.18915">
        <ele>1086</ele>
        <time>2023-11-19T10:05:24Z</time>
      </trkpt>
      <trkpt lat="43.02453" lon="0.18916">
        <ele>1086.2</ele>
        <time>2023-11-19T10:05:25Z</time>
      </trkpt>
      <trkpt lat="43.02452" lon="0.18917">
        <ele>1086.3</ele>
        <time>2023-11-19T10:05:26Z</time>
      </trkpt>
      <trkpt lat="43.02452" lon="0.18918">
        <ele>1086.4</ele>
        <time>2023-11-19T10:05:27Z</time>
      </trkpt>
      <trkpt lat="43.02452" lon="0.18918">
        <ele>1086.5</ele>
        <time>2023-11-19T10:05:28Z</time>
      </trkpt>
      <trkpt lat="43.02452" lon="0.18919">
        <ele>1086.6</ele>
        <time>2023-11-19T10:05:29Z</time>
      </trkpt>
      <trkpt lat="43.02451" lon="0.18921">
        <ele>1086.9</ele>
        <time>2023-11-19T10:05:30Z</time>
      </trkpt>
      <trkpt lat="43.0245" lon="0.18922">
        <ele>1087.1</ele>
        <time>2023-11-19T10:05:31Z</time>
      </trkpt>
      <trkpt lat="43.0245" lon="0.18922">
        <ele>1087.2</ele>
        <time>2023-11-19T10:05:32Z</time>
      </trkpt>
      <trkpt lat="43.02449" lon="0.18923">
        <ele>1087.3</ele>
        <time>2023-11-19T10:05:33Z</time>
      </trkpt>
      <trkpt lat="43.02449" lon="0.18924">
        <ele>1087.5</ele>
        <time>2023-11-19T10:05:34Z</time>
      </trkpt>
      <trkpt lat="43.02448" lon="0.18924">
        <ele>1087.6</ele>
        <time>2023-11-19T10:05:35Z</time>
      </trkpt>
      <trkpt lat="43.02448" lon="0.18926">
        <ele>1087.9</ele>
        <time>2023-11-19T10:05:36Z</time>
      </trkpt>
      <trkpt lat="43.02448" lon="0.18926">
        <ele>1087.9</ele>
        <time>2023-11-19T10:05:37Z</time>
      </trkpt>
      <trkpt lat="43.02448" lon="0.18927">
        <ele>1088</ele>
        <time>2023-11-19T10:05:38Z</time>
      </trkpt>
      <trkpt lat="43.02447" lon="0.18927">
        <ele>1088.1</ele>
        <time>2023-11-19T10:05:39Z</time>
      </trkpt>
      <trkpt lat="43.02446" lon="0.18928">
        <ele>1088.3</ele>
        <time>2023-11-19T10:05:40Z</time>
      </trkpt>
      <trkpt lat="43.02446" lon="0.1893">
        <ele>1088.6</ele>
        <time>2023-11-19T10:05:41Z</time>
      </trkpt>
      <trkpt lat="43.02445" lon="0.1893">
        <ele>1088.6</ele>
        <time>2023-11-19T10:05:42Z</time>
      </trkpt>
      <trkpt lat="43.02446" lon="0.18928">
        <ele>1088.9</ele>
        <time>2023-11-19T10:05:43Z</time>
      </trkpt>
      <trkpt lat="43.02446" lon="0.18928">
        <ele>1088.9</ele>
        <time>2023-11-19T10:05:44Z</time>
      </trkpt>
      <trkpt lat="43.02445" lon="0.18928">
        <ele>1089</ele>
        <time>2023-11-19T10:05:45Z</time>
      </trkpt>
      <trkpt lat="43.02445" lon="0.18928">
        <ele>1089</ele>
        <time>2023-11-19T10:05:46Z</time>
      </trkpt>
      <trkpt lat="43.02445" lon="0.18928">
        <ele>1089</ele>
        <time>2023-11-19T10:05:47Z</time>
      </trkpt>
      <trkpt lat="43.02445" lon="0.18928">
        <ele>1089</ele>
        <time>2023-11-19T10:05:48Z</time>
      </trkpt>
      <trkpt lat="43.02445" lon="0.18928">
        <ele>1089</ele>
        <time>2023-11-19T10:05:49Z</time>
      </trkpt>
      <trkpt lat="43.02445" lon="0.18928">
        <ele>1089.1</ele>
        <time>2023-11-19T10:05:50Z</time>
      </trkpt>
      <trkpt lat="43.02446" lon="0.18928">
        <ele>1089.1</ele>
        <time>2023-11-19T10:05:51Z</time>
      </trkpt>
      <trkpt lat="43.02446" lon="0.18928">
        <ele>1089.1</ele>
        <time>2023-11-19T10:05:52Z</time>
      </trkpt>
      <trkpt lat="43.02446" lon="0.18928">
        <ele>1089.1</ele>
        <time>2023-11-19T10:05:53Z</time>
      </trkpt>
      <trkpt lat="43.02446" lon="0.18928">
        <ele>1089.2</ele>
        <time>2023-11-19T10:05:54Z</time>
      </trkpt>
      <trkpt lat="43.02446" lon="0.18928">
        <ele>1089.2</ele>
        <time>2023-11-19T10:05:55Z</time>
      </trkpt>
      <trkpt lat="43.02446" lon="0.18928">
        <ele>1089.2</ele>
        <time>2023-11-19T10:05:56Z</time>
      </trkpt>
      <trkpt lat="43.02446" lon="0.18928">
        <ele>1089.2</ele>
        <time>2023-11-19T10:05:57Z</time>
      </trkpt>
      <trkpt lat="43.02446" lon="0.18928">
        <ele>1089.2</ele>
        <time>2023-11-19T10:05:58Z</time>
      </trkpt>
      <trkpt lat="43.02446" lon="0.18929">
        <ele>1089.4</ele>
        <time>2023-11-19T10:05:59Z</time>
      </trkpt>
      <trkpt lat="43.02446" lon="0.18929">
        <ele>1089.5</ele>
        <time>2023-11-19T10:06:00Z</time>
      </trkpt>
      <trkpt lat="43.02446" lon="0.18929">
        <ele>1089.5</ele>
        <time>2023-11-19T10:06:01Z</time>
      </trkpt>
      <trkpt lat="43.02446" lon="0.18929">
        <ele>1089.5</ele>
        <time>2023-11-19T10:06:02Z</time>
      </trkpt>
      <trkpt lat="43.02445" lon="0.18928">
        <ele>1089.6</ele>
        <time>2023-11-19T10:06:03Z</time>
      </trkpt>
      <trkpt lat="43.02445" lon="0.18928">
        <ele>1089.6</ele>
        <time>2023-11-19T10:06:04Z</time>
      </trkpt>
      <trkpt lat="43.02445" lon="0.18929">
        <ele>1089.7</ele>
        <time>2023-11-19T10:06:05Z</time>
      </trkpt>
      <trkpt lat="43.02445" lon="0.18929">
        <ele>1089.8</ele>
        <time>2023-11-19T10:06:06Z</time>
      </trkpt>
      <trkpt lat="43.02445" lon="0.18929">
        <ele>1089.8</ele>
        <time>2023-11-19T10:06:07Z</time>
      </trkpt>
      <trkpt lat="43.02445" lon="0.1893">
        <ele>1089.9</ele>
        <time>2023-11-19T10:06:08Z</time>
      </trkpt>
      <trkpt lat="43.02446" lon="0.18932">
        <ele>1090.2</ele>
        <time>2023-11-19T10:06:09Z</time>
      </trkpt>
      <trkpt lat="43.02445" lon="0.18932">
        <ele>1090.3</ele>
        <time>2023-11-19T10:06:10Z</time>
      </trkpt>
      <trkpt lat="43.02445" lon="0.18931">
        <ele>1090.4</ele>
        <time>2023-11-19T10:06:11Z</time>
      </trkpt>
      <trkpt lat="43.02445" lon="0.18931">
        <ele>1090.5</ele>
        <time>2023-11-19T10:06:12Z</time>
      </trkpt>
      <trkpt lat="43.02445" lon="0.18931">
        <ele>1090.6</ele>
        <time>2023-11-19T10:06:13Z</time>
      </trkpt>
      <trkpt lat="43.02445" lon="0.18931">
        <ele>1090.6</ele>
        <time>2023-11-19T10:06:14Z</time>
      </trkpt>
      <trkpt lat="43.02445" lon="0.1893">
        <ele>1090.7</ele>
        <time>2023-11-19T10:06:15Z</time>
      </trkpt>
      <trkpt lat="43.02445" lon="0.1893">
        <ele>1090.7</ele>
        <time>2023-11-19T10:06:16Z</time>
      </trkpt>
      <trkpt lat="43.02445" lon="0.1893">
        <ele>1090.7</ele>
        <time>2023-11-19T10:06:17Z</time>
      </trkpt>
      <trkpt lat="43.02445" lon="0.1893">
        <ele>1090.8</ele>
        <time>2023-11-19T10:06:18Z</time>
      </trkpt>
      <trkpt lat="43.02445" lon="0.18931">
        <ele>1090.9</ele>
        <time>2023-11-19T10:06:19Z</time>
      </trkpt>
      <trkpt lat="43.02445" lon="0.18931">
        <ele>1091</ele>
        <time>2023-11-19T10:06:20Z</time>
      </trkpt>
      <trkpt lat="43.02445" lon="0.18931">
        <ele>1091</ele>
        <time>2023-11-19T10:06:21Z</time>
      </trkpt>
      <trkpt lat="43.02444" lon="0.18934">
        <ele>1091.3</ele>
        <time>2023-11-19T10:06:22Z</time>
      </trkpt>
      <trkpt lat="43.02443" lon="0.18933">
        <ele>1091.4</ele>
        <time>2023-11-19T10:06:23Z</time>
      </trkpt>
      <trkpt lat="43.02443" lon="0.18934">
        <ele>1091.4</ele>
        <time>2023-11-19T10:06:24Z</time>
      </trkpt>
      <trkpt lat="43.02443" lon="0.18933">
        <ele>1091.5</ele>
        <time>2023-11-19T10:06:25Z</time>
      </trkpt>
      <trkpt lat="43.02443" lon="0.18933">
        <ele>1091.5</ele>
        <time>2023-11-19T10:06:26Z</time>
      </trkpt>
      <trkpt lat="43.02443" lon="0.18934">
        <ele>1091.6</ele>
        <time>2023-11-19T10:06:27Z</time>
      </trkpt>
      <trkpt lat="43.02443" lon="0.18935">
        <ele>1091.7</ele>
        <time>2023-11-19T10:06:28Z</time>
      </trkpt>
      <trkpt lat="43.02442" lon="0.18936">
        <ele>1091.9</ele>
        <time>2023-11-19T10:06:29Z</time>
      </trkpt>
      <trkpt lat="43.02442" lon="0.18936">
        <ele>1092</ele>
        <time>2023-11-19T10:06:30Z</time>
      </trkpt>
      <trkpt lat="43.02441" lon="0.18937">
        <ele>1092.2</ele>
        <time>2023-11-19T10:06:31Z</time>
      </trkpt>
      <trkpt lat="43.02441" lon="0.18938">
        <ele>1092.3</ele>
        <time>2023-11-19T10:06:32Z</time>
      </trkpt>
      <trkpt lat="43.02441" lon="0.18938">
        <ele>1092.4</ele>
        <time>2023-11-19T10:06:33Z</time>
      </trkpt>
      <trkpt lat="43.0244" lon="0.18939">
        <ele>1092.5</ele>
        <time>2023-11-19T10:06:34Z</time>
      </trkpt>
      <trkpt lat="43.0244" lon="0.18941">
        <ele>1092.7</ele>
        <time>2023-11-19T10:06:35Z</time>
      </trkpt>
      <trkpt lat="43.0244" lon="0.18941">
        <ele>1092.8</ele>
        <time>2023-11-19T10:06:36Z</time>
      </trkpt>
      <trkpt lat="43.02439" lon="0.18942">
        <ele>1092.9</ele>
        <time>2023-11-19T10:06:37Z</time>
      </trkpt>
      <trkpt lat="43.02438" lon="0.18942">
        <ele>1093.1</ele>
        <time>2023-11-19T10:06:38Z</time>
      </trkpt>
      <trkpt lat="43.02437" lon="0.18943">
        <ele>1093.3</ele>
        <time>2023-11-19T10:06:39Z</time>
      </trkpt>
      <trkpt lat="43.02436" lon="0.18944">
        <ele>1093.6</ele>
        <time>2023-11-19T10:06:40Z</time>
      </trkpt>
      <trkpt lat="43.02435" lon="0.18945">
        <ele>1093.7</ele>
        <time>2023-11-19T10:06:41Z</time>
      </trkpt>
      <trkpt lat="43.02434" lon="0.18945">
        <ele>1093.9</ele>
        <time>2023-11-19T10:06:42Z</time>
      </trkpt>
      <trkpt lat="43.02434" lon="0.18945">
        <ele>1094</ele>
        <time>2023-11-19T10:06:43Z</time>
      </trkpt>
      <trkpt lat="43.02434" lon="0.18946">
        <ele>1094</ele>
        <time>2023-11-19T10:06:44Z</time>
      </trkpt>
      <trkpt lat="43.02434" lon="0.18945">
        <ele>1094.1</ele>
        <time>2023-11-19T10:06:45Z</time>
      </trkpt>
      <trkpt lat="43.02433" lon="0.18946">
        <ele>1094.2</ele>
        <time>2023-11-19T10:06:46Z</time>
      </trkpt>
      <trkpt lat="43.02433" lon="0.18947">
        <ele>1094.3</ele>
        <time>2023-11-19T10:06:47Z</time>
      </trkpt>
      <trkpt lat="43.02433" lon="0.18947">
        <ele>1094.4</ele>
        <time>2023-11-19T10:06:48Z</time>
      </trkpt>
      <trkpt lat="43.02433" lon="0.18947">
        <ele>1094.4</ele>
        <time>2023-11-19T10:06:49Z</time>
      </trkpt>
      <trkpt lat="43.02433" lon="0.18947">
        <ele>1094.5</ele>
        <time>2023-11-19T10:06:50Z</time>
      </trkpt>
      <trkpt lat="43.02433" lon="0.18947">
        <ele>1094.5</ele>
        <time>2023-11-19T10:06:51Z</time>
      </trkpt>
      <trkpt lat="43.02433" lon="0.18946">
        <ele>1094.6</ele>
        <time>2023-11-19T10:06:52Z</time>
      </trkpt>
      <trkpt lat="43.02433" lon="0.18946">
        <ele>1094.6</ele>
        <time>2023-11-19T10:06:53Z</time>
      </trkpt>
      <trkpt lat="43.02433" lon="0.18946">
        <ele>1094.6</ele>
        <time>2023-11-19T10:06:54Z</time>
      </trkpt>
      <trkpt lat="43.02433" lon="0.18946">
        <ele>1094.6</ele>
        <time>2023-11-19T10:06:55Z</time>
      </trkpt>
      <trkpt lat="43.02433" lon="0.18946">
        <ele>1094.6</ele>
        <time>2023-11-19T10:06:56Z</time>
      </trkpt>
      <trkpt lat="43.02433" lon="0.18946">
        <ele>1094.6</ele>
        <time>2023-11-19T10:06:57Z</time>
      </trkpt>
      <trkpt lat="43.02434" lon="0.18945">
        <ele>1094.8</ele>
        <time>2023-11-19T10:06:58Z</time>
      </trkpt>
      <trkpt lat="43.02434" lon="0.18945">
        <ele>1094.8</ele>
        <time>2023-11-19T10:06:59Z</time>
      </trkpt>
      <trkpt lat="43.02434" lon="0.18945">
        <ele>1094.8</ele>
        <time>2023-11-19T10:07:00Z</time>
      </trkpt>
      <trkpt lat="43.02434" lon="0.18945">
        <ele>1094.8</ele>
        <time>2023-11-19T10:07:01Z</time>
      </trkpt>
      <trkpt lat="43.02434" lon="0.18945">
        <ele>1094.8</ele>
        <time>2023-11-19T10:07:02Z</time>
      </trkpt>
      <trkpt lat="43.02434" lon="0.18945">
        <ele>1094.8</ele>
        <time>2023-11-19T10:07:03Z</time>
      </trkpt>
      <trkpt lat="43.02434" lon="0.18945">
        <ele>1094.8</ele>
        <time>2023-11-19T10:07:04Z</time>
      </trkpt>
      <trkpt lat="43.02434" lon="0.18945">
        <ele>1094.8</ele>
        <time>2023-11-19T10:07:05Z</time>
      </trkpt>
      <trkpt lat="43.02434" lon="0.18945">
        <ele>1094.9</ele>
        <time>2023-11-19T10:07:06Z</time>
      </trkpt>
      <trkpt lat="43.02434" lon="0.18945">
        <ele>1094.9</ele>
        <time>2023-11-19T10:07:07Z</time>
      </trkpt>
      <trkpt lat="43.02434" lon="0.18945">
        <ele>1094.9</ele>
        <time>2023-11-19T10:07:08Z</time>
      </trkpt>
      <trkpt lat="43.02434" lon="0.18945">
        <ele>1094.9</ele>
        <time>2023-11-19T10:07:09Z</time>
      </trkpt>
      <trkpt lat="43.02434" lon="0.18945">
        <ele>1094.9</ele>
        <time>2023-11-19T10:07:10Z</time>
      </trkpt>
      <trkpt lat="43.02434" lon="0.18945">
        <ele>1094.9</ele>
        <time>2023-11-19T10:07:11Z</time>
      </trkpt>
      <trkpt lat="43.02434" lon="0.18945">
        <ele>1094.9</ele>
        <time>2023-11-19T10:07:12Z</time>
      </trkpt>
      <trkpt lat="43.02434" lon="0.18945">
        <ele>1094.9</ele>
        <time>2023-11-19T10:07:13Z</time>
      </trkpt>
      <trkpt lat="43.02434" lon="0.18945">
        <ele>1094.9</ele>
        <time>2023-11-19T10:07:14Z</time>
      </trkpt>
      <trkpt lat="43.02434" lon="0.18945">
        <ele>1094.9</ele>
        <time>2023-11-19T10:07:15Z</time>
      </trkpt>
      <trkpt lat="43.02434" lon="0.18945">
        <ele>1094.9</ele>
        <time>2023-11-19T10:07:16Z</time>
      </trkpt>
      <trkpt lat="43.02434" lon="0.18945">
        <ele>1094.9</ele>
        <time>2023-11-19T10:07:17Z</time>
      </trkpt>
      <trkpt lat="43.02434" lon="0.18945">
        <ele>1094.9</ele>
        <time>2023-11-19T10:07:18Z</time>
      </trkpt>
      <trkpt lat="43.02434" lon="0.18945">
        <ele>1094.9</ele>
        <time>2023-11-19T10:07:19Z</time>
      </trkpt>
      <trkpt lat="43.02434" lon="0.18945">
        <ele>1094.9</ele>
        <time>2023-11-19T10:07:20Z</time>
      </trkpt>
      <trkpt lat="43.02434" lon="0.18945">
        <ele>1094.9</ele>
        <time>2023-11-19T10:07:21Z</time>
      </trkpt>
      <trkpt lat="43.02434" lon="0.18945">
        <ele>1094.9</ele>
        <time>2023-11-19T10:07:22Z</time>
      </trkpt>
      <trkpt lat="43.02434" lon="0.18945">
        <ele>1094.9</ele>
        <time>2023-11-19T10:07:23Z</time>
      </trkpt>
      <trkpt lat="43.02434" lon="0.18945">
        <ele>1094.9</ele>
        <time>2023-11-19T10:07:24Z</time>
      </trkpt>
      <trkpt lat="43.02434" lon="0.18945">
        <ele>1094.9</ele>
        <time>2023-11-19T10:07:26Z</time>
      </trkpt>
      <trkpt lat="43.02434" lon="0.18945">
        <ele>1094.9</ele>
        <time>2023-11-19T10:07:27Z</time>
      </trkpt>
      <trkpt lat="43.02434" lon="0.18945">
        <ele>1094.9</ele>
        <time>2023-11-19T10:07:28Z</time>
      </trkpt>
      <trkpt lat="43.02434" lon="0.18945">
        <ele>1094.9</ele>
        <time>2023-11-19T10:07:29Z</time>
      </trkpt>
      <trkpt lat="43.02434" lon="0.18945">
        <ele>1094.9</ele>
        <time>2023-11-19T10:07:30Z</time>
      </trkpt>
      <trkpt lat="43.02434" lon="0.18946">
        <ele>1095</ele>
        <time>2023-11-19T10:07:31Z</time>
      </trkpt>
      <trkpt lat="43.02434" lon="0.18946">
        <ele>1095.1</ele>
        <time>2023-11-19T10:07:32Z</time>
      </trkpt>
      <trkpt lat="43.02433" lon="0.18948">
        <ele>1095.3</ele>
        <time>2023-11-19T10:07:33Z</time>
      </trkpt>
      <trkpt lat="43.02433" lon="0.18949">
        <ele>1095.5</ele>
        <time>2023-11-19T10:07:34Z</time>
      </trkpt>
      <trkpt lat="43.02432" lon="0.18949">
        <ele>1095.6</ele>
        <time>2023-11-19T10:07:35Z</time>
      </trkpt>
      <trkpt lat="43.02431" lon="0.1895">
        <ele>1095.8</ele>
        <time>2023-11-19T10:07:36Z</time>
      </trkpt>
      <trkpt lat="43.02431" lon="0.1895">
        <ele>1095.9</ele>
        <time>2023-11-19T10:07:37Z</time>
      </trkpt>
      <trkpt lat="43.02431" lon="0.18952">
        <ele>1096.1</ele>
        <time>2023-11-19T10:07:38Z</time>
      </trkpt>
      <trkpt lat="43.0243" lon="0.18953">
        <ele>1096.2</ele>
        <time>2023-11-19T10:07:39Z</time>
      </trkpt>
      <trkpt lat="43.0243" lon="0.18953">
        <ele>1096.3</ele>
        <time>2023-11-19T10:07:40Z</time>
      </trkpt>
      <trkpt lat="43.0243" lon="0.18954">
        <ele>1096.4</ele>
        <time>2023-11-19T10:07:41Z</time>
      </trkpt>
      <trkpt lat="43.02429" lon="0.18955">
        <ele>1096.6</ele>
        <time>2023-11-19T10:07:42Z</time>
      </trkpt>
      <trkpt lat="43.02428" lon="0.18956">
        <ele>1096.7</ele>
        <time>2023-11-19T10:07:43Z</time>
      </trkpt>
      <trkpt lat="43.02428" lon="0.18956">
        <ele>1096.8</ele>
        <time>2023-11-19T10:07:44Z</time>
      </trkpt>
      <trkpt lat="43.02427" lon="0.18957">
        <ele>1097</ele>
        <time>2023-11-19T10:07:45Z</time>
      </trkpt>
      <trkpt lat="43.02426" lon="0.18958">
        <ele>1097.1</ele>
        <time>2023-11-19T10:07:46Z</time>
      </trkpt>
      <trkpt lat="43.02426" lon="0.18958">
        <ele>1097.2</ele>
        <time>2023-11-19T10:07:47Z</time>
      </trkpt>
      <trkpt lat="43.02425" lon="0.18959">
        <ele>1097.3</ele>
        <time>2023-11-19T10:07:48Z</time>
      </trkpt>
      <trkpt lat="43.02424" lon="0.1896">
        <ele>1097.5</ele>
        <time>2023-11-19T10:07:49Z</time>
      </trkpt>
      <trkpt lat="43.02425" lon="0.1896">
        <ele>1097.6</ele>
        <time>2023-11-19T10:07:50Z</time>
      </trkpt>
      <trkpt lat="43.02425" lon="0.1896">
        <ele>1097.6</ele>
        <time>2023-11-19T10:07:51Z</time>
      </trkpt>
      <trkpt lat="43.02425" lon="0.18959">
        <ele>1097.7</ele>
        <time>2023-11-19T10:07:52Z</time>
      </trkpt>
      <trkpt lat="43.02425" lon="0.18959">
        <ele>1097.7</ele>
        <time>2023-11-19T10:07:53Z</time>
      </trkpt>
      <trkpt lat="43.02425" lon="0.18959">
        <ele>1097.7</ele>
        <time>2023-11-19T10:07:54Z</time>
      </trkpt>
      <trkpt lat="43.02425" lon="0.18959">
        <ele>1097.7</ele>
        <time>2023-11-19T10:07:55Z</time>
      </trkpt>
      <trkpt lat="43.02425" lon="0.18959">
        <ele>1097.7</ele>
        <time>2023-11-19T10:07:56Z</time>
      </trkpt>
      <trkpt lat="43.02424" lon="0.18959">
        <ele>1097.9</ele>
        <time>2023-11-19T10:07:57Z</time>
      </trkpt>
      <trkpt lat="43.02423" lon="0.18959">
        <ele>1098.2</ele>
        <time>2023-11-19T10:07:58Z</time>
      </trkpt>
      <trkpt lat="43.02423" lon="0.18959">
        <ele>1098.2</ele>
        <time>2023-11-19T10:07:59Z</time>
      </trkpt>
      <trkpt lat="43.02423" lon="0.18959">
        <ele>1098.2</ele>
        <time>2023-11-19T10:08:00Z</time>
      </trkpt>
      <trkpt lat="43.02423" lon="0.18959">
        <ele>1098.2</ele>
        <time>2023-11-19T10:08:01Z</time>
      </trkpt>
      <trkpt lat="43.02423" lon="0.18959">
        <ele>1098.2</ele>
        <time>2023-11-19T10:08:02Z</time>
      </trkpt>
      <trkpt lat="43.02422" lon="0.18961">
        <ele>1098.5</ele>
        <time>2023-11-19T10:08:03Z</time>
      </trkpt>
      <trkpt lat="43.02421" lon="0.18964">
        <ele>1098.9</ele>
        <time>2023-11-19T10:08:04Z</time>
      </trkpt>
      <trkpt lat="43.02424" lon="0.18961">
        <ele>1099.4</ele>
        <time>2023-11-19T10:08:05Z</time>
      </trkpt>
      <trkpt lat="43.02423" lon="0.18962">
        <ele>1099.5</ele>
        <time>2023-11-19T10:08:06Z</time>
      </trkpt>
      <trkpt lat="43.02424" lon="0.18963">
        <ele>1099.7</ele>
        <time>2023-11-19T10:08:07Z</time>
      </trkpt>
      <trkpt lat="43.02424" lon="0.18963">
        <ele>1099.7</ele>
        <time>2023-11-19T10:08:08Z</time>
      </trkpt>
      <trkpt lat="43.02425" lon="0.18965">
        <ele>1099.9</ele>
        <time>2023-11-19T10:08:09Z</time>
      </trkpt>
      <trkpt lat="43.02424" lon="0.18966">
        <ele>1100.1</ele>
        <time>2023-11-19T10:08:10Z</time>
      </trkpt>
      <trkpt lat="43.02423" lon="0.18965">
        <ele>1100.3</ele>
        <time>2023-11-19T10:08:11Z</time>
      </trkpt>
      <trkpt lat="43.02421" lon="0.18967">
        <ele>1100.8</ele>
        <time>2023-11-19T10:08:12Z</time>
      </trkpt>
      <trkpt lat="43.0242" lon="0.18966">
        <ele>1100.9</ele>
        <time>2023-11-19T10:08:13Z</time>
      </trkpt>
      <trkpt lat="43.02421" lon="0.18966">
        <ele>1101</ele>
        <time>2023-11-19T10:08:14Z</time>
      </trkpt>
      <trkpt lat="43.02421" lon="0.18966">
        <ele>1101.1</ele>
        <time>2023-11-19T10:08:15Z</time>
      </trkpt>
      <trkpt lat="43.0242" lon="0.18968">
        <ele>1101.3</ele>
        <time>2023-11-19T10:08:16Z</time>
      </trkpt>
      <trkpt lat="43.0242" lon="0.18968">
        <ele>1101.4</ele>
        <time>2023-11-19T10:08:17Z</time>
      </trkpt>
      <trkpt lat="43.0242" lon="0.18968">
        <ele>1101.4</ele>
        <time>2023-11-19T10:08:18Z</time>
      </trkpt>
      <trkpt lat="43.02419" lon="0.18969">
        <ele>1101.6</ele>
        <time>2023-11-19T10:08:19Z</time>
      </trkpt>
      <trkpt lat="43.02419" lon="0.1897">
        <ele>1101.7</ele>
        <time>2023-11-19T10:08:20Z</time>
      </trkpt>
      <trkpt lat="43.02419" lon="0.18971">
        <ele>1101.8</ele>
        <time>2023-11-19T10:08:21Z</time>
      </trkpt>
      <trkpt lat="43.02419" lon="0.18971">
        <ele>1101.9</ele>
        <time>2023-11-19T10:08:22Z</time>
      </trkpt>
      <trkpt lat="43.02418" lon="0.18971">
        <ele>1102.2</ele>
        <time>2023-11-19T10:08:23Z</time>
      </trkpt>
      <trkpt lat="43.02417" lon="0.18972">
        <ele>1102.3</ele>
        <time>2023-11-19T10:08:24Z</time>
      </trkpt>
      <trkpt lat="43.02418" lon="0.18973">
        <ele>1102.4</ele>
        <time>2023-11-19T10:08:25Z</time>
      </trkpt>
      <trkpt lat="43.02418" lon="0.18973">
        <ele>1102.5</ele>
        <time>2023-11-19T10:08:26Z</time>
      </trkpt>
      <trkpt lat="43.02418" lon="0.18974">
        <ele>1102.5</ele>
        <time>2023-11-19T10:08:27Z</time>
      </trkpt>
      <trkpt lat="43.02417" lon="0.18974">
        <ele>1102.6</ele>
        <time>2023-11-19T10:08:28Z</time>
      </trkpt>
      <trkpt lat="43.02416" lon="0.18975">
        <ele>1102.8</ele>
        <time>2023-11-19T10:08:29Z</time>
      </trkpt>
      <trkpt lat="43.02416" lon="0.18975">
        <ele>1102.9</ele>
        <time>2023-11-19T10:08:30Z</time>
      </trkpt>
      <trkpt lat="43.02415" lon="0.18976">
        <ele>1103.1</ele>
        <time>2023-11-19T10:08:31Z</time>
      </trkpt>
      <trkpt lat="43.02414" lon="0.18976">
        <ele>1103.2</ele>
        <time>2023-11-19T10:08:32Z</time>
      </trkpt>
      <trkpt lat="43.02413" lon="0.18977">
        <ele>1103.4</ele>
        <time>2023-11-19T10:08:33Z</time>
      </trkpt>
      <trkpt lat="43.02413" lon="0.18977">
        <ele>1103.5</ele>
        <time>2023-11-19T10:08:34Z</time>
      </trkpt>
      <trkpt lat="43.02412" lon="0.18978">
        <ele>1103.6</ele>
        <time>2023-11-19T10:08:35Z</time>
      </trkpt>
      <trkpt lat="43.02412" lon="0.18978">
        <ele>1103.7</ele>
        <time>2023-11-19T10:08:36Z</time>
      </trkpt>
      <trkpt lat="43.02411" lon="0.18979">
        <ele>1103.9</ele>
        <time>2023-11-19T10:08:37Z</time>
      </trkpt>
      <trkpt lat="43.02411" lon="0.18979">
        <ele>1103.9</ele>
        <time>2023-11-19T10:08:38Z</time>
      </trkpt>
      <trkpt lat="43.02411" lon="0.1898">
        <ele>1104</ele>
        <time>2023-11-19T10:08:39Z</time>
      </trkpt>
      <trkpt lat="43.0241" lon="0.1898">
        <ele>1104.2</ele>
        <time>2023-11-19T10:08:40Z</time>
      </trkpt>
      <trkpt lat="43.0241" lon="0.1898">
        <ele>1104.3</ele>
        <time>2023-11-19T10:08:41Z</time>
      </trkpt>
      <trkpt lat="43.02409" lon="0.1898">
        <ele>1104.4</ele>
        <time>2023-11-19T10:08:42Z</time>
      </trkpt>
      <trkpt lat="43.02408" lon="0.18981">
        <ele>1104.7</ele>
        <time>2023-11-19T10:08:43Z</time>
      </trkpt>
      <trkpt lat="43.02407" lon="0.18982">
        <ele>1104.9</ele>
        <time>2023-11-19T10:08:44Z</time>
      </trkpt>
      <trkpt lat="43.02408" lon="0.18982">
        <ele>1105.1</ele>
        <time>2023-11-19T10:08:45Z</time>
      </trkpt>
      <trkpt lat="43.02409" lon="0.18982">
        <ele>1105.2</ele>
        <time>2023-11-19T10:08:46Z</time>
      </trkpt>
      <trkpt lat="43.02409" lon="0.18982">
        <ele>1105.2</ele>
        <time>2023-11-19T10:08:47Z</time>
      </trkpt>
      <trkpt lat="43.02408" lon="0.18983">
        <ele>1105.4</ele>
        <time>2023-11-19T10:08:48Z</time>
      </trkpt>
      <trkpt lat="43.02408" lon="0.18984">
        <ele>1105.5</ele>
        <time>2023-11-19T10:08:49Z</time>
      </trkpt>
      <trkpt lat="43.02408" lon="0.18983">
        <ele>1105.6</ele>
        <time>2023-11-19T10:08:50Z</time>
      </trkpt>
      <trkpt lat="43.02408" lon="0.18982">
        <ele>1105.7</ele>
        <time>2023-11-19T10:08:51Z</time>
      </trkpt>
      <trkpt lat="43.02408" lon="0.18983">
        <ele>1105.8</ele>
        <time>2023-11-19T10:08:52Z</time>
      </trkpt>
      <trkpt lat="43.02408" lon="0.18983">
        <ele>1105.8</ele>
        <time>2023-11-19T10:08:53Z</time>
      </trkpt>
      <trkpt lat="43.02407" lon="0.18983">
        <ele>1105.9</ele>
        <time>2023-11-19T10:08:54Z</time>
      </trkpt>
      <trkpt lat="43.02407" lon="0.18982">
        <ele>1106</ele>
        <time>2023-11-19T10:08:55Z</time>
      </trkpt>
      <trkpt lat="43.02407" lon="0.18982">
        <ele>1106</ele>
        <time>2023-11-19T10:08:56Z</time>
      </trkpt>
      <trkpt lat="43.02407" lon="0.18982">
        <ele>1106</ele>
        <time>2023-11-19T10:08:57Z</time>
      </trkpt>
      <trkpt lat="43.02407" lon="0.18982">
        <ele>1106</ele>
        <time>2023-11-19T10:08:58Z</time>
      </trkpt>
      <trkpt lat="43.02407" lon="0.18982">
        <ele>1106</ele>
        <time>2023-11-19T10:08:59Z</time>
      </trkpt>
      <trkpt lat="43.02407" lon="0.18982">
        <ele>1106</ele>
        <time>2023-11-19T10:09:00Z</time>
      </trkpt>
      <trkpt lat="43.02407" lon="0.18982">
        <ele>1106</ele>
        <time>2023-11-19T10:09:01Z</time>
      </trkpt>
      <trkpt lat="43.02407" lon="0.18982">
        <ele>1106</ele>
        <time>2023-11-19T10:09:02Z</time>
      </trkpt>
      <trkpt lat="43.02407" lon="0.18983">
        <ele>1106.1</ele>
        <time>2023-11-19T10:09:03Z</time>
      </trkpt>
      <trkpt lat="43.02407" lon="0.18983">
        <ele>1106.1</ele>
        <time>2023-11-19T10:09:04Z</time>
      </trkpt>
      <trkpt lat="43.02407" lon="0.18982">
        <ele>1106.1</ele>
        <time>2023-11-19T10:09:05Z</time>
      </trkpt>
      <trkpt lat="43.02406" lon="0.18984">
        <ele>1106.4</ele>
        <time>2023-11-19T10:09:06Z</time>
      </trkpt>
      <trkpt lat="43.02406" lon="0.18984">
        <ele>1106.5</ele>
        <time>2023-11-19T10:09:07Z</time>
      </trkpt>
      <trkpt lat="43.02405" lon="0.18986">
        <ele>1106.7</ele>
        <time>2023-11-19T10:09:08Z</time>
      </trkpt>
      <trkpt lat="43.02405" lon="0.18986">
        <ele>1106.8</ele>
        <time>2023-11-19T10:09:09Z</time>
      </trkpt>
      <trkpt lat="43.02404" lon="0.18986">
        <ele>1106.9</ele>
        <time>2023-11-19T10:09:10Z</time>
      </trkpt>
      <trkpt lat="43.02405" lon="0.18987">
        <ele>1107</ele>
        <time>2023-11-19T10:09:11Z</time>
      </trkpt>
      <trkpt lat="43.02404" lon="0.18987">
        <ele>1107.2</ele>
        <time>2023-11-19T10:09:12Z</time>
      </trkpt>
      <trkpt lat="43.02403" lon="0.18988">
        <ele>1107.4</ele>
        <time>2023-11-19T10:09:13Z</time>
      </trkpt>
      <trkpt lat="43.02404" lon="0.18989">
        <ele>1107.5</ele>
        <time>2023-11-19T10:09:14Z</time>
      </trkpt>
      <trkpt lat="43.02403" lon="0.1899">
        <ele>1107.6</ele>
        <time>2023-11-19T10:09:15Z</time>
      </trkpt>
      <trkpt lat="43.02404" lon="0.1899">
        <ele>1107.8</ele>
        <time>2023-11-19T10:09:16Z</time>
      </trkpt>
      <trkpt lat="43.02405" lon="0.18988">
        <ele>1108.1</ele>
        <time>2023-11-19T10:09:17Z</time>
      </trkpt>
      <trkpt lat="43.02403" lon="0.1899">
        <ele>1108.5</ele>
        <time>2023-11-19T10:09:18Z</time>
      </trkpt>
      <trkpt lat="43.02403" lon="0.18991">
        <ele>1108.7</ele>
        <time>2023-11-19T10:09:19Z</time>
      </trkpt>
      <trkpt lat="43.02402" lon="0.18991">
        <ele>1108.8</ele>
        <time>2023-11-19T10:09:20Z</time>
      </trkpt>
      <trkpt lat="43.02402" lon="0.18992">
        <ele>1108.9</ele>
        <time>2023-11-19T10:09:21Z</time>
      </trkpt>
      <trkpt lat="43.02402" lon="0.18992">
        <ele>1108.9</ele>
        <time>2023-11-19T10:09:22Z</time>
      </trkpt>
      <trkpt lat="43.02401" lon="0.18992">
        <ele>1109</ele>
        <time>2023-11-19T10:09:23Z</time>
      </trkpt>
      <trkpt lat="43.02401" lon="0.18993">
        <ele>1109.1</ele>
        <time>2023-11-19T10:09:24Z</time>
      </trkpt>
      <trkpt lat="43.024" lon="0.18992">
        <ele>1109.2</ele>
        <time>2023-11-19T10:09:25Z</time>
      </trkpt>
      <trkpt lat="43.02399" lon="0.18993">
        <ele>1109.5</ele>
        <time>2023-11-19T10:09:26Z</time>
      </trkpt>
      <trkpt lat="43.02399" lon="0.18994">
        <ele>1109.7</ele>
        <time>2023-11-19T10:09:27Z</time>
      </trkpt>
      <trkpt lat="43.024" lon="0.18994">
        <ele>1109.9</ele>
        <time>2023-11-19T10:09:28Z</time>
      </trkpt>
      <trkpt lat="43.02398" lon="0.18995">
        <ele>1110.3</ele>
        <time>2023-11-19T10:09:29Z</time>
      </trkpt>
      <trkpt lat="43.02397" lon="0.18994">
        <ele>1110.5</ele>
        <time>2023-11-19T10:09:30Z</time>
      </trkpt>
      <trkpt lat="43.02395" lon="0.18995">
        <ele>1110.7</ele>
        <time>2023-11-19T10:09:32Z</time>
      </trkpt>
      <trkpt lat="43.02394" lon="0.18995">
        <ele>1110.9</ele>
        <time>2023-11-19T10:09:33Z</time>
      </trkpt>
      <trkpt lat="43.02395" lon="0.18996">
        <ele>1111.1</ele>
        <time>2023-11-19T10:09:34Z</time>
      </trkpt>
      <trkpt lat="43.02393" lon="0.18997">
        <ele>1111.4</ele>
        <time>2023-11-19T10:09:35Z</time>
      </trkpt>
      <trkpt lat="43.02393" lon="0.18996">
        <ele>1111.6</ele>
        <time>2023-11-19T10:09:36Z</time>
      </trkpt>
      <trkpt lat="43.02393" lon="0.18996">
        <ele>1111.7</ele>
        <time>2023-11-19T10:09:37Z</time>
      </trkpt>
      <trkpt lat="43.02393" lon="0.18997">
        <ele>1111.8</ele>
        <time>2023-11-19T10:09:38Z</time>
      </trkpt>
      <trkpt lat="43.02393" lon="0.18997">
        <ele>1111.8</ele>
        <time>2023-11-19T10:09:39Z</time>
      </trkpt>
      <trkpt lat="43.02393" lon="0.18997">
        <ele>1111.8</ele>
        <time>2023-11-19T10:09:40Z</time>
      </trkpt>
      <trkpt lat="43.02393" lon="0.18997">
        <ele>1111.8</ele>
        <time>2023-11-19T10:09:41Z</time>
      </trkpt>
      <trkpt lat="43.02393" lon="0.18997">
        <ele>1111.8</ele>
        <time>2023-11-19T10:09:42Z</time>
      </trkpt>
      <trkpt lat="43.02393" lon="0.18997">
        <ele>1111.8</ele>
        <time>2023-11-19T10:09:43Z</time>
      </trkpt>
      <trkpt lat="43.02393" lon="0.18997">
        <ele>1111.8</ele>
        <time>2023-11-19T10:09:44Z</time>
      </trkpt>
      <trkpt lat="43.02392" lon="0.18998">
        <ele>1112</ele>
        <time>2023-11-19T10:09:45Z</time>
      </trkpt>
      <trkpt lat="43.02392" lon="0.18999">
        <ele>1112</ele>
        <time>2023-11-19T10:09:46Z</time>
      </trkpt>
      <trkpt lat="43.02392" lon="0.18999">
        <ele>1112.1</ele>
        <time>2023-11-19T10:09:47Z</time>
      </trkpt>
      <trkpt lat="43.02391" lon="0.19">
        <ele>1112.3</ele>
        <time>2023-11-19T10:09:48Z</time>
      </trkpt>
      <trkpt lat="43.02392" lon="0.19">
        <ele>1112.4</ele>
        <time>2023-11-19T10:09:49Z</time>
      </trkpt>
      <trkpt lat="43.02392" lon="0.19">
        <ele>1112.5</ele>
        <time>2023-11-19T10:09:50Z</time>
      </trkpt>
      <trkpt lat="43.02392" lon="0.18999">
        <ele>1112.6</ele>
        <time>2023-11-19T10:09:51Z</time>
      </trkpt>
      <trkpt lat="43.02393" lon="0.19">
        <ele>1112.7</ele>
        <time>2023-11-19T10:09:52Z</time>
      </trkpt>
      <trkpt lat="43.02393" lon="0.19">
        <ele>1112.7</ele>
        <time>2023-11-19T10:09:53Z</time>
      </trkpt>
      <trkpt lat="43.02393" lon="0.18999">
        <ele>1112.8</ele>
        <time>2023-11-19T10:09:54Z</time>
      </trkpt>
      <trkpt lat="43.02393" lon="0.18999">
        <ele>1112.8</ele>
        <time>2023-11-19T10:09:55Z</time>
      </trkpt>
      <trkpt lat="43.02393" lon="0.18999">
        <ele>1112.9</ele>
        <time>2023-11-19T10:09:56Z</time>
      </trkpt>
      <trkpt lat="43.02393" lon="0.18998">
        <ele>1112.9</ele>
        <time>2023-11-19T10:09:57Z</time>
      </trkpt>
      <trkpt lat="43.02393" lon="0.18998">
        <ele>1113</ele>
        <time>2023-11-19T10:09:58Z</time>
      </trkpt>
      <trkpt lat="43.02393" lon="0.18998">
        <ele>1113</ele>
        <time>2023-11-19T10:09:59Z</time>
      </trkpt>
      <trkpt lat="43.02393" lon="0.18998">
        <ele>1113</ele>
        <time>2023-11-19T10:10:00Z</time>
      </trkpt>
      <trkpt lat="43.02393" lon="0.18997">
        <ele>1113.1</ele>
        <time>2023-11-19T10:10:01Z</time>
      </trkpt>
      <trkpt lat="43.02393" lon="0.18998">
        <ele>1113.2</ele>
        <time>2023-11-19T10:10:02Z</time>
      </trkpt>
      <trkpt lat="43.02393" lon="0.18998">
        <ele>1113.2</ele>
        <time>2023-11-19T10:10:03Z</time>
      </trkpt>
      <trkpt lat="43.02392" lon="0.18999">
        <ele>1113.3</ele>
        <time>2023-11-19T10:10:04Z</time>
      </trkpt>
      <trkpt lat="43.02391" lon="0.19">
        <ele>1113.5</ele>
        <time>2023-11-19T10:10:05Z</time>
      </trkpt>
      <trkpt lat="43.02391" lon="0.19001">
        <ele>1113.6</ele>
        <time>2023-11-19T10:10:06Z</time>
      </trkpt>
      <trkpt lat="43.0239" lon="0.19002">
        <ele>1113.8</ele>
        <time>2023-11-19T10:10:07Z</time>
      </trkpt>
      <trkpt lat="43.0239" lon="0.19002">
        <ele>1113.8</ele>
        <time>2023-11-19T10:10:08Z</time>
      </trkpt>
      <trkpt lat="43.02388" lon="0.19003">
        <ele>1114.1</ele>
        <time>2023-11-19T10:10:09Z</time>
      </trkpt>
      <trkpt lat="43.02387" lon="0.19003">
        <ele>1114.2</ele>
        <time>2023-11-19T10:10:10Z</time>
      </trkpt>
      <trkpt lat="43.02386" lon="0.19004">
        <ele>1114.4</ele>
        <time>2023-11-19T10:10:11Z</time>
      </trkpt>
      <trkpt lat="43.02386" lon="0.19004">
        <ele>1114.5</ele>
        <time>2023-11-19T10:10:12Z</time>
      </trkpt>
      <trkpt lat="43.02385" lon="0.19006">
        <ele>1114.7</ele>
        <time>2023-11-19T10:10:13Z</time>
      </trkpt>
      <trkpt lat="43.02384" lon="0.19006">
        <ele>1114.8</ele>
        <time>2023-11-19T10:10:14Z</time>
      </trkpt>
      <trkpt lat="43.02383" lon="0.19006">
        <ele>1115</ele>
        <time>2023-11-19T10:10:15Z</time>
      </trkpt>
      <trkpt lat="43.02382" lon="0.19008">
        <ele>1115.2</ele>
        <time>2023-11-19T10:10:16Z</time>
      </trkpt>
      <trkpt lat="43.02382" lon="0.19008">
        <ele>1115.3</ele>
        <time>2023-11-19T10:10:17Z</time>
      </trkpt>
      <trkpt lat="43.02381" lon="0.1901">
        <ele>1115.5</ele>
        <time>2023-11-19T10:10:18Z</time>
      </trkpt>
      <trkpt lat="43.0238" lon="0.1901">
        <ele>1115.7</ele>
        <time>2023-11-19T10:10:19Z</time>
      </trkpt>
      <trkpt lat="43.02379" lon="0.19011">
        <ele>1115.8</ele>
        <time>2023-11-19T10:10:20Z</time>
      </trkpt>
      <trkpt lat="43.02379" lon="0.19011">
        <ele>1115.9</ele>
        <time>2023-11-19T10:10:21Z</time>
      </trkpt>
      <trkpt lat="43.02378" lon="0.19012">
        <ele>1116.1</ele>
        <time>2023-11-19T10:10:22Z</time>
      </trkpt>
      <trkpt lat="43.02378" lon="0.19012">
        <ele>1116.1</ele>
        <time>2023-11-19T10:10:23Z</time>
      </trkpt>
      <trkpt lat="43.02378" lon="0.19014">
        <ele>1116.3</ele>
        <time>2023-11-19T10:10:24Z</time>
      </trkpt>
      <trkpt lat="43.02377" lon="0.19014">
        <ele>1116.5</ele>
        <time>2023-11-19T10:10:25Z</time>
      </trkpt>
      <trkpt lat="43.02377" lon="0.19015">
        <ele>1116.5</ele>
        <time>2023-11-19T10:10:26Z</time>
      </trkpt>
      <trkpt lat="43.02377" lon="0.19014">
        <ele>1116.5</ele>
        <time>2023-11-19T10:10:27Z</time>
      </trkpt>
      <trkpt lat="43.02376" lon="0.19015">
        <ele>1116.7</ele>
        <time>2023-11-19T10:10:28Z</time>
      </trkpt>
      <trkpt lat="43.02377" lon="0.19015">
        <ele>1116.8</ele>
        <time>2023-11-19T10:10:29Z</time>
      </trkpt>
      <trkpt lat="43.02377" lon="0.19015">
        <ele>1116.8</ele>
        <time>2023-11-19T10:10:30Z</time>
      </trkpt>
      <trkpt lat="43.02377" lon="0.19013">
        <ele>1117</ele>
        <time>2023-11-19T10:10:31Z</time>
      </trkpt>
      <trkpt lat="43.02376" lon="0.19016">
        <ele>1117.5</ele>
        <time>2023-11-19T10:10:32Z</time>
      </trkpt>
      <trkpt lat="43.02375" lon="0.19018">
        <ele>1117.7</ele>
        <time>2023-11-19T10:10:33Z</time>
      </trkpt>
      <trkpt lat="43.02374" lon="0.1902">
        <ele>1118</ele>
        <time>2023-11-19T10:10:34Z</time>
      </trkpt>
      <trkpt lat="43.02374" lon="0.1902">
        <ele>1118.1</ele>
        <time>2023-11-19T10:10:35Z</time>
      </trkpt>
      <trkpt lat="43.02373" lon="0.1902">
        <ele>1118.2</ele>
        <time>2023-11-19T10:10:36Z</time>
      </trkpt>
      <trkpt lat="43.02373" lon="0.19021">
        <ele>1118.3</ele>
        <time>2023-11-19T10:10:37Z</time>
      </trkpt>
      <trkpt lat="43.02372" lon="0.19021">
        <ele>1118.4</ele>
        <time>2023-11-19T10:10:38Z</time>
      </trkpt>
      <trkpt lat="43.02372" lon="0.19022">
        <ele>1118.5</ele>
        <time>2023-11-19T10:10:39Z</time>
      </trkpt>
      <trkpt lat="43.02372" lon="0.19022">
        <ele>1118.5</ele>
        <time>2023-11-19T10:10:40Z</time>
      </trkpt>
      <trkpt lat="43.02371" lon="0.19023">
        <ele>1118.7</ele>
        <time>2023-11-19T10:10:41Z</time>
      </trkpt>
      <trkpt lat="43.0237" lon="0.19023">
        <ele>1118.9</ele>
        <time>2023-11-19T10:10:42Z</time>
      </trkpt>
      <trkpt lat="43.02371" lon="0.19023">
        <ele>1118.9</ele>
        <time>2023-11-19T10:10:43Z</time>
      </trkpt>
      <trkpt lat="43.02371" lon="0.19024">
        <ele>1119</ele>
        <time>2023-11-19T10:10:44Z</time>
      </trkpt>
      <trkpt lat="43.02371" lon="0.19025">
        <ele>1119.2</ele>
        <time>2023-11-19T10:10:45Z</time>
      </trkpt>
      <trkpt lat="43.0237" lon="0.19026">
        <ele>1119.3</ele>
        <time>2023-11-19T10:10:46Z</time>
      </trkpt>
      <trkpt lat="43.0237" lon="0.19026">
        <ele>1119.4</ele>
        <time>2023-11-19T10:10:47Z</time>
      </trkpt>
      <trkpt lat="43.02369" lon="0.19026">
        <ele>1119.6</ele>
        <time>2023-11-19T10:10:48Z</time>
      </trkpt>
      <trkpt lat="43.02368" lon="0.19026">
        <ele>1119.8</ele>
        <time>2023-11-19T10:10:49Z</time>
      </trkpt>
      <trkpt lat="43.02368" lon="0.19026">
        <ele>1119.9</ele>
        <time>2023-11-19T10:10:50Z</time>
      </trkpt>
      <trkpt lat="43.02367" lon="0.19027">
        <ele>1119.9</ele>
        <time>2023-11-19T10:10:51Z</time>
      </trkpt>
      <trkpt lat="43.02367" lon="0.19027">
        <ele>1120.1</ele>
        <time>2023-11-19T10:10:52Z</time>
      </trkpt>
      <trkpt lat="43.02367" lon="0.19028">
        <ele>1120.2</ele>
        <time>2023-11-19T10:10:53Z</time>
      </trkpt>
      <trkpt lat="43.02365" lon="0.19029">
        <ele>1120.4</ele>
        <time>2023-11-19T10:10:54Z</time>
      </trkpt>
      <trkpt lat="43.02366" lon="0.19028">
        <ele>1120.5</ele>
        <time>2023-11-19T10:10:55Z</time>
      </trkpt>
      <trkpt lat="43.02364" lon="0.1903">
        <ele>1120.9</ele>
        <time>2023-11-19T10:10:56Z</time>
      </trkpt>
      <trkpt lat="43.02364" lon="0.19031">
        <ele>1121</ele>
        <time>2023-11-19T10:10:57Z</time>
      </trkpt>
      <trkpt lat="43.02363" lon="0.19031">
        <ele>1121.2</ele>
        <time>2023-11-19T10:10:58Z</time>
      </trkpt>
      <trkpt lat="43.02362" lon="0.19031">
        <ele>1121.3</ele>
        <time>2023-11-19T10:10:59Z</time>
      </trkpt>
      <trkpt lat="43.02361" lon="0.19031">
        <ele>1121.5</ele>
        <time>2023-11-19T10:11:00Z</time>
      </trkpt>
      <trkpt lat="43.02361" lon="0.19031">
        <ele>1121.5</ele>
        <time>2023-11-19T10:11:01Z</time>
      </trkpt>
      <trkpt lat="43.0236" lon="0.19032">
        <ele>1121.7</ele>
        <time>2023-11-19T10:11:02Z</time>
      </trkpt>
      <trkpt lat="43.02359" lon="0.19032">
        <ele>1121.9</ele>
        <time>2023-11-19T10:11:03Z</time>
      </trkpt>
      <trkpt lat="43.02359" lon="0.19032">
        <ele>1122</ele>
        <time>2023-11-19T10:11:04Z</time>
      </trkpt>
      <trkpt lat="43.02358" lon="0.19033">
        <ele>1122.1</ele>
        <time>2023-11-19T10:11:05Z</time>
      </trkpt>
      <trkpt lat="43.02358" lon="0.19034">
        <ele>1122.3</ele>
        <time>2023-11-19T10:11:06Z</time>
      </trkpt>
      <trkpt lat="43.02358" lon="0.19034">
        <ele>1122.4</ele>
        <time>2023-11-19T10:11:07Z</time>
      </trkpt>
      <trkpt lat="43.02358" lon="0.19035">
        <ele>1122.6</ele>
        <time>2023-11-19T10:11:08Z</time>
      </trkpt>
      <trkpt lat="43.02358" lon="0.19035">
        <ele>1122.6</ele>
        <time>2023-11-19T10:11:09Z</time>
      </trkpt>
      <trkpt lat="43.02357" lon="0.19035">
        <ele>1122.7</ele>
        <time>2023-11-19T10:11:10Z</time>
      </trkpt>
      <trkpt lat="43.02357" lon="0.19035">
        <ele>1122.8</ele>
        <time>2023-11-19T10:11:11Z</time>
      </trkpt>
      <trkpt lat="43.02356" lon="0.19036">
        <ele>1122.9</ele>
        <time>2023-11-19T10:11:12Z</time>
      </trkpt>
      <trkpt lat="43.02356" lon="0.19036">
        <ele>1123</ele>
        <time>2023-11-19T10:11:13Z</time>
      </trkpt>
      <trkpt lat="43.02356" lon="0.19037">
        <ele>1123.1</ele>
        <time>2023-11-19T10:11:14Z</time>
      </trkpt>
      <trkpt lat="43.02355" lon="0.19037">
        <ele>1123.2</ele>
        <time>2023-11-19T10:11:15Z</time>
      </trkpt>
      <trkpt lat="43.02355" lon="0.19038">
        <ele>1123.3</ele>
        <time>2023-11-19T10:11:16Z</time>
      </trkpt>
      <trkpt lat="43.02354" lon="0.19038">
        <ele>1123.5</ele>
        <time>2023-11-19T10:11:17Z</time>
      </trkpt>
      <trkpt lat="43.02354" lon="0.19039">
        <ele>1123.5</ele>
        <time>2023-11-19T10:11:18Z</time>
      </trkpt>
      <trkpt lat="43.02354" lon="0.19039">
        <ele>1123.6</ele>
        <time>2023-11-19T10:11:19Z</time>
      </trkpt>
      <trkpt lat="43.02354" lon="0.19039">
        <ele>1123.6</ele>
        <time>2023-11-19T10:11:20Z</time>
      </trkpt>
      <trkpt lat="43.02354" lon="0.19039">
        <ele>1123.6</ele>
        <time>2023-11-19T10:11:21Z</time>
      </trkpt>
      <trkpt lat="43.02354" lon="0.19039">
        <ele>1123.7</ele>
        <time>2023-11-19T10:11:22Z</time>
      </trkpt>
      <trkpt lat="43.02354" lon="0.19039">
        <ele>1123.7</ele>
        <time>2023-11-19T10:11:23Z</time>
      </trkpt>
      <trkpt lat="43.02354" lon="0.19039">
        <ele>1123.8</ele>
        <time>2023-11-19T10:11:24Z</time>
      </trkpt>
      <trkpt lat="43.02354" lon="0.19039">
        <ele>1123.8</ele>
        <time>2023-11-19T10:11:25Z</time>
      </trkpt>
      <trkpt lat="43.02354" lon="0.19039">
        <ele>1123.8</ele>
        <time>2023-11-19T10:11:26Z</time>
      </trkpt>
      <trkpt lat="43.02354" lon="0.19039">
        <ele>1123.8</ele>
        <time>2023-11-19T10:11:27Z</time>
      </trkpt>
      <trkpt lat="43.02354" lon="0.19039">
        <ele>1123.8</ele>
        <time>2023-11-19T10:11:28Z</time>
      </trkpt>
      <trkpt lat="43.02354" lon="0.19039">
        <ele>1123.8</ele>
        <time>2023-11-19T10:11:29Z</time>
      </trkpt>
      <trkpt lat="43.02354" lon="0.19039">
        <ele>1123.8</ele>
        <time>2023-11-19T10:11:30Z</time>
      </trkpt>
      <trkpt lat="43.02354" lon="0.19039">
        <ele>1123.9</ele>
        <time>2023-11-19T10:11:31Z</time>
      </trkpt>
      <trkpt lat="43.02354" lon="0.19039">
        <ele>1123.9</ele>
        <time>2023-11-19T10:11:32Z</time>
      </trkpt>
      <trkpt lat="43.02354" lon="0.19039">
        <ele>1123.9</ele>
        <time>2023-11-19T10:11:33Z</time>
      </trkpt>
      <trkpt lat="43.02355" lon="0.19039">
        <ele>1124</ele>
        <time>2023-11-19T10:11:34Z</time>
      </trkpt>
      <trkpt lat="43.02355" lon="0.19039">
        <ele>1124</ele>
        <time>2023-11-19T10:11:35Z</time>
      </trkpt>
      <trkpt lat="43.02355" lon="0.19039">
        <ele>1124</ele>
        <time>2023-11-19T10:11:36Z</time>
      </trkpt>
      <trkpt lat="43.02355" lon="0.19039">
        <ele>1124</ele>
        <time>2023-11-19T10:11:37Z</time>
      </trkpt>
      <trkpt lat="43.02355" lon="0.19039">
        <ele>1124</ele>
        <time>2023-11-19T10:11:38Z</time>
      </trkpt>
      <trkpt lat="43.02355" lon="0.19039">
        <ele>1124</ele>
        <time>2023-11-19T10:11:39Z</time>
      </trkpt>
      <trkpt lat="43.02355" lon="0.19039">
        <ele>1124.1</ele>
        <time>2023-11-19T10:11:40Z</time>
      </trkpt>
      <trkpt lat="43.02355" lon="0.19039">
        <ele>1124.1</ele>
        <time>2023-11-19T10:11:41Z</time>
      </trkpt>
      <trkpt lat="43.02354" lon="0.19039">
        <ele>1124.2</ele>
        <time>2023-11-19T10:11:42Z</time>
      </trkpt>
      <trkpt lat="43.02354" lon="0.1904">
        <ele>1124.3</ele>
        <time>2023-11-19T10:11:43Z</time>
      </trkpt>
      <trkpt lat="43.02354" lon="0.1904">
        <ele>1124.4</ele>
        <time>2023-11-19T10:11:44Z</time>
      </trkpt>
      <trkpt lat="43.02353" lon="0.1904">
        <ele>1124.5</ele>
        <time>2023-11-19T10:11:45Z</time>
      </trkpt>
      <trkpt lat="43.02353" lon="0.1904">
        <ele>1124.6</ele>
        <time>2023-11-19T10:11:46Z</time>
      </trkpt>
      <trkpt lat="43.02353" lon="0.19041">
        <ele>1124.7</ele>
        <time>2023-11-19T10:11:47Z</time>
      </trkpt>
      <trkpt lat="43.02353" lon="0.19041">
        <ele>1124.7</ele>
        <time>2023-11-19T10:11:48Z</time>
      </trkpt>
      <trkpt lat="43.02351" lon="0.19042">
        <ele>1125.1</ele>
        <time>2023-11-19T10:11:49Z</time>
      </trkpt>
      <trkpt lat="43.02352" lon="0.19041">
        <ele>1125.2</ele>
        <time>2023-11-19T10:11:50Z</time>
      </trkpt>
      <trkpt lat="43.02352" lon="0.19041">
        <ele>1125.3</ele>
        <time>2023-11-19T10:11:51Z</time>
      </trkpt>
      <trkpt lat="43.02352" lon="0.1904">
        <ele>1125.4</ele>
        <time>2023-11-19T10:11:52Z</time>
      </trkpt>
      <trkpt lat="43.02352" lon="0.1904">
        <ele>1125.4</ele>
        <time>2023-11-19T10:11:53Z</time>
      </trkpt>
      <trkpt lat="43.02352" lon="0.1904">
        <ele>1125.4</ele>
        <time>2023-11-19T10:11:54Z</time>
      </trkpt>
      <trkpt lat="43.02352" lon="0.1904">
        <ele>1125.5</ele>
        <time>2023-11-19T10:11:55Z</time>
      </trkpt>
      <trkpt lat="43.02353" lon="0.19039">
        <ele>1125.6</ele>
        <time>2023-11-19T10:11:56Z</time>
      </trkpt>
      <trkpt lat="43.02353" lon="0.19039">
        <ele>1125.6</ele>
        <time>2023-11-19T10:11:57Z</time>
      </trkpt>
      <trkpt lat="43.02353" lon="0.19039">
        <ele>1125.6</ele>
        <time>2023-11-19T10:11:58Z</time>
      </trkpt>
      <trkpt lat="43.02353" lon="0.19039">
        <ele>1125.6</ele>
        <time>2023-11-19T10:11:59Z</time>
      </trkpt>
      <trkpt lat="43.02353" lon="0.19039">
        <ele>1125.6</ele>
        <time>2023-11-19T10:12:00Z</time>
      </trkpt>
      <trkpt lat="43.02353" lon="0.19039">
        <ele>1125.6</ele>
        <time>2023-11-19T10:12:01Z</time>
      </trkpt>
      <trkpt lat="43.02353" lon="0.19039">
        <ele>1125.6</ele>
        <time>2023-11-19T10:12:02Z</time>
      </trkpt>
      <trkpt lat="43.02353" lon="0.19039">
        <ele>1125.6</ele>
        <time>2023-11-19T10:12:03Z</time>
      </trkpt>
      <trkpt lat="43.02353" lon="0.19038">
        <ele>1125.8</ele>
        <time>2023-11-19T10:12:04Z</time>
      </trkpt>
      <trkpt lat="43.02353" lon="0.19038">
        <ele>1125.9</ele>
        <time>2023-11-19T10:12:05Z</time>
      </trkpt>
      <trkpt lat="43.02353" lon="0.19039">
        <ele>1125.9</ele>
        <time>2023-11-19T10:12:06Z</time>
      </trkpt>
      <trkpt lat="43.02353" lon="0.19039">
        <ele>1125.9</ele>
        <time>2023-11-19T10:12:07Z</time>
      </trkpt>
      <trkpt lat="43.02353" lon="0.19039">
        <ele>1126</ele>
        <time>2023-11-19T10:12:08Z</time>
      </trkpt>
      <trkpt lat="43.02353" lon="0.19039">
        <ele>1126</ele>
        <time>2023-11-19T10:12:09Z</time>
      </trkpt>
      <trkpt lat="43.02353" lon="0.1904">
        <ele>1126.1</ele>
        <time>2023-11-19T10:12:10Z</time>
      </trkpt>
      <trkpt lat="43.02353" lon="0.1904">
        <ele>1126.1</ele>
        <time>2023-11-19T10:12:11Z</time>
      </trkpt>
      <trkpt lat="43.02353" lon="0.1904">
        <ele>1126.1</ele>
        <time>2023-11-19T10:12:12Z</time>
      </trkpt>
      <trkpt lat="43.02353" lon="0.1904">
        <ele>1126.2</ele>
        <time>2023-11-19T10:12:13Z</time>
      </trkpt>
      <trkpt lat="43.02353" lon="0.19041">
        <ele>1126.2</ele>
        <time>2023-11-19T10:12:14Z</time>
      </trkpt>
      <trkpt lat="43.02353" lon="0.19041">
        <ele>1126.3</ele>
        <time>2023-11-19T10:12:15Z</time>
      </trkpt>
      <trkpt lat="43.02353" lon="0.19041">
        <ele>1126.3</ele>
        <time>2023-11-19T10:12:16Z</time>
      </trkpt>
      <trkpt lat="43.02353" lon="0.19041">
        <ele>1126.4</ele>
        <time>2023-11-19T10:12:17Z</time>
      </trkpt>
      <trkpt lat="43.02353" lon="0.19042">
        <ele>1126.4</ele>
        <time>2023-11-19T10:12:18Z</time>
      </trkpt>
      <trkpt lat="43.02353" lon="0.19042">
        <ele>1126.5</ele>
        <time>2023-11-19T10:12:19Z</time>
      </trkpt>
      <trkpt lat="43.02353" lon="0.19042">
        <ele>1126.5</ele>
        <time>2023-11-19T10:12:20Z</time>
      </trkpt>
      <trkpt lat="43.02353" lon="0.19042">
        <ele>1126.5</ele>
        <time>2023-11-19T10:12:21Z</time>
      </trkpt>
      <trkpt lat="43.02353" lon="0.19042">
        <ele>1126.6</ele>
        <time>2023-11-19T10:12:22Z</time>
      </trkpt>
      <trkpt lat="43.02353" lon="0.19043">
        <ele>1126.6</ele>
        <time>2023-11-19T10:12:23Z</time>
      </trkpt>
      <trkpt lat="43.02353" lon="0.19043">
        <ele>1126.7</ele>
        <time>2023-11-19T10:12:24Z</time>
      </trkpt>
      <trkpt lat="43.02353" lon="0.19043">
        <ele>1126.7</ele>
        <time>2023-11-19T10:12:25Z</time>
      </trkpt>
      <trkpt lat="43.02353" lon="0.19043">
        <ele>1126.8</ele>
        <time>2023-11-19T10:12:26Z</time>
      </trkpt>
      <trkpt lat="43.02353" lon="0.19043">
        <ele>1126.9</ele>
        <time>2023-11-19T10:12:27Z</time>
      </trkpt>
      <trkpt lat="43.02354" lon="0.19044">
        <ele>1127</ele>
        <time>2023-11-19T10:12:28Z</time>
      </trkpt>
      <trkpt lat="43.02354" lon="0.19044">
        <ele>1127.1</ele>
        <time>2023-11-19T10:12:29Z</time>
      </trkpt>
      <trkpt lat="43.02354" lon="0.19044">
        <ele>1127.1</ele>
        <time>2023-11-19T10:12:30Z</time>
      </trkpt>
      <trkpt lat="43.02354" lon="0.19045">
        <ele>1127.3</ele>
        <time>2023-11-19T10:12:31Z</time>
      </trkpt>
      <trkpt lat="43.02354" lon="0.19045">
        <ele>1127.3</ele>
        <time>2023-11-19T10:12:32Z</time>
      </trkpt>
      <trkpt lat="43.02356" lon="0.19045">
        <ele>1127.8</ele>
        <time>2023-11-19T10:12:33Z</time>
      </trkpt>
      <trkpt lat="43.02355" lon="0.19047">
        <ele>1128.2</ele>
        <time>2023-11-19T10:12:34Z</time>
      </trkpt>
      <trkpt lat="43.02354" lon="0.19047">
        <ele>1128.3</ele>
        <time>2023-11-19T10:12:35Z</time>
      </trkpt>
      <trkpt lat="43.02355" lon="0.19047">
        <ele>1128.6</ele>
        <time>2023-11-19T10:12:36Z</time>
      </trkpt>
      <trkpt lat="43.02356" lon="0.19047">
        <ele>1128.8</ele>
        <time>2023-11-19T10:12:37Z</time>
      </trkpt>
      <trkpt lat="43.02356" lon="0.19047">
        <ele>1128.9</ele>
        <time>2023-11-19T10:12:38Z</time>
      </trkpt>
      <trkpt lat="43.02357" lon="0.19047">
        <ele>1129</ele>
        <time>2023-11-19T10:12:39Z</time>
      </trkpt>
      <trkpt lat="43.02357" lon="0.19047">
        <ele>1129.2</ele>
        <time>2023-11-19T10:12:40Z</time>
      </trkpt>
      <trkpt lat="43.02358" lon="0.19048">
        <ele>1129.4</ele>
        <time>2023-11-19T10:12:41Z</time>
      </trkpt>
      <trkpt lat="43.02358" lon="0.1905">
        <ele>1129.6</ele>
        <time>2023-11-19T10:12:42Z</time>
      </trkpt>
      <trkpt lat="43.02358" lon="0.19049">
        <ele>1129.7</ele>
        <time>2023-11-19T10:12:43Z</time>
      </trkpt>
      <trkpt lat="43.02359" lon="0.1905">
        <ele>1129.9</ele>
        <time>2023-11-19T10:12:44Z</time>
      </trkpt>
      <trkpt lat="43.02359" lon="0.19049">
        <ele>1130</ele>
        <time>2023-11-19T10:12:45Z</time>
      </trkpt>
      <trkpt lat="43.02359" lon="0.1905">
        <ele>1130.1</ele>
        <time>2023-11-19T10:12:46Z</time>
      </trkpt>
      <trkpt lat="43.02359" lon="0.1905">
        <ele>1130.1</ele>
        <time>2023-11-19T10:12:47Z</time>
      </trkpt>
      <trkpt lat="43.02359" lon="0.1905">
        <ele>1130.3</ele>
        <time>2023-11-19T10:12:48Z</time>
      </trkpt>
      <trkpt lat="43.0236" lon="0.19051">
        <ele>1130.5</ele>
        <time>2023-11-19T10:12:49Z</time>
      </trkpt>
      <trkpt lat="43.0236" lon="0.19051">
        <ele>1130.6</ele>
        <time>2023-11-19T10:12:50Z</time>
      </trkpt>
      <trkpt lat="43.02361" lon="0.19051">
        <ele>1130.7</ele>
        <time>2023-11-19T10:12:51Z</time>
      </trkpt>
      <trkpt lat="43.02362" lon="0.19051">
        <ele>1130.9</ele>
        <time>2023-11-19T10:12:52Z</time>
      </trkpt>
      <trkpt lat="43.02362" lon="0.19051">
        <ele>1131</ele>
        <time>2023-11-19T10:12:53Z</time>
      </trkpt>
      <trkpt lat="43.02362" lon="0.19051">
        <ele>1131.1</ele>
        <time>2023-11-19T10:12:54Z</time>
      </trkpt>
      <trkpt lat="43.02362" lon="0.19051">
        <ele>1131.2</ele>
        <time>2023-11-19T10:12:55Z</time>
      </trkpt>
      <trkpt lat="43.02363" lon="0.19052">
        <ele>1131.4</ele>
        <time>2023-11-19T10:12:56Z</time>
      </trkpt>
      <trkpt lat="43.02364" lon="0.19052">
        <ele>1131.5</ele>
        <time>2023-11-19T10:12:57Z</time>
      </trkpt>
      <trkpt lat="43.02364" lon="0.19052">
        <ele>1131.6</ele>
        <time>2023-11-19T10:12:58Z</time>
      </trkpt>
      <trkpt lat="43.02364" lon="0.19052">
        <ele>1131.7</ele>
        <time>2023-11-19T10:12:59Z</time>
      </trkpt>
      <trkpt lat="43.02365" lon="0.19052">
        <ele>1131.8</ele>
        <time>2023-11-19T10:13:00Z</time>
      </trkpt>
      <trkpt lat="43.02366" lon="0.19052">
        <ele>1132</ele>
        <time>2023-11-19T10:13:01Z</time>
      </trkpt>
      <trkpt lat="43.02366" lon="0.19052">
        <ele>1132.1</ele>
        <time>2023-11-19T10:13:02Z</time>
      </trkpt>
      <trkpt lat="43.02367" lon="0.19052">
        <ele>1132.3</ele>
        <time>2023-11-19T10:13:03Z</time>
      </trkpt>
      <trkpt lat="43.02366" lon="0.19052">
        <ele>1132.4</ele>
        <time>2023-11-19T10:13:04Z</time>
      </trkpt>
      <trkpt lat="43.02367" lon="0.19052">
        <ele>1132.5</ele>
        <time>2023-11-19T10:13:05Z</time>
      </trkpt>
      <trkpt lat="43.02369" lon="0.19053">
        <ele>1132.9</ele>
        <time>2023-11-19T10:13:06Z</time>
      </trkpt>
      <trkpt lat="43.02369" lon="0.19053">
        <ele>1133</ele>
        <time>2023-11-19T10:13:07Z</time>
      </trkpt>
      <trkpt lat="43.02368" lon="0.19053">
        <ele>1133.2</ele>
        <time>2023-11-19T10:13:08Z</time>
      </trkpt>
      <trkpt lat="43.02368" lon="0.19053">
        <ele>1133.2</ele>
        <time>2023-11-19T10:13:09Z</time>
      </trkpt>
      <trkpt lat="43.02368" lon="0.19053">
        <ele>1133.2</ele>
        <time>2023-11-19T10:13:10Z</time>
      </trkpt>
      <trkpt lat="43.02368" lon="0.19053">
        <ele>1133.2</ele>
        <time>2023-11-19T10:13:11Z</time>
      </trkpt>
      <trkpt lat="43.02369" lon="0.19053">
        <ele>1133.3</ele>
        <time>2023-11-19T10:13:12Z</time>
      </trkpt>
      <trkpt lat="43.02369" lon="0.19053">
        <ele>1133.3</ele>
        <time>2023-11-19T10:13:13Z</time>
      </trkpt>
      <trkpt lat="43.02369" lon="0.19053">
        <ele>1133.4</ele>
        <time>2023-11-19T10:13:14Z</time>
      </trkpt>
      <trkpt lat="43.0237" lon="0.19053">
        <ele>1133.6</ele>
        <time>2023-11-19T10:13:15Z</time>
      </trkpt>
      <trkpt lat="43.0237" lon="0.19053">
        <ele>1133.7</ele>
        <time>2023-11-19T10:13:16Z</time>
      </trkpt>
      <trkpt lat="43.02371" lon="0.19053">
        <ele>1133.9</ele>
        <time>2023-11-19T10:13:17Z</time>
      </trkpt>
      <trkpt lat="43.02371" lon="0.19053">
        <ele>1134</ele>
        <time>2023-11-19T10:13:18Z</time>
      </trkpt>
      <trkpt lat="43.02372" lon="0.19053">
        <ele>1134.1</ele>
        <time>2023-11-19T10:13:19Z</time>
      </trkpt>
      <trkpt lat="43.02372" lon="0.19053">
        <ele>1134.1</ele>
        <time>2023-11-19T10:13:20Z</time>
      </trkpt>
      <trkpt lat="43.02372" lon="0.19054">
        <ele>1134.2</ele>
        <time>2023-11-19T10:13:21Z</time>
      </trkpt>
      <trkpt lat="43.02372" lon="0.19054">
        <ele>1134.3</ele>
        <time>2023-11-19T10:13:22Z</time>
      </trkpt>
      <trkpt lat="43.02373" lon="0.19054">
        <ele>1134.4</ele>
        <time>2023-11-19T10:13:23Z</time>
      </trkpt>
      <trkpt lat="43.02373" lon="0.19055">
        <ele>1134.6</ele>
        <time>2023-11-19T10:13:24Z</time>
      </trkpt>
      <trkpt lat="43.02373" lon="0.19055">
        <ele>1134.6</ele>
        <time>2023-11-19T10:13:25Z</time>
      </trkpt>
      <trkpt lat="43.02374" lon="0.19055">
        <ele>1134.7</ele>
        <time>2023-11-19T10:13:26Z</time>
      </trkpt>
      <trkpt lat="43.02374" lon="0.19055">
        <ele>1134.7</ele>
        <time>2023-11-19T10:13:27Z</time>
      </trkpt>
      <trkpt lat="43.02374" lon="0.19055">
        <ele>1134.8</ele>
        <time>2023-11-19T10:13:28Z</time>
      </trkpt>
      <trkpt lat="43.02374" lon="0.19056">
        <ele>1134.9</ele>
        <time>2023-11-19T10:13:29Z</time>
      </trkpt>
      <trkpt lat="43.02374" lon="0.19056">
        <ele>1134.9</ele>
        <time>2023-11-19T10:13:30Z</time>
      </trkpt>
      <trkpt lat="43.02374" lon="0.19056">
        <ele>1135</ele>
        <time>2023-11-19T10:13:31Z</time>
      </trkpt>
      <trkpt lat="43.02374" lon="0.19056">
        <ele>1135</ele>
        <time>2023-11-19T10:13:32Z</time>
      </trkpt>
      <trkpt lat="43.02374" lon="0.19056">
        <ele>1135</ele>
        <time>2023-11-19T10:13:33Z</time>
      </trkpt>
      <trkpt lat="43.02374" lon="0.19056">
        <ele>1135</ele>
        <time>2023-11-19T10:13:34Z</time>
      </trkpt>
      <trkpt lat="43.02374" lon="0.19056">
        <ele>1135</ele>
        <time>2023-11-19T10:13:35Z</time>
      </trkpt>
      <trkpt lat="43.02374" lon="0.19056">
        <ele>1135</ele>
        <time>2023-11-19T10:13:36Z</time>
      </trkpt>
      <trkpt lat="43.02373" lon="0.19056">
        <ele>1135.1</ele>
        <time>2023-11-19T10:13:37Z</time>
      </trkpt>
      <trkpt lat="43.02373" lon="0.19056">
        <ele>1135.2</ele>
        <time>2023-11-19T10:13:38Z</time>
      </trkpt>
      <trkpt lat="43.02374" lon="0.19057">
        <ele>1135.4</ele>
        <time>2023-11-19T10:13:39Z</time>
      </trkpt>
      <trkpt lat="43.02374" lon="0.19056">
        <ele>1135.6</ele>
        <time>2023-11-19T10:13:40Z</time>
      </trkpt>
      <trkpt lat="43.02375" lon="0.19057">
        <ele>1135.8</ele>
        <time>2023-11-19T10:13:41Z</time>
      </trkpt>
      <trkpt lat="43.02376" lon="0.19057">
        <ele>1135.9</ele>
        <time>2023-11-19T10:13:42Z</time>
      </trkpt>
      <trkpt lat="43.02376" lon="0.19058">
        <ele>1136</ele>
        <time>2023-11-19T10:13:44Z</time>
      </trkpt>
      <trkpt lat="43.02376" lon="0.19058">
        <ele>1136.1</ele>
        <time>2023-11-19T10:13:45Z</time>
      </trkpt>
      <trkpt lat="43.02377" lon="0.19059">
        <ele>1136.2</ele>
        <time>2023-11-19T10:13:46Z</time>
      </trkpt>
      <trkpt lat="43.02377" lon="0.19059">
        <ele>1136.3</ele>
        <time>2023-11-19T10:13:47Z</time>
      </trkpt>
      <trkpt lat="43.02377" lon="0.19059">
        <ele>1136.4</ele>
        <time>2023-11-19T10:13:48Z</time>
      </trkpt>
      <trkpt lat="43.02377" lon="0.19059">
        <ele>1136.4</ele>
        <time>2023-11-19T10:13:49Z</time>
      </trkpt>
      <trkpt lat="43.02377" lon="0.19059">
        <ele>1136.4</ele>
        <time>2023-11-19T10:13:50Z</time>
      </trkpt>
      <trkpt lat="43.02378" lon="0.19059">
        <ele>1136.7</ele>
        <time>2023-11-19T10:13:51Z</time>
      </trkpt>
      <trkpt lat="43.02378" lon="0.19059">
        <ele>1136.8</ele>
        <time>2023-11-19T10:13:52Z</time>
      </trkpt>
      <trkpt lat="43.02379" lon="0.1906">
        <ele>1136.9</ele>
        <time>2023-11-19T10:13:53Z</time>
      </trkpt>
      <trkpt lat="43.0238" lon="0.1906">
        <ele>1137.1</ele>
        <time>2023-11-19T10:13:54Z</time>
      </trkpt>
      <trkpt lat="43.02381" lon="0.19059">
        <ele>1137.2</ele>
        <time>2023-11-19T10:13:55Z</time>
      </trkpt>
      <trkpt lat="43.02381" lon="0.1906">
        <ele>1137.3</ele>
        <time>2023-11-19T10:13:56Z</time>
      </trkpt>
      <trkpt lat="43.02381" lon="0.1906">
        <ele>1137.4</ele>
        <time>2023-11-19T10:13:57Z</time>
      </trkpt>
      <trkpt lat="43.02382" lon="0.19061">
        <ele>1137.7</ele>
        <time>2023-11-19T10:13:58Z</time>
      </trkpt>
      <trkpt lat="43.02383" lon="0.19061">
        <ele>1137.8</ele>
        <time>2023-11-19T10:13:59Z</time>
      </trkpt>
      <trkpt lat="43.02383" lon="0.19061">
        <ele>1137.9</ele>
        <time>2023-11-19T10:14:00Z</time>
      </trkpt>
      <trkpt lat="43.02384" lon="0.19061">
        <ele>1138.2</ele>
        <time>2023-11-19T10:14:01Z</time>
      </trkpt>
      <trkpt lat="43.02385" lon="0.19061">
        <ele>1138.3</ele>
        <time>2023-11-19T10:14:02Z</time>
      </trkpt>
      <trkpt lat="43.02385" lon="0.19061">
        <ele>1138.4</ele>
        <time>2023-11-19T10:14:03Z</time>
      </trkpt>
      <trkpt lat="43.02386" lon="0.19061">
        <ele>1138.5</ele>
        <time>2023-11-19T10:14:04Z</time>
      </trkpt>
      <trkpt lat="43.02386" lon="0.19062">
        <ele>1138.6</ele>
        <time>2023-11-19T10:14:05Z</time>
      </trkpt>
      <trkpt lat="43.02386" lon="0.19062">
        <ele>1138.7</ele>
        <time>2023-11-19T10:14:06Z</time>
      </trkpt>
      <trkpt lat="43.02386" lon="0.19062">
        <ele>1138.8</ele>
        <time>2023-11-19T10:14:07Z</time>
      </trkpt>
      <trkpt lat="43.02387" lon="0.19062">
        <ele>1139</ele>
        <time>2023-11-19T10:14:08Z</time>
      </trkpt>
      <trkpt lat="43.02388" lon="0.19062">
        <ele>1139.1</ele>
        <time>2023-11-19T10:14:09Z</time>
      </trkpt>
      <trkpt lat="43.02389" lon="0.19062">
        <ele>1139.3</ele>
        <time>2023-11-19T10:14:10Z</time>
      </trkpt>
      <trkpt lat="43.02389" lon="0.19063">
        <ele>1139.5</ele>
        <time>2023-11-19T10:14:11Z</time>
      </trkpt>
      <trkpt lat="43.02389" lon="0.19064">
        <ele>1139.6</ele>
        <time>2023-11-19T10:14:12Z</time>
      </trkpt>
      <trkpt lat="43.02389" lon="0.19064">
        <ele>1139.7</ele>
        <time>2023-11-19T10:14:13Z</time>
      </trkpt>
      <trkpt lat="43.02389" lon="0.19064">
        <ele>1139.7</ele>
        <time>2023-11-19T10:14:14Z</time>
      </trkpt>
      <trkpt lat="43.0239" lon="0.19064">
        <ele>1139.9</ele>
        <time>2023-11-19T10:14:15Z</time>
      </trkpt>
      <trkpt lat="43.02391" lon="0.19065">
        <ele>1140.1</ele>
        <time>2023-11-19T10:14:16Z</time>
      </trkpt>
      <trkpt lat="43.02392" lon="0.19065">
        <ele>1140.3</ele>
        <time>2023-11-19T10:14:17Z</time>
      </trkpt>
      <trkpt lat="43.02392" lon="0.19065">
        <ele>1140.4</ele>
        <time>2023-11-19T10:14:18Z</time>
      </trkpt>
      <trkpt lat="43.02392" lon="0.19066">
        <ele>1140.5</ele>
        <time>2023-11-19T10:14:19Z</time>
      </trkpt>
      <trkpt lat="43.02393" lon="0.19066">
        <ele>1140.7</ele>
        <time>2023-11-19T10:14:20Z</time>
      </trkpt>
      <trkpt lat="43.02393" lon="0.19066">
        <ele>1140.8</ele>
        <time>2023-11-19T10:14:21Z</time>
      </trkpt>
      <trkpt lat="43.02394" lon="0.19067">
        <ele>1141</ele>
        <time>2023-11-19T10:14:22Z</time>
      </trkpt>
      <trkpt lat="43.02395" lon="0.19067">
        <ele>1141.1</ele>
        <time>2023-11-19T10:14:23Z</time>
      </trkpt>
      <trkpt lat="43.02395" lon="0.19067">
        <ele>1141.2</ele>
        <time>2023-11-19T10:14:24Z</time>
      </trkpt>
      <trkpt lat="43.02396" lon="0.19067">
        <ele>1141.3</ele>
        <time>2023-11-19T10:14:25Z</time>
      </trkpt>
      <trkpt lat="43.02396" lon="0.19068">
        <ele>1141.5</ele>
        <time>2023-11-19T10:14:26Z</time>
      </trkpt>
      <trkpt lat="43.02397" lon="0.19068">
        <ele>1141.7</ele>
        <time>2023-11-19T10:14:27Z</time>
      </trkpt>
      <trkpt lat="43.02397" lon="0.19069">
        <ele>1141.7</ele>
        <time>2023-11-19T10:14:28Z</time>
      </trkpt>
      <trkpt lat="43.02398" lon="0.19069">
        <ele>1141.9</ele>
        <time>2023-11-19T10:14:29Z</time>
      </trkpt>
      <trkpt lat="43.02398" lon="0.19071">
        <ele>1142.2</ele>
        <time>2023-11-19T10:14:30Z</time>
      </trkpt>
      <trkpt lat="43.02398" lon="0.19071">
        <ele>1142.3</ele>
        <time>2023-11-19T10:14:31Z</time>
      </trkpt>
      <trkpt lat="43.02398" lon="0.19071">
        <ele>1142.4</ele>
        <time>2023-11-19T10:14:32Z</time>
      </trkpt>
      <trkpt lat="43.02398" lon="0.19071">
        <ele>1142.5</ele>
        <time>2023-11-19T10:14:33Z</time>
      </trkpt>
      <trkpt lat="43.02398" lon="0.19073">
        <ele>1142.8</ele>
        <time>2023-11-19T10:14:34Z</time>
      </trkpt>
      <trkpt lat="43.02398" lon="0.19072">
        <ele>1142.8</ele>
        <time>2023-11-19T10:14:35Z</time>
      </trkpt>
      <trkpt lat="43.02399" lon="0.19072">
        <ele>1143</ele>
        <time>2023-11-19T10:14:36Z</time>
      </trkpt>
      <trkpt lat="43.02399" lon="0.19073">
        <ele>1143</ele>
        <time>2023-11-19T10:14:37Z</time>
      </trkpt>
      <trkpt lat="43.02399" lon="0.19073">
        <ele>1143</ele>
        <time>2023-11-19T10:14:38Z</time>
      </trkpt>
      <trkpt lat="43.02399" lon="0.19073">
        <ele>1143</ele>
        <time>2023-11-19T10:14:39Z</time>
      </trkpt>
      <trkpt lat="43.02399" lon="0.19073">
        <ele>1143</ele>
        <time>2023-11-19T10:14:40Z</time>
      </trkpt>
      <trkpt lat="43.02399" lon="0.19072">
        <ele>1143.1</ele>
        <time>2023-11-19T10:14:41Z</time>
      </trkpt>
      <trkpt lat="43.02401" lon="0.19074">
        <ele>1143.5</ele>
        <time>2023-11-19T10:14:42Z</time>
      </trkpt>
      <trkpt lat="43.02401" lon="0.19075">
        <ele>1143.8</ele>
        <time>2023-11-19T10:14:43Z</time>
      </trkpt>
      <trkpt lat="43.02402" lon="0.19075">
        <ele>1143.9</ele>
        <time>2023-11-19T10:14:44Z</time>
      </trkpt>
      <trkpt lat="43.02402" lon="0.19076">
        <ele>1144</ele>
        <time>2023-11-19T10:14:45Z</time>
      </trkpt>
      <trkpt lat="43.02402" lon="0.19077">
        <ele>1144.3</ele>
        <time>2023-11-19T10:14:46Z</time>
      </trkpt>
      <trkpt lat="43.02401" lon="0.19079">
        <ele>1144.5</ele>
        <time>2023-11-19T10:14:47Z</time>
      </trkpt>
      <trkpt lat="43.024" lon="0.19079">
        <ele>1144.7</ele>
        <time>2023-11-19T10:14:48Z</time>
      </trkpt>
      <trkpt lat="43.024" lon="0.1908">
        <ele>1144.9</ele>
        <time>2023-11-19T10:14:49Z</time>
      </trkpt>
      <trkpt lat="43.02399" lon="0.19081">
        <ele>1145</ele>
        <time>2023-11-19T10:14:50Z</time>
      </trkpt>
      <trkpt lat="43.02399" lon="0.19081">
        <ele>1145.2</ele>
        <time>2023-11-19T10:14:51Z</time>
      </trkpt>
      <trkpt lat="43.02398" lon="0.19082">
        <ele>1145.4</ele>
        <time>2023-11-19T10:14:52Z</time>
      </trkpt>
      <trkpt lat="43.02397" lon="0.19083">
        <ele>1145.6</ele>
        <time>2023-11-19T10:14:53Z</time>
      </trkpt>
      <trkpt lat="43.02397" lon="0.19084">
        <ele>1145.7</ele>
        <time>2023-11-19T10:14:54Z</time>
      </trkpt>
      <trkpt lat="43.02396" lon="0.19084">
        <ele>1145.9</ele>
        <time>2023-11-19T10:14:55Z</time>
      </trkpt>
      <trkpt lat="43.02396" lon="0.19084">
        <ele>1145.9</ele>
        <time>2023-11-19T10:14:56Z</time>
      </trkpt>
      <trkpt lat="43.02396" lon="0.19085">
        <ele>1146.2</ele>
        <time>2023-11-19T10:14:57Z</time>
      </trkpt>
      <trkpt lat="43.02395" lon="0.19086">
        <ele>1146.4</ele>
        <time>2023-11-19T10:14:58Z</time>
      </trkpt>
      <trkpt lat="43.02394" lon="0.19087">
        <ele>1146.5</ele>
        <time>2023-11-19T10:14:59Z</time>
      </trkpt>
      <trkpt lat="43.02394" lon="0.19087">
        <ele>1146.6</ele>
        <time>2023-11-19T10:15:00Z</time>
      </trkpt>
      <trkpt lat="43.02394" lon="0.19089">
        <ele>1146.9</ele>
        <time>2023-11-19T10:15:01Z</time>
      </trkpt>
      <trkpt lat="43.02393" lon="0.19089">
        <ele>1147.1</ele>
        <time>2023-11-19T10:15:02Z</time>
      </trkpt>
      <trkpt lat="43.02393" lon="0.19089">
        <ele>1147.2</ele>
        <time>2023-11-19T10:15:03Z</time>
      </trkpt>
      <trkpt lat="43.02393" lon="0.1909">
        <ele>1147.3</ele>
        <time>2023-11-19T10:15:04Z</time>
      </trkpt>
      <trkpt lat="43.02393" lon="0.1909">
        <ele>1147.4</ele>
        <time>2023-11-19T10:15:05Z</time>
      </trkpt>
      <trkpt lat="43.02394" lon="0.1909">
        <ele>1147.4</ele>
        <time>2023-11-19T10:15:06Z</time>
      </trkpt>
      <trkpt lat="43.02393" lon="0.1909">
        <ele>1147.4</ele>
        <time>2023-11-19T10:15:07Z</time>
      </trkpt>
      <trkpt lat="43.02393" lon="0.1909">
        <ele>1147.4</ele>
        <time>2023-11-19T10:15:08Z</time>
      </trkpt>
      <trkpt lat="43.02394" lon="0.1909">
        <ele>1147.5</ele>
        <time>2023-11-19T10:15:09Z</time>
      </trkpt>
      <trkpt lat="43.02394" lon="0.19089">
        <ele>1147.5</ele>
        <time>2023-11-19T10:15:10Z</time>
      </trkpt>
      <trkpt lat="43.02394" lon="0.19089">
        <ele>1147.5</ele>
        <time>2023-11-19T10:15:11Z</time>
      </trkpt>
      <trkpt lat="43.02394" lon="0.19089">
        <ele>1147.5</ele>
        <time>2023-11-19T10:15:12Z</time>
      </trkpt>
      <trkpt lat="43.02393" lon="0.19089">
        <ele>1147.6</ele>
        <time>2023-11-19T10:15:13Z</time>
      </trkpt>
      <trkpt lat="43.02393" lon="0.19089">
        <ele>1147.6</ele>
        <time>2023-11-19T10:15:14Z</time>
      </trkpt>
      <trkpt lat="43.02394" lon="0.19089">
        <ele>1147.7</ele>
        <time>2023-11-19T10:15:15Z</time>
      </trkpt>
      <trkpt lat="43.02394" lon="0.19089">
        <ele>1147.8</ele>
        <time>2023-11-19T10:15:16Z</time>
      </trkpt>
      <trkpt lat="43.02394" lon="0.19089">
        <ele>1147.9</ele>
        <time>2023-11-19T10:15:17Z</time>
      </trkpt>
      <trkpt lat="43.02395" lon="0.19089">
        <ele>1148.1</ele>
        <time>2023-11-19T10:15:18Z</time>
      </trkpt>
      <trkpt lat="43.02396" lon="0.19089">
        <ele>1148.2</ele>
        <time>2023-11-19T10:15:19Z</time>
      </trkpt>
      <trkpt lat="43.02397" lon="0.19088">
        <ele>1148.4</ele>
        <time>2023-11-19T10:15:20Z</time>
      </trkpt>
      <trkpt lat="43.02397" lon="0.19088">
        <ele>1148.6</ele>
        <time>2023-11-19T10:15:21Z</time>
      </trkpt>
      <trkpt lat="43.02398" lon="0.19088">
        <ele>1148.8</ele>
        <time>2023-11-19T10:15:22Z</time>
      </trkpt>
      <trkpt lat="43.02399" lon="0.19088">
        <ele>1149</ele>
        <time>2023-11-19T10:15:23Z</time>
      </trkpt>
      <trkpt lat="43.024" lon="0.19087">
        <ele>1149.3</ele>
        <time>2023-11-19T10:15:24Z</time>
      </trkpt>
      <trkpt lat="43.02401" lon="0.19086">
        <ele>1149.4</ele>
        <time>2023-11-19T10:15:25Z</time>
      </trkpt>
      <trkpt lat="43.02401" lon="0.19086">
        <ele>1149.5</ele>
        <time>2023-11-19T10:15:26Z</time>
      </trkpt>
      <trkpt lat="43.02401" lon="0.19085">
        <ele>1149.6</ele>
        <time>2023-11-19T10:15:27Z</time>
      </trkpt>
      <trkpt lat="43.02401" lon="0.19085">
        <ele>1149.7</ele>
        <time>2023-11-19T10:15:28Z</time>
      </trkpt>
      <trkpt lat="43.02401" lon="0.19084">
        <ele>1149.8</ele>
        <time>2023-11-19T10:15:29Z</time>
      </trkpt>
      <trkpt lat="43.02401" lon="0.19083">
        <ele>1149.9</ele>
        <time>2023-11-19T10:15:30Z</time>
      </trkpt>
      <trkpt lat="43.02401" lon="0.19085">
        <ele>1150.2</ele>
        <time>2023-11-19T10:15:31Z</time>
      </trkpt>
      <trkpt lat="43.02401" lon="0.19086">
        <ele>1150.2</ele>
        <time>2023-11-19T10:15:32Z</time>
      </trkpt>
      <trkpt lat="43.02401" lon="0.19086">
        <ele>1150.2</ele>
        <time>2023-11-19T10:15:33Z</time>
      </trkpt>
      <trkpt lat="43.02401" lon="0.19086">
        <ele>1150.2</ele>
        <time>2023-11-19T10:15:34Z</time>
      </trkpt>
      <trkpt lat="43.02401" lon="0.19086">
        <ele>1150.2</ele>
        <time>2023-11-19T10:15:35Z</time>
      </trkpt>
      <trkpt lat="43.02401" lon="0.19086">
        <ele>1150.2</ele>
        <time>2023-11-19T10:15:36Z</time>
      </trkpt>
      <trkpt lat="43.02401" lon="0.19086">
        <ele>1150.3</ele>
        <time>2023-11-19T10:15:37Z</time>
      </trkpt>
      <trkpt lat="43.02401" lon="0.19086">
        <ele>1150.3</ele>
        <time>2023-11-19T10:15:38Z</time>
      </trkpt>
      <trkpt lat="43.02401" lon="0.19086">
        <ele>1150.3</ele>
        <time>2023-11-19T10:15:39Z</time>
      </trkpt>
      <trkpt lat="43.02401" lon="0.19086">
        <ele>1150.3</ele>
        <time>2023-11-19T10:15:40Z</time>
      </trkpt>
      <trkpt lat="43.02401" lon="0.19086">
        <ele>1150.3</ele>
        <time>2023-11-19T10:15:41Z</time>
      </trkpt>
      <trkpt lat="43.02401" lon="0.19086">
        <ele>1150.3</ele>
        <time>2023-11-19T10:15:42Z</time>
      </trkpt>
      <trkpt lat="43.02401" lon="0.19086">
        <ele>1150.3</ele>
        <time>2023-11-19T10:15:43Z</time>
      </trkpt>
      <trkpt lat="43.02401" lon="0.19086">
        <ele>1150.4</ele>
        <time>2023-11-19T10:15:44Z</time>
      </trkpt>
      <trkpt lat="43.024" lon="0.19086">
        <ele>1150.4</ele>
        <time>2023-11-19T10:15:45Z</time>
      </trkpt>
      <trkpt lat="43.024" lon="0.19086">
        <ele>1150.4</ele>
        <time>2023-11-19T10:15:46Z</time>
      </trkpt>
      <trkpt lat="43.024" lon="0.19086">
        <ele>1150.4</ele>
        <time>2023-11-19T10:15:47Z</time>
      </trkpt>
      <trkpt lat="43.024" lon="0.19086">
        <ele>1150.4</ele>
        <time>2023-11-19T10:15:48Z</time>
      </trkpt>
      <trkpt lat="43.024" lon="0.19086">
        <ele>1150.5</ele>
        <time>2023-11-19T10:15:50Z</time>
      </trkpt>
      <trkpt lat="43.024" lon="0.19086">
        <ele>1150.5</ele>
        <time>2023-11-19T10:15:51Z</time>
      </trkpt>
      <trkpt lat="43.024" lon="0.19086">
        <ele>1150.5</ele>
        <time>2023-11-19T10:15:52Z</time>
      </trkpt>
      <trkpt lat="43.024" lon="0.19086">
        <ele>1150.5</ele>
        <time>2023-11-19T10:15:53Z</time>
      </trkpt>
      <trkpt lat="43.024" lon="0.19086">
        <ele>1150.5</ele>
        <time>2023-11-19T10:15:54Z</time>
      </trkpt>
      <trkpt lat="43.024" lon="0.19086">
        <ele>1150.5</ele>
        <time>2023-11-19T10:15:55Z</time>
      </trkpt>
      <trkpt lat="43.024" lon="0.19087">
        <ele>1150.5</ele>
        <time>2023-11-19T10:15:56Z</time>
      </trkpt>
      <trkpt lat="43.024" lon="0.19087">
        <ele>1150.6</ele>
        <time>2023-11-19T10:15:57Z</time>
      </trkpt>
      <trkpt lat="43.024" lon="0.19087">
        <ele>1150.6</ele>
        <time>2023-11-19T10:15:58Z</time>
      </trkpt>
      <trkpt lat="43.024" lon="0.19087">
        <ele>1150.6</ele>
        <time>2023-11-19T10:15:59Z</time>
      </trkpt>
      <trkpt lat="43.024" lon="0.19087">
        <ele>1150.6</ele>
        <time>2023-11-19T10:16:00Z</time>
      </trkpt>
      <trkpt lat="43.024" lon="0.19087">
        <ele>1150.6</ele>
        <time>2023-11-19T10:16:01Z</time>
      </trkpt>
      <trkpt lat="43.024" lon="0.19087">
        <ele>1150.6</ele>
        <time>2023-11-19T10:16:02Z</time>
      </trkpt>
      <trkpt lat="43.024" lon="0.19087">
        <ele>1150.6</ele>
        <time>2023-11-19T10:16:03Z</time>
      </trkpt>
      <trkpt lat="43.024" lon="0.19087">
        <ele>1150.7</ele>
        <time>2023-11-19T10:16:04Z</time>
      </trkpt>
      <trkpt lat="43.024" lon="0.19087">
        <ele>1150.7</ele>
        <time>2023-11-19T10:16:05Z</time>
      </trkpt>
      <trkpt lat="43.024" lon="0.19087">
        <ele>1150.7</ele>
        <time>2023-11-19T10:16:06Z</time>
      </trkpt>
      <trkpt lat="43.024" lon="0.19087">
        <ele>1150.7</ele>
        <time>2023-11-19T10:16:07Z</time>
      </trkpt>
      <trkpt lat="43.02399" lon="0.19087">
        <ele>1150.7</ele>
        <time>2023-11-19T10:16:08Z</time>
      </trkpt>
      <trkpt lat="43.02399" lon="0.19087">
        <ele>1150.7</ele>
        <time>2023-11-19T10:16:09Z</time>
      </trkpt>
      <trkpt lat="43.02399" lon="0.19087">
        <ele>1150.7</ele>
        <time>2023-11-19T10:16:10Z</time>
      </trkpt>
      <trkpt lat="43.02399" lon="0.19087">
        <ele>1150.8</ele>
        <time>2023-11-19T10:16:11Z</time>
      </trkpt>
      <trkpt lat="43.02399" lon="0.19087">
        <ele>1150.8</ele>
        <time>2023-11-19T10:16:12Z</time>
      </trkpt>
      <trkpt lat="43.02399" lon="0.19087">
        <ele>1150.8</ele>
        <time>2023-11-19T10:16:13Z</time>
      </trkpt>
      <trkpt lat="43.02399" lon="0.19087">
        <ele>1150.8</ele>
        <time>2023-11-19T10:16:14Z</time>
      </trkpt>
      <trkpt lat="43.02399" lon="0.19087">
        <ele>1150.8</ele>
        <time>2023-11-19T10:16:15Z</time>
      </trkpt>
      <trkpt lat="43.02399" lon="0.19087">
        <ele>1150.8</ele>
        <time>2023-11-19T10:16:16Z</time>
      </trkpt>
      <trkpt lat="43.02399" lon="0.19087">
        <ele>1150.9</ele>
        <time>2023-11-19T10:16:17Z</time>
      </trkpt>
      <trkpt lat="43.02399" lon="0.19087">
        <ele>1150.9</ele>
        <time>2023-11-19T10:16:18Z</time>
      </trkpt>
      <trkpt lat="43.02399" lon="0.19088">
        <ele>1150.9</ele>
        <time>2023-11-19T10:16:19Z</time>
      </trkpt>
      <trkpt lat="43.02399" lon="0.19088">
        <ele>1150.9</ele>
        <time>2023-11-19T10:16:20Z</time>
      </trkpt>
      <trkpt lat="43.02399" lon="0.19088">
        <ele>1150.9</ele>
        <time>2023-11-19T10:16:21Z</time>
      </trkpt>
      <trkpt lat="43.02399" lon="0.19088">
        <ele>1150.9</ele>
        <time>2023-11-19T10:16:22Z</time>
      </trkpt>
      <trkpt lat="43.02399" lon="0.19088">
        <ele>1150.9</ele>
        <time>2023-11-19T10:16:23Z</time>
      </trkpt>
      <trkpt lat="43.02399" lon="0.19088">
        <ele>1151</ele>
        <time>2023-11-19T10:16:24Z</time>
      </trkpt>
      <trkpt lat="43.02399" lon="0.19088">
        <ele>1151</ele>
        <time>2023-11-19T10:16:25Z</time>
      </trkpt>
      <trkpt lat="43.02399" lon="0.19088">
        <ele>1151</ele>
        <time>2023-11-19T10:16:26Z</time>
      </trkpt>
      <trkpt lat="43.02399" lon="0.19088">
        <ele>1151</ele>
        <time>2023-11-19T10:16:27Z</time>
      </trkpt>
      <trkpt lat="43.02399" lon="0.19088">
        <ele>1151</ele>
        <time>2023-11-19T10:16:28Z</time>
      </trkpt>
      <trkpt lat="43.02399" lon="0.19088">
        <ele>1151</ele>
        <time>2023-11-19T10:16:29Z</time>
      </trkpt>
      <trkpt lat="43.02399" lon="0.19088">
        <ele>1151</ele>
        <time>2023-11-19T10:16:30Z</time>
      </trkpt>
      <trkpt lat="43.02398" lon="0.19088">
        <ele>1151.1</ele>
        <time>2023-11-19T10:16:31Z</time>
      </trkpt>
      <trkpt lat="43.02398" lon="0.19088">
        <ele>1151.1</ele>
        <time>2023-11-19T10:16:32Z</time>
      </trkpt>
      <trkpt lat="43.02398" lon="0.19088">
        <ele>1151.1</ele>
        <time>2023-11-19T10:16:33Z</time>
      </trkpt>
      <trkpt lat="43.02398" lon="0.19088">
        <ele>1151.1</ele>
        <time>2023-11-19T10:16:34Z</time>
      </trkpt>
      <trkpt lat="43.02398" lon="0.19088">
        <ele>1151.1</ele>
        <time>2023-11-19T10:16:35Z</time>
      </trkpt>
      <trkpt lat="43.02398" lon="0.19088">
        <ele>1151.1</ele>
        <time>2023-11-19T10:16:36Z</time>
      </trkpt>
      <trkpt lat="43.02398" lon="0.19088">
        <ele>1151.1</ele>
        <time>2023-11-19T10:16:37Z</time>
      </trkpt>
      <trkpt lat="43.02398" lon="0.19088">
        <ele>1151.2</ele>
        <time>2023-11-19T10:16:38Z</time>
      </trkpt>
      <trkpt lat="43.02398" lon="0.19088">
        <ele>1151.2</ele>
        <time>2023-11-19T10:16:39Z</time>
      </trkpt>
      <trkpt lat="43.02398" lon="0.19088">
        <ele>1151.2</ele>
        <time>2023-11-19T10:16:40Z</time>
      </trkpt>
      <trkpt lat="43.02398" lon="0.19089">
        <ele>1151.2</ele>
        <time>2023-11-19T10:16:41Z</time>
      </trkpt>
      <trkpt lat="43.02398" lon="0.19089">
        <ele>1151.2</ele>
        <time>2023-11-19T10:16:42Z</time>
      </trkpt>
      <trkpt lat="43.02398" lon="0.19089">
        <ele>1151.2</ele>
        <time>2023-11-19T10:16:43Z</time>
      </trkpt>
      <trkpt lat="43.02398" lon="0.19089">
        <ele>1151.3</ele>
        <time>2023-11-19T10:16:44Z</time>
      </trkpt>
      <trkpt lat="43.02399" lon="0.1909">
        <ele>1151.5</ele>
        <time>2023-11-19T10:16:45Z</time>
      </trkpt>
      <trkpt lat="43.02398" lon="0.1909">
        <ele>1151.5</ele>
        <time>2023-11-19T10:16:46Z</time>
      </trkpt>
      <trkpt lat="43.02399" lon="0.19088">
        <ele>1151.8</ele>
        <time>2023-11-19T10:16:47Z</time>
      </trkpt>
      <trkpt lat="43.02399" lon="0.19088">
        <ele>1151.8</ele>
        <time>2023-11-19T10:16:48Z</time>
      </trkpt>
      <trkpt lat="43.02399" lon="0.19088">
        <ele>1151.8</ele>
        <time>2023-11-19T10:16:49Z</time>
      </trkpt>
      <trkpt lat="43.02399" lon="0.19088">
        <ele>1151.8</ele>
        <time>2023-11-19T10:16:50Z</time>
      </trkpt>
      <trkpt lat="43.02399" lon="0.19088">
        <ele>1151.8</ele>
        <time>2023-11-19T10:16:51Z</time>
      </trkpt>
      <trkpt lat="43.02399" lon="0.19088">
        <ele>1151.8</ele>
        <time>2023-11-19T10:16:52Z</time>
      </trkpt>
      <trkpt lat="43.02397" lon="0.19089">
        <ele>1152</ele>
        <time>2023-11-19T10:16:53Z</time>
      </trkpt>
      <trkpt lat="43.02397" lon="0.1909">
        <ele>1152.2</ele>
        <time>2023-11-19T10:16:54Z</time>
      </trkpt>
      <trkpt lat="43.02396" lon="0.1909">
        <ele>1152.3</ele>
        <time>2023-11-19T10:16:55Z</time>
      </trkpt>
      <trkpt lat="43.02397" lon="0.19091">
        <ele>1152.4</ele>
        <time>2023-11-19T10:16:56Z</time>
      </trkpt>
      <trkpt lat="43.02396" lon="0.19092">
        <ele>1152.5</ele>
        <time>2023-11-19T10:16:57Z</time>
      </trkpt>
      <trkpt lat="43.02396" lon="0.19092">
        <ele>1152.5</ele>
        <time>2023-11-19T10:16:58Z</time>
      </trkpt>
      <trkpt lat="43.02396" lon="0.19092">
        <ele>1152.6</ele>
        <time>2023-11-19T10:16:59Z</time>
      </trkpt>
      <trkpt lat="43.02396" lon="0.19091">
        <ele>1152.8</ele>
        <time>2023-11-19T10:17:00Z</time>
      </trkpt>
      <trkpt lat="43.02397" lon="0.19092">
        <ele>1153</ele>
        <time>2023-11-19T10:17:01Z</time>
      </trkpt>
      <trkpt lat="43.02396" lon="0.19092">
        <ele>1153.1</ele>
        <time>2023-11-19T10:17:02Z</time>
      </trkpt>
      <trkpt lat="43.02396" lon="0.19092">
        <ele>1153.2</ele>
        <time>2023-11-19T10:17:03Z</time>
      </trkpt>
      <trkpt lat="43.02396" lon="0.19092">
        <ele>1153.2</ele>
        <time>2023-11-19T10:17:04Z</time>
      </trkpt>
      <trkpt lat="43.02396" lon="0.19093">
        <ele>1153.3</ele>
        <time>2023-11-19T10:17:05Z</time>
      </trkpt>
      <trkpt lat="43.02396" lon="0.19093">
        <ele>1153.4</ele>
        <time>2023-11-19T10:17:06Z</time>
      </trkpt>
      <trkpt lat="43.02396" lon="0.19093">
        <ele>1153.4</ele>
        <time>2023-11-19T10:17:07Z</time>
      </trkpt>
      <trkpt lat="43.02396" lon="0.19093">
        <ele>1153.5</ele>
        <time>2023-11-19T10:17:08Z</time>
      </trkpt>
      <trkpt lat="43.02396" lon="0.19093">
        <ele>1153.5</ele>
        <time>2023-11-19T10:17:09Z</time>
      </trkpt>
      <trkpt lat="43.02395" lon="0.19094">
        <ele>1153.6</ele>
        <time>2023-11-19T10:17:10Z</time>
      </trkpt>
      <trkpt lat="43.02395" lon="0.19094">
        <ele>1153.7</ele>
        <time>2023-11-19T10:17:11Z</time>
      </trkpt>
      <trkpt lat="43.02394" lon="0.19094">
        <ele>1154</ele>
        <time>2023-11-19T10:17:12Z</time>
      </trkpt>
      <trkpt lat="43.02393" lon="0.19095">
        <ele>1154</ele>
        <time>2023-11-19T10:17:13Z</time>
      </trkpt>
      <trkpt lat="43.02392" lon="0.19095">
        <ele>1154.2</ele>
        <time>2023-11-19T10:17:14Z</time>
      </trkpt>
      <trkpt lat="43.02391" lon="0.19095">
        <ele>1154.4</ele>
        <time>2023-11-19T10:17:15Z</time>
      </trkpt>
      <trkpt lat="43.02391" lon="0.19095">
        <ele>1154.5</ele>
        <time>2023-11-19T10:17:16Z</time>
      </trkpt>
      <trkpt lat="43.0239" lon="0.19095">
        <ele>1154.7</ele>
        <time>2023-11-19T10:17:17Z</time>
      </trkpt>
      <trkpt lat="43.02388" lon="0.19096">
        <ele>1154.8</ele>
        <time>2023-11-19T10:17:18Z</time>
      </trkpt>
      <trkpt lat="43.02388" lon="0.19095">
        <ele>1155</ele>
        <time>2023-11-19T10:17:19Z</time>
      </trkpt>
      <trkpt lat="43.02387" lon="0.19095">
        <ele>1155</ele>
        <time>2023-11-19T10:17:20Z</time>
      </trkpt>
      <trkpt lat="43.02387" lon="0.19095">
        <ele>1155.1</ele>
        <time>2023-11-19T10:17:21Z</time>
      </trkpt>
      <trkpt lat="43.02387" lon="0.19096">
        <ele>1155.2</ele>
        <time>2023-11-19T10:17:22Z</time>
      </trkpt>
      <trkpt lat="43.02386" lon="0.19096">
        <ele>1155.3</ele>
        <time>2023-11-19T10:17:23Z</time>
      </trkpt>
      <trkpt lat="43.02386" lon="0.19096">
        <ele>1155.4</ele>
        <time>2023-11-19T10:17:24Z</time>
      </trkpt>
      <trkpt lat="43.02385" lon="0.19098">
        <ele>1155.6</ele>
        <time>2023-11-19T10:17:25Z</time>
      </trkpt>
      <trkpt lat="43.02385" lon="0.19098">
        <ele>1155.6</ele>
        <time>2023-11-19T10:17:26Z</time>
      </trkpt>
      <trkpt lat="43.02384" lon="0.19099">
        <ele>1155.7</ele>
        <time>2023-11-19T10:17:27Z</time>
      </trkpt>
      <trkpt lat="43.02384" lon="0.19099">
        <ele>1155.8</ele>
        <time>2023-11-19T10:17:28Z</time>
      </trkpt>
      <trkpt lat="43.02383" lon="0.191">
        <ele>1156</ele>
        <time>2023-11-19T10:17:29Z</time>
      </trkpt>
      <trkpt lat="43.02383" lon="0.191">
        <ele>1156</ele>
        <time>2023-11-19T10:17:30Z</time>
      </trkpt>
      <trkpt lat="43.02383" lon="0.191">
        <ele>1156.1</ele>
        <time>2023-11-19T10:17:31Z</time>
      </trkpt>
      <trkpt lat="43.02382" lon="0.191">
        <ele>1156.1</ele>
        <time>2023-11-19T10:17:32Z</time>
      </trkpt>
      <trkpt lat="43.02382" lon="0.191">
        <ele>1156.2</ele>
        <time>2023-11-19T10:17:33Z</time>
      </trkpt>
      <trkpt lat="43.02382" lon="0.19101">
        <ele>1156.2</ele>
        <time>2023-11-19T10:17:34Z</time>
      </trkpt>
      <trkpt lat="43.02381" lon="0.19101">
        <ele>1156.3</ele>
        <time>2023-11-19T10:17:35Z</time>
      </trkpt>
      <trkpt lat="43.02381" lon="0.19102">
        <ele>1156.4</ele>
        <time>2023-11-19T10:17:36Z</time>
      </trkpt>
      <trkpt lat="43.02381" lon="0.19102">
        <ele>1156.5</ele>
        <time>2023-11-19T10:17:37Z</time>
      </trkpt>
      <trkpt lat="43.02381" lon="0.19103">
        <ele>1156.5</ele>
        <time>2023-11-19T10:17:38Z</time>
      </trkpt>
      <trkpt lat="43.0238" lon="0.19103">
        <ele>1156.7</ele>
        <time>2023-11-19T10:17:39Z</time>
      </trkpt>
      <trkpt lat="43.0238" lon="0.19104">
        <ele>1156.8</ele>
        <time>2023-11-19T10:17:40Z</time>
      </trkpt>
      <trkpt lat="43.02379" lon="0.19104">
        <ele>1156.8</ele>
        <time>2023-11-19T10:17:41Z</time>
      </trkpt>
      <trkpt lat="43.02379" lon="0.19104">
        <ele>1156.9</ele>
        <time>2023-11-19T10:17:42Z</time>
      </trkpt>
      <trkpt lat="43.02379" lon="0.19105">
        <ele>1157</ele>
        <time>2023-11-19T10:17:43Z</time>
      </trkpt>
      <trkpt lat="43.02378" lon="0.19105">
        <ele>1157</ele>
        <time>2023-11-19T10:17:44Z</time>
      </trkpt>
      <trkpt lat="43.02377" lon="0.19105">
        <ele>1157.2</ele>
        <time>2023-11-19T10:17:45Z</time>
      </trkpt>
      <trkpt lat="43.02377" lon="0.19106">
        <ele>1157.2</ele>
        <time>2023-11-19T10:17:46Z</time>
      </trkpt>
      <trkpt lat="43.02376" lon="0.19106">
        <ele>1157.4</ele>
        <time>2023-11-19T10:17:47Z</time>
      </trkpt>
      <trkpt lat="43.02375" lon="0.19106">
        <ele>1157.5</ele>
        <time>2023-11-19T10:17:48Z</time>
      </trkpt>
      <trkpt lat="43.02374" lon="0.19106">
        <ele>1157.6</ele>
        <time>2023-11-19T10:17:49Z</time>
      </trkpt>
      <trkpt lat="43.02373" lon="0.19106">
        <ele>1157.7</ele>
        <time>2023-11-19T10:17:50Z</time>
      </trkpt>
      <trkpt lat="43.02373" lon="0.19106">
        <ele>1157.8</ele>
        <time>2023-11-19T10:17:51Z</time>
      </trkpt>
      <trkpt lat="43.02372" lon="0.19107">
        <ele>1157.9</ele>
        <time>2023-11-19T10:17:52Z</time>
      </trkpt>
      <trkpt lat="43.02372" lon="0.19107">
        <ele>1158</ele>
        <time>2023-11-19T10:17:53Z</time>
      </trkpt>
      <trkpt lat="43.0237" lon="0.19107">
        <ele>1158.1</ele>
        <time>2023-11-19T10:17:54Z</time>
      </trkpt>
      <trkpt lat="43.0237" lon="0.19108">
        <ele>1158.2</ele>
        <time>2023-11-19T10:17:55Z</time>
      </trkpt>
      <trkpt lat="43.02369" lon="0.19108">
        <ele>1158.3</ele>
        <time>2023-11-19T10:17:56Z</time>
      </trkpt>
      <trkpt lat="43.02368" lon="0.19108">
        <ele>1158.4</ele>
        <time>2023-11-19T10:17:57Z</time>
      </trkpt>
      <trkpt lat="43.02368" lon="0.19109">
        <ele>1158.5</ele>
        <time>2023-11-19T10:17:58Z</time>
      </trkpt>
      <trkpt lat="43.02368" lon="0.19109">
        <ele>1158.5</ele>
        <time>2023-11-19T10:17:59Z</time>
      </trkpt>
      <trkpt lat="43.02367" lon="0.19109">
        <ele>1158.6</ele>
        <time>2023-11-19T10:18:00Z</time>
      </trkpt>
      <trkpt lat="43.02367" lon="0.19109">
        <ele>1158.7</ele>
        <time>2023-11-19T10:18:01Z</time>
      </trkpt>
      <trkpt lat="43.02366" lon="0.1911">
        <ele>1158.8</ele>
        <time>2023-11-19T10:18:02Z</time>
      </trkpt>
      <trkpt lat="43.02366" lon="0.1911">
        <ele>1158.8</ele>
        <time>2023-11-19T10:18:03Z</time>
      </trkpt>
      <trkpt lat="43.02365" lon="0.19111">
        <ele>1159</ele>
        <time>2023-11-19T10:18:04Z</time>
      </trkpt>
      <trkpt lat="43.02365" lon="0.19111">
        <ele>1159</ele>
        <time>2023-11-19T10:18:05Z</time>
      </trkpt>
      <trkpt lat="43.02364" lon="0.19111">
        <ele>1159.1</ele>
        <time>2023-11-19T10:18:06Z</time>
      </trkpt>
      <trkpt lat="43.02364" lon="0.19111">
        <ele>1159.1</ele>
        <time>2023-11-19T10:18:07Z</time>
      </trkpt>
      <trkpt lat="43.02363" lon="0.19112">
        <ele>1159.2</ele>
        <time>2023-11-19T10:18:08Z</time>
      </trkpt>
      <trkpt lat="43.02362" lon="0.19113">
        <ele>1159.4</ele>
        <time>2023-11-19T10:18:09Z</time>
      </trkpt>
      <trkpt lat="43.02361" lon="0.19113">
        <ele>1159.4</ele>
        <time>2023-11-19T10:18:10Z</time>
      </trkpt>
      <trkpt lat="43.02361" lon="0.19113">
        <ele>1159.5</ele>
        <time>2023-11-19T10:18:11Z</time>
      </trkpt>
      <trkpt lat="43.02361" lon="0.19114">
        <ele>1159.5</ele>
        <time>2023-11-19T10:18:12Z</time>
      </trkpt>
      <trkpt lat="43.0236" lon="0.19114">
        <ele>1159.6</ele>
        <time>2023-11-19T10:18:13Z</time>
      </trkpt>
      <trkpt lat="43.0236" lon="0.19114">
        <ele>1159.7</ele>
        <time>2023-11-19T10:18:14Z</time>
      </trkpt>
      <trkpt lat="43.0236" lon="0.19114">
        <ele>1159.7</ele>
        <time>2023-11-19T10:18:15Z</time>
      </trkpt>
      <trkpt lat="43.02359" lon="0.19115">
        <ele>1159.7</ele>
        <time>2023-11-19T10:18:16Z</time>
      </trkpt>
      <trkpt lat="43.02358" lon="0.19115">
        <ele>1159.8</ele>
        <time>2023-11-19T10:18:17Z</time>
      </trkpt>
      <trkpt lat="43.02357" lon="0.19116">
        <ele>1160</ele>
        <time>2023-11-19T10:18:18Z</time>
      </trkpt>
      <trkpt lat="43.02357" lon="0.19116">
        <ele>1160</ele>
        <time>2023-11-19T10:18:19Z</time>
      </trkpt>
      <trkpt lat="43.02356" lon="0.19116">
        <ele>1160.1</ele>
        <time>2023-11-19T10:18:20Z</time>
      </trkpt>
      <trkpt lat="43.02355" lon="0.19117">
        <ele>1160.2</ele>
        <time>2023-11-19T10:18:21Z</time>
      </trkpt>
      <trkpt lat="43.02355" lon="0.19117">
        <ele>1160.2</ele>
        <time>2023-11-19T10:18:22Z</time>
      </trkpt>
      <trkpt lat="43.02355" lon="0.19117">
        <ele>1160.2</ele>
        <time>2023-11-19T10:18:23Z</time>
      </trkpt>
      <trkpt lat="43.02355" lon="0.19117">
        <ele>1160.3</ele>
        <time>2023-11-19T10:18:24Z</time>
      </trkpt>
      <trkpt lat="43.02354" lon="0.19117">
        <ele>1160.3</ele>
        <time>2023-11-19T10:18:25Z</time>
      </trkpt>
      <trkpt lat="43.02354" lon="0.19118">
        <ele>1160.3</ele>
        <time>2023-11-19T10:18:26Z</time>
      </trkpt>
      <trkpt lat="43.02354" lon="0.19118">
        <ele>1160.4</ele>
        <time>2023-11-19T10:18:27Z</time>
      </trkpt>
      <trkpt lat="43.02354" lon="0.19118">
        <ele>1160.4</ele>
        <time>2023-11-19T10:18:28Z</time>
      </trkpt>
      <trkpt lat="43.02354" lon="0.19118">
        <ele>1160.4</ele>
        <time>2023-11-19T10:18:29Z</time>
      </trkpt>
      <trkpt lat="43.02353" lon="0.19118">
        <ele>1160.4</ele>
        <time>2023-11-19T10:18:30Z</time>
      </trkpt>
      <trkpt lat="43.02353" lon="0.19118">
        <ele>1160.5</ele>
        <time>2023-11-19T10:18:31Z</time>
      </trkpt>
      <trkpt lat="43.02353" lon="0.19118">
        <ele>1160.5</ele>
        <time>2023-11-19T10:18:32Z</time>
      </trkpt>
      <trkpt lat="43.02353" lon="0.19118">
        <ele>1160.5</ele>
        <time>2023-11-19T10:18:33Z</time>
      </trkpt>
      <trkpt lat="43.02352" lon="0.19118">
        <ele>1160.5</ele>
        <time>2023-11-19T10:18:34Z</time>
      </trkpt>
      <trkpt lat="43.02352" lon="0.19118">
        <ele>1160.6</ele>
        <time>2023-11-19T10:18:35Z</time>
      </trkpt>
      <trkpt lat="43.02352" lon="0.19119">
        <ele>1160.6</ele>
        <time>2023-11-19T10:18:36Z</time>
      </trkpt>
      <trkpt lat="43.02352" lon="0.19119">
        <ele>1160.6</ele>
        <time>2023-11-19T10:18:37Z</time>
      </trkpt>
      <trkpt lat="43.02351" lon="0.19119">
        <ele>1160.7</ele>
        <time>2023-11-19T10:18:38Z</time>
      </trkpt>
      <trkpt lat="43.02353" lon="0.19119">
        <ele>1160.8</ele>
        <time>2023-11-19T10:18:39Z</time>
      </trkpt>
      <trkpt lat="43.02353" lon="0.19119">
        <ele>1160.8</ele>
        <time>2023-11-19T10:18:40Z</time>
      </trkpt>
      <trkpt lat="43.02353" lon="0.1912">
        <ele>1160.9</ele>
        <time>2023-11-19T10:18:41Z</time>
      </trkpt>
      <trkpt lat="43.02352" lon="0.1912">
        <ele>1161</ele>
        <time>2023-11-19T10:18:42Z</time>
      </trkpt>
      <trkpt lat="43.02351" lon="0.19121">
        <ele>1161.1</ele>
        <time>2023-11-19T10:18:43Z</time>
      </trkpt>
      <trkpt lat="43.0235" lon="0.19121">
        <ele>1161.2</ele>
        <time>2023-11-19T10:18:44Z</time>
      </trkpt>
      <trkpt lat="43.02351" lon="0.19122">
        <ele>1161.4</ele>
        <time>2023-11-19T10:18:45Z</time>
      </trkpt>
      <trkpt lat="43.02351" lon="0.19123">
        <ele>1161.5</ele>
        <time>2023-11-19T10:18:46Z</time>
      </trkpt>
      <trkpt lat="43.02351" lon="0.19124">
        <ele>1161.5</ele>
        <time>2023-11-19T10:18:47Z</time>
      </trkpt>
      <trkpt lat="43.0235" lon="0.19124">
        <ele>1161.7</ele>
        <time>2023-11-19T10:18:48Z</time>
      </trkpt>
      <trkpt lat="43.0235" lon="0.19125">
        <ele>1161.7</ele>
        <time>2023-11-19T10:18:49Z</time>
      </trkpt>
      <trkpt lat="43.0235" lon="0.19125">
        <ele>1161.8</ele>
        <time>2023-11-19T10:18:50Z</time>
      </trkpt>
      <trkpt lat="43.02348" lon="0.19125">
        <ele>1161.9</ele>
        <time>2023-11-19T10:18:51Z</time>
      </trkpt>
      <trkpt lat="43.02347" lon="0.19126">
        <ele>1162</ele>
        <time>2023-11-19T10:18:52Z</time>
      </trkpt>
      <trkpt lat="43.02346" lon="0.19128">
        <ele>1162.2</ele>
        <time>2023-11-19T10:18:53Z</time>
      </trkpt>
      <trkpt lat="43.02347" lon="0.19129">
        <ele>1162.4</ele>
        <time>2023-11-19T10:18:54Z</time>
      </trkpt>
      <trkpt lat="43.02346" lon="0.19131">
        <ele>1162.6</ele>
        <time>2023-11-19T10:18:55Z</time>
      </trkpt>
      <trkpt lat="43.02345" lon="0.19132">
        <ele>1162.7</ele>
        <time>2023-11-19T10:18:56Z</time>
      </trkpt>
      <trkpt lat="43.02345" lon="0.19132">
        <ele>1162.7</ele>
        <time>2023-11-19T10:18:57Z</time>
      </trkpt>
      <trkpt lat="43.02344" lon="0.19134">
        <ele>1163</ele>
        <time>2023-11-19T10:18:58Z</time>
      </trkpt>
      <trkpt lat="43.02343" lon="0.19134">
        <ele>1163</ele>
        <time>2023-11-19T10:18:59Z</time>
      </trkpt>
      <trkpt lat="43.02343" lon="0.19135">
        <ele>1163.1</ele>
        <time>2023-11-19T10:19:00Z</time>
      </trkpt>
      <trkpt lat="43.02342" lon="0.19135">
        <ele>1163.2</ele>
        <time>2023-11-19T10:19:01Z</time>
      </trkpt>
      <trkpt lat="43.02342" lon="0.19135">
        <ele>1163.2</ele>
        <time>2023-11-19T10:19:02Z</time>
      </trkpt>
      <trkpt lat="43.02342" lon="0.19135">
        <ele>1163.3</ele>
        <time>2023-11-19T10:19:03Z</time>
      </trkpt>
      <trkpt lat="43.02342" lon="0.19136">
        <ele>1163.4</ele>
        <time>2023-11-19T10:19:04Z</time>
      </trkpt>
      <trkpt lat="43.02344" lon="0.19137">
        <ele>1163.7</ele>
        <time>2023-11-19T10:19:05Z</time>
      </trkpt>
      <trkpt lat="43.02343" lon="0.19136">
        <ele>1163.9</ele>
        <time>2023-11-19T10:19:06Z</time>
      </trkpt>
      <trkpt lat="43.02341" lon="0.19135">
        <ele>1164.1</ele>
        <time>2023-11-19T10:19:07Z</time>
      </trkpt>
      <trkpt lat="43.0234" lon="0.19135">
        <ele>1164.3</ele>
        <time>2023-11-19T10:19:08Z</time>
      </trkpt>
      <trkpt lat="43.02338" lon="0.19135">
        <ele>1164.5</ele>
        <time>2023-11-19T10:19:09Z</time>
      </trkpt>
      <trkpt lat="43.02338" lon="0.19136">
        <ele>1164.7</ele>
        <time>2023-11-19T10:19:10Z</time>
      </trkpt>
      <trkpt lat="43.02338" lon="0.19136">
        <ele>1164.7</ele>
        <time>2023-11-19T10:19:11Z</time>
      </trkpt>
      <trkpt lat="43.02336" lon="0.19136">
        <ele>1164.9</ele>
        <time>2023-11-19T10:19:12Z</time>
      </trkpt>
      <trkpt lat="43.02336" lon="0.19136">
        <ele>1165</ele>
        <time>2023-11-19T10:19:13Z</time>
      </trkpt>
      <trkpt lat="43.02336" lon="0.19136">
        <ele>1165.1</ele>
        <time>2023-11-19T10:19:14Z</time>
      </trkpt>
      <trkpt lat="43.02334" lon="0.19136">
        <ele>1165.4</ele>
        <time>2023-11-19T10:19:15Z</time>
      </trkpt>
      <trkpt lat="43.02334" lon="0.19136">
        <ele>1165.4</ele>
        <time>2023-11-19T10:19:16Z</time>
      </trkpt>
      <trkpt lat="43.02334" lon="0.19136">
        <ele>1165.5</ele>
        <time>2023-11-19T10:19:17Z</time>
      </trkpt>
      <trkpt lat="43.02333" lon="0.19137">
        <ele>1165.6</ele>
        <time>2023-11-19T10:19:18Z</time>
      </trkpt>
      <trkpt lat="43.02333" lon="0.19137">
        <ele>1165.7</ele>
        <time>2023-11-19T10:19:19Z</time>
      </trkpt>
      <trkpt lat="43.02333" lon="0.19136">
        <ele>1165.7</ele>
        <time>2023-11-19T10:19:20Z</time>
      </trkpt>
      <trkpt lat="43.02332" lon="0.19135">
        <ele>1165.9</ele>
        <time>2023-11-19T10:19:21Z</time>
      </trkpt>
      <trkpt lat="43.02332" lon="0.19135">
        <ele>1165.9</ele>
        <time>2023-11-19T10:19:22Z</time>
      </trkpt>
      <trkpt lat="43.02332" lon="0.19134">
        <ele>1166.1</ele>
        <time>2023-11-19T10:19:23Z</time>
      </trkpt>
      <trkpt lat="43.02331" lon="0.19133">
        <ele>1166.2</ele>
        <time>2023-11-19T10:19:24Z</time>
      </trkpt>
      <trkpt lat="43.0233" lon="0.19133">
        <ele>1166.3</ele>
        <time>2023-11-19T10:19:25Z</time>
      </trkpt>
      <trkpt lat="43.0233" lon="0.19134">
        <ele>1166.4</ele>
        <time>2023-11-19T10:19:26Z</time>
      </trkpt>
      <trkpt lat="43.02329" lon="0.19133">
        <ele>1166.5</ele>
        <time>2023-11-19T10:19:27Z</time>
      </trkpt>
      <trkpt lat="43.02329" lon="0.19133">
        <ele>1166.6</ele>
        <time>2023-11-19T10:19:28Z</time>
      </trkpt>
      <trkpt lat="43.02328" lon="0.19134">
        <ele>1166.7</ele>
        <time>2023-11-19T10:19:29Z</time>
      </trkpt>
      <trkpt lat="43.02328" lon="0.19134">
        <ele>1166.8</ele>
        <time>2023-11-19T10:19:30Z</time>
      </trkpt>
      <trkpt lat="43.02328" lon="0.19134">
        <ele>1166.9</ele>
        <time>2023-11-19T10:19:31Z</time>
      </trkpt>
      <trkpt lat="43.02327" lon="0.19135">
        <ele>1167</ele>
        <time>2023-11-19T10:19:32Z</time>
      </trkpt>
      <trkpt lat="43.02326" lon="0.19135">
        <ele>1167.1</ele>
        <time>2023-11-19T10:19:33Z</time>
      </trkpt>
      <trkpt lat="43.02326" lon="0.19136">
        <ele>1167.3</ele>
        <time>2023-11-19T10:19:34Z</time>
      </trkpt>
      <trkpt lat="43.02326" lon="0.19136">
        <ele>1167.4</ele>
        <time>2023-11-19T10:19:35Z</time>
      </trkpt>
      <trkpt lat="43.02326" lon="0.19136">
        <ele>1167.4</ele>
        <time>2023-11-19T10:19:36Z</time>
      </trkpt>
      <trkpt lat="43.02326" lon="0.19136">
        <ele>1167.5</ele>
        <time>2023-11-19T10:19:37Z</time>
      </trkpt>
      <trkpt lat="43.02327" lon="0.19136">
        <ele>1167.6</ele>
        <time>2023-11-19T10:19:38Z</time>
      </trkpt>
      <trkpt lat="43.02327" lon="0.19136">
        <ele>1167.6</ele>
        <time>2023-11-19T10:19:39Z</time>
      </trkpt>
      <trkpt lat="43.02327" lon="0.19136">
        <ele>1167.7</ele>
        <time>2023-11-19T10:19:40Z</time>
      </trkpt>
      <trkpt lat="43.02328" lon="0.19136">
        <ele>1167.7</ele>
        <time>2023-11-19T10:19:41Z</time>
      </trkpt>
      <trkpt lat="43.02327" lon="0.19136">
        <ele>1167.7</ele>
        <time>2023-11-19T10:19:42Z</time>
      </trkpt>
      <trkpt lat="43.02327" lon="0.19136">
        <ele>1167.7</ele>
        <time>2023-11-19T10:19:43Z</time>
      </trkpt>
      <trkpt lat="43.02327" lon="0.19136">
        <ele>1167.7</ele>
        <time>2023-11-19T10:19:44Z</time>
      </trkpt>
      <trkpt lat="43.02327" lon="0.19137">
        <ele>1167.9</ele>
        <time>2023-11-19T10:19:45Z</time>
      </trkpt>
      <trkpt lat="43.02326" lon="0.19137">
        <ele>1168</ele>
        <time>2023-11-19T10:19:46Z</time>
      </trkpt>
      <trkpt lat="43.02326" lon="0.19138">
        <ele>1168</ele>
        <time>2023-11-19T10:19:47Z</time>
      </trkpt>
      <trkpt lat="43.02326" lon="0.19138">
        <ele>1168.1</ele>
        <time>2023-11-19T10:19:48Z</time>
      </trkpt>
      <trkpt lat="43.02326" lon="0.19137">
        <ele>1168.1</ele>
        <time>2023-11-19T10:19:49Z</time>
      </trkpt>
      <trkpt lat="43.02326" lon="0.19137">
        <ele>1168.1</ele>
        <time>2023-11-19T10:19:50Z</time>
      </trkpt>
      <trkpt lat="43.02326" lon="0.19137">
        <ele>1168.1</ele>
        <time>2023-11-19T10:19:51Z</time>
      </trkpt>
      <trkpt lat="43.02327" lon="0.19137">
        <ele>1168.2</ele>
        <time>2023-11-19T10:19:52Z</time>
      </trkpt>
      <trkpt lat="43.02326" lon="0.19137">
        <ele>1168.4</ele>
        <time>2023-11-19T10:19:53Z</time>
      </trkpt>
      <trkpt lat="43.02324" lon="0.19138">
        <ele>1168.6</ele>
        <time>2023-11-19T10:19:54Z</time>
      </trkpt>
      <trkpt lat="43.02324" lon="0.19139">
        <ele>1168.7</ele>
        <time>2023-11-19T10:19:55Z</time>
      </trkpt>
      <trkpt lat="43.02324" lon="0.19139">
        <ele>1168.7</ele>
        <time>2023-11-19T10:19:56Z</time>
      </trkpt>
      <trkpt lat="43.02323" lon="0.1914">
        <ele>1168.8</ele>
        <time>2023-11-19T10:19:57Z</time>
      </trkpt>
      <trkpt lat="43.02323" lon="0.19141">
        <ele>1169</ele>
        <time>2023-11-19T10:19:58Z</time>
      </trkpt>
      <trkpt lat="43.02322" lon="0.19143">
        <ele>1169.2</ele>
        <time>2023-11-19T10:19:59Z</time>
      </trkpt>
      <trkpt lat="43.02322" lon="0.19143">
        <ele>1169.2</ele>
        <time>2023-11-19T10:20:00Z</time>
      </trkpt>
      <trkpt lat="43.02323" lon="0.19142">
        <ele>1169.3</ele>
        <time>2023-11-19T10:20:01Z</time>
      </trkpt>
      <trkpt lat="43.0232" lon="0.19144">
        <ele>1169.8</ele>
        <time>2023-11-19T10:20:03Z</time>
      </trkpt>
      <trkpt lat="43.02319" lon="0.19145">
        <ele>1169.9</ele>
        <time>2023-11-19T10:20:04Z</time>
      </trkpt>
      <trkpt lat="43.02319" lon="0.19147">
        <ele>1170.1</ele>
        <time>2023-11-19T10:20:06Z</time>
      </trkpt>
      <trkpt lat="43.02318" lon="0.19147">
        <ele>1170.1</ele>
        <time>2023-11-19T10:20:08Z</time>
      </trkpt>
      <trkpt lat="43.02318" lon="0.19148">
        <ele>1170.2</ele>
        <time>2023-11-19T10:20:09Z</time>
      </trkpt>
      <trkpt lat="43.02318" lon="0.19148">
        <ele>1170.3</ele>
        <time>2023-11-19T10:20:11Z</time>
      </trkpt>
      <trkpt lat="43.02317" lon="0.19149">
        <ele>1170.4</ele>
        <time>2023-11-19T10:20:12Z</time>
      </trkpt>
      <trkpt lat="43.02317" lon="0.1915">
        <ele>1170.4</ele>
        <time>2023-11-19T10:20:14Z</time>
      </trkpt>
      <trkpt lat="43.02317" lon="0.1915">
        <ele>1170.5</ele>
        <time>2023-11-19T10:20:15Z</time>
      </trkpt>
      <trkpt lat="43.02315" lon="0.19152">
        <ele>1170.7</ele>
        <time>2023-11-19T10:20:16Z</time>
      </trkpt>
      <trkpt lat="43.02314" lon="0.19152">
        <ele>1170.8</ele>
        <time>2023-11-19T10:20:17Z</time>
      </trkpt>
      <trkpt lat="43.02315" lon="0.19152">
        <ele>1170.9</ele>
        <time>2023-11-19T10:20:18Z</time>
      </trkpt>
      <trkpt lat="43.02315" lon="0.19154">
        <ele>1171</ele>
        <time>2023-11-19T10:20:19Z</time>
      </trkpt>
      <trkpt lat="43.02314" lon="0.19154">
        <ele>1171.1</ele>
        <time>2023-11-19T10:20:20Z</time>
      </trkpt>
      <trkpt lat="43.02314" lon="0.19155">
        <ele>1171.2</ele>
        <time>2023-11-19T10:20:21Z</time>
      </trkpt>
      <trkpt lat="43.02314" lon="0.19155">
        <ele>1171.3</ele>
        <time>2023-11-19T10:20:22Z</time>
      </trkpt>
      <trkpt lat="43.02314" lon="0.19155">
        <ele>1171.3</ele>
        <time>2023-11-19T10:20:23Z</time>
      </trkpt>
      <trkpt lat="43.02313" lon="0.19156">
        <ele>1171.4</ele>
        <time>2023-11-19T10:20:24Z</time>
      </trkpt>
      <trkpt lat="43.02313" lon="0.19156">
        <ele>1171.4</ele>
        <time>2023-11-19T10:20:25Z</time>
      </trkpt>
      <trkpt lat="43.02312" lon="0.19157">
        <ele>1171.6</ele>
        <time>2023-11-19T10:20:26Z</time>
      </trkpt>
      <trkpt lat="43.02312" lon="0.19158">
        <ele>1171.7</ele>
        <time>2023-11-19T10:20:27Z</time>
      </trkpt>
      <trkpt lat="43.02311" lon="0.19158">
        <ele>1171.8</ele>
        <time>2023-11-19T10:20:28Z</time>
      </trkpt>
      <trkpt lat="43.02311" lon="0.19159">
        <ele>1171.8</ele>
        <time>2023-11-19T10:20:29Z</time>
      </trkpt>
      <trkpt lat="43.02311" lon="0.19158">
        <ele>1171.8</ele>
        <time>2023-11-19T10:20:30Z</time>
      </trkpt>
      <trkpt lat="43.02311" lon="0.19159">
        <ele>1171.9</ele>
        <time>2023-11-19T10:20:31Z</time>
      </trkpt>
      <trkpt lat="43.0231" lon="0.19159">
        <ele>1172</ele>
        <time>2023-11-19T10:20:32Z</time>
      </trkpt>
      <trkpt lat="43.0231" lon="0.19158">
        <ele>1172</ele>
        <time>2023-11-19T10:20:33Z</time>
      </trkpt>
      <trkpt lat="43.0231" lon="0.19158">
        <ele>1172</ele>
        <time>2023-11-19T10:20:34Z</time>
      </trkpt>
      <trkpt lat="43.02309" lon="0.19158">
        <ele>1172.1</ele>
        <time>2023-11-19T10:20:35Z</time>
      </trkpt>
      <trkpt lat="43.02308" lon="0.19158">
        <ele>1172.3</ele>
        <time>2023-11-19T10:20:36Z</time>
      </trkpt>
      <trkpt lat="43.02309" lon="0.19159">
        <ele>1172.3</ele>
        <time>2023-11-19T10:20:37Z</time>
      </trkpt>
      <trkpt lat="43.02308" lon="0.1916">
        <ele>1172.4</ele>
        <time>2023-11-19T10:20:38Z</time>
      </trkpt>
      <trkpt lat="43.02308" lon="0.1916">
        <ele>1172.5</ele>
        <time>2023-11-19T10:20:39Z</time>
      </trkpt>
      <trkpt lat="43.02308" lon="0.19161">
        <ele>1172.5</ele>
        <time>2023-11-19T10:20:40Z</time>
      </trkpt>
      <trkpt lat="43.02307" lon="0.19161">
        <ele>1172.6</ele>
        <time>2023-11-19T10:20:41Z</time>
      </trkpt>
      <trkpt lat="43.02306" lon="0.19161">
        <ele>1172.7</ele>
        <time>2023-11-19T10:20:42Z</time>
      </trkpt>
      <trkpt lat="43.02306" lon="0.19162">
        <ele>1172.7</ele>
        <time>2023-11-19T10:20:43Z</time>
      </trkpt>
      <trkpt lat="43.02305" lon="0.19161">
        <ele>1172.8</ele>
        <time>2023-11-19T10:20:44Z</time>
      </trkpt>
      <trkpt lat="43.02304" lon="0.19161">
        <ele>1173</ele>
        <time>2023-11-19T10:20:45Z</time>
      </trkpt>
      <trkpt lat="43.02303" lon="0.19161">
        <ele>1173.1</ele>
        <time>2023-11-19T10:20:46Z</time>
      </trkpt>
      <trkpt lat="43.02304" lon="0.1916">
        <ele>1173.2</ele>
        <time>2023-11-19T10:20:47Z</time>
      </trkpt>
      <trkpt lat="43.02302" lon="0.1916">
        <ele>1173.4</ele>
        <time>2023-11-19T10:20:48Z</time>
      </trkpt>
      <trkpt lat="43.02301" lon="0.1916">
        <ele>1173.5</ele>
        <time>2023-11-19T10:20:49Z</time>
      </trkpt>
      <trkpt lat="43.023" lon="0.1916">
        <ele>1173.6</ele>
        <time>2023-11-19T10:20:50Z</time>
      </trkpt>
      <trkpt lat="43.023" lon="0.19161">
        <ele>1173.7</ele>
        <time>2023-11-19T10:20:51Z</time>
      </trkpt>
      <trkpt lat="43.023" lon="0.19161">
        <ele>1173.7</ele>
        <time>2023-11-19T10:20:52Z</time>
      </trkpt>
      <trkpt lat="43.02301" lon="0.19161">
        <ele>1173.8</ele>
        <time>2023-11-19T10:20:53Z</time>
      </trkpt>
      <trkpt lat="43.02299" lon="0.19161">
        <ele>1174</ele>
        <time>2023-11-19T10:20:54Z</time>
      </trkpt>
      <trkpt lat="43.02297" lon="0.19162">
        <ele>1174.1</ele>
        <time>2023-11-19T10:20:55Z</time>
      </trkpt>
      <trkpt lat="43.02297" lon="0.19162">
        <ele>1174.1</ele>
        <time>2023-11-19T10:20:56Z</time>
      </trkpt>
      <trkpt lat="43.02296" lon="0.19163">
        <ele>1174.3</ele>
        <time>2023-11-19T10:20:57Z</time>
      </trkpt>
      <trkpt lat="43.02295" lon="0.19163">
        <ele>1174.4</ele>
        <time>2023-11-19T10:20:58Z</time>
      </trkpt>
      <trkpt lat="43.02294" lon="0.19164">
        <ele>1174.5</ele>
        <time>2023-11-19T10:20:59Z</time>
      </trkpt>
      <trkpt lat="43.02294" lon="0.19164">
        <ele>1174.5</ele>
        <time>2023-11-19T10:21:00Z</time>
      </trkpt>
      <trkpt lat="43.02294" lon="0.19165">
        <ele>1174.6</ele>
        <time>2023-11-19T10:21:01Z</time>
      </trkpt>
      <trkpt lat="43.02293" lon="0.19165">
        <ele>1174.6</ele>
        <time>2023-11-19T10:21:02Z</time>
      </trkpt>
      <trkpt lat="43.02293" lon="0.19166">
        <ele>1174.7</ele>
        <time>2023-11-19T10:21:03Z</time>
      </trkpt>
      <trkpt lat="43.02293" lon="0.19166">
        <ele>1174.7</ele>
        <time>2023-11-19T10:21:04Z</time>
      </trkpt>
      <trkpt lat="43.02293" lon="0.19167">
        <ele>1174.7</ele>
        <time>2023-11-19T10:21:05Z</time>
      </trkpt>
      <trkpt lat="43.02292" lon="0.19167">
        <ele>1174.8</ele>
        <time>2023-11-19T10:21:06Z</time>
      </trkpt>
      <trkpt lat="43.02291" lon="0.19164">
        <ele>1175</ele>
        <time>2023-11-19T10:21:07Z</time>
      </trkpt>
      <trkpt lat="43.02291" lon="0.19163">
        <ele>1175</ele>
        <time>2023-11-19T10:21:08Z</time>
      </trkpt>
      <trkpt lat="43.0229" lon="0.19163">
        <ele>1175.1</ele>
        <time>2023-11-19T10:21:09Z</time>
      </trkpt>
      <trkpt lat="43.0229" lon="0.19163">
        <ele>1175.1</ele>
        <time>2023-11-19T10:21:10Z</time>
      </trkpt>
      <trkpt lat="43.02291" lon="0.19164">
        <ele>1175.2</ele>
        <time>2023-11-19T10:21:11Z</time>
      </trkpt>
      <trkpt lat="43.0229" lon="0.19163">
        <ele>1175.3</ele>
        <time>2023-11-19T10:21:12Z</time>
      </trkpt>
      <trkpt lat="43.02289" lon="0.19165">
        <ele>1175.4</ele>
        <time>2023-11-19T10:21:13Z</time>
      </trkpt>
      <trkpt lat="43.02288" lon="0.19165">
        <ele>1175.4</ele>
        <time>2023-11-19T10:21:14Z</time>
      </trkpt>
      <trkpt lat="43.02289" lon="0.19164">
        <ele>1175.4</ele>
        <time>2023-11-19T10:21:15Z</time>
      </trkpt>
      <trkpt lat="43.02288" lon="0.19164">
        <ele>1175.5</ele>
        <time>2023-11-19T10:21:16Z</time>
      </trkpt>
      <trkpt lat="43.02287" lon="0.19163">
        <ele>1175.6</ele>
        <time>2023-11-19T10:21:17Z</time>
      </trkpt>
      <trkpt lat="43.02286" lon="0.19163">
        <ele>1175.6</ele>
        <time>2023-11-19T10:21:18Z</time>
      </trkpt>
      <trkpt lat="43.02286" lon="0.19163">
        <ele>1175.7</ele>
        <time>2023-11-19T10:21:19Z</time>
      </trkpt>
      <trkpt lat="43.02285" lon="0.19163">
        <ele>1175.7</ele>
        <time>2023-11-19T10:21:20Z</time>
      </trkpt>
      <trkpt lat="43.02285" lon="0.19164">
        <ele>1175.7</ele>
        <time>2023-11-19T10:21:21Z</time>
      </trkpt>
      <trkpt lat="43.02286" lon="0.19164">
        <ele>1175.8</ele>
        <time>2023-11-19T10:21:22Z</time>
      </trkpt>
      <trkpt lat="43.02285" lon="0.19165">
        <ele>1175.8</ele>
        <time>2023-11-19T10:21:23Z</time>
      </trkpt>
      <trkpt lat="43.02283" lon="0.19165">
        <ele>1175.9</ele>
        <time>2023-11-19T10:21:24Z</time>
      </trkpt>
      <trkpt lat="43.02284" lon="0.19164">
        <ele>1175.9</ele>
        <time>2023-11-19T10:21:25Z</time>
      </trkpt>
      <trkpt lat="43.02284" lon="0.19164">
        <ele>1175.9</ele>
        <time>2023-11-19T10:21:26Z</time>
      </trkpt>
      <trkpt lat="43.02283" lon="0.19165">
        <ele>1175.9</ele>
        <time>2023-11-19T10:21:27Z</time>
      </trkpt>
      <trkpt lat="43.02283" lon="0.19165">
        <ele>1175.9</ele>
        <time>2023-11-19T10:21:28Z</time>
      </trkpt>
      <trkpt lat="43.02282" lon="0.19165">
        <ele>1176</ele>
        <time>2023-11-19T10:21:29Z</time>
      </trkpt>
      <trkpt lat="43.02282" lon="0.19165">
        <ele>1176</ele>
        <time>2023-11-19T10:21:30Z</time>
      </trkpt>
      <trkpt lat="43.02282" lon="0.19165">
        <ele>1176</ele>
        <time>2023-11-19T10:21:31Z</time>
      </trkpt>
      <trkpt lat="43.02282" lon="0.19165">
        <ele>1176</ele>
        <time>2023-11-19T10:21:32Z</time>
      </trkpt>
      <trkpt lat="43.02283" lon="0.19165">
        <ele>1176</ele>
        <time>2023-11-19T10:21:33Z</time>
      </trkpt>
      <trkpt lat="43.02283" lon="0.19164">
        <ele>1176</ele>
        <time>2023-11-19T10:21:34Z</time>
      </trkpt>
      <trkpt lat="43.02283" lon="0.19164">
        <ele>1176</ele>
        <time>2023-11-19T10:21:35Z</time>
      </trkpt>
      <trkpt lat="43.02283" lon="0.19165">
        <ele>1176</ele>
        <time>2023-11-19T10:21:36Z</time>
      </trkpt>
      <trkpt lat="43.02284" lon="0.19163">
        <ele>1176</ele>
        <time>2023-11-19T10:21:37Z</time>
      </trkpt>
      <trkpt lat="43.02284" lon="0.19162">
        <ele>1176</ele>
        <time>2023-11-19T10:21:38Z</time>
      </trkpt>
      <trkpt lat="43.02284" lon="0.19162">
        <ele>1176.1</ele>
        <time>2023-11-19T10:21:39Z</time>
      </trkpt>
      <trkpt lat="43.02284" lon="0.19161">
        <ele>1176.1</ele>
        <time>2023-11-19T10:21:40Z</time>
      </trkpt>
      <trkpt lat="43.02284" lon="0.19161">
        <ele>1176.1</ele>
        <time>2023-11-19T10:21:41Z</time>
      </trkpt>
      <trkpt lat="43.02284" lon="0.19161">
        <ele>1176.1</ele>
        <time>2023-11-19T10:21:42Z</time>
      </trkpt>
      <trkpt lat="43.02285" lon="0.1916">
        <ele>1176.1</ele>
        <time>2023-11-19T10:21:43Z</time>
      </trkpt>
      <trkpt lat="43.02285" lon="0.19161">
        <ele>1176.1</ele>
        <time>2023-11-19T10:21:44Z</time>
      </trkpt>
      <trkpt lat="43.02285" lon="0.19161">
        <ele>1176.1</ele>
        <time>2023-11-19T10:21:45Z</time>
      </trkpt>
      <trkpt lat="43.02287" lon="0.19162">
        <ele>1176.2</ele>
        <time>2023-11-19T10:21:46Z</time>
      </trkpt>
      <trkpt lat="43.02287" lon="0.19162">
        <ele>1176.2</ele>
        <time>2023-11-19T10:21:47Z</time>
      </trkpt>
      <trkpt lat="43.02286" lon="0.19161">
        <ele>1176.2</ele>
        <time>2023-11-19T10:21:48Z</time>
      </trkpt>
      <trkpt lat="43.02285" lon="0.19161">
        <ele>1176.2</ele>
        <time>2023-11-19T10:21:49Z</time>
      </trkpt>
      <trkpt lat="43.02285" lon="0.19161">
        <ele>1176.2</ele>
        <time>2023-11-19T10:21:50Z</time>
      </trkpt>
      <trkpt lat="43.02285" lon="0.19161">
        <ele>1176.2</ele>
        <time>2023-11-19T10:21:51Z</time>
      </trkpt>
      <trkpt lat="43.02285" lon="0.19161">
        <ele>1176.2</ele>
        <time>2023-11-19T10:21:52Z</time>
      </trkpt>
      <trkpt lat="43.02285" lon="0.19161">
        <ele>1176.2</ele>
        <time>2023-11-19T10:21:53Z</time>
      </trkpt>
      <trkpt lat="43.02285" lon="0.19161">
        <ele>1176.2</ele>
        <time>2023-11-19T10:21:54Z</time>
      </trkpt>
      <trkpt lat="43.02284" lon="0.19161">
        <ele>1176.2</ele>
        <time>2023-11-19T10:21:55Z</time>
      </trkpt>
      <trkpt lat="43.02284" lon="0.19161">
        <ele>1176.2</ele>
        <time>2023-11-19T10:21:56Z</time>
      </trkpt>
      <trkpt lat="43.02283" lon="0.19162">
        <ele>1176.2</ele>
        <time>2023-11-19T10:21:57Z</time>
      </trkpt>
      <trkpt lat="43.02283" lon="0.19162">
        <ele>1176.2</ele>
        <time>2023-11-19T10:21:58Z</time>
      </trkpt>
      <trkpt lat="43.02282" lon="0.19163">
        <ele>1176.2</ele>
        <time>2023-11-19T10:21:59Z</time>
      </trkpt>
      <trkpt lat="43.02282" lon="0.19163">
        <ele>1176.2</ele>
        <time>2023-11-19T10:22:00Z</time>
      </trkpt>
      <trkpt lat="43.02282" lon="0.19163">
        <ele>1176.2</ele>
        <time>2023-11-19T10:22:01Z</time>
      </trkpt>
      <trkpt lat="43.02282" lon="0.19163">
        <ele>1176.2</ele>
        <time>2023-11-19T10:22:02Z</time>
      </trkpt>
      <trkpt lat="43.02282" lon="0.19163">
        <ele>1176.2</ele>
        <time>2023-11-19T10:22:03Z</time>
      </trkpt>
      <trkpt lat="43.02278" lon="0.19163">
        <ele>1176.2</ele>
        <time>2023-11-19T10:22:04Z</time>
      </trkpt>
      <trkpt lat="43.02278" lon="0.19164">
        <ele>1176.2</ele>
        <time>2023-11-19T10:22:05Z</time>
      </trkpt>
      <trkpt lat="43.02278" lon="0.19164">
        <ele>1176.2</ele>
        <time>2023-11-19T10:22:06Z</time>
      </trkpt>
      <trkpt lat="43.02278" lon="0.19164">
        <ele>1176.2</ele>
        <time>2023-11-19T10:22:07Z</time>
      </trkpt>
      <trkpt lat="43.02277" lon="0.19165">
        <ele>1176.2</ele>
        <time>2023-11-19T10:22:08Z</time>
      </trkpt>
      <trkpt lat="43.02277" lon="0.19165">
        <ele>1176.2</ele>
        <time>2023-11-19T10:22:09Z</time>
      </trkpt>
      <trkpt lat="43.02277" lon="0.19165">
        <ele>1176.2</ele>
        <time>2023-11-19T10:22:10Z</time>
      </trkpt>
      <trkpt lat="43.02277" lon="0.19165">
        <ele>1176.2</ele>
        <time>2023-11-19T10:22:11Z</time>
      </trkpt>
      <trkpt lat="43.02277" lon="0.19165">
        <ele>1176.2</ele>
        <time>2023-11-19T10:22:12Z</time>
      </trkpt>
      <trkpt lat="43.02277" lon="0.19165">
        <ele>1176.2</ele>
        <time>2023-11-19T10:22:13Z</time>
      </trkpt>
      <trkpt lat="43.02277" lon="0.19165">
        <ele>1176.2</ele>
        <time>2023-11-19T10:22:14Z</time>
      </trkpt>
      <trkpt lat="43.02276" lon="0.19166">
        <ele>1176.2</ele>
        <time>2023-11-19T10:22:15Z</time>
      </trkpt>
      <trkpt lat="43.02276" lon="0.19166">
        <ele>1176.2</ele>
        <time>2023-11-19T10:22:16Z</time>
      </trkpt>
      <trkpt lat="43.02276" lon="0.19166">
        <ele>1176.2</ele>
        <time>2023-11-19T10:22:17Z</time>
      </trkpt>
      <trkpt lat="43.02276" lon="0.19166">
        <ele>1176.2</ele>
        <time>2023-11-19T10:22:18Z</time>
      </trkpt>
      <trkpt lat="43.02277" lon="0.19166">
        <ele>1176.2</ele>
        <time>2023-11-19T10:22:19Z</time>
      </trkpt>
      <trkpt lat="43.02277" lon="0.19166">
        <ele>1176.2</ele>
        <time>2023-11-19T10:22:20Z</time>
      </trkpt>
      <trkpt lat="43.02277" lon="0.19166">
        <ele>1176.2</ele>
        <time>2023-11-19T10:22:21Z</time>
      </trkpt>
      <trkpt lat="43.02277" lon="0.19166">
        <ele>1176.2</ele>
        <time>2023-11-19T10:22:22Z</time>
      </trkpt>
      <trkpt lat="43.02277" lon="0.19166">
        <ele>1176.2</ele>
        <time>2023-11-19T10:22:23Z</time>
      </trkpt>
      <trkpt lat="43.02279" lon="0.19165">
        <ele>1176.2</ele>
        <time>2023-11-19T10:22:24Z</time>
      </trkpt>
      <trkpt lat="43.02279" lon="0.19165">
        <ele>1176.2</ele>
        <time>2023-11-19T10:22:25Z</time>
      </trkpt>
      <trkpt lat="43.02279" lon="0.19165">
        <ele>1176.2</ele>
        <time>2023-11-19T10:22:26Z</time>
      </trkpt>
      <trkpt lat="43.02279" lon="0.19165">
        <ele>1176.2</ele>
        <time>2023-11-19T10:22:27Z</time>
      </trkpt>
      <trkpt lat="43.0228" lon="0.19164">
        <ele>1176.2</ele>
        <time>2023-11-19T10:22:28Z</time>
      </trkpt>
      <trkpt lat="43.02279" lon="0.19165">
        <ele>1176.2</ele>
        <time>2023-11-19T10:22:29Z</time>
      </trkpt>
      <trkpt lat="43.02279" lon="0.19165">
        <ele>1176.2</ele>
        <time>2023-11-19T10:22:30Z</time>
      </trkpt>
      <trkpt lat="43.0228" lon="0.19165">
        <ele>1176.2</ele>
        <time>2023-11-19T10:22:31Z</time>
      </trkpt>
      <trkpt lat="43.0228" lon="0.19165">
        <ele>1176.2</ele>
        <time>2023-11-19T10:22:32Z</time>
      </trkpt>
      <trkpt lat="43.0228" lon="0.19165">
        <ele>1176.2</ele>
        <time>2023-11-19T10:22:33Z</time>
      </trkpt>
      <trkpt lat="43.02281" lon="0.19165">
        <ele>1176.2</ele>
        <time>2023-11-19T10:22:34Z</time>
      </trkpt>
      <trkpt lat="43.02281" lon="0.19165">
        <ele>1176.2</ele>
        <time>2023-11-19T10:22:35Z</time>
      </trkpt>
      <trkpt lat="43.02281" lon="0.19165">
        <ele>1176.2</ele>
        <time>2023-11-19T10:22:36Z</time>
      </trkpt>
      <trkpt lat="43.02281" lon="0.19165">
        <ele>1176.2</ele>
        <time>2023-11-19T10:22:37Z</time>
      </trkpt>
      <trkpt lat="43.0228" lon="0.19165">
        <ele>1176.2</ele>
        <time>2023-11-19T10:22:38Z</time>
      </trkpt>
      <trkpt lat="43.02279" lon="0.19165">
        <ele>1176.2</ele>
        <time>2023-11-19T10:22:39Z</time>
      </trkpt>
      <trkpt lat="43.02279" lon="0.19165">
        <ele>1176.2</ele>
        <time>2023-11-19T10:22:40Z</time>
      </trkpt>
      <trkpt lat="43.02278" lon="0.19166">
        <ele>1176.3</ele>
        <time>2023-11-19T10:22:41Z</time>
      </trkpt>
      <trkpt lat="43.02277" lon="0.19166">
        <ele>1176.3</ele>
        <time>2023-11-19T10:22:42Z</time>
      </trkpt>
      <trkpt lat="43.02277" lon="0.19167">
        <ele>1176.3</ele>
        <time>2023-11-19T10:22:43Z</time>
      </trkpt>
      <trkpt lat="43.02276" lon="0.19168">
        <ele>1176.3</ele>
        <time>2023-11-19T10:22:44Z</time>
      </trkpt>
      <trkpt lat="43.02276" lon="0.19168">
        <ele>1176.3</ele>
        <time>2023-11-19T10:22:45Z</time>
      </trkpt>
      <trkpt lat="43.02276" lon="0.19168">
        <ele>1176.3</ele>
        <time>2023-11-19T10:22:46Z</time>
      </trkpt>
      <trkpt lat="43.02275" lon="0.19169">
        <ele>1176.3</ele>
        <time>2023-11-19T10:22:47Z</time>
      </trkpt>
      <trkpt lat="43.02275" lon="0.19169">
        <ele>1176.4</ele>
        <time>2023-11-19T10:22:48Z</time>
      </trkpt>
      <trkpt lat="43.02275" lon="0.1917">
        <ele>1176.4</ele>
        <time>2023-11-19T10:22:49Z</time>
      </trkpt>
      <trkpt lat="43.02275" lon="0.19171">
        <ele>1176.4</ele>
        <time>2023-11-19T10:22:50Z</time>
      </trkpt>
      <trkpt lat="43.02275" lon="0.19171">
        <ele>1176.4</ele>
        <time>2023-11-19T10:22:51Z</time>
      </trkpt>
      <trkpt lat="43.02275" lon="0.19172">
        <ele>1176.4</ele>
        <time>2023-11-19T10:22:52Z</time>
      </trkpt>
      <trkpt lat="43.02275" lon="0.19172">
        <ele>1176.4</ele>
        <time>2023-11-19T10:22:53Z</time>
      </trkpt>
      <trkpt lat="43.02274" lon="0.19172">
        <ele>1176.5</ele>
        <time>2023-11-19T10:22:54Z</time>
      </trkpt>
      <trkpt lat="43.02274" lon="0.19173">
        <ele>1176.5</ele>
        <time>2023-11-19T10:22:55Z</time>
      </trkpt>
      <trkpt lat="43.02274" lon="0.19173">
        <ele>1176.5</ele>
        <time>2023-11-19T10:22:56Z</time>
      </trkpt>
      <trkpt lat="43.02273" lon="0.19174">
        <ele>1176.5</ele>
        <time>2023-11-19T10:22:57Z</time>
      </trkpt>
      <trkpt lat="43.02272" lon="0.19173">
        <ele>1176.5</ele>
        <time>2023-11-19T10:22:58Z</time>
      </trkpt>
      <trkpt lat="43.02271" lon="0.19173">
        <ele>1177.8</ele>
        <time>2023-11-19T10:22:59Z</time>
      </trkpt>
      <trkpt lat="43.02271" lon="0.19173">
        <ele>1177.8</ele>
        <time>2023-11-19T10:23:00Z</time>
      </trkpt>
      <trkpt lat="43.02271" lon="0.19173">
        <ele>1177.8</ele>
        <time>2023-11-19T10:23:01Z</time>
      </trkpt>
      <trkpt lat="43.02271" lon="0.19172">
        <ele>1177.9</ele>
        <time>2023-11-19T10:23:02Z</time>
      </trkpt>
      <trkpt lat="43.02271" lon="0.19172">
        <ele>1177.9</ele>
        <time>2023-11-19T10:23:03Z</time>
      </trkpt>
      <trkpt lat="43.02271" lon="0.19172">
        <ele>1177.9</ele>
        <time>2023-11-19T10:23:04Z</time>
      </trkpt>
      <trkpt lat="43.0227" lon="0.19172">
        <ele>1177.9</ele>
        <time>2023-11-19T10:23:05Z</time>
      </trkpt>
      <trkpt lat="43.0227" lon="0.19172">
        <ele>1177.9</ele>
        <time>2023-11-19T10:23:06Z</time>
      </trkpt>
      <trkpt lat="43.02271" lon="0.19172">
        <ele>1177.9</ele>
        <time>2023-11-19T10:23:07Z</time>
      </trkpt>
      <trkpt lat="43.02271" lon="0.19171">
        <ele>1177.9</ele>
        <time>2023-11-19T10:23:08Z</time>
      </trkpt>
      <trkpt lat="43.0227" lon="0.19172">
        <ele>1177.9</ele>
        <time>2023-11-19T10:23:09Z</time>
      </trkpt>
      <trkpt lat="43.0227" lon="0.19172">
        <ele>1177.9</ele>
        <time>2023-11-19T10:23:10Z</time>
      </trkpt>
      <trkpt lat="43.0227" lon="0.19172">
        <ele>1177.9</ele>
        <time>2023-11-19T10:23:11Z</time>
      </trkpt>
      <trkpt lat="43.0227" lon="0.19172">
        <ele>1177.9</ele>
        <time>2023-11-19T10:23:12Z</time>
      </trkpt>
      <trkpt lat="43.0227" lon="0.19172">
        <ele>1177.9</ele>
        <time>2023-11-19T10:23:13Z</time>
      </trkpt>
      <trkpt lat="43.0227" lon="0.19172">
        <ele>1177.9</ele>
        <time>2023-11-19T10:23:14Z</time>
      </trkpt>
      <trkpt lat="43.0227" lon="0.19172">
        <ele>1177.9</ele>
        <time>2023-11-19T10:23:15Z</time>
      </trkpt>
      <trkpt lat="43.02271" lon="0.19172">
        <ele>1177.9</ele>
        <time>2023-11-19T10:23:16Z</time>
      </trkpt>
      <trkpt lat="43.02271" lon="0.19172">
        <ele>1177.9</ele>
        <time>2023-11-19T10:23:17Z</time>
      </trkpt>
      <trkpt lat="43.02271" lon="0.19172">
        <ele>1177.9</ele>
        <time>2023-11-19T10:23:18Z</time>
      </trkpt>
      <trkpt lat="43.02271" lon="0.19172">
        <ele>1177.9</ele>
        <time>2023-11-19T10:23:19Z</time>
      </trkpt>
      <trkpt lat="43.02271" lon="0.19172">
        <ele>1178</ele>
        <time>2023-11-19T10:23:20Z</time>
      </trkpt>
      <trkpt lat="43.0227" lon="0.19172">
        <ele>1178</ele>
        <time>2023-11-19T10:23:21Z</time>
      </trkpt>
      <trkpt lat="43.0227" lon="0.19173">
        <ele>1178</ele>
        <time>2023-11-19T10:23:22Z</time>
      </trkpt>
      <trkpt lat="43.02269" lon="0.19172">
        <ele>1179.2</ele>
        <time>2023-11-19T10:23:23Z</time>
      </trkpt>
      <trkpt lat="43.02268" lon="0.19172">
        <ele>1179.3</ele>
        <time>2023-11-19T10:23:24Z</time>
      </trkpt>
      <trkpt lat="43.02269" lon="0.19172">
        <ele>1179.3</ele>
        <time>2023-11-19T10:23:25Z</time>
      </trkpt>
      <trkpt lat="43.02269" lon="0.19172">
        <ele>1179.3</ele>
        <time>2023-11-19T10:23:26Z</time>
      </trkpt>
      <trkpt lat="43.02269" lon="0.1917">
        <ele>1179.3</ele>
        <time>2023-11-19T10:23:27Z</time>
      </trkpt>
      <trkpt lat="43.02267" lon="0.19169">
        <ele>1178.8</ele>
        <time>2023-11-19T10:23:28Z</time>
      </trkpt>
      <trkpt lat="43.02268" lon="0.19169">
        <ele>1178.8</ele>
        <time>2023-11-19T10:23:29Z</time>
      </trkpt>
      <trkpt lat="43.02267" lon="0.19169">
        <ele>1178.8</ele>
        <time>2023-11-19T10:23:30Z</time>
      </trkpt>
      <trkpt lat="43.02266" lon="0.19168">
        <ele>1178.8</ele>
        <time>2023-11-19T10:23:31Z</time>
      </trkpt>
      <trkpt lat="43.02266" lon="0.19167">
        <ele>1180</ele>
        <time>2023-11-19T10:23:32Z</time>
      </trkpt>
      <trkpt lat="43.02266" lon="0.19166">
        <ele>1179.5</ele>
        <time>2023-11-19T10:23:33Z</time>
      </trkpt>
      <trkpt lat="43.02266" lon="0.19166">
        <ele>1179.5</ele>
        <time>2023-11-19T10:23:34Z</time>
      </trkpt>
      <trkpt lat="43.02265" lon="0.19165">
        <ele>1179.5</ele>
        <time>2023-11-19T10:23:35Z</time>
      </trkpt>
      <trkpt lat="43.02264" lon="0.19165">
        <ele>1179.5</ele>
        <time>2023-11-19T10:23:36Z</time>
      </trkpt>
      <trkpt lat="43.02264" lon="0.19165">
        <ele>1179.5</ele>
        <time>2023-11-19T10:23:37Z</time>
      </trkpt>
      <trkpt lat="43.02264" lon="0.19165">
        <ele>1179.5</ele>
        <time>2023-11-19T10:23:38Z</time>
      </trkpt>
      <trkpt lat="43.02264" lon="0.19165">
        <ele>1179.5</ele>
        <time>2023-11-19T10:23:39Z</time>
      </trkpt>
      <trkpt lat="43.02265" lon="0.19166">
        <ele>1179.5</ele>
        <time>2023-11-19T10:23:40Z</time>
      </trkpt>
      <trkpt lat="43.02265" lon="0.19166">
        <ele>1180.1</ele>
        <time>2023-11-19T10:23:41Z</time>
      </trkpt>
      <trkpt lat="43.02265" lon="0.19167">
        <ele>1180.1</ele>
        <time>2023-11-19T10:23:42Z</time>
      </trkpt>
      <trkpt lat="43.02264" lon="0.19167">
        <ele>1180.1</ele>
        <time>2023-11-19T10:23:43Z</time>
      </trkpt>
      <trkpt lat="43.02264" lon="0.19166">
        <ele>1179.5</ele>
        <time>2023-11-19T10:23:44Z</time>
      </trkpt>
      <trkpt lat="43.02263" lon="0.19166">
        <ele>1179.5</ele>
        <time>2023-11-19T10:23:45Z</time>
      </trkpt>
      <trkpt lat="43.02263" lon="0.19166">
        <ele>1179.5</ele>
        <time>2023-11-19T10:23:46Z</time>
      </trkpt>
      <trkpt lat="43.02263" lon="0.19166">
        <ele>1180.1</ele>
        <time>2023-11-19T10:23:47Z</time>
      </trkpt>
      <trkpt lat="43.02263" lon="0.19168">
        <ele>1180.1</ele>
        <time>2023-11-19T10:23:48Z</time>
      </trkpt>
      <trkpt lat="43.02262" lon="0.19169">
        <ele>1181.2</ele>
        <time>2023-11-19T10:23:49Z</time>
      </trkpt>
      <trkpt lat="43.02262" lon="0.19168">
        <ele>1181.2</ele>
        <time>2023-11-19T10:23:50Z</time>
      </trkpt>
      <trkpt lat="43.02262" lon="0.19168">
        <ele>1181.2</ele>
        <time>2023-11-19T10:23:51Z</time>
      </trkpt>
      <trkpt lat="43.02262" lon="0.19168">
        <ele>1181.3</ele>
        <time>2023-11-19T10:23:52Z</time>
      </trkpt>
      <trkpt lat="43.02261" lon="0.19167">
        <ele>1181.3</ele>
        <time>2023-11-19T10:23:53Z</time>
      </trkpt>
      <trkpt lat="43.02261" lon="0.19167">
        <ele>1181.3</ele>
        <time>2023-11-19T10:23:54Z</time>
      </trkpt>
      <trkpt lat="43.02261" lon="0.19167">
        <ele>1181.3</ele>
        <time>2023-11-19T10:23:55Z</time>
      </trkpt>
      <trkpt lat="43.0226" lon="0.19168">
        <ele>1181.3</ele>
        <time>2023-11-19T10:23:56Z</time>
      </trkpt>
      <trkpt lat="43.02259" lon="0.19167">
        <ele>1182.4</ele>
        <time>2023-11-19T10:23:57Z</time>
      </trkpt>
      <trkpt lat="43.02259" lon="0.19167">
        <ele>1182.4</ele>
        <time>2023-11-19T10:23:58Z</time>
      </trkpt>
      <trkpt lat="43.02258" lon="0.19166">
        <ele>1181.8</ele>
        <time>2023-11-19T10:23:59Z</time>
      </trkpt>
      <trkpt lat="43.02257" lon="0.19166">
        <ele>1182.4</ele>
        <time>2023-11-19T10:24:00Z</time>
      </trkpt>
      <trkpt lat="43.02257" lon="0.19166">
        <ele>1181.9</ele>
        <time>2023-11-19T10:24:01Z</time>
      </trkpt>
      <trkpt lat="43.02257" lon="0.19166">
        <ele>1182.4</ele>
        <time>2023-11-19T10:24:02Z</time>
      </trkpt>
      <trkpt lat="43.02256" lon="0.19166">
        <ele>1183.6</ele>
        <time>2023-11-19T10:24:03Z</time>
      </trkpt>
      <trkpt lat="43.02256" lon="0.19166">
        <ele>1183</ele>
        <time>2023-11-19T10:24:04Z</time>
      </trkpt>
      <trkpt lat="43.02255" lon="0.19167">
        <ele>1183.6</ele>
        <time>2023-11-19T10:24:05Z</time>
      </trkpt>
      <trkpt lat="43.02254" lon="0.19168">
        <ele>1183.6</ele>
        <time>2023-11-19T10:24:06Z</time>
      </trkpt>
      <trkpt lat="43.02254" lon="0.19169">
        <ele>1183.6</ele>
        <time>2023-11-19T10:24:07Z</time>
      </trkpt>
      <trkpt lat="43.02253" lon="0.1917">
        <ele>1184.8</ele>
        <time>2023-11-19T10:24:08Z</time>
      </trkpt>
      <trkpt lat="43.02252" lon="0.1917">
        <ele>1184.8</ele>
        <time>2023-11-19T10:24:09Z</time>
      </trkpt>
      <trkpt lat="43.02252" lon="0.1917">
        <ele>1184.8</ele>
        <time>2023-11-19T10:24:10Z</time>
      </trkpt>
      <trkpt lat="43.02251" lon="0.19169">
        <ele>1184.8</ele>
        <time>2023-11-19T10:24:11Z</time>
      </trkpt>
      <trkpt lat="43.0225" lon="0.19171">
        <ele>1185.3</ele>
        <time>2023-11-19T10:24:12Z</time>
      </trkpt>
      <trkpt lat="43.0225" lon="0.19172">
        <ele>1186.6</ele>
        <time>2023-11-19T10:24:13Z</time>
      </trkpt>
      <trkpt lat="43.02251" lon="0.19171">
        <ele>1185.3</ele>
        <time>2023-11-19T10:24:14Z</time>
      </trkpt>
      <trkpt lat="43.02251" lon="0.19171">
        <ele>1185.3</ele>
        <time>2023-11-19T10:24:15Z</time>
      </trkpt>
      <trkpt lat="43.02251" lon="0.19171">
        <ele>1185.3</ele>
        <time>2023-11-19T10:24:16Z</time>
      </trkpt>
      <trkpt lat="43.02251" lon="0.19171">
        <ele>1185.3</ele>
        <time>2023-11-19T10:24:17Z</time>
      </trkpt>
      <trkpt lat="43.02251" lon="0.1917">
        <ele>1185.3</ele>
        <time>2023-11-19T10:24:18Z</time>
      </trkpt>
      <trkpt lat="43.0225" lon="0.19171">
        <ele>1185.3</ele>
        <time>2023-11-19T10:24:19Z</time>
      </trkpt>
      <trkpt lat="43.0225" lon="0.19171">
        <ele>1185.4</ele>
        <time>2023-11-19T10:24:20Z</time>
      </trkpt>
      <trkpt lat="43.0225" lon="0.19171">
        <ele>1185.4</ele>
        <time>2023-11-19T10:24:21Z</time>
      </trkpt>
      <trkpt lat="43.0225" lon="0.1917">
        <ele>1186.1</ele>
        <time>2023-11-19T10:24:22Z</time>
      </trkpt>
      <trkpt lat="43.02249" lon="0.19171">
        <ele>1186.6</ele>
        <time>2023-11-19T10:24:23Z</time>
      </trkpt>
      <trkpt lat="43.0225" lon="0.1917">
        <ele>1186.2</ele>
        <time>2023-11-19T10:24:24Z</time>
      </trkpt>
      <trkpt lat="43.0225" lon="0.1917">
        <ele>1186.2</ele>
        <time>2023-11-19T10:24:25Z</time>
      </trkpt>
      <trkpt lat="43.0225" lon="0.1917">
        <ele>1184.9</ele>
        <time>2023-11-19T10:24:26Z</time>
      </trkpt>
      <trkpt lat="43.02249" lon="0.1917">
        <ele>1186.2</ele>
        <time>2023-11-19T10:24:27Z</time>
      </trkpt>
      <trkpt lat="43.02248" lon="0.1917">
        <ele>1186.2</ele>
        <time>2023-11-19T10:24:28Z</time>
      </trkpt>
      <trkpt lat="43.02248" lon="0.19169">
        <ele>1186.2</ele>
        <time>2023-11-19T10:24:29Z</time>
      </trkpt>
      <trkpt lat="43.02248" lon="0.1917">
        <ele>1186.2</ele>
        <time>2023-11-19T10:24:30Z</time>
      </trkpt>
      <trkpt lat="43.02248" lon="0.19169">
        <ele>1186.2</ele>
        <time>2023-11-19T10:24:31Z</time>
      </trkpt>
      <trkpt lat="43.02249" lon="0.1917">
        <ele>1186.2</ele>
        <time>2023-11-19T10:24:32Z</time>
      </trkpt>
      <trkpt lat="43.02247" lon="0.19169">
        <ele>1186.2</ele>
        <time>2023-11-19T10:24:33Z</time>
      </trkpt>
      <trkpt lat="43.02248" lon="0.19169">
        <ele>1186.2</ele>
        <time>2023-11-19T10:24:34Z</time>
      </trkpt>
      <trkpt lat="43.02247" lon="0.1917">
        <ele>1186.2</ele>
        <time>2023-11-19T10:24:35Z</time>
      </trkpt>
      <trkpt lat="43.02247" lon="0.1917">
        <ele>1186.2</ele>
        <time>2023-11-19T10:24:36Z</time>
      </trkpt>
      <trkpt lat="43.02247" lon="0.1917">
        <ele>1186.2</ele>
        <time>2023-11-19T10:24:37Z</time>
      </trkpt>
      <trkpt lat="43.02247" lon="0.1917">
        <ele>1187.5</ele>
        <time>2023-11-19T10:24:38Z</time>
      </trkpt>
      <trkpt lat="43.02248" lon="0.1917">
        <ele>1186.2</ele>
        <time>2023-11-19T10:24:39Z</time>
      </trkpt>
      <trkpt lat="43.02248" lon="0.19169">
        <ele>1186.2</ele>
        <time>2023-11-19T10:24:40Z</time>
      </trkpt>
      <trkpt lat="43.02247" lon="0.19169">
        <ele>1187.6</ele>
        <time>2023-11-19T10:24:41Z</time>
      </trkpt>
      <trkpt lat="43.02246" lon="0.19169">
        <ele>1187.6</ele>
        <time>2023-11-19T10:24:42Z</time>
      </trkpt>
      <trkpt lat="43.02246" lon="0.19168">
        <ele>1187.6</ele>
        <time>2023-11-19T10:24:43Z</time>
      </trkpt>
      <trkpt lat="43.02247" lon="0.19168">
        <ele>1187.6</ele>
        <time>2023-11-19T10:24:44Z</time>
      </trkpt>
      <trkpt lat="43.02246" lon="0.19167">
        <ele>1187.6</ele>
        <time>2023-11-19T10:24:45Z</time>
      </trkpt>
      <trkpt lat="43.02248" lon="0.19169">
        <ele>1186.3</ele>
        <time>2023-11-19T10:24:46Z</time>
      </trkpt>
      <trkpt lat="43.02244" lon="0.19167">
        <ele>1187.6</ele>
        <time>2023-11-19T10:24:47Z</time>
      </trkpt>
      <trkpt lat="43.02244" lon="0.19166">
        <ele>1188.9</ele>
        <time>2023-11-19T10:24:48Z</time>
      </trkpt>
      <trkpt lat="43.02244" lon="0.19166">
        <ele>1188.9</ele>
        <time>2023-11-19T10:24:49Z</time>
      </trkpt>
      <trkpt lat="43.02243" lon="0.19166">
        <ele>1188.3</ele>
        <time>2023-11-19T10:24:50Z</time>
      </trkpt>
      <trkpt lat="43.02242" lon="0.19165">
        <ele>1188.3</ele>
        <time>2023-11-19T10:24:51Z</time>
      </trkpt>
      <trkpt lat="43.02243" lon="0.19164">
        <ele>1188.3</ele>
        <time>2023-11-19T10:24:52Z</time>
      </trkpt>
      <trkpt lat="43.02242" lon="0.19163">
        <ele>1188.3</ele>
        <time>2023-11-19T10:24:53Z</time>
      </trkpt>
      <trkpt lat="43.02242" lon="0.19164">
        <ele>1188.3</ele>
        <time>2023-11-19T10:24:54Z</time>
      </trkpt>
      <trkpt lat="43.02242" lon="0.19162">
        <ele>1188.3</ele>
        <time>2023-11-19T10:24:55Z</time>
      </trkpt>
      <trkpt lat="43.02241" lon="0.19162">
        <ele>1188.4</ele>
        <time>2023-11-19T10:24:56Z</time>
      </trkpt>
      <trkpt lat="43.02241" lon="0.19162">
        <ele>1188.4</ele>
        <time>2023-11-19T10:24:57Z</time>
      </trkpt>
      <trkpt lat="43.0224" lon="0.19163">
        <ele>1189.6</ele>
        <time>2023-11-19T10:24:58Z</time>
      </trkpt>
      <trkpt lat="43.02239" lon="0.19164">
        <ele>1189.6</ele>
        <time>2023-11-19T10:24:59Z</time>
      </trkpt>
      <trkpt lat="43.02239" lon="0.19165">
        <ele>1189.6</ele>
        <time>2023-11-19T10:25:00Z</time>
      </trkpt>
      <trkpt lat="43.02239" lon="0.19164">
        <ele>1189.6</ele>
        <time>2023-11-19T10:25:01Z</time>
      </trkpt>
      <trkpt lat="43.02238" lon="0.19163">
        <ele>1190.7</ele>
        <time>2023-11-19T10:25:02Z</time>
      </trkpt>
      <trkpt lat="43.02237" lon="0.19163">
        <ele>1190.7</ele>
        <time>2023-11-19T10:25:03Z</time>
      </trkpt>
      <trkpt lat="43.02237" lon="0.19164">
        <ele>1190.7</ele>
        <time>2023-11-19T10:25:04Z</time>
      </trkpt>
      <trkpt lat="43.02237" lon="0.19164">
        <ele>1190.7</ele>
        <time>2023-11-19T10:25:05Z</time>
      </trkpt>
      <trkpt lat="43.02236" lon="0.19164">
        <ele>1190.7</ele>
        <time>2023-11-19T10:25:06Z</time>
      </trkpt>
      <trkpt lat="43.02237" lon="0.19165">
        <ele>1190.7</ele>
        <time>2023-11-19T10:25:07Z</time>
      </trkpt>
      <trkpt lat="43.02238" lon="0.19165">
        <ele>1189.6</ele>
        <time>2023-11-19T10:25:08Z</time>
      </trkpt>
      <trkpt lat="43.02238" lon="0.19165">
        <ele>1189.6</ele>
        <time>2023-11-19T10:25:09Z</time>
      </trkpt>
      <trkpt lat="43.02237" lon="0.19166">
        <ele>1190.7</ele>
        <time>2023-11-19T10:25:10Z</time>
      </trkpt>
      <trkpt lat="43.02236" lon="0.19166">
        <ele>1190.7</ele>
        <time>2023-11-19T10:25:11Z</time>
      </trkpt>
      <trkpt lat="43.02235" lon="0.19167">
        <ele>1191.3</ele>
        <time>2023-11-19T10:25:12Z</time>
      </trkpt>
      <trkpt lat="43.02235" lon="0.19168">
        <ele>1191.3</ele>
        <time>2023-11-19T10:25:13Z</time>
      </trkpt>
      <trkpt lat="43.02235" lon="0.19169">
        <ele>1192.4</ele>
        <time>2023-11-19T10:25:14Z</time>
      </trkpt>
      <trkpt lat="43.02234" lon="0.19169">
        <ele>1192.4</ele>
        <time>2023-11-19T10:25:15Z</time>
      </trkpt>
      <trkpt lat="43.02234" lon="0.1917">
        <ele>1192.4</ele>
        <time>2023-11-19T10:25:16Z</time>
      </trkpt>
      <trkpt lat="43.02234" lon="0.1917">
        <ele>1192.4</ele>
        <time>2023-11-19T10:25:17Z</time>
      </trkpt>
      <trkpt lat="43.02234" lon="0.1917">
        <ele>1192.4</ele>
        <time>2023-11-19T10:25:18Z</time>
      </trkpt>
      <trkpt lat="43.02234" lon="0.1917">
        <ele>1192.4</ele>
        <time>2023-11-19T10:25:19Z</time>
      </trkpt>
      <trkpt lat="43.02235" lon="0.1917">
        <ele>1191.3</ele>
        <time>2023-11-19T10:25:20Z</time>
      </trkpt>
      <trkpt lat="43.02235" lon="0.1917">
        <ele>1191.3</ele>
        <time>2023-11-19T10:25:21Z</time>
      </trkpt>
      <trkpt lat="43.02233" lon="0.1917">
        <ele>1192.4</ele>
        <time>2023-11-19T10:25:22Z</time>
      </trkpt>
      <trkpt lat="43.02232" lon="0.1917">
        <ele>1192.4</ele>
        <time>2023-11-19T10:25:23Z</time>
      </trkpt>
      <trkpt lat="43.02232" lon="0.19169">
        <ele>1192.4</ele>
        <time>2023-11-19T10:25:24Z</time>
      </trkpt>
      <trkpt lat="43.02232" lon="0.19169">
        <ele>1192.4</ele>
        <time>2023-11-19T10:25:25Z</time>
      </trkpt>
      <trkpt lat="43.02232" lon="0.19168">
        <ele>1192.4</ele>
        <time>2023-11-19T10:25:26Z</time>
      </trkpt>
      <trkpt lat="43.02231" lon="0.19169">
        <ele>1192.4</ele>
        <time>2023-11-19T10:25:27Z</time>
      </trkpt>
      <trkpt lat="43.02233" lon="0.19169">
        <ele>1192.4</ele>
        <time>2023-11-19T10:25:28Z</time>
      </trkpt>
      <trkpt lat="43.02231" lon="0.19169">
        <ele>1193.6</ele>
        <time>2023-11-19T10:25:29Z</time>
      </trkpt>
      <trkpt lat="43.02232" lon="0.19168">
        <ele>1192.5</ele>
        <time>2023-11-19T10:25:30Z</time>
      </trkpt>
      <trkpt lat="43.02232" lon="0.19167">
        <ele>1192.5</ele>
        <time>2023-11-19T10:25:31Z</time>
      </trkpt>
      <trkpt lat="43.02232" lon="0.19167">
        <ele>1192.5</ele>
        <time>2023-11-19T10:25:32Z</time>
      </trkpt>
      <trkpt lat="43.02232" lon="0.19166">
        <ele>1192.5</ele>
        <time>2023-11-19T10:25:33Z</time>
      </trkpt>
      <trkpt lat="43.02232" lon="0.19166">
        <ele>1192.5</ele>
        <time>2023-11-19T10:25:34Z</time>
      </trkpt>
      <trkpt lat="43.02231" lon="0.19166">
        <ele>1193.6</ele>
        <time>2023-11-19T10:25:35Z</time>
      </trkpt>
      <trkpt lat="43.02231" lon="0.19166">
        <ele>1193.1</ele>
        <time>2023-11-19T10:25:36Z</time>
      </trkpt>
      <trkpt lat="43.02231" lon="0.19166">
        <ele>1193.1</ele>
        <time>2023-11-19T10:25:37Z</time>
      </trkpt>
      <trkpt lat="43.02231" lon="0.19165">
        <ele>1193.1</ele>
        <time>2023-11-19T10:25:38Z</time>
      </trkpt>
      <trkpt lat="43.0223" lon="0.19166">
        <ele>1193.1</ele>
        <time>2023-11-19T10:25:39Z</time>
      </trkpt>
      <trkpt lat="43.0223" lon="0.19166">
        <ele>1193.6</ele>
        <time>2023-11-19T10:25:40Z</time>
      </trkpt>
      <trkpt lat="43.0223" lon="0.19167">
        <ele>1193.6</ele>
        <time>2023-11-19T10:25:41Z</time>
      </trkpt>
      <trkpt lat="43.0223" lon="0.19167">
        <ele>1193.6</ele>
        <time>2023-11-19T10:25:42Z</time>
      </trkpt>
      <trkpt lat="43.02229" lon="0.19167">
        <ele>1193.6</ele>
        <time>2023-11-19T10:25:43Z</time>
      </trkpt>
      <trkpt lat="43.02229" lon="0.19168">
        <ele>1193.6</ele>
        <time>2023-11-19T10:25:44Z</time>
      </trkpt>
      <trkpt lat="43.02229" lon="0.19168">
        <ele>1193.6</ele>
        <time>2023-11-19T10:25:45Z</time>
      </trkpt>
      <trkpt lat="43.02229" lon="0.19168">
        <ele>1193.6</ele>
        <time>2023-11-19T10:25:46Z</time>
      </trkpt>
      <trkpt lat="43.02228" lon="0.19169">
        <ele>1194.9</ele>
        <time>2023-11-19T10:25:47Z</time>
      </trkpt>
      <trkpt lat="43.02228" lon="0.19169">
        <ele>1194.9</ele>
        <time>2023-11-19T10:25:48Z</time>
      </trkpt>
      <trkpt lat="43.02228" lon="0.1917">
        <ele>1193.7</ele>
        <time>2023-11-19T10:25:49Z</time>
      </trkpt>
      <trkpt lat="43.02228" lon="0.1917">
        <ele>1194.9</ele>
        <time>2023-11-19T10:25:50Z</time>
      </trkpt>
      <trkpt lat="43.02228" lon="0.1917">
        <ele>1194.9</ele>
        <time>2023-11-19T10:25:51Z</time>
      </trkpt>
      <trkpt lat="43.02228" lon="0.1917">
        <ele>1195.4</ele>
        <time>2023-11-19T10:25:52Z</time>
      </trkpt>
      <trkpt lat="43.02228" lon="0.19171">
        <ele>1195.4</ele>
        <time>2023-11-19T10:25:53Z</time>
      </trkpt>
      <trkpt lat="43.02227" lon="0.19171">
        <ele>1195.4</ele>
        <time>2023-11-19T10:25:54Z</time>
      </trkpt>
      <trkpt lat="43.02227" lon="0.19171">
        <ele>1195.4</ele>
        <time>2023-11-19T10:25:55Z</time>
      </trkpt>
      <trkpt lat="43.02227" lon="0.19171">
        <ele>1195.4</ele>
        <time>2023-11-19T10:25:56Z</time>
      </trkpt>
      <trkpt lat="43.02227" lon="0.19171">
        <ele>1195.4</ele>
        <time>2023-11-19T10:25:57Z</time>
      </trkpt>
      <trkpt lat="43.02226" lon="0.19171">
        <ele>1195.4</ele>
        <time>2023-11-19T10:25:58Z</time>
      </trkpt>
      <trkpt lat="43.02226" lon="0.19172">
        <ele>1195.4</ele>
        <time>2023-11-19T10:25:59Z</time>
      </trkpt>
      <trkpt lat="43.02226" lon="0.19172">
        <ele>1195.4</ele>
        <time>2023-11-19T10:26:00Z</time>
      </trkpt>
      <trkpt lat="43.02226" lon="0.19172">
        <ele>1195.4</ele>
        <time>2023-11-19T10:26:01Z</time>
      </trkpt>
      <trkpt lat="43.02226" lon="0.19172">
        <ele>1195.4</ele>
        <time>2023-11-19T10:26:02Z</time>
      </trkpt>
      <trkpt lat="43.02225" lon="0.19172">
        <ele>1195.4</ele>
        <time>2023-11-19T10:26:03Z</time>
      </trkpt>
      <trkpt lat="43.02225" lon="0.19172">
        <ele>1195.4</ele>
        <time>2023-11-19T10:26:04Z</time>
      </trkpt>
      <trkpt lat="43.02226" lon="0.19171">
        <ele>1195.4</ele>
        <time>2023-11-19T10:26:05Z</time>
      </trkpt>
      <trkpt lat="43.02226" lon="0.19171">
        <ele>1195.4</ele>
        <time>2023-11-19T10:26:06Z</time>
      </trkpt>
      <trkpt lat="43.02225" lon="0.19171">
        <ele>1195.4</ele>
        <time>2023-11-19T10:26:07Z</time>
      </trkpt>
      <trkpt lat="43.02224" lon="0.19171">
        <ele>1196.8</ele>
        <time>2023-11-19T10:26:08Z</time>
      </trkpt>
      <trkpt lat="43.02223" lon="0.19169">
        <ele>1196.4</ele>
        <time>2023-11-19T10:26:09Z</time>
      </trkpt>
      <trkpt lat="43.02223" lon="0.19169">
        <ele>1196.4</ele>
        <time>2023-11-19T10:26:10Z</time>
      </trkpt>
      <trkpt lat="43.02222" lon="0.19169">
        <ele>1196.4</ele>
        <time>2023-11-19T10:26:11Z</time>
      </trkpt>
      <trkpt lat="43.02222" lon="0.19169">
        <ele>1197.8</ele>
        <time>2023-11-19T10:26:12Z</time>
      </trkpt>
      <trkpt lat="43.02221" lon="0.19169">
        <ele>1197.8</ele>
        <time>2023-11-19T10:26:13Z</time>
      </trkpt>
      <trkpt lat="43.02221" lon="0.19169">
        <ele>1197.8</ele>
        <time>2023-11-19T10:26:14Z</time>
      </trkpt>
      <trkpt lat="43.0222" lon="0.19169">
        <ele>1197.8</ele>
        <time>2023-11-19T10:26:15Z</time>
      </trkpt>
      <trkpt lat="43.0222" lon="0.19169">
        <ele>1197.8</ele>
        <time>2023-11-19T10:26:16Z</time>
      </trkpt>
      <trkpt lat="43.02219" lon="0.19169">
        <ele>1197.8</ele>
        <time>2023-11-19T10:26:17Z</time>
      </trkpt>
      <trkpt lat="43.02219" lon="0.19169">
        <ele>1199.2</ele>
        <time>2023-11-19T10:26:18Z</time>
      </trkpt>
      <trkpt lat="43.02218" lon="0.19169">
        <ele>1199.2</ele>
        <time>2023-11-19T10:26:19Z</time>
      </trkpt>
      <trkpt lat="43.02218" lon="0.19167">
        <ele>1199.2</ele>
        <time>2023-11-19T10:26:20Z</time>
      </trkpt>
      <trkpt lat="43.02217" lon="0.19166">
        <ele>1198.8</ele>
        <time>2023-11-19T10:26:21Z</time>
      </trkpt>
      <trkpt lat="43.02217" lon="0.19165">
        <ele>1198.8</ele>
        <time>2023-11-19T10:26:22Z</time>
      </trkpt>
      <trkpt lat="43.02217" lon="0.19165">
        <ele>1198.8</ele>
        <time>2023-11-19T10:26:23Z</time>
      </trkpt>
      <trkpt lat="43.02217" lon="0.19166">
        <ele>1198.8</ele>
        <time>2023-11-19T10:26:24Z</time>
      </trkpt>
      <trkpt lat="43.02217" lon="0.19166">
        <ele>1199.3</ele>
        <time>2023-11-19T10:26:25Z</time>
      </trkpt>
      <trkpt lat="43.02216" lon="0.19167">
        <ele>1199.3</ele>
        <time>2023-11-19T10:26:27Z</time>
      </trkpt>
      <trkpt lat="43.02217" lon="0.19168">
        <ele>1199.3</ele>
        <time>2023-11-19T10:26:28Z</time>
      </trkpt>
      <trkpt lat="43.02216" lon="0.19168">
        <ele>1199.3</ele>
        <time>2023-11-19T10:26:30Z</time>
      </trkpt>
      <trkpt lat="43.02217" lon="0.19168">
        <ele>1199.3</ele>
        <time>2023-11-19T10:26:31Z</time>
      </trkpt>
      <trkpt lat="43.02213" lon="0.19168">
        <ele>1200.6</ele>
        <time>2023-11-19T10:26:33Z</time>
      </trkpt>
      <trkpt lat="43.02213" lon="0.19168">
        <ele>1200.6</ele>
        <time>2023-11-19T10:26:34Z</time>
      </trkpt>
      <trkpt lat="43.02212" lon="0.19168">
        <ele>1201.8</ele>
        <time>2023-11-19T10:26:35Z</time>
      </trkpt>
      <trkpt lat="43.02211" lon="0.19168">
        <ele>1201.8</ele>
        <time>2023-11-19T10:26:36Z</time>
      </trkpt>
      <trkpt lat="43.02211" lon="0.1917">
        <ele>1201.8</ele>
        <time>2023-11-19T10:26:37Z</time>
      </trkpt>
      <trkpt lat="43.02211" lon="0.1917">
        <ele>1201.8</ele>
        <time>2023-11-19T10:26:38Z</time>
      </trkpt>
      <trkpt lat="43.02212" lon="0.19171">
        <ele>1202.3</ele>
        <time>2023-11-19T10:26:39Z</time>
      </trkpt>
      <trkpt lat="43.02211" lon="0.19172">
        <ele>1202.3</ele>
        <time>2023-11-19T10:26:40Z</time>
      </trkpt>
      <trkpt lat="43.02211" lon="0.1917">
        <ele>1202.3</ele>
        <time>2023-11-19T10:26:41Z</time>
      </trkpt>
      <trkpt lat="43.02212" lon="0.19172">
        <ele>1202.3</ele>
        <time>2023-11-19T10:26:42Z</time>
      </trkpt>
      <trkpt lat="43.02212" lon="0.19171">
        <ele>1202.3</ele>
        <time>2023-11-19T10:26:43Z</time>
      </trkpt>
      <trkpt lat="43.02212" lon="0.19172">
        <ele>1202.3</ele>
        <time>2023-11-19T10:26:44Z</time>
      </trkpt>
      <trkpt lat="43.02212" lon="0.19173">
        <ele>1202.3</ele>
        <time>2023-11-19T10:26:45Z</time>
      </trkpt>
      <trkpt lat="43.02212" lon="0.19174">
        <ele>1202.3</ele>
        <time>2023-11-19T10:26:46Z</time>
      </trkpt>
      <trkpt lat="43.02212" lon="0.19175">
        <ele>1202.7</ele>
        <time>2023-11-19T10:26:47Z</time>
      </trkpt>
      <trkpt lat="43.02212" lon="0.19175">
        <ele>1202.7</ele>
        <time>2023-11-19T10:26:48Z</time>
      </trkpt>
      <trkpt lat="43.02211" lon="0.19176">
        <ele>1202.7</ele>
        <time>2023-11-19T10:26:49Z</time>
      </trkpt>
      <trkpt lat="43.02211" lon="0.19176">
        <ele>1202.7</ele>
        <time>2023-11-19T10:26:50Z</time>
      </trkpt>
      <trkpt lat="43.02211" lon="0.19177">
        <ele>1202.7</ele>
        <time>2023-11-19T10:26:51Z</time>
      </trkpt>
      <trkpt lat="43.02211" lon="0.19178">
        <ele>1202.7</ele>
        <time>2023-11-19T10:26:52Z</time>
      </trkpt>
      <trkpt lat="43.02211" lon="0.19178">
        <ele>1202.7</ele>
        <time>2023-11-19T10:26:53Z</time>
      </trkpt>
      <trkpt lat="43.02211" lon="0.19179">
        <ele>1202.7</ele>
        <time>2023-11-19T10:26:54Z</time>
      </trkpt>
      <trkpt lat="43.02211" lon="0.19179">
        <ele>1203.1</ele>
        <time>2023-11-19T10:26:55Z</time>
      </trkpt>
      <trkpt lat="43.02211" lon="0.1918">
        <ele>1203.1</ele>
        <time>2023-11-19T10:26:56Z</time>
      </trkpt>
      <trkpt lat="43.02211" lon="0.19181">
        <ele>1203.1</ele>
        <time>2023-11-19T10:26:57Z</time>
      </trkpt>
      <trkpt lat="43.02211" lon="0.19181">
        <ele>1203.1</ele>
        <time>2023-11-19T10:26:58Z</time>
      </trkpt>
      <trkpt lat="43.02212" lon="0.19181">
        <ele>1203.1</ele>
        <time>2023-11-19T10:26:59Z</time>
      </trkpt>
      <trkpt lat="43.02212" lon="0.1918">
        <ele>1203.1</ele>
        <time>2023-11-19T10:27:00Z</time>
      </trkpt>
      <trkpt lat="43.02212" lon="0.1918">
        <ele>1203.1</ele>
        <time>2023-11-19T10:27:01Z</time>
      </trkpt>
      <trkpt lat="43.0221" lon="0.19178">
        <ele>1202.8</ele>
        <time>2023-11-19T10:27:02Z</time>
      </trkpt>
      <trkpt lat="43.0221" lon="0.1918">
        <ele>1203.1</ele>
        <time>2023-11-19T10:27:03Z</time>
      </trkpt>
      <trkpt lat="43.02209" lon="0.19181">
        <ele>1204.3</ele>
        <time>2023-11-19T10:27:04Z</time>
      </trkpt>
      <trkpt lat="43.02209" lon="0.19181">
        <ele>1204.3</ele>
        <time>2023-11-19T10:27:05Z</time>
      </trkpt>
      <trkpt lat="43.0221" lon="0.19181">
        <ele>1203.1</ele>
        <time>2023-11-19T10:27:06Z</time>
      </trkpt>
      <trkpt lat="43.02209" lon="0.19182">
        <ele>1204.3</ele>
        <time>2023-11-19T10:27:07Z</time>
      </trkpt>
      <trkpt lat="43.02206" lon="0.19182">
        <ele>1205.5</ele>
        <time>2023-11-19T10:27:08Z</time>
      </trkpt>
      <trkpt lat="43.02207" lon="0.19181">
        <ele>1204.3</ele>
        <time>2023-11-19T10:27:09Z</time>
      </trkpt>
      <trkpt lat="43.02207" lon="0.1918">
        <ele>1204.3</ele>
        <time>2023-11-19T10:27:10Z</time>
      </trkpt>
      <trkpt lat="43.02205" lon="0.19179">
        <ele>1205.5</ele>
        <time>2023-11-19T10:27:11Z</time>
      </trkpt>
      <trkpt lat="43.02205" lon="0.19179">
        <ele>1205.5</ele>
        <time>2023-11-19T10:27:12Z</time>
      </trkpt>
      <trkpt lat="43.02205" lon="0.19178">
        <ele>1205.2</ele>
        <time>2023-11-19T10:27:13Z</time>
      </trkpt>
      <trkpt lat="43.02206" lon="0.19179">
        <ele>1205.5</ele>
        <time>2023-11-19T10:27:14Z</time>
      </trkpt>
      <trkpt lat="43.02206" lon="0.19179">
        <ele>1205.2</ele>
        <time>2023-11-19T10:27:15Z</time>
      </trkpt>
      <trkpt lat="43.02206" lon="0.19179">
        <ele>1205.2</ele>
        <time>2023-11-19T10:27:16Z</time>
      </trkpt>
      <trkpt lat="43.02205" lon="0.19179">
        <ele>1205.2</ele>
        <time>2023-11-19T10:27:17Z</time>
      </trkpt>
      <trkpt lat="43.02205" lon="0.19178">
        <ele>1205.2</ele>
        <time>2023-11-19T10:27:18Z</time>
      </trkpt>
      <trkpt lat="43.02204" lon="0.19178">
        <ele>1205.2</ele>
        <time>2023-11-19T10:27:19Z</time>
      </trkpt>
      <trkpt lat="43.02204" lon="0.19178">
        <ele>1205.2</ele>
        <time>2023-11-19T10:27:20Z</time>
      </trkpt>
      <trkpt lat="43.02204" lon="0.19179">
        <ele>1205.2</ele>
        <time>2023-11-19T10:27:21Z</time>
      </trkpt>
      <trkpt lat="43.02204" lon="0.19179">
        <ele>1205.5</ele>
        <time>2023-11-19T10:27:22Z</time>
      </trkpt>
      <trkpt lat="43.02204" lon="0.19179">
        <ele>1205.2</ele>
        <time>2023-11-19T10:27:23Z</time>
      </trkpt>
      <trkpt lat="43.02203" lon="0.19179">
        <ele>1205.2</ele>
        <time>2023-11-19T10:27:24Z</time>
      </trkpt>
      <trkpt lat="43.02203" lon="0.19178">
        <ele>1206.5</ele>
        <time>2023-11-19T10:27:25Z</time>
      </trkpt>
      <trkpt lat="43.02203" lon="0.19178">
        <ele>1206.5</ele>
        <time>2023-11-19T10:27:26Z</time>
      </trkpt>
      <trkpt lat="43.02203" lon="0.19178">
        <ele>1205.2</ele>
        <time>2023-11-19T10:27:27Z</time>
      </trkpt>
      <trkpt lat="43.02204" lon="0.19178">
        <ele>1205.2</ele>
        <time>2023-11-19T10:27:28Z</time>
      </trkpt>
      <trkpt lat="43.02203" lon="0.19178">
        <ele>1206.5</ele>
        <time>2023-11-19T10:27:29Z</time>
      </trkpt>
      <trkpt lat="43.02202" lon="0.19177">
        <ele>1206.5</ele>
        <time>2023-11-19T10:27:30Z</time>
      </trkpt>
      <trkpt lat="43.02203" lon="0.19177">
        <ele>1206.5</ele>
        <time>2023-11-19T10:27:31Z</time>
      </trkpt>
      <trkpt lat="43.02204" lon="0.19176">
        <ele>1205.3</ele>
        <time>2023-11-19T10:27:32Z</time>
      </trkpt>
      <trkpt lat="43.02201" lon="0.19175">
        <ele>1206.5</ele>
        <time>2023-11-19T10:27:33Z</time>
      </trkpt>
      <trkpt lat="43.02199" lon="0.19177">
        <ele>1207.9</ele>
        <time>2023-11-19T10:27:34Z</time>
      </trkpt>
      <trkpt lat="43.02198" lon="0.19178">
        <ele>1207.9</ele>
        <time>2023-11-19T10:27:35Z</time>
      </trkpt>
      <trkpt lat="43.02198" lon="0.19179">
        <ele>1208.3</ele>
        <time>2023-11-19T10:27:36Z</time>
      </trkpt>
      <trkpt lat="43.02198" lon="0.19179">
        <ele>1208.3</ele>
        <time>2023-11-19T10:27:37Z</time>
      </trkpt>
      <trkpt lat="43.02198" lon="0.19181">
        <ele>1208.3</ele>
        <time>2023-11-19T10:27:38Z</time>
      </trkpt>
      <trkpt lat="43.02197" lon="0.19181">
        <ele>1209.7</ele>
        <time>2023-11-19T10:27:39Z</time>
      </trkpt>
      <trkpt lat="43.02197" lon="0.1918">
        <ele>1209.7</ele>
        <time>2023-11-19T10:27:40Z</time>
      </trkpt>
      <trkpt lat="43.02196" lon="0.19178">
        <ele>1209.4</ele>
        <time>2023-11-19T10:27:41Z</time>
      </trkpt>
      <trkpt lat="43.02195" lon="0.19181">
        <ele>1209.8</ele>
        <time>2023-11-19T10:27:42Z</time>
      </trkpt>
      <trkpt lat="43.02195" lon="0.19183">
        <ele>1209.8</ele>
        <time>2023-11-19T10:27:43Z</time>
      </trkpt>
      <trkpt lat="43.02194" lon="0.19182">
        <ele>1209.8</ele>
        <time>2023-11-19T10:27:44Z</time>
      </trkpt>
      <trkpt lat="43.02193" lon="0.19183">
        <ele>1211.2</ele>
        <time>2023-11-19T10:27:45Z</time>
      </trkpt>
      <trkpt lat="43.02192" lon="0.19183">
        <ele>1211.2</ele>
        <time>2023-11-19T10:27:46Z</time>
      </trkpt>
      <trkpt lat="43.02192" lon="0.19183">
        <ele>1211.2</ele>
        <time>2023-11-19T10:27:47Z</time>
      </trkpt>
      <trkpt lat="43.02193" lon="0.19183">
        <ele>1211.2</ele>
        <time>2023-11-19T10:27:48Z</time>
      </trkpt>
      <trkpt lat="43.02192" lon="0.19182">
        <ele>1211.2</ele>
        <time>2023-11-19T10:27:49Z</time>
      </trkpt>
      <trkpt lat="43.02192" lon="0.19182">
        <ele>1211.3</ele>
        <time>2023-11-19T10:27:50Z</time>
      </trkpt>
      <trkpt lat="43.02192" lon="0.19182">
        <ele>1211.3</ele>
        <time>2023-11-19T10:27:51Z</time>
      </trkpt>
      <trkpt lat="43.02192" lon="0.19181">
        <ele>1211.3</ele>
        <time>2023-11-19T10:27:52Z</time>
      </trkpt>
      <trkpt lat="43.02191" lon="0.19181">
        <ele>1212.6</ele>
        <time>2023-11-19T10:27:53Z</time>
      </trkpt>
      <trkpt lat="43.0219" lon="0.19181">
        <ele>1212.7</ele>
        <time>2023-11-19T10:27:54Z</time>
      </trkpt>
      <trkpt lat="43.02189" lon="0.19181">
        <ele>1212.7</ele>
        <time>2023-11-19T10:27:55Z</time>
      </trkpt>
      <trkpt lat="43.02189" lon="0.19181">
        <ele>1212.7</ele>
        <time>2023-11-19T10:27:56Z</time>
      </trkpt>
      <trkpt lat="43.02188" lon="0.1918">
        <ele>1212.7</ele>
        <time>2023-11-19T10:27:57Z</time>
      </trkpt>
      <trkpt lat="43.02189" lon="0.1918">
        <ele>1212.7</ele>
        <time>2023-11-19T10:27:58Z</time>
      </trkpt>
      <trkpt lat="43.02189" lon="0.19179">
        <ele>1212.7</ele>
        <time>2023-11-19T10:27:59Z</time>
      </trkpt>
      <trkpt lat="43.02188" lon="0.1918">
        <ele>1212.7</ele>
        <time>2023-11-19T10:28:00Z</time>
      </trkpt>
      <trkpt lat="43.02187" lon="0.19179">
        <ele>1214</ele>
        <time>2023-11-19T10:28:01Z</time>
      </trkpt>
      <trkpt lat="43.02188" lon="0.19179">
        <ele>1212.3</ele>
        <time>2023-11-19T10:28:02Z</time>
      </trkpt>
      <trkpt lat="43.02188" lon="0.19179">
        <ele>1212.7</ele>
        <time>2023-11-19T10:28:03Z</time>
      </trkpt>
      <trkpt lat="43.02187" lon="0.19179">
        <ele>1213.6</ele>
        <time>2023-11-19T10:28:04Z</time>
      </trkpt>
      <trkpt lat="43.02187" lon="0.19179">
        <ele>1213.6</ele>
        <time>2023-11-19T10:28:05Z</time>
      </trkpt>
      <trkpt lat="43.02187" lon="0.19179">
        <ele>1214</ele>
        <time>2023-11-19T10:28:06Z</time>
      </trkpt>
      <trkpt lat="43.02186" lon="0.1918">
        <ele>1214</ele>
        <time>2023-11-19T10:28:07Z</time>
      </trkpt>
      <trkpt lat="43.02184" lon="0.1918">
        <ele>1215.2</ele>
        <time>2023-11-19T10:28:08Z</time>
      </trkpt>
      <trkpt lat="43.02185" lon="0.19181">
        <ele>1214</ele>
        <time>2023-11-19T10:28:09Z</time>
      </trkpt>
      <trkpt lat="43.02184" lon="0.19181">
        <ele>1215.3</ele>
        <time>2023-11-19T10:28:10Z</time>
      </trkpt>
      <trkpt lat="43.02184" lon="0.19181">
        <ele>1215.3</ele>
        <time>2023-11-19T10:28:11Z</time>
      </trkpt>
      <trkpt lat="43.02183" lon="0.19182">
        <ele>1215.3</ele>
        <time>2023-11-19T10:28:12Z</time>
      </trkpt>
      <trkpt lat="43.02183" lon="0.19183">
        <ele>1215.3</ele>
        <time>2023-11-19T10:28:13Z</time>
      </trkpt>
      <trkpt lat="43.02182" lon="0.19184">
        <ele>1215.6</ele>
        <time>2023-11-19T10:28:14Z</time>
      </trkpt>
      <trkpt lat="43.02182" lon="0.19185">
        <ele>1215.6</ele>
        <time>2023-11-19T10:28:15Z</time>
      </trkpt>
      <trkpt lat="43.02181" lon="0.19185">
        <ele>1216.8</ele>
        <time>2023-11-19T10:28:16Z</time>
      </trkpt>
      <trkpt lat="43.02181" lon="0.19185">
        <ele>1216.9</ele>
        <time>2023-11-19T10:28:17Z</time>
      </trkpt>
      <trkpt lat="43.02181" lon="0.19186">
        <ele>1215.6</ele>
        <time>2023-11-19T10:28:18Z</time>
      </trkpt>
      <trkpt lat="43.0218" lon="0.19186">
        <ele>1216.9</ele>
        <time>2023-11-19T10:28:19Z</time>
      </trkpt>
      <trkpt lat="43.0218" lon="0.19187">
        <ele>1216.9</ele>
        <time>2023-11-19T10:28:20Z</time>
      </trkpt>
      <trkpt lat="43.0218" lon="0.19187">
        <ele>1216.9</ele>
        <time>2023-11-19T10:28:21Z</time>
      </trkpt>
      <trkpt lat="43.0218" lon="0.19186">
        <ele>1216.9</ele>
        <time>2023-11-19T10:28:22Z</time>
      </trkpt>
      <trkpt lat="43.02179" lon="0.19185">
        <ele>1216.9</ele>
        <time>2023-11-19T10:28:23Z</time>
      </trkpt>
      <trkpt lat="43.02179" lon="0.19186">
        <ele>1216.9</ele>
        <time>2023-11-19T10:28:24Z</time>
      </trkpt>
      <trkpt lat="43.02179" lon="0.19186">
        <ele>1216.9</ele>
        <time>2023-11-19T10:28:26Z</time>
      </trkpt>
      <trkpt lat="43.02179" lon="0.19186">
        <ele>1216.9</ele>
        <time>2023-11-19T10:28:27Z</time>
      </trkpt>
      <trkpt lat="43.02179" lon="0.19186">
        <ele>1216.9</ele>
        <time>2023-11-19T10:28:29Z</time>
      </trkpt>
      <trkpt lat="43.02179" lon="0.19187">
        <ele>1216.9</ele>
        <time>2023-11-19T10:28:30Z</time>
      </trkpt>
      <trkpt lat="43.02179" lon="0.19187">
        <ele>1216.9</ele>
        <time>2023-11-19T10:28:32Z</time>
      </trkpt>
      <trkpt lat="43.02178" lon="0.19187">
        <ele>1216.9</ele>
        <time>2023-11-19T10:28:33Z</time>
      </trkpt>
      <trkpt lat="43.02179" lon="0.19187">
        <ele>1216.9</ele>
        <time>2023-11-19T10:28:34Z</time>
      </trkpt>
      <trkpt lat="43.02179" lon="0.19187">
        <ele>1216.9</ele>
        <time>2023-11-19T10:28:36Z</time>
      </trkpt>
      <trkpt lat="43.02179" lon="0.19188">
        <ele>1217.2</ele>
        <time>2023-11-19T10:28:37Z</time>
      </trkpt>
      <trkpt lat="43.0218" lon="0.19188">
        <ele>1217.2</ele>
        <time>2023-11-19T10:28:39Z</time>
      </trkpt>
      <trkpt lat="43.0218" lon="0.19188">
        <ele>1217.2</ele>
        <time>2023-11-19T10:28:40Z</time>
      </trkpt>
      <trkpt lat="43.0218" lon="0.19191">
        <ele>1217.3</ele>
        <time>2023-11-19T10:28:41Z</time>
      </trkpt>
      <trkpt lat="43.0218" lon="0.19191">
        <ele>1217.3</ele>
        <time>2023-11-19T10:28:42Z</time>
      </trkpt>
      <trkpt lat="43.02181" lon="0.19191">
        <ele>1217.3</ele>
        <time>2023-11-19T10:28:43Z</time>
      </trkpt>
      <trkpt lat="43.0218" lon="0.19191">
        <ele>1217.3</ele>
        <time>2023-11-19T10:28:44Z</time>
      </trkpt>
      <trkpt lat="43.02181" lon="0.19191">
        <ele>1217.3</ele>
        <time>2023-11-19T10:28:45Z</time>
      </trkpt>
      <trkpt lat="43.02181" lon="0.19191">
        <ele>1217.3</ele>
        <time>2023-11-19T10:28:46Z</time>
      </trkpt>
      <trkpt lat="43.02181" lon="0.19191">
        <ele>1217.3</ele>
        <time>2023-11-19T10:28:47Z</time>
      </trkpt>
      <trkpt lat="43.0218" lon="0.19191">
        <ele>1217.3</ele>
        <time>2023-11-19T10:28:48Z</time>
      </trkpt>
      <trkpt lat="43.0218" lon="0.19191">
        <ele>1217.3</ele>
        <time>2023-11-19T10:28:49Z</time>
      </trkpt>
      <trkpt lat="43.0218" lon="0.19191">
        <ele>1217.3</ele>
        <time>2023-11-19T10:28:50Z</time>
      </trkpt>
      <trkpt lat="43.0218" lon="0.19191">
        <ele>1217.3</ele>
        <time>2023-11-19T10:28:51Z</time>
      </trkpt>
      <trkpt lat="43.0218" lon="0.19191">
        <ele>1217.3</ele>
        <time>2023-11-19T10:28:52Z</time>
      </trkpt>
      <trkpt lat="43.0218" lon="0.1919">
        <ele>1217.3</ele>
        <time>2023-11-19T10:28:53Z</time>
      </trkpt>
      <trkpt lat="43.0218" lon="0.19193">
        <ele>1217.6</ele>
        <time>2023-11-19T10:28:54Z</time>
      </trkpt>
      <trkpt lat="43.0218" lon="0.19191">
        <ele>1217.3</ele>
        <time>2023-11-19T10:28:55Z</time>
      </trkpt>
      <trkpt lat="43.02179" lon="0.1919">
        <ele>1217.3</ele>
        <time>2023-11-19T10:28:56Z</time>
      </trkpt>
      <trkpt lat="43.0218" lon="0.1919">
        <ele>1217.3</ele>
        <time>2023-11-19T10:28:57Z</time>
      </trkpt>
      <trkpt lat="43.02181" lon="0.1919">
        <ele>1217.3</ele>
        <time>2023-11-19T10:28:58Z</time>
      </trkpt>
      <trkpt lat="43.02182" lon="0.19189">
        <ele>1216.1</ele>
        <time>2023-11-19T10:28:59Z</time>
      </trkpt>
      <trkpt lat="43.02181" lon="0.19188">
        <ele>1217.4</ele>
        <time>2023-11-19T10:29:00Z</time>
      </trkpt>
      <trkpt lat="43.02179" lon="0.19186">
        <ele>1217.1</ele>
        <time>2023-11-19T10:29:01Z</time>
      </trkpt>
      <trkpt lat="43.02179" lon="0.19186">
        <ele>1217.1</ele>
        <time>2023-11-19T10:29:02Z</time>
      </trkpt>
      <trkpt lat="43.02178" lon="0.19186">
        <ele>1218.3</ele>
        <time>2023-11-19T10:29:03Z</time>
      </trkpt>
      <trkpt lat="43.02178" lon="0.19186">
        <ele>1218.4</ele>
        <time>2023-11-19T10:29:04Z</time>
      </trkpt>
      <trkpt lat="43.02178" lon="0.19186">
        <ele>1218.4</ele>
        <time>2023-11-19T10:29:05Z</time>
      </trkpt>
      <trkpt lat="43.02178" lon="0.19187">
        <ele>1218.4</ele>
        <time>2023-11-19T10:29:06Z</time>
      </trkpt>
      <trkpt lat="43.02178" lon="0.19187">
        <ele>1218.4</ele>
        <time>2023-11-19T10:29:07Z</time>
      </trkpt>
      <trkpt lat="43.02178" lon="0.19187">
        <ele>1218.4</ele>
        <time>2023-11-19T10:29:08Z</time>
      </trkpt>
      <trkpt lat="43.02177" lon="0.19186">
        <ele>1218.4</ele>
        <time>2023-11-19T10:29:09Z</time>
      </trkpt>
      <trkpt lat="43.02176" lon="0.19186">
        <ele>1218.4</ele>
        <time>2023-11-19T10:29:10Z</time>
      </trkpt>
      <trkpt lat="43.02176" lon="0.19187">
        <ele>1218.4</ele>
        <time>2023-11-19T10:29:11Z</time>
      </trkpt>
      <trkpt lat="43.02175" lon="0.19188">
        <ele>1218.7</ele>
        <time>2023-11-19T10:29:12Z</time>
      </trkpt>
      <trkpt lat="43.02175" lon="0.19188">
        <ele>1218.7</ele>
        <time>2023-11-19T10:29:13Z</time>
      </trkpt>
      <trkpt lat="43.02175" lon="0.19189">
        <ele>1218.7</ele>
        <time>2023-11-19T10:29:14Z</time>
      </trkpt>
      <trkpt lat="43.02174" lon="0.1919">
        <ele>1220</ele>
        <time>2023-11-19T10:29:15Z</time>
      </trkpt>
      <trkpt lat="43.02174" lon="0.19189">
        <ele>1220</ele>
        <time>2023-11-19T10:29:16Z</time>
      </trkpt>
      <trkpt lat="43.02173" lon="0.1919">
        <ele>1220</ele>
        <time>2023-11-19T10:29:17Z</time>
      </trkpt>
      <trkpt lat="43.02172" lon="0.1919">
        <ele>1220.1</ele>
        <time>2023-11-19T10:29:18Z</time>
      </trkpt>
      <trkpt lat="43.02172" lon="0.1919">
        <ele>1220.1</ele>
        <time>2023-11-19T10:29:19Z</time>
      </trkpt>
      <trkpt lat="43.02171" lon="0.1919">
        <ele>1221.4</ele>
        <time>2023-11-19T10:29:20Z</time>
      </trkpt>
      <trkpt lat="43.02171" lon="0.19191">
        <ele>1221.4</ele>
        <time>2023-11-19T10:29:21Z</time>
      </trkpt>
      <trkpt lat="43.02171" lon="0.19191">
        <ele>1221.4</ele>
        <time>2023-11-19T10:29:22Z</time>
      </trkpt>
      <trkpt lat="43.0217" lon="0.19192">
        <ele>1221.7</ele>
        <time>2023-11-19T10:29:23Z</time>
      </trkpt>
      <trkpt lat="43.0217" lon="0.19193">
        <ele>1221.7</ele>
        <time>2023-11-19T10:29:24Z</time>
      </trkpt>
      <trkpt lat="43.0217" lon="0.19194">
        <ele>1221.7</ele>
        <time>2023-11-19T10:29:25Z</time>
      </trkpt>
      <trkpt lat="43.02169" lon="0.19195">
        <ele>1221.7</ele>
        <time>2023-11-19T10:29:26Z</time>
      </trkpt>
      <trkpt lat="43.02169" lon="0.19195">
        <ele>1221.7</ele>
        <time>2023-11-19T10:29:27Z</time>
      </trkpt>
      <trkpt lat="43.02169" lon="0.19195">
        <ele>1221.7</ele>
        <time>2023-11-19T10:29:28Z</time>
      </trkpt>
      <trkpt lat="43.02168" lon="0.19196">
        <ele>1223.3</ele>
        <time>2023-11-19T10:29:29Z</time>
      </trkpt>
      <trkpt lat="43.02168" lon="0.19197">
        <ele>1223.3</ele>
        <time>2023-11-19T10:29:30Z</time>
      </trkpt>
      <trkpt lat="43.02168" lon="0.19198">
        <ele>1223.3</ele>
        <time>2023-11-19T10:29:31Z</time>
      </trkpt>
      <trkpt lat="43.02168" lon="0.19198">
        <ele>1223.3</ele>
        <time>2023-11-19T10:29:32Z</time>
      </trkpt>
      <trkpt lat="43.02167" lon="0.19199">
        <ele>1223.3</ele>
        <time>2023-11-19T10:29:33Z</time>
      </trkpt>
      <trkpt lat="43.02166" lon="0.19199">
        <ele>1223.3</ele>
        <time>2023-11-19T10:29:34Z</time>
      </trkpt>
      <trkpt lat="43.02166" lon="0.19199">
        <ele>1223.3</ele>
        <time>2023-11-19T10:29:35Z</time>
      </trkpt>
      <trkpt lat="43.02165" lon="0.19199">
        <ele>1224.6</ele>
        <time>2023-11-19T10:29:36Z</time>
      </trkpt>
      <trkpt lat="43.02165" lon="0.192">
        <ele>1224.6</ele>
        <time>2023-11-19T10:29:37Z</time>
      </trkpt>
      <trkpt lat="43.02164" lon="0.19201">
        <ele>1224.8</ele>
        <time>2023-11-19T10:29:38Z</time>
      </trkpt>
      <trkpt lat="43.02164" lon="0.19201">
        <ele>1224.8</ele>
        <time>2023-11-19T10:29:39Z</time>
      </trkpt>
      <trkpt lat="43.02163" lon="0.19202">
        <ele>1224.8</ele>
        <time>2023-11-19T10:29:40Z</time>
      </trkpt>
      <trkpt lat="43.02163" lon="0.19202">
        <ele>1224.8</ele>
        <time>2023-11-19T10:29:41Z</time>
      </trkpt>
      <trkpt lat="43.02163" lon="0.19203">
        <ele>1224.8</ele>
        <time>2023-11-19T10:29:42Z</time>
      </trkpt>
      <trkpt lat="43.02163" lon="0.19205">
        <ele>1224.8</ele>
        <time>2023-11-19T10:29:43Z</time>
      </trkpt>
      <trkpt lat="43.02162" lon="0.19205">
        <ele>1226.2</ele>
        <time>2023-11-19T10:29:44Z</time>
      </trkpt>
      <trkpt lat="43.02162" lon="0.19205">
        <ele>1226.2</ele>
        <time>2023-11-19T10:29:45Z</time>
      </trkpt>
      <trkpt lat="43.02161" lon="0.19204">
        <ele>1226.1</ele>
        <time>2023-11-19T10:29:46Z</time>
      </trkpt>
      <trkpt lat="43.02161" lon="0.19204">
        <ele>1226.1</ele>
        <time>2023-11-19T10:29:47Z</time>
      </trkpt>
      <trkpt lat="43.0216" lon="0.19204">
        <ele>1226.1</ele>
        <time>2023-11-19T10:29:48Z</time>
      </trkpt>
      <trkpt lat="43.0216" lon="0.19203">
        <ele>1226.1</ele>
        <time>2023-11-19T10:29:49Z</time>
      </trkpt>
      <trkpt lat="43.02159" lon="0.19203">
        <ele>1227.4</ele>
        <time>2023-11-19T10:29:50Z</time>
      </trkpt>
      <trkpt lat="43.02158" lon="0.19203">
        <ele>1227.4</ele>
        <time>2023-11-19T10:29:51Z</time>
      </trkpt>
      <trkpt lat="43.02158" lon="0.19205">
        <ele>1227.4</ele>
        <time>2023-11-19T10:29:52Z</time>
      </trkpt>
      <trkpt lat="43.02158" lon="0.19205">
        <ele>1227.4</ele>
        <time>2023-11-19T10:29:53Z</time>
      </trkpt>
      <trkpt lat="43.02157" lon="0.19204">
        <ele>1227.4</ele>
        <time>2023-11-19T10:29:54Z</time>
      </trkpt>
      <trkpt lat="43.02156" lon="0.19204">
        <ele>1228.6</ele>
        <time>2023-11-19T10:29:55Z</time>
      </trkpt>
      <trkpt lat="43.02155" lon="0.19205">
        <ele>1228.7</ele>
        <time>2023-11-19T10:29:56Z</time>
      </trkpt>
      <trkpt lat="43.02155" lon="0.19206">
        <ele>1228.7</ele>
        <time>2023-11-19T10:29:57Z</time>
      </trkpt>
      <trkpt lat="43.02155" lon="0.19207">
        <ele>1228.7</ele>
        <time>2023-11-19T10:29:58Z</time>
      </trkpt>
      <trkpt lat="43.02155" lon="0.19207">
        <ele>1228.7</ele>
        <time>2023-11-19T10:29:59Z</time>
      </trkpt>
      <trkpt lat="43.02154" lon="0.19208">
        <ele>1228.7</ele>
        <time>2023-11-19T10:30:00Z</time>
      </trkpt>
      <trkpt lat="43.02154" lon="0.19208">
        <ele>1228.7</ele>
        <time>2023-11-19T10:30:01Z</time>
      </trkpt>
      <trkpt lat="43.02154" lon="0.19208">
        <ele>1228.7</ele>
        <time>2023-11-19T10:30:02Z</time>
      </trkpt>
      <trkpt lat="43.02153" lon="0.19208">
        <ele>1228.7</ele>
        <time>2023-11-19T10:30:03Z</time>
      </trkpt>
      <trkpt lat="43.02153" lon="0.19209">
        <ele>1229.9</ele>
        <time>2023-11-19T10:30:04Z</time>
      </trkpt>
      <trkpt lat="43.02152" lon="0.19209">
        <ele>1229.9</ele>
        <time>2023-11-19T10:30:05Z</time>
      </trkpt>
      <trkpt lat="43.02152" lon="0.19209">
        <ele>1229.9</ele>
        <time>2023-11-19T10:30:06Z</time>
      </trkpt>
      <trkpt lat="43.02152" lon="0.19209">
        <ele>1229.9</ele>
        <time>2023-11-19T10:30:07Z</time>
      </trkpt>
      <trkpt lat="43.02151" lon="0.19209">
        <ele>1229.9</ele>
        <time>2023-11-19T10:30:08Z</time>
      </trkpt>
      <trkpt lat="43.02151" lon="0.1921">
        <ele>1229.9</ele>
        <time>2023-11-19T10:30:09Z</time>
      </trkpt>
      <trkpt lat="43.0215" lon="0.19211">
        <ele>1229.9</ele>
        <time>2023-11-19T10:30:10Z</time>
      </trkpt>
      <trkpt lat="43.0215" lon="0.19211">
        <ele>1229.9</ele>
        <time>2023-11-19T10:30:11Z</time>
      </trkpt>
      <trkpt lat="43.02149" lon="0.19212">
        <ele>1231.1</ele>
        <time>2023-11-19T10:30:12Z</time>
      </trkpt>
      <trkpt lat="43.02149" lon="0.19212">
        <ele>1231.1</ele>
        <time>2023-11-19T10:30:13Z</time>
      </trkpt>
      <trkpt lat="43.02148" lon="0.19212">
        <ele>1231.1</ele>
        <time>2023-11-19T10:30:14Z</time>
      </trkpt>
      <trkpt lat="43.02148" lon="0.19212">
        <ele>1231.1</ele>
        <time>2023-11-19T10:30:15Z</time>
      </trkpt>
      <trkpt lat="43.02148" lon="0.19213">
        <ele>1231.1</ele>
        <time>2023-11-19T10:30:16Z</time>
      </trkpt>
      <trkpt lat="43.02147" lon="0.19213">
        <ele>1231.2</ele>
        <time>2023-11-19T10:30:17Z</time>
      </trkpt>
      <trkpt lat="43.02147" lon="0.19213">
        <ele>1232.3</ele>
        <time>2023-11-19T10:30:18Z</time>
      </trkpt>
      <trkpt lat="43.02146" lon="0.19213">
        <ele>1232.3</ele>
        <time>2023-11-19T10:30:19Z</time>
      </trkpt>
      <trkpt lat="43.02146" lon="0.19213">
        <ele>1232.3</ele>
        <time>2023-11-19T10:30:20Z</time>
      </trkpt>
      <trkpt lat="43.02145" lon="0.19213">
        <ele>1232.3</ele>
        <time>2023-11-19T10:30:21Z</time>
      </trkpt>
      <trkpt lat="43.02145" lon="0.19214">
        <ele>1232.3</ele>
        <time>2023-11-19T10:30:22Z</time>
      </trkpt>
      <trkpt lat="43.02145" lon="0.19214">
        <ele>1232.3</ele>
        <time>2023-11-19T10:30:23Z</time>
      </trkpt>
      <trkpt lat="43.02145" lon="0.19215">
        <ele>1232.3</ele>
        <time>2023-11-19T10:30:24Z</time>
      </trkpt>
      <trkpt lat="43.02144" lon="0.19215">
        <ele>1232.3</ele>
        <time>2023-11-19T10:30:25Z</time>
      </trkpt>
      <trkpt lat="43.02144" lon="0.19215">
        <ele>1232.3</ele>
        <time>2023-11-19T10:30:26Z</time>
      </trkpt>
      <trkpt lat="43.02144" lon="0.19215">
        <ele>1232.4</ele>
        <time>2023-11-19T10:30:27Z</time>
      </trkpt>
      <trkpt lat="43.02143" lon="0.19216">
        <ele>1233.6</ele>
        <time>2023-11-19T10:30:28Z</time>
      </trkpt>
      <trkpt lat="43.02142" lon="0.19216">
        <ele>1233.6</ele>
        <time>2023-11-19T10:30:29Z</time>
      </trkpt>
      <trkpt lat="43.02142" lon="0.19216">
        <ele>1233.6</ele>
        <time>2023-11-19T10:30:30Z</time>
      </trkpt>
      <trkpt lat="43.02142" lon="0.19217">
        <ele>1233.6</ele>
        <time>2023-11-19T10:30:31Z</time>
      </trkpt>
      <trkpt lat="43.02141" lon="0.19217">
        <ele>1233.6</ele>
        <time>2023-11-19T10:30:32Z</time>
      </trkpt>
      <trkpt lat="43.02141" lon="0.19216">
        <ele>1233.6</ele>
        <time>2023-11-19T10:30:33Z</time>
      </trkpt>
      <trkpt lat="43.0214" lon="0.19216">
        <ele>1234.8</ele>
        <time>2023-11-19T10:30:34Z</time>
      </trkpt>
      <trkpt lat="43.0214" lon="0.19216">
        <ele>1234.8</ele>
        <time>2023-11-19T10:30:35Z</time>
      </trkpt>
      <trkpt lat="43.02139" lon="0.19216">
        <ele>1234.8</ele>
        <time>2023-11-19T10:30:36Z</time>
      </trkpt>
      <trkpt lat="43.02139" lon="0.19217">
        <ele>1234.8</ele>
        <time>2023-11-19T10:30:37Z</time>
      </trkpt>
      <trkpt lat="43.02139" lon="0.19218">
        <ele>1234.8</ele>
        <time>2023-11-19T10:30:38Z</time>
      </trkpt>
      <trkpt lat="43.02138" lon="0.19219">
        <ele>1234.8</ele>
        <time>2023-11-19T10:30:39Z</time>
      </trkpt>
      <trkpt lat="43.02138" lon="0.1922">
        <ele>1234.8</ele>
        <time>2023-11-19T10:30:40Z</time>
      </trkpt>
      <trkpt lat="43.02137" lon="0.19221">
        <ele>1234.8</ele>
        <time>2023-11-19T10:30:41Z</time>
      </trkpt>
      <trkpt lat="43.02137" lon="0.19221">
        <ele>1236.1</ele>
        <time>2023-11-19T10:30:42Z</time>
      </trkpt>
      <trkpt lat="43.02136" lon="0.19221">
        <ele>1236.1</ele>
        <time>2023-11-19T10:30:43Z</time>
      </trkpt>
      <trkpt lat="43.02136" lon="0.19221">
        <ele>1236.1</ele>
        <time>2023-11-19T10:30:44Z</time>
      </trkpt>
      <trkpt lat="43.02135" lon="0.19221">
        <ele>1236.1</ele>
        <time>2023-11-19T10:30:45Z</time>
      </trkpt>
      <trkpt lat="43.02134" lon="0.1922">
        <ele>1236.1</ele>
        <time>2023-11-19T10:30:46Z</time>
      </trkpt>
      <trkpt lat="43.02134" lon="0.1922">
        <ele>1237.4</ele>
        <time>2023-11-19T10:30:47Z</time>
      </trkpt>
      <trkpt lat="43.02133" lon="0.1922">
        <ele>1237.4</ele>
        <time>2023-11-19T10:30:48Z</time>
      </trkpt>
      <trkpt lat="43.02133" lon="0.1922">
        <ele>1237.4</ele>
        <time>2023-11-19T10:30:49Z</time>
      </trkpt>
      <trkpt lat="43.02133" lon="0.19221">
        <ele>1237.4</ele>
        <time>2023-11-19T10:30:50Z</time>
      </trkpt>
      <trkpt lat="43.02132" lon="0.19222">
        <ele>1237.4</ele>
        <time>2023-11-19T10:30:51Z</time>
      </trkpt>
      <trkpt lat="43.02132" lon="0.19223">
        <ele>1237.3</ele>
        <time>2023-11-19T10:30:52Z</time>
      </trkpt>
      <trkpt lat="43.02131" lon="0.19224">
        <ele>1237.3</ele>
        <time>2023-11-19T10:30:53Z</time>
      </trkpt>
      <trkpt lat="43.02131" lon="0.19224">
        <ele>1238.6</ele>
        <time>2023-11-19T10:30:54Z</time>
      </trkpt>
      <trkpt lat="43.0213" lon="0.19225">
        <ele>1238.6</ele>
        <time>2023-11-19T10:30:55Z</time>
      </trkpt>
      <trkpt lat="43.0213" lon="0.19225">
        <ele>1238.6</ele>
        <time>2023-11-19T10:30:56Z</time>
      </trkpt>
      <trkpt lat="43.02129" lon="0.19224">
        <ele>1238.6</ele>
        <time>2023-11-19T10:30:57Z</time>
      </trkpt>
      <trkpt lat="43.02129" lon="0.19223">
        <ele>1238.6</ele>
        <time>2023-11-19T10:30:58Z</time>
      </trkpt>
      <trkpt lat="43.02128" lon="0.19223">
        <ele>1238.6</ele>
        <time>2023-11-19T10:30:59Z</time>
      </trkpt>
      <trkpt lat="43.02128" lon="0.19222">
        <ele>1238.6</ele>
        <time>2023-11-19T10:31:00Z</time>
      </trkpt>
      <trkpt lat="43.02129" lon="0.19223">
        <ele>1238.6</ele>
        <time>2023-11-19T10:31:01Z</time>
      </trkpt>
      <trkpt lat="43.02128" lon="0.19223">
        <ele>1238.6</ele>
        <time>2023-11-19T10:31:02Z</time>
      </trkpt>
      <trkpt lat="43.02128" lon="0.19221">
        <ele>1238.7</ele>
        <time>2023-11-19T10:31:03Z</time>
      </trkpt>
      <trkpt lat="43.02128" lon="0.19221">
        <ele>1239.8</ele>
        <time>2023-11-19T10:31:04Z</time>
      </trkpt>
      <trkpt lat="43.02127" lon="0.19221">
        <ele>1239.8</ele>
        <time>2023-11-19T10:31:05Z</time>
      </trkpt>
      <trkpt lat="43.02127" lon="0.1922">
        <ele>1239.8</ele>
        <time>2023-11-19T10:31:06Z</time>
      </trkpt>
      <trkpt lat="43.02126" lon="0.19221">
        <ele>1239.8</ele>
        <time>2023-11-19T10:31:07Z</time>
      </trkpt>
      <trkpt lat="43.02126" lon="0.19221">
        <ele>1239.8</ele>
        <time>2023-11-19T10:31:08Z</time>
      </trkpt>
      <trkpt lat="43.02125" lon="0.19221">
        <ele>1239.8</ele>
        <time>2023-11-19T10:31:09Z</time>
      </trkpt>
      <trkpt lat="43.02125" lon="0.19221">
        <ele>1239.8</ele>
        <time>2023-11-19T10:31:10Z</time>
      </trkpt>
      <trkpt lat="43.02124" lon="0.1922">
        <ele>1240.9</ele>
        <time>2023-11-19T10:31:11Z</time>
      </trkpt>
      <trkpt lat="43.02124" lon="0.19219">
        <ele>1240.9</ele>
        <time>2023-11-19T10:31:12Z</time>
      </trkpt>
      <trkpt lat="43.02124" lon="0.19218">
        <ele>1240.9</ele>
        <time>2023-11-19T10:31:13Z</time>
      </trkpt>
      <trkpt lat="43.02124" lon="0.19218">
        <ele>1240.9</ele>
        <time>2023-11-19T10:31:14Z</time>
      </trkpt>
      <trkpt lat="43.02123" lon="0.19217">
        <ele>1240.9</ele>
        <time>2023-11-19T10:31:15Z</time>
      </trkpt>
      <trkpt lat="43.02122" lon="0.19218">
        <ele>1240.9</ele>
        <time>2023-11-19T10:31:16Z</time>
      </trkpt>
      <trkpt lat="43.02121" lon="0.19217">
        <ele>1241.9</ele>
        <time>2023-11-19T10:31:17Z</time>
      </trkpt>
      <trkpt lat="43.02121" lon="0.19217">
        <ele>1241.9</ele>
        <time>2023-11-19T10:31:18Z</time>
      </trkpt>
      <trkpt lat="43.02121" lon="0.19216">
        <ele>1242</ele>
        <time>2023-11-19T10:31:19Z</time>
      </trkpt>
      <trkpt lat="43.0212" lon="0.19216">
        <ele>1242</ele>
        <time>2023-11-19T10:31:20Z</time>
      </trkpt>
      <trkpt lat="43.02119" lon="0.19215">
        <ele>1242</ele>
        <time>2023-11-19T10:31:21Z</time>
      </trkpt>
      <trkpt lat="43.02119" lon="0.19215">
        <ele>1242</ele>
        <time>2023-11-19T10:31:22Z</time>
      </trkpt>
      <trkpt lat="43.02118" lon="0.19215">
        <ele>1243</ele>
        <time>2023-11-19T10:31:23Z</time>
      </trkpt>
      <trkpt lat="43.02118" lon="0.19215">
        <ele>1243</ele>
        <time>2023-11-19T10:31:24Z</time>
      </trkpt>
      <trkpt lat="43.02117" lon="0.19215">
        <ele>1243</ele>
        <time>2023-11-19T10:31:25Z</time>
      </trkpt>
      <trkpt lat="43.02116" lon="0.19215">
        <ele>1243</ele>
        <time>2023-11-19T10:31:26Z</time>
      </trkpt>
      <trkpt lat="43.02116" lon="0.19215">
        <ele>1243</ele>
        <time>2023-11-19T10:31:27Z</time>
      </trkpt>
      <trkpt lat="43.02116" lon="0.19214">
        <ele>1243</ele>
        <time>2023-11-19T10:31:28Z</time>
      </trkpt>
      <trkpt lat="43.02116" lon="0.19213">
        <ele>1243</ele>
        <time>2023-11-19T10:31:29Z</time>
      </trkpt>
      <trkpt lat="43.02115" lon="0.19212">
        <ele>1243</ele>
        <time>2023-11-19T10:31:30Z</time>
      </trkpt>
      <trkpt lat="43.02115" lon="0.19212">
        <ele>1244</ele>
        <time>2023-11-19T10:31:31Z</time>
      </trkpt>
      <trkpt lat="43.02115" lon="0.19211">
        <ele>1244</ele>
        <time>2023-11-19T10:31:32Z</time>
      </trkpt>
      <trkpt lat="43.02114" lon="0.19211">
        <ele>1244</ele>
        <time>2023-11-19T10:31:33Z</time>
      </trkpt>
      <trkpt lat="43.02113" lon="0.1921">
        <ele>1244</ele>
        <time>2023-11-19T10:31:34Z</time>
      </trkpt>
      <trkpt lat="43.02113" lon="0.19209">
        <ele>1244</ele>
        <time>2023-11-19T10:31:35Z</time>
      </trkpt>
      <trkpt lat="43.02112" lon="0.19208">
        <ele>1244</ele>
        <time>2023-11-19T10:31:36Z</time>
      </trkpt>
      <trkpt lat="43.02112" lon="0.19207">
        <ele>1245</ele>
        <time>2023-11-19T10:31:37Z</time>
      </trkpt>
      <trkpt lat="43.02111" lon="0.19207">
        <ele>1245.1</ele>
        <time>2023-11-19T10:31:38Z</time>
      </trkpt>
      <trkpt lat="43.0211" lon="0.19206">
        <ele>1245.1</ele>
        <time>2023-11-19T10:31:39Z</time>
      </trkpt>
      <trkpt lat="43.0211" lon="0.19206">
        <ele>1245.1</ele>
        <time>2023-11-19T10:31:40Z</time>
      </trkpt>
      <trkpt lat="43.02109" lon="0.19205">
        <ele>1245.1</ele>
        <time>2023-11-19T10:31:41Z</time>
      </trkpt>
      <trkpt lat="43.02109" lon="0.19205">
        <ele>1246.2</ele>
        <time>2023-11-19T10:31:42Z</time>
      </trkpt>
      <trkpt lat="43.02108" lon="0.19204">
        <ele>1246</ele>
        <time>2023-11-19T10:31:43Z</time>
      </trkpt>
      <trkpt lat="43.02107" lon="0.19204">
        <ele>1246</ele>
        <time>2023-11-19T10:31:44Z</time>
      </trkpt>
      <trkpt lat="43.02106" lon="0.19204">
        <ele>1246</ele>
        <time>2023-11-19T10:31:45Z</time>
      </trkpt>
      <trkpt lat="43.02106" lon="0.19203">
        <ele>1247.1</ele>
        <time>2023-11-19T10:31:46Z</time>
      </trkpt>
      <trkpt lat="43.02105" lon="0.19203">
        <ele>1247.1</ele>
        <time>2023-11-19T10:31:47Z</time>
      </trkpt>
      <trkpt lat="43.02104" lon="0.19202">
        <ele>1247.1</ele>
        <time>2023-11-19T10:31:48Z</time>
      </trkpt>
      <trkpt lat="43.02103" lon="0.19201">
        <ele>1247.1</ele>
        <time>2023-11-19T10:31:49Z</time>
      </trkpt>
      <trkpt lat="43.02103" lon="0.19201">
        <ele>1248.1</ele>
        <time>2023-11-19T10:31:50Z</time>
      </trkpt>
      <trkpt lat="43.02102" lon="0.192">
        <ele>1247.8</ele>
        <time>2023-11-19T10:31:51Z</time>
      </trkpt>
      <trkpt lat="43.02102" lon="0.19199">
        <ele>1247.8</ele>
        <time>2023-11-19T10:31:52Z</time>
      </trkpt>
      <trkpt lat="43.02101" lon="0.19198">
        <ele>1247.9</ele>
        <time>2023-11-19T10:31:53Z</time>
      </trkpt>
      <trkpt lat="43.02101" lon="0.19197">
        <ele>1247.9</ele>
        <time>2023-11-19T10:31:54Z</time>
      </trkpt>
      <trkpt lat="43.021" lon="0.19196">
        <ele>1247.6</ele>
        <time>2023-11-19T10:31:55Z</time>
      </trkpt>
      <trkpt lat="43.02099" lon="0.19195">
        <ele>1248.4</ele>
        <time>2023-11-19T10:31:56Z</time>
      </trkpt>
      <trkpt lat="43.02099" lon="0.19195">
        <ele>1248.4</ele>
        <time>2023-11-19T10:31:57Z</time>
      </trkpt>
      <trkpt lat="43.02098" lon="0.19194">
        <ele>1248.4</ele>
        <time>2023-11-19T10:31:58Z</time>
      </trkpt>
      <trkpt lat="43.02097" lon="0.19194">
        <ele>1248.4</ele>
        <time>2023-11-19T10:31:59Z</time>
      </trkpt>
      <trkpt lat="43.02097" lon="0.19193">
        <ele>1248.4</ele>
        <time>2023-11-19T10:32:00Z</time>
      </trkpt>
      <trkpt lat="43.02096" lon="0.19193">
        <ele>1249.2</ele>
        <time>2023-11-19T10:32:01Z</time>
      </trkpt>
      <trkpt lat="43.02096" lon="0.19192">
        <ele>1249.2</ele>
        <time>2023-11-19T10:32:02Z</time>
      </trkpt>
      <trkpt lat="43.02095" lon="0.19192">
        <ele>1248.9</ele>
        <time>2023-11-19T10:32:03Z</time>
      </trkpt>
      <trkpt lat="43.02094" lon="0.19191">
        <ele>1248.9</ele>
        <time>2023-11-19T10:32:04Z</time>
      </trkpt>
      <trkpt lat="43.02093" lon="0.19191">
        <ele>1248.9</ele>
        <time>2023-11-19T10:32:05Z</time>
      </trkpt>
      <trkpt lat="43.02093" lon="0.19191">
        <ele>1249.6</ele>
        <time>2023-11-19T10:32:06Z</time>
      </trkpt>
      <trkpt lat="43.02093" lon="0.1919">
        <ele>1249.6</ele>
        <time>2023-11-19T10:32:07Z</time>
      </trkpt>
      <trkpt lat="43.02092" lon="0.1919">
        <ele>1249.6</ele>
        <time>2023-11-19T10:32:08Z</time>
      </trkpt>
      <trkpt lat="43.02092" lon="0.1919">
        <ele>1249.6</ele>
        <time>2023-11-19T10:32:09Z</time>
      </trkpt>
      <trkpt lat="43.02091" lon="0.1919">
        <ele>1249.6</ele>
        <time>2023-11-19T10:32:10Z</time>
      </trkpt>
      <trkpt lat="43.02091" lon="0.1919">
        <ele>1249.6</ele>
        <time>2023-11-19T10:32:11Z</time>
      </trkpt>
      <trkpt lat="43.0209" lon="0.1919">
        <ele>1250.3</ele>
        <time>2023-11-19T10:32:12Z</time>
      </trkpt>
      <trkpt lat="43.0209" lon="0.1919">
        <ele>1250.3</ele>
        <time>2023-11-19T10:32:13Z</time>
      </trkpt>
      <trkpt lat="43.02089" lon="0.19189">
        <ele>1250.3</ele>
        <time>2023-11-19T10:32:14Z</time>
      </trkpt>
      <trkpt lat="43.02088" lon="0.19189">
        <ele>1250.3</ele>
        <time>2023-11-19T10:32:15Z</time>
      </trkpt>
      <trkpt lat="43.02087" lon="0.1919">
        <ele>1250.3</ele>
        <time>2023-11-19T10:32:16Z</time>
      </trkpt>
      <trkpt lat="43.02087" lon="0.1919">
        <ele>1251.1</ele>
        <time>2023-11-19T10:32:17Z</time>
      </trkpt>
      <trkpt lat="43.02086" lon="0.19189">
        <ele>1251.1</ele>
        <time>2023-11-19T10:32:18Z</time>
      </trkpt>
      <trkpt lat="43.02085" lon="0.19189">
        <ele>1251.1</ele>
        <time>2023-11-19T10:32:19Z</time>
      </trkpt>
      <trkpt lat="43.02085" lon="0.19188">
        <ele>1251.1</ele>
        <time>2023-11-19T10:32:20Z</time>
      </trkpt>
      <trkpt lat="43.02084" lon="0.19188">
        <ele>1251.1</ele>
        <time>2023-11-19T10:32:21Z</time>
      </trkpt>
      <trkpt lat="43.02084" lon="0.19188">
        <ele>1251.9</ele>
        <time>2023-11-19T10:32:22Z</time>
      </trkpt>
      <trkpt lat="43.02083" lon="0.19188">
        <ele>1251.9</ele>
        <time>2023-11-19T10:32:23Z</time>
      </trkpt>
      <trkpt lat="43.02082" lon="0.19188">
        <ele>1251.9</ele>
        <time>2023-11-19T10:32:24Z</time>
      </trkpt>
      <trkpt lat="43.02082" lon="0.19188">
        <ele>1251.9</ele>
        <time>2023-11-19T10:32:25Z</time>
      </trkpt>
      <trkpt lat="43.02082" lon="0.19189">
        <ele>1252</ele>
        <time>2023-11-19T10:32:26Z</time>
      </trkpt>
      <trkpt lat="43.02081" lon="0.19189">
        <ele>1252</ele>
        <time>2023-11-19T10:32:27Z</time>
      </trkpt>
      <trkpt lat="43.0208" lon="0.19189">
        <ele>1252.7</ele>
        <time>2023-11-19T10:32:28Z</time>
      </trkpt>
      <trkpt lat="43.02079" lon="0.19189">
        <ele>1252.7</ele>
        <time>2023-11-19T10:32:29Z</time>
      </trkpt>
      <trkpt lat="43.02079" lon="0.19189">
        <ele>1252.7</ele>
        <time>2023-11-19T10:32:30Z</time>
      </trkpt>
      <trkpt lat="43.02078" lon="0.19189">
        <ele>1252.8</ele>
        <time>2023-11-19T10:32:31Z</time>
      </trkpt>
      <trkpt lat="43.02077" lon="0.19188">
        <ele>1253.5</ele>
        <time>2023-11-19T10:32:32Z</time>
      </trkpt>
      <trkpt lat="43.02076" lon="0.19188">
        <ele>1253.5</ele>
        <time>2023-11-19T10:32:33Z</time>
      </trkpt>
      <trkpt lat="43.02075" lon="0.19188">
        <ele>1253.5</ele>
        <time>2023-11-19T10:32:34Z</time>
      </trkpt>
      <trkpt lat="43.02075" lon="0.19187">
        <ele>1253.1</ele>
        <time>2023-11-19T10:32:35Z</time>
      </trkpt>
      <trkpt lat="43.02074" lon="0.19187">
        <ele>1253.7</ele>
        <time>2023-11-19T10:32:36Z</time>
      </trkpt>
      <trkpt lat="43.02073" lon="0.19187">
        <ele>1253.7</ele>
        <time>2023-11-19T10:32:37Z</time>
      </trkpt>
      <trkpt lat="43.02072" lon="0.19187">
        <ele>1253.8</ele>
        <time>2023-11-19T10:32:38Z</time>
      </trkpt>
      <trkpt lat="43.02072" lon="0.19187">
        <ele>1253.8</ele>
        <time>2023-11-19T10:32:39Z</time>
      </trkpt>
      <trkpt lat="43.02071" lon="0.19187">
        <ele>1254.8</ele>
        <time>2023-11-19T10:32:40Z</time>
      </trkpt>
      <trkpt lat="43.0207" lon="0.19187">
        <ele>1254.8</ele>
        <time>2023-11-19T10:32:41Z</time>
      </trkpt>
      <trkpt lat="43.02069" lon="0.19188">
        <ele>1255.3</ele>
        <time>2023-11-19T10:32:42Z</time>
      </trkpt>
      <trkpt lat="43.02068" lon="0.19188">
        <ele>1255.9</ele>
        <time>2023-11-19T10:32:43Z</time>
      </trkpt>
      <trkpt lat="43.02068" lon="0.19188">
        <ele>1255.9</ele>
        <time>2023-11-19T10:32:44Z</time>
      </trkpt>
      <trkpt lat="43.02067" lon="0.19188">
        <ele>1255.9</ele>
        <time>2023-11-19T10:32:45Z</time>
      </trkpt>
      <trkpt lat="43.02066" lon="0.19187">
        <ele>1255.4</ele>
        <time>2023-11-19T10:32:46Z</time>
      </trkpt>
      <trkpt lat="43.02065" lon="0.19186">
        <ele>1255.4</ele>
        <time>2023-11-19T10:32:47Z</time>
      </trkpt>
      <trkpt lat="43.02064" lon="0.19186">
        <ele>1256.1</ele>
        <time>2023-11-19T10:32:48Z</time>
      </trkpt>
      <trkpt lat="43.02064" lon="0.19185">
        <ele>1256.1</ele>
        <time>2023-11-19T10:32:49Z</time>
      </trkpt>
      <trkpt lat="43.02063" lon="0.19185">
        <ele>1256.1</ele>
        <time>2023-11-19T10:32:50Z</time>
      </trkpt>
      <trkpt lat="43.02062" lon="0.19184">
        <ele>1256.1</ele>
        <time>2023-11-19T10:32:51Z</time>
      </trkpt>
      <trkpt lat="43.02061" lon="0.19184">
        <ele>1256.8</ele>
        <time>2023-11-19T10:32:52Z</time>
      </trkpt>
      <trkpt lat="43.02061" lon="0.19184">
        <ele>1256.8</ele>
        <time>2023-11-19T10:32:53Z</time>
      </trkpt>
      <trkpt lat="43.0206" lon="0.19183">
        <ele>1256.8</ele>
        <time>2023-11-19T10:32:54Z</time>
      </trkpt>
      <trkpt lat="43.02059" lon="0.19183">
        <ele>1256.2</ele>
        <time>2023-11-19T10:32:55Z</time>
      </trkpt>
      <trkpt lat="43.02059" lon="0.19183">
        <ele>1256.2</ele>
        <time>2023-11-19T10:32:56Z</time>
      </trkpt>
      <trkpt lat="43.02059" lon="0.19183">
        <ele>1256.9</ele>
        <time>2023-11-19T10:32:57Z</time>
      </trkpt>
      <trkpt lat="43.02058" lon="0.19183">
        <ele>1256.9</ele>
        <time>2023-11-19T10:32:58Z</time>
      </trkpt>
      <trkpt lat="43.02058" lon="0.19183">
        <ele>1256.9</ele>
        <time>2023-11-19T10:32:59Z</time>
      </trkpt>
      <trkpt lat="43.02058" lon="0.19183">
        <ele>1256.9</ele>
        <time>2023-11-19T10:33:00Z</time>
      </trkpt>
      <trkpt lat="43.02058" lon="0.19183">
        <ele>1256.9</ele>
        <time>2023-11-19T10:33:01Z</time>
      </trkpt>
      <trkpt lat="43.02058" lon="0.19183">
        <ele>1256.9</ele>
        <time>2023-11-19T10:33:02Z</time>
      </trkpt>
      <trkpt lat="43.02059" lon="0.19183">
        <ele>1257.5</ele>
        <time>2023-11-19T10:33:03Z</time>
      </trkpt>
      <trkpt lat="43.02058" lon="0.19183">
        <ele>1257.5</ele>
        <time>2023-11-19T10:33:04Z</time>
      </trkpt>
      <trkpt lat="43.02058" lon="0.19183">
        <ele>1257.5</ele>
        <time>2023-11-19T10:33:05Z</time>
      </trkpt>
      <trkpt lat="43.02058" lon="0.19183">
        <ele>1257.5</ele>
        <time>2023-11-19T10:33:06Z</time>
      </trkpt>
      <trkpt lat="43.02058" lon="0.19183">
        <ele>1257.5</ele>
        <time>2023-11-19T10:33:07Z</time>
      </trkpt>
      <trkpt lat="43.02058" lon="0.19183">
        <ele>1257.5</ele>
        <time>2023-11-19T10:33:08Z</time>
      </trkpt>
      <trkpt lat="43.02058" lon="0.19183">
        <ele>1257.5</ele>
        <time>2023-11-19T10:33:09Z</time>
      </trkpt>
      <trkpt lat="43.02059" lon="0.19183">
        <ele>1257.5</ele>
        <time>2023-11-19T10:33:10Z</time>
      </trkpt>
      <trkpt lat="43.02059" lon="0.19184">
        <ele>1257.5</ele>
        <time>2023-11-19T10:33:11Z</time>
      </trkpt>
      <trkpt lat="43.02059" lon="0.19184">
        <ele>1257.5</ele>
        <time>2023-11-19T10:33:12Z</time>
      </trkpt>
      <trkpt lat="43.02059" lon="0.19184">
        <ele>1257.5</ele>
        <time>2023-11-19T10:33:13Z</time>
      </trkpt>
      <trkpt lat="43.02059" lon="0.19184">
        <ele>1257.5</ele>
        <time>2023-11-19T10:33:14Z</time>
      </trkpt>
      <trkpt lat="43.02059" lon="0.19184">
        <ele>1257.5</ele>
        <time>2023-11-19T10:33:15Z</time>
      </trkpt>
      <trkpt lat="43.02059" lon="0.19184">
        <ele>1257.5</ele>
        <time>2023-11-19T10:33:16Z</time>
      </trkpt>
      <trkpt lat="43.02059" lon="0.19184">
        <ele>1257.5</ele>
        <time>2023-11-19T10:33:17Z</time>
      </trkpt>
      <trkpt lat="43.02059" lon="0.19184">
        <ele>1257.5</ele>
        <time>2023-11-19T10:33:18Z</time>
      </trkpt>
      <trkpt lat="43.02059" lon="0.19184">
        <ele>1257.6</ele>
        <time>2023-11-19T10:33:19Z</time>
      </trkpt>
      <trkpt lat="43.02059" lon="0.19184">
        <ele>1257.6</ele>
        <time>2023-11-19T10:33:20Z</time>
      </trkpt>
      <trkpt lat="43.02059" lon="0.19184">
        <ele>1257.6</ele>
        <time>2023-11-19T10:33:21Z</time>
      </trkpt>
      <trkpt lat="43.02059" lon="0.19184">
        <ele>1257.6</ele>
        <time>2023-11-19T10:33:22Z</time>
      </trkpt>
      <trkpt lat="43.02059" lon="0.19184">
        <ele>1257.6</ele>
        <time>2023-11-19T10:33:23Z</time>
      </trkpt>
      <trkpt lat="43.02059" lon="0.19184">
        <ele>1257.6</ele>
        <time>2023-11-19T10:33:24Z</time>
      </trkpt>
      <trkpt lat="43.02059" lon="0.19184">
        <ele>1257.6</ele>
        <time>2023-11-19T10:33:25Z</time>
      </trkpt>
      <trkpt lat="43.02059" lon="0.19184">
        <ele>1257</ele>
        <time>2023-11-19T10:33:26Z</time>
      </trkpt>
      <trkpt lat="43.02059" lon="0.19184">
        <ele>1257</ele>
        <time>2023-11-19T10:33:27Z</time>
      </trkpt>
      <trkpt lat="43.02059" lon="0.19184">
        <ele>1257</ele>
        <time>2023-11-19T10:33:28Z</time>
      </trkpt>
      <trkpt lat="43.02059" lon="0.19184">
        <ele>1257</ele>
        <time>2023-11-19T10:33:29Z</time>
      </trkpt>
      <trkpt lat="43.02059" lon="0.19184">
        <ele>1257</ele>
        <time>2023-11-19T10:33:30Z</time>
      </trkpt>
      <trkpt lat="43.02059" lon="0.19184">
        <ele>1257</ele>
        <time>2023-11-19T10:33:31Z</time>
      </trkpt>
      <trkpt lat="43.02059" lon="0.19184">
        <ele>1257</ele>
        <time>2023-11-19T10:33:32Z</time>
      </trkpt>
      <trkpt lat="43.02059" lon="0.19184">
        <ele>1257.6</ele>
        <time>2023-11-19T10:33:33Z</time>
      </trkpt>
      <trkpt lat="43.02059" lon="0.19184">
        <ele>1257.6</ele>
        <time>2023-11-19T10:33:34Z</time>
      </trkpt>
      <trkpt lat="43.02059" lon="0.19184">
        <ele>1257.6</ele>
        <time>2023-11-19T10:33:35Z</time>
      </trkpt>
      <trkpt lat="43.02059" lon="0.19184">
        <ele>1257.6</ele>
        <time>2023-11-19T10:33:36Z</time>
      </trkpt>
      <trkpt lat="43.02059" lon="0.19184">
        <ele>1257.7</ele>
        <time>2023-11-19T10:33:37Z</time>
      </trkpt>
      <trkpt lat="43.02059" lon="0.19184">
        <ele>1257.7</ele>
        <time>2023-11-19T10:33:38Z</time>
      </trkpt>
      <trkpt lat="43.02059" lon="0.19184">
        <ele>1257.7</ele>
        <time>2023-11-19T10:33:39Z</time>
      </trkpt>
      <trkpt lat="43.02058" lon="0.19184">
        <ele>1257.7</ele>
        <time>2023-11-19T10:33:40Z</time>
      </trkpt>
      <trkpt lat="43.02058" lon="0.19184">
        <ele>1257.7</ele>
        <time>2023-11-19T10:33:41Z</time>
      </trkpt>
      <trkpt lat="43.02058" lon="0.19184">
        <ele>1257.7</ele>
        <time>2023-11-19T10:33:42Z</time>
      </trkpt>
      <trkpt lat="43.02058" lon="0.19184">
        <ele>1257.7</ele>
        <time>2023-11-19T10:33:43Z</time>
      </trkpt>
      <trkpt lat="43.02058" lon="0.19184">
        <ele>1257.7</ele>
        <time>2023-11-19T10:33:44Z</time>
      </trkpt>
      <trkpt lat="43.02058" lon="0.19184">
        <ele>1257.7</ele>
        <time>2023-11-19T10:33:45Z</time>
      </trkpt>
      <trkpt lat="43.02058" lon="0.19184">
        <ele>1257.7</ele>
        <time>2023-11-19T10:33:46Z</time>
      </trkpt>
      <trkpt lat="43.02058" lon="0.19184">
        <ele>1257.7</ele>
        <time>2023-11-19T10:33:47Z</time>
      </trkpt>
      <trkpt lat="43.02058" lon="0.19184">
        <ele>1257.7</ele>
        <time>2023-11-19T10:33:48Z</time>
      </trkpt>
      <trkpt lat="43.02058" lon="0.19184">
        <ele>1257.7</ele>
        <time>2023-11-19T10:33:49Z</time>
      </trkpt>
      <trkpt lat="43.02058" lon="0.19184">
        <ele>1257.7</ele>
        <time>2023-11-19T10:33:50Z</time>
      </trkpt>
      <trkpt lat="43.02058" lon="0.19184">
        <ele>1257.7</ele>
        <time>2023-11-19T10:33:51Z</time>
      </trkpt>
      <trkpt lat="43.02058" lon="0.19184">
        <ele>1257.7</ele>
        <time>2023-11-19T10:33:52Z</time>
      </trkpt>
      <trkpt lat="43.02058" lon="0.19184">
        <ele>1257.7</ele>
        <time>2023-11-19T10:33:53Z</time>
      </trkpt>
      <trkpt lat="43.02058" lon="0.19184">
        <ele>1257.8</ele>
        <time>2023-11-19T10:33:54Z</time>
      </trkpt>
      <trkpt lat="43.02058" lon="0.19184">
        <ele>1257.8</ele>
        <time>2023-11-19T10:33:55Z</time>
      </trkpt>
      <trkpt lat="43.02058" lon="0.19184">
        <ele>1257.8</ele>
        <time>2023-11-19T10:33:56Z</time>
      </trkpt>
      <trkpt lat="43.02058" lon="0.19184">
        <ele>1257.8</ele>
        <time>2023-11-19T10:33:57Z</time>
      </trkpt>
      <trkpt lat="43.02058" lon="0.19184">
        <ele>1257.8</ele>
        <time>2023-11-19T10:33:58Z</time>
      </trkpt>
      <trkpt lat="43.02058" lon="0.19184">
        <ele>1257.8</ele>
        <time>2023-11-19T10:33:59Z</time>
      </trkpt>
      <trkpt lat="43.02058" lon="0.19184">
        <ele>1257.8</ele>
        <time>2023-11-19T10:34:00Z</time>
      </trkpt>
      <trkpt lat="43.02058" lon="0.19184">
        <ele>1257.8</ele>
        <time>2023-11-19T10:34:01Z</time>
      </trkpt>
      <trkpt lat="43.02058" lon="0.19184">
        <ele>1257.8</ele>
        <time>2023-11-19T10:34:02Z</time>
      </trkpt>
      <trkpt lat="43.02058" lon="0.19184">
        <ele>1257.8</ele>
        <time>2023-11-19T10:34:03Z</time>
      </trkpt>
      <trkpt lat="43.02058" lon="0.19184">
        <ele>1257.8</ele>
        <time>2023-11-19T10:34:04Z</time>
      </trkpt>
      <trkpt lat="43.02058" lon="0.19184">
        <ele>1257.8</ele>
        <time>2023-11-19T10:34:05Z</time>
      </trkpt>
      <trkpt lat="43.02058" lon="0.19184">
        <ele>1257.8</ele>
        <time>2023-11-19T10:34:06Z</time>
      </trkpt>
      <trkpt lat="43.02058" lon="0.19184">
        <ele>1257.8</ele>
        <time>2023-11-19T10:34:07Z</time>
      </trkpt>
      <trkpt lat="43.02058" lon="0.19184">
        <ele>1257.8</ele>
        <time>2023-11-19T10:34:08Z</time>
      </trkpt>
      <trkpt lat="43.02058" lon="0.19183">
        <ele>1257.8</ele>
        <time>2023-11-19T10:34:09Z</time>
      </trkpt>
      <trkpt lat="43.02058" lon="0.19183">
        <ele>1257.8</ele>
        <time>2023-11-19T10:34:10Z</time>
      </trkpt>
      <trkpt lat="43.02058" lon="0.19183">
        <ele>1257.3</ele>
        <time>2023-11-19T10:34:11Z</time>
      </trkpt>
      <trkpt lat="43.02057" lon="0.19183">
        <ele>1257.3</ele>
        <time>2023-11-19T10:34:12Z</time>
      </trkpt>
      <trkpt lat="43.02057" lon="0.19183">
        <ele>1257.3</ele>
        <time>2023-11-19T10:34:13Z</time>
      </trkpt>
      <trkpt lat="43.02057" lon="0.19183">
        <ele>1257.3</ele>
        <time>2023-11-19T10:34:14Z</time>
      </trkpt>
      <trkpt lat="43.02057" lon="0.19183">
        <ele>1257.3</ele>
        <time>2023-11-19T10:34:15Z</time>
      </trkpt>
      <trkpt lat="43.02057" lon="0.19183">
        <ele>1257.3</ele>
        <time>2023-11-19T10:34:16Z</time>
      </trkpt>
      <trkpt lat="43.02057" lon="0.19183">
        <ele>1257.3</ele>
        <time>2023-11-19T10:34:17Z</time>
      </trkpt>
      <trkpt lat="43.02058" lon="0.19183">
        <ele>1257.3</ele>
        <time>2023-11-19T10:34:18Z</time>
      </trkpt>
      <trkpt lat="43.02058" lon="0.19182">
        <ele>1257.3</ele>
        <time>2023-11-19T10:34:19Z</time>
      </trkpt>
      <trkpt lat="43.02057" lon="0.19182">
        <ele>1257.3</ele>
        <time>2023-11-19T10:34:20Z</time>
      </trkpt>
      <trkpt lat="43.02056" lon="0.19182">
        <ele>1257.3</ele>
        <time>2023-11-19T10:34:21Z</time>
      </trkpt>
      <trkpt lat="43.02057" lon="0.19182">
        <ele>1257.4</ele>
        <time>2023-11-19T10:34:22Z</time>
      </trkpt>
      <trkpt lat="43.02058" lon="0.19182">
        <ele>1257.4</ele>
        <time>2023-11-19T10:34:23Z</time>
      </trkpt>
      <trkpt lat="43.02058" lon="0.19181">
        <ele>1257.4</ele>
        <time>2023-11-19T10:34:24Z</time>
      </trkpt>
      <trkpt lat="43.02058" lon="0.19182">
        <ele>1257.4</ele>
        <time>2023-11-19T10:34:25Z</time>
      </trkpt>
      <trkpt lat="43.02057" lon="0.19183">
        <ele>1257.9</ele>
        <time>2023-11-19T10:34:26Z</time>
      </trkpt>
      <trkpt lat="43.02057" lon="0.19182">
        <ele>1257.4</ele>
        <time>2023-11-19T10:34:27Z</time>
      </trkpt>
      <trkpt lat="43.02057" lon="0.19182">
        <ele>1257.4</ele>
        <time>2023-11-19T10:34:28Z</time>
      </trkpt>
      <trkpt lat="43.02057" lon="0.19184">
        <ele>1257.9</ele>
        <time>2023-11-19T10:34:29Z</time>
      </trkpt>
      <trkpt lat="43.02056" lon="0.19182">
        <ele>1257.4</ele>
        <time>2023-11-19T10:34:30Z</time>
      </trkpt>
      <trkpt lat="43.02056" lon="0.19184">
        <ele>1258</ele>
        <time>2023-11-19T10:34:31Z</time>
      </trkpt>
      <trkpt lat="43.02057" lon="0.19184">
        <ele>1258</ele>
        <time>2023-11-19T10:34:32Z</time>
      </trkpt>
      <trkpt lat="43.02057" lon="0.19184">
        <ele>1258</ele>
        <time>2023-11-19T10:34:33Z</time>
      </trkpt>
      <trkpt lat="43.02057" lon="0.19184">
        <ele>1258</ele>
        <time>2023-11-19T10:34:34Z</time>
      </trkpt>
      <trkpt lat="43.02057" lon="0.19184">
        <ele>1258</ele>
        <time>2023-11-19T10:34:35Z</time>
      </trkpt>
      <trkpt lat="43.02057" lon="0.19184">
        <ele>1258</ele>
        <time>2023-11-19T10:34:36Z</time>
      </trkpt>
      <trkpt lat="43.02057" lon="0.19185">
        <ele>1258</ele>
        <time>2023-11-19T10:34:37Z</time>
      </trkpt>
      <trkpt lat="43.02057" lon="0.19184">
        <ele>1258</ele>
        <time>2023-11-19T10:34:38Z</time>
      </trkpt>
      <trkpt lat="43.02057" lon="0.19185">
        <ele>1258</ele>
        <time>2023-11-19T10:34:39Z</time>
      </trkpt>
      <trkpt lat="43.02056" lon="0.19186">
        <ele>1258</ele>
        <time>2023-11-19T10:34:40Z</time>
      </trkpt>
      <trkpt lat="43.02056" lon="0.19187">
        <ele>1258</ele>
        <time>2023-11-19T10:34:41Z</time>
      </trkpt>
      <trkpt lat="43.02056" lon="0.19187">
        <ele>1258</ele>
        <time>2023-11-19T10:34:42Z</time>
      </trkpt>
      <trkpt lat="43.02056" lon="0.19187">
        <ele>1258</ele>
        <time>2023-11-19T10:34:43Z</time>
      </trkpt>
      <trkpt lat="43.02054" lon="0.19188">
        <ele>1259.2</ele>
        <time>2023-11-19T10:34:44Z</time>
      </trkpt>
      <trkpt lat="43.02055" lon="0.19187">
        <ele>1258.6</ele>
        <time>2023-11-19T10:34:45Z</time>
      </trkpt>
      <trkpt lat="43.02055" lon="0.19187">
        <ele>1258.6</ele>
        <time>2023-11-19T10:34:46Z</time>
      </trkpt>
      <trkpt lat="43.02055" lon="0.19187">
        <ele>1258.6</ele>
        <time>2023-11-19T10:34:47Z</time>
      </trkpt>
      <trkpt lat="43.02055" lon="0.19187">
        <ele>1258.6</ele>
        <time>2023-11-19T10:34:48Z</time>
      </trkpt>
      <trkpt lat="43.02056" lon="0.19187">
        <ele>1258.6</ele>
        <time>2023-11-19T10:34:49Z</time>
      </trkpt>
      <trkpt lat="43.02056" lon="0.19187">
        <ele>1258.7</ele>
        <time>2023-11-19T10:34:50Z</time>
      </trkpt>
      <trkpt lat="43.02056" lon="0.19187">
        <ele>1258.7</ele>
        <time>2023-11-19T10:34:51Z</time>
      </trkpt>
      <trkpt lat="43.02056" lon="0.19187">
        <ele>1258.7</ele>
        <time>2023-11-19T10:34:52Z</time>
      </trkpt>
      <trkpt lat="43.02056" lon="0.19187">
        <ele>1258.7</ele>
        <time>2023-11-19T10:34:53Z</time>
      </trkpt>
      <trkpt lat="43.02056" lon="0.19186">
        <ele>1258.1</ele>
        <time>2023-11-19T10:34:54Z</time>
      </trkpt>
      <trkpt lat="43.02056" lon="0.19187">
        <ele>1258.1</ele>
        <time>2023-11-19T10:34:55Z</time>
      </trkpt>
      <trkpt lat="43.02056" lon="0.19187">
        <ele>1258.1</ele>
        <time>2023-11-19T10:34:56Z</time>
      </trkpt>
      <trkpt lat="43.02056" lon="0.19186">
        <ele>1258.1</ele>
        <time>2023-11-19T10:34:57Z</time>
      </trkpt>
      <trkpt lat="43.02056" lon="0.19186">
        <ele>1258.1</ele>
        <time>2023-11-19T10:34:58Z</time>
      </trkpt>
      <trkpt lat="43.02056" lon="0.19186">
        <ele>1258.1</ele>
        <time>2023-11-19T10:34:59Z</time>
      </trkpt>
      <trkpt lat="43.02057" lon="0.19186">
        <ele>1258.1</ele>
        <time>2023-11-19T10:35:00Z</time>
      </trkpt>
      <trkpt lat="43.02056" lon="0.19186">
        <ele>1258.1</ele>
        <time>2023-11-19T10:35:01Z</time>
      </trkpt>
      <trkpt lat="43.02056" lon="0.19186">
        <ele>1258.1</ele>
        <time>2023-11-19T10:35:02Z</time>
      </trkpt>
      <trkpt lat="43.02056" lon="0.19186">
        <ele>1258.1</ele>
        <time>2023-11-19T10:35:03Z</time>
      </trkpt>
      <trkpt lat="43.02057" lon="0.19186">
        <ele>1258.1</ele>
        <time>2023-11-19T10:35:04Z</time>
      </trkpt>
      <trkpt lat="43.02057" lon="0.19186">
        <ele>1258.2</ele>
        <time>2023-11-19T10:35:05Z</time>
      </trkpt>
      <trkpt lat="43.02057" lon="0.19184">
        <ele>1258.2</ele>
        <time>2023-11-19T10:35:06Z</time>
      </trkpt>
      <trkpt lat="43.02057" lon="0.19185">
        <ele>1258.2</ele>
        <time>2023-11-19T10:35:07Z</time>
      </trkpt>
      <trkpt lat="43.02057" lon="0.19185">
        <ele>1258.2</ele>
        <time>2023-11-19T10:35:08Z</time>
      </trkpt>
      <trkpt lat="43.02056" lon="0.19185">
        <ele>1258.2</ele>
        <time>2023-11-19T10:35:09Z</time>
      </trkpt>
      <trkpt lat="43.02056" lon="0.19185">
        <ele>1258.8</ele>
        <time>2023-11-19T10:35:10Z</time>
      </trkpt>
      <trkpt lat="43.02055" lon="0.19185">
        <ele>1258.8</ele>
        <time>2023-11-19T10:35:11Z</time>
      </trkpt>
      <trkpt lat="43.02056" lon="0.19186">
        <ele>1258.8</ele>
        <time>2023-11-19T10:35:12Z</time>
      </trkpt>
      <trkpt lat="43.02056" lon="0.19186">
        <ele>1258.2</ele>
        <time>2023-11-19T10:35:13Z</time>
      </trkpt>
      <trkpt lat="43.02056" lon="0.19186">
        <ele>1258.2</ele>
        <time>2023-11-19T10:35:14Z</time>
      </trkpt>
      <trkpt lat="43.02056" lon="0.19187">
        <ele>1258.2</ele>
        <time>2023-11-19T10:35:15Z</time>
      </trkpt>
      <trkpt lat="43.02056" lon="0.19187">
        <ele>1258.2</ele>
        <time>2023-11-19T10:35:16Z</time>
      </trkpt>
      <trkpt lat="43.02056" lon="0.19186">
        <ele>1258.2</ele>
        <time>2023-11-19T10:35:17Z</time>
      </trkpt>
      <trkpt lat="43.02056" lon="0.19186">
        <ele>1258.2</ele>
        <time>2023-11-19T10:35:18Z</time>
      </trkpt>
      <trkpt lat="43.02056" lon="0.19186">
        <ele>1258.2</ele>
        <time>2023-11-19T10:35:19Z</time>
      </trkpt>
      <trkpt lat="43.02056" lon="0.19186">
        <ele>1258.2</ele>
        <time>2023-11-19T10:35:20Z</time>
      </trkpt>
      <trkpt lat="43.02056" lon="0.19186">
        <ele>1258.2</ele>
        <time>2023-11-19T10:35:21Z</time>
      </trkpt>
      <trkpt lat="43.02056" lon="0.19186">
        <ele>1258.2</ele>
        <time>2023-11-19T10:35:22Z</time>
      </trkpt>
      <trkpt lat="43.02056" lon="0.19186">
        <ele>1258.3</ele>
        <time>2023-11-19T10:35:23Z</time>
      </trkpt>
      <trkpt lat="43.02056" lon="0.19186">
        <ele>1258.3</ele>
        <time>2023-11-19T10:35:24Z</time>
      </trkpt>
      <trkpt lat="43.02056" lon="0.19186">
        <ele>1258.3</ele>
        <time>2023-11-19T10:35:25Z</time>
      </trkpt>
      <trkpt lat="43.02056" lon="0.19186">
        <ele>1258.3</ele>
        <time>2023-11-19T10:35:26Z</time>
      </trkpt>
      <trkpt lat="43.02056" lon="0.19186">
        <ele>1258.3</ele>
        <time>2023-11-19T10:35:27Z</time>
      </trkpt>
      <trkpt lat="43.02056" lon="0.19186">
        <ele>1258.3</ele>
        <time>2023-11-19T10:35:28Z</time>
      </trkpt>
      <trkpt lat="43.02056" lon="0.19186">
        <ele>1258.3</ele>
        <time>2023-11-19T10:35:29Z</time>
      </trkpt>
      <trkpt lat="43.02056" lon="0.19186">
        <ele>1258.3</ele>
        <time>2023-11-19T10:35:30Z</time>
      </trkpt>
      <trkpt lat="43.02056" lon="0.19187">
        <ele>1258.3</ele>
        <time>2023-11-19T10:35:31Z</time>
      </trkpt>
      <trkpt lat="43.02056" lon="0.19186">
        <ele>1258.3</ele>
        <time>2023-11-19T10:35:32Z</time>
      </trkpt>
      <trkpt lat="43.02056" lon="0.19186">
        <ele>1258.3</ele>
        <time>2023-11-19T10:35:33Z</time>
      </trkpt>
      <trkpt lat="43.02056" lon="0.19186">
        <ele>1258.9</ele>
        <time>2023-11-19T10:35:34Z</time>
      </trkpt>
      <trkpt lat="43.02056" lon="0.19186">
        <ele>1258.3</ele>
        <time>2023-11-19T10:35:35Z</time>
      </trkpt>
      <trkpt lat="43.02056" lon="0.19186">
        <ele>1258.3</ele>
        <time>2023-11-19T10:35:36Z</time>
      </trkpt>
      <trkpt lat="43.02056" lon="0.19186">
        <ele>1258.3</ele>
        <time>2023-11-19T10:35:37Z</time>
      </trkpt>
      <trkpt lat="43.02056" lon="0.19186">
        <ele>1258.3</ele>
        <time>2023-11-19T10:35:38Z</time>
      </trkpt>
      <trkpt lat="43.02056" lon="0.19186">
        <ele>1258.3</ele>
        <time>2023-11-19T10:35:39Z</time>
      </trkpt>
      <trkpt lat="43.02056" lon="0.19185">
        <ele>1258.3</ele>
        <time>2023-11-19T10:35:40Z</time>
      </trkpt>
      <trkpt lat="43.02056" lon="0.19186">
        <ele>1258.4</ele>
        <time>2023-11-19T10:35:41Z</time>
      </trkpt>
      <trkpt lat="43.02056" lon="0.19185">
        <ele>1258.4</ele>
        <time>2023-11-19T10:35:42Z</time>
      </trkpt>
      <trkpt lat="43.02056" lon="0.19185">
        <ele>1258.4</ele>
        <time>2023-11-19T10:35:43Z</time>
      </trkpt>
      <trkpt lat="43.02056" lon="0.19185">
        <ele>1258.4</ele>
        <time>2023-11-19T10:35:44Z</time>
      </trkpt>
      <trkpt lat="43.02056" lon="0.19186">
        <ele>1258.4</ele>
        <time>2023-11-19T10:35:45Z</time>
      </trkpt>
      <trkpt lat="43.02056" lon="0.19186">
        <ele>1258.4</ele>
        <time>2023-11-19T10:35:46Z</time>
      </trkpt>
      <trkpt lat="43.02056" lon="0.19186">
        <ele>1258.4</ele>
        <time>2023-11-19T10:35:47Z</time>
      </trkpt>
      <trkpt lat="43.02057" lon="0.19186">
        <ele>1258.4</ele>
        <time>2023-11-19T10:35:48Z</time>
      </trkpt>
      <trkpt lat="43.02056" lon="0.19186">
        <ele>1258.4</ele>
        <time>2023-11-19T10:35:49Z</time>
      </trkpt>
      <trkpt lat="43.02056" lon="0.19186">
        <ele>1258.4</ele>
        <time>2023-11-19T10:35:50Z</time>
      </trkpt>
      <trkpt lat="43.02056" lon="0.19186">
        <ele>1258.4</ele>
        <time>2023-11-19T10:35:51Z</time>
      </trkpt>
      <trkpt lat="43.02056" lon="0.19186">
        <ele>1258.4</ele>
        <time>2023-11-19T10:35:52Z</time>
      </trkpt>
      <trkpt lat="43.02056" lon="0.19186">
        <ele>1258.4</ele>
        <time>2023-11-19T10:35:53Z</time>
      </trkpt>
      <trkpt lat="43.02056" lon="0.19186">
        <ele>1258.4</ele>
        <time>2023-11-19T10:35:54Z</time>
      </trkpt>
      <trkpt lat="43.02056" lon="0.19186">
        <ele>1258.4</ele>
        <time>2023-11-19T10:35:55Z</time>
      </trkpt>
      <trkpt lat="43.02056" lon="0.19186">
        <ele>1258.4</ele>
        <time>2023-11-19T10:35:56Z</time>
      </trkpt>
      <trkpt lat="43.02057" lon="0.19186">
        <ele>1258.4</ele>
        <time>2023-11-19T10:35:57Z</time>
      </trkpt>
      <trkpt lat="43.02057" lon="0.19185">
        <ele>1258.5</ele>
        <time>2023-11-19T10:35:58Z</time>
      </trkpt>
      <trkpt lat="43.02057" lon="0.19185">
        <ele>1258.5</ele>
        <time>2023-11-19T10:35:59Z</time>
      </trkpt>
      <trkpt lat="43.02057" lon="0.19185">
        <ele>1258.5</ele>
        <time>2023-11-19T10:36:00Z</time>
      </trkpt>
      <trkpt lat="43.02057" lon="0.19185">
        <ele>1258.5</ele>
        <time>2023-11-19T10:36:01Z</time>
      </trkpt>
      <trkpt lat="43.02057" lon="0.19185">
        <ele>1258.5</ele>
        <time>2023-11-19T10:36:02Z</time>
      </trkpt>
      <trkpt lat="43.02057" lon="0.19185">
        <ele>1258.5</ele>
        <time>2023-11-19T10:36:03Z</time>
      </trkpt>
      <trkpt lat="43.02057" lon="0.19185">
        <ele>1258.5</ele>
        <time>2023-11-19T10:36:04Z</time>
      </trkpt>
      <trkpt lat="43.02056" lon="0.19185">
        <ele>1258.5</ele>
        <time>2023-11-19T10:36:05Z</time>
      </trkpt>
      <trkpt lat="43.02056" lon="0.19184">
        <ele>1258.5</ele>
        <time>2023-11-19T10:36:06Z</time>
      </trkpt>
      <trkpt lat="43.02057" lon="0.19182">
        <ele>1257.9</ele>
        <time>2023-11-19T10:36:07Z</time>
      </trkpt>
      <trkpt lat="43.02057" lon="0.19181">
        <ele>1257.9</ele>
        <time>2023-11-19T10:36:08Z</time>
      </trkpt>
      <trkpt lat="43.02057" lon="0.1918">
        <ele>1258</ele>
        <time>2023-11-19T10:36:09Z</time>
      </trkpt>
      <trkpt lat="43.02057" lon="0.1918">
        <ele>1258</ele>
        <time>2023-11-19T10:36:10Z</time>
      </trkpt>
      <trkpt lat="43.02057" lon="0.1918">
        <ele>1258</ele>
        <time>2023-11-19T10:36:11Z</time>
      </trkpt>
      <trkpt lat="43.02057" lon="0.1918">
        <ele>1258</ele>
        <time>2023-11-19T10:36:12Z</time>
      </trkpt>
      <trkpt lat="43.02057" lon="0.19181">
        <ele>1258</ele>
        <time>2023-11-19T10:36:13Z</time>
      </trkpt>
      <trkpt lat="43.02057" lon="0.1918">
        <ele>1258</ele>
        <time>2023-11-19T10:36:14Z</time>
      </trkpt>
      <trkpt lat="43.02057" lon="0.19181">
        <ele>1258</ele>
        <time>2023-11-19T10:36:15Z</time>
      </trkpt>
      <trkpt lat="43.02057" lon="0.19181">
        <ele>1258</ele>
        <time>2023-11-19T10:36:16Z</time>
      </trkpt>
      <trkpt lat="43.02057" lon="0.19181">
        <ele>1258</ele>
        <time>2023-11-19T10:36:17Z</time>
      </trkpt>
      <trkpt lat="43.02057" lon="0.19181">
        <ele>1258</ele>
        <time>2023-11-19T10:36:18Z</time>
      </trkpt>
      <trkpt lat="43.02057" lon="0.19182">
        <ele>1258</ele>
        <time>2023-11-19T10:36:19Z</time>
      </trkpt>
      <trkpt lat="43.02057" lon="0.19182">
        <ele>1258</ele>
        <time>2023-11-19T10:36:20Z</time>
      </trkpt>
      <trkpt lat="43.02057" lon="0.19183">
        <ele>1258</ele>
        <time>2023-11-19T10:36:21Z</time>
      </trkpt>
      <trkpt lat="43.02058" lon="0.19184">
        <ele>1258.6</ele>
        <time>2023-11-19T10:36:22Z</time>
      </trkpt>
      <trkpt lat="43.02058" lon="0.19185">
        <ele>1258.6</ele>
        <time>2023-11-19T10:36:23Z</time>
      </trkpt>
      <trkpt lat="43.02058" lon="0.19185">
        <ele>1258.6</ele>
        <time>2023-11-19T10:36:24Z</time>
      </trkpt>
      <trkpt lat="43.02058" lon="0.19186">
        <ele>1258.6</ele>
        <time>2023-11-19T10:36:25Z</time>
      </trkpt>
      <trkpt lat="43.02057" lon="0.19186">
        <ele>1258.6</ele>
        <time>2023-11-19T10:36:26Z</time>
      </trkpt>
      <trkpt lat="43.02056" lon="0.19186">
        <ele>1258.6</ele>
        <time>2023-11-19T10:36:27Z</time>
      </trkpt>
      <trkpt lat="43.02057" lon="0.19186">
        <ele>1258.6</ele>
        <time>2023-11-19T10:36:28Z</time>
      </trkpt>
      <trkpt lat="43.02057" lon="0.19185">
        <ele>1258.6</ele>
        <time>2023-11-19T10:36:29Z</time>
      </trkpt>
      <trkpt lat="43.02057" lon="0.19186">
        <ele>1258.6</ele>
        <time>2023-11-19T10:36:30Z</time>
      </trkpt>
      <trkpt lat="43.02057" lon="0.19186">
        <ele>1258.6</ele>
        <time>2023-11-19T10:36:31Z</time>
      </trkpt>
      <trkpt lat="43.02057" lon="0.19186">
        <ele>1258.6</ele>
        <time>2023-11-19T10:36:32Z</time>
      </trkpt>
      <trkpt lat="43.02057" lon="0.19185">
        <ele>1258.6</ele>
        <time>2023-11-19T10:36:33Z</time>
      </trkpt>
      <trkpt lat="43.02057" lon="0.19186">
        <ele>1258.7</ele>
        <time>2023-11-19T10:36:34Z</time>
      </trkpt>
      <trkpt lat="43.02057" lon="0.19186">
        <ele>1258.7</ele>
        <time>2023-11-19T10:36:35Z</time>
      </trkpt>
      <trkpt lat="43.02057" lon="0.19186">
        <ele>1258.7</ele>
        <time>2023-11-19T10:36:36Z</time>
      </trkpt>
      <trkpt lat="43.02057" lon="0.19185">
        <ele>1258.7</ele>
        <time>2023-11-19T10:36:37Z</time>
      </trkpt>
      <trkpt lat="43.02058" lon="0.19184">
        <ele>1258.7</ele>
        <time>2023-11-19T10:36:38Z</time>
      </trkpt>
      <trkpt lat="43.02059" lon="0.19183">
        <ele>1258.1</ele>
        <time>2023-11-19T10:36:39Z</time>
      </trkpt>
      <trkpt lat="43.02059" lon="0.19181">
        <ele>1258.1</ele>
        <time>2023-11-19T10:36:40Z</time>
      </trkpt>
      <trkpt lat="43.02061" lon="0.19181">
        <ele>1257.5</ele>
        <time>2023-11-19T10:36:41Z</time>
      </trkpt>
      <trkpt lat="43.02062" lon="0.19182">
        <ele>1256.9</ele>
        <time>2023-11-19T10:36:42Z</time>
      </trkpt>
      <trkpt lat="43.02062" lon="0.19182">
        <ele>1256.9</ele>
        <time>2023-11-19T10:36:43Z</time>
      </trkpt>
      <trkpt lat="43.02064" lon="0.19181">
        <ele>1256.9</ele>
        <time>2023-11-19T10:36:44Z</time>
      </trkpt>
      <trkpt lat="43.02063" lon="0.19181">
        <ele>1256.9</ele>
        <time>2023-11-19T10:36:45Z</time>
      </trkpt>
      <trkpt lat="43.02063" lon="0.19181">
        <ele>1256.9</ele>
        <time>2023-11-19T10:36:46Z</time>
      </trkpt>
      <trkpt lat="43.02061" lon="0.19181">
        <ele>1257.6</ele>
        <time>2023-11-19T10:36:47Z</time>
      </trkpt>
      <trkpt lat="43.02061" lon="0.19181">
        <ele>1257.6</ele>
        <time>2023-11-19T10:36:48Z</time>
      </trkpt>
      <trkpt lat="43.0206" lon="0.19181">
        <ele>1257.6</ele>
        <time>2023-11-19T10:36:49Z</time>
      </trkpt>
      <trkpt lat="43.0206" lon="0.19181">
        <ele>1257.6</ele>
        <time>2023-11-19T10:36:50Z</time>
      </trkpt>
      <trkpt lat="43.0206" lon="0.19181">
        <ele>1257.6</ele>
        <time>2023-11-19T10:36:51Z</time>
      </trkpt>
      <trkpt lat="43.0206" lon="0.19182">
        <ele>1257.6</ele>
        <time>2023-11-19T10:36:52Z</time>
      </trkpt>
      <trkpt lat="43.0206" lon="0.19182">
        <ele>1257.6</ele>
        <time>2023-11-19T10:36:53Z</time>
      </trkpt>
      <trkpt lat="43.0206" lon="0.19182">
        <ele>1257.6</ele>
        <time>2023-11-19T10:36:54Z</time>
      </trkpt>
      <trkpt lat="43.0206" lon="0.19182">
        <ele>1257.6</ele>
        <time>2023-11-19T10:36:55Z</time>
      </trkpt>
      <trkpt lat="43.02059" lon="0.19182">
        <ele>1258.2</ele>
        <time>2023-11-19T10:36:56Z</time>
      </trkpt>
      <trkpt lat="43.02059" lon="0.19182">
        <ele>1258.2</ele>
        <time>2023-11-19T10:36:57Z</time>
      </trkpt>
      <trkpt lat="43.02059" lon="0.19182">
        <ele>1258.2</ele>
        <time>2023-11-19T10:36:58Z</time>
      </trkpt>
      <trkpt lat="43.02059" lon="0.19182">
        <ele>1258.2</ele>
        <time>2023-11-19T10:36:59Z</time>
      </trkpt>
      <trkpt lat="43.02059" lon="0.19182">
        <ele>1258.2</ele>
        <time>2023-11-19T10:37:00Z</time>
      </trkpt>
      <trkpt lat="43.02059" lon="0.19182">
        <ele>1258.2</ele>
        <time>2023-11-19T10:37:01Z</time>
      </trkpt>
      <trkpt lat="43.02059" lon="0.19182">
        <ele>1258.3</ele>
        <time>2023-11-19T10:37:02Z</time>
      </trkpt>
      <trkpt lat="43.02059" lon="0.19182">
        <ele>1258.3</ele>
        <time>2023-11-19T10:37:03Z</time>
      </trkpt>
      <trkpt lat="43.02059" lon="0.19182">
        <ele>1258.3</ele>
        <time>2023-11-19T10:37:04Z</time>
      </trkpt>
      <trkpt lat="43.02059" lon="0.19182">
        <ele>1258.3</ele>
        <time>2023-11-19T10:37:05Z</time>
      </trkpt>
      <trkpt lat="43.02059" lon="0.19182">
        <ele>1258.3</ele>
        <time>2023-11-19T10:37:06Z</time>
      </trkpt>
      <trkpt lat="43.02059" lon="0.19182">
        <ele>1258.3</ele>
        <time>2023-11-19T10:37:07Z</time>
      </trkpt>
      <trkpt lat="43.02059" lon="0.19182">
        <ele>1258.3</ele>
        <time>2023-11-19T10:37:08Z</time>
      </trkpt>
      <trkpt lat="43.02059" lon="0.19182">
        <ele>1258.3</ele>
        <time>2023-11-19T10:37:09Z</time>
      </trkpt>
      <trkpt lat="43.02057" lon="0.19181">
        <ele>1258.3</ele>
        <time>2023-11-19T10:37:10Z</time>
      </trkpt>
      <trkpt lat="43.02057" lon="0.19181">
        <ele>1258.3</ele>
        <time>2023-11-19T10:37:11Z</time>
      </trkpt>
      <trkpt lat="43.02057" lon="0.19181">
        <ele>1258.3</ele>
        <time>2023-11-19T10:37:12Z</time>
      </trkpt>
      <trkpt lat="43.02057" lon="0.19181">
        <ele>1258.3</ele>
        <time>2023-11-19T10:37:13Z</time>
      </trkpt>
      <trkpt lat="43.02057" lon="0.19181">
        <ele>1258.3</ele>
        <time>2023-11-19T10:37:14Z</time>
      </trkpt>
      <trkpt lat="43.02053" lon="0.19259">
        <ele>1259.9</ele>
        <time>2023-11-19T11:45:26Z</time>
      </trkpt>
      <trkpt lat="43.02052" lon="0.1926">
        <ele>1260.2</ele>
        <time>2023-11-19T11:45:27Z</time>
      </trkpt>
      <trkpt lat="43.02052" lon="0.19262">
        <ele>1260</ele>
        <time>2023-11-19T11:45:28Z</time>
      </trkpt>
      <trkpt lat="43.02052" lon="0.19263">
        <ele>1260</ele>
        <time>2023-11-19T11:45:29Z</time>
      </trkpt>
      <trkpt lat="43.02051" lon="0.19265">
        <ele>1259.7</ele>
        <time>2023-11-19T11:45:30Z</time>
      </trkpt>
      <trkpt lat="43.02052" lon="0.19268">
        <ele>1259.7</ele>
        <time>2023-11-19T11:45:31Z</time>
      </trkpt>
      <trkpt lat="43.02052" lon="0.19269">
        <ele>1259.4</ele>
        <time>2023-11-19T11:45:32Z</time>
      </trkpt>
      <trkpt lat="43.02052" lon="0.19271">
        <ele>1259.4</ele>
        <time>2023-11-19T11:45:33Z</time>
      </trkpt>
      <trkpt lat="43.02052" lon="0.19273">
        <ele>1259.4</ele>
        <time>2023-11-19T11:45:34Z</time>
      </trkpt>
      <trkpt lat="43.02052" lon="0.19274">
        <ele>1259.1</ele>
        <time>2023-11-19T11:45:35Z</time>
      </trkpt>
      <trkpt lat="43.02052" lon="0.19274">
        <ele>1259.1</ele>
        <time>2023-11-19T11:45:36Z</time>
      </trkpt>
      <trkpt lat="43.02052" lon="0.19276">
        <ele>1259.1</ele>
        <time>2023-11-19T11:45:37Z</time>
      </trkpt>
      <trkpt lat="43.02053" lon="0.19277">
        <ele>1258.8</ele>
        <time>2023-11-19T11:45:38Z</time>
      </trkpt>
      <trkpt lat="43.02052" lon="0.19278">
        <ele>1258.8</ele>
        <time>2023-11-19T11:45:39Z</time>
      </trkpt>
      <trkpt lat="43.02052" lon="0.19279">
        <ele>1258.8</ele>
        <time>2023-11-19T11:45:40Z</time>
      </trkpt>
      <trkpt lat="43.02052" lon="0.1928">
        <ele>1258.8</ele>
        <time>2023-11-19T11:45:41Z</time>
      </trkpt>
      <trkpt lat="43.02051" lon="0.19281">
        <ele>1258.8</ele>
        <time>2023-11-19T11:45:42Z</time>
      </trkpt>
      <trkpt lat="43.02051" lon="0.19282">
        <ele>1258.5</ele>
        <time>2023-11-19T11:45:43Z</time>
      </trkpt>
      <trkpt lat="43.02051" lon="0.19284">
        <ele>1258.5</ele>
        <time>2023-11-19T11:45:44Z</time>
      </trkpt>
      <trkpt lat="43.02051" lon="0.19285">
        <ele>1258.5</ele>
        <time>2023-11-19T11:45:45Z</time>
      </trkpt>
      <trkpt lat="43.02051" lon="0.19287">
        <ele>1258.2</ele>
        <time>2023-11-19T11:45:46Z</time>
      </trkpt>
      <trkpt lat="43.02052" lon="0.19288">
        <ele>1258.2</ele>
        <time>2023-11-19T11:45:47Z</time>
      </trkpt>
      <trkpt lat="43.02052" lon="0.1929">
        <ele>1258.2</ele>
        <time>2023-11-19T11:45:48Z</time>
      </trkpt>
      <trkpt lat="43.02053" lon="0.19291">
        <ele>1257.8</ele>
        <time>2023-11-19T11:45:49Z</time>
      </trkpt>
      <trkpt lat="43.02054" lon="0.19293">
        <ele>1257.5</ele>
        <time>2023-11-19T11:45:50Z</time>
      </trkpt>
      <trkpt lat="43.02054" lon="0.19293">
        <ele>1257.5</ele>
        <time>2023-11-19T11:45:51Z</time>
      </trkpt>
      <trkpt lat="43.02055" lon="0.19294">
        <ele>1257.5</ele>
        <time>2023-11-19T11:45:52Z</time>
      </trkpt>
      <trkpt lat="43.02055" lon="0.19295">
        <ele>1257.2</ele>
        <time>2023-11-19T11:45:53Z</time>
      </trkpt>
      <trkpt lat="43.02055" lon="0.19297">
        <ele>1257.2</ele>
        <time>2023-11-19T11:45:54Z</time>
      </trkpt>
      <trkpt lat="43.02056" lon="0.19298">
        <ele>1257.2</ele>
        <time>2023-11-19T11:45:55Z</time>
      </trkpt>
      <trkpt lat="43.02056" lon="0.19298">
        <ele>1257.2</ele>
        <time>2023-11-19T11:45:56Z</time>
      </trkpt>
      <trkpt lat="43.02056" lon="0.19298">
        <ele>1256.8</ele>
        <time>2023-11-19T11:45:57Z</time>
      </trkpt>
      <trkpt lat="43.02056" lon="0.19299">
        <ele>1256.8</ele>
        <time>2023-11-19T11:45:58Z</time>
      </trkpt>
      <trkpt lat="43.02057" lon="0.19299">
        <ele>1256.4</ele>
        <time>2023-11-19T11:45:59Z</time>
      </trkpt>
      <trkpt lat="43.02057" lon="0.19299">
        <ele>1256.4</ele>
        <time>2023-11-19T11:46:00Z</time>
      </trkpt>
      <trkpt lat="43.02057" lon="0.19299">
        <ele>1256.4</ele>
        <time>2023-11-19T11:46:01Z</time>
      </trkpt>
      <trkpt lat="43.02057" lon="0.193">
        <ele>1256.4</ele>
        <time>2023-11-19T11:46:02Z</time>
      </trkpt>
      <trkpt lat="43.02057" lon="0.19301">
        <ele>1256.5</ele>
        <time>2023-11-19T11:46:03Z</time>
      </trkpt>
      <trkpt lat="43.02057" lon="0.19301">
        <ele>1256.5</ele>
        <time>2023-11-19T11:46:04Z</time>
      </trkpt>
      <trkpt lat="43.02058" lon="0.19301">
        <ele>1256.5</ele>
        <time>2023-11-19T11:46:05Z</time>
      </trkpt>
      <trkpt lat="43.02059" lon="0.19302">
        <ele>1256.5</ele>
        <time>2023-11-19T11:46:06Z</time>
      </trkpt>
      <trkpt lat="43.02059" lon="0.19303">
        <ele>1256</ele>
        <time>2023-11-19T11:46:07Z</time>
      </trkpt>
      <trkpt lat="43.0206" lon="0.19303">
        <ele>1256</ele>
        <time>2023-11-19T11:46:08Z</time>
      </trkpt>
      <trkpt lat="43.02062" lon="0.19305">
        <ele>1255.6</ele>
        <time>2023-11-19T11:46:09Z</time>
      </trkpt>
      <trkpt lat="43.02063" lon="0.19305">
        <ele>1255.2</ele>
        <time>2023-11-19T11:46:10Z</time>
      </trkpt>
      <trkpt lat="43.02063" lon="0.19305">
        <ele>1255.2</ele>
        <time>2023-11-19T11:46:11Z</time>
      </trkpt>
      <trkpt lat="43.02065" lon="0.19306">
        <ele>1255.2</ele>
        <time>2023-11-19T11:46:12Z</time>
      </trkpt>
      <trkpt lat="43.02065" lon="0.19306">
        <ele>1254.7</ele>
        <time>2023-11-19T11:46:13Z</time>
      </trkpt>
      <trkpt lat="43.02066" lon="0.19307">
        <ele>1254.7</ele>
        <time>2023-11-19T11:46:14Z</time>
      </trkpt>
      <trkpt lat="43.02066" lon="0.19307">
        <ele>1254.7</ele>
        <time>2023-11-19T11:46:15Z</time>
      </trkpt>
      <trkpt lat="43.02066" lon="0.19308">
        <ele>1254.7</ele>
        <time>2023-11-19T11:46:16Z</time>
      </trkpt>
      <trkpt lat="43.02067" lon="0.19308">
        <ele>1254.3</ele>
        <time>2023-11-19T11:46:17Z</time>
      </trkpt>
      <trkpt lat="43.02067" lon="0.19308">
        <ele>1254.3</ele>
        <time>2023-11-19T11:46:18Z</time>
      </trkpt>
      <trkpt lat="43.02068" lon="0.19309">
        <ele>1254.3</ele>
        <time>2023-11-19T11:46:19Z</time>
      </trkpt>
      <trkpt lat="43.02069" lon="0.1931">
        <ele>1253.8</ele>
        <time>2023-11-19T11:46:20Z</time>
      </trkpt>
      <trkpt lat="43.0207" lon="0.19311">
        <ele>1253.9</ele>
        <time>2023-11-19T11:46:21Z</time>
      </trkpt>
      <trkpt lat="43.02071" lon="0.19315">
        <ele>1253.4</ele>
        <time>2023-11-19T11:46:22Z</time>
      </trkpt>
      <trkpt lat="43.02072" lon="0.19317">
        <ele>1252.1</ele>
        <time>2023-11-19T11:46:23Z</time>
      </trkpt>
      <trkpt lat="43.02072" lon="0.19318">
        <ele>1252.1</ele>
        <time>2023-11-19T11:46:24Z</time>
      </trkpt>
      <trkpt lat="43.02072" lon="0.19318">
        <ele>1252.1</ele>
        <time>2023-11-19T11:46:25Z</time>
      </trkpt>
      <trkpt lat="43.02072" lon="0.19319">
        <ele>1252.2</ele>
        <time>2023-11-19T11:46:26Z</time>
      </trkpt>
      <trkpt lat="43.02073" lon="0.19321">
        <ele>1251.6</ele>
        <time>2023-11-19T11:46:27Z</time>
      </trkpt>
      <trkpt lat="43.02073" lon="0.19322">
        <ele>1251.6</ele>
        <time>2023-11-19T11:46:28Z</time>
      </trkpt>
      <trkpt lat="43.02074" lon="0.19323">
        <ele>1251.6</ele>
        <time>2023-11-19T11:46:29Z</time>
      </trkpt>
      <trkpt lat="43.02074" lon="0.19323">
        <ele>1251.6</ele>
        <time>2023-11-19T11:46:30Z</time>
      </trkpt>
      <trkpt lat="43.02073" lon="0.19323">
        <ele>1251.7</ele>
        <time>2023-11-19T11:46:31Z</time>
      </trkpt>
      <trkpt lat="43.02073" lon="0.19324">
        <ele>1251.7</ele>
        <time>2023-11-19T11:46:32Z</time>
      </trkpt>
      <trkpt lat="43.02074" lon="0.19325">
        <ele>1251.1</ele>
        <time>2023-11-19T11:46:33Z</time>
      </trkpt>
      <trkpt lat="43.02074" lon="0.19325">
        <ele>1251.1</ele>
        <time>2023-11-19T11:46:34Z</time>
      </trkpt>
      <trkpt lat="43.02074" lon="0.19326">
        <ele>1251.1</ele>
        <time>2023-11-19T11:46:35Z</time>
      </trkpt>
      <trkpt lat="43.02075" lon="0.19327">
        <ele>1250.5</ele>
        <time>2023-11-19T11:46:36Z</time>
      </trkpt>
      <trkpt lat="43.02075" lon="0.19328">
        <ele>1250.5</ele>
        <time>2023-11-19T11:46:37Z</time>
      </trkpt>
      <trkpt lat="43.02076" lon="0.19328">
        <ele>1250.5</ele>
        <time>2023-11-19T11:46:38Z</time>
      </trkpt>
      <trkpt lat="43.02076" lon="0.19329">
        <ele>1250.5</ele>
        <time>2023-11-19T11:46:39Z</time>
      </trkpt>
      <trkpt lat="43.02076" lon="0.19329">
        <ele>1250.5</ele>
        <time>2023-11-19T11:46:40Z</time>
      </trkpt>
      <trkpt lat="43.02076" lon="0.1933">
        <ele>1250</ele>
        <time>2023-11-19T11:46:41Z</time>
      </trkpt>
      <trkpt lat="43.02076" lon="0.1933">
        <ele>1250</ele>
        <time>2023-11-19T11:46:42Z</time>
      </trkpt>
      <trkpt lat="43.02077" lon="0.19331">
        <ele>1250</ele>
        <time>2023-11-19T11:46:43Z</time>
      </trkpt>
      <trkpt lat="43.02077" lon="0.19331">
        <ele>1250</ele>
        <time>2023-11-19T11:46:44Z</time>
      </trkpt>
      <trkpt lat="43.02078" lon="0.19332">
        <ele>1249.3</ele>
        <time>2023-11-19T11:46:45Z</time>
      </trkpt>
      <trkpt lat="43.02078" lon="0.19332">
        <ele>1249.3</ele>
        <time>2023-11-19T11:46:46Z</time>
      </trkpt>
      <trkpt lat="43.02078" lon="0.19334">
        <ele>1248.7</ele>
        <time>2023-11-19T11:46:47Z</time>
      </trkpt>
      <trkpt lat="43.02078" lon="0.19335">
        <ele>1248.7</ele>
        <time>2023-11-19T11:46:48Z</time>
      </trkpt>
      <trkpt lat="43.02078" lon="0.19336">
        <ele>1248.7</ele>
        <time>2023-11-19T11:46:49Z</time>
      </trkpt>
      <trkpt lat="43.02078" lon="0.19338">
        <ele>1248.8</ele>
        <time>2023-11-19T11:46:50Z</time>
      </trkpt>
      <trkpt lat="43.02077" lon="0.19339">
        <ele>1248.8</ele>
        <time>2023-11-19T11:46:51Z</time>
      </trkpt>
      <trkpt lat="43.02077" lon="0.19341">
        <ele>1248.8</ele>
        <time>2023-11-19T11:46:52Z</time>
      </trkpt>
      <trkpt lat="43.02077" lon="0.19342">
        <ele>1248.2</ele>
        <time>2023-11-19T11:46:53Z</time>
      </trkpt>
      <trkpt lat="43.02076" lon="0.19345">
        <ele>1248.2</ele>
        <time>2023-11-19T11:46:54Z</time>
      </trkpt>
      <trkpt lat="43.02075" lon="0.19346">
        <ele>1248.2</ele>
        <time>2023-11-19T11:46:55Z</time>
      </trkpt>
      <trkpt lat="43.02075" lon="0.19348">
        <ele>1247.6</ele>
        <time>2023-11-19T11:46:56Z</time>
      </trkpt>
      <trkpt lat="43.02074" lon="0.1935">
        <ele>1248.3</ele>
        <time>2023-11-19T11:46:57Z</time>
      </trkpt>
      <trkpt lat="43.02074" lon="0.19352">
        <ele>1247.7</ele>
        <time>2023-11-19T11:46:58Z</time>
      </trkpt>
      <trkpt lat="43.02074" lon="0.19354">
        <ele>1247.7</ele>
        <time>2023-11-19T11:46:59Z</time>
      </trkpt>
      <trkpt lat="43.02073" lon="0.19356">
        <ele>1247</ele>
        <time>2023-11-19T11:47:00Z</time>
      </trkpt>
      <trkpt lat="43.02073" lon="0.19357">
        <ele>1247</ele>
        <time>2023-11-19T11:47:01Z</time>
      </trkpt>
      <trkpt lat="43.02072" lon="0.19359">
        <ele>1247.1</ele>
        <time>2023-11-19T11:47:02Z</time>
      </trkpt>
      <trkpt lat="43.02071" lon="0.1936">
        <ele>1247.3</ele>
        <time>2023-11-19T11:47:03Z</time>
      </trkpt>
      <trkpt lat="43.02071" lon="0.19361">
        <ele>1247.3</ele>
        <time>2023-11-19T11:47:04Z</time>
      </trkpt>
      <trkpt lat="43.0207" lon="0.19363">
        <ele>1247.3</ele>
        <time>2023-11-19T11:47:05Z</time>
      </trkpt>
      <trkpt lat="43.0207" lon="0.19364">
        <ele>1246.6</ele>
        <time>2023-11-19T11:47:06Z</time>
      </trkpt>
      <trkpt lat="43.0207" lon="0.19366">
        <ele>1246.6</ele>
        <time>2023-11-19T11:47:07Z</time>
      </trkpt>
      <trkpt lat="43.02069" lon="0.19367">
        <ele>1246.6</ele>
        <time>2023-11-19T11:47:08Z</time>
      </trkpt>
      <trkpt lat="43.02068" lon="0.19367">
        <ele>1246.6</ele>
        <time>2023-11-19T11:47:09Z</time>
      </trkpt>
      <trkpt lat="43.02068" lon="0.19368">
        <ele>1246.5</ele>
        <time>2023-11-19T11:47:10Z</time>
      </trkpt>
      <trkpt lat="43.02067" lon="0.1937">
        <ele>1246.5</ele>
        <time>2023-11-19T11:47:11Z</time>
      </trkpt>
      <trkpt lat="43.02067" lon="0.19371">
        <ele>1246.5</ele>
        <time>2023-11-19T11:47:12Z</time>
      </trkpt>
      <trkpt lat="43.02067" lon="0.19372">
        <ele>1245.8</ele>
        <time>2023-11-19T11:47:13Z</time>
      </trkpt>
      <trkpt lat="43.02067" lon="0.19373">
        <ele>1245.8</ele>
        <time>2023-11-19T11:47:14Z</time>
      </trkpt>
      <trkpt lat="43.02065" lon="0.19374">
        <ele>1245.9</ele>
        <time>2023-11-19T11:47:15Z</time>
      </trkpt>
      <trkpt lat="43.02066" lon="0.19374">
        <ele>1245.9</ele>
        <time>2023-11-19T11:47:16Z</time>
      </trkpt>
      <trkpt lat="43.02066" lon="0.19375">
        <ele>1245.9</ele>
        <time>2023-11-19T11:47:17Z</time>
      </trkpt>
      <trkpt lat="43.02066" lon="0.19376">
        <ele>1245.9</ele>
        <time>2023-11-19T11:47:18Z</time>
      </trkpt>
      <trkpt lat="43.02065" lon="0.19376">
        <ele>1245.2</ele>
        <time>2023-11-19T11:47:19Z</time>
      </trkpt>
      <trkpt lat="43.02065" lon="0.19377">
        <ele>1245.2</ele>
        <time>2023-11-19T11:47:20Z</time>
      </trkpt>
      <trkpt lat="43.02065" lon="0.19377">
        <ele>1245.9</ele>
        <time>2023-11-19T11:47:21Z</time>
      </trkpt>
      <trkpt lat="43.02064" lon="0.19378">
        <ele>1245.9</ele>
        <time>2023-11-19T11:47:22Z</time>
      </trkpt>
      <trkpt lat="43.02063" lon="0.1938">
        <ele>1245.9</ele>
        <time>2023-11-19T11:47:23Z</time>
      </trkpt>
      <trkpt lat="43.02063" lon="0.1938">
        <ele>1245.9</ele>
        <time>2023-11-19T11:47:24Z</time>
      </trkpt>
      <trkpt lat="43.02062" lon="0.19381">
        <ele>1245.2</ele>
        <time>2023-11-19T11:47:25Z</time>
      </trkpt>
      <trkpt lat="43.02063" lon="0.19381">
        <ele>1245.2</ele>
        <time>2023-11-19T11:47:26Z</time>
      </trkpt>
      <trkpt lat="43.02062" lon="0.19382">
        <ele>1245.3</ele>
        <time>2023-11-19T11:47:27Z</time>
      </trkpt>
      <trkpt lat="43.02062" lon="0.19383">
        <ele>1245.9</ele>
        <time>2023-11-19T11:47:28Z</time>
      </trkpt>
      <trkpt lat="43.02062" lon="0.19385">
        <ele>1245.9</ele>
        <time>2023-11-19T11:47:29Z</time>
      </trkpt>
      <trkpt lat="43.02061" lon="0.19386">
        <ele>1245.3</ele>
        <time>2023-11-19T11:47:30Z</time>
      </trkpt>
      <trkpt lat="43.02061" lon="0.19388">
        <ele>1245.3</ele>
        <time>2023-11-19T11:47:31Z</time>
      </trkpt>
      <trkpt lat="43.02061" lon="0.19389">
        <ele>1245.3</ele>
        <time>2023-11-19T11:47:32Z</time>
      </trkpt>
      <trkpt lat="43.02061" lon="0.19389">
        <ele>1245.3</ele>
        <time>2023-11-19T11:47:33Z</time>
      </trkpt>
      <trkpt lat="43.0206" lon="0.19389">
        <ele>1244.7</ele>
        <time>2023-11-19T11:47:34Z</time>
      </trkpt>
      <trkpt lat="43.0206" lon="0.1939">
        <ele>1244.7</ele>
        <time>2023-11-19T11:47:35Z</time>
      </trkpt>
      <trkpt lat="43.0206" lon="0.19392">
        <ele>1244.7</ele>
        <time>2023-11-19T11:47:37Z</time>
      </trkpt>
      <trkpt lat="43.02061" lon="0.19393">
        <ele>1244.7</ele>
        <time>2023-11-19T11:47:38Z</time>
      </trkpt>
      <trkpt lat="43.02061" lon="0.19392">
        <ele>1244.7</ele>
        <time>2023-11-19T11:47:40Z</time>
      </trkpt>
      <trkpt lat="43.02061" lon="0.19392">
        <ele>1244.7</ele>
        <time>2023-11-19T11:47:41Z</time>
      </trkpt>
      <trkpt lat="43.02061" lon="0.19392">
        <ele>1244.7</ele>
        <time>2023-11-19T11:47:42Z</time>
      </trkpt>
      <trkpt lat="43.02061" lon="0.19392">
        <ele>1244.8</ele>
        <time>2023-11-19T11:47:44Z</time>
      </trkpt>
      <trkpt lat="43.02061" lon="0.19392">
        <ele>1244.8</ele>
        <time>2023-11-19T11:47:45Z</time>
      </trkpt>
      <trkpt lat="43.02061" lon="0.19392">
        <ele>1244.8</ele>
        <time>2023-11-19T11:47:46Z</time>
      </trkpt>
      <trkpt lat="43.02061" lon="0.19392">
        <ele>1244.8</ele>
        <time>2023-11-19T11:47:47Z</time>
      </trkpt>
      <trkpt lat="43.02061" lon="0.19392">
        <ele>1244.8</ele>
        <time>2023-11-19T11:47:48Z</time>
      </trkpt>
      <trkpt lat="43.02061" lon="0.19392">
        <ele>1244.8</ele>
        <time>2023-11-19T11:47:49Z</time>
      </trkpt>
      <trkpt lat="43.02061" lon="0.19392">
        <ele>1244.8</ele>
        <time>2023-11-19T11:47:50Z</time>
      </trkpt>
      <trkpt lat="43.02061" lon="0.19392">
        <ele>1244.8</ele>
        <time>2023-11-19T11:47:51Z</time>
      </trkpt>
      <trkpt lat="43.02061" lon="0.19392">
        <ele>1244.8</ele>
        <time>2023-11-19T11:47:52Z</time>
      </trkpt>
      <trkpt lat="43.02062" lon="0.19392">
        <ele>1244.8</ele>
        <time>2023-11-19T11:47:53Z</time>
      </trkpt>
      <trkpt lat="43.02062" lon="0.19392">
        <ele>1244.8</ele>
        <time>2023-11-19T11:47:54Z</time>
      </trkpt>
      <trkpt lat="43.02062" lon="0.19391">
        <ele>1244.8</ele>
        <time>2023-11-19T11:47:55Z</time>
      </trkpt>
      <trkpt lat="43.02062" lon="0.19391">
        <ele>1244.8</ele>
        <time>2023-11-19T11:47:56Z</time>
      </trkpt>
      <trkpt lat="43.02062" lon="0.19391">
        <ele>1244.8</ele>
        <time>2023-11-19T11:47:57Z</time>
      </trkpt>
      <trkpt lat="43.02062" lon="0.19391">
        <ele>1244.8</ele>
        <time>2023-11-19T11:47:58Z</time>
      </trkpt>
      <trkpt lat="43.02062" lon="0.19391">
        <ele>1244.8</ele>
        <time>2023-11-19T11:47:59Z</time>
      </trkpt>
      <trkpt lat="43.02061" lon="0.19393">
        <ele>1244.8</ele>
        <time>2023-11-19T11:48:00Z</time>
      </trkpt>
      <trkpt lat="43.02061" lon="0.19394">
        <ele>1244.2</ele>
        <time>2023-11-19T11:48:01Z</time>
      </trkpt>
      <trkpt lat="43.0206" lon="0.19395">
        <ele>1244.2</ele>
        <time>2023-11-19T11:48:02Z</time>
      </trkpt>
      <trkpt lat="43.0206" lon="0.19397">
        <ele>1244.2</ele>
        <time>2023-11-19T11:48:03Z</time>
      </trkpt>
      <trkpt lat="43.02058" lon="0.19395">
        <ele>1244.9</ele>
        <time>2023-11-19T11:48:04Z</time>
      </trkpt>
      <trkpt lat="43.02058" lon="0.19395">
        <ele>1244.9</ele>
        <time>2023-11-19T11:48:05Z</time>
      </trkpt>
      <trkpt lat="43.02057" lon="0.19395">
        <ele>1244.9</ele>
        <time>2023-11-19T11:48:06Z</time>
      </trkpt>
      <trkpt lat="43.02057" lon="0.19395">
        <ele>1244.9</ele>
        <time>2023-11-19T11:48:07Z</time>
      </trkpt>
      <trkpt lat="43.02057" lon="0.19395">
        <ele>1245</ele>
        <time>2023-11-19T11:48:08Z</time>
      </trkpt>
      <trkpt lat="43.02056" lon="0.19394">
        <ele>1245</ele>
        <time>2023-11-19T11:48:09Z</time>
      </trkpt>
      <trkpt lat="43.02055" lon="0.19394">
        <ele>1245.6</ele>
        <time>2023-11-19T11:48:10Z</time>
      </trkpt>
      <trkpt lat="43.02054" lon="0.19394">
        <ele>1245.6</ele>
        <time>2023-11-19T11:48:11Z</time>
      </trkpt>
      <trkpt lat="43.02054" lon="0.19394">
        <ele>1245.6</ele>
        <time>2023-11-19T11:48:12Z</time>
      </trkpt>
      <trkpt lat="43.02054" lon="0.19394">
        <ele>1245.6</ele>
        <time>2023-11-19T11:48:13Z</time>
      </trkpt>
      <trkpt lat="43.02054" lon="0.19396">
        <ele>1245.6</ele>
        <time>2023-11-19T11:48:14Z</time>
      </trkpt>
      <trkpt lat="43.02054" lon="0.19397">
        <ele>1245.7</ele>
        <time>2023-11-19T11:48:15Z</time>
      </trkpt>
      <trkpt lat="43.02054" lon="0.19399">
        <ele>1245</ele>
        <time>2023-11-19T11:48:16Z</time>
      </trkpt>
      <trkpt lat="43.02054" lon="0.19397">
        <ele>1245.7</ele>
        <time>2023-11-19T11:48:17Z</time>
      </trkpt>
      <trkpt lat="43.02053" lon="0.19398">
        <ele>1245</ele>
        <time>2023-11-19T11:48:18Z</time>
      </trkpt>
      <trkpt lat="43.02053" lon="0.19398">
        <ele>1245.6</ele>
        <time>2023-11-19T11:48:19Z</time>
      </trkpt>
      <trkpt lat="43.02052" lon="0.19397">
        <ele>1246.3</ele>
        <time>2023-11-19T11:48:20Z</time>
      </trkpt>
      <trkpt lat="43.02052" lon="0.19397">
        <ele>1246.3</ele>
        <time>2023-11-19T11:48:21Z</time>
      </trkpt>
      <trkpt lat="43.02052" lon="0.19397">
        <ele>1246.3</ele>
        <time>2023-11-19T11:48:22Z</time>
      </trkpt>
      <trkpt lat="43.02052" lon="0.19397">
        <ele>1246.3</ele>
        <time>2023-11-19T11:48:23Z</time>
      </trkpt>
      <trkpt lat="43.02052" lon="0.19398">
        <ele>1245.7</ele>
        <time>2023-11-19T11:48:24Z</time>
      </trkpt>
      <trkpt lat="43.02052" lon="0.19398">
        <ele>1246.3</ele>
        <time>2023-11-19T11:48:25Z</time>
      </trkpt>
      <trkpt lat="43.02052" lon="0.19398">
        <ele>1246.3</ele>
        <time>2023-11-19T11:48:26Z</time>
      </trkpt>
      <trkpt lat="43.02051" lon="0.19398">
        <ele>1246.3</ele>
        <time>2023-11-19T11:48:27Z</time>
      </trkpt>
      <trkpt lat="43.02049" lon="0.19398">
        <ele>1246.2</ele>
        <time>2023-11-19T11:48:28Z</time>
      </trkpt>
      <trkpt lat="43.02049" lon="0.19399">
        <ele>1246.2</ele>
        <time>2023-11-19T11:48:29Z</time>
      </trkpt>
      <trkpt lat="43.02049" lon="0.194">
        <ele>1246.2</ele>
        <time>2023-11-19T11:48:30Z</time>
      </trkpt>
      <trkpt lat="43.02048" lon="0.19402">
        <ele>1245.6</ele>
        <time>2023-11-19T11:48:31Z</time>
      </trkpt>
      <trkpt lat="43.02047" lon="0.19403">
        <ele>1245.6</ele>
        <time>2023-11-19T11:48:32Z</time>
      </trkpt>
      <trkpt lat="43.02047" lon="0.19405">
        <ele>1245.6</ele>
        <time>2023-11-19T11:48:33Z</time>
      </trkpt>
      <trkpt lat="43.02047" lon="0.19404">
        <ele>1245.6</ele>
        <time>2023-11-19T11:48:34Z</time>
      </trkpt>
      <trkpt lat="43.02046" lon="0.19404">
        <ele>1245.6</ele>
        <time>2023-11-19T11:48:35Z</time>
      </trkpt>
      <trkpt lat="43.02046" lon="0.19404">
        <ele>1245.6</ele>
        <time>2023-11-19T11:48:36Z</time>
      </trkpt>
      <trkpt lat="43.02046" lon="0.19404">
        <ele>1245.6</ele>
        <time>2023-11-19T11:48:37Z</time>
      </trkpt>
      <trkpt lat="43.02046" lon="0.19404">
        <ele>1245.6</ele>
        <time>2023-11-19T11:48:38Z</time>
      </trkpt>
      <trkpt lat="43.02046" lon="0.19404">
        <ele>1245.6</ele>
        <time>2023-11-19T11:48:39Z</time>
      </trkpt>
      <trkpt lat="43.02046" lon="0.19404">
        <ele>1245.6</ele>
        <time>2023-11-19T11:48:40Z</time>
      </trkpt>
      <trkpt lat="43.02047" lon="0.19404">
        <ele>1245.6</ele>
        <time>2023-11-19T11:48:41Z</time>
      </trkpt>
      <trkpt lat="43.02047" lon="0.19405">
        <ele>1245.6</ele>
        <time>2023-11-19T11:48:42Z</time>
      </trkpt>
      <trkpt lat="43.02047" lon="0.19403">
        <ele>1245.6</ele>
        <time>2023-11-19T11:48:43Z</time>
      </trkpt>
      <trkpt lat="43.02047" lon="0.19403">
        <ele>1245.6</ele>
        <time>2023-11-19T11:48:44Z</time>
      </trkpt>
      <trkpt lat="43.02047" lon="0.19403">
        <ele>1245.6</ele>
        <time>2023-11-19T11:48:45Z</time>
      </trkpt>
      <trkpt lat="43.02047" lon="0.19403">
        <ele>1245.6</ele>
        <time>2023-11-19T11:48:46Z</time>
      </trkpt>
      <trkpt lat="43.02047" lon="0.19403">
        <ele>1245.7</ele>
        <time>2023-11-19T11:48:47Z</time>
      </trkpt>
      <trkpt lat="43.02047" lon="0.19403">
        <ele>1245.7</ele>
        <time>2023-11-19T11:48:48Z</time>
      </trkpt>
      <trkpt lat="43.02047" lon="0.19403">
        <ele>1245.7</ele>
        <time>2023-11-19T11:48:49Z</time>
      </trkpt>
      <trkpt lat="43.02047" lon="0.19403">
        <ele>1245.7</ele>
        <time>2023-11-19T11:48:50Z</time>
      </trkpt>
      <trkpt lat="43.02047" lon="0.19403">
        <ele>1245.7</ele>
        <time>2023-11-19T11:48:51Z</time>
      </trkpt>
      <trkpt lat="43.02047" lon="0.19404">
        <ele>1245.7</ele>
        <time>2023-11-19T11:48:52Z</time>
      </trkpt>
      <trkpt lat="43.02047" lon="0.19404">
        <ele>1245.7</ele>
        <time>2023-11-19T11:48:53Z</time>
      </trkpt>
      <trkpt lat="43.02047" lon="0.19404">
        <ele>1245.7</ele>
        <time>2023-11-19T11:48:54Z</time>
      </trkpt>
      <trkpt lat="43.02047" lon="0.19404">
        <ele>1245.7</ele>
        <time>2023-11-19T11:48:55Z</time>
      </trkpt>
      <trkpt lat="43.02046" lon="0.19404">
        <ele>1245.7</ele>
        <time>2023-11-19T11:48:56Z</time>
      </trkpt>
      <trkpt lat="43.02047" lon="0.19404">
        <ele>1245.7</ele>
        <time>2023-11-19T11:48:57Z</time>
      </trkpt>
      <trkpt lat="43.02047" lon="0.19404">
        <ele>1245.7</ele>
        <time>2023-11-19T11:48:58Z</time>
      </trkpt>
      <trkpt lat="43.02047" lon="0.19404">
        <ele>1245.7</ele>
        <time>2023-11-19T11:48:59Z</time>
      </trkpt>
      <trkpt lat="43.02047" lon="0.19405">
        <ele>1245.7</ele>
        <time>2023-11-19T11:49:00Z</time>
      </trkpt>
      <trkpt lat="43.02047" lon="0.19405">
        <ele>1245.7</ele>
        <time>2023-11-19T11:49:01Z</time>
      </trkpt>
      <trkpt lat="43.02046" lon="0.19405">
        <ele>1245.7</ele>
        <time>2023-11-19T11:49:02Z</time>
      </trkpt>
      <trkpt lat="43.02047" lon="0.19405">
        <ele>1245.7</ele>
        <time>2023-11-19T11:49:03Z</time>
      </trkpt>
      <trkpt lat="43.02047" lon="0.19404">
        <ele>1245.7</ele>
        <time>2023-11-19T11:49:04Z</time>
      </trkpt>
      <trkpt lat="43.02047" lon="0.19405">
        <ele>1245.8</ele>
        <time>2023-11-19T11:49:05Z</time>
      </trkpt>
      <trkpt lat="43.02047" lon="0.19405">
        <ele>1245.8</ele>
        <time>2023-11-19T11:49:06Z</time>
      </trkpt>
      <trkpt lat="43.02047" lon="0.19405">
        <ele>1245.8</ele>
        <time>2023-11-19T11:49:07Z</time>
      </trkpt>
      <trkpt lat="43.02047" lon="0.19405">
        <ele>1245.8</ele>
        <time>2023-11-19T11:49:08Z</time>
      </trkpt>
      <trkpt lat="43.02047" lon="0.19405">
        <ele>1245.8</ele>
        <time>2023-11-19T11:49:09Z</time>
      </trkpt>
      <trkpt lat="43.02047" lon="0.19406">
        <ele>1245.8</ele>
        <time>2023-11-19T11:49:10Z</time>
      </trkpt>
      <trkpt lat="43.02047" lon="0.19405">
        <ele>1245.8</ele>
        <time>2023-11-19T11:49:11Z</time>
      </trkpt>
      <trkpt lat="43.02047" lon="0.19405">
        <ele>1245.8</ele>
        <time>2023-11-19T11:49:12Z</time>
      </trkpt>
      <trkpt lat="43.02047" lon="0.19405">
        <ele>1245.8</ele>
        <time>2023-11-19T11:49:13Z</time>
      </trkpt>
      <trkpt lat="43.02047" lon="0.19405">
        <ele>1245.8</ele>
        <time>2023-11-19T11:49:14Z</time>
      </trkpt>
      <trkpt lat="43.02047" lon="0.19405">
        <ele>1245.8</ele>
        <time>2023-11-19T11:49:15Z</time>
      </trkpt>
      <trkpt lat="43.02047" lon="0.19405">
        <ele>1245.8</ele>
        <time>2023-11-19T11:49:16Z</time>
      </trkpt>
      <trkpt lat="43.02046" lon="0.19405">
        <ele>1245.8</ele>
        <time>2023-11-19T11:49:17Z</time>
      </trkpt>
      <trkpt lat="43.02047" lon="0.19405">
        <ele>1245.8</ele>
        <time>2023-11-19T11:49:18Z</time>
      </trkpt>
      <trkpt lat="43.02047" lon="0.19405">
        <ele>1245.8</ele>
        <time>2023-11-19T11:49:19Z</time>
      </trkpt>
      <trkpt lat="43.02047" lon="0.19405">
        <ele>1245.8</ele>
        <time>2023-11-19T11:49:20Z</time>
      </trkpt>
      <trkpt lat="43.02047" lon="0.19406">
        <ele>1245.8</ele>
        <time>2023-11-19T11:49:21Z</time>
      </trkpt>
      <trkpt lat="43.02047" lon="0.19405">
        <ele>1245.9</ele>
        <time>2023-11-19T11:49:22Z</time>
      </trkpt>
      <trkpt lat="43.02046" lon="0.19403">
        <ele>1245.9</ele>
        <time>2023-11-19T11:49:23Z</time>
      </trkpt>
      <trkpt lat="43.02046" lon="0.19402">
        <ele>1246.5</ele>
        <time>2023-11-19T11:49:24Z</time>
      </trkpt>
      <trkpt lat="43.02046" lon="0.19401">
        <ele>1246.5</ele>
        <time>2023-11-19T11:49:25Z</time>
      </trkpt>
      <trkpt lat="43.02046" lon="0.19399">
        <ele>1247</ele>
        <time>2023-11-19T11:49:26Z</time>
      </trkpt>
      <trkpt lat="43.02046" lon="0.19403">
        <ele>1245.9</ele>
        <time>2023-11-19T11:49:27Z</time>
      </trkpt>
      <trkpt lat="43.02047" lon="0.19404">
        <ele>1245.9</ele>
        <time>2023-11-19T11:49:28Z</time>
      </trkpt>
      <trkpt lat="43.02046" lon="0.19404">
        <ele>1245.9</ele>
        <time>2023-11-19T11:49:29Z</time>
      </trkpt>
      <trkpt lat="43.02047" lon="0.19404">
        <ele>1245.9</ele>
        <time>2023-11-19T11:49:30Z</time>
      </trkpt>
      <trkpt lat="43.02047" lon="0.19404">
        <ele>1245.9</ele>
        <time>2023-11-19T11:49:31Z</time>
      </trkpt>
      <trkpt lat="43.02046" lon="0.19404">
        <ele>1245.9</ele>
        <time>2023-11-19T11:49:32Z</time>
      </trkpt>
      <trkpt lat="43.02046" lon="0.19404">
        <ele>1245.9</ele>
        <time>2023-11-19T11:49:33Z</time>
      </trkpt>
      <trkpt lat="43.02047" lon="0.19403">
        <ele>1245.9</ele>
        <time>2023-11-19T11:49:34Z</time>
      </trkpt>
      <trkpt lat="43.02047" lon="0.19403">
        <ele>1245.9</ele>
        <time>2023-11-19T11:49:35Z</time>
      </trkpt>
      <trkpt lat="43.02047" lon="0.19404">
        <ele>1245.9</ele>
        <time>2023-11-19T11:49:36Z</time>
      </trkpt>
      <trkpt lat="43.02047" lon="0.19403">
        <ele>1245.9</ele>
        <time>2023-11-19T11:49:37Z</time>
      </trkpt>
      <trkpt lat="43.02047" lon="0.19403">
        <ele>1245.9</ele>
        <time>2023-11-19T11:49:38Z</time>
      </trkpt>
      <trkpt lat="43.02047" lon="0.19403">
        <ele>1245.9</ele>
        <time>2023-11-19T11:49:39Z</time>
      </trkpt>
      <trkpt lat="43.02047" lon="0.19404">
        <ele>1246</ele>
        <time>2023-11-19T11:49:40Z</time>
      </trkpt>
      <trkpt lat="43.02047" lon="0.19404">
        <ele>1246</ele>
        <time>2023-11-19T11:49:41Z</time>
      </trkpt>
      <trkpt lat="43.02047" lon="0.19404">
        <ele>1246</ele>
        <time>2023-11-19T11:49:42Z</time>
      </trkpt>
      <trkpt lat="43.02047" lon="0.19404">
        <ele>1246</ele>
        <time>2023-11-19T11:49:43Z</time>
      </trkpt>
      <trkpt lat="43.02047" lon="0.19404">
        <ele>1246</ele>
        <time>2023-11-19T11:49:44Z</time>
      </trkpt>
      <trkpt lat="43.02046" lon="0.19404">
        <ele>1246.4</ele>
        <time>2023-11-19T11:49:45Z</time>
      </trkpt>
      <trkpt lat="43.02045" lon="0.19404">
        <ele>1246.4</ele>
        <time>2023-11-19T11:49:46Z</time>
      </trkpt>
      <trkpt lat="43.02044" lon="0.19405">
        <ele>1246.4</ele>
        <time>2023-11-19T11:49:47Z</time>
      </trkpt>
      <trkpt lat="43.02043" lon="0.19406">
        <ele>1246.9</ele>
        <time>2023-11-19T11:49:48Z</time>
      </trkpt>
      <trkpt lat="43.02043" lon="0.19407">
        <ele>1246.2</ele>
        <time>2023-11-19T11:49:49Z</time>
      </trkpt>
      <trkpt lat="43.02042" lon="0.19408">
        <ele>1246.2</ele>
        <time>2023-11-19T11:49:50Z</time>
      </trkpt>
      <trkpt lat="43.0204" lon="0.1941">
        <ele>1246.2</ele>
        <time>2023-11-19T11:49:51Z</time>
      </trkpt>
      <trkpt lat="43.0204" lon="0.19412">
        <ele>1245.9</ele>
        <time>2023-11-19T11:49:52Z</time>
      </trkpt>
      <trkpt lat="43.02039" lon="0.19413">
        <ele>1246</ele>
        <time>2023-11-19T11:49:53Z</time>
      </trkpt>
      <trkpt lat="43.02039" lon="0.19414">
        <ele>1246</ele>
        <time>2023-11-19T11:49:54Z</time>
      </trkpt>
      <trkpt lat="43.02039" lon="0.19415">
        <ele>1245.3</ele>
        <time>2023-11-19T11:49:55Z</time>
      </trkpt>
      <trkpt lat="43.02038" lon="0.19415">
        <ele>1245.3</ele>
        <time>2023-11-19T11:49:56Z</time>
      </trkpt>
      <trkpt lat="43.02038" lon="0.19415">
        <ele>1246</ele>
        <time>2023-11-19T11:49:57Z</time>
      </trkpt>
      <trkpt lat="43.02037" lon="0.19415">
        <ele>1246</ele>
        <time>2023-11-19T11:49:58Z</time>
      </trkpt>
      <trkpt lat="43.02036" lon="0.19415">
        <ele>1246.4</ele>
        <time>2023-11-19T11:49:59Z</time>
      </trkpt>
      <trkpt lat="43.02036" lon="0.19416">
        <ele>1245.7</ele>
        <time>2023-11-19T11:50:00Z</time>
      </trkpt>
      <trkpt lat="43.02036" lon="0.19417">
        <ele>1245.7</ele>
        <time>2023-11-19T11:50:01Z</time>
      </trkpt>
      <trkpt lat="43.02036" lon="0.19419">
        <ele>1245.1</ele>
        <time>2023-11-19T11:50:02Z</time>
      </trkpt>
      <trkpt lat="43.02035" lon="0.19421">
        <ele>1245.1</ele>
        <time>2023-11-19T11:50:03Z</time>
      </trkpt>
      <trkpt lat="43.02035" lon="0.19422">
        <ele>1245.1</ele>
        <time>2023-11-19T11:50:04Z</time>
      </trkpt>
      <trkpt lat="43.02035" lon="0.19423">
        <ele>1245.1</ele>
        <time>2023-11-19T11:50:05Z</time>
      </trkpt>
      <trkpt lat="43.02035" lon="0.19424">
        <ele>1244.4</ele>
        <time>2023-11-19T11:50:06Z</time>
      </trkpt>
      <trkpt lat="43.02034" lon="0.19425">
        <ele>1244.8</ele>
        <time>2023-11-19T11:50:07Z</time>
      </trkpt>
      <trkpt lat="43.02033" lon="0.19425">
        <ele>1244.8</ele>
        <time>2023-11-19T11:50:08Z</time>
      </trkpt>
      <trkpt lat="43.02032" lon="0.19426">
        <ele>1244.8</ele>
        <time>2023-11-19T11:50:09Z</time>
      </trkpt>
      <trkpt lat="43.02032" lon="0.19428">
        <ele>1244.3</ele>
        <time>2023-11-19T11:50:10Z</time>
      </trkpt>
      <trkpt lat="43.02032" lon="0.19428">
        <ele>1244.3</ele>
        <time>2023-11-19T11:50:11Z</time>
      </trkpt>
      <trkpt lat="43.02032" lon="0.19429">
        <ele>1244.3</ele>
        <time>2023-11-19T11:50:12Z</time>
      </trkpt>
      <trkpt lat="43.02032" lon="0.1943">
        <ele>1244.3</ele>
        <time>2023-11-19T11:50:13Z</time>
      </trkpt>
      <trkpt lat="43.02032" lon="0.1943">
        <ele>1244.3</ele>
        <time>2023-11-19T11:50:14Z</time>
      </trkpt>
      <trkpt lat="43.02031" lon="0.19431">
        <ele>1244.3</ele>
        <time>2023-11-19T11:50:15Z</time>
      </trkpt>
      <trkpt lat="43.0203" lon="0.19431">
        <ele>1244.6</ele>
        <time>2023-11-19T11:50:16Z</time>
      </trkpt>
      <trkpt lat="43.0203" lon="0.19431">
        <ele>1244.6</ele>
        <time>2023-11-19T11:50:17Z</time>
      </trkpt>
      <trkpt lat="43.02029" lon="0.19432">
        <ele>1244.1</ele>
        <time>2023-11-19T11:50:18Z</time>
      </trkpt>
      <trkpt lat="43.02029" lon="0.19433">
        <ele>1244.1</ele>
        <time>2023-11-19T11:50:19Z</time>
      </trkpt>
      <trkpt lat="43.02028" lon="0.19434">
        <ele>1244.1</ele>
        <time>2023-11-19T11:50:20Z</time>
      </trkpt>
      <trkpt lat="43.02029" lon="0.19435">
        <ele>1244.1</ele>
        <time>2023-11-19T11:50:21Z</time>
      </trkpt>
      <trkpt lat="43.02028" lon="0.19437">
        <ele>1243.6</ele>
        <time>2023-11-19T11:50:22Z</time>
      </trkpt>
      <trkpt lat="43.02028" lon="0.19438">
        <ele>1243.6</ele>
        <time>2023-11-19T11:50:23Z</time>
      </trkpt>
      <trkpt lat="43.02027" lon="0.19439">
        <ele>1243.9</ele>
        <time>2023-11-19T11:50:24Z</time>
      </trkpt>
      <trkpt lat="43.02027" lon="0.1944">
        <ele>1243.9</ele>
        <time>2023-11-19T11:50:25Z</time>
      </trkpt>
      <trkpt lat="43.02026" lon="0.19441">
        <ele>1243.4</ele>
        <time>2023-11-19T11:50:26Z</time>
      </trkpt>
      <trkpt lat="43.02026" lon="0.19442">
        <ele>1243.4</ele>
        <time>2023-11-19T11:50:27Z</time>
      </trkpt>
      <trkpt lat="43.02025" lon="0.19444">
        <ele>1243.4</ele>
        <time>2023-11-19T11:50:28Z</time>
      </trkpt>
      <trkpt lat="43.02024" lon="0.19445">
        <ele>1243.6</ele>
        <time>2023-11-19T11:50:29Z</time>
      </trkpt>
      <trkpt lat="43.02024" lon="0.19446">
        <ele>1243.1</ele>
        <time>2023-11-19T11:50:30Z</time>
      </trkpt>
      <trkpt lat="43.02024" lon="0.19447">
        <ele>1243.1</ele>
        <time>2023-11-19T11:50:31Z</time>
      </trkpt>
      <trkpt lat="43.02024" lon="0.19448">
        <ele>1243.1</ele>
        <time>2023-11-19T11:50:32Z</time>
      </trkpt>
      <trkpt lat="43.02023" lon="0.19451">
        <ele>1242.6</ele>
        <time>2023-11-19T11:50:33Z</time>
      </trkpt>
      <trkpt lat="43.02022" lon="0.19452">
        <ele>1242.6</ele>
        <time>2023-11-19T11:50:34Z</time>
      </trkpt>
      <trkpt lat="43.02022" lon="0.19453">
        <ele>1242.6</ele>
        <time>2023-11-19T11:50:35Z</time>
      </trkpt>
      <trkpt lat="43.02021" lon="0.19455">
        <ele>1242.1</ele>
        <time>2023-11-19T11:50:36Z</time>
      </trkpt>
      <trkpt lat="43.02021" lon="0.19456">
        <ele>1242.3</ele>
        <time>2023-11-19T11:50:37Z</time>
      </trkpt>
      <trkpt lat="43.02021" lon="0.19457">
        <ele>1242.3</ele>
        <time>2023-11-19T11:50:38Z</time>
      </trkpt>
      <trkpt lat="43.0202" lon="0.1946">
        <ele>1241.8</ele>
        <time>2023-11-19T11:50:39Z</time>
      </trkpt>
      <trkpt lat="43.0202" lon="0.19461">
        <ele>1241.8</ele>
        <time>2023-11-19T11:50:40Z</time>
      </trkpt>
      <trkpt lat="43.0202" lon="0.19461">
        <ele>1241.8</ele>
        <time>2023-11-19T11:50:41Z</time>
      </trkpt>
      <trkpt lat="43.0202" lon="0.19463">
        <ele>1241.3</ele>
        <time>2023-11-19T11:50:42Z</time>
      </trkpt>
      <trkpt lat="43.0202" lon="0.19464">
        <ele>1241.3</ele>
        <time>2023-11-19T11:50:43Z</time>
      </trkpt>
      <trkpt lat="43.02019" lon="0.19465">
        <ele>1241.3</ele>
        <time>2023-11-19T11:50:44Z</time>
      </trkpt>
      <trkpt lat="43.02019" lon="0.19467">
        <ele>1240.9</ele>
        <time>2023-11-19T11:50:45Z</time>
      </trkpt>
      <trkpt lat="43.02018" lon="0.19468">
        <ele>1241.1</ele>
        <time>2023-11-19T11:50:46Z</time>
      </trkpt>
      <trkpt lat="43.02018" lon="0.1947">
        <ele>1240.9</ele>
        <time>2023-11-19T11:50:47Z</time>
      </trkpt>
      <trkpt lat="43.02016" lon="0.19472">
        <ele>1240.7</ele>
        <time>2023-11-19T11:50:48Z</time>
      </trkpt>
      <trkpt lat="43.02016" lon="0.19472">
        <ele>1240.7</ele>
        <time>2023-11-19T11:50:49Z</time>
      </trkpt>
      <trkpt lat="43.02015" lon="0.19473">
        <ele>1240.7</ele>
        <time>2023-11-19T11:50:50Z</time>
      </trkpt>
      <trkpt lat="43.02013" lon="0.19475">
        <ele>1240.5</ele>
        <time>2023-11-19T11:50:51Z</time>
      </trkpt>
      <trkpt lat="43.02013" lon="0.19476">
        <ele>1240.5</ele>
        <time>2023-11-19T11:50:52Z</time>
      </trkpt>
      <trkpt lat="43.02012" lon="0.19477">
        <ele>1240.5</ele>
        <time>2023-11-19T11:50:53Z</time>
      </trkpt>
      <trkpt lat="43.0201" lon="0.19478">
        <ele>1240.7</ele>
        <time>2023-11-19T11:50:54Z</time>
      </trkpt>
      <trkpt lat="43.0201" lon="0.19479">
        <ele>1240.7</ele>
        <time>2023-11-19T11:50:55Z</time>
      </trkpt>
      <trkpt lat="43.02009" lon="0.19479">
        <ele>1240.7</ele>
        <time>2023-11-19T11:50:56Z</time>
      </trkpt>
      <trkpt lat="43.02007" lon="0.1948">
        <ele>1240.4</ele>
        <time>2023-11-19T11:50:57Z</time>
      </trkpt>
      <trkpt lat="43.02006" lon="0.19481">
        <ele>1240.4</ele>
        <time>2023-11-19T11:50:58Z</time>
      </trkpt>
      <trkpt lat="43.02005" lon="0.19481">
        <ele>1240.5</ele>
        <time>2023-11-19T11:50:59Z</time>
      </trkpt>
      <trkpt lat="43.02005" lon="0.19483">
        <ele>1240.5</ele>
        <time>2023-11-19T11:51:00Z</time>
      </trkpt>
      <trkpt lat="43.02003" lon="0.19483">
        <ele>1240.5</ele>
        <time>2023-11-19T11:51:01Z</time>
      </trkpt>
      <trkpt lat="43.02002" lon="0.19485">
        <ele>1240.1</ele>
        <time>2023-11-19T11:51:02Z</time>
      </trkpt>
      <trkpt lat="43.02002" lon="0.19486">
        <ele>1240.1</ele>
        <time>2023-11-19T11:51:03Z</time>
      </trkpt>
      <trkpt lat="43.02001" lon="0.19486">
        <ele>1240.1</ele>
        <time>2023-11-19T11:51:04Z</time>
      </trkpt>
      <trkpt lat="43.02" lon="0.19486">
        <ele>1240.1</ele>
        <time>2023-11-19T11:51:05Z</time>
      </trkpt>
      <trkpt lat="43.01999" lon="0.19486">
        <ele>1240.1</ele>
        <time>2023-11-19T11:51:06Z</time>
      </trkpt>
      <trkpt lat="43.01997" lon="0.19488">
        <ele>1240.1</ele>
        <time>2023-11-19T11:51:07Z</time>
      </trkpt>
      <trkpt lat="43.01996" lon="0.19487">
        <ele>1240.1</ele>
        <time>2023-11-19T11:51:08Z</time>
      </trkpt>
      <trkpt lat="43.01995" lon="0.19488">
        <ele>1239.7</ele>
        <time>2023-11-19T11:51:09Z</time>
      </trkpt>
      <trkpt lat="43.01995" lon="0.1949">
        <ele>1239.7</ele>
        <time>2023-11-19T11:51:10Z</time>
      </trkpt>
      <trkpt lat="43.01995" lon="0.19491">
        <ele>1239.7</ele>
        <time>2023-11-19T11:51:11Z</time>
      </trkpt>
      <trkpt lat="43.01994" lon="0.19492">
        <ele>1239.7</ele>
        <time>2023-11-19T11:51:12Z</time>
      </trkpt>
      <trkpt lat="43.01993" lon="0.19493">
        <ele>1239.4</ele>
        <time>2023-11-19T11:51:13Z</time>
      </trkpt>
      <trkpt lat="43.01991" lon="0.19492">
        <ele>1239.4</ele>
        <time>2023-11-19T11:51:14Z</time>
      </trkpt>
      <trkpt lat="43.01991" lon="0.19492">
        <ele>1239.4</ele>
        <time>2023-11-19T11:51:15Z</time>
      </trkpt>
      <trkpt lat="43.0199" lon="0.19492">
        <ele>1239.7</ele>
        <time>2023-11-19T11:51:16Z</time>
      </trkpt>
      <trkpt lat="43.01989" lon="0.19492">
        <ele>1239.6</ele>
        <time>2023-11-19T11:51:17Z</time>
      </trkpt>
      <trkpt lat="43.01988" lon="0.19492">
        <ele>1239.6</ele>
        <time>2023-11-19T11:51:18Z</time>
      </trkpt>
      <trkpt lat="43.01987" lon="0.19491">
        <ele>1239.6</ele>
        <time>2023-11-19T11:51:19Z</time>
      </trkpt>
      <trkpt lat="43.01986" lon="0.19492">
        <ele>1239.5</ele>
        <time>2023-11-19T11:51:20Z</time>
      </trkpt>
      <trkpt lat="43.01985" lon="0.19492">
        <ele>1239.5</ele>
        <time>2023-11-19T11:51:21Z</time>
      </trkpt>
      <trkpt lat="43.01984" lon="0.19493">
        <ele>1239.2</ele>
        <time>2023-11-19T11:51:22Z</time>
      </trkpt>
      <trkpt lat="43.01984" lon="0.19493">
        <ele>1239.2</ele>
        <time>2023-11-19T11:51:23Z</time>
      </trkpt>
      <trkpt lat="43.01983" lon="0.19494">
        <ele>1239.1</ele>
        <time>2023-11-19T11:51:24Z</time>
      </trkpt>
      <trkpt lat="43.01984" lon="0.19493">
        <ele>1239.1</ele>
        <time>2023-11-19T11:51:25Z</time>
      </trkpt>
      <trkpt lat="43.01984" lon="0.19492">
        <ele>1239.2</ele>
        <time>2023-11-19T11:51:26Z</time>
      </trkpt>
      <trkpt lat="43.01984" lon="0.19492">
        <ele>1239.2</ele>
        <time>2023-11-19T11:51:27Z</time>
      </trkpt>
      <trkpt lat="43.01983" lon="0.19492">
        <ele>1239.1</ele>
        <time>2023-11-19T11:51:28Z</time>
      </trkpt>
      <trkpt lat="43.01982" lon="0.19493">
        <ele>1239.1</ele>
        <time>2023-11-19T11:51:29Z</time>
      </trkpt>
      <trkpt lat="43.01981" lon="0.19493">
        <ele>1239.1</ele>
        <time>2023-11-19T11:51:30Z</time>
      </trkpt>
      <trkpt lat="43.0198" lon="0.19493">
        <ele>1238.9</ele>
        <time>2023-11-19T11:51:31Z</time>
      </trkpt>
      <trkpt lat="43.01979" lon="0.19494">
        <ele>1238.9</ele>
        <time>2023-11-19T11:51:32Z</time>
      </trkpt>
      <trkpt lat="43.01979" lon="0.19494">
        <ele>1238.9</ele>
        <time>2023-11-19T11:51:33Z</time>
      </trkpt>
      <trkpt lat="43.01979" lon="0.19494">
        <ele>1238.9</ele>
        <time>2023-11-19T11:51:34Z</time>
      </trkpt>
      <trkpt lat="43.01979" lon="0.19495">
        <ele>1238.9</ele>
        <time>2023-11-19T11:51:35Z</time>
      </trkpt>
      <trkpt lat="43.01979" lon="0.19496">
        <ele>1238.9</ele>
        <time>2023-11-19T11:51:36Z</time>
      </trkpt>
      <trkpt lat="43.01979" lon="0.19497">
        <ele>1238.7</ele>
        <time>2023-11-19T11:51:37Z</time>
      </trkpt>
      <trkpt lat="43.01979" lon="0.19498">
        <ele>1238.7</ele>
        <time>2023-11-19T11:51:38Z</time>
      </trkpt>
      <trkpt lat="43.01978" lon="0.19498">
        <ele>1238.7</ele>
        <time>2023-11-19T11:51:39Z</time>
      </trkpt>
      <trkpt lat="43.01977" lon="0.19499">
        <ele>1238.4</ele>
        <time>2023-11-19T11:51:40Z</time>
      </trkpt>
      <trkpt lat="43.01976" lon="0.19499">
        <ele>1238.5</ele>
        <time>2023-11-19T11:51:41Z</time>
      </trkpt>
      <trkpt lat="43.01975" lon="0.19499">
        <ele>1238.5</ele>
        <time>2023-11-19T11:51:42Z</time>
      </trkpt>
      <trkpt lat="43.01975" lon="0.19498">
        <ele>1238.5</ele>
        <time>2023-11-19T11:51:43Z</time>
      </trkpt>
      <trkpt lat="43.01974" lon="0.19499">
        <ele>1238.2</ele>
        <time>2023-11-19T11:51:44Z</time>
      </trkpt>
      <trkpt lat="43.01973" lon="0.195">
        <ele>1238.2</ele>
        <time>2023-11-19T11:51:45Z</time>
      </trkpt>
      <trkpt lat="43.01973" lon="0.195">
        <ele>1238.2</ele>
        <time>2023-11-19T11:51:46Z</time>
      </trkpt>
      <trkpt lat="43.01972" lon="0.19499">
        <ele>1238.2</ele>
        <time>2023-11-19T11:51:47Z</time>
      </trkpt>
      <trkpt lat="43.01971" lon="0.19499">
        <ele>1237.9</ele>
        <time>2023-11-19T11:51:48Z</time>
      </trkpt>
      <trkpt lat="43.01971" lon="0.19498">
        <ele>1237.9</ele>
        <time>2023-11-19T11:51:49Z</time>
      </trkpt>
      <trkpt lat="43.0197" lon="0.19498">
        <ele>1237.9</ele>
        <time>2023-11-19T11:51:50Z</time>
      </trkpt>
      <trkpt lat="43.0197" lon="0.19498">
        <ele>1237.9</ele>
        <time>2023-11-19T11:51:51Z</time>
      </trkpt>
      <trkpt lat="43.0197" lon="0.19498">
        <ele>1237.9</ele>
        <time>2023-11-19T11:51:52Z</time>
      </trkpt>
      <trkpt lat="43.0197" lon="0.19499">
        <ele>1237.9</ele>
        <time>2023-11-19T11:51:53Z</time>
      </trkpt>
      <trkpt lat="43.0197" lon="0.19499">
        <ele>1238</ele>
        <time>2023-11-19T11:51:54Z</time>
      </trkpt>
      <trkpt lat="43.0197" lon="0.19499">
        <ele>1238</ele>
        <time>2023-11-19T11:51:55Z</time>
      </trkpt>
      <trkpt lat="43.01971" lon="0.19499">
        <ele>1238</ele>
        <time>2023-11-19T11:51:56Z</time>
      </trkpt>
      <trkpt lat="43.01971" lon="0.19499">
        <ele>1238</ele>
        <time>2023-11-19T11:51:57Z</time>
      </trkpt>
      <trkpt lat="43.01971" lon="0.19499">
        <ele>1238</ele>
        <time>2023-11-19T11:51:58Z</time>
      </trkpt>
      <trkpt lat="43.01971" lon="0.19499">
        <ele>1238</ele>
        <time>2023-11-19T11:51:59Z</time>
      </trkpt>
      <trkpt lat="43.0197" lon="0.19499">
        <ele>1238</ele>
        <time>2023-11-19T11:52:00Z</time>
      </trkpt>
      <trkpt lat="43.0197" lon="0.19499">
        <ele>1238</ele>
        <time>2023-11-19T11:52:01Z</time>
      </trkpt>
      <trkpt lat="43.0197" lon="0.19499">
        <ele>1238</ele>
        <time>2023-11-19T11:52:02Z</time>
      </trkpt>
      <trkpt lat="43.0197" lon="0.19499">
        <ele>1238</ele>
        <time>2023-11-19T11:52:03Z</time>
      </trkpt>
      <trkpt lat="43.0197" lon="0.19499">
        <ele>1238</ele>
        <time>2023-11-19T11:52:04Z</time>
      </trkpt>
      <trkpt lat="43.0197" lon="0.19498">
        <ele>1238</ele>
        <time>2023-11-19T11:52:05Z</time>
      </trkpt>
      <trkpt lat="43.0197" lon="0.19498">
        <ele>1238</ele>
        <time>2023-11-19T11:52:06Z</time>
      </trkpt>
      <trkpt lat="43.0197" lon="0.19498">
        <ele>1238</ele>
        <time>2023-11-19T11:52:07Z</time>
      </trkpt>
      <trkpt lat="43.0197" lon="0.19498">
        <ele>1238</ele>
        <time>2023-11-19T11:52:08Z</time>
      </trkpt>
      <trkpt lat="43.0197" lon="0.19498">
        <ele>1238</ele>
        <time>2023-11-19T11:52:09Z</time>
      </trkpt>
      <trkpt lat="43.0197" lon="0.19498">
        <ele>1238</ele>
        <time>2023-11-19T11:52:10Z</time>
      </trkpt>
      <trkpt lat="43.0197" lon="0.19498">
        <ele>1238</ele>
        <time>2023-11-19T11:52:11Z</time>
      </trkpt>
      <trkpt lat="43.0197" lon="0.19498">
        <ele>1238.1</ele>
        <time>2023-11-19T11:52:12Z</time>
      </trkpt>
      <trkpt lat="43.0197" lon="0.19498">
        <ele>1238.1</ele>
        <time>2023-11-19T11:52:13Z</time>
      </trkpt>
      <trkpt lat="43.0197" lon="0.19498">
        <ele>1238.1</ele>
        <time>2023-11-19T11:52:14Z</time>
      </trkpt>
      <trkpt lat="43.0197" lon="0.19498">
        <ele>1238.1</ele>
        <time>2023-11-19T11:52:15Z</time>
      </trkpt>
      <trkpt lat="43.0197" lon="0.19498">
        <ele>1238.1</ele>
        <time>2023-11-19T11:52:16Z</time>
      </trkpt>
      <trkpt lat="43.0197" lon="0.19498">
        <ele>1238.1</ele>
        <time>2023-11-19T11:52:17Z</time>
      </trkpt>
      <trkpt lat="43.0197" lon="0.19498">
        <ele>1238.1</ele>
        <time>2023-11-19T11:52:18Z</time>
      </trkpt>
      <trkpt lat="43.0197" lon="0.19498">
        <ele>1238.1</ele>
        <time>2023-11-19T11:52:19Z</time>
      </trkpt>
      <trkpt lat="43.0197" lon="0.19498">
        <ele>1238.1</ele>
        <time>2023-11-19T11:52:20Z</time>
      </trkpt>
      <trkpt lat="43.0197" lon="0.19498">
        <ele>1238.1</ele>
        <time>2023-11-19T11:52:21Z</time>
      </trkpt>
      <trkpt lat="43.0197" lon="0.19498">
        <ele>1238.1</ele>
        <time>2023-11-19T11:52:22Z</time>
      </trkpt>
      <trkpt lat="43.0197" lon="0.19498">
        <ele>1238.1</ele>
        <time>2023-11-19T11:52:23Z</time>
      </trkpt>
      <trkpt lat="43.0197" lon="0.19498">
        <ele>1238.1</ele>
        <time>2023-11-19T11:52:24Z</time>
      </trkpt>
      <trkpt lat="43.0197" lon="0.19498">
        <ele>1238.1</ele>
        <time>2023-11-19T11:52:25Z</time>
      </trkpt>
      <trkpt lat="43.0197" lon="0.19498">
        <ele>1238.1</ele>
        <time>2023-11-19T11:52:26Z</time>
      </trkpt>
      <trkpt lat="43.0197" lon="0.19498">
        <ele>1238.1</ele>
        <time>2023-11-19T11:52:27Z</time>
      </trkpt>
      <trkpt lat="43.0197" lon="0.19498">
        <ele>1238.1</ele>
        <time>2023-11-19T11:52:28Z</time>
      </trkpt>
      <trkpt lat="43.0197" lon="0.19498">
        <ele>1238.1</ele>
        <time>2023-11-19T11:52:29Z</time>
      </trkpt>
      <trkpt lat="43.0197" lon="0.19498">
        <ele>1238.2</ele>
        <time>2023-11-19T11:52:30Z</time>
      </trkpt>
      <trkpt lat="43.0197" lon="0.19498">
        <ele>1238.2</ele>
        <time>2023-11-19T11:52:31Z</time>
      </trkpt>
      <trkpt lat="43.0197" lon="0.19498">
        <ele>1238.2</ele>
        <time>2023-11-19T11:52:32Z</time>
      </trkpt>
      <trkpt lat="43.0197" lon="0.19498">
        <ele>1238.2</ele>
        <time>2023-11-19T11:52:33Z</time>
      </trkpt>
      <trkpt lat="43.0197" lon="0.19499">
        <ele>1238.2</ele>
        <time>2023-11-19T11:52:34Z</time>
      </trkpt>
      <trkpt lat="43.0197" lon="0.19499">
        <ele>1238.2</ele>
        <time>2023-11-19T11:52:35Z</time>
      </trkpt>
      <trkpt lat="43.0197" lon="0.19499">
        <ele>1238.2</ele>
        <time>2023-11-19T11:52:36Z</time>
      </trkpt>
      <trkpt lat="43.0197" lon="0.19499">
        <ele>1238.2</ele>
        <time>2023-11-19T11:52:37Z</time>
      </trkpt>
      <trkpt lat="43.0197" lon="0.19499">
        <ele>1238.2</ele>
        <time>2023-11-19T11:52:38Z</time>
      </trkpt>
      <trkpt lat="43.0197" lon="0.19499">
        <ele>1238.2</ele>
        <time>2023-11-19T11:52:39Z</time>
      </trkpt>
      <trkpt lat="43.0197" lon="0.19499">
        <ele>1238.2</ele>
        <time>2023-11-19T11:52:40Z</time>
      </trkpt>
      <trkpt lat="43.0197" lon="0.19499">
        <ele>1238.2</ele>
        <time>2023-11-19T11:52:41Z</time>
      </trkpt>
      <trkpt lat="43.0197" lon="0.19499">
        <ele>1238.2</ele>
        <time>2023-11-19T11:52:42Z</time>
      </trkpt>
      <trkpt lat="43.0197" lon="0.19499">
        <ele>1238.2</ele>
        <time>2023-11-19T11:52:43Z</time>
      </trkpt>
      <trkpt lat="43.0197" lon="0.19499">
        <ele>1238.2</ele>
        <time>2023-11-19T11:52:44Z</time>
      </trkpt>
      <trkpt lat="43.0197" lon="0.19499">
        <ele>1238.2</ele>
        <time>2023-11-19T11:52:45Z</time>
      </trkpt>
      <trkpt lat="43.0197" lon="0.19499">
        <ele>1238.2</ele>
        <time>2023-11-19T11:52:46Z</time>
      </trkpt>
      <trkpt lat="43.0197" lon="0.195">
        <ele>1238.2</ele>
        <time>2023-11-19T11:52:47Z</time>
      </trkpt>
      <trkpt lat="43.0197" lon="0.19499">
        <ele>1238.3</ele>
        <time>2023-11-19T11:52:48Z</time>
      </trkpt>
      <trkpt lat="43.0197" lon="0.19499">
        <ele>1238.3</ele>
        <time>2023-11-19T11:52:49Z</time>
      </trkpt>
      <trkpt lat="43.0197" lon="0.195">
        <ele>1238.3</ele>
        <time>2023-11-19T11:52:50Z</time>
      </trkpt>
      <trkpt lat="43.0197" lon="0.195">
        <ele>1238.3</ele>
        <time>2023-11-19T11:52:51Z</time>
      </trkpt>
      <trkpt lat="43.01971" lon="0.19499">
        <ele>1238.3</ele>
        <time>2023-11-19T11:52:52Z</time>
      </trkpt>
      <trkpt lat="43.0197" lon="0.19499">
        <ele>1238.3</ele>
        <time>2023-11-19T11:52:53Z</time>
      </trkpt>
      <trkpt lat="43.0197" lon="0.19499">
        <ele>1238.3</ele>
        <time>2023-11-19T11:52:54Z</time>
      </trkpt>
      <trkpt lat="43.01969" lon="0.19499">
        <ele>1238.3</ele>
        <time>2023-11-19T11:52:55Z</time>
      </trkpt>
      <trkpt lat="43.01968" lon="0.19498">
        <ele>1238</ele>
        <time>2023-11-19T11:52:56Z</time>
      </trkpt>
      <trkpt lat="43.01966" lon="0.19498">
        <ele>1238</ele>
        <time>2023-11-19T11:52:57Z</time>
      </trkpt>
      <trkpt lat="43.01965" lon="0.19498">
        <ele>1238</ele>
        <time>2023-11-19T11:52:58Z</time>
      </trkpt>
      <trkpt lat="43.01965" lon="0.19498">
        <ele>1237.6</ele>
        <time>2023-11-19T11:52:59Z</time>
      </trkpt>
      <trkpt lat="43.01965" lon="0.19498">
        <ele>1238</ele>
        <time>2023-11-19T11:53:00Z</time>
      </trkpt>
      <trkpt lat="43.01965" lon="0.19498">
        <ele>1238</ele>
        <time>2023-11-19T11:53:01Z</time>
      </trkpt>
      <trkpt lat="43.01965" lon="0.19498">
        <ele>1238</ele>
        <time>2023-11-19T11:53:02Z</time>
      </trkpt>
      <trkpt lat="43.01965" lon="0.19498">
        <ele>1238</ele>
        <time>2023-11-19T11:53:03Z</time>
      </trkpt>
      <trkpt lat="43.01964" lon="0.19499">
        <ele>1237.7</ele>
        <time>2023-11-19T11:53:04Z</time>
      </trkpt>
      <trkpt lat="43.01963" lon="0.19499">
        <ele>1237.7</ele>
        <time>2023-11-19T11:53:05Z</time>
      </trkpt>
      <trkpt lat="43.01963" lon="0.195">
        <ele>1237.7</ele>
        <time>2023-11-19T11:53:06Z</time>
      </trkpt>
      <trkpt lat="43.01962" lon="0.19501">
        <ele>1237.7</ele>
        <time>2023-11-19T11:53:07Z</time>
      </trkpt>
      <trkpt lat="43.01961" lon="0.19501">
        <ele>1237</ele>
        <time>2023-11-19T11:53:08Z</time>
      </trkpt>
      <trkpt lat="43.0196" lon="0.19501">
        <ele>1237</ele>
        <time>2023-11-19T11:53:09Z</time>
      </trkpt>
      <trkpt lat="43.01959" lon="0.19501">
        <ele>1237.3</ele>
        <time>2023-11-19T11:53:10Z</time>
      </trkpt>
      <trkpt lat="43.01959" lon="0.19501">
        <ele>1237.3</ele>
        <time>2023-11-19T11:53:11Z</time>
      </trkpt>
      <trkpt lat="43.01958" lon="0.19501">
        <ele>1236.9</ele>
        <time>2023-11-19T11:53:12Z</time>
      </trkpt>
      <trkpt lat="43.01957" lon="0.19501">
        <ele>1236.6</ele>
        <time>2023-11-19T11:53:13Z</time>
      </trkpt>
      <trkpt lat="43.01956" lon="0.19501">
        <ele>1236.6</ele>
        <time>2023-11-19T11:53:14Z</time>
      </trkpt>
      <trkpt lat="43.01955" lon="0.19501">
        <ele>1236.1</ele>
        <time>2023-11-19T11:53:15Z</time>
      </trkpt>
      <trkpt lat="43.01954" lon="0.19501">
        <ele>1236.1</ele>
        <time>2023-11-19T11:53:16Z</time>
      </trkpt>
      <trkpt lat="43.01953" lon="0.19501">
        <ele>1236.1</ele>
        <time>2023-11-19T11:53:17Z</time>
      </trkpt>
      <trkpt lat="43.01952" lon="0.19501">
        <ele>1235.4</ele>
        <time>2023-11-19T11:53:18Z</time>
      </trkpt>
      <trkpt lat="43.01951" lon="0.19502">
        <ele>1235.5</ele>
        <time>2023-11-19T11:53:19Z</time>
      </trkpt>
      <trkpt lat="43.0195" lon="0.19503">
        <ele>1235.5</ele>
        <time>2023-11-19T11:53:20Z</time>
      </trkpt>
      <trkpt lat="43.01949" lon="0.19504">
        <ele>1235.5</ele>
        <time>2023-11-19T11:53:21Z</time>
      </trkpt>
      <trkpt lat="43.01949" lon="0.19506">
        <ele>1234.4</ele>
        <time>2023-11-19T11:53:22Z</time>
      </trkpt>
      <trkpt lat="43.01948" lon="0.19507">
        <ele>1234.4</ele>
        <time>2023-11-19T11:53:23Z</time>
      </trkpt>
      <trkpt lat="43.01947" lon="0.19508">
        <ele>1234.4</ele>
        <time>2023-11-19T11:53:24Z</time>
      </trkpt>
      <trkpt lat="43.01947" lon="0.19509">
        <ele>1234.4</ele>
        <time>2023-11-19T11:53:25Z</time>
      </trkpt>
      <trkpt lat="43.01946" lon="0.1951">
        <ele>1234.1</ele>
        <time>2023-11-19T11:53:26Z</time>
      </trkpt>
      <trkpt lat="43.01946" lon="0.19511">
        <ele>1234.1</ele>
        <time>2023-11-19T11:53:27Z</time>
      </trkpt>
      <trkpt lat="43.01945" lon="0.19512">
        <ele>1233.3</ele>
        <time>2023-11-19T11:53:28Z</time>
      </trkpt>
      <trkpt lat="43.01944" lon="0.19512">
        <ele>1233.3</ele>
        <time>2023-11-19T11:53:29Z</time>
      </trkpt>
      <trkpt lat="43.01944" lon="0.19513">
        <ele>1233.4</ele>
        <time>2023-11-19T11:53:30Z</time>
      </trkpt>
      <trkpt lat="43.01943" lon="0.19513">
        <ele>1233.4</ele>
        <time>2023-11-19T11:53:31Z</time>
      </trkpt>
      <trkpt lat="43.01943" lon="0.19515">
        <ele>1233.1</ele>
        <time>2023-11-19T11:53:32Z</time>
      </trkpt>
      <trkpt lat="43.01943" lon="0.19516">
        <ele>1233.1</ele>
        <time>2023-11-19T11:53:33Z</time>
      </trkpt>
      <trkpt lat="43.01943" lon="0.19517">
        <ele>1233.1</ele>
        <time>2023-11-19T11:53:34Z</time>
      </trkpt>
      <trkpt lat="43.01943" lon="0.19518">
        <ele>1232.8</ele>
        <time>2023-11-19T11:53:35Z</time>
      </trkpt>
      <trkpt lat="43.01943" lon="0.19519">
        <ele>1232.8</ele>
        <time>2023-11-19T11:53:36Z</time>
      </trkpt>
      <trkpt lat="43.01943" lon="0.1952">
        <ele>1232.8</ele>
        <time>2023-11-19T11:53:37Z</time>
      </trkpt>
      <trkpt lat="43.01943" lon="0.19521">
        <ele>1232.8</ele>
        <time>2023-11-19T11:53:38Z</time>
      </trkpt>
      <trkpt lat="43.01943" lon="0.19522">
        <ele>1232.8</ele>
        <time>2023-11-19T11:53:39Z</time>
      </trkpt>
      <trkpt lat="43.01944" lon="0.19523">
        <ele>1232.6</ele>
        <time>2023-11-19T11:53:40Z</time>
      </trkpt>
      <trkpt lat="43.01944" lon="0.19524">
        <ele>1232.6</ele>
        <time>2023-11-19T11:53:41Z</time>
      </trkpt>
      <trkpt lat="43.01944" lon="0.19526">
        <ele>1232.6</ele>
        <time>2023-11-19T11:53:42Z</time>
      </trkpt>
      <trkpt lat="43.01944" lon="0.19528">
        <ele>1232.3</ele>
        <time>2023-11-19T11:53:43Z</time>
      </trkpt>
      <trkpt lat="43.01944" lon="0.19529">
        <ele>1232.3</ele>
        <time>2023-11-19T11:53:44Z</time>
      </trkpt>
      <trkpt lat="43.01944" lon="0.1953">
        <ele>1232.3</ele>
        <time>2023-11-19T11:53:45Z</time>
      </trkpt>
      <trkpt lat="43.01944" lon="0.19531">
        <ele>1232</ele>
        <time>2023-11-19T11:53:46Z</time>
      </trkpt>
      <trkpt lat="43.01943" lon="0.19532">
        <ele>1232</ele>
        <time>2023-11-19T11:53:47Z</time>
      </trkpt>
      <trkpt lat="43.01943" lon="0.19533">
        <ele>1232</ele>
        <time>2023-11-19T11:53:48Z</time>
      </trkpt>
      <trkpt lat="43.01943" lon="0.19533">
        <ele>1232</ele>
        <time>2023-11-19T11:53:49Z</time>
      </trkpt>
      <trkpt lat="43.01943" lon="0.19535">
        <ele>1232</ele>
        <time>2023-11-19T11:53:50Z</time>
      </trkpt>
      <trkpt lat="43.01943" lon="0.19536">
        <ele>1231.7</ele>
        <time>2023-11-19T11:53:51Z</time>
      </trkpt>
      <trkpt lat="43.01943" lon="0.19537">
        <ele>1231.7</ele>
        <time>2023-11-19T11:53:52Z</time>
      </trkpt>
      <trkpt lat="43.01944" lon="0.19538">
        <ele>1231.7</ele>
        <time>2023-11-19T11:53:53Z</time>
      </trkpt>
      <trkpt lat="43.01944" lon="0.19538">
        <ele>1231.7</ele>
        <time>2023-11-19T11:53:55Z</time>
      </trkpt>
      <trkpt lat="43.01945" lon="0.19538">
        <ele>1231.7</ele>
        <time>2023-11-19T11:53:56Z</time>
      </trkpt>
      <trkpt lat="43.01945" lon="0.19537">
        <ele>1231.7</ele>
        <time>2023-11-19T11:53:57Z</time>
      </trkpt>
      <trkpt lat="43.01945" lon="0.19537">
        <ele>1231.7</ele>
        <time>2023-11-19T11:53:58Z</time>
      </trkpt>
      <trkpt lat="43.01946" lon="0.19537">
        <ele>1231.7</ele>
        <time>2023-11-19T11:53:59Z</time>
      </trkpt>
      <trkpt lat="43.01946" lon="0.19537">
        <ele>1232.5</ele>
        <time>2023-11-19T11:54:00Z</time>
      </trkpt>
      <trkpt lat="43.01946" lon="0.19537">
        <ele>1232.5</ele>
        <time>2023-11-19T11:54:01Z</time>
      </trkpt>
      <trkpt lat="43.01947" lon="0.19537">
        <ele>1232.5</ele>
        <time>2023-11-19T11:54:02Z</time>
      </trkpt>
      <trkpt lat="43.01947" lon="0.19537">
        <ele>1232.5</ele>
        <time>2023-11-19T11:54:03Z</time>
      </trkpt>
      <trkpt lat="43.01947" lon="0.19535">
        <ele>1232.5</ele>
        <time>2023-11-19T11:54:04Z</time>
      </trkpt>
      <trkpt lat="43.01946" lon="0.19535">
        <ele>1231.8</ele>
        <time>2023-11-19T11:54:05Z</time>
      </trkpt>
      <trkpt lat="43.01946" lon="0.19535">
        <ele>1232.8</ele>
        <time>2023-11-19T11:54:07Z</time>
      </trkpt>
      <trkpt lat="43.01946" lon="0.19534">
        <ele>1232.8</ele>
        <time>2023-11-19T11:54:08Z</time>
      </trkpt>
      <trkpt lat="43.01946" lon="0.19534">
        <ele>1232.9</ele>
        <time>2023-11-19T11:54:09Z</time>
      </trkpt>
      <trkpt lat="43.01946" lon="0.19534">
        <ele>1232.9</ele>
        <time>2023-11-19T11:54:10Z</time>
      </trkpt>
      <trkpt lat="43.01946" lon="0.19534">
        <ele>1232.9</ele>
        <time>2023-11-19T11:54:11Z</time>
      </trkpt>
      <trkpt lat="43.01946" lon="0.19535">
        <ele>1232.9</ele>
        <time>2023-11-19T11:54:12Z</time>
      </trkpt>
      <trkpt lat="43.01946" lon="0.19534">
        <ele>1232.9</ele>
        <time>2023-11-19T11:54:13Z</time>
      </trkpt>
      <trkpt lat="43.01946" lon="0.19534">
        <ele>1232.9</ele>
        <time>2023-11-19T11:54:14Z</time>
      </trkpt>
      <trkpt lat="43.01947" lon="0.19534">
        <ele>1232.9</ele>
        <time>2023-11-19T11:54:15Z</time>
      </trkpt>
      <trkpt lat="43.01947" lon="0.19534">
        <ele>1232.9</ele>
        <time>2023-11-19T11:54:16Z</time>
      </trkpt>
      <trkpt lat="43.01947" lon="0.19534">
        <ele>1232.9</ele>
        <time>2023-11-19T11:54:17Z</time>
      </trkpt>
      <trkpt lat="43.01948" lon="0.19534">
        <ele>1232.9</ele>
        <time>2023-11-19T11:54:18Z</time>
      </trkpt>
      <trkpt lat="43.01948" lon="0.19534">
        <ele>1232.9</ele>
        <time>2023-11-19T11:54:19Z</time>
      </trkpt>
      <trkpt lat="43.01948" lon="0.19533">
        <ele>1232.9</ele>
        <time>2023-11-19T11:54:20Z</time>
      </trkpt>
      <trkpt lat="43.01948" lon="0.19533">
        <ele>1232.9</ele>
        <time>2023-11-19T11:54:21Z</time>
      </trkpt>
      <trkpt lat="43.01948" lon="0.19533">
        <ele>1232.9</ele>
        <time>2023-11-19T11:54:22Z</time>
      </trkpt>
      <trkpt lat="43.01949" lon="0.19533">
        <ele>1232.9</ele>
        <time>2023-11-19T11:54:23Z</time>
      </trkpt>
      <trkpt lat="43.01949" lon="0.19532">
        <ele>1232.9</ele>
        <time>2023-11-19T11:54:24Z</time>
      </trkpt>
      <trkpt lat="43.01949" lon="0.19532">
        <ele>1232.9</ele>
        <time>2023-11-19T11:54:25Z</time>
      </trkpt>
      <trkpt lat="43.01949" lon="0.19532">
        <ele>1232.9</ele>
        <time>2023-11-19T11:54:26Z</time>
      </trkpt>
      <trkpt lat="43.01949" lon="0.19532">
        <ele>1233</ele>
        <time>2023-11-19T11:54:27Z</time>
      </trkpt>
      <trkpt lat="43.01948" lon="0.19533">
        <ele>1233</ele>
        <time>2023-11-19T11:54:28Z</time>
      </trkpt>
      <trkpt lat="43.01947" lon="0.19533">
        <ele>1233</ele>
        <time>2023-11-19T11:54:29Z</time>
      </trkpt>
      <trkpt lat="43.01947" lon="0.19533">
        <ele>1233</ele>
        <time>2023-11-19T11:54:30Z</time>
      </trkpt>
      <trkpt lat="43.01947" lon="0.19533">
        <ele>1233</ele>
        <time>2023-11-19T11:54:31Z</time>
      </trkpt>
      <trkpt lat="43.01947" lon="0.19533">
        <ele>1233</ele>
        <time>2023-11-19T11:54:32Z</time>
      </trkpt>
      <trkpt lat="43.01947" lon="0.19532">
        <ele>1233</ele>
        <time>2023-11-19T11:54:33Z</time>
      </trkpt>
      <trkpt lat="43.01947" lon="0.19532">
        <ele>1233</ele>
        <time>2023-11-19T11:54:34Z</time>
      </trkpt>
      <trkpt lat="43.01947" lon="0.19533">
        <ele>1233</ele>
        <time>2023-11-19T11:54:35Z</time>
      </trkpt>
      <trkpt lat="43.01947" lon="0.19533">
        <ele>1233</ele>
        <time>2023-11-19T11:54:36Z</time>
      </trkpt>
      <trkpt lat="43.01947" lon="0.19533">
        <ele>1233</ele>
        <time>2023-11-19T11:54:37Z</time>
      </trkpt>
      <trkpt lat="43.01946" lon="0.19533">
        <ele>1233</ele>
        <time>2023-11-19T11:54:38Z</time>
      </trkpt>
      <trkpt lat="43.01946" lon="0.19535">
        <ele>1232.3</ele>
        <time>2023-11-19T11:54:39Z</time>
      </trkpt>
      <trkpt lat="43.01946" lon="0.19535">
        <ele>1231.9</ele>
        <time>2023-11-19T11:54:40Z</time>
      </trkpt>
      <trkpt lat="43.01946" lon="0.19535">
        <ele>1232.3</ele>
        <time>2023-11-19T11:54:41Z</time>
      </trkpt>
      <trkpt lat="43.01946" lon="0.19535">
        <ele>1232.7</ele>
        <time>2023-11-19T11:54:42Z</time>
      </trkpt>
      <trkpt lat="43.01946" lon="0.19534">
        <ele>1232.3</ele>
        <time>2023-11-19T11:54:43Z</time>
      </trkpt>
      <trkpt lat="43.01946" lon="0.19536">
        <ele>1232.7</ele>
        <time>2023-11-19T11:54:44Z</time>
      </trkpt>
      <trkpt lat="43.01947" lon="0.19535">
        <ele>1233.1</ele>
        <time>2023-11-19T11:54:45Z</time>
      </trkpt>
      <trkpt lat="43.01947" lon="0.19534">
        <ele>1233.1</ele>
        <time>2023-11-19T11:54:46Z</time>
      </trkpt>
      <trkpt lat="43.01948" lon="0.19533">
        <ele>1233.1</ele>
        <time>2023-11-19T11:54:47Z</time>
      </trkpt>
      <trkpt lat="43.01948" lon="0.19535">
        <ele>1233.1</ele>
        <time>2023-11-19T11:54:48Z</time>
      </trkpt>
      <trkpt lat="43.01947" lon="0.19535">
        <ele>1233.1</ele>
        <time>2023-11-19T11:54:49Z</time>
      </trkpt>
      <trkpt lat="43.01947" lon="0.19536">
        <ele>1232.7</ele>
        <time>2023-11-19T11:54:50Z</time>
      </trkpt>
      <trkpt lat="43.01947" lon="0.19535">
        <ele>1233.1</ele>
        <time>2023-11-19T11:54:51Z</time>
      </trkpt>
      <trkpt lat="43.01947" lon="0.19535">
        <ele>1233.1</ele>
        <time>2023-11-19T11:54:52Z</time>
      </trkpt>
      <trkpt lat="43.01947" lon="0.19535">
        <ele>1233.1</ele>
        <time>2023-11-19T11:54:53Z</time>
      </trkpt>
      <trkpt lat="43.01947" lon="0.19535">
        <ele>1233.1</ele>
        <time>2023-11-19T11:54:54Z</time>
      </trkpt>
      <trkpt lat="43.01947" lon="0.19535">
        <ele>1233.1</ele>
        <time>2023-11-19T11:54:55Z</time>
      </trkpt>
      <trkpt lat="43.01947" lon="0.19535">
        <ele>1233.1</ele>
        <time>2023-11-19T11:54:56Z</time>
      </trkpt>
      <trkpt lat="43.01947" lon="0.19535">
        <ele>1233.1</ele>
        <time>2023-11-19T11:54:57Z</time>
      </trkpt>
      <trkpt lat="43.01947" lon="0.19535">
        <ele>1233.1</ele>
        <time>2023-11-19T11:54:58Z</time>
      </trkpt>
      <trkpt lat="43.01946" lon="0.19537">
        <ele>1232.8</ele>
        <time>2023-11-19T11:54:59Z</time>
      </trkpt>
      <trkpt lat="43.01946" lon="0.19536">
        <ele>1232.8</ele>
        <time>2023-11-19T11:55:00Z</time>
      </trkpt>
      <trkpt lat="43.01946" lon="0.19536">
        <ele>1232.8</ele>
        <time>2023-11-19T11:55:01Z</time>
      </trkpt>
      <trkpt lat="43.01946" lon="0.19535">
        <ele>1232.8</ele>
        <time>2023-11-19T11:55:02Z</time>
      </trkpt>
      <trkpt lat="43.01946" lon="0.19535">
        <ele>1233.2</ele>
        <time>2023-11-19T11:55:03Z</time>
      </trkpt>
      <trkpt lat="43.01946" lon="0.19535">
        <ele>1233.2</ele>
        <time>2023-11-19T11:55:04Z</time>
      </trkpt>
      <trkpt lat="43.01946" lon="0.19534">
        <ele>1233.2</ele>
        <time>2023-11-19T11:55:05Z</time>
      </trkpt>
      <trkpt lat="43.01947" lon="0.19534">
        <ele>1233.2</ele>
        <time>2023-11-19T11:55:06Z</time>
      </trkpt>
      <trkpt lat="43.01947" lon="0.19533">
        <ele>1233.2</ele>
        <time>2023-11-19T11:55:07Z</time>
      </trkpt>
      <trkpt lat="43.01947" lon="0.19533">
        <ele>1233.2</ele>
        <time>2023-11-19T11:55:08Z</time>
      </trkpt>
      <trkpt lat="43.01947" lon="0.19532">
        <ele>1233.2</ele>
        <time>2023-11-19T11:55:09Z</time>
      </trkpt>
      <trkpt lat="43.01947" lon="0.19532">
        <ele>1233.2</ele>
        <time>2023-11-19T11:55:10Z</time>
      </trkpt>
      <trkpt lat="43.01947" lon="0.19532">
        <ele>1233.2</ele>
        <time>2023-11-19T11:55:11Z</time>
      </trkpt>
      <trkpt lat="43.01947" lon="0.19534">
        <ele>1233.2</ele>
        <time>2023-11-19T11:55:12Z</time>
      </trkpt>
      <trkpt lat="43.01947" lon="0.19534">
        <ele>1233.2</ele>
        <time>2023-11-19T11:55:13Z</time>
      </trkpt>
      <trkpt lat="43.01947" lon="0.19534">
        <ele>1233.2</ele>
        <time>2023-11-19T11:55:14Z</time>
      </trkpt>
      <trkpt lat="43.01947" lon="0.19534">
        <ele>1233.2</ele>
        <time>2023-11-19T11:55:15Z</time>
      </trkpt>
      <trkpt lat="43.01947" lon="0.19534">
        <ele>1233.2</ele>
        <time>2023-11-19T11:55:16Z</time>
      </trkpt>
      <trkpt lat="43.01947" lon="0.19534">
        <ele>1233.2</ele>
        <time>2023-11-19T11:55:17Z</time>
      </trkpt>
      <trkpt lat="43.01947" lon="0.19534">
        <ele>1233.2</ele>
        <time>2023-11-19T11:55:18Z</time>
      </trkpt>
      <trkpt lat="43.01947" lon="0.19534">
        <ele>1233.2</ele>
        <time>2023-11-19T11:55:19Z</time>
      </trkpt>
      <trkpt lat="43.01947" lon="0.19534">
        <ele>1233.3</ele>
        <time>2023-11-19T11:55:20Z</time>
      </trkpt>
      <trkpt lat="43.01947" lon="0.19534">
        <ele>1233.3</ele>
        <time>2023-11-19T11:55:21Z</time>
      </trkpt>
      <trkpt lat="43.01947" lon="0.19534">
        <ele>1233.3</ele>
        <time>2023-11-19T11:55:22Z</time>
      </trkpt>
      <trkpt lat="43.01947" lon="0.19534">
        <ele>1233.3</ele>
        <time>2023-11-19T11:55:23Z</time>
      </trkpt>
      <trkpt lat="43.01947" lon="0.19534">
        <ele>1233.3</ele>
        <time>2023-11-19T11:55:24Z</time>
      </trkpt>
      <trkpt lat="43.01947" lon="0.19534">
        <ele>1233.3</ele>
        <time>2023-11-19T11:55:25Z</time>
      </trkpt>
      <trkpt lat="43.01947" lon="0.19534">
        <ele>1233.3</ele>
        <time>2023-11-19T11:55:26Z</time>
      </trkpt>
      <trkpt lat="43.01947" lon="0.19534">
        <ele>1233.3</ele>
        <time>2023-11-19T11:55:27Z</time>
      </trkpt>
      <trkpt lat="43.01947" lon="0.19534">
        <ele>1233.3</ele>
        <time>2023-11-19T11:55:28Z</time>
      </trkpt>
      <trkpt lat="43.01947" lon="0.19534">
        <ele>1233.3</ele>
        <time>2023-11-19T11:55:29Z</time>
      </trkpt>
      <trkpt lat="43.01947" lon="0.19534">
        <ele>1233.3</ele>
        <time>2023-11-19T11:55:30Z</time>
      </trkpt>
      <trkpt lat="43.01946" lon="0.19535">
        <ele>1232.2</ele>
        <time>2023-11-19T11:55:31Z</time>
      </trkpt>
      <trkpt lat="43.01946" lon="0.19534">
        <ele>1233.3</ele>
        <time>2023-11-19T11:55:32Z</time>
      </trkpt>
      <trkpt lat="43.01946" lon="0.19535">
        <ele>1233</ele>
        <time>2023-11-19T11:55:33Z</time>
      </trkpt>
      <trkpt lat="43.01947" lon="0.19536">
        <ele>1233</ele>
        <time>2023-11-19T11:55:34Z</time>
      </trkpt>
      <trkpt lat="43.01947" lon="0.19534">
        <ele>1233.3</ele>
        <time>2023-11-19T11:55:35Z</time>
      </trkpt>
      <trkpt lat="43.01947" lon="0.19534">
        <ele>1233.3</ele>
        <time>2023-11-19T11:55:36Z</time>
      </trkpt>
      <trkpt lat="43.01947" lon="0.19533">
        <ele>1233.3</ele>
        <time>2023-11-19T11:55:37Z</time>
      </trkpt>
      <trkpt lat="43.01946" lon="0.19533">
        <ele>1233.4</ele>
        <time>2023-11-19T11:55:38Z</time>
      </trkpt>
      <trkpt lat="43.01946" lon="0.19534">
        <ele>1233.4</ele>
        <time>2023-11-19T11:55:39Z</time>
      </trkpt>
      <trkpt lat="43.01946" lon="0.19534">
        <ele>1233.4</ele>
        <time>2023-11-19T11:55:40Z</time>
      </trkpt>
      <trkpt lat="43.01945" lon="0.19537">
        <ele>1232.3</ele>
        <time>2023-11-19T11:55:41Z</time>
      </trkpt>
      <trkpt lat="43.01946" lon="0.19536">
        <ele>1232.3</ele>
        <time>2023-11-19T11:55:42Z</time>
      </trkpt>
      <trkpt lat="43.01946" lon="0.19536">
        <ele>1233</ele>
        <time>2023-11-19T11:55:43Z</time>
      </trkpt>
      <trkpt lat="43.01947" lon="0.19536">
        <ele>1233</ele>
        <time>2023-11-19T11:55:44Z</time>
      </trkpt>
      <trkpt lat="43.01947" lon="0.19536">
        <ele>1233.1</ele>
        <time>2023-11-19T11:55:45Z</time>
      </trkpt>
      <trkpt lat="43.01947" lon="0.19536">
        <ele>1233.1</ele>
        <time>2023-11-19T11:55:46Z</time>
      </trkpt>
      <trkpt lat="43.01947" lon="0.19536">
        <ele>1233.1</ele>
        <time>2023-11-19T11:55:47Z</time>
      </trkpt>
      <trkpt lat="43.01947" lon="0.19536">
        <ele>1233.1</ele>
        <time>2023-11-19T11:55:48Z</time>
      </trkpt>
      <trkpt lat="43.01946" lon="0.19535">
        <ele>1233.1</ele>
        <time>2023-11-19T11:55:49Z</time>
      </trkpt>
      <trkpt lat="43.01946" lon="0.19537">
        <ele>1232.3</ele>
        <time>2023-11-19T11:55:50Z</time>
      </trkpt>
      <trkpt lat="43.01946" lon="0.19537">
        <ele>1232.3</ele>
        <time>2023-11-19T11:55:51Z</time>
      </trkpt>
      <trkpt lat="43.01945" lon="0.19537">
        <ele>1232.3</ele>
        <time>2023-11-19T11:55:52Z</time>
      </trkpt>
      <trkpt lat="43.01946" lon="0.19537">
        <ele>1232.4</ele>
        <time>2023-11-19T11:55:53Z</time>
      </trkpt>
      <trkpt lat="43.01946" lon="0.19536">
        <ele>1232.4</ele>
        <time>2023-11-19T11:55:54Z</time>
      </trkpt>
      <trkpt lat="43.01946" lon="0.19537">
        <ele>1232.4</ele>
        <time>2023-11-19T11:55:55Z</time>
      </trkpt>
      <trkpt lat="43.01945" lon="0.19539">
        <ele>1232</ele>
        <time>2023-11-19T11:55:56Z</time>
      </trkpt>
      <trkpt lat="43.01945" lon="0.19539">
        <ele>1232.4</ele>
        <time>2023-11-19T11:55:57Z</time>
      </trkpt>
      <trkpt lat="43.01945" lon="0.19539">
        <ele>1232.4</ele>
        <time>2023-11-19T11:55:58Z</time>
      </trkpt>
      <trkpt lat="43.01945" lon="0.1954">
        <ele>1232</ele>
        <time>2023-11-19T11:55:59Z</time>
      </trkpt>
      <trkpt lat="43.01945" lon="0.1954">
        <ele>1232.1</ele>
        <time>2023-11-19T11:56:01Z</time>
      </trkpt>
      <trkpt lat="43.01945" lon="0.1954">
        <ele>1232.1</ele>
        <time>2023-11-19T11:56:02Z</time>
      </trkpt>
      <trkpt lat="43.01945" lon="0.1954">
        <ele>1232.1</ele>
        <time>2023-11-19T11:56:03Z</time>
      </trkpt>
      <trkpt lat="43.01945" lon="0.1954">
        <ele>1232.1</ele>
        <time>2023-11-19T11:56:04Z</time>
      </trkpt>
      <trkpt lat="43.01945" lon="0.19539">
        <ele>1232.4</ele>
        <time>2023-11-19T11:56:05Z</time>
      </trkpt>
      <trkpt lat="43.01945" lon="0.19538">
        <ele>1232.4</ele>
        <time>2023-11-19T11:56:06Z</time>
      </trkpt>
      <trkpt lat="43.01945" lon="0.19538">
        <ele>1232.4</ele>
        <time>2023-11-19T11:56:07Z</time>
      </trkpt>
      <trkpt lat="43.01945" lon="0.19538">
        <ele>1232.4</ele>
        <time>2023-11-19T11:56:08Z</time>
      </trkpt>
      <trkpt lat="43.01945" lon="0.19538">
        <ele>1232.4</ele>
        <time>2023-11-19T11:56:09Z</time>
      </trkpt>
      <trkpt lat="43.01945" lon="0.19538">
        <ele>1232.4</ele>
        <time>2023-11-19T11:56:10Z</time>
      </trkpt>
      <trkpt lat="43.01945" lon="0.19538">
        <ele>1232.5</ele>
        <time>2023-11-19T11:56:11Z</time>
      </trkpt>
      <trkpt lat="43.01945" lon="0.19538">
        <ele>1232.5</ele>
        <time>2023-11-19T11:56:12Z</time>
      </trkpt>
      <trkpt lat="43.01945" lon="0.19538">
        <ele>1232.5</ele>
        <time>2023-11-19T11:56:13Z</time>
      </trkpt>
      <trkpt lat="43.01945" lon="0.19538">
        <ele>1232.5</ele>
        <time>2023-11-19T11:56:14Z</time>
      </trkpt>
      <trkpt lat="43.01945" lon="0.19538">
        <ele>1232.5</ele>
        <time>2023-11-19T11:56:15Z</time>
      </trkpt>
      <trkpt lat="43.01945" lon="0.19538">
        <ele>1232.5</ele>
        <time>2023-11-19T11:56:16Z</time>
      </trkpt>
      <trkpt lat="43.01945" lon="0.19538">
        <ele>1232.5</ele>
        <time>2023-11-19T11:56:17Z</time>
      </trkpt>
      <trkpt lat="43.01945" lon="0.19538">
        <ele>1232.5</ele>
        <time>2023-11-19T11:56:18Z</time>
      </trkpt>
      <trkpt lat="43.01945" lon="0.19538">
        <ele>1232.5</ele>
        <time>2023-11-19T11:56:19Z</time>
      </trkpt>
      <trkpt lat="43.01945" lon="0.19538">
        <ele>1232.5</ele>
        <time>2023-11-19T11:56:20Z</time>
      </trkpt>
      <trkpt lat="43.01945" lon="0.19538">
        <ele>1232.5</ele>
        <time>2023-11-19T11:56:21Z</time>
      </trkpt>
      <trkpt lat="43.01945" lon="0.19538">
        <ele>1232.5</ele>
        <time>2023-11-19T11:56:22Z</time>
      </trkpt>
      <trkpt lat="43.01945" lon="0.19538">
        <ele>1232.5</ele>
        <time>2023-11-19T11:56:23Z</time>
      </trkpt>
      <trkpt lat="43.01945" lon="0.19538">
        <ele>1232.5</ele>
        <time>2023-11-19T11:56:24Z</time>
      </trkpt>
      <trkpt lat="43.01945" lon="0.19538">
        <ele>1232.5</ele>
        <time>2023-11-19T11:56:25Z</time>
      </trkpt>
      <trkpt lat="43.01945" lon="0.19538">
        <ele>1232.5</ele>
        <time>2023-11-19T11:56:26Z</time>
      </trkpt>
      <trkpt lat="43.01945" lon="0.19538">
        <ele>1232.5</ele>
        <time>2023-11-19T11:56:27Z</time>
      </trkpt>
      <trkpt lat="43.01945" lon="0.19539">
        <ele>1232.5</ele>
        <time>2023-11-19T11:56:28Z</time>
      </trkpt>
      <trkpt lat="43.01945" lon="0.19541">
        <ele>1232.2</ele>
        <time>2023-11-19T11:56:29Z</time>
      </trkpt>
      <trkpt lat="43.01945" lon="0.19541">
        <ele>1232.2</ele>
        <time>2023-11-19T11:56:30Z</time>
      </trkpt>
      <trkpt lat="43.01945" lon="0.19541">
        <ele>1232.2</ele>
        <time>2023-11-19T11:56:31Z</time>
      </trkpt>
      <trkpt lat="43.01945" lon="0.19541">
        <ele>1232.2</ele>
        <time>2023-11-19T11:56:32Z</time>
      </trkpt>
      <trkpt lat="43.01945" lon="0.19541">
        <ele>1232.2</ele>
        <time>2023-11-19T11:56:33Z</time>
      </trkpt>
      <trkpt lat="43.01945" lon="0.19541">
        <ele>1232.2</ele>
        <time>2023-11-19T11:56:34Z</time>
      </trkpt>
      <trkpt lat="43.01945" lon="0.19541">
        <ele>1232.2</ele>
        <time>2023-11-19T11:56:35Z</time>
      </trkpt>
      <trkpt lat="43.01945" lon="0.19541">
        <ele>1232.3</ele>
        <time>2023-11-19T11:56:36Z</time>
      </trkpt>
      <trkpt lat="43.01945" lon="0.19541">
        <ele>1232.3</ele>
        <time>2023-11-19T11:56:37Z</time>
      </trkpt>
      <trkpt lat="43.01945" lon="0.19541">
        <ele>1232.3</ele>
        <time>2023-11-19T11:56:38Z</time>
      </trkpt>
      <trkpt lat="43.01945" lon="0.19541">
        <ele>1232.3</ele>
        <time>2023-11-19T11:56:39Z</time>
      </trkpt>
      <trkpt lat="43.01945" lon="0.19541">
        <ele>1232.3</ele>
        <time>2023-11-19T11:56:40Z</time>
      </trkpt>
      <trkpt lat="43.01945" lon="0.19541">
        <ele>1232.3</ele>
        <time>2023-11-19T11:56:41Z</time>
      </trkpt>
      <trkpt lat="43.01947" lon="0.19539">
        <ele>1233.4</ele>
        <time>2023-11-19T11:56:42Z</time>
      </trkpt>
      <trkpt lat="43.01947" lon="0.19538">
        <ele>1233.4</ele>
        <time>2023-11-19T11:56:43Z</time>
      </trkpt>
      <trkpt lat="43.01947" lon="0.19538">
        <ele>1233.4</ele>
        <time>2023-11-19T11:56:44Z</time>
      </trkpt>
      <trkpt lat="43.01947" lon="0.19538">
        <ele>1233.4</ele>
        <time>2023-11-19T11:56:45Z</time>
      </trkpt>
      <trkpt lat="43.01947" lon="0.19538">
        <ele>1233.4</ele>
        <time>2023-11-19T11:56:46Z</time>
      </trkpt>
      <trkpt lat="43.01947" lon="0.19538">
        <ele>1233.4</ele>
        <time>2023-11-19T11:56:47Z</time>
      </trkpt>
      <trkpt lat="43.01947" lon="0.19538">
        <ele>1233.4</ele>
        <time>2023-11-19T11:56:48Z</time>
      </trkpt>
      <trkpt lat="43.01947" lon="0.19538">
        <ele>1233.4</ele>
        <time>2023-11-19T11:56:49Z</time>
      </trkpt>
      <trkpt lat="43.01947" lon="0.19538">
        <ele>1233.4</ele>
        <time>2023-11-19T11:56:50Z</time>
      </trkpt>
      <trkpt lat="43.01947" lon="0.19538">
        <ele>1233.4</ele>
        <time>2023-11-19T11:56:51Z</time>
      </trkpt>
      <trkpt lat="43.01946" lon="0.19538">
        <ele>1232.7</ele>
        <time>2023-11-19T11:56:52Z</time>
      </trkpt>
      <trkpt lat="43.01946" lon="0.19538">
        <ele>1232.7</ele>
        <time>2023-11-19T11:56:53Z</time>
      </trkpt>
      <trkpt lat="43.01945" lon="0.19536">
        <ele>1232.7</ele>
        <time>2023-11-19T11:56:54Z</time>
      </trkpt>
      <trkpt lat="43.01945" lon="0.19536">
        <ele>1232.7</ele>
        <time>2023-11-19T11:56:55Z</time>
      </trkpt>
      <trkpt lat="43.01944" lon="0.19537">
        <ele>1232.7</ele>
        <time>2023-11-19T11:56:56Z</time>
      </trkpt>
      <trkpt lat="43.01945" lon="0.19538">
        <ele>1232.7</ele>
        <time>2023-11-19T11:56:57Z</time>
      </trkpt>
      <trkpt lat="43.01945" lon="0.19538">
        <ele>1232.7</ele>
        <time>2023-11-19T11:56:58Z</time>
      </trkpt>
      <trkpt lat="43.01944" lon="0.19538">
        <ele>1232.7</ele>
        <time>2023-11-19T11:56:59Z</time>
      </trkpt>
      <trkpt lat="43.01944" lon="0.19539">
        <ele>1232.4</ele>
        <time>2023-11-19T11:57:00Z</time>
      </trkpt>
      <trkpt lat="43.01944" lon="0.1954">
        <ele>1232.4</ele>
        <time>2023-11-19T11:57:01Z</time>
      </trkpt>
      <trkpt lat="43.01945" lon="0.19538">
        <ele>1232.7</ele>
        <time>2023-11-19T11:57:02Z</time>
      </trkpt>
      <trkpt lat="43.01944" lon="0.19542">
        <ele>1232.4</ele>
        <time>2023-11-19T11:57:03Z</time>
      </trkpt>
      <trkpt lat="43.01944" lon="0.19543">
        <ele>1232.4</ele>
        <time>2023-11-19T11:57:04Z</time>
      </trkpt>
      <trkpt lat="43.01944" lon="0.19543">
        <ele>1232.4</ele>
        <time>2023-11-19T11:57:05Z</time>
      </trkpt>
      <trkpt lat="43.01944" lon="0.19545">
        <ele>1232.1</ele>
        <time>2023-11-19T11:57:06Z</time>
      </trkpt>
      <trkpt lat="43.01944" lon="0.19545">
        <ele>1232.1</ele>
        <time>2023-11-19T11:57:07Z</time>
      </trkpt>
      <trkpt lat="43.01943" lon="0.19545">
        <ele>1232.1</ele>
        <time>2023-11-19T11:57:08Z</time>
      </trkpt>
      <trkpt lat="43.01943" lon="0.19545">
        <ele>1232.1</ele>
        <time>2023-11-19T11:57:09Z</time>
      </trkpt>
      <trkpt lat="43.01943" lon="0.19545">
        <ele>1232.1</ele>
        <time>2023-11-19T11:57:10Z</time>
      </trkpt>
      <trkpt lat="43.01943" lon="0.19545">
        <ele>1232.1</ele>
        <time>2023-11-19T11:57:11Z</time>
      </trkpt>
      <trkpt lat="43.01943" lon="0.19545">
        <ele>1232.1</ele>
        <time>2023-11-19T11:57:12Z</time>
      </trkpt>
      <trkpt lat="43.01944" lon="0.19545">
        <ele>1232.1</ele>
        <time>2023-11-19T11:57:13Z</time>
      </trkpt>
      <trkpt lat="43.01944" lon="0.19545">
        <ele>1232.1</ele>
        <time>2023-11-19T11:57:14Z</time>
      </trkpt>
      <trkpt lat="43.01943" lon="0.19546">
        <ele>1232.1</ele>
        <time>2023-11-19T11:57:15Z</time>
      </trkpt>
      <trkpt lat="43.01943" lon="0.19547">
        <ele>1232.1</ele>
        <time>2023-11-19T11:57:16Z</time>
      </trkpt>
      <trkpt lat="43.01943" lon="0.19548">
        <ele>1231.8</ele>
        <time>2023-11-19T11:57:17Z</time>
      </trkpt>
      <trkpt lat="43.01942" lon="0.19549">
        <ele>1231.1</ele>
        <time>2023-11-19T11:57:18Z</time>
      </trkpt>
      <trkpt lat="43.01942" lon="0.1955">
        <ele>1231.1</ele>
        <time>2023-11-19T11:57:19Z</time>
      </trkpt>
      <trkpt lat="43.01942" lon="0.19551">
        <ele>1231.1</ele>
        <time>2023-11-19T11:57:20Z</time>
      </trkpt>
      <trkpt lat="43.01943" lon="0.19552">
        <ele>1231.1</ele>
        <time>2023-11-19T11:57:21Z</time>
      </trkpt>
      <trkpt lat="43.01942" lon="0.19553">
        <ele>1230.7</ele>
        <time>2023-11-19T11:57:22Z</time>
      </trkpt>
      <trkpt lat="43.01943" lon="0.19555">
        <ele>1231.5</ele>
        <time>2023-11-19T11:57:23Z</time>
      </trkpt>
      <trkpt lat="43.01943" lon="0.19555">
        <ele>1230.8</ele>
        <time>2023-11-19T11:57:24Z</time>
      </trkpt>
      <trkpt lat="43.01943" lon="0.19557">
        <ele>1231.1</ele>
        <time>2023-11-19T11:57:25Z</time>
      </trkpt>
      <trkpt lat="43.01943" lon="0.19558">
        <ele>1231.1</ele>
        <time>2023-11-19T11:57:26Z</time>
      </trkpt>
      <trkpt lat="43.01944" lon="0.1956">
        <ele>1231.1</ele>
        <time>2023-11-19T11:57:27Z</time>
      </trkpt>
      <trkpt lat="43.01944" lon="0.19561">
        <ele>1230.8</ele>
        <time>2023-11-19T11:57:28Z</time>
      </trkpt>
      <trkpt lat="43.01944" lon="0.19562">
        <ele>1230.8</ele>
        <time>2023-11-19T11:57:29Z</time>
      </trkpt>
      <trkpt lat="43.01945" lon="0.19564">
        <ele>1230.8</ele>
        <time>2023-11-19T11:57:30Z</time>
      </trkpt>
      <trkpt lat="43.01946" lon="0.19564">
        <ele>1230.8</ele>
        <time>2023-11-19T11:57:31Z</time>
      </trkpt>
      <trkpt lat="43.01946" lon="0.19564">
        <ele>1231.6</ele>
        <time>2023-11-19T11:57:32Z</time>
      </trkpt>
      <trkpt lat="43.01946" lon="0.19565">
        <ele>1231.6</ele>
        <time>2023-11-19T11:57:33Z</time>
      </trkpt>
      <trkpt lat="43.01946" lon="0.19565">
        <ele>1231.6</ele>
        <time>2023-11-19T11:57:34Z</time>
      </trkpt>
      <trkpt lat="43.01946" lon="0.19565">
        <ele>1231.6</ele>
        <time>2023-11-19T11:57:35Z</time>
      </trkpt>
      <trkpt lat="43.01946" lon="0.19565">
        <ele>1231.6</ele>
        <time>2023-11-19T11:57:36Z</time>
      </trkpt>
      <trkpt lat="43.01946" lon="0.19565">
        <ele>1231.6</ele>
        <time>2023-11-19T11:57:37Z</time>
      </trkpt>
      <trkpt lat="43.01946" lon="0.19565">
        <ele>1231.6</ele>
        <time>2023-11-19T11:57:38Z</time>
      </trkpt>
      <trkpt lat="43.01946" lon="0.19565">
        <ele>1231.6</ele>
        <time>2023-11-19T11:57:39Z</time>
      </trkpt>
      <trkpt lat="43.01946" lon="0.19565">
        <ele>1231.6</ele>
        <time>2023-11-19T11:57:40Z</time>
      </trkpt>
      <trkpt lat="43.01946" lon="0.19565">
        <ele>1231.6</ele>
        <time>2023-11-19T11:57:41Z</time>
      </trkpt>
      <trkpt lat="43.01946" lon="0.19565">
        <ele>1231.6</ele>
        <time>2023-11-19T11:57:42Z</time>
      </trkpt>
      <trkpt lat="43.01947" lon="0.19565">
        <ele>1231.6</ele>
        <time>2023-11-19T11:57:43Z</time>
      </trkpt>
      <trkpt lat="43.01947" lon="0.19565">
        <ele>1231.6</ele>
        <time>2023-11-19T11:57:44Z</time>
      </trkpt>
      <trkpt lat="43.01947" lon="0.19565">
        <ele>1231.6</ele>
        <time>2023-11-19T11:57:45Z</time>
      </trkpt>
      <trkpt lat="43.01947" lon="0.19565">
        <ele>1231.6</ele>
        <time>2023-11-19T11:57:46Z</time>
      </trkpt>
      <trkpt lat="43.01947" lon="0.19565">
        <ele>1231.6</ele>
        <time>2023-11-19T11:57:47Z</time>
      </trkpt>
      <trkpt lat="43.01947" lon="0.19565">
        <ele>1231.7</ele>
        <time>2023-11-19T11:57:48Z</time>
      </trkpt>
      <trkpt lat="43.01947" lon="0.19565">
        <ele>1231.7</ele>
        <time>2023-11-19T11:57:49Z</time>
      </trkpt>
      <trkpt lat="43.01947" lon="0.19565">
        <ele>1231.7</ele>
        <time>2023-11-19T11:57:50Z</time>
      </trkpt>
      <trkpt lat="43.01947" lon="0.19565">
        <ele>1231.7</ele>
        <time>2023-11-19T11:57:51Z</time>
      </trkpt>
      <trkpt lat="43.01947" lon="0.19565">
        <ele>1231.7</ele>
        <time>2023-11-19T11:57:52Z</time>
      </trkpt>
      <trkpt lat="43.01947" lon="0.19565">
        <ele>1231.7</ele>
        <time>2023-11-19T11:57:53Z</time>
      </trkpt>
      <trkpt lat="43.01947" lon="0.19565">
        <ele>1231.7</ele>
        <time>2023-11-19T11:57:54Z</time>
      </trkpt>
      <trkpt lat="43.01947" lon="0.19565">
        <ele>1231.7</ele>
        <time>2023-11-19T11:57:55Z</time>
      </trkpt>
      <trkpt lat="43.01947" lon="0.19565">
        <ele>1231.7</ele>
        <time>2023-11-19T11:57:56Z</time>
      </trkpt>
      <trkpt lat="43.01947" lon="0.19565">
        <ele>1231.7</ele>
        <time>2023-11-19T11:57:57Z</time>
      </trkpt>
      <trkpt lat="43.01947" lon="0.19565">
        <ele>1231.7</ele>
        <time>2023-11-19T11:57:58Z</time>
      </trkpt>
      <trkpt lat="43.01947" lon="0.19565">
        <ele>1231.7</ele>
        <time>2023-11-19T11:57:59Z</time>
      </trkpt>
      <trkpt lat="43.01947" lon="0.19565">
        <ele>1231.7</ele>
        <time>2023-11-19T11:58:00Z</time>
      </trkpt>
      <trkpt lat="43.01947" lon="0.19565">
        <ele>1231.7</ele>
        <time>2023-11-19T11:58:01Z</time>
      </trkpt>
      <trkpt lat="43.01947" lon="0.19565">
        <ele>1231.7</ele>
        <time>2023-11-19T11:58:02Z</time>
      </trkpt>
      <trkpt lat="43.01947" lon="0.19565">
        <ele>1231.7</ele>
        <time>2023-11-19T11:58:03Z</time>
      </trkpt>
      <trkpt lat="43.01947" lon="0.19565">
        <ele>1231.4</ele>
        <time>2023-11-19T11:58:04Z</time>
      </trkpt>
      <trkpt lat="43.01947" lon="0.19566">
        <ele>1231.4</ele>
        <time>2023-11-19T11:58:05Z</time>
      </trkpt>
      <trkpt lat="43.01947" lon="0.19567">
        <ele>1231.4</ele>
        <time>2023-11-19T11:58:07Z</time>
      </trkpt>
      <trkpt lat="43.01947" lon="0.19567">
        <ele>1231.4</ele>
        <time>2023-11-19T11:58:08Z</time>
      </trkpt>
      <trkpt lat="43.01947" lon="0.19567">
        <ele>1231.4</ele>
        <time>2023-11-19T11:58:09Z</time>
      </trkpt>
      <trkpt lat="43.01947" lon="0.19567">
        <ele>1231.4</ele>
        <time>2023-11-19T11:58:10Z</time>
      </trkpt>
      <trkpt lat="43.01947" lon="0.19567">
        <ele>1231.4</ele>
        <time>2023-11-19T11:58:11Z</time>
      </trkpt>
      <trkpt lat="43.01947" lon="0.19567">
        <ele>1231.5</ele>
        <time>2023-11-19T11:58:12Z</time>
      </trkpt>
      <trkpt lat="43.01947" lon="0.19567">
        <ele>1231.5</ele>
        <time>2023-11-19T11:58:13Z</time>
      </trkpt>
      <trkpt lat="43.01947" lon="0.19567">
        <ele>1231.5</ele>
        <time>2023-11-19T11:58:14Z</time>
      </trkpt>
      <trkpt lat="43.01947" lon="0.19567">
        <ele>1231.5</ele>
        <time>2023-11-19T11:58:15Z</time>
      </trkpt>
      <trkpt lat="43.01947" lon="0.19567">
        <ele>1231.5</ele>
        <time>2023-11-19T11:58:16Z</time>
      </trkpt>
      <trkpt lat="43.01947" lon="0.19567">
        <ele>1231.5</ele>
        <time>2023-11-19T11:58:17Z</time>
      </trkpt>
      <trkpt lat="43.01947" lon="0.19567">
        <ele>1231.5</ele>
        <time>2023-11-19T11:58:18Z</time>
      </trkpt>
      <trkpt lat="43.01948" lon="0.19567">
        <ele>1231.5</ele>
        <time>2023-11-19T11:58:19Z</time>
      </trkpt>
      <trkpt lat="43.01948" lon="0.19567">
        <ele>1231.5</ele>
        <time>2023-11-19T11:58:20Z</time>
      </trkpt>
      <trkpt lat="43.01949" lon="0.19568">
        <ele>1232.2</ele>
        <time>2023-11-19T11:58:21Z</time>
      </trkpt>
      <trkpt lat="43.0195" lon="0.19569">
        <ele>1232.2</ele>
        <time>2023-11-19T11:58:22Z</time>
      </trkpt>
      <trkpt lat="43.0195" lon="0.19569">
        <ele>1232.2</ele>
        <time>2023-11-19T11:58:23Z</time>
      </trkpt>
      <trkpt lat="43.0195" lon="0.1957">
        <ele>1231.9</ele>
        <time>2023-11-19T11:58:24Z</time>
      </trkpt>
      <trkpt lat="43.01951" lon="0.19571">
        <ele>1231.9</ele>
        <time>2023-11-19T11:58:25Z</time>
      </trkpt>
      <trkpt lat="43.01951" lon="0.19572">
        <ele>1231.9</ele>
        <time>2023-11-19T11:58:26Z</time>
      </trkpt>
      <trkpt lat="43.01951" lon="0.19573">
        <ele>1231.9</ele>
        <time>2023-11-19T11:58:27Z</time>
      </trkpt>
      <trkpt lat="43.01951" lon="0.19574">
        <ele>1231.6</ele>
        <time>2023-11-19T11:58:28Z</time>
      </trkpt>
      <trkpt lat="43.01951" lon="0.19576">
        <ele>1231.6</ele>
        <time>2023-11-19T11:58:29Z</time>
      </trkpt>
      <trkpt lat="43.01951" lon="0.19578">
        <ele>1231.6</ele>
        <time>2023-11-19T11:58:30Z</time>
      </trkpt>
      <trkpt lat="43.01951" lon="0.1958">
        <ele>1231.2</ele>
        <time>2023-11-19T11:58:31Z</time>
      </trkpt>
      <trkpt lat="43.01951" lon="0.19581">
        <ele>1231.2</ele>
        <time>2023-11-19T11:58:32Z</time>
      </trkpt>
      <trkpt lat="43.01951" lon="0.19582">
        <ele>1230.8</ele>
        <time>2023-11-19T11:58:33Z</time>
      </trkpt>
      <trkpt lat="43.01951" lon="0.19584">
        <ele>1230.8</ele>
        <time>2023-11-19T11:58:34Z</time>
      </trkpt>
      <trkpt lat="43.01951" lon="0.19585">
        <ele>1230.8</ele>
        <time>2023-11-19T11:58:35Z</time>
      </trkpt>
      <trkpt lat="43.01951" lon="0.19587">
        <ele>1230.4</ele>
        <time>2023-11-19T11:58:36Z</time>
      </trkpt>
      <trkpt lat="43.01951" lon="0.19588">
        <ele>1230.4</ele>
        <time>2023-11-19T11:58:37Z</time>
      </trkpt>
      <trkpt lat="43.01951" lon="0.19589">
        <ele>1230.4</ele>
        <time>2023-11-19T11:58:38Z</time>
      </trkpt>
      <trkpt lat="43.01951" lon="0.1959">
        <ele>1230.4</ele>
        <time>2023-11-19T11:58:39Z</time>
      </trkpt>
      <trkpt lat="43.01951" lon="0.19592">
        <ele>1229.9</ele>
        <time>2023-11-19T11:58:40Z</time>
      </trkpt>
      <trkpt lat="43.01951" lon="0.19594">
        <ele>1229.9</ele>
        <time>2023-11-19T11:58:41Z</time>
      </trkpt>
      <trkpt lat="43.01951" lon="0.19597">
        <ele>1229.5</ele>
        <time>2023-11-19T11:58:42Z</time>
      </trkpt>
      <trkpt lat="43.01951" lon="0.19598">
        <ele>1229.5</ele>
        <time>2023-11-19T11:58:43Z</time>
      </trkpt>
      <trkpt lat="43.01951" lon="0.19599">
        <ele>1229.5</ele>
        <time>2023-11-19T11:58:44Z</time>
      </trkpt>
      <trkpt lat="43.01951" lon="0.19601">
        <ele>1229</ele>
        <time>2023-11-19T11:58:45Z</time>
      </trkpt>
      <trkpt lat="43.01951" lon="0.19603">
        <ele>1229</ele>
        <time>2023-11-19T11:58:46Z</time>
      </trkpt>
      <trkpt lat="43.01952" lon="0.19604">
        <ele>1229</ele>
        <time>2023-11-19T11:58:47Z</time>
      </trkpt>
      <trkpt lat="43.01952" lon="0.19605">
        <ele>1228.6</ele>
        <time>2023-11-19T11:58:48Z</time>
      </trkpt>
      <trkpt lat="43.01952" lon="0.19605">
        <ele>1229.2</ele>
        <time>2023-11-19T11:58:49Z</time>
      </trkpt>
      <trkpt lat="43.01952" lon="0.19607">
        <ele>1229.2</ele>
        <time>2023-11-19T11:58:50Z</time>
      </trkpt>
      <trkpt lat="43.01952" lon="0.19607">
        <ele>1228.6</ele>
        <time>2023-11-19T11:58:51Z</time>
      </trkpt>
      <trkpt lat="43.01952" lon="0.19606">
        <ele>1228.6</ele>
        <time>2023-11-19T11:58:52Z</time>
      </trkpt>
      <trkpt lat="43.01952" lon="0.19606">
        <ele>1228.6</ele>
        <time>2023-11-19T11:58:53Z</time>
      </trkpt>
      <trkpt lat="43.01951" lon="0.19605">
        <ele>1228.6</ele>
        <time>2023-11-19T11:58:54Z</time>
      </trkpt>
      <trkpt lat="43.01952" lon="0.19605">
        <ele>1228.6</ele>
        <time>2023-11-19T11:58:55Z</time>
      </trkpt>
      <trkpt lat="43.01952" lon="0.19606">
        <ele>1228.6</ele>
        <time>2023-11-19T11:58:56Z</time>
      </trkpt>
      <trkpt lat="43.01952" lon="0.19606">
        <ele>1228.6</ele>
        <time>2023-11-19T11:58:57Z</time>
      </trkpt>
      <trkpt lat="43.01952" lon="0.19606">
        <ele>1229.3</ele>
        <time>2023-11-19T11:58:58Z</time>
      </trkpt>
      <trkpt lat="43.01952" lon="0.19606">
        <ele>1228.7</ele>
        <time>2023-11-19T11:58:59Z</time>
      </trkpt>
      <trkpt lat="43.01952" lon="0.19606">
        <ele>1229.3</ele>
        <time>2023-11-19T11:59:00Z</time>
      </trkpt>
      <trkpt lat="43.01952" lon="0.19606">
        <ele>1229.3</ele>
        <time>2023-11-19T11:59:01Z</time>
      </trkpt>
      <trkpt lat="43.01952" lon="0.19606">
        <ele>1229.3</ele>
        <time>2023-11-19T11:59:02Z</time>
      </trkpt>
      <trkpt lat="43.01952" lon="0.19606">
        <ele>1229.3</ele>
        <time>2023-11-19T11:59:03Z</time>
      </trkpt>
      <trkpt lat="43.01952" lon="0.19606">
        <ele>1229.3</ele>
        <time>2023-11-19T11:59:04Z</time>
      </trkpt>
      <trkpt lat="43.01952" lon="0.19606">
        <ele>1229.3</ele>
        <time>2023-11-19T11:59:05Z</time>
      </trkpt>
      <trkpt lat="43.01952" lon="0.19606">
        <ele>1229.3</ele>
        <time>2023-11-19T11:59:06Z</time>
      </trkpt>
      <trkpt lat="43.01952" lon="0.19606">
        <ele>1229.3</ele>
        <time>2023-11-19T11:59:07Z</time>
      </trkpt>
      <trkpt lat="43.01952" lon="0.19606">
        <ele>1229.3</ele>
        <time>2023-11-19T11:59:08Z</time>
      </trkpt>
      <trkpt lat="43.01953" lon="0.19606">
        <ele>1229.3</ele>
        <time>2023-11-19T11:59:09Z</time>
      </trkpt>
      <trkpt lat="43.01953" lon="0.19606">
        <ele>1229.3</ele>
        <time>2023-11-19T11:59:10Z</time>
      </trkpt>
      <trkpt lat="43.01953" lon="0.19606">
        <ele>1229.4</ele>
        <time>2023-11-19T11:59:11Z</time>
      </trkpt>
      <trkpt lat="43.01952" lon="0.19606">
        <ele>1229.4</ele>
        <time>2023-11-19T11:59:12Z</time>
      </trkpt>
      <trkpt lat="43.01952" lon="0.19605">
        <ele>1229.4</ele>
        <time>2023-11-19T11:59:13Z</time>
      </trkpt>
      <trkpt lat="43.01953" lon="0.19606">
        <ele>1229.4</ele>
        <time>2023-11-19T11:59:14Z</time>
      </trkpt>
      <trkpt lat="43.01953" lon="0.19606">
        <ele>1229.4</ele>
        <time>2023-11-19T11:59:15Z</time>
      </trkpt>
      <trkpt lat="43.01953" lon="0.19606">
        <ele>1229.4</ele>
        <time>2023-11-19T11:59:16Z</time>
      </trkpt>
      <trkpt lat="43.01953" lon="0.19608">
        <ele>1229.4</ele>
        <time>2023-11-19T11:59:17Z</time>
      </trkpt>
      <trkpt lat="43.01953" lon="0.19609">
        <ele>1228.9</ele>
        <time>2023-11-19T11:59:18Z</time>
      </trkpt>
      <trkpt lat="43.01952" lon="0.1961">
        <ele>1228.9</ele>
        <time>2023-11-19T11:59:19Z</time>
      </trkpt>
      <trkpt lat="43.01952" lon="0.19611">
        <ele>1228.9</ele>
        <time>2023-11-19T11:59:20Z</time>
      </trkpt>
      <trkpt lat="43.01953" lon="0.19611">
        <ele>1229</ele>
        <time>2023-11-19T11:59:21Z</time>
      </trkpt>
      <trkpt lat="43.01954" lon="0.19613">
        <ele>1228.5</ele>
        <time>2023-11-19T11:59:22Z</time>
      </trkpt>
      <trkpt lat="43.01954" lon="0.19614">
        <ele>1228.5</ele>
        <time>2023-11-19T11:59:23Z</time>
      </trkpt>
      <trkpt lat="43.01955" lon="0.19615">
        <ele>1228.5</ele>
        <time>2023-11-19T11:59:24Z</time>
      </trkpt>
      <trkpt lat="43.01955" lon="0.19617">
        <ele>1228.5</ele>
        <time>2023-11-19T11:59:25Z</time>
      </trkpt>
      <trkpt lat="43.01955" lon="0.19618">
        <ele>1228.6</ele>
        <time>2023-11-19T11:59:26Z</time>
      </trkpt>
      <trkpt lat="43.01955" lon="0.19619">
        <ele>1228.6</ele>
        <time>2023-11-19T11:59:27Z</time>
      </trkpt>
      <trkpt lat="43.01956" lon="0.19622">
        <ele>1228.2</ele>
        <time>2023-11-19T11:59:28Z</time>
      </trkpt>
      <trkpt lat="43.01956" lon="0.19623">
        <ele>1228.2</ele>
        <time>2023-11-19T11:59:29Z</time>
      </trkpt>
      <trkpt lat="43.01956" lon="0.19624">
        <ele>1228.2</ele>
        <time>2023-11-19T11:59:30Z</time>
      </trkpt>
      <trkpt lat="43.01956" lon="0.19625">
        <ele>1228.2</ele>
        <time>2023-11-19T11:59:31Z</time>
      </trkpt>
      <trkpt lat="43.01956" lon="0.19626">
        <ele>1227.7</ele>
        <time>2023-11-19T11:59:32Z</time>
      </trkpt>
      <trkpt lat="43.01956" lon="0.19627">
        <ele>1227.7</ele>
        <time>2023-11-19T11:59:33Z</time>
      </trkpt>
      <trkpt lat="43.01957" lon="0.19629">
        <ele>1227.8</ele>
        <time>2023-11-19T11:59:34Z</time>
      </trkpt>
      <trkpt lat="43.01957" lon="0.1963">
        <ele>1227.3</ele>
        <time>2023-11-19T11:59:35Z</time>
      </trkpt>
      <trkpt lat="43.01957" lon="0.19632">
        <ele>1227.3</ele>
        <time>2023-11-19T11:59:36Z</time>
      </trkpt>
      <trkpt lat="43.01958" lon="0.19633">
        <ele>1227.3</ele>
        <time>2023-11-19T11:59:37Z</time>
      </trkpt>
      <trkpt lat="43.01959" lon="0.19634">
        <ele>1227.3</ele>
        <time>2023-11-19T11:59:38Z</time>
      </trkpt>
      <trkpt lat="43.01959" lon="0.19635">
        <ele>1227.3</ele>
        <time>2023-11-19T11:59:39Z</time>
      </trkpt>
      <trkpt lat="43.0196" lon="0.19637">
        <ele>1227.3</ele>
        <time>2023-11-19T11:59:40Z</time>
      </trkpt>
      <trkpt lat="43.01961" lon="0.19637">
        <ele>1227.3</ele>
        <time>2023-11-19T11:59:41Z</time>
      </trkpt>
      <trkpt lat="43.01961" lon="0.19638">
        <ele>1227.3</ele>
        <time>2023-11-19T11:59:42Z</time>
      </trkpt>
      <trkpt lat="43.01961" lon="0.19638">
        <ele>1226.8</ele>
        <time>2023-11-19T11:59:43Z</time>
      </trkpt>
      <trkpt lat="43.01962" lon="0.19639">
        <ele>1227.2</ele>
        <time>2023-11-19T11:59:44Z</time>
      </trkpt>
      <trkpt lat="43.01962" lon="0.19639">
        <ele>1227.2</ele>
        <time>2023-11-19T11:59:45Z</time>
      </trkpt>
      <trkpt lat="43.01962" lon="0.19639">
        <ele>1227.2</ele>
        <time>2023-11-19T11:59:46Z</time>
      </trkpt>
      <trkpt lat="43.01962" lon="0.19639">
        <ele>1227.2</ele>
        <time>2023-11-19T11:59:47Z</time>
      </trkpt>
      <trkpt lat="43.01962" lon="0.19639">
        <ele>1227.2</ele>
        <time>2023-11-19T11:59:48Z</time>
      </trkpt>
      <trkpt lat="43.01962" lon="0.19639">
        <ele>1227.3</ele>
        <time>2023-11-19T11:59:49Z</time>
      </trkpt>
      <trkpt lat="43.01962" lon="0.19639">
        <ele>1227.3</ele>
        <time>2023-11-19T11:59:50Z</time>
      </trkpt>
      <trkpt lat="43.01962" lon="0.19638">
        <ele>1227.3</ele>
        <time>2023-11-19T11:59:51Z</time>
      </trkpt>
      <trkpt lat="43.01962" lon="0.19638">
        <ele>1227.3</ele>
        <time>2023-11-19T11:59:52Z</time>
      </trkpt>
      <trkpt lat="43.01962" lon="0.19639">
        <ele>1227.3</ele>
        <time>2023-11-19T11:59:53Z</time>
      </trkpt>
      <trkpt lat="43.01962" lon="0.19639">
        <ele>1227.3</ele>
        <time>2023-11-19T11:59:54Z</time>
      </trkpt>
      <trkpt lat="43.01962" lon="0.19639">
        <ele>1227.3</ele>
        <time>2023-11-19T11:59:55Z</time>
      </trkpt>
      <trkpt lat="43.01962" lon="0.19639">
        <ele>1227.3</ele>
        <time>2023-11-19T11:59:56Z</time>
      </trkpt>
      <trkpt lat="43.01962" lon="0.19638">
        <ele>1227.3</ele>
        <time>2023-11-19T11:59:57Z</time>
      </trkpt>
      <trkpt lat="43.01962" lon="0.19638">
        <ele>1227.3</ele>
        <time>2023-11-19T11:59:58Z</time>
      </trkpt>
      <trkpt lat="43.01962" lon="0.19638">
        <ele>1227.8</ele>
        <time>2023-11-19T11:59:59Z</time>
      </trkpt>
      <trkpt lat="43.01962" lon="0.19638">
        <ele>1227.3</ele>
        <time>2023-11-19T12:00:00Z</time>
      </trkpt>
      <trkpt lat="43.01962" lon="0.19638">
        <ele>1227.3</ele>
        <time>2023-11-19T12:00:01Z</time>
      </trkpt>
      <trkpt lat="43.01962" lon="0.19638">
        <ele>1227.8</ele>
        <time>2023-11-19T12:00:02Z</time>
      </trkpt>
      <trkpt lat="43.01962" lon="0.19638">
        <ele>1227.8</ele>
        <time>2023-11-19T12:00:03Z</time>
      </trkpt>
      <trkpt lat="43.01962" lon="0.19638">
        <ele>1227.8</ele>
        <time>2023-11-19T12:00:04Z</time>
      </trkpt>
      <trkpt lat="43.01963" lon="0.19639">
        <ele>1227.3</ele>
        <time>2023-11-19T12:00:05Z</time>
      </trkpt>
      <trkpt lat="43.01963" lon="0.19641">
        <ele>1227.4</ele>
        <time>2023-11-19T12:00:06Z</time>
      </trkpt>
      <trkpt lat="43.01963" lon="0.19642">
        <ele>1227.4</ele>
        <time>2023-11-19T12:00:07Z</time>
      </trkpt>
      <trkpt lat="43.01963" lon="0.19643">
        <ele>1226.9</ele>
        <time>2023-11-19T12:00:08Z</time>
      </trkpt>
      <trkpt lat="43.01963" lon="0.19644">
        <ele>1226.9</ele>
        <time>2023-11-19T12:00:09Z</time>
      </trkpt>
      <trkpt lat="43.01963" lon="0.19645">
        <ele>1226.9</ele>
        <time>2023-11-19T12:00:10Z</time>
      </trkpt>
      <trkpt lat="43.01963" lon="0.19646">
        <ele>1226.9</ele>
        <time>2023-11-19T12:00:11Z</time>
      </trkpt>
      <trkpt lat="43.01964" lon="0.19648">
        <ele>1226.4</ele>
        <time>2023-11-19T12:00:13Z</time>
      </trkpt>
      <trkpt lat="43.01964" lon="0.19649">
        <ele>1226.4</ele>
        <time>2023-11-19T12:00:14Z</time>
      </trkpt>
      <trkpt lat="43.01965" lon="0.1965">
        <ele>1226.4</ele>
        <time>2023-11-19T12:00:15Z</time>
      </trkpt>
      <trkpt lat="43.01965" lon="0.19651">
        <ele>1226.4</ele>
        <time>2023-11-19T12:00:16Z</time>
      </trkpt>
      <trkpt lat="43.01967" lon="0.19653">
        <ele>1226.4</ele>
        <time>2023-11-19T12:00:17Z</time>
      </trkpt>
      <trkpt lat="43.01967" lon="0.19654">
        <ele>1226.4</ele>
        <time>2023-11-19T12:00:19Z</time>
      </trkpt>
      <trkpt lat="43.01968" lon="0.19657">
        <ele>1225.9</ele>
        <time>2023-11-19T12:00:20Z</time>
      </trkpt>
      <trkpt lat="43.01969" lon="0.19658">
        <ele>1226.3</ele>
        <time>2023-11-19T12:00:22Z</time>
      </trkpt>
      <trkpt lat="43.0197" lon="0.19661">
        <ele>1225.9</ele>
        <time>2023-11-19T12:00:23Z</time>
      </trkpt>
      <trkpt lat="43.01969" lon="0.19663">
        <ele>1225.9</ele>
        <time>2023-11-19T12:00:24Z</time>
      </trkpt>
      <trkpt lat="43.0197" lon="0.19667">
        <ele>1225.4</ele>
        <time>2023-11-19T12:00:26Z</time>
      </trkpt>
      <trkpt lat="43.0197" lon="0.19668">
        <ele>1225.4</ele>
        <time>2023-11-19T12:00:27Z</time>
      </trkpt>
      <trkpt lat="43.01971" lon="0.19669">
        <ele>1225.3</ele>
        <time>2023-11-19T12:00:28Z</time>
      </trkpt>
      <trkpt lat="43.01971" lon="0.1967">
        <ele>1225.3</ele>
        <time>2023-11-19T12:00:29Z</time>
      </trkpt>
      <trkpt lat="43.01972" lon="0.19671">
        <ele>1225.3</ele>
        <time>2023-11-19T12:00:30Z</time>
      </trkpt>
      <trkpt lat="43.01972" lon="0.19673">
        <ele>1224.8</ele>
        <time>2023-11-19T12:00:31Z</time>
      </trkpt>
      <trkpt lat="43.01973" lon="0.19674">
        <ele>1224.8</ele>
        <time>2023-11-19T12:00:32Z</time>
      </trkpt>
      <trkpt lat="43.01973" lon="0.19676">
        <ele>1224.8</ele>
        <time>2023-11-19T12:00:33Z</time>
      </trkpt>
      <trkpt lat="43.01974" lon="0.19676">
        <ele>1224.8</ele>
        <time>2023-11-19T12:00:34Z</time>
      </trkpt>
      <trkpt lat="43.01974" lon="0.19677">
        <ele>1224.4</ele>
        <time>2023-11-19T12:00:35Z</time>
      </trkpt>
      <trkpt lat="43.01974" lon="0.19679">
        <ele>1224.4</ele>
        <time>2023-11-19T12:00:36Z</time>
      </trkpt>
      <trkpt lat="43.01974" lon="0.19681">
        <ele>1224.6</ele>
        <time>2023-11-19T12:00:37Z</time>
      </trkpt>
      <trkpt lat="43.01974" lon="0.19682">
        <ele>1224.2</ele>
        <time>2023-11-19T12:00:38Z</time>
      </trkpt>
      <trkpt lat="43.01974" lon="0.19683">
        <ele>1224.2</ele>
        <time>2023-11-19T12:00:39Z</time>
      </trkpt>
      <trkpt lat="43.01975" lon="0.19684">
        <ele>1224.2</ele>
        <time>2023-11-19T12:00:40Z</time>
      </trkpt>
      <trkpt lat="43.01975" lon="0.19686">
        <ele>1223.7</ele>
        <time>2023-11-19T12:00:41Z</time>
      </trkpt>
      <trkpt lat="43.01976" lon="0.19686">
        <ele>1223.7</ele>
        <time>2023-11-19T12:00:42Z</time>
      </trkpt>
      <trkpt lat="43.01977" lon="0.19689">
        <ele>1223.7</ele>
        <time>2023-11-19T12:00:43Z</time>
      </trkpt>
      <trkpt lat="43.01977" lon="0.1969">
        <ele>1223.2</ele>
        <time>2023-11-19T12:00:44Z</time>
      </trkpt>
      <trkpt lat="43.01977" lon="0.19691">
        <ele>1223.4</ele>
        <time>2023-11-19T12:00:45Z</time>
      </trkpt>
      <trkpt lat="43.01978" lon="0.19693">
        <ele>1223.4</ele>
        <time>2023-11-19T12:00:46Z</time>
      </trkpt>
      <trkpt lat="43.01978" lon="0.19694">
        <ele>1223</ele>
        <time>2023-11-19T12:00:47Z</time>
      </trkpt>
      <trkpt lat="43.01979" lon="0.19696">
        <ele>1223</ele>
        <time>2023-11-19T12:00:48Z</time>
      </trkpt>
      <trkpt lat="43.01979" lon="0.19697">
        <ele>1223</ele>
        <time>2023-11-19T12:00:49Z</time>
      </trkpt>
      <trkpt lat="43.01979" lon="0.19699">
        <ele>1222.6</ele>
        <time>2023-11-19T12:00:50Z</time>
      </trkpt>
      <trkpt lat="43.0198" lon="0.197">
        <ele>1222.6</ele>
        <time>2023-11-19T12:00:51Z</time>
      </trkpt>
      <trkpt lat="43.0198" lon="0.19701">
        <ele>1222.6</ele>
        <time>2023-11-19T12:00:52Z</time>
      </trkpt>
      <trkpt lat="43.0198" lon="0.19703">
        <ele>1222.1</ele>
        <time>2023-11-19T12:00:53Z</time>
      </trkpt>
      <trkpt lat="43.01981" lon="0.19704">
        <ele>1222.3</ele>
        <time>2023-11-19T12:00:54Z</time>
      </trkpt>
      <trkpt lat="43.01981" lon="0.19705">
        <ele>1222.3</ele>
        <time>2023-11-19T12:00:55Z</time>
      </trkpt>
      <trkpt lat="43.01982" lon="0.19706">
        <ele>1222.3</ele>
        <time>2023-11-19T12:00:56Z</time>
      </trkpt>
      <trkpt lat="43.01983" lon="0.19707">
        <ele>1221.9</ele>
        <time>2023-11-19T12:00:57Z</time>
      </trkpt>
      <trkpt lat="43.01983" lon="0.19708">
        <ele>1221.9</ele>
        <time>2023-11-19T12:00:58Z</time>
      </trkpt>
      <trkpt lat="43.01983" lon="0.19709">
        <ele>1221.9</ele>
        <time>2023-11-19T12:00:59Z</time>
      </trkpt>
      <trkpt lat="43.01984" lon="0.19709">
        <ele>1221.9</ele>
        <time>2023-11-19T12:01:00Z</time>
      </trkpt>
      <trkpt lat="43.01985" lon="0.1971">
        <ele>1221.9</ele>
        <time>2023-11-19T12:01:01Z</time>
      </trkpt>
      <trkpt lat="43.01986" lon="0.19711">
        <ele>1221.9</ele>
        <time>2023-11-19T12:01:02Z</time>
      </trkpt>
      <trkpt lat="43.01986" lon="0.19712">
        <ele>1221.5</ele>
        <time>2023-11-19T12:01:03Z</time>
      </trkpt>
      <trkpt lat="43.01987" lon="0.19714">
        <ele>1221.5</ele>
        <time>2023-11-19T12:01:04Z</time>
      </trkpt>
      <trkpt lat="43.01988" lon="0.19715">
        <ele>1221.5</ele>
        <time>2023-11-19T12:01:05Z</time>
      </trkpt>
      <trkpt lat="43.01988" lon="0.19716">
        <ele>1221</ele>
        <time>2023-11-19T12:01:06Z</time>
      </trkpt>
      <trkpt lat="43.01988" lon="0.19717">
        <ele>1221</ele>
        <time>2023-11-19T12:01:07Z</time>
      </trkpt>
      <trkpt lat="43.01989" lon="0.19719">
        <ele>1221</ele>
        <time>2023-11-19T12:01:08Z</time>
      </trkpt>
      <trkpt lat="43.01989" lon="0.1972">
        <ele>1220.5</ele>
        <time>2023-11-19T12:01:09Z</time>
      </trkpt>
      <trkpt lat="43.01989" lon="0.19721">
        <ele>1220.6</ele>
        <time>2023-11-19T12:01:10Z</time>
      </trkpt>
      <trkpt lat="43.0199" lon="0.19724">
        <ele>1220.5</ele>
        <time>2023-11-19T12:01:11Z</time>
      </trkpt>
      <trkpt lat="43.0199" lon="0.19725">
        <ele>1220</ele>
        <time>2023-11-19T12:01:12Z</time>
      </trkpt>
      <trkpt lat="43.01991" lon="0.19726">
        <ele>1220</ele>
        <time>2023-11-19T12:01:13Z</time>
      </trkpt>
      <trkpt lat="43.01991" lon="0.19728">
        <ele>1220</ele>
        <time>2023-11-19T12:01:14Z</time>
      </trkpt>
      <trkpt lat="43.01991" lon="0.19729">
        <ele>1219.5</ele>
        <time>2023-11-19T12:01:15Z</time>
      </trkpt>
      <trkpt lat="43.01992" lon="0.1973">
        <ele>1219.6</ele>
        <time>2023-11-19T12:01:16Z</time>
      </trkpt>
      <trkpt lat="43.01992" lon="0.19731">
        <ele>1219.6</ele>
        <time>2023-11-19T12:01:17Z</time>
      </trkpt>
      <trkpt lat="43.01992" lon="0.19732">
        <ele>1219.6</ele>
        <time>2023-11-19T12:01:18Z</time>
      </trkpt>
      <trkpt lat="43.01992" lon="0.19734">
        <ele>1219.1</ele>
        <time>2023-11-19T12:01:19Z</time>
      </trkpt>
      <trkpt lat="43.01993" lon="0.19736">
        <ele>1219.1</ele>
        <time>2023-11-19T12:01:20Z</time>
      </trkpt>
      <trkpt lat="43.01993" lon="0.19738">
        <ele>1218.8</ele>
        <time>2023-11-19T12:01:21Z</time>
      </trkpt>
      <trkpt lat="43.01993" lon="0.19739">
        <ele>1218.7</ele>
        <time>2023-11-19T12:01:22Z</time>
      </trkpt>
      <trkpt lat="43.01994" lon="0.19741">
        <ele>1218.4</ele>
        <time>2023-11-19T12:01:23Z</time>
      </trkpt>
      <trkpt lat="43.01994" lon="0.19743">
        <ele>1218.4</ele>
        <time>2023-11-19T12:01:24Z</time>
      </trkpt>
      <trkpt lat="43.01994" lon="0.19744">
        <ele>1218.4</ele>
        <time>2023-11-19T12:01:25Z</time>
      </trkpt>
      <trkpt lat="43.01995" lon="0.19745">
        <ele>1218.4</ele>
        <time>2023-11-19T12:01:26Z</time>
      </trkpt>
      <trkpt lat="43.01995" lon="0.19746">
        <ele>1218.1</ele>
        <time>2023-11-19T12:01:27Z</time>
      </trkpt>
      <trkpt lat="43.01995" lon="0.19748">
        <ele>1218.1</ele>
        <time>2023-11-19T12:01:28Z</time>
      </trkpt>
      <trkpt lat="43.01996" lon="0.19749">
        <ele>1218.1</ele>
        <time>2023-11-19T12:01:29Z</time>
      </trkpt>
      <trkpt lat="43.01996" lon="0.19751">
        <ele>1217.8</ele>
        <time>2023-11-19T12:01:30Z</time>
      </trkpt>
      <trkpt lat="43.01996" lon="0.19752">
        <ele>1217.8</ele>
        <time>2023-11-19T12:01:31Z</time>
      </trkpt>
      <trkpt lat="43.01997" lon="0.19754">
        <ele>1217.8</ele>
        <time>2023-11-19T12:01:32Z</time>
      </trkpt>
      <trkpt lat="43.01998" lon="0.19755">
        <ele>1217.5</ele>
        <time>2023-11-19T12:01:33Z</time>
      </trkpt>
      <trkpt lat="43.01998" lon="0.19756">
        <ele>1217.5</ele>
        <time>2023-11-19T12:01:34Z</time>
      </trkpt>
      <trkpt lat="43.01999" lon="0.19758">
        <ele>1217.5</ele>
        <time>2023-11-19T12:01:35Z</time>
      </trkpt>
      <trkpt lat="43.01999" lon="0.19759">
        <ele>1217.3</ele>
        <time>2023-11-19T12:01:36Z</time>
      </trkpt>
      <trkpt lat="43.01999" lon="0.1976">
        <ele>1217.3</ele>
        <time>2023-11-19T12:01:37Z</time>
      </trkpt>
      <trkpt lat="43.02" lon="0.19762">
        <ele>1217.2</ele>
        <time>2023-11-19T12:01:38Z</time>
      </trkpt>
      <trkpt lat="43.02" lon="0.19764">
        <ele>1217</ele>
        <time>2023-11-19T12:01:39Z</time>
      </trkpt>
      <trkpt lat="43.02001" lon="0.19765">
        <ele>1217</ele>
        <time>2023-11-19T12:01:40Z</time>
      </trkpt>
      <trkpt lat="43.02001" lon="0.19766">
        <ele>1217</ele>
        <time>2023-11-19T12:01:41Z</time>
      </trkpt>
      <trkpt lat="43.02001" lon="0.19767">
        <ele>1216.8</ele>
        <time>2023-11-19T12:01:42Z</time>
      </trkpt>
      <trkpt lat="43.02001" lon="0.19769">
        <ele>1216.8</ele>
        <time>2023-11-19T12:01:43Z</time>
      </trkpt>
      <trkpt lat="43.02001" lon="0.1977">
        <ele>1216.8</ele>
        <time>2023-11-19T12:01:44Z</time>
      </trkpt>
      <trkpt lat="43.02001" lon="0.19771">
        <ele>1216.8</ele>
        <time>2023-11-19T12:01:45Z</time>
      </trkpt>
      <trkpt lat="43.02001" lon="0.19772">
        <ele>1216.5</ele>
        <time>2023-11-19T12:01:46Z</time>
      </trkpt>
      <trkpt lat="43.02001" lon="0.19773">
        <ele>1216.5</ele>
        <time>2023-11-19T12:01:47Z</time>
      </trkpt>
      <trkpt lat="43.02002" lon="0.19774">
        <ele>1216.5</ele>
        <time>2023-11-19T12:01:48Z</time>
      </trkpt>
      <trkpt lat="43.02002" lon="0.19776">
        <ele>1216</ele>
        <time>2023-11-19T12:01:49Z</time>
      </trkpt>
      <trkpt lat="43.02002" lon="0.19777">
        <ele>1216</ele>
        <time>2023-11-19T12:01:50Z</time>
      </trkpt>
      <trkpt lat="43.02002" lon="0.19778">
        <ele>1216</ele>
        <time>2023-11-19T12:01:51Z</time>
      </trkpt>
      <trkpt lat="43.02003" lon="0.19779">
        <ele>1216</ele>
        <time>2023-11-19T12:01:52Z</time>
      </trkpt>
      <trkpt lat="43.02003" lon="0.1978">
        <ele>1215.7</ele>
        <time>2023-11-19T12:01:53Z</time>
      </trkpt>
      <trkpt lat="43.02003" lon="0.19782">
        <ele>1215.8</ele>
        <time>2023-11-19T12:01:54Z</time>
      </trkpt>
      <trkpt lat="43.02003" lon="0.19783">
        <ele>1215.8</ele>
        <time>2023-11-19T12:01:55Z</time>
      </trkpt>
      <trkpt lat="43.02003" lon="0.19784">
        <ele>1215.5</ele>
        <time>2023-11-19T12:01:56Z</time>
      </trkpt>
      <trkpt lat="43.02003" lon="0.19786">
        <ele>1215.5</ele>
        <time>2023-11-19T12:01:57Z</time>
      </trkpt>
      <trkpt lat="43.02004" lon="0.19787">
        <ele>1215.5</ele>
        <time>2023-11-19T12:01:58Z</time>
      </trkpt>
      <trkpt lat="43.02003" lon="0.19789">
        <ele>1215.2</ele>
        <time>2023-11-19T12:01:59Z</time>
      </trkpt>
      <trkpt lat="43.02003" lon="0.1979">
        <ele>1215.2</ele>
        <time>2023-11-19T12:02:00Z</time>
      </trkpt>
      <trkpt lat="43.02004" lon="0.19791">
        <ele>1215.2</ele>
        <time>2023-11-19T12:02:01Z</time>
      </trkpt>
      <trkpt lat="43.02004" lon="0.19792">
        <ele>1215.2</ele>
        <time>2023-11-19T12:02:02Z</time>
      </trkpt>
      <trkpt lat="43.02004" lon="0.19793">
        <ele>1215</ele>
        <time>2023-11-19T12:02:03Z</time>
      </trkpt>
      <trkpt lat="43.02004" lon="0.19795">
        <ele>1215</ele>
        <time>2023-11-19T12:02:04Z</time>
      </trkpt>
      <trkpt lat="43.02004" lon="0.19797">
        <ele>1215</ele>
        <time>2023-11-19T12:02:05Z</time>
      </trkpt>
      <trkpt lat="43.02003" lon="0.19794">
        <ele>1215</ele>
        <time>2023-11-19T12:02:06Z</time>
      </trkpt>
      <trkpt lat="43.02004" lon="0.19797">
        <ele>1214.7</ele>
        <time>2023-11-19T12:02:07Z</time>
      </trkpt>
      <trkpt lat="43.02005" lon="0.19799">
        <ele>1214.7</ele>
        <time>2023-11-19T12:02:08Z</time>
      </trkpt>
      <trkpt lat="43.02005" lon="0.19801">
        <ele>1214.7</ele>
        <time>2023-11-19T12:02:09Z</time>
      </trkpt>
      <trkpt lat="43.02005" lon="0.19802">
        <ele>1214.5</ele>
        <time>2023-11-19T12:02:10Z</time>
      </trkpt>
      <trkpt lat="43.02005" lon="0.19803">
        <ele>1214.5</ele>
        <time>2023-11-19T12:02:11Z</time>
      </trkpt>
      <trkpt lat="43.02005" lon="0.19805">
        <ele>1214.5</ele>
        <time>2023-11-19T12:02:12Z</time>
      </trkpt>
      <trkpt lat="43.02006" lon="0.19806">
        <ele>1214.2</ele>
        <time>2023-11-19T12:02:13Z</time>
      </trkpt>
      <trkpt lat="43.02005" lon="0.19807">
        <ele>1214.2</ele>
        <time>2023-11-19T12:02:14Z</time>
      </trkpt>
      <trkpt lat="43.02006" lon="0.19808">
        <ele>1214.2</ele>
        <time>2023-11-19T12:02:15Z</time>
      </trkpt>
      <trkpt lat="43.02005" lon="0.19809">
        <ele>1214.2</ele>
        <time>2023-11-19T12:02:16Z</time>
      </trkpt>
      <trkpt lat="43.02005" lon="0.19811">
        <ele>1213.9</ele>
        <time>2023-11-19T12:02:17Z</time>
      </trkpt>
      <trkpt lat="43.02005" lon="0.19812">
        <ele>1213.9</ele>
        <time>2023-11-19T12:02:18Z</time>
      </trkpt>
      <trkpt lat="43.02005" lon="0.19813">
        <ele>1214</ele>
        <time>2023-11-19T12:02:19Z</time>
      </trkpt>
      <trkpt lat="43.02005" lon="0.19814">
        <ele>1214</ele>
        <time>2023-11-19T12:02:20Z</time>
      </trkpt>
      <trkpt lat="43.02006" lon="0.19816">
        <ele>1213.8</ele>
        <time>2023-11-19T12:02:21Z</time>
      </trkpt>
      <trkpt lat="43.02006" lon="0.19817">
        <ele>1213.8</ele>
        <time>2023-11-19T12:02:22Z</time>
      </trkpt>
      <trkpt lat="43.02007" lon="0.19818">
        <ele>1213.8</ele>
        <time>2023-11-19T12:02:23Z</time>
      </trkpt>
      <trkpt lat="43.02007" lon="0.19818">
        <ele>1213.6</ele>
        <time>2023-11-19T12:02:24Z</time>
      </trkpt>
      <trkpt lat="43.02007" lon="0.19821">
        <ele>1213.6</ele>
        <time>2023-11-19T12:02:25Z</time>
      </trkpt>
      <trkpt lat="43.02008" lon="0.19822">
        <ele>1213.6</ele>
        <time>2023-11-19T12:02:26Z</time>
      </trkpt>
      <trkpt lat="43.02008" lon="0.19824">
        <ele>1213.4</ele>
        <time>2023-11-19T12:02:27Z</time>
      </trkpt>
      <trkpt lat="43.02009" lon="0.19824">
        <ele>1213.4</ele>
        <time>2023-11-19T12:02:28Z</time>
      </trkpt>
      <trkpt lat="43.02009" lon="0.19825">
        <ele>1213.4</ele>
        <time>2023-11-19T12:02:29Z</time>
      </trkpt>
      <trkpt lat="43.0201" lon="0.19826">
        <ele>1213.4</ele>
        <time>2023-11-19T12:02:30Z</time>
      </trkpt>
      <trkpt lat="43.02011" lon="0.19827">
        <ele>1213.2</ele>
        <time>2023-11-19T12:02:31Z</time>
      </trkpt>
      <trkpt lat="43.02012" lon="0.19828">
        <ele>1213.2</ele>
        <time>2023-11-19T12:02:32Z</time>
      </trkpt>
      <trkpt lat="43.02012" lon="0.19829">
        <ele>1213.2</ele>
        <time>2023-11-19T12:02:33Z</time>
      </trkpt>
      <trkpt lat="43.02013" lon="0.19829">
        <ele>1213.2</ele>
        <time>2023-11-19T12:02:34Z</time>
      </trkpt>
      <trkpt lat="43.02013" lon="0.1983">
        <ele>1213.2</ele>
        <time>2023-11-19T12:02:35Z</time>
      </trkpt>
      <trkpt lat="43.02013" lon="0.19831">
        <ele>1213.2</ele>
        <time>2023-11-19T12:02:36Z</time>
      </trkpt>
      <trkpt lat="43.02014" lon="0.19831">
        <ele>1213.1</ele>
        <time>2023-11-19T12:02:37Z</time>
      </trkpt>
      <trkpt lat="43.02014" lon="0.19832">
        <ele>1213.1</ele>
        <time>2023-11-19T12:02:38Z</time>
      </trkpt>
      <trkpt lat="43.02014" lon="0.19833">
        <ele>1213.1</ele>
        <time>2023-11-19T12:02:39Z</time>
      </trkpt>
      <trkpt lat="43.02013" lon="0.19834">
        <ele>1213.1</ele>
        <time>2023-11-19T12:02:40Z</time>
      </trkpt>
      <trkpt lat="43.02012" lon="0.19833">
        <ele>1213.1</ele>
        <time>2023-11-19T12:02:41Z</time>
      </trkpt>
      <trkpt lat="43.02015" lon="0.19835">
        <ele>1213.1</ele>
        <time>2023-11-19T12:02:42Z</time>
      </trkpt>
      <trkpt lat="43.02016" lon="0.19838">
        <ele>1212.9</ele>
        <time>2023-11-19T12:02:43Z</time>
      </trkpt>
      <trkpt lat="43.02017" lon="0.19838">
        <ele>1212.9</ele>
        <time>2023-11-19T12:02:44Z</time>
      </trkpt>
      <trkpt lat="43.02017" lon="0.19839">
        <ele>1212.9</ele>
        <time>2023-11-19T12:02:45Z</time>
      </trkpt>
      <trkpt lat="43.02018" lon="0.19839">
        <ele>1212.9</ele>
        <time>2023-11-19T12:02:46Z</time>
      </trkpt>
      <trkpt lat="43.02019" lon="0.19841">
        <ele>1212.6</ele>
        <time>2023-11-19T12:02:47Z</time>
      </trkpt>
      <trkpt lat="43.02019" lon="0.19842">
        <ele>1212.6</ele>
        <time>2023-11-19T12:02:48Z</time>
      </trkpt>
      <trkpt lat="43.0202" lon="0.19843">
        <ele>1212.6</ele>
        <time>2023-11-19T12:02:49Z</time>
      </trkpt>
      <trkpt lat="43.02021" lon="0.19845">
        <ele>1212.3</ele>
        <time>2023-11-19T12:02:50Z</time>
      </trkpt>
      <trkpt lat="43.02022" lon="0.19846">
        <ele>1212.3</ele>
        <time>2023-11-19T12:02:51Z</time>
      </trkpt>
      <trkpt lat="43.02022" lon="0.19846">
        <ele>1212.3</ele>
        <time>2023-11-19T12:02:52Z</time>
      </trkpt>
      <trkpt lat="43.02023" lon="0.19847">
        <ele>1212.3</ele>
        <time>2023-11-19T12:02:53Z</time>
      </trkpt>
      <trkpt lat="43.02024" lon="0.19849">
        <ele>1212.3</ele>
        <time>2023-11-19T12:02:54Z</time>
      </trkpt>
      <trkpt lat="43.02024" lon="0.1985">
        <ele>1212</ele>
        <time>2023-11-19T12:02:55Z</time>
      </trkpt>
      <trkpt lat="43.02025" lon="0.19851">
        <ele>1212</ele>
        <time>2023-11-19T12:02:56Z</time>
      </trkpt>
      <trkpt lat="43.02026" lon="0.19852">
        <ele>1212</ele>
        <time>2023-11-19T12:02:57Z</time>
      </trkpt>
      <trkpt lat="43.02027" lon="0.19853">
        <ele>1212</ele>
        <time>2023-11-19T12:02:58Z</time>
      </trkpt>
      <trkpt lat="43.02028" lon="0.19854">
        <ele>1211.6</ele>
        <time>2023-11-19T12:02:59Z</time>
      </trkpt>
      <trkpt lat="43.02029" lon="0.19855">
        <ele>1211.6</ele>
        <time>2023-11-19T12:03:00Z</time>
      </trkpt>
      <trkpt lat="43.0203" lon="0.19857">
        <ele>1211.6</ele>
        <time>2023-11-19T12:03:01Z</time>
      </trkpt>
      <trkpt lat="43.0203" lon="0.19858">
        <ele>1211.7</ele>
        <time>2023-11-19T12:03:02Z</time>
      </trkpt>
      <trkpt lat="43.0203" lon="0.19861">
        <ele>1211.7</ele>
        <time>2023-11-19T12:03:03Z</time>
      </trkpt>
      <trkpt lat="43.0203" lon="0.19862">
        <ele>1211.7</ele>
        <time>2023-11-19T12:03:04Z</time>
      </trkpt>
      <trkpt lat="43.0203" lon="0.19863">
        <ele>1211.7</ele>
        <time>2023-11-19T12:03:05Z</time>
      </trkpt>
      <trkpt lat="43.0203" lon="0.19865">
        <ele>1211.7</ele>
        <time>2023-11-19T12:03:06Z</time>
      </trkpt>
      <trkpt lat="43.0203" lon="0.19866">
        <ele>1211.8</ele>
        <time>2023-11-19T12:03:07Z</time>
      </trkpt>
      <trkpt lat="43.0203" lon="0.19867">
        <ele>1211.8</ele>
        <time>2023-11-19T12:03:08Z</time>
      </trkpt>
      <trkpt lat="43.0203" lon="0.19869">
        <ele>1211.8</ele>
        <time>2023-11-19T12:03:09Z</time>
      </trkpt>
      <trkpt lat="43.0203" lon="0.1987">
        <ele>1211.9</ele>
        <time>2023-11-19T12:03:10Z</time>
      </trkpt>
      <trkpt lat="43.0203" lon="0.19871">
        <ele>1211.9</ele>
        <time>2023-11-19T12:03:11Z</time>
      </trkpt>
      <trkpt lat="43.0203" lon="0.19873">
        <ele>1211.9</ele>
        <time>2023-11-19T12:03:12Z</time>
      </trkpt>
      <trkpt lat="43.0203" lon="0.19874">
        <ele>1212</ele>
        <time>2023-11-19T12:03:13Z</time>
      </trkpt>
      <trkpt lat="43.0203" lon="0.19875">
        <ele>1212.1</ele>
        <time>2023-11-19T12:03:14Z</time>
      </trkpt>
      <trkpt lat="43.0203" lon="0.19876">
        <ele>1212.1</ele>
        <time>2023-11-19T12:03:15Z</time>
      </trkpt>
      <trkpt lat="43.02031" lon="0.19877">
        <ele>1211.6</ele>
        <time>2023-11-19T12:03:16Z</time>
      </trkpt>
      <trkpt lat="43.02031" lon="0.19878">
        <ele>1211.6</ele>
        <time>2023-11-19T12:03:17Z</time>
      </trkpt>
      <trkpt lat="43.02031" lon="0.1988">
        <ele>1211.8</ele>
        <time>2023-11-19T12:03:18Z</time>
      </trkpt>
      <trkpt lat="43.0203" lon="0.1988">
        <ele>1212.3</ele>
        <time>2023-11-19T12:03:19Z</time>
      </trkpt>
      <trkpt lat="43.0203" lon="0.19882">
        <ele>1212.3</ele>
        <time>2023-11-19T12:03:20Z</time>
      </trkpt>
      <trkpt lat="43.0203" lon="0.19883">
        <ele>1212.5</ele>
        <time>2023-11-19T12:03:21Z</time>
      </trkpt>
      <trkpt lat="43.0203" lon="0.19884">
        <ele>1212.5</ele>
        <time>2023-11-19T12:03:22Z</time>
      </trkpt>
      <trkpt lat="43.0203" lon="0.19885">
        <ele>1212.5</ele>
        <time>2023-11-19T12:03:23Z</time>
      </trkpt>
      <trkpt lat="43.02031" lon="0.19887">
        <ele>1212</ele>
        <time>2023-11-19T12:03:24Z</time>
      </trkpt>
      <trkpt lat="43.0203" lon="0.19887">
        <ele>1212.1</ele>
        <time>2023-11-19T12:03:25Z</time>
      </trkpt>
      <trkpt lat="43.0203" lon="0.19888">
        <ele>1212.2</ele>
        <time>2023-11-19T12:03:26Z</time>
      </trkpt>
      <trkpt lat="43.0203" lon="0.1989">
        <ele>1212.3</ele>
        <time>2023-11-19T12:03:27Z</time>
      </trkpt>
      <trkpt lat="43.02029" lon="0.1989">
        <ele>1212.3</ele>
        <time>2023-11-19T12:03:28Z</time>
      </trkpt>
      <trkpt lat="43.02029" lon="0.19892">
        <ele>1212.5</ele>
        <time>2023-11-19T12:03:29Z</time>
      </trkpt>
      <trkpt lat="43.02029" lon="0.19893">
        <ele>1212.5</ele>
        <time>2023-11-19T12:03:30Z</time>
      </trkpt>
      <trkpt lat="43.02029" lon="0.19894">
        <ele>1212.6</ele>
        <time>2023-11-19T12:03:31Z</time>
      </trkpt>
      <trkpt lat="43.02029" lon="0.19895">
        <ele>1212.7</ele>
        <time>2023-11-19T12:03:32Z</time>
      </trkpt>
      <trkpt lat="43.02028" lon="0.19897">
        <ele>1212.8</ele>
        <time>2023-11-19T12:03:33Z</time>
      </trkpt>
      <trkpt lat="43.02028" lon="0.19898">
        <ele>1212.9</ele>
        <time>2023-11-19T12:03:34Z</time>
      </trkpt>
      <trkpt lat="43.02028" lon="0.19899">
        <ele>1213</ele>
        <time>2023-11-19T12:03:35Z</time>
      </trkpt>
      <trkpt lat="43.02028" lon="0.199">
        <ele>1213.1</ele>
        <time>2023-11-19T12:03:36Z</time>
      </trkpt>
      <trkpt lat="43.02028" lon="0.19901">
        <ele>1213.1</ele>
        <time>2023-11-19T12:03:37Z</time>
      </trkpt>
      <trkpt lat="43.02028" lon="0.19903">
        <ele>1213.2</ele>
        <time>2023-11-19T12:03:38Z</time>
      </trkpt>
      <trkpt lat="43.02028" lon="0.19904">
        <ele>1213.3</ele>
        <time>2023-11-19T12:03:39Z</time>
      </trkpt>
      <trkpt lat="43.02027" lon="0.19905">
        <ele>1213.4</ele>
        <time>2023-11-19T12:03:40Z</time>
      </trkpt>
      <trkpt lat="43.02027" lon="0.19906">
        <ele>1213.5</ele>
        <time>2023-11-19T12:03:41Z</time>
      </trkpt>
      <trkpt lat="43.02027" lon="0.19907">
        <ele>1213.6</ele>
        <time>2023-11-19T12:03:42Z</time>
      </trkpt>
      <trkpt lat="43.02026" lon="0.19909">
        <ele>1213.7</ele>
        <time>2023-11-19T12:03:43Z</time>
      </trkpt>
      <trkpt lat="43.02026" lon="0.1991">
        <ele>1213.8</ele>
        <time>2023-11-19T12:03:44Z</time>
      </trkpt>
      <trkpt lat="43.02026" lon="0.19911">
        <ele>1213.8</ele>
        <time>2023-11-19T12:03:45Z</time>
      </trkpt>
      <trkpt lat="43.02027" lon="0.19913">
        <ele>1213.9</ele>
        <time>2023-11-19T12:03:46Z</time>
      </trkpt>
      <trkpt lat="43.02027" lon="0.19914">
        <ele>1214</ele>
        <time>2023-11-19T12:03:47Z</time>
      </trkpt>
      <trkpt lat="43.02026" lon="0.19916">
        <ele>1214.2</ele>
        <time>2023-11-19T12:03:48Z</time>
      </trkpt>
      <trkpt lat="43.02026" lon="0.19917">
        <ele>1214.3</ele>
        <time>2023-11-19T12:03:49Z</time>
      </trkpt>
      <trkpt lat="43.02026" lon="0.19918">
        <ele>1214.3</ele>
        <time>2023-11-19T12:03:50Z</time>
      </trkpt>
      <trkpt lat="43.02025" lon="0.19919">
        <ele>1214.4</ele>
        <time>2023-11-19T12:03:51Z</time>
      </trkpt>
      <trkpt lat="43.02025" lon="0.19921">
        <ele>1214.5</ele>
        <time>2023-11-19T12:03:52Z</time>
      </trkpt>
      <trkpt lat="43.02025" lon="0.19922">
        <ele>1214.6</ele>
        <time>2023-11-19T12:03:53Z</time>
      </trkpt>
      <trkpt lat="43.02025" lon="0.19923">
        <ele>1214.7</ele>
        <time>2023-11-19T12:03:54Z</time>
      </trkpt>
      <trkpt lat="43.02024" lon="0.19924">
        <ele>1214.8</ele>
        <time>2023-11-19T12:03:55Z</time>
      </trkpt>
      <trkpt lat="43.02024" lon="0.19925">
        <ele>1214.9</ele>
        <time>2023-11-19T12:03:56Z</time>
      </trkpt>
      <trkpt lat="43.02024" lon="0.19926">
        <ele>1214.9</ele>
        <time>2023-11-19T12:03:57Z</time>
      </trkpt>
      <trkpt lat="43.02024" lon="0.19927">
        <ele>1215</ele>
        <time>2023-11-19T12:03:58Z</time>
      </trkpt>
      <trkpt lat="43.02024" lon="0.19928">
        <ele>1215.1</ele>
        <time>2023-11-19T12:03:59Z</time>
      </trkpt>
      <trkpt lat="43.02024" lon="0.19929">
        <ele>1215.2</ele>
        <time>2023-11-19T12:04:00Z</time>
      </trkpt>
      <trkpt lat="43.02023" lon="0.1993">
        <ele>1215.2</ele>
        <time>2023-11-19T12:04:01Z</time>
      </trkpt>
      <trkpt lat="43.02023" lon="0.19931">
        <ele>1215.3</ele>
        <time>2023-11-19T12:04:02Z</time>
      </trkpt>
      <trkpt lat="43.02023" lon="0.19933">
        <ele>1215.4</ele>
        <time>2023-11-19T12:04:03Z</time>
      </trkpt>
      <trkpt lat="43.02024" lon="0.19934">
        <ele>1215.5</ele>
        <time>2023-11-19T12:04:04Z</time>
      </trkpt>
      <trkpt lat="43.02023" lon="0.19934">
        <ele>1215.6</ele>
        <time>2023-11-19T12:04:05Z</time>
      </trkpt>
      <trkpt lat="43.02023" lon="0.19936">
        <ele>1215.7</ele>
        <time>2023-11-19T12:04:06Z</time>
      </trkpt>
      <trkpt lat="43.02023" lon="0.19937">
        <ele>1215.8</ele>
        <time>2023-11-19T12:04:07Z</time>
      </trkpt>
      <trkpt lat="43.02024" lon="0.19938">
        <ele>1215.8</ele>
        <time>2023-11-19T12:04:08Z</time>
      </trkpt>
      <trkpt lat="43.02023" lon="0.19938">
        <ele>1215.9</ele>
        <time>2023-11-19T12:04:09Z</time>
      </trkpt>
      <trkpt lat="43.02023" lon="0.1994">
        <ele>1216</ele>
        <time>2023-11-19T12:04:10Z</time>
      </trkpt>
      <trkpt lat="43.02023" lon="0.19941">
        <ele>1216.1</ele>
        <time>2023-11-19T12:04:11Z</time>
      </trkpt>
      <trkpt lat="43.02023" lon="0.19943">
        <ele>1216.3</ele>
        <time>2023-11-19T12:04:12Z</time>
      </trkpt>
      <trkpt lat="43.02022" lon="0.19945">
        <ele>1216.5</ele>
        <time>2023-11-19T12:04:13Z</time>
      </trkpt>
      <trkpt lat="43.02023" lon="0.19945">
        <ele>1216.6</ele>
        <time>2023-11-19T12:04:14Z</time>
      </trkpt>
      <trkpt lat="43.02022" lon="0.19946">
        <ele>1216.7</ele>
        <time>2023-11-19T12:04:15Z</time>
      </trkpt>
      <trkpt lat="43.02022" lon="0.19947">
        <ele>1216.8</ele>
        <time>2023-11-19T12:04:16Z</time>
      </trkpt>
      <trkpt lat="43.02022" lon="0.19948">
        <ele>1216.9</ele>
        <time>2023-11-19T12:04:17Z</time>
      </trkpt>
      <trkpt lat="43.02023" lon="0.1995">
        <ele>1217</ele>
        <time>2023-11-19T12:04:18Z</time>
      </trkpt>
      <trkpt lat="43.02023" lon="0.1995">
        <ele>1217.1</ele>
        <time>2023-11-19T12:04:19Z</time>
      </trkpt>
      <trkpt lat="43.02023" lon="0.19952">
        <ele>1217.2</ele>
        <time>2023-11-19T12:04:20Z</time>
      </trkpt>
      <trkpt lat="43.02023" lon="0.19953">
        <ele>1217.4</ele>
        <time>2023-11-19T12:04:21Z</time>
      </trkpt>
      <trkpt lat="43.02024" lon="0.19954">
        <ele>1217.4</ele>
        <time>2023-11-19T12:04:22Z</time>
      </trkpt>
      <trkpt lat="43.02024" lon="0.19955">
        <ele>1217.5</ele>
        <time>2023-11-19T12:04:23Z</time>
      </trkpt>
      <trkpt lat="43.02024" lon="0.19955">
        <ele>1217.6</ele>
        <time>2023-11-19T12:04:24Z</time>
      </trkpt>
      <trkpt lat="43.02024" lon="0.19957">
        <ele>1217.7</ele>
        <time>2023-11-19T12:04:25Z</time>
      </trkpt>
      <trkpt lat="43.02024" lon="0.19958">
        <ele>1217.9</ele>
        <time>2023-11-19T12:04:26Z</time>
      </trkpt>
      <trkpt lat="43.02024" lon="0.19958">
        <ele>1217.9</ele>
        <time>2023-11-19T12:04:27Z</time>
      </trkpt>
      <trkpt lat="43.02024" lon="0.19959">
        <ele>1218</ele>
        <time>2023-11-19T12:04:28Z</time>
      </trkpt>
      <trkpt lat="43.02024" lon="0.19961">
        <ele>1218.2</ele>
        <time>2023-11-19T12:04:29Z</time>
      </trkpt>
      <trkpt lat="43.02025" lon="0.19961">
        <ele>1218.3</ele>
        <time>2023-11-19T12:04:30Z</time>
      </trkpt>
      <trkpt lat="43.02025" lon="0.19962">
        <ele>1218.3</ele>
        <time>2023-11-19T12:04:31Z</time>
      </trkpt>
      <trkpt lat="43.02024" lon="0.19963">
        <ele>1218.4</ele>
        <time>2023-11-19T12:04:32Z</time>
      </trkpt>
      <trkpt lat="43.02025" lon="0.19965">
        <ele>1218.6</ele>
        <time>2023-11-19T12:04:33Z</time>
      </trkpt>
      <trkpt lat="43.02025" lon="0.19965">
        <ele>1218.7</ele>
        <time>2023-11-19T12:04:34Z</time>
      </trkpt>
      <trkpt lat="43.02025" lon="0.19965">
        <ele>1218.7</ele>
        <time>2023-11-19T12:04:35Z</time>
      </trkpt>
      <trkpt lat="43.02025" lon="0.19965">
        <ele>1218.7</ele>
        <time>2023-11-19T12:04:36Z</time>
      </trkpt>
      <trkpt lat="43.02025" lon="0.19965">
        <ele>1218.7</ele>
        <time>2023-11-19T12:04:37Z</time>
      </trkpt>
      <trkpt lat="43.02025" lon="0.19965">
        <ele>1218.7</ele>
        <time>2023-11-19T12:04:38Z</time>
      </trkpt>
      <trkpt lat="43.02025" lon="0.19965">
        <ele>1218.7</ele>
        <time>2023-11-19T12:04:39Z</time>
      </trkpt>
      <trkpt lat="43.02025" lon="0.19965">
        <ele>1218.7</ele>
        <time>2023-11-19T12:04:40Z</time>
      </trkpt>
      <trkpt lat="43.02025" lon="0.19966">
        <ele>1218.7</ele>
        <time>2023-11-19T12:04:41Z</time>
      </trkpt>
      <trkpt lat="43.02025" lon="0.19966">
        <ele>1218.8</ele>
        <time>2023-11-19T12:04:42Z</time>
      </trkpt>
      <trkpt lat="43.02025" lon="0.19966">
        <ele>1218.8</ele>
        <time>2023-11-19T12:04:43Z</time>
      </trkpt>
      <trkpt lat="43.02026" lon="0.19966">
        <ele>1218.8</ele>
        <time>2023-11-19T12:04:44Z</time>
      </trkpt>
      <trkpt lat="43.02026" lon="0.19966">
        <ele>1218.8</ele>
        <time>2023-11-19T12:04:45Z</time>
      </trkpt>
      <trkpt lat="43.02026" lon="0.19966">
        <ele>1218.8</ele>
        <time>2023-11-19T12:04:46Z</time>
      </trkpt>
      <trkpt lat="43.02026" lon="0.19966">
        <ele>1218.8</ele>
        <time>2023-11-19T12:04:47Z</time>
      </trkpt>
      <trkpt lat="43.02026" lon="0.19966">
        <ele>1218.8</ele>
        <time>2023-11-19T12:04:48Z</time>
      </trkpt>
      <trkpt lat="43.02026" lon="0.19966">
        <ele>1218.8</ele>
        <time>2023-11-19T12:04:49Z</time>
      </trkpt>
      <trkpt lat="43.02026" lon="0.19966">
        <ele>1218.8</ele>
        <time>2023-11-19T12:04:50Z</time>
      </trkpt>
      <trkpt lat="43.02026" lon="0.19966">
        <ele>1218.8</ele>
        <time>2023-11-19T12:04:51Z</time>
      </trkpt>
      <trkpt lat="43.02026" lon="0.19966">
        <ele>1218.9</ele>
        <time>2023-11-19T12:04:52Z</time>
      </trkpt>
      <trkpt lat="43.02026" lon="0.19967">
        <ele>1218.9</ele>
        <time>2023-11-19T12:04:53Z</time>
      </trkpt>
      <trkpt lat="43.02026" lon="0.19967">
        <ele>1218.9</ele>
        <time>2023-11-19T12:04:54Z</time>
      </trkpt>
      <trkpt lat="43.02026" lon="0.19967">
        <ele>1218.9</ele>
        <time>2023-11-19T12:04:55Z</time>
      </trkpt>
      <trkpt lat="43.02026" lon="0.19967">
        <ele>1218.9</ele>
        <time>2023-11-19T12:04:56Z</time>
      </trkpt>
      <trkpt lat="43.02026" lon="0.19967">
        <ele>1218.9</ele>
        <time>2023-11-19T12:04:57Z</time>
      </trkpt>
      <trkpt lat="43.02026" lon="0.19967">
        <ele>1218.9</ele>
        <time>2023-11-19T12:04:58Z</time>
      </trkpt>
      <trkpt lat="43.02026" lon="0.19967">
        <ele>1218.9</ele>
        <time>2023-11-19T12:04:59Z</time>
      </trkpt>
      <trkpt lat="43.02026" lon="0.19967">
        <ele>1218.9</ele>
        <time>2023-11-19T12:05:00Z</time>
      </trkpt>
      <trkpt lat="43.02026" lon="0.19967">
        <ele>1218.9</ele>
        <time>2023-11-19T12:05:01Z</time>
      </trkpt>
      <trkpt lat="43.02026" lon="0.19967">
        <ele>1219</ele>
        <time>2023-11-19T12:05:02Z</time>
      </trkpt>
      <trkpt lat="43.02026" lon="0.19967">
        <ele>1219</ele>
        <time>2023-11-19T12:05:03Z</time>
      </trkpt>
      <trkpt lat="43.02026" lon="0.19967">
        <ele>1219</ele>
        <time>2023-11-19T12:05:04Z</time>
      </trkpt>
      <trkpt lat="43.02026" lon="0.19968">
        <ele>1219</ele>
        <time>2023-11-19T12:05:05Z</time>
      </trkpt>
      <trkpt lat="43.02026" lon="0.19968">
        <ele>1219</ele>
        <time>2023-11-19T12:05:06Z</time>
      </trkpt>
      <trkpt lat="43.02026" lon="0.19968">
        <ele>1219</ele>
        <time>2023-11-19T12:05:07Z</time>
      </trkpt>
      <trkpt lat="43.02026" lon="0.19968">
        <ele>1219</ele>
        <time>2023-11-19T12:05:08Z</time>
      </trkpt>
      <trkpt lat="43.02026" lon="0.19968">
        <ele>1219</ele>
        <time>2023-11-19T12:05:09Z</time>
      </trkpt>
      <trkpt lat="43.02026" lon="0.19968">
        <ele>1219</ele>
        <time>2023-11-19T12:05:10Z</time>
      </trkpt>
      <trkpt lat="43.02026" lon="0.19968">
        <ele>1219.1</ele>
        <time>2023-11-19T12:05:11Z</time>
      </trkpt>
      <trkpt lat="43.02026" lon="0.19968">
        <ele>1219.1</ele>
        <time>2023-11-19T12:05:12Z</time>
      </trkpt>
      <trkpt lat="43.02026" lon="0.19968">
        <ele>1219.1</ele>
        <time>2023-11-19T12:05:13Z</time>
      </trkpt>
      <trkpt lat="43.02026" lon="0.19968">
        <ele>1219.1</ele>
        <time>2023-11-19T12:05:14Z</time>
      </trkpt>
      <trkpt lat="43.02026" lon="0.19968">
        <ele>1219.1</ele>
        <time>2023-11-19T12:05:15Z</time>
      </trkpt>
      <trkpt lat="43.02026" lon="0.19968">
        <ele>1219.1</ele>
        <time>2023-11-19T12:05:16Z</time>
      </trkpt>
      <trkpt lat="43.02026" lon="0.19969">
        <ele>1219.1</ele>
        <time>2023-11-19T12:05:17Z</time>
      </trkpt>
      <trkpt lat="43.02026" lon="0.19969">
        <ele>1219.1</ele>
        <time>2023-11-19T12:05:18Z</time>
      </trkpt>
      <trkpt lat="43.02027" lon="0.19969">
        <ele>1219.1</ele>
        <time>2023-11-19T12:05:19Z</time>
      </trkpt>
      <trkpt lat="43.02027" lon="0.19969">
        <ele>1219.2</ele>
        <time>2023-11-19T12:05:20Z</time>
      </trkpt>
      <trkpt lat="43.02027" lon="0.19969">
        <ele>1219.2</ele>
        <time>2023-11-19T12:05:21Z</time>
      </trkpt>
      <trkpt lat="43.02027" lon="0.19969">
        <ele>1219.2</ele>
        <time>2023-11-19T12:05:22Z</time>
      </trkpt>
      <trkpt lat="43.02027" lon="0.19971">
        <ele>1219.3</ele>
        <time>2023-11-19T12:05:23Z</time>
      </trkpt>
      <trkpt lat="43.02027" lon="0.19972">
        <ele>1219.5</ele>
        <time>2023-11-19T12:05:24Z</time>
      </trkpt>
      <trkpt lat="43.02027" lon="0.19973">
        <ele>1219.6</ele>
        <time>2023-11-19T12:05:25Z</time>
      </trkpt>
      <trkpt lat="43.02027" lon="0.19976">
        <ele>1219.9</ele>
        <time>2023-11-19T12:05:26Z</time>
      </trkpt>
      <trkpt lat="43.02028" lon="0.19977">
        <ele>1220</ele>
        <time>2023-11-19T12:05:27Z</time>
      </trkpt>
      <trkpt lat="43.02028" lon="0.19978">
        <ele>1220.1</ele>
        <time>2023-11-19T12:05:28Z</time>
      </trkpt>
      <trkpt lat="43.02028" lon="0.1998">
        <ele>1220.2</ele>
        <time>2023-11-19T12:05:29Z</time>
      </trkpt>
      <trkpt lat="43.02028" lon="0.19981">
        <ele>1220.4</ele>
        <time>2023-11-19T12:05:30Z</time>
      </trkpt>
      <trkpt lat="43.02028" lon="0.19982">
        <ele>1220.5</ele>
        <time>2023-11-19T12:05:31Z</time>
      </trkpt>
      <trkpt lat="43.02028" lon="0.19984">
        <ele>1220.6</ele>
        <time>2023-11-19T12:05:32Z</time>
      </trkpt>
      <trkpt lat="43.02028" lon="0.19985">
        <ele>1220.7</ele>
        <time>2023-11-19T12:05:33Z</time>
      </trkpt>
      <trkpt lat="43.02028" lon="0.19986">
        <ele>1220.8</ele>
        <time>2023-11-19T12:05:34Z</time>
      </trkpt>
      <trkpt lat="43.02028" lon="0.19987">
        <ele>1220.9</ele>
        <time>2023-11-19T12:05:35Z</time>
      </trkpt>
      <trkpt lat="43.02029" lon="0.19989">
        <ele>1221</ele>
        <time>2023-11-19T12:05:36Z</time>
      </trkpt>
      <trkpt lat="43.02029" lon="0.1999">
        <ele>1221.1</ele>
        <time>2023-11-19T12:05:37Z</time>
      </trkpt>
      <trkpt lat="43.02029" lon="0.19991">
        <ele>1221.3</ele>
        <time>2023-11-19T12:05:38Z</time>
      </trkpt>
      <trkpt lat="43.0203" lon="0.19993">
        <ele>1221.4</ele>
        <time>2023-11-19T12:05:39Z</time>
      </trkpt>
      <trkpt lat="43.02029" lon="0.19994">
        <ele>1221.5</ele>
        <time>2023-11-19T12:05:40Z</time>
      </trkpt>
      <trkpt lat="43.02029" lon="0.19996">
        <ele>1221.6</ele>
        <time>2023-11-19T12:05:41Z</time>
      </trkpt>
      <trkpt lat="43.02029" lon="0.19997">
        <ele>1221.7</ele>
        <time>2023-11-19T12:05:42Z</time>
      </trkpt>
      <trkpt lat="43.0203" lon="0.19998">
        <ele>1221.8</ele>
        <time>2023-11-19T12:05:43Z</time>
      </trkpt>
      <trkpt lat="43.0203" lon="0.2">
        <ele>1221.8</ele>
        <time>2023-11-19T12:05:44Z</time>
      </trkpt>
      <trkpt lat="43.0203" lon="0.20001">
        <ele>1221.9</ele>
        <time>2023-11-19T12:05:45Z</time>
      </trkpt>
      <trkpt lat="43.0203" lon="0.20003">
        <ele>1222</ele>
        <time>2023-11-19T12:05:46Z</time>
      </trkpt>
      <trkpt lat="43.02029" lon="0.20004">
        <ele>1222.1</ele>
        <time>2023-11-19T12:05:47Z</time>
      </trkpt>
      <trkpt lat="43.02029" lon="0.20006">
        <ele>1222.2</ele>
        <time>2023-11-19T12:05:48Z</time>
      </trkpt>
      <trkpt lat="43.02029" lon="0.20007">
        <ele>1222.2</ele>
        <time>2023-11-19T12:05:49Z</time>
      </trkpt>
      <trkpt lat="43.02029" lon="0.20009">
        <ele>1222.3</ele>
        <time>2023-11-19T12:05:50Z</time>
      </trkpt>
      <trkpt lat="43.02029" lon="0.20011">
        <ele>1222.4</ele>
        <time>2023-11-19T12:05:51Z</time>
      </trkpt>
      <trkpt lat="43.02028" lon="0.20012">
        <ele>1222.4</ele>
        <time>2023-11-19T12:05:52Z</time>
      </trkpt>
      <trkpt lat="43.02028" lon="0.20014">
        <ele>1222.5</ele>
        <time>2023-11-19T12:05:53Z</time>
      </trkpt>
      <trkpt lat="43.02028" lon="0.20014">
        <ele>1222.5</ele>
        <time>2023-11-19T12:05:54Z</time>
      </trkpt>
      <trkpt lat="43.02028" lon="0.20015">
        <ele>1222.5</ele>
        <time>2023-11-19T12:05:55Z</time>
      </trkpt>
      <trkpt lat="43.02027" lon="0.20017">
        <ele>1222.6</ele>
        <time>2023-11-19T12:05:56Z</time>
      </trkpt>
      <trkpt lat="43.02027" lon="0.2002">
        <ele>1222.7</ele>
        <time>2023-11-19T12:05:57Z</time>
      </trkpt>
      <trkpt lat="43.02026" lon="0.20021">
        <ele>1222.7</ele>
        <time>2023-11-19T12:05:58Z</time>
      </trkpt>
      <trkpt lat="43.02026" lon="0.20022">
        <ele>1222.8</ele>
        <time>2023-11-19T12:05:59Z</time>
      </trkpt>
      <trkpt lat="43.02025" lon="0.20024">
        <ele>1222.8</ele>
        <time>2023-11-19T12:06:00Z</time>
      </trkpt>
      <trkpt lat="43.02025" lon="0.20025">
        <ele>1222.9</ele>
        <time>2023-11-19T12:06:01Z</time>
      </trkpt>
      <trkpt lat="43.02024" lon="0.20026">
        <ele>1222.9</ele>
        <time>2023-11-19T12:06:02Z</time>
      </trkpt>
      <trkpt lat="43.02024" lon="0.20027">
        <ele>1222.9</ele>
        <time>2023-11-19T12:06:03Z</time>
      </trkpt>
      <trkpt lat="43.02024" lon="0.20028">
        <ele>1223</ele>
        <time>2023-11-19T12:06:04Z</time>
      </trkpt>
      <trkpt lat="43.02023" lon="0.2003">
        <ele>1223</ele>
        <time>2023-11-19T12:06:05Z</time>
      </trkpt>
      <trkpt lat="43.02023" lon="0.20031">
        <ele>1223</ele>
        <time>2023-11-19T12:06:06Z</time>
      </trkpt>
      <trkpt lat="43.02022" lon="0.20032">
        <ele>1223.1</ele>
        <time>2023-11-19T12:06:07Z</time>
      </trkpt>
      <trkpt lat="43.02022" lon="0.20034">
        <ele>1223.1</ele>
        <time>2023-11-19T12:06:08Z</time>
      </trkpt>
      <trkpt lat="43.02022" lon="0.20035">
        <ele>1223.1</ele>
        <time>2023-11-19T12:06:09Z</time>
      </trkpt>
      <trkpt lat="43.02021" lon="0.20036">
        <ele>1223.2</ele>
        <time>2023-11-19T12:06:10Z</time>
      </trkpt>
      <trkpt lat="43.02021" lon="0.20037">
        <ele>1223.2</ele>
        <time>2023-11-19T12:06:11Z</time>
      </trkpt>
      <trkpt lat="43.02021" lon="0.20039">
        <ele>1223.2</ele>
        <time>2023-11-19T12:06:12Z</time>
      </trkpt>
      <trkpt lat="43.0202" lon="0.2004">
        <ele>1223.3</ele>
        <time>2023-11-19T12:06:13Z</time>
      </trkpt>
      <trkpt lat="43.0202" lon="0.20041">
        <ele>1223.3</ele>
        <time>2023-11-19T12:06:14Z</time>
      </trkpt>
      <trkpt lat="43.02019" lon="0.20043">
        <ele>1223.3</ele>
        <time>2023-11-19T12:06:15Z</time>
      </trkpt>
      <trkpt lat="43.02019" lon="0.20044">
        <ele>1223.4</ele>
        <time>2023-11-19T12:06:16Z</time>
      </trkpt>
      <trkpt lat="43.02018" lon="0.20045">
        <ele>1223.4</ele>
        <time>2023-11-19T12:06:17Z</time>
      </trkpt>
      <trkpt lat="43.02018" lon="0.20046">
        <ele>1223.5</ele>
        <time>2023-11-19T12:06:18Z</time>
      </trkpt>
      <trkpt lat="43.02018" lon="0.20047">
        <ele>1223.5</ele>
        <time>2023-11-19T12:06:19Z</time>
      </trkpt>
      <trkpt lat="43.02017" lon="0.20049">
        <ele>1223.5</ele>
        <time>2023-11-19T12:06:20Z</time>
      </trkpt>
      <trkpt lat="43.02017" lon="0.2005">
        <ele>1223.6</ele>
        <time>2023-11-19T12:06:21Z</time>
      </trkpt>
      <trkpt lat="43.02017" lon="0.20052">
        <ele>1223.6</ele>
        <time>2023-11-19T12:06:22Z</time>
      </trkpt>
      <trkpt lat="43.02017" lon="0.20053">
        <ele>1223.7</ele>
        <time>2023-11-19T12:06:23Z</time>
      </trkpt>
      <trkpt lat="43.02016" lon="0.20054">
        <ele>1223.7</ele>
        <time>2023-11-19T12:06:24Z</time>
      </trkpt>
      <trkpt lat="43.02016" lon="0.20055">
        <ele>1223.8</ele>
        <time>2023-11-19T12:06:25Z</time>
      </trkpt>
      <trkpt lat="43.02016" lon="0.20057">
        <ele>1223.8</ele>
        <time>2023-11-19T12:06:26Z</time>
      </trkpt>
      <trkpt lat="43.02016" lon="0.20059">
        <ele>1223.9</ele>
        <time>2023-11-19T12:06:27Z</time>
      </trkpt>
      <trkpt lat="43.02016" lon="0.2006">
        <ele>1224</ele>
        <time>2023-11-19T12:06:28Z</time>
      </trkpt>
      <trkpt lat="43.02015" lon="0.20061">
        <ele>1224</ele>
        <time>2023-11-19T12:06:29Z</time>
      </trkpt>
      <trkpt lat="43.02015" lon="0.20063">
        <ele>1224.1</ele>
        <time>2023-11-19T12:06:30Z</time>
      </trkpt>
      <trkpt lat="43.02014" lon="0.20064">
        <ele>1224.1</ele>
        <time>2023-11-19T12:06:31Z</time>
      </trkpt>
      <trkpt lat="43.02014" lon="0.20066">
        <ele>1224.2</ele>
        <time>2023-11-19T12:06:32Z</time>
      </trkpt>
      <trkpt lat="43.02014" lon="0.20067">
        <ele>1224.3</ele>
        <time>2023-11-19T12:06:33Z</time>
      </trkpt>
      <trkpt lat="43.02014" lon="0.20069">
        <ele>1224.4</ele>
        <time>2023-11-19T12:06:34Z</time>
      </trkpt>
      <trkpt lat="43.02014" lon="0.2007">
        <ele>1224.4</ele>
        <time>2023-11-19T12:06:35Z</time>
      </trkpt>
      <trkpt lat="43.02013" lon="0.20071">
        <ele>1224.5</ele>
        <time>2023-11-19T12:06:36Z</time>
      </trkpt>
      <trkpt lat="43.02013" lon="0.20072">
        <ele>1224.6</ele>
        <time>2023-11-19T12:06:37Z</time>
      </trkpt>
      <trkpt lat="43.02013" lon="0.20074">
        <ele>1224.7</ele>
        <time>2023-11-19T12:06:38Z</time>
      </trkpt>
      <trkpt lat="43.02013" lon="0.20076">
        <ele>1224.7</ele>
        <time>2023-11-19T12:06:39Z</time>
      </trkpt>
      <trkpt lat="43.02013" lon="0.20075">
        <ele>1224.8</ele>
        <time>2023-11-19T12:06:40Z</time>
      </trkpt>
      <trkpt lat="43.02013" lon="0.20078">
        <ele>1225</ele>
        <time>2023-11-19T12:06:41Z</time>
      </trkpt>
      <trkpt lat="43.02013" lon="0.2008">
        <ele>1225.1</ele>
        <time>2023-11-19T12:06:42Z</time>
      </trkpt>
      <trkpt lat="43.02013" lon="0.20081">
        <ele>1225.1</ele>
        <time>2023-11-19T12:06:43Z</time>
      </trkpt>
      <trkpt lat="43.02013" lon="0.20083">
        <ele>1225.2</ele>
        <time>2023-11-19T12:06:44Z</time>
      </trkpt>
      <trkpt lat="43.02013" lon="0.20084">
        <ele>1225.3</ele>
        <time>2023-11-19T12:06:45Z</time>
      </trkpt>
      <trkpt lat="43.02013" lon="0.20086">
        <ele>1225.4</ele>
        <time>2023-11-19T12:06:46Z</time>
      </trkpt>
      <trkpt lat="43.02013" lon="0.20087">
        <ele>1225.5</ele>
        <time>2023-11-19T12:06:47Z</time>
      </trkpt>
      <trkpt lat="43.02013" lon="0.20088">
        <ele>1225.6</ele>
        <time>2023-11-19T12:06:48Z</time>
      </trkpt>
      <trkpt lat="43.02013" lon="0.2009">
        <ele>1225.7</ele>
        <time>2023-11-19T12:06:49Z</time>
      </trkpt>
      <trkpt lat="43.02012" lon="0.20091">
        <ele>1225.8</ele>
        <time>2023-11-19T12:06:50Z</time>
      </trkpt>
      <trkpt lat="43.02012" lon="0.20092">
        <ele>1225.9</ele>
        <time>2023-11-19T12:06:51Z</time>
      </trkpt>
      <trkpt lat="43.02012" lon="0.20093">
        <ele>1226</ele>
        <time>2023-11-19T12:06:52Z</time>
      </trkpt>
      <trkpt lat="43.02012" lon="0.20095">
        <ele>1226.1</ele>
        <time>2023-11-19T12:06:53Z</time>
      </trkpt>
      <trkpt lat="43.02011" lon="0.20096">
        <ele>1226.2</ele>
        <time>2023-11-19T12:06:54Z</time>
      </trkpt>
      <trkpt lat="43.02011" lon="0.20097">
        <ele>1226.3</ele>
        <time>2023-11-19T12:06:55Z</time>
      </trkpt>
      <trkpt lat="43.02012" lon="0.20098">
        <ele>1226.4</ele>
        <time>2023-11-19T12:06:56Z</time>
      </trkpt>
      <trkpt lat="43.02011" lon="0.201">
        <ele>1226.5</ele>
        <time>2023-11-19T12:06:57Z</time>
      </trkpt>
      <trkpt lat="43.02011" lon="0.20101">
        <ele>1226.6</ele>
        <time>2023-11-19T12:06:58Z</time>
      </trkpt>
      <trkpt lat="43.02011" lon="0.20102">
        <ele>1226.7</ele>
        <time>2023-11-19T12:06:59Z</time>
      </trkpt>
      <trkpt lat="43.02011" lon="0.20103">
        <ele>1226.8</ele>
        <time>2023-11-19T12:07:00Z</time>
      </trkpt>
      <trkpt lat="43.02011" lon="0.20104">
        <ele>1226.9</ele>
        <time>2023-11-19T12:07:01Z</time>
      </trkpt>
      <trkpt lat="43.02011" lon="0.20106">
        <ele>1227</ele>
        <time>2023-11-19T12:07:02Z</time>
      </trkpt>
      <trkpt lat="43.02011" lon="0.20107">
        <ele>1227.1</ele>
        <time>2023-11-19T12:07:03Z</time>
      </trkpt>
      <trkpt lat="43.0201" lon="0.20109">
        <ele>1227.3</ele>
        <time>2023-11-19T12:07:04Z</time>
      </trkpt>
      <trkpt lat="43.0201" lon="0.2011">
        <ele>1227.4</ele>
        <time>2023-11-19T12:07:05Z</time>
      </trkpt>
      <trkpt lat="43.0201" lon="0.20111">
        <ele>1227.6</ele>
        <time>2023-11-19T12:07:06Z</time>
      </trkpt>
      <trkpt lat="43.0201" lon="0.20112">
        <ele>1227.7</ele>
        <time>2023-11-19T12:07:07Z</time>
      </trkpt>
      <trkpt lat="43.02011" lon="0.20113">
        <ele>1227.8</ele>
        <time>2023-11-19T12:07:08Z</time>
      </trkpt>
      <trkpt lat="43.02011" lon="0.20114">
        <ele>1227.9</ele>
        <time>2023-11-19T12:07:09Z</time>
      </trkpt>
      <trkpt lat="43.02011" lon="0.20115">
        <ele>1227.9</ele>
        <time>2023-11-19T12:07:10Z</time>
      </trkpt>
      <trkpt lat="43.02011" lon="0.20116">
        <ele>1228</ele>
        <time>2023-11-19T12:07:11Z</time>
      </trkpt>
      <trkpt lat="43.02011" lon="0.20117">
        <ele>1228.2</ele>
        <time>2023-11-19T12:07:12Z</time>
      </trkpt>
      <trkpt lat="43.02011" lon="0.20118">
        <ele>1228.3</ele>
        <time>2023-11-19T12:07:13Z</time>
      </trkpt>
      <trkpt lat="43.02011" lon="0.20119">
        <ele>1228.4</ele>
        <time>2023-11-19T12:07:14Z</time>
      </trkpt>
      <trkpt lat="43.02011" lon="0.20121">
        <ele>1228.5</ele>
        <time>2023-11-19T12:07:15Z</time>
      </trkpt>
      <trkpt lat="43.02011" lon="0.20121">
        <ele>1228.6</ele>
        <time>2023-11-19T12:07:16Z</time>
      </trkpt>
      <trkpt lat="43.02012" lon="0.20122">
        <ele>1228.7</ele>
        <time>2023-11-19T12:07:17Z</time>
      </trkpt>
      <trkpt lat="43.02011" lon="0.20123">
        <ele>1228.8</ele>
        <time>2023-11-19T12:07:18Z</time>
      </trkpt>
      <trkpt lat="43.02011" lon="0.20125">
        <ele>1229</ele>
        <time>2023-11-19T12:07:19Z</time>
      </trkpt>
      <trkpt lat="43.02011" lon="0.20126">
        <ele>1229.1</ele>
        <time>2023-11-19T12:07:20Z</time>
      </trkpt>
      <trkpt lat="43.0201" lon="0.20127">
        <ele>1229.2</ele>
        <time>2023-11-19T12:07:21Z</time>
      </trkpt>
      <trkpt lat="43.0201" lon="0.20128">
        <ele>1229.3</ele>
        <time>2023-11-19T12:07:22Z</time>
      </trkpt>
      <trkpt lat="43.02009" lon="0.2013">
        <ele>1229.5</ele>
        <time>2023-11-19T12:07:23Z</time>
      </trkpt>
      <trkpt lat="43.02008" lon="0.20131">
        <ele>1229.7</ele>
        <time>2023-11-19T12:07:24Z</time>
      </trkpt>
      <trkpt lat="43.02008" lon="0.20132">
        <ele>1229.8</ele>
        <time>2023-11-19T12:07:25Z</time>
      </trkpt>
      <trkpt lat="43.02008" lon="0.20133">
        <ele>1230</ele>
        <time>2023-11-19T12:07:26Z</time>
      </trkpt>
      <trkpt lat="43.02008" lon="0.20134">
        <ele>1230.1</ele>
        <time>2023-11-19T12:07:27Z</time>
      </trkpt>
      <trkpt lat="43.02007" lon="0.20135">
        <ele>1230.2</ele>
        <time>2023-11-19T12:07:28Z</time>
      </trkpt>
      <trkpt lat="43.02007" lon="0.20136">
        <ele>1230.3</ele>
        <time>2023-11-19T12:07:29Z</time>
      </trkpt>
      <trkpt lat="43.02006" lon="0.20137">
        <ele>1230.5</ele>
        <time>2023-11-19T12:07:30Z</time>
      </trkpt>
      <trkpt lat="43.02006" lon="0.20138">
        <ele>1230.6</ele>
        <time>2023-11-19T12:07:31Z</time>
      </trkpt>
      <trkpt lat="43.02006" lon="0.20139">
        <ele>1230.7</ele>
        <time>2023-11-19T12:07:32Z</time>
      </trkpt>
      <trkpt lat="43.02006" lon="0.2014">
        <ele>1230.8</ele>
        <time>2023-11-19T12:07:33Z</time>
      </trkpt>
      <trkpt lat="43.02005" lon="0.20142">
        <ele>1231</ele>
        <time>2023-11-19T12:07:34Z</time>
      </trkpt>
      <trkpt lat="43.02005" lon="0.20143">
        <ele>1231.1</ele>
        <time>2023-11-19T12:07:35Z</time>
      </trkpt>
      <trkpt lat="43.02005" lon="0.20144">
        <ele>1231.3</ele>
        <time>2023-11-19T12:07:36Z</time>
      </trkpt>
      <trkpt lat="43.02005" lon="0.20145">
        <ele>1231.4</ele>
        <time>2023-11-19T12:07:37Z</time>
      </trkpt>
      <trkpt lat="43.02005" lon="0.20146">
        <ele>1231.5</ele>
        <time>2023-11-19T12:07:38Z</time>
      </trkpt>
      <trkpt lat="43.02005" lon="0.20147">
        <ele>1231.6</ele>
        <time>2023-11-19T12:07:39Z</time>
      </trkpt>
      <trkpt lat="43.02005" lon="0.20149">
        <ele>1231.7</ele>
        <time>2023-11-19T12:07:40Z</time>
      </trkpt>
      <trkpt lat="43.02005" lon="0.2015">
        <ele>1231.9</ele>
        <time>2023-11-19T12:07:41Z</time>
      </trkpt>
      <trkpt lat="43.02005" lon="0.20151">
        <ele>1232</ele>
        <time>2023-11-19T12:07:42Z</time>
      </trkpt>
      <trkpt lat="43.02005" lon="0.20152">
        <ele>1232.1</ele>
        <time>2023-11-19T12:07:43Z</time>
      </trkpt>
      <trkpt lat="43.02005" lon="0.20153">
        <ele>1232.2</ele>
        <time>2023-11-19T12:07:44Z</time>
      </trkpt>
      <trkpt lat="43.02005" lon="0.20153">
        <ele>1232.2</ele>
        <time>2023-11-19T12:07:45Z</time>
      </trkpt>
      <trkpt lat="43.02005" lon="0.20155">
        <ele>1232.4</ele>
        <time>2023-11-19T12:07:46Z</time>
      </trkpt>
      <trkpt lat="43.02005" lon="0.20156">
        <ele>1232.5</ele>
        <time>2023-11-19T12:07:47Z</time>
      </trkpt>
      <trkpt lat="43.02004" lon="0.20157">
        <ele>1232.6</ele>
        <time>2023-11-19T12:07:48Z</time>
      </trkpt>
      <trkpt lat="43.02004" lon="0.20158">
        <ele>1232.7</ele>
        <time>2023-11-19T12:07:49Z</time>
      </trkpt>
      <trkpt lat="43.02004" lon="0.20159">
        <ele>1232.8</ele>
        <time>2023-11-19T12:07:50Z</time>
      </trkpt>
      <trkpt lat="43.02004" lon="0.2016">
        <ele>1232.9</ele>
        <time>2023-11-19T12:07:51Z</time>
      </trkpt>
      <trkpt lat="43.02004" lon="0.2016">
        <ele>1233</ele>
        <time>2023-11-19T12:07:52Z</time>
      </trkpt>
      <trkpt lat="43.02003" lon="0.20161">
        <ele>1233.1</ele>
        <time>2023-11-19T12:07:53Z</time>
      </trkpt>
      <trkpt lat="43.02003" lon="0.20162">
        <ele>1233.2</ele>
        <time>2023-11-19T12:07:54Z</time>
      </trkpt>
      <trkpt lat="43.02003" lon="0.20163">
        <ele>1233.3</ele>
        <time>2023-11-19T12:07:55Z</time>
      </trkpt>
      <trkpt lat="43.02003" lon="0.20164">
        <ele>1233.4</ele>
        <time>2023-11-19T12:07:56Z</time>
      </trkpt>
      <trkpt lat="43.02002" lon="0.20165">
        <ele>1233.5</ele>
        <time>2023-11-19T12:07:57Z</time>
      </trkpt>
      <trkpt lat="43.02002" lon="0.20165">
        <ele>1233.6</ele>
        <time>2023-11-19T12:07:58Z</time>
      </trkpt>
      <trkpt lat="43.02001" lon="0.20167">
        <ele>1233.8</ele>
        <time>2023-11-19T12:07:59Z</time>
      </trkpt>
      <trkpt lat="43.02" lon="0.20168">
        <ele>1234</ele>
        <time>2023-11-19T12:08:00Z</time>
      </trkpt>
      <trkpt lat="43.02" lon="0.20169">
        <ele>1234.1</ele>
        <time>2023-11-19T12:08:01Z</time>
      </trkpt>
      <trkpt lat="43.02" lon="0.20171">
        <ele>1234.3</ele>
        <time>2023-11-19T12:08:02Z</time>
      </trkpt>
      <trkpt lat="43.02" lon="0.20172">
        <ele>1234.4</ele>
        <time>2023-11-19T12:08:03Z</time>
      </trkpt>
      <trkpt lat="43.02" lon="0.20174">
        <ele>1234.6</ele>
        <time>2023-11-19T12:08:04Z</time>
      </trkpt>
      <trkpt lat="43.01999" lon="0.20175">
        <ele>1234.7</ele>
        <time>2023-11-19T12:08:05Z</time>
      </trkpt>
      <trkpt lat="43.01998" lon="0.20176">
        <ele>1234.9</ele>
        <time>2023-11-19T12:08:06Z</time>
      </trkpt>
      <trkpt lat="43.01998" lon="0.20177">
        <ele>1235</ele>
        <time>2023-11-19T12:08:07Z</time>
      </trkpt>
      <trkpt lat="43.01998" lon="0.20178">
        <ele>1235.1</ele>
        <time>2023-11-19T12:08:08Z</time>
      </trkpt>
      <trkpt lat="43.01998" lon="0.20179">
        <ele>1235.3</ele>
        <time>2023-11-19T12:08:09Z</time>
      </trkpt>
      <trkpt lat="43.01997" lon="0.20181">
        <ele>1235.5</ele>
        <time>2023-11-19T12:08:10Z</time>
      </trkpt>
      <trkpt lat="43.01997" lon="0.20183">
        <ele>1235.7</ele>
        <time>2023-11-19T12:08:11Z</time>
      </trkpt>
      <trkpt lat="43.01997" lon="0.20183">
        <ele>1235.8</ele>
        <time>2023-11-19T12:08:12Z</time>
      </trkpt>
      <trkpt lat="43.01997" lon="0.20185">
        <ele>1236</ele>
        <time>2023-11-19T12:08:13Z</time>
      </trkpt>
      <trkpt lat="43.01997" lon="0.20186">
        <ele>1236.1</ele>
        <time>2023-11-19T12:08:14Z</time>
      </trkpt>
      <trkpt lat="43.01997" lon="0.20187">
        <ele>1236.2</ele>
        <time>2023-11-19T12:08:15Z</time>
      </trkpt>
      <trkpt lat="43.01997" lon="0.20189">
        <ele>1236.4</ele>
        <time>2023-11-19T12:08:16Z</time>
      </trkpt>
      <trkpt lat="43.01997" lon="0.2019">
        <ele>1236.5</ele>
        <time>2023-11-19T12:08:17Z</time>
      </trkpt>
      <trkpt lat="43.01997" lon="0.20192">
        <ele>1236.7</ele>
        <time>2023-11-19T12:08:18Z</time>
      </trkpt>
      <trkpt lat="43.01997" lon="0.20193">
        <ele>1236.8</ele>
        <time>2023-11-19T12:08:19Z</time>
      </trkpt>
      <trkpt lat="43.01997" lon="0.20194">
        <ele>1236.9</ele>
        <time>2023-11-19T12:08:20Z</time>
      </trkpt>
      <trkpt lat="43.01997" lon="0.20196">
        <ele>1237</ele>
        <time>2023-11-19T12:08:21Z</time>
      </trkpt>
      <trkpt lat="43.01998" lon="0.20197">
        <ele>1237.2</ele>
        <time>2023-11-19T12:08:22Z</time>
      </trkpt>
      <trkpt lat="43.01997" lon="0.20199">
        <ele>1237.3</ele>
        <time>2023-11-19T12:08:23Z</time>
      </trkpt>
      <trkpt lat="43.01998" lon="0.202">
        <ele>1237.5</ele>
        <time>2023-11-19T12:08:24Z</time>
      </trkpt>
      <trkpt lat="43.01998" lon="0.20202">
        <ele>1237.6</ele>
        <time>2023-11-19T12:08:25Z</time>
      </trkpt>
      <trkpt lat="43.01998" lon="0.20203">
        <ele>1237.8</ele>
        <time>2023-11-19T12:08:26Z</time>
      </trkpt>
      <trkpt lat="43.01998" lon="0.20204">
        <ele>1237.9</ele>
        <time>2023-11-19T12:08:27Z</time>
      </trkpt>
      <trkpt lat="43.01998" lon="0.20207">
        <ele>1238.1</ele>
        <time>2023-11-19T12:08:28Z</time>
      </trkpt>
      <trkpt lat="43.01998" lon="0.20208">
        <ele>1238.2</ele>
        <time>2023-11-19T12:08:29Z</time>
      </trkpt>
      <trkpt lat="43.01998" lon="0.20209">
        <ele>1238.3</ele>
        <time>2023-11-19T12:08:30Z</time>
      </trkpt>
      <trkpt lat="43.01999" lon="0.2021">
        <ele>1238.4</ele>
        <time>2023-11-19T12:08:31Z</time>
      </trkpt>
      <trkpt lat="43.01999" lon="0.20212">
        <ele>1238.6</ele>
        <time>2023-11-19T12:08:32Z</time>
      </trkpt>
      <trkpt lat="43.02" lon="0.20213">
        <ele>1238.7</ele>
        <time>2023-11-19T12:08:33Z</time>
      </trkpt>
      <trkpt lat="43.02" lon="0.20215">
        <ele>1238.8</ele>
        <time>2023-11-19T12:08:34Z</time>
      </trkpt>
      <trkpt lat="43.02" lon="0.20216">
        <ele>1238.9</ele>
        <time>2023-11-19T12:08:35Z</time>
      </trkpt>
      <trkpt lat="43.02" lon="0.20218">
        <ele>1239.1</ele>
        <time>2023-11-19T12:08:36Z</time>
      </trkpt>
      <trkpt lat="43.02001" lon="0.20219">
        <ele>1239.2</ele>
        <time>2023-11-19T12:08:37Z</time>
      </trkpt>
      <trkpt lat="43.02001" lon="0.2022">
        <ele>1239.3</ele>
        <time>2023-11-19T12:08:38Z</time>
      </trkpt>
      <trkpt lat="43.02001" lon="0.20222">
        <ele>1239.4</ele>
        <time>2023-11-19T12:08:39Z</time>
      </trkpt>
      <trkpt lat="43.02002" lon="0.20223">
        <ele>1239.5</ele>
        <time>2023-11-19T12:08:40Z</time>
      </trkpt>
      <trkpt lat="43.02002" lon="0.20225">
        <ele>1239.6</ele>
        <time>2023-11-19T12:08:41Z</time>
      </trkpt>
      <trkpt lat="43.02001" lon="0.20226">
        <ele>1239.7</ele>
        <time>2023-11-19T12:08:42Z</time>
      </trkpt>
      <trkpt lat="43.02001" lon="0.20228">
        <ele>1239.8</ele>
        <time>2023-11-19T12:08:43Z</time>
      </trkpt>
      <trkpt lat="43.02002" lon="0.20229">
        <ele>1239.9</ele>
        <time>2023-11-19T12:08:44Z</time>
      </trkpt>
      <trkpt lat="43.02002" lon="0.2023">
        <ele>1240</ele>
        <time>2023-11-19T12:08:45Z</time>
      </trkpt>
      <trkpt lat="43.02002" lon="0.20232">
        <ele>1240.1</ele>
        <time>2023-11-19T12:08:46Z</time>
      </trkpt>
      <trkpt lat="43.02002" lon="0.20233">
        <ele>1240.2</ele>
        <time>2023-11-19T12:08:47Z</time>
      </trkpt>
      <trkpt lat="43.02002" lon="0.20235">
        <ele>1240.3</ele>
        <time>2023-11-19T12:08:48Z</time>
      </trkpt>
      <trkpt lat="43.02003" lon="0.20237">
        <ele>1240.5</ele>
        <time>2023-11-19T12:08:49Z</time>
      </trkpt>
      <trkpt lat="43.02003" lon="0.20238">
        <ele>1240.6</ele>
        <time>2023-11-19T12:08:50Z</time>
      </trkpt>
      <trkpt lat="43.02003" lon="0.20239">
        <ele>1240.6</ele>
        <time>2023-11-19T12:08:51Z</time>
      </trkpt>
      <trkpt lat="43.02003" lon="0.20241">
        <ele>1240.8</ele>
        <time>2023-11-19T12:08:52Z</time>
      </trkpt>
      <trkpt lat="43.02003" lon="0.20242">
        <ele>1240.9</ele>
        <time>2023-11-19T12:08:53Z</time>
      </trkpt>
      <trkpt lat="43.02003" lon="0.20243">
        <ele>1240.9</ele>
        <time>2023-11-19T12:08:54Z</time>
      </trkpt>
      <trkpt lat="43.02003" lon="0.20245">
        <ele>1241</ele>
        <time>2023-11-19T12:08:55Z</time>
      </trkpt>
      <trkpt lat="43.02003" lon="0.20246">
        <ele>1241.1</ele>
        <time>2023-11-19T12:08:56Z</time>
      </trkpt>
      <trkpt lat="43.02003" lon="0.20247">
        <ele>1241.2</ele>
        <time>2023-11-19T12:08:57Z</time>
      </trkpt>
      <trkpt lat="43.02003" lon="0.20249">
        <ele>1241.3</ele>
        <time>2023-11-19T12:08:58Z</time>
      </trkpt>
      <trkpt lat="43.02003" lon="0.2025">
        <ele>1241.4</ele>
        <time>2023-11-19T12:08:59Z</time>
      </trkpt>
      <trkpt lat="43.02003" lon="0.20251">
        <ele>1241.5</ele>
        <time>2023-11-19T12:09:00Z</time>
      </trkpt>
      <trkpt lat="43.02003" lon="0.20252">
        <ele>1241.6</ele>
        <time>2023-11-19T12:09:01Z</time>
      </trkpt>
      <trkpt lat="43.02003" lon="0.20254">
        <ele>1241.7</ele>
        <time>2023-11-19T12:09:02Z</time>
      </trkpt>
      <trkpt lat="43.02003" lon="0.20255">
        <ele>1241.8</ele>
        <time>2023-11-19T12:09:03Z</time>
      </trkpt>
      <trkpt lat="43.02002" lon="0.20256">
        <ele>1241.9</ele>
        <time>2023-11-19T12:09:04Z</time>
      </trkpt>
      <trkpt lat="43.02002" lon="0.20257">
        <ele>1242</ele>
        <time>2023-11-19T12:09:05Z</time>
      </trkpt>
      <trkpt lat="43.02002" lon="0.20259">
        <ele>1242.1</ele>
        <time>2023-11-19T12:09:06Z</time>
      </trkpt>
      <trkpt lat="43.02002" lon="0.2026">
        <ele>1242.2</ele>
        <time>2023-11-19T12:09:07Z</time>
      </trkpt>
      <trkpt lat="43.02001" lon="0.20262">
        <ele>1242.3</ele>
        <time>2023-11-19T12:09:08Z</time>
      </trkpt>
      <trkpt lat="43.02001" lon="0.20264">
        <ele>1242.5</ele>
        <time>2023-11-19T12:09:09Z</time>
      </trkpt>
      <trkpt lat="43.02001" lon="0.20265">
        <ele>1242.5</ele>
        <time>2023-11-19T12:09:10Z</time>
      </trkpt>
      <trkpt lat="43.02001" lon="0.20266">
        <ele>1242.7</ele>
        <time>2023-11-19T12:09:11Z</time>
      </trkpt>
      <trkpt lat="43.02001" lon="0.20267">
        <ele>1242.8</ele>
        <time>2023-11-19T12:09:12Z</time>
      </trkpt>
      <trkpt lat="43.02" lon="0.20268">
        <ele>1242.8</ele>
        <time>2023-11-19T12:09:13Z</time>
      </trkpt>
      <trkpt lat="43.02" lon="0.20269">
        <ele>1242.9</ele>
        <time>2023-11-19T12:09:14Z</time>
      </trkpt>
      <trkpt lat="43.02" lon="0.20271">
        <ele>1243.1</ele>
        <time>2023-11-19T12:09:15Z</time>
      </trkpt>
      <trkpt lat="43.01999" lon="0.20272">
        <ele>1243.2</ele>
        <time>2023-11-19T12:09:16Z</time>
      </trkpt>
      <trkpt lat="43.01999" lon="0.20273">
        <ele>1243.3</ele>
        <time>2023-11-19T12:09:17Z</time>
      </trkpt>
      <trkpt lat="43.01999" lon="0.20274">
        <ele>1243.4</ele>
        <time>2023-11-19T12:09:18Z</time>
      </trkpt>
      <trkpt lat="43.01998" lon="0.20275">
        <ele>1243.5</ele>
        <time>2023-11-19T12:09:19Z</time>
      </trkpt>
      <trkpt lat="43.01998" lon="0.20277">
        <ele>1243.6</ele>
        <time>2023-11-19T12:09:20Z</time>
      </trkpt>
      <trkpt lat="43.01997" lon="0.20278">
        <ele>1243.8</ele>
        <time>2023-11-19T12:09:21Z</time>
      </trkpt>
      <trkpt lat="43.01997" lon="0.20279">
        <ele>1243.9</ele>
        <time>2023-11-19T12:09:22Z</time>
      </trkpt>
      <trkpt lat="43.01996" lon="0.2028">
        <ele>1244</ele>
        <time>2023-11-19T12:09:23Z</time>
      </trkpt>
      <trkpt lat="43.01996" lon="0.20282">
        <ele>1244.1</ele>
        <time>2023-11-19T12:09:24Z</time>
      </trkpt>
      <trkpt lat="43.01995" lon="0.20283">
        <ele>1244.2</ele>
        <time>2023-11-19T12:09:25Z</time>
      </trkpt>
      <trkpt lat="43.01995" lon="0.20284">
        <ele>1244.3</ele>
        <time>2023-11-19T12:09:26Z</time>
      </trkpt>
      <trkpt lat="43.01995" lon="0.20285">
        <ele>1244.4</ele>
        <time>2023-11-19T12:09:27Z</time>
      </trkpt>
      <trkpt lat="43.01994" lon="0.20285">
        <ele>1244.5</ele>
        <time>2023-11-19T12:09:28Z</time>
      </trkpt>
      <trkpt lat="43.01993" lon="0.20286">
        <ele>1244.6</ele>
        <time>2023-11-19T12:09:29Z</time>
      </trkpt>
      <trkpt lat="43.01992" lon="0.20287">
        <ele>1244.7</ele>
        <time>2023-11-19T12:09:30Z</time>
      </trkpt>
      <trkpt lat="43.01992" lon="0.20287">
        <ele>1244.9</ele>
        <time>2023-11-19T12:09:31Z</time>
      </trkpt>
      <trkpt lat="43.01991" lon="0.20287">
        <ele>1244.9</ele>
        <time>2023-11-19T12:09:32Z</time>
      </trkpt>
      <trkpt lat="43.0199" lon="0.20288">
        <ele>1245.1</ele>
        <time>2023-11-19T12:09:33Z</time>
      </trkpt>
      <trkpt lat="43.0199" lon="0.20289">
        <ele>1245.2</ele>
        <time>2023-11-19T12:09:34Z</time>
      </trkpt>
      <trkpt lat="43.01989" lon="0.2029">
        <ele>1245.3</ele>
        <time>2023-11-19T12:09:35Z</time>
      </trkpt>
      <trkpt lat="43.01988" lon="0.2029">
        <ele>1245.5</ele>
        <time>2023-11-19T12:09:36Z</time>
      </trkpt>
      <trkpt lat="43.01987" lon="0.2029">
        <ele>1245.6</ele>
        <time>2023-11-19T12:09:37Z</time>
      </trkpt>
      <trkpt lat="43.01986" lon="0.20291">
        <ele>1245.7</ele>
        <time>2023-11-19T12:09:38Z</time>
      </trkpt>
      <trkpt lat="43.01985" lon="0.20291">
        <ele>1245.8</ele>
        <time>2023-11-19T12:09:39Z</time>
      </trkpt>
      <trkpt lat="43.01984" lon="0.20291">
        <ele>1246</ele>
        <time>2023-11-19T12:09:40Z</time>
      </trkpt>
      <trkpt lat="43.01984" lon="0.20292">
        <ele>1246.1</ele>
        <time>2023-11-19T12:09:41Z</time>
      </trkpt>
      <trkpt lat="43.01983" lon="0.20293">
        <ele>1246.2</ele>
        <time>2023-11-19T12:09:42Z</time>
      </trkpt>
      <trkpt lat="43.01982" lon="0.20293">
        <ele>1246.4</ele>
        <time>2023-11-19T12:09:43Z</time>
      </trkpt>
      <trkpt lat="43.01981" lon="0.20293">
        <ele>1246.6</ele>
        <time>2023-11-19T12:09:44Z</time>
      </trkpt>
      <trkpt lat="43.0198" lon="0.20294">
        <ele>1246.7</ele>
        <time>2023-11-19T12:09:45Z</time>
      </trkpt>
      <trkpt lat="43.01979" lon="0.20294">
        <ele>1246.9</ele>
        <time>2023-11-19T12:09:46Z</time>
      </trkpt>
      <trkpt lat="43.01978" lon="0.20294">
        <ele>1247</ele>
        <time>2023-11-19T12:09:47Z</time>
      </trkpt>
      <trkpt lat="43.01977" lon="0.20294">
        <ele>1247.1</ele>
        <time>2023-11-19T12:09:48Z</time>
      </trkpt>
      <trkpt lat="43.01977" lon="0.20294">
        <ele>1247.2</ele>
        <time>2023-11-19T12:09:49Z</time>
      </trkpt>
      <trkpt lat="43.01976" lon="0.20294">
        <ele>1247.4</ele>
        <time>2023-11-19T12:09:50Z</time>
      </trkpt>
      <trkpt lat="43.01975" lon="0.20294">
        <ele>1247.5</ele>
        <time>2023-11-19T12:09:51Z</time>
      </trkpt>
      <trkpt lat="43.01974" lon="0.20294">
        <ele>1247.6</ele>
        <time>2023-11-19T12:09:52Z</time>
      </trkpt>
      <trkpt lat="43.01974" lon="0.20295">
        <ele>1247.7</ele>
        <time>2023-11-19T12:09:53Z</time>
      </trkpt>
      <trkpt lat="43.01973" lon="0.20295">
        <ele>1247.8</ele>
        <time>2023-11-19T12:09:54Z</time>
      </trkpt>
      <trkpt lat="43.01972" lon="0.20295">
        <ele>1248</ele>
        <time>2023-11-19T12:09:55Z</time>
      </trkpt>
      <trkpt lat="43.01972" lon="0.20296">
        <ele>1248.1</ele>
        <time>2023-11-19T12:09:56Z</time>
      </trkpt>
      <trkpt lat="43.01971" lon="0.20296">
        <ele>1248.2</ele>
        <time>2023-11-19T12:09:57Z</time>
      </trkpt>
      <trkpt lat="43.01971" lon="0.20296">
        <ele>1248.3</ele>
        <time>2023-11-19T12:09:58Z</time>
      </trkpt>
      <trkpt lat="43.0197" lon="0.20296">
        <ele>1248.4</ele>
        <time>2023-11-19T12:09:59Z</time>
      </trkpt>
      <trkpt lat="43.01969" lon="0.20297">
        <ele>1248.5</ele>
        <time>2023-11-19T12:10:00Z</time>
      </trkpt>
      <trkpt lat="43.01968" lon="0.20298">
        <ele>1248.7</ele>
        <time>2023-11-19T12:10:01Z</time>
      </trkpt>
      <trkpt lat="43.01968" lon="0.20298">
        <ele>1248.8</ele>
        <time>2023-11-19T12:10:02Z</time>
      </trkpt>
      <trkpt lat="43.01967" lon="0.20299">
        <ele>1249</ele>
        <time>2023-11-19T12:10:03Z</time>
      </trkpt>
      <trkpt lat="43.01967" lon="0.20299">
        <ele>1249</ele>
        <time>2023-11-19T12:10:04Z</time>
      </trkpt>
      <trkpt lat="43.01966" lon="0.203">
        <ele>1249.2</ele>
        <time>2023-11-19T12:10:05Z</time>
      </trkpt>
      <trkpt lat="43.01965" lon="0.203">
        <ele>1249.4</ele>
        <time>2023-11-19T12:10:06Z</time>
      </trkpt>
      <trkpt lat="43.01965" lon="0.20301">
        <ele>1249.5</ele>
        <time>2023-11-19T12:10:07Z</time>
      </trkpt>
      <trkpt lat="43.01965" lon="0.20301">
        <ele>1249.5</ele>
        <time>2023-11-19T12:10:08Z</time>
      </trkpt>
      <trkpt lat="43.01965" lon="0.203">
        <ele>1249.6</ele>
        <time>2023-11-19T12:10:09Z</time>
      </trkpt>
      <trkpt lat="43.01965" lon="0.203">
        <ele>1249.6</ele>
        <time>2023-11-19T12:10:10Z</time>
      </trkpt>
      <trkpt lat="43.01965" lon="0.203">
        <ele>1249.7</ele>
        <time>2023-11-19T12:10:11Z</time>
      </trkpt>
      <trkpt lat="43.01964" lon="0.203">
        <ele>1249.9</ele>
        <time>2023-11-19T12:10:12Z</time>
      </trkpt>
      <trkpt lat="43.01964" lon="0.20301">
        <ele>1249.9</ele>
        <time>2023-11-19T12:10:13Z</time>
      </trkpt>
      <trkpt lat="43.01963" lon="0.20301">
        <ele>1250.1</ele>
        <time>2023-11-19T12:10:14Z</time>
      </trkpt>
      <trkpt lat="43.01963" lon="0.20302">
        <ele>1250.2</ele>
        <time>2023-11-19T12:10:15Z</time>
      </trkpt>
      <trkpt lat="43.01962" lon="0.20303">
        <ele>1250.4</ele>
        <time>2023-11-19T12:10:16Z</time>
      </trkpt>
      <trkpt lat="43.01962" lon="0.20303">
        <ele>1250.4</ele>
        <time>2023-11-19T12:10:17Z</time>
      </trkpt>
      <trkpt lat="43.01962" lon="0.20303">
        <ele>1250.5</ele>
        <time>2023-11-19T12:10:18Z</time>
      </trkpt>
      <trkpt lat="43.01962" lon="0.20302">
        <ele>1250.6</ele>
        <time>2023-11-19T12:10:19Z</time>
      </trkpt>
      <trkpt lat="43.01963" lon="0.20303">
        <ele>1250.6</ele>
        <time>2023-11-19T12:10:20Z</time>
      </trkpt>
      <trkpt lat="43.01963" lon="0.20303">
        <ele>1250.6</ele>
        <time>2023-11-19T12:10:21Z</time>
      </trkpt>
      <trkpt lat="43.01963" lon="0.20302">
        <ele>1250.7</ele>
        <time>2023-11-19T12:10:22Z</time>
      </trkpt>
      <trkpt lat="43.01963" lon="0.20302">
        <ele>1250.7</ele>
        <time>2023-11-19T12:10:23Z</time>
      </trkpt>
      <trkpt lat="43.01963" lon="0.20302">
        <ele>1250.8</ele>
        <time>2023-11-19T12:10:24Z</time>
      </trkpt>
      <trkpt lat="43.01963" lon="0.20302">
        <ele>1250.8</ele>
        <time>2023-11-19T12:10:25Z</time>
      </trkpt>
      <trkpt lat="43.01964" lon="0.20302">
        <ele>1250.9</ele>
        <time>2023-11-19T12:10:26Z</time>
      </trkpt>
      <trkpt lat="43.01964" lon="0.20303">
        <ele>1250.9</ele>
        <time>2023-11-19T12:10:27Z</time>
      </trkpt>
      <trkpt lat="43.01964" lon="0.20302">
        <ele>1251</ele>
        <time>2023-11-19T12:10:28Z</time>
      </trkpt>
      <trkpt lat="43.01964" lon="0.20303">
        <ele>1251.1</ele>
        <time>2023-11-19T12:10:29Z</time>
      </trkpt>
      <trkpt lat="43.01964" lon="0.20303">
        <ele>1251.3</ele>
        <time>2023-11-19T12:10:30Z</time>
      </trkpt>
      <trkpt lat="43.01963" lon="0.20304">
        <ele>1251.4</ele>
        <time>2023-11-19T12:10:31Z</time>
      </trkpt>
      <trkpt lat="43.01962" lon="0.20305">
        <ele>1251.6</ele>
        <time>2023-11-19T12:10:32Z</time>
      </trkpt>
      <trkpt lat="43.01962" lon="0.20305">
        <ele>1251.7</ele>
        <time>2023-11-19T12:10:33Z</time>
      </trkpt>
      <trkpt lat="43.0196" lon="0.20306">
        <ele>1252</ele>
        <time>2023-11-19T12:10:34Z</time>
      </trkpt>
      <trkpt lat="43.0196" lon="0.20307">
        <ele>1252.2</ele>
        <time>2023-11-19T12:10:35Z</time>
      </trkpt>
      <trkpt lat="43.01959" lon="0.20308">
        <ele>1252.3</ele>
        <time>2023-11-19T12:10:36Z</time>
      </trkpt>
      <trkpt lat="43.01958" lon="0.20308">
        <ele>1252.5</ele>
        <time>2023-11-19T12:10:37Z</time>
      </trkpt>
      <trkpt lat="43.01958" lon="0.20309">
        <ele>1252.6</ele>
        <time>2023-11-19T12:10:38Z</time>
      </trkpt>
      <trkpt lat="43.01957" lon="0.20308">
        <ele>1252.7</ele>
        <time>2023-11-19T12:10:39Z</time>
      </trkpt>
      <trkpt lat="43.01957" lon="0.20309">
        <ele>1252.8</ele>
        <time>2023-11-19T12:10:40Z</time>
      </trkpt>
      <trkpt lat="43.01956" lon="0.2031">
        <ele>1253</ele>
        <time>2023-11-19T12:10:41Z</time>
      </trkpt>
      <trkpt lat="43.01956" lon="0.2031">
        <ele>1253.2</ele>
        <time>2023-11-19T12:10:42Z</time>
      </trkpt>
      <trkpt lat="43.01955" lon="0.20312">
        <ele>1253.4</ele>
        <time>2023-11-19T12:10:43Z</time>
      </trkpt>
      <trkpt lat="43.01954" lon="0.20312">
        <ele>1253.5</ele>
        <time>2023-11-19T12:10:44Z</time>
      </trkpt>
      <trkpt lat="43.01954" lon="0.20313">
        <ele>1253.6</ele>
        <time>2023-11-19T12:10:45Z</time>
      </trkpt>
      <trkpt lat="43.01954" lon="0.20314">
        <ele>1253.7</ele>
        <time>2023-11-19T12:10:46Z</time>
      </trkpt>
      <trkpt lat="43.01954" lon="0.20315">
        <ele>1253.9</ele>
        <time>2023-11-19T12:10:47Z</time>
      </trkpt>
      <trkpt lat="43.01953" lon="0.20315">
        <ele>1254.1</ele>
        <time>2023-11-19T12:10:48Z</time>
      </trkpt>
      <trkpt lat="43.01952" lon="0.20316">
        <ele>1254.4</ele>
        <time>2023-11-19T12:10:49Z</time>
      </trkpt>
      <trkpt lat="43.01951" lon="0.20317">
        <ele>1254.5</ele>
        <time>2023-11-19T12:10:50Z</time>
      </trkpt>
      <trkpt lat="43.0195" lon="0.20317">
        <ele>1254.7</ele>
        <time>2023-11-19T12:10:51Z</time>
      </trkpt>
      <trkpt lat="43.01949" lon="0.20317">
        <ele>1254.8</ele>
        <time>2023-11-19T12:10:52Z</time>
      </trkpt>
      <trkpt lat="43.01949" lon="0.20318">
        <ele>1255.1</ele>
        <time>2023-11-19T12:10:53Z</time>
      </trkpt>
      <trkpt lat="43.01947" lon="0.20319">
        <ele>1255.3</ele>
        <time>2023-11-19T12:10:54Z</time>
      </trkpt>
      <trkpt lat="43.01947" lon="0.2032">
        <ele>1255.5</ele>
        <time>2023-11-19T12:10:55Z</time>
      </trkpt>
      <trkpt lat="43.01946" lon="0.2032">
        <ele>1255.7</ele>
        <time>2023-11-19T12:10:56Z</time>
      </trkpt>
      <trkpt lat="43.01945" lon="0.20321">
        <ele>1255.9</ele>
        <time>2023-11-19T12:10:57Z</time>
      </trkpt>
      <trkpt lat="43.01945" lon="0.20322">
        <ele>1256</ele>
        <time>2023-11-19T12:10:58Z</time>
      </trkpt>
      <trkpt lat="43.01944" lon="0.20323">
        <ele>1256.2</ele>
        <time>2023-11-19T12:10:59Z</time>
      </trkpt>
      <trkpt lat="43.01944" lon="0.20324">
        <ele>1256.4</ele>
        <time>2023-11-19T12:11:00Z</time>
      </trkpt>
      <trkpt lat="43.01943" lon="0.20325">
        <ele>1256.5</ele>
        <time>2023-11-19T12:11:01Z</time>
      </trkpt>
      <trkpt lat="43.01943" lon="0.20324">
        <ele>1256.6</ele>
        <time>2023-11-19T12:11:02Z</time>
      </trkpt>
      <trkpt lat="43.01944" lon="0.20324">
        <ele>1256.7</ele>
        <time>2023-11-19T12:11:03Z</time>
      </trkpt>
      <trkpt lat="43.01943" lon="0.20325">
        <ele>1256.9</ele>
        <time>2023-11-19T12:11:04Z</time>
      </trkpt>
      <trkpt lat="43.01942" lon="0.20327">
        <ele>1257.1</ele>
        <time>2023-11-19T12:11:05Z</time>
      </trkpt>
      <trkpt lat="43.01942" lon="0.20327">
        <ele>1257.2</ele>
        <time>2023-11-19T12:11:06Z</time>
      </trkpt>
      <trkpt lat="43.01941" lon="0.20328">
        <ele>1257.4</ele>
        <time>2023-11-19T12:11:07Z</time>
      </trkpt>
      <trkpt lat="43.01941" lon="0.20329">
        <ele>1257.5</ele>
        <time>2023-11-19T12:11:08Z</time>
      </trkpt>
      <trkpt lat="43.0194" lon="0.2033">
        <ele>1257.7</ele>
        <time>2023-11-19T12:11:09Z</time>
      </trkpt>
      <trkpt lat="43.01939" lon="0.20331">
        <ele>1258</ele>
        <time>2023-11-19T12:11:10Z</time>
      </trkpt>
      <trkpt lat="43.01939" lon="0.20332">
        <ele>1258</ele>
        <time>2023-11-19T12:11:11Z</time>
      </trkpt>
      <trkpt lat="43.01938" lon="0.20332">
        <ele>1258.1</ele>
        <time>2023-11-19T12:11:12Z</time>
      </trkpt>
      <trkpt lat="43.01938" lon="0.20333">
        <ele>1258.2</ele>
        <time>2023-11-19T12:11:13Z</time>
      </trkpt>
      <trkpt lat="43.01938" lon="0.20333">
        <ele>1258.3</ele>
        <time>2023-11-19T12:11:14Z</time>
      </trkpt>
      <trkpt lat="43.01937" lon="0.20334">
        <ele>1258.3</ele>
        <time>2023-11-19T12:11:15Z</time>
      </trkpt>
      <trkpt lat="43.01937" lon="0.20335">
        <ele>1258.6</ele>
        <time>2023-11-19T12:11:16Z</time>
      </trkpt>
      <trkpt lat="43.01936" lon="0.20335">
        <ele>1258.7</ele>
        <time>2023-11-19T12:11:17Z</time>
      </trkpt>
      <trkpt lat="43.01935" lon="0.20336">
        <ele>1258.9</ele>
        <time>2023-11-19T12:11:18Z</time>
      </trkpt>
      <trkpt lat="43.01934" lon="0.20338">
        <ele>1259.2</ele>
        <time>2023-11-19T12:11:19Z</time>
      </trkpt>
      <trkpt lat="43.01933" lon="0.20339">
        <ele>1259.3</ele>
        <time>2023-11-19T12:11:20Z</time>
      </trkpt>
      <trkpt lat="43.01933" lon="0.2034">
        <ele>1259.4</ele>
        <time>2023-11-19T12:11:21Z</time>
      </trkpt>
      <trkpt lat="43.01933" lon="0.20341">
        <ele>1259.5</ele>
        <time>2023-11-19T12:11:22Z</time>
      </trkpt>
      <trkpt lat="43.01932" lon="0.20342">
        <ele>1259.6</ele>
        <time>2023-11-19T12:11:23Z</time>
      </trkpt>
      <trkpt lat="43.01932" lon="0.20343">
        <ele>1259.7</ele>
        <time>2023-11-19T12:11:24Z</time>
      </trkpt>
      <trkpt lat="43.01932" lon="0.20344">
        <ele>1259.8</ele>
        <time>2023-11-19T12:11:25Z</time>
      </trkpt>
      <trkpt lat="43.01931" lon="0.20345">
        <ele>1260</ele>
        <time>2023-11-19T12:11:26Z</time>
      </trkpt>
      <trkpt lat="43.01931" lon="0.20346">
        <ele>1260.1</ele>
        <time>2023-11-19T12:11:27Z</time>
      </trkpt>
      <trkpt lat="43.0193" lon="0.20347">
        <ele>1260.2</ele>
        <time>2023-11-19T12:11:28Z</time>
      </trkpt>
      <trkpt lat="43.0193" lon="0.20348">
        <ele>1260.3</ele>
        <time>2023-11-19T12:11:29Z</time>
      </trkpt>
      <trkpt lat="43.01929" lon="0.20349">
        <ele>1260.4</ele>
        <time>2023-11-19T12:11:30Z</time>
      </trkpt>
      <trkpt lat="43.01929" lon="0.2035">
        <ele>1260.6</ele>
        <time>2023-11-19T12:11:31Z</time>
      </trkpt>
      <trkpt lat="43.01928" lon="0.20351">
        <ele>1260.7</ele>
        <time>2023-11-19T12:11:32Z</time>
      </trkpt>
      <trkpt lat="43.01928" lon="0.20352">
        <ele>1260.8</ele>
        <time>2023-11-19T12:11:33Z</time>
      </trkpt>
      <trkpt lat="43.01927" lon="0.20353">
        <ele>1260.9</ele>
        <time>2023-11-19T12:11:34Z</time>
      </trkpt>
      <trkpt lat="43.01927" lon="0.20354">
        <ele>1261.1</ele>
        <time>2023-11-19T12:11:35Z</time>
      </trkpt>
      <trkpt lat="43.01927" lon="0.20355">
        <ele>1261.2</ele>
        <time>2023-11-19T12:11:36Z</time>
      </trkpt>
      <trkpt lat="43.01927" lon="0.20356">
        <ele>1261.3</ele>
        <time>2023-11-19T12:11:37Z</time>
      </trkpt>
      <trkpt lat="43.01926" lon="0.20357">
        <ele>1261.4</ele>
        <time>2023-11-19T12:11:38Z</time>
      </trkpt>
      <trkpt lat="43.01926" lon="0.20358">
        <ele>1261.5</ele>
        <time>2023-11-19T12:11:39Z</time>
      </trkpt>
      <trkpt lat="43.01925" lon="0.20359">
        <ele>1261.6</ele>
        <time>2023-11-19T12:11:40Z</time>
      </trkpt>
      <trkpt lat="43.01925" lon="0.2036">
        <ele>1261.8</ele>
        <time>2023-11-19T12:11:41Z</time>
      </trkpt>
      <trkpt lat="43.01925" lon="0.20361">
        <ele>1261.9</ele>
        <time>2023-11-19T12:11:42Z</time>
      </trkpt>
      <trkpt lat="43.01924" lon="0.20363">
        <ele>1262.1</ele>
        <time>2023-11-19T12:11:43Z</time>
      </trkpt>
      <trkpt lat="43.01924" lon="0.20364">
        <ele>1262.2</ele>
        <time>2023-11-19T12:11:44Z</time>
      </trkpt>
      <trkpt lat="43.01923" lon="0.20365">
        <ele>1262.3</ele>
        <time>2023-11-19T12:11:45Z</time>
      </trkpt>
      <trkpt lat="43.01923" lon="0.20366">
        <ele>1262.3</ele>
        <time>2023-11-19T12:11:46Z</time>
      </trkpt>
      <trkpt lat="43.01923" lon="0.20367">
        <ele>1262.4</ele>
        <time>2023-11-19T12:11:47Z</time>
      </trkpt>
      <trkpt lat="43.01922" lon="0.20368">
        <ele>1262.5</ele>
        <time>2023-11-19T12:11:48Z</time>
      </trkpt>
      <trkpt lat="43.01922" lon="0.20369">
        <ele>1262.7</ele>
        <time>2023-11-19T12:11:49Z</time>
      </trkpt>
      <trkpt lat="43.01921" lon="0.2037">
        <ele>1262.8</ele>
        <time>2023-11-19T12:11:50Z</time>
      </trkpt>
      <trkpt lat="43.01921" lon="0.20371">
        <ele>1262.9</ele>
        <time>2023-11-19T12:11:51Z</time>
      </trkpt>
      <trkpt lat="43.0192" lon="0.20373">
        <ele>1263.1</ele>
        <time>2023-11-19T12:11:52Z</time>
      </trkpt>
      <trkpt lat="43.0192" lon="0.20373">
        <ele>1263.1</ele>
        <time>2023-11-19T12:11:53Z</time>
      </trkpt>
      <trkpt lat="43.01919" lon="0.20375">
        <ele>1263.3</ele>
        <time>2023-11-19T12:11:54Z</time>
      </trkpt>
      <trkpt lat="43.01919" lon="0.20376">
        <ele>1263.4</ele>
        <time>2023-11-19T12:11:55Z</time>
      </trkpt>
      <trkpt lat="43.01919" lon="0.20377">
        <ele>1263.5</ele>
        <time>2023-11-19T12:11:56Z</time>
      </trkpt>
      <trkpt lat="43.01918" lon="0.20378">
        <ele>1263.6</ele>
        <time>2023-11-19T12:11:57Z</time>
      </trkpt>
      <trkpt lat="43.01918" lon="0.20379">
        <ele>1263.7</ele>
        <time>2023-11-19T12:11:58Z</time>
      </trkpt>
      <trkpt lat="43.01917" lon="0.2038">
        <ele>1263.8</ele>
        <time>2023-11-19T12:11:59Z</time>
      </trkpt>
      <trkpt lat="43.01917" lon="0.20381">
        <ele>1263.9</ele>
        <time>2023-11-19T12:12:00Z</time>
      </trkpt>
      <trkpt lat="43.01916" lon="0.20382">
        <ele>1264.1</ele>
        <time>2023-11-19T12:12:01Z</time>
      </trkpt>
      <trkpt lat="43.01917" lon="0.20381">
        <ele>1264.1</ele>
        <time>2023-11-19T12:12:02Z</time>
      </trkpt>
      <trkpt lat="43.01917" lon="0.20381">
        <ele>1264.2</ele>
        <time>2023-11-19T12:12:03Z</time>
      </trkpt>
      <trkpt lat="43.01917" lon="0.20381">
        <ele>1264.2</ele>
        <time>2023-11-19T12:12:04Z</time>
      </trkpt>
      <trkpt lat="43.01917" lon="0.20381">
        <ele>1264.2</ele>
        <time>2023-11-19T12:12:05Z</time>
      </trkpt>
      <trkpt lat="43.01917" lon="0.20382">
        <ele>1264.3</ele>
        <time>2023-11-19T12:12:06Z</time>
      </trkpt>
      <trkpt lat="43.01916" lon="0.20383">
        <ele>1264.4</ele>
        <time>2023-11-19T12:12:07Z</time>
      </trkpt>
      <trkpt lat="43.01916" lon="0.20384">
        <ele>1264.6</ele>
        <time>2023-11-19T12:12:08Z</time>
      </trkpt>
      <trkpt lat="43.01915" lon="0.20385">
        <ele>1264.6</ele>
        <time>2023-11-19T12:12:09Z</time>
      </trkpt>
      <trkpt lat="43.01915" lon="0.20385">
        <ele>1264.8</ele>
        <time>2023-11-19T12:12:10Z</time>
      </trkpt>
      <trkpt lat="43.01914" lon="0.20386">
        <ele>1264.9</ele>
        <time>2023-11-19T12:12:11Z</time>
      </trkpt>
      <trkpt lat="43.01914" lon="0.20387">
        <ele>1265</ele>
        <time>2023-11-19T12:12:12Z</time>
      </trkpt>
      <trkpt lat="43.01914" lon="0.20388">
        <ele>1265.2</ele>
        <time>2023-11-19T12:12:13Z</time>
      </trkpt>
      <trkpt lat="43.01913" lon="0.2039">
        <ele>1265.3</ele>
        <time>2023-11-19T12:12:14Z</time>
      </trkpt>
      <trkpt lat="43.01913" lon="0.2039">
        <ele>1265.4</ele>
        <time>2023-11-19T12:12:15Z</time>
      </trkpt>
      <trkpt lat="43.01912" lon="0.20392">
        <ele>1265.5</ele>
        <time>2023-11-19T12:12:16Z</time>
      </trkpt>
      <trkpt lat="43.01912" lon="0.20393">
        <ele>1265.7</ele>
        <time>2023-11-19T12:12:17Z</time>
      </trkpt>
      <trkpt lat="43.01912" lon="0.20395">
        <ele>1265.8</ele>
        <time>2023-11-19T12:12:18Z</time>
      </trkpt>
      <trkpt lat="43.01912" lon="0.20396">
        <ele>1265.9</ele>
        <time>2023-11-19T12:12:19Z</time>
      </trkpt>
      <trkpt lat="43.01911" lon="0.20397">
        <ele>1266.1</ele>
        <time>2023-11-19T12:12:20Z</time>
      </trkpt>
      <trkpt lat="43.01911" lon="0.20398">
        <ele>1266.2</ele>
        <time>2023-11-19T12:12:21Z</time>
      </trkpt>
      <trkpt lat="43.01911" lon="0.20399">
        <ele>1266.3</ele>
        <time>2023-11-19T12:12:22Z</time>
      </trkpt>
      <trkpt lat="43.0191" lon="0.20401">
        <ele>1266.4</ele>
        <time>2023-11-19T12:12:23Z</time>
      </trkpt>
      <trkpt lat="43.0191" lon="0.20402">
        <ele>1266.5</ele>
        <time>2023-11-19T12:12:24Z</time>
      </trkpt>
      <trkpt lat="43.01909" lon="0.20403">
        <ele>1266.6</ele>
        <time>2023-11-19T12:12:25Z</time>
      </trkpt>
      <trkpt lat="43.01909" lon="0.20404">
        <ele>1266.8</ele>
        <time>2023-11-19T12:12:26Z</time>
      </trkpt>
      <trkpt lat="43.01909" lon="0.20406">
        <ele>1266.9</ele>
        <time>2023-11-19T12:12:27Z</time>
      </trkpt>
      <trkpt lat="43.01908" lon="0.20407">
        <ele>1267.1</ele>
        <time>2023-11-19T12:12:28Z</time>
      </trkpt>
      <trkpt lat="43.01908" lon="0.20409">
        <ele>1267.2</ele>
        <time>2023-11-19T12:12:29Z</time>
      </trkpt>
      <trkpt lat="43.01907" lon="0.2041">
        <ele>1267.4</ele>
        <time>2023-11-19T12:12:30Z</time>
      </trkpt>
      <trkpt lat="43.01907" lon="0.20412">
        <ele>1267.5</ele>
        <time>2023-11-19T12:12:31Z</time>
      </trkpt>
      <trkpt lat="43.01907" lon="0.20413">
        <ele>1267.7</ele>
        <time>2023-11-19T12:12:32Z</time>
      </trkpt>
      <trkpt lat="43.01906" lon="0.20415">
        <ele>1267.8</ele>
        <time>2023-11-19T12:12:33Z</time>
      </trkpt>
      <trkpt lat="43.01906" lon="0.20416">
        <ele>1267.9</ele>
        <time>2023-11-19T12:12:34Z</time>
      </trkpt>
      <trkpt lat="43.01906" lon="0.20417">
        <ele>1268.1</ele>
        <time>2023-11-19T12:12:35Z</time>
      </trkpt>
      <trkpt lat="43.01906" lon="0.20419">
        <ele>1268.3</ele>
        <time>2023-11-19T12:12:36Z</time>
      </trkpt>
      <trkpt lat="43.01906" lon="0.2042">
        <ele>1268.4</ele>
        <time>2023-11-19T12:12:37Z</time>
      </trkpt>
      <trkpt lat="43.01906" lon="0.20421">
        <ele>1268.4</ele>
        <time>2023-11-19T12:12:38Z</time>
      </trkpt>
      <trkpt lat="43.01905" lon="0.20422">
        <ele>1268.5</ele>
        <time>2023-11-19T12:12:39Z</time>
      </trkpt>
      <trkpt lat="43.01905" lon="0.20423">
        <ele>1268.6</ele>
        <time>2023-11-19T12:12:40Z</time>
      </trkpt>
      <trkpt lat="43.01905" lon="0.20425">
        <ele>1268.8</ele>
        <time>2023-11-19T12:12:41Z</time>
      </trkpt>
      <trkpt lat="43.01905" lon="0.20426">
        <ele>1268.9</ele>
        <time>2023-11-19T12:12:42Z</time>
      </trkpt>
      <trkpt lat="43.01903" lon="0.20429">
        <ele>1269.1</ele>
        <time>2023-11-19T12:12:43Z</time>
      </trkpt>
      <trkpt lat="43.01903" lon="0.2043">
        <ele>1269.3</ele>
        <time>2023-11-19T12:12:44Z</time>
      </trkpt>
      <trkpt lat="43.01902" lon="0.20431">
        <ele>1269.4</ele>
        <time>2023-11-19T12:12:45Z</time>
      </trkpt>
      <trkpt lat="43.01903" lon="0.20432">
        <ele>1269.5</ele>
        <time>2023-11-19T12:12:46Z</time>
      </trkpt>
      <trkpt lat="43.01903" lon="0.20433">
        <ele>1269.6</ele>
        <time>2023-11-19T12:12:47Z</time>
      </trkpt>
      <trkpt lat="43.01903" lon="0.20435">
        <ele>1269.7</ele>
        <time>2023-11-19T12:12:48Z</time>
      </trkpt>
      <trkpt lat="43.01903" lon="0.20436">
        <ele>1269.8</ele>
        <time>2023-11-19T12:12:49Z</time>
      </trkpt>
      <trkpt lat="43.01903" lon="0.20438">
        <ele>1270</ele>
        <time>2023-11-19T12:12:50Z</time>
      </trkpt>
      <trkpt lat="43.01903" lon="0.20439">
        <ele>1270.1</ele>
        <time>2023-11-19T12:12:51Z</time>
      </trkpt>
      <trkpt lat="43.01903" lon="0.20441">
        <ele>1270.2</ele>
        <time>2023-11-19T12:12:52Z</time>
      </trkpt>
      <trkpt lat="43.01902" lon="0.20442">
        <ele>1270.4</ele>
        <time>2023-11-19T12:12:53Z</time>
      </trkpt>
      <trkpt lat="43.01902" lon="0.20444">
        <ele>1270.5</ele>
        <time>2023-11-19T12:12:54Z</time>
      </trkpt>
      <trkpt lat="43.01902" lon="0.20445">
        <ele>1270.6</ele>
        <time>2023-11-19T12:12:55Z</time>
      </trkpt>
      <trkpt lat="43.01902" lon="0.20446">
        <ele>1270.7</ele>
        <time>2023-11-19T12:12:56Z</time>
      </trkpt>
      <trkpt lat="43.01901" lon="0.20448">
        <ele>1270.8</ele>
        <time>2023-11-19T12:12:57Z</time>
      </trkpt>
      <trkpt lat="43.01901" lon="0.20449">
        <ele>1270.9</ele>
        <time>2023-11-19T12:12:58Z</time>
      </trkpt>
      <trkpt lat="43.01901" lon="0.2045">
        <ele>1271.1</ele>
        <time>2023-11-19T12:12:59Z</time>
      </trkpt>
      <trkpt lat="43.019" lon="0.20451">
        <ele>1271.1</ele>
        <time>2023-11-19T12:13:00Z</time>
      </trkpt>
      <trkpt lat="43.019" lon="0.20453">
        <ele>1271.3</ele>
        <time>2023-11-19T12:13:01Z</time>
      </trkpt>
      <trkpt lat="43.019" lon="0.20454">
        <ele>1271.4</ele>
        <time>2023-11-19T12:13:02Z</time>
      </trkpt>
      <trkpt lat="43.01899" lon="0.20455">
        <ele>1271.4</ele>
        <time>2023-11-19T12:13:03Z</time>
      </trkpt>
      <trkpt lat="43.01899" lon="0.20456">
        <ele>1271.5</ele>
        <time>2023-11-19T12:13:04Z</time>
      </trkpt>
      <trkpt lat="43.01898" lon="0.20457">
        <ele>1271.7</ele>
        <time>2023-11-19T12:13:05Z</time>
      </trkpt>
      <trkpt lat="43.01897" lon="0.20458">
        <ele>1271.8</ele>
        <time>2023-11-19T12:13:06Z</time>
      </trkpt>
      <trkpt lat="43.01897" lon="0.2046">
        <ele>1271.9</ele>
        <time>2023-11-19T12:13:07Z</time>
      </trkpt>
      <trkpt lat="43.01896" lon="0.20461">
        <ele>1272</ele>
        <time>2023-11-19T12:13:08Z</time>
      </trkpt>
      <trkpt lat="43.01896" lon="0.20462">
        <ele>1272.1</ele>
        <time>2023-11-19T12:13:09Z</time>
      </trkpt>
      <trkpt lat="43.01895" lon="0.20463">
        <ele>1272.2</ele>
        <time>2023-11-19T12:13:10Z</time>
      </trkpt>
      <trkpt lat="43.01895" lon="0.20463">
        <ele>1272.3</ele>
        <time>2023-11-19T12:13:11Z</time>
      </trkpt>
      <trkpt lat="43.01893" lon="0.20464">
        <ele>1272.4</ele>
        <time>2023-11-19T12:13:12Z</time>
      </trkpt>
      <trkpt lat="43.01893" lon="0.20465">
        <ele>1272.5</ele>
        <time>2023-11-19T12:13:13Z</time>
      </trkpt>
      <trkpt lat="43.01893" lon="0.20466">
        <ele>1272.5</ele>
        <time>2023-11-19T12:13:14Z</time>
      </trkpt>
      <trkpt lat="43.01892" lon="0.20466">
        <ele>1272.6</ele>
        <time>2023-11-19T12:13:15Z</time>
      </trkpt>
      <trkpt lat="43.01891" lon="0.20467">
        <ele>1272.7</ele>
        <time>2023-11-19T12:13:16Z</time>
      </trkpt>
      <trkpt lat="43.0189" lon="0.20468">
        <ele>1272.8</ele>
        <time>2023-11-19T12:13:17Z</time>
      </trkpt>
      <trkpt lat="43.0189" lon="0.20468">
        <ele>1272.9</ele>
        <time>2023-11-19T12:13:18Z</time>
      </trkpt>
      <trkpt lat="43.01889" lon="0.20469">
        <ele>1273</ele>
        <time>2023-11-19T12:13:19Z</time>
      </trkpt>
      <trkpt lat="43.01888" lon="0.2047">
        <ele>1273.1</ele>
        <time>2023-11-19T12:13:20Z</time>
      </trkpt>
      <trkpt lat="43.01888" lon="0.20471">
        <ele>1273.2</ele>
        <time>2023-11-19T12:13:21Z</time>
      </trkpt>
      <trkpt lat="43.01887" lon="0.20472">
        <ele>1273.2</ele>
        <time>2023-11-19T12:13:22Z</time>
      </trkpt>
      <trkpt lat="43.01887" lon="0.20473">
        <ele>1273.3</ele>
        <time>2023-11-19T12:13:23Z</time>
      </trkpt>
      <trkpt lat="43.01886" lon="0.20474">
        <ele>1273.4</ele>
        <time>2023-11-19T12:13:24Z</time>
      </trkpt>
      <trkpt lat="43.01886" lon="0.20474">
        <ele>1273.5</ele>
        <time>2023-11-19T12:13:25Z</time>
      </trkpt>
      <trkpt lat="43.01886" lon="0.20475">
        <ele>1273.5</ele>
        <time>2023-11-19T12:13:26Z</time>
      </trkpt>
      <trkpt lat="43.01885" lon="0.20476">
        <ele>1273.6</ele>
        <time>2023-11-19T12:13:27Z</time>
      </trkpt>
      <trkpt lat="43.01885" lon="0.20477">
        <ele>1273.7</ele>
        <time>2023-11-19T12:13:28Z</time>
      </trkpt>
      <trkpt lat="43.01884" lon="0.20479">
        <ele>1273.8</ele>
        <time>2023-11-19T12:13:29Z</time>
      </trkpt>
      <trkpt lat="43.01884" lon="0.2048">
        <ele>1273.9</ele>
        <time>2023-11-19T12:13:30Z</time>
      </trkpt>
      <trkpt lat="43.01884" lon="0.20481">
        <ele>1274</ele>
        <time>2023-11-19T12:13:31Z</time>
      </trkpt>
      <trkpt lat="43.01884" lon="0.20483">
        <ele>1274.1</ele>
        <time>2023-11-19T12:13:32Z</time>
      </trkpt>
      <trkpt lat="43.01884" lon="0.20484">
        <ele>1274.2</ele>
        <time>2023-11-19T12:13:33Z</time>
      </trkpt>
      <trkpt lat="43.01883" lon="0.20485">
        <ele>1274.3</ele>
        <time>2023-11-19T12:13:34Z</time>
      </trkpt>
      <trkpt lat="43.01883" lon="0.20486">
        <ele>1274.3</ele>
        <time>2023-11-19T12:13:35Z</time>
      </trkpt>
      <trkpt lat="43.01883" lon="0.20488">
        <ele>1274.5</ele>
        <time>2023-11-19T12:13:36Z</time>
      </trkpt>
      <trkpt lat="43.01882" lon="0.20489">
        <ele>1274.5</ele>
        <time>2023-11-19T12:13:37Z</time>
      </trkpt>
      <trkpt lat="43.01882" lon="0.2049">
        <ele>1274.6</ele>
        <time>2023-11-19T12:13:38Z</time>
      </trkpt>
      <trkpt lat="43.01882" lon="0.20491">
        <ele>1274.7</ele>
        <time>2023-11-19T12:13:39Z</time>
      </trkpt>
      <trkpt lat="43.01881" lon="0.20491">
        <ele>1274.7</ele>
        <time>2023-11-19T12:13:40Z</time>
      </trkpt>
      <trkpt lat="43.01882" lon="0.2049">
        <ele>1274.8</ele>
        <time>2023-11-19T12:13:41Z</time>
      </trkpt>
      <trkpt lat="43.01882" lon="0.2049">
        <ele>1274.8</ele>
        <time>2023-11-19T12:13:42Z</time>
      </trkpt>
      <trkpt lat="43.01882" lon="0.2049">
        <ele>1274.8</ele>
        <time>2023-11-19T12:13:43Z</time>
      </trkpt>
      <trkpt lat="43.01882" lon="0.2049">
        <ele>1274.8</ele>
        <time>2023-11-19T12:13:44Z</time>
      </trkpt>
      <trkpt lat="43.01882" lon="0.2049">
        <ele>1274.8</ele>
        <time>2023-11-19T12:13:45Z</time>
      </trkpt>
      <trkpt lat="43.01882" lon="0.20489">
        <ele>1274.8</ele>
        <time>2023-11-19T12:13:46Z</time>
      </trkpt>
      <trkpt lat="43.01882" lon="0.20489">
        <ele>1274.8</ele>
        <time>2023-11-19T12:13:47Z</time>
      </trkpt>
      <trkpt lat="43.0188" lon="0.2049">
        <ele>1275</ele>
        <time>2023-11-19T12:13:48Z</time>
      </trkpt>
      <trkpt lat="43.0188" lon="0.20492">
        <ele>1275.1</ele>
        <time>2023-11-19T12:13:49Z</time>
      </trkpt>
      <trkpt lat="43.01879" lon="0.20493">
        <ele>1275.2</ele>
        <time>2023-11-19T12:13:50Z</time>
      </trkpt>
      <trkpt lat="43.01879" lon="0.20494">
        <ele>1275.3</ele>
        <time>2023-11-19T12:13:51Z</time>
      </trkpt>
      <trkpt lat="43.01878" lon="0.20496">
        <ele>1275.4</ele>
        <time>2023-11-19T12:13:52Z</time>
      </trkpt>
      <trkpt lat="43.01877" lon="0.20497">
        <ele>1275.5</ele>
        <time>2023-11-19T12:13:53Z</time>
      </trkpt>
      <trkpt lat="43.01877" lon="0.20498">
        <ele>1275.6</ele>
        <time>2023-11-19T12:13:54Z</time>
      </trkpt>
      <trkpt lat="43.01876" lon="0.20499">
        <ele>1275.7</ele>
        <time>2023-11-19T12:13:55Z</time>
      </trkpt>
      <trkpt lat="43.01876" lon="0.205">
        <ele>1275.8</ele>
        <time>2023-11-19T12:13:56Z</time>
      </trkpt>
      <trkpt lat="43.01875" lon="0.20502">
        <ele>1275.9</ele>
        <time>2023-11-19T12:13:57Z</time>
      </trkpt>
      <trkpt lat="43.01874" lon="0.20503">
        <ele>1276</ele>
        <time>2023-11-19T12:13:58Z</time>
      </trkpt>
      <trkpt lat="43.01874" lon="0.20503">
        <ele>1276.1</ele>
        <time>2023-11-19T12:13:59Z</time>
      </trkpt>
      <trkpt lat="43.01874" lon="0.20504">
        <ele>1276.1</ele>
        <time>2023-11-19T12:14:00Z</time>
      </trkpt>
      <trkpt lat="43.01874" lon="0.20506">
        <ele>1276.2</ele>
        <time>2023-11-19T12:14:01Z</time>
      </trkpt>
      <trkpt lat="43.01874" lon="0.20507">
        <ele>1276.3</ele>
        <time>2023-11-19T12:14:02Z</time>
      </trkpt>
      <trkpt lat="43.01874" lon="0.20508">
        <ele>1276.4</ele>
        <time>2023-11-19T12:14:03Z</time>
      </trkpt>
      <trkpt lat="43.01873" lon="0.20509">
        <ele>1276.5</ele>
        <time>2023-11-19T12:14:04Z</time>
      </trkpt>
      <trkpt lat="43.01872" lon="0.2051">
        <ele>1276.6</ele>
        <time>2023-11-19T12:14:05Z</time>
      </trkpt>
      <trkpt lat="43.01872" lon="0.20511">
        <ele>1276.7</ele>
        <time>2023-11-19T12:14:06Z</time>
      </trkpt>
      <trkpt lat="43.01871" lon="0.20512">
        <ele>1276.8</ele>
        <time>2023-11-19T12:14:07Z</time>
      </trkpt>
      <trkpt lat="43.01871" lon="0.20514">
        <ele>1276.9</ele>
        <time>2023-11-19T12:14:08Z</time>
      </trkpt>
      <trkpt lat="43.01871" lon="0.20515">
        <ele>1277</ele>
        <time>2023-11-19T12:14:09Z</time>
      </trkpt>
      <trkpt lat="43.0187" lon="0.20517">
        <ele>1277.1</ele>
        <time>2023-11-19T12:14:10Z</time>
      </trkpt>
      <trkpt lat="43.0187" lon="0.20518">
        <ele>1277.2</ele>
        <time>2023-11-19T12:14:11Z</time>
      </trkpt>
      <trkpt lat="43.0187" lon="0.20519">
        <ele>1277.3</ele>
        <time>2023-11-19T12:14:12Z</time>
      </trkpt>
      <trkpt lat="43.0187" lon="0.20521">
        <ele>1277.4</ele>
        <time>2023-11-19T12:14:13Z</time>
      </trkpt>
      <trkpt lat="43.0187" lon="0.20522">
        <ele>1277.5</ele>
        <time>2023-11-19T12:14:14Z</time>
      </trkpt>
      <trkpt lat="43.0187" lon="0.20523">
        <ele>1277.6</ele>
        <time>2023-11-19T12:14:15Z</time>
      </trkpt>
      <trkpt lat="43.0187" lon="0.20525">
        <ele>1277.7</ele>
        <time>2023-11-19T12:14:16Z</time>
      </trkpt>
      <trkpt lat="43.0187" lon="0.20526">
        <ele>1277.8</ele>
        <time>2023-11-19T12:14:17Z</time>
      </trkpt>
      <trkpt lat="43.0187" lon="0.20527">
        <ele>1277.9</ele>
        <time>2023-11-19T12:14:18Z</time>
      </trkpt>
      <trkpt lat="43.01869" lon="0.20529">
        <ele>1278</ele>
        <time>2023-11-19T12:14:19Z</time>
      </trkpt>
      <trkpt lat="43.01869" lon="0.2053">
        <ele>1278.1</ele>
        <time>2023-11-19T12:14:20Z</time>
      </trkpt>
      <trkpt lat="43.0187" lon="0.20532">
        <ele>1278.2</ele>
        <time>2023-11-19T12:14:21Z</time>
      </trkpt>
      <trkpt lat="43.0187" lon="0.20533">
        <ele>1278.3</ele>
        <time>2023-11-19T12:14:22Z</time>
      </trkpt>
      <trkpt lat="43.0187" lon="0.20534">
        <ele>1278.4</ele>
        <time>2023-11-19T12:14:23Z</time>
      </trkpt>
      <trkpt lat="43.0187" lon="0.20535">
        <ele>1278.4</ele>
        <time>2023-11-19T12:14:24Z</time>
      </trkpt>
      <trkpt lat="43.0187" lon="0.20537">
        <ele>1278.5</ele>
        <time>2023-11-19T12:14:25Z</time>
      </trkpt>
      <trkpt lat="43.0187" lon="0.20538">
        <ele>1278.6</ele>
        <time>2023-11-19T12:14:26Z</time>
      </trkpt>
      <trkpt lat="43.0187" lon="0.20539">
        <ele>1278.7</ele>
        <time>2023-11-19T12:14:27Z</time>
      </trkpt>
      <trkpt lat="43.0187" lon="0.2054">
        <ele>1278.8</ele>
        <time>2023-11-19T12:14:28Z</time>
      </trkpt>
      <trkpt lat="43.0187" lon="0.20541">
        <ele>1278.8</ele>
        <time>2023-11-19T12:14:29Z</time>
      </trkpt>
      <trkpt lat="43.0187" lon="0.20542">
        <ele>1278.9</ele>
        <time>2023-11-19T12:14:30Z</time>
      </trkpt>
      <trkpt lat="43.0187" lon="0.20542">
        <ele>1278.9</ele>
        <time>2023-11-19T12:14:31Z</time>
      </trkpt>
      <trkpt lat="43.0187" lon="0.20542">
        <ele>1278.9</ele>
        <time>2023-11-19T12:14:32Z</time>
      </trkpt>
      <trkpt lat="43.0187" lon="0.20542">
        <ele>1278.9</ele>
        <time>2023-11-19T12:14:33Z</time>
      </trkpt>
      <trkpt lat="43.0187" lon="0.20542">
        <ele>1279</ele>
        <time>2023-11-19T12:14:34Z</time>
      </trkpt>
      <trkpt lat="43.0187" lon="0.20542">
        <ele>1279</ele>
        <time>2023-11-19T12:14:35Z</time>
      </trkpt>
      <trkpt lat="43.0187" lon="0.20541">
        <ele>1279</ele>
        <time>2023-11-19T12:14:36Z</time>
      </trkpt>
      <trkpt lat="43.0187" lon="0.20541">
        <ele>1279</ele>
        <time>2023-11-19T12:14:37Z</time>
      </trkpt>
      <trkpt lat="43.0187" lon="0.20541">
        <ele>1279</ele>
        <time>2023-11-19T12:14:38Z</time>
      </trkpt>
      <trkpt lat="43.0187" lon="0.20541">
        <ele>1279</ele>
        <time>2023-11-19T12:14:39Z</time>
      </trkpt>
      <trkpt lat="43.0187" lon="0.20542">
        <ele>1279</ele>
        <time>2023-11-19T12:14:40Z</time>
      </trkpt>
      <trkpt lat="43.0187" lon="0.20544">
        <ele>1279.1</ele>
        <time>2023-11-19T12:14:41Z</time>
      </trkpt>
      <trkpt lat="43.01871" lon="0.20546">
        <ele>1279.2</ele>
        <time>2023-11-19T12:14:42Z</time>
      </trkpt>
      <trkpt lat="43.0187" lon="0.20547">
        <ele>1279.3</ele>
        <time>2023-11-19T12:14:43Z</time>
      </trkpt>
      <trkpt lat="43.0187" lon="0.20549">
        <ele>1279.4</ele>
        <time>2023-11-19T12:14:44Z</time>
      </trkpt>
      <trkpt lat="43.0187" lon="0.2055">
        <ele>1279.5</ele>
        <time>2023-11-19T12:14:45Z</time>
      </trkpt>
      <trkpt lat="43.0187" lon="0.20553">
        <ele>1279.6</ele>
        <time>2023-11-19T12:14:46Z</time>
      </trkpt>
      <trkpt lat="43.0187" lon="0.20554">
        <ele>1279.7</ele>
        <time>2023-11-19T12:14:47Z</time>
      </trkpt>
      <trkpt lat="43.0187" lon="0.20555">
        <ele>1279.7</ele>
        <time>2023-11-19T12:14:48Z</time>
      </trkpt>
      <trkpt lat="43.0187" lon="0.20557">
        <ele>1279.8</ele>
        <time>2023-11-19T12:14:49Z</time>
      </trkpt>
      <trkpt lat="43.0187" lon="0.20559">
        <ele>1279.8</ele>
        <time>2023-11-19T12:14:50Z</time>
      </trkpt>
      <trkpt lat="43.0187" lon="0.2056">
        <ele>1279.9</ele>
        <time>2023-11-19T12:14:51Z</time>
      </trkpt>
      <trkpt lat="43.0187" lon="0.20562">
        <ele>1280</ele>
        <time>2023-11-19T12:14:52Z</time>
      </trkpt>
      <trkpt lat="43.0187" lon="0.20563">
        <ele>1280</ele>
        <time>2023-11-19T12:14:53Z</time>
      </trkpt>
      <trkpt lat="43.01869" lon="0.20565">
        <ele>1280.1</ele>
        <time>2023-11-19T12:14:54Z</time>
      </trkpt>
      <trkpt lat="43.01868" lon="0.20567">
        <ele>1280.2</ele>
        <time>2023-11-19T12:14:55Z</time>
      </trkpt>
      <trkpt lat="43.01868" lon="0.20568">
        <ele>1280.2</ele>
        <time>2023-11-19T12:14:56Z</time>
      </trkpt>
      <trkpt lat="43.01868" lon="0.20569">
        <ele>1280.2</ele>
        <time>2023-11-19T12:14:57Z</time>
      </trkpt>
      <trkpt lat="43.01868" lon="0.20571">
        <ele>1280.2</ele>
        <time>2023-11-19T12:14:58Z</time>
      </trkpt>
      <trkpt lat="43.01868" lon="0.20572">
        <ele>1280.3</ele>
        <time>2023-11-19T12:14:59Z</time>
      </trkpt>
      <trkpt lat="43.01867" lon="0.20574">
        <ele>1280.3</ele>
        <time>2023-11-19T12:15:00Z</time>
      </trkpt>
      <trkpt lat="43.01867" lon="0.20575">
        <ele>1280.3</ele>
        <time>2023-11-19T12:15:01Z</time>
      </trkpt>
      <trkpt lat="43.01867" lon="0.20577">
        <ele>1280.4</ele>
        <time>2023-11-19T12:15:02Z</time>
      </trkpt>
      <trkpt lat="43.01866" lon="0.20578">
        <ele>1280.4</ele>
        <time>2023-11-19T12:15:03Z</time>
      </trkpt>
      <trkpt lat="43.01865" lon="0.2058">
        <ele>1280.4</ele>
        <time>2023-11-19T12:15:04Z</time>
      </trkpt>
      <trkpt lat="43.01865" lon="0.20582">
        <ele>1280.4</ele>
        <time>2023-11-19T12:15:05Z</time>
      </trkpt>
      <trkpt lat="43.01865" lon="0.20585">
        <ele>1280.4</ele>
        <time>2023-11-19T12:15:06Z</time>
      </trkpt>
      <trkpt lat="43.01865" lon="0.20586">
        <ele>1280.4</ele>
        <time>2023-11-19T12:15:07Z</time>
      </trkpt>
      <trkpt lat="43.01865" lon="0.20587">
        <ele>1280.4</ele>
        <time>2023-11-19T12:15:08Z</time>
      </trkpt>
      <trkpt lat="43.01865" lon="0.2059">
        <ele>1280.4</ele>
        <time>2023-11-19T12:15:09Z</time>
      </trkpt>
      <trkpt lat="43.01865" lon="0.20591">
        <ele>1280.4</ele>
        <time>2023-11-19T12:15:10Z</time>
      </trkpt>
      <trkpt lat="43.01864" lon="0.20593">
        <ele>1280.4</ele>
        <time>2023-11-19T12:15:11Z</time>
      </trkpt>
      <trkpt lat="43.01865" lon="0.20594">
        <ele>1280.4</ele>
        <time>2023-11-19T12:15:12Z</time>
      </trkpt>
      <trkpt lat="43.01865" lon="0.20596">
        <ele>1280.4</ele>
        <time>2023-11-19T12:15:13Z</time>
      </trkpt>
      <trkpt lat="43.01864" lon="0.20598">
        <ele>1280.3</ele>
        <time>2023-11-19T12:15:14Z</time>
      </trkpt>
      <trkpt lat="43.01864" lon="0.20599">
        <ele>1280.3</ele>
        <time>2023-11-19T12:15:15Z</time>
      </trkpt>
      <trkpt lat="43.01864" lon="0.20601">
        <ele>1280.3</ele>
        <time>2023-11-19T12:15:16Z</time>
      </trkpt>
      <trkpt lat="43.01865" lon="0.20602">
        <ele>1280.3</ele>
        <time>2023-11-19T12:15:17Z</time>
      </trkpt>
      <trkpt lat="43.01865" lon="0.20603">
        <ele>1280.3</ele>
        <time>2023-11-19T12:15:18Z</time>
      </trkpt>
      <trkpt lat="43.01865" lon="0.20604">
        <ele>1280.2</ele>
        <time>2023-11-19T12:15:19Z</time>
      </trkpt>
      <trkpt lat="43.01864" lon="0.20604">
        <ele>1280.2</ele>
        <time>2023-11-19T12:15:20Z</time>
      </trkpt>
      <trkpt lat="43.01863" lon="0.20605">
        <ele>1280.2</ele>
        <time>2023-11-19T12:15:21Z</time>
      </trkpt>
      <trkpt lat="43.01863" lon="0.20606">
        <ele>1280.2</ele>
        <time>2023-11-19T12:15:22Z</time>
      </trkpt>
      <trkpt lat="43.01863" lon="0.20608">
        <ele>1280.1</ele>
        <time>2023-11-19T12:15:23Z</time>
      </trkpt>
      <trkpt lat="43.01863" lon="0.20608">
        <ele>1280.1</ele>
        <time>2023-11-19T12:15:24Z</time>
      </trkpt>
      <trkpt lat="43.01863" lon="0.20609">
        <ele>1280.1</ele>
        <time>2023-11-19T12:15:25Z</time>
      </trkpt>
      <trkpt lat="43.01863" lon="0.20609">
        <ele>1280.1</ele>
        <time>2023-11-19T12:15:26Z</time>
      </trkpt>
      <trkpt lat="43.01863" lon="0.20608">
        <ele>1280.1</ele>
        <time>2023-11-19T12:15:27Z</time>
      </trkpt>
      <trkpt lat="43.01863" lon="0.20608">
        <ele>1280.1</ele>
        <time>2023-11-19T12:15:28Z</time>
      </trkpt>
      <trkpt lat="43.01864" lon="0.20608">
        <ele>1280.1</ele>
        <time>2023-11-19T12:15:29Z</time>
      </trkpt>
      <trkpt lat="43.01864" lon="0.20608">
        <ele>1280</ele>
        <time>2023-11-19T12:15:30Z</time>
      </trkpt>
      <trkpt lat="43.01864" lon="0.20608">
        <ele>1280</ele>
        <time>2023-11-19T12:15:31Z</time>
      </trkpt>
      <trkpt lat="43.01864" lon="0.20608">
        <ele>1280</ele>
        <time>2023-11-19T12:15:32Z</time>
      </trkpt>
      <trkpt lat="43.01864" lon="0.20608">
        <ele>1280</ele>
        <time>2023-11-19T12:15:33Z</time>
      </trkpt>
      <trkpt lat="43.01864" lon="0.20607">
        <ele>1280</ele>
        <time>2023-11-19T12:15:34Z</time>
      </trkpt>
      <trkpt lat="43.01864" lon="0.20607">
        <ele>1280</ele>
        <time>2023-11-19T12:15:35Z</time>
      </trkpt>
      <trkpt lat="43.01864" lon="0.20607">
        <ele>1280</ele>
        <time>2023-11-19T12:15:36Z</time>
      </trkpt>
      <trkpt lat="43.01864" lon="0.20607">
        <ele>1280</ele>
        <time>2023-11-19T12:15:37Z</time>
      </trkpt>
      <trkpt lat="43.01864" lon="0.20607">
        <ele>1280</ele>
        <time>2023-11-19T12:15:38Z</time>
      </trkpt>
      <trkpt lat="43.01864" lon="0.20606">
        <ele>1280</ele>
        <time>2023-11-19T12:15:39Z</time>
      </trkpt>
      <trkpt lat="43.01864" lon="0.20606">
        <ele>1280</ele>
        <time>2023-11-19T12:15:40Z</time>
      </trkpt>
      <trkpt lat="43.01864" lon="0.20606">
        <ele>1280</ele>
        <time>2023-11-19T12:15:41Z</time>
      </trkpt>
      <trkpt lat="43.01864" lon="0.20606">
        <ele>1280</ele>
        <time>2023-11-19T12:15:42Z</time>
      </trkpt>
      <trkpt lat="43.01864" lon="0.20605">
        <ele>1280</ele>
        <time>2023-11-19T12:15:43Z</time>
      </trkpt>
      <trkpt lat="43.01863" lon="0.20605">
        <ele>1279.9</ele>
        <time>2023-11-19T12:15:44Z</time>
      </trkpt>
      <trkpt lat="43.01863" lon="0.20603">
        <ele>1279.9</ele>
        <time>2023-11-19T12:15:45Z</time>
      </trkpt>
      <trkpt lat="43.01863" lon="0.20602">
        <ele>1279.9</ele>
        <time>2023-11-19T12:15:46Z</time>
      </trkpt>
      <trkpt lat="43.01863" lon="0.20602">
        <ele>1279.8</ele>
        <time>2023-11-19T12:15:47Z</time>
      </trkpt>
      <trkpt lat="43.01863" lon="0.20601">
        <ele>1279.8</ele>
        <time>2023-11-19T12:15:48Z</time>
      </trkpt>
      <trkpt lat="43.01862" lon="0.206">
        <ele>1279.8</ele>
        <time>2023-11-19T12:15:49Z</time>
      </trkpt>
      <trkpt lat="43.01862" lon="0.20599">
        <ele>1279.7</ele>
        <time>2023-11-19T12:15:50Z</time>
      </trkpt>
      <trkpt lat="43.01862" lon="0.20597">
        <ele>1279.7</ele>
        <time>2023-11-19T12:15:51Z</time>
      </trkpt>
      <trkpt lat="43.01862" lon="0.20595">
        <ele>1279.6</ele>
        <time>2023-11-19T12:15:52Z</time>
      </trkpt>
      <trkpt lat="43.01861" lon="0.20594">
        <ele>1279.6</ele>
        <time>2023-11-19T12:15:53Z</time>
      </trkpt>
      <trkpt lat="43.01861" lon="0.20593">
        <ele>1279.5</ele>
        <time>2023-11-19T12:15:54Z</time>
      </trkpt>
      <trkpt lat="43.01861" lon="0.20592">
        <ele>1279.5</ele>
        <time>2023-11-19T12:15:55Z</time>
      </trkpt>
      <trkpt lat="43.0186" lon="0.20592">
        <ele>1279.5</ele>
        <time>2023-11-19T12:15:56Z</time>
      </trkpt>
      <trkpt lat="43.0186" lon="0.20591">
        <ele>1279.5</ele>
        <time>2023-11-19T12:15:57Z</time>
      </trkpt>
      <trkpt lat="43.0186" lon="0.20592">
        <ele>1279.4</ele>
        <time>2023-11-19T12:15:58Z</time>
      </trkpt>
      <trkpt lat="43.01859" lon="0.20591">
        <ele>1279.4</ele>
        <time>2023-11-19T12:15:59Z</time>
      </trkpt>
      <trkpt lat="43.01859" lon="0.2059">
        <ele>1279.3</ele>
        <time>2023-11-19T12:16:00Z</time>
      </trkpt>
      <trkpt lat="43.01857" lon="0.20587">
        <ele>1279.2</ele>
        <time>2023-11-19T12:16:01Z</time>
      </trkpt>
      <trkpt lat="43.01857" lon="0.20587">
        <ele>1279.2</ele>
        <time>2023-11-19T12:16:02Z</time>
      </trkpt>
      <trkpt lat="43.01856" lon="0.20586">
        <ele>1279.1</ele>
        <time>2023-11-19T12:16:03Z</time>
      </trkpt>
      <trkpt lat="43.01856" lon="0.20585">
        <ele>1279.1</ele>
        <time>2023-11-19T12:16:04Z</time>
      </trkpt>
      <trkpt lat="43.01855" lon="0.20583">
        <ele>1279</ele>
        <time>2023-11-19T12:16:05Z</time>
      </trkpt>
      <trkpt lat="43.01854" lon="0.20583">
        <ele>1279</ele>
        <time>2023-11-19T12:16:06Z</time>
      </trkpt>
      <trkpt lat="43.01853" lon="0.2058">
        <ele>1278.9</ele>
        <time>2023-11-19T12:16:07Z</time>
      </trkpt>
      <trkpt lat="43.01853" lon="0.2058">
        <ele>1278.9</ele>
        <time>2023-11-19T12:16:08Z</time>
      </trkpt>
      <trkpt lat="43.01853" lon="0.20579">
        <ele>1278.8</ele>
        <time>2023-11-19T12:16:09Z</time>
      </trkpt>
      <trkpt lat="43.01852" lon="0.20578">
        <ele>1278.8</ele>
        <time>2023-11-19T12:16:10Z</time>
      </trkpt>
      <trkpt lat="43.01851" lon="0.20576">
        <ele>1278.7</ele>
        <time>2023-11-19T12:16:11Z</time>
      </trkpt>
      <trkpt lat="43.0185" lon="0.20576">
        <ele>1278.7</ele>
        <time>2023-11-19T12:16:12Z</time>
      </trkpt>
      <trkpt lat="43.01849" lon="0.20575">
        <ele>1278.6</ele>
        <time>2023-11-19T12:16:13Z</time>
      </trkpt>
      <trkpt lat="43.01849" lon="0.20575">
        <ele>1278.6</ele>
        <time>2023-11-19T12:16:14Z</time>
      </trkpt>
      <trkpt lat="43.01848" lon="0.20574">
        <ele>1278.5</ele>
        <time>2023-11-19T12:16:15Z</time>
      </trkpt>
      <trkpt lat="43.01847" lon="0.20573">
        <ele>1278.5</ele>
        <time>2023-11-19T12:16:16Z</time>
      </trkpt>
      <trkpt lat="43.01846" lon="0.20573">
        <ele>1278.4</ele>
        <time>2023-11-19T12:16:17Z</time>
      </trkpt>
      <trkpt lat="43.01845" lon="0.20572">
        <ele>1278.4</ele>
        <time>2023-11-19T12:16:18Z</time>
      </trkpt>
      <trkpt lat="43.01844" lon="0.20572">
        <ele>1278.3</ele>
        <time>2023-11-19T12:16:19Z</time>
      </trkpt>
      <trkpt lat="43.01843" lon="0.20571">
        <ele>1278.3</ele>
        <time>2023-11-19T12:16:20Z</time>
      </trkpt>
      <trkpt lat="43.01843" lon="0.2057">
        <ele>1278.2</ele>
        <time>2023-11-19T12:16:21Z</time>
      </trkpt>
      <trkpt lat="43.01842" lon="0.20568">
        <ele>1278.2</ele>
        <time>2023-11-19T12:16:22Z</time>
      </trkpt>
      <trkpt lat="43.01841" lon="0.20567">
        <ele>1278.1</ele>
        <time>2023-11-19T12:16:23Z</time>
      </trkpt>
      <trkpt lat="43.0184" lon="0.20566">
        <ele>1278.1</ele>
        <time>2023-11-19T12:16:24Z</time>
      </trkpt>
      <trkpt lat="43.01839" lon="0.20566">
        <ele>1278.1</ele>
        <time>2023-11-19T12:16:25Z</time>
      </trkpt>
      <trkpt lat="43.01838" lon="0.20565">
        <ele>1278</ele>
        <time>2023-11-19T12:16:26Z</time>
      </trkpt>
      <trkpt lat="43.01838" lon="0.20564">
        <ele>1278</ele>
        <time>2023-11-19T12:16:27Z</time>
      </trkpt>
      <trkpt lat="43.01837" lon="0.20563">
        <ele>1277.9</ele>
        <time>2023-11-19T12:16:28Z</time>
      </trkpt>
      <trkpt lat="43.01835" lon="0.20563">
        <ele>1277.9</ele>
        <time>2023-11-19T12:16:29Z</time>
      </trkpt>
      <trkpt lat="43.01834" lon="0.20562">
        <ele>1277.8</ele>
        <time>2023-11-19T12:16:30Z</time>
      </trkpt>
      <trkpt lat="43.01833" lon="0.20562">
        <ele>1277.8</ele>
        <time>2023-11-19T12:16:31Z</time>
      </trkpt>
      <trkpt lat="43.01832" lon="0.20561">
        <ele>1277.8</ele>
        <time>2023-11-19T12:16:32Z</time>
      </trkpt>
      <trkpt lat="43.01832" lon="0.2056">
        <ele>1277.8</ele>
        <time>2023-11-19T12:16:33Z</time>
      </trkpt>
      <trkpt lat="43.01831" lon="0.20559">
        <ele>1277.7</ele>
        <time>2023-11-19T12:16:34Z</time>
      </trkpt>
      <trkpt lat="43.0183" lon="0.20559">
        <ele>1277.7</ele>
        <time>2023-11-19T12:16:35Z</time>
      </trkpt>
      <trkpt lat="43.01829" lon="0.20559">
        <ele>1277.7</ele>
        <time>2023-11-19T12:16:36Z</time>
      </trkpt>
      <trkpt lat="43.01828" lon="0.20558">
        <ele>1277.7</ele>
        <time>2023-11-19T12:16:37Z</time>
      </trkpt>
      <trkpt lat="43.01826" lon="0.20558">
        <ele>1277.6</ele>
        <time>2023-11-19T12:16:38Z</time>
      </trkpt>
      <trkpt lat="43.01825" lon="0.20558">
        <ele>1277.6</ele>
        <time>2023-11-19T12:16:39Z</time>
      </trkpt>
      <trkpt lat="43.01824" lon="0.20558">
        <ele>1277.6</ele>
        <time>2023-11-19T12:16:40Z</time>
      </trkpt>
      <trkpt lat="43.01824" lon="0.20557">
        <ele>1277.6</ele>
        <time>2023-11-19T12:16:41Z</time>
      </trkpt>
      <trkpt lat="43.01822" lon="0.20556">
        <ele>1277.6</ele>
        <time>2023-11-19T12:16:42Z</time>
      </trkpt>
      <trkpt lat="43.01821" lon="0.20556">
        <ele>1277.5</ele>
        <time>2023-11-19T12:16:43Z</time>
      </trkpt>
      <trkpt lat="43.01819" lon="0.20556">
        <ele>1277.5</ele>
        <time>2023-11-19T12:16:44Z</time>
      </trkpt>
      <trkpt lat="43.01818" lon="0.20556">
        <ele>1277.5</ele>
        <time>2023-11-19T12:16:45Z</time>
      </trkpt>
      <trkpt lat="43.01817" lon="0.20556">
        <ele>1277.5</ele>
        <time>2023-11-19T12:16:46Z</time>
      </trkpt>
      <trkpt lat="43.01816" lon="0.20555">
        <ele>1277.5</ele>
        <time>2023-11-19T12:16:47Z</time>
      </trkpt>
      <trkpt lat="43.01816" lon="0.20555">
        <ele>1277.5</ele>
        <time>2023-11-19T12:16:48Z</time>
      </trkpt>
      <trkpt lat="43.01816" lon="0.20556">
        <ele>1277.5</ele>
        <time>2023-11-19T12:16:49Z</time>
      </trkpt>
      <trkpt lat="43.01815" lon="0.20556">
        <ele>1277.5</ele>
        <time>2023-11-19T12:16:50Z</time>
      </trkpt>
      <trkpt lat="43.01815" lon="0.20556">
        <ele>1277.5</ele>
        <time>2023-11-19T12:16:51Z</time>
      </trkpt>
      <trkpt lat="43.01815" lon="0.20556">
        <ele>1277.5</ele>
        <time>2023-11-19T12:16:52Z</time>
      </trkpt>
      <trkpt lat="43.01815" lon="0.20556">
        <ele>1277.5</ele>
        <time>2023-11-19T12:16:53Z</time>
      </trkpt>
      <trkpt lat="43.01815" lon="0.20556">
        <ele>1277.5</ele>
        <time>2023-11-19T12:16:54Z</time>
      </trkpt>
      <trkpt lat="43.01814" lon="0.20556">
        <ele>1277.5</ele>
        <time>2023-11-19T12:16:55Z</time>
      </trkpt>
      <trkpt lat="43.01814" lon="0.20556">
        <ele>1277.5</ele>
        <time>2023-11-19T12:16:56Z</time>
      </trkpt>
      <trkpt lat="43.01814" lon="0.20557">
        <ele>1277.5</ele>
        <time>2023-11-19T12:16:57Z</time>
      </trkpt>
      <trkpt lat="43.01814" lon="0.20557">
        <ele>1277.5</ele>
        <time>2023-11-19T12:16:58Z</time>
      </trkpt>
      <trkpt lat="43.01813" lon="0.20557">
        <ele>1277.5</ele>
        <time>2023-11-19T12:16:59Z</time>
      </trkpt>
      <trkpt lat="43.01813" lon="0.20557">
        <ele>1277.5</ele>
        <time>2023-11-19T12:17:00Z</time>
      </trkpt>
      <trkpt lat="43.01812" lon="0.20557">
        <ele>1277.5</ele>
        <time>2023-11-19T12:17:01Z</time>
      </trkpt>
      <trkpt lat="43.0181" lon="0.2056">
        <ele>1277.5</ele>
        <time>2023-11-19T12:17:02Z</time>
      </trkpt>
      <trkpt lat="43.01808" lon="0.2056">
        <ele>1277.5</ele>
        <time>2023-11-19T12:17:03Z</time>
      </trkpt>
      <trkpt lat="43.01807" lon="0.2056">
        <ele>1277.5</ele>
        <time>2023-11-19T12:17:04Z</time>
      </trkpt>
      <trkpt lat="43.01806" lon="0.2056">
        <ele>1277.5</ele>
        <time>2023-11-19T12:17:05Z</time>
      </trkpt>
      <trkpt lat="43.01804" lon="0.2056">
        <ele>1277.5</ele>
        <time>2023-11-19T12:17:06Z</time>
      </trkpt>
      <trkpt lat="43.01803" lon="0.2056">
        <ele>1277.5</ele>
        <time>2023-11-19T12:17:07Z</time>
      </trkpt>
      <trkpt lat="43.01801" lon="0.20561">
        <ele>1277.5</ele>
        <time>2023-11-19T12:17:08Z</time>
      </trkpt>
      <trkpt lat="43.018" lon="0.20561">
        <ele>1277.5</ele>
        <time>2023-11-19T12:17:09Z</time>
      </trkpt>
      <trkpt lat="43.01799" lon="0.20562">
        <ele>1277.5</ele>
        <time>2023-11-19T12:17:10Z</time>
      </trkpt>
      <trkpt lat="43.01798" lon="0.20564">
        <ele>1277.5</ele>
        <time>2023-11-19T12:17:11Z</time>
      </trkpt>
      <trkpt lat="43.01797" lon="0.20564">
        <ele>1277.5</ele>
        <time>2023-11-19T12:17:12Z</time>
      </trkpt>
      <trkpt lat="43.01796" lon="0.20565">
        <ele>1277.5</ele>
        <time>2023-11-19T12:17:13Z</time>
      </trkpt>
      <trkpt lat="43.01795" lon="0.20566">
        <ele>1277.5</ele>
        <time>2023-11-19T12:17:14Z</time>
      </trkpt>
      <trkpt lat="43.01794" lon="0.20567">
        <ele>1277.5</ele>
        <time>2023-11-19T12:17:15Z</time>
      </trkpt>
      <trkpt lat="43.01793" lon="0.20568">
        <ele>1277.5</ele>
        <time>2023-11-19T12:17:16Z</time>
      </trkpt>
      <trkpt lat="43.01792" lon="0.2057">
        <ele>1277.5</ele>
        <time>2023-11-19T12:17:17Z</time>
      </trkpt>
      <trkpt lat="43.01791" lon="0.20571">
        <ele>1277.5</ele>
        <time>2023-11-19T12:17:18Z</time>
      </trkpt>
      <trkpt lat="43.01789" lon="0.20572">
        <ele>1277.5</ele>
        <time>2023-11-19T12:17:19Z</time>
      </trkpt>
      <trkpt lat="43.01788" lon="0.20574">
        <ele>1277.4</ele>
        <time>2023-11-19T12:17:20Z</time>
      </trkpt>
      <trkpt lat="43.01787" lon="0.20575">
        <ele>1277.4</ele>
        <time>2023-11-19T12:17:21Z</time>
      </trkpt>
      <trkpt lat="43.01787" lon="0.20576">
        <ele>1277.4</ele>
        <time>2023-11-19T12:17:22Z</time>
      </trkpt>
      <trkpt lat="43.01786" lon="0.20578">
        <ele>1277.4</ele>
        <time>2023-11-19T12:17:23Z</time>
      </trkpt>
      <trkpt lat="43.01785" lon="0.20579">
        <ele>1277.4</ele>
        <time>2023-11-19T12:17:24Z</time>
      </trkpt>
      <trkpt lat="43.01784" lon="0.20581">
        <ele>1277.4</ele>
        <time>2023-11-19T12:17:25Z</time>
      </trkpt>
      <trkpt lat="43.01783" lon="0.20582">
        <ele>1277.4</ele>
        <time>2023-11-19T12:17:26Z</time>
      </trkpt>
      <trkpt lat="43.01783" lon="0.20584">
        <ele>1277.4</ele>
        <time>2023-11-19T12:17:27Z</time>
      </trkpt>
      <trkpt lat="43.01781" lon="0.20586">
        <ele>1277.3</ele>
        <time>2023-11-19T12:17:28Z</time>
      </trkpt>
      <trkpt lat="43.0178" lon="0.20588">
        <ele>1277.3</ele>
        <time>2023-11-19T12:17:29Z</time>
      </trkpt>
      <trkpt lat="43.01779" lon="0.20589">
        <ele>1277.3</ele>
        <time>2023-11-19T12:17:30Z</time>
      </trkpt>
      <trkpt lat="43.01779" lon="0.2059">
        <ele>1277.2</ele>
        <time>2023-11-19T12:17:31Z</time>
      </trkpt>
      <trkpt lat="43.01778" lon="0.20591">
        <ele>1277.2</ele>
        <time>2023-11-19T12:17:32Z</time>
      </trkpt>
      <trkpt lat="43.01777" lon="0.20592">
        <ele>1277.2</ele>
        <time>2023-11-19T12:17:33Z</time>
      </trkpt>
      <trkpt lat="43.01776" lon="0.20594">
        <ele>1277.1</ele>
        <time>2023-11-19T12:17:34Z</time>
      </trkpt>
      <trkpt lat="43.01775" lon="0.20596">
        <ele>1277.1</ele>
        <time>2023-11-19T12:17:35Z</time>
      </trkpt>
      <trkpt lat="43.01775" lon="0.20598">
        <ele>1277</ele>
        <time>2023-11-19T12:17:36Z</time>
      </trkpt>
      <trkpt lat="43.01774" lon="0.20599">
        <ele>1277</ele>
        <time>2023-11-19T12:17:37Z</time>
      </trkpt>
      <trkpt lat="43.01773" lon="0.206">
        <ele>1277</ele>
        <time>2023-11-19T12:17:38Z</time>
      </trkpt>
      <trkpt lat="43.01772" lon="0.20602">
        <ele>1276.9</ele>
        <time>2023-11-19T12:17:39Z</time>
      </trkpt>
      <trkpt lat="43.01771" lon="0.20604">
        <ele>1276.9</ele>
        <time>2023-11-19T12:17:40Z</time>
      </trkpt>
      <trkpt lat="43.0177" lon="0.20605">
        <ele>1276.8</ele>
        <time>2023-11-19T12:17:41Z</time>
      </trkpt>
      <trkpt lat="43.01769" lon="0.20606">
        <ele>1276.8</ele>
        <time>2023-11-19T12:17:42Z</time>
      </trkpt>
      <trkpt lat="43.01768" lon="0.20607">
        <ele>1276.7</ele>
        <time>2023-11-19T12:17:43Z</time>
      </trkpt>
      <trkpt lat="43.01767" lon="0.20609">
        <ele>1276.7</ele>
        <time>2023-11-19T12:17:44Z</time>
      </trkpt>
      <trkpt lat="43.01768" lon="0.20612">
        <ele>1276.6</ele>
        <time>2023-11-19T12:17:45Z</time>
      </trkpt>
      <trkpt lat="43.01767" lon="0.20613">
        <ele>1276.6</ele>
        <time>2023-11-19T12:17:46Z</time>
      </trkpt>
      <trkpt lat="43.01765" lon="0.20614">
        <ele>1276.6</ele>
        <time>2023-11-19T12:17:47Z</time>
      </trkpt>
      <trkpt lat="43.01764" lon="0.20615">
        <ele>1276.5</ele>
        <time>2023-11-19T12:17:48Z</time>
      </trkpt>
      <trkpt lat="43.01764" lon="0.20617">
        <ele>1276.5</ele>
        <time>2023-11-19T12:17:49Z</time>
      </trkpt>
      <trkpt lat="43.01763" lon="0.20618">
        <ele>1276.5</ele>
        <time>2023-11-19T12:17:50Z</time>
      </trkpt>
      <trkpt lat="43.01762" lon="0.2062">
        <ele>1276.4</ele>
        <time>2023-11-19T12:17:51Z</time>
      </trkpt>
      <trkpt lat="43.0176" lon="0.20622">
        <ele>1276.4</ele>
        <time>2023-11-19T12:17:52Z</time>
      </trkpt>
      <trkpt lat="43.01759" lon="0.20623">
        <ele>1276.4</ele>
        <time>2023-11-19T12:17:53Z</time>
      </trkpt>
      <trkpt lat="43.01759" lon="0.20623">
        <ele>1276.4</ele>
        <time>2023-11-19T12:17:54Z</time>
      </trkpt>
      <trkpt lat="43.01758" lon="0.20625">
        <ele>1276.4</ele>
        <time>2023-11-19T12:17:55Z</time>
      </trkpt>
      <trkpt lat="43.01757" lon="0.20625">
        <ele>1276.4</ele>
        <time>2023-11-19T12:17:56Z</time>
      </trkpt>
      <trkpt lat="43.01755" lon="0.20627">
        <ele>1276.4</ele>
        <time>2023-11-19T12:17:57Z</time>
      </trkpt>
      <trkpt lat="43.01754" lon="0.20628">
        <ele>1276.4</ele>
        <time>2023-11-19T12:17:58Z</time>
      </trkpt>
      <trkpt lat="43.01754" lon="0.2063">
        <ele>1276.4</ele>
        <time>2023-11-19T12:17:59Z</time>
      </trkpt>
      <trkpt lat="43.01753" lon="0.20632">
        <ele>1276.4</ele>
        <time>2023-11-19T12:18:00Z</time>
      </trkpt>
      <trkpt lat="43.01752" lon="0.20633">
        <ele>1276.4</ele>
        <time>2023-11-19T12:18:01Z</time>
      </trkpt>
      <trkpt lat="43.01751" lon="0.20635">
        <ele>1276.4</ele>
        <time>2023-11-19T12:18:02Z</time>
      </trkpt>
      <trkpt lat="43.01751" lon="0.20636">
        <ele>1276.4</ele>
        <time>2023-11-19T12:18:03Z</time>
      </trkpt>
      <trkpt lat="43.0175" lon="0.20638">
        <ele>1276.4</ele>
        <time>2023-11-19T12:18:04Z</time>
      </trkpt>
      <trkpt lat="43.0175" lon="0.2064">
        <ele>1276.5</ele>
        <time>2023-11-19T12:18:05Z</time>
      </trkpt>
      <trkpt lat="43.0175" lon="0.20642">
        <ele>1276.5</ele>
        <time>2023-11-19T12:18:06Z</time>
      </trkpt>
      <trkpt lat="43.01749" lon="0.20645">
        <ele>1276.5</ele>
        <time>2023-11-19T12:18:07Z</time>
      </trkpt>
      <trkpt lat="43.01748" lon="0.20646">
        <ele>1276.5</ele>
        <time>2023-11-19T12:18:08Z</time>
      </trkpt>
      <trkpt lat="43.01748" lon="0.20647">
        <ele>1276.6</ele>
        <time>2023-11-19T12:18:09Z</time>
      </trkpt>
      <trkpt lat="43.01747" lon="0.2065">
        <ele>1276.6</ele>
        <time>2023-11-19T12:18:10Z</time>
      </trkpt>
      <trkpt lat="43.01747" lon="0.20651">
        <ele>1276.6</ele>
        <time>2023-11-19T12:18:11Z</time>
      </trkpt>
      <trkpt lat="43.01746" lon="0.20652">
        <ele>1276.7</ele>
        <time>2023-11-19T12:18:12Z</time>
      </trkpt>
      <trkpt lat="43.01746" lon="0.20654">
        <ele>1276.7</ele>
        <time>2023-11-19T12:18:13Z</time>
      </trkpt>
      <trkpt lat="43.01746" lon="0.20656">
        <ele>1276.7</ele>
        <time>2023-11-19T12:18:14Z</time>
      </trkpt>
      <trkpt lat="43.01746" lon="0.20658">
        <ele>1276.8</ele>
        <time>2023-11-19T12:18:15Z</time>
      </trkpt>
      <trkpt lat="43.01746" lon="0.2066">
        <ele>1276.8</ele>
        <time>2023-11-19T12:18:16Z</time>
      </trkpt>
      <trkpt lat="43.01746" lon="0.20662">
        <ele>1276.9</ele>
        <time>2023-11-19T12:18:17Z</time>
      </trkpt>
      <trkpt lat="43.01745" lon="0.20664">
        <ele>1276.9</ele>
        <time>2023-11-19T12:18:18Z</time>
      </trkpt>
      <trkpt lat="43.01745" lon="0.20666">
        <ele>1277</ele>
        <time>2023-11-19T12:18:19Z</time>
      </trkpt>
      <trkpt lat="43.01744" lon="0.20668">
        <ele>1277.1</ele>
        <time>2023-11-19T12:18:20Z</time>
      </trkpt>
      <trkpt lat="43.01744" lon="0.2067">
        <ele>1277.1</ele>
        <time>2023-11-19T12:18:21Z</time>
      </trkpt>
      <trkpt lat="43.01743" lon="0.20672">
        <ele>1277.2</ele>
        <time>2023-11-19T12:18:22Z</time>
      </trkpt>
      <trkpt lat="43.01742" lon="0.20673">
        <ele>1277.3</ele>
        <time>2023-11-19T12:18:23Z</time>
      </trkpt>
      <trkpt lat="43.01741" lon="0.20675">
        <ele>1277.3</ele>
        <time>2023-11-19T12:18:24Z</time>
      </trkpt>
      <trkpt lat="43.01741" lon="0.20676">
        <ele>1277.4</ele>
        <time>2023-11-19T12:18:25Z</time>
      </trkpt>
      <trkpt lat="43.0174" lon="0.20678">
        <ele>1277.4</ele>
        <time>2023-11-19T12:18:26Z</time>
      </trkpt>
      <trkpt lat="43.0174" lon="0.2068">
        <ele>1277.5</ele>
        <time>2023-11-19T12:18:27Z</time>
      </trkpt>
      <trkpt lat="43.01739" lon="0.20681">
        <ele>1277.6</ele>
        <time>2023-11-19T12:18:28Z</time>
      </trkpt>
      <trkpt lat="43.01737" lon="0.20683">
        <ele>1277.7</ele>
        <time>2023-11-19T12:18:29Z</time>
      </trkpt>
      <trkpt lat="43.01737" lon="0.20684">
        <ele>1277.7</ele>
        <time>2023-11-19T12:18:30Z</time>
      </trkpt>
      <trkpt lat="43.01736" lon="0.20685">
        <ele>1277.8</ele>
        <time>2023-11-19T12:18:31Z</time>
      </trkpt>
      <trkpt lat="43.01736" lon="0.20686">
        <ele>1277.9</ele>
        <time>2023-11-19T12:18:32Z</time>
      </trkpt>
      <trkpt lat="43.01734" lon="0.20687">
        <ele>1277.9</ele>
        <time>2023-11-19T12:18:33Z</time>
      </trkpt>
      <trkpt lat="43.01734" lon="0.20688">
        <ele>1278</ele>
        <time>2023-11-19T12:18:34Z</time>
      </trkpt>
      <trkpt lat="43.01733" lon="0.20689">
        <ele>1278</ele>
        <time>2023-11-19T12:18:35Z</time>
      </trkpt>
      <trkpt lat="43.01732" lon="0.2069">
        <ele>1278.1</ele>
        <time>2023-11-19T12:18:36Z</time>
      </trkpt>
      <trkpt lat="43.01731" lon="0.20691">
        <ele>1278.1</ele>
        <time>2023-11-19T12:18:37Z</time>
      </trkpt>
      <trkpt lat="43.0173" lon="0.20693">
        <ele>1278.2</ele>
        <time>2023-11-19T12:18:38Z</time>
      </trkpt>
      <trkpt lat="43.0173" lon="0.20695">
        <ele>1278.3</ele>
        <time>2023-11-19T12:18:39Z</time>
      </trkpt>
      <trkpt lat="43.0173" lon="0.20696">
        <ele>1278.3</ele>
        <time>2023-11-19T12:18:40Z</time>
      </trkpt>
      <trkpt lat="43.01729" lon="0.20699">
        <ele>1278.4</ele>
        <time>2023-11-19T12:18:41Z</time>
      </trkpt>
      <trkpt lat="43.01729" lon="0.207">
        <ele>1278.5</ele>
        <time>2023-11-19T12:18:42Z</time>
      </trkpt>
      <trkpt lat="43.01729" lon="0.20701">
        <ele>1278.5</ele>
        <time>2023-11-19T12:18:43Z</time>
      </trkpt>
      <trkpt lat="43.01729" lon="0.20703">
        <ele>1278.6</ele>
        <time>2023-11-19T12:18:44Z</time>
      </trkpt>
      <trkpt lat="43.01728" lon="0.20705">
        <ele>1278.6</ele>
        <time>2023-11-19T12:18:45Z</time>
      </trkpt>
      <trkpt lat="43.01728" lon="0.20707">
        <ele>1278.7</ele>
        <time>2023-11-19T12:18:46Z</time>
      </trkpt>
      <trkpt lat="43.01728" lon="0.20708">
        <ele>1278.8</ele>
        <time>2023-11-19T12:18:47Z</time>
      </trkpt>
      <trkpt lat="43.01727" lon="0.2071">
        <ele>1278.8</ele>
        <time>2023-11-19T12:18:48Z</time>
      </trkpt>
      <trkpt lat="43.01727" lon="0.20711">
        <ele>1278.9</ele>
        <time>2023-11-19T12:18:49Z</time>
      </trkpt>
      <trkpt lat="43.01726" lon="0.20713">
        <ele>1278.9</ele>
        <time>2023-11-19T12:18:50Z</time>
      </trkpt>
      <trkpt lat="43.01726" lon="0.20715">
        <ele>1279</ele>
        <time>2023-11-19T12:18:51Z</time>
      </trkpt>
      <trkpt lat="43.01726" lon="0.20716">
        <ele>1279</ele>
        <time>2023-11-19T12:18:52Z</time>
      </trkpt>
      <trkpt lat="43.01725" lon="0.20718">
        <ele>1279</ele>
        <time>2023-11-19T12:18:53Z</time>
      </trkpt>
      <trkpt lat="43.01724" lon="0.20719">
        <ele>1279.1</ele>
        <time>2023-11-19T12:18:54Z</time>
      </trkpt>
      <trkpt lat="43.01724" lon="0.2072">
        <ele>1279.1</ele>
        <time>2023-11-19T12:18:55Z</time>
      </trkpt>
      <trkpt lat="43.01723" lon="0.20722">
        <ele>1279.2</ele>
        <time>2023-11-19T12:18:56Z</time>
      </trkpt>
      <trkpt lat="43.01723" lon="0.20723">
        <ele>1279.2</ele>
        <time>2023-11-19T12:18:57Z</time>
      </trkpt>
      <trkpt lat="43.01721" lon="0.20724">
        <ele>1279.2</ele>
        <time>2023-11-19T12:18:58Z</time>
      </trkpt>
      <trkpt lat="43.01721" lon="0.20725">
        <ele>1279.3</ele>
        <time>2023-11-19T12:18:59Z</time>
      </trkpt>
      <trkpt lat="43.0172" lon="0.20726">
        <ele>1279.2</ele>
        <time>2023-11-19T12:19:00Z</time>
      </trkpt>
      <trkpt lat="43.0172" lon="0.20728">
        <ele>1279.2</ele>
        <time>2023-11-19T12:19:01Z</time>
      </trkpt>
      <trkpt lat="43.01721" lon="0.2073">
        <ele>1279.1</ele>
        <time>2023-11-19T12:19:02Z</time>
      </trkpt>
      <trkpt lat="43.0172" lon="0.20732">
        <ele>1279.1</ele>
        <time>2023-11-19T12:19:03Z</time>
      </trkpt>
      <trkpt lat="43.01719" lon="0.20735">
        <ele>1279</ele>
        <time>2023-11-19T12:19:04Z</time>
      </trkpt>
      <trkpt lat="43.01719" lon="0.20736">
        <ele>1279</ele>
        <time>2023-11-19T12:19:05Z</time>
      </trkpt>
      <trkpt lat="43.01719" lon="0.20737">
        <ele>1279</ele>
        <time>2023-11-19T12:19:06Z</time>
      </trkpt>
      <trkpt lat="43.01718" lon="0.2074">
        <ele>1278.9</ele>
        <time>2023-11-19T12:19:07Z</time>
      </trkpt>
      <trkpt lat="43.01717" lon="0.20741">
        <ele>1278.9</ele>
        <time>2023-11-19T12:19:08Z</time>
      </trkpt>
      <trkpt lat="43.01717" lon="0.20742">
        <ele>1278.9</ele>
        <time>2023-11-19T12:19:09Z</time>
      </trkpt>
      <trkpt lat="43.01718" lon="0.20744">
        <ele>1278.8</ele>
        <time>2023-11-19T12:19:10Z</time>
      </trkpt>
      <trkpt lat="43.01718" lon="0.20745">
        <ele>1278.8</ele>
        <time>2023-11-19T12:19:11Z</time>
      </trkpt>
      <trkpt lat="43.01717" lon="0.20747">
        <ele>1278.8</ele>
        <time>2023-11-19T12:19:12Z</time>
      </trkpt>
      <trkpt lat="43.01716" lon="0.20748">
        <ele>1278.8</ele>
        <time>2023-11-19T12:19:13Z</time>
      </trkpt>
      <trkpt lat="43.01715" lon="0.20751">
        <ele>1278.8</ele>
        <time>2023-11-19T12:19:14Z</time>
      </trkpt>
      <trkpt lat="43.01714" lon="0.20752">
        <ele>1278.8</ele>
        <time>2023-11-19T12:19:15Z</time>
      </trkpt>
      <trkpt lat="43.01714" lon="0.20754">
        <ele>1278.8</ele>
        <time>2023-11-19T12:19:16Z</time>
      </trkpt>
      <trkpt lat="43.01713" lon="0.20756">
        <ele>1278.8</ele>
        <time>2023-11-19T12:19:17Z</time>
      </trkpt>
      <trkpt lat="43.01713" lon="0.20757">
        <ele>1278.8</ele>
        <time>2023-11-19T12:19:18Z</time>
      </trkpt>
      <trkpt lat="43.01713" lon="0.20759">
        <ele>1278.9</ele>
        <time>2023-11-19T12:19:19Z</time>
      </trkpt>
      <trkpt lat="43.01713" lon="0.2076">
        <ele>1278.9</ele>
        <time>2023-11-19T12:19:20Z</time>
      </trkpt>
      <trkpt lat="43.01712" lon="0.20762">
        <ele>1279</ele>
        <time>2023-11-19T12:19:21Z</time>
      </trkpt>
      <trkpt lat="43.01712" lon="0.20766">
        <ele>1279.1</ele>
        <time>2023-11-19T12:19:22Z</time>
      </trkpt>
      <trkpt lat="43.01712" lon="0.20767">
        <ele>1279.1</ele>
        <time>2023-11-19T12:19:23Z</time>
      </trkpt>
      <trkpt lat="43.01712" lon="0.20769">
        <ele>1279.2</ele>
        <time>2023-11-19T12:19:24Z</time>
      </trkpt>
      <trkpt lat="43.01711" lon="0.2077">
        <ele>1279.2</ele>
        <time>2023-11-19T12:19:25Z</time>
      </trkpt>
      <trkpt lat="43.01711" lon="0.2077">
        <ele>1279.3</ele>
        <time>2023-11-19T12:19:26Z</time>
      </trkpt>
      <trkpt lat="43.01711" lon="0.20772">
        <ele>1279.4</ele>
        <time>2023-11-19T12:19:27Z</time>
      </trkpt>
      <trkpt lat="43.0171" lon="0.20773">
        <ele>1279.5</ele>
        <time>2023-11-19T12:19:28Z</time>
      </trkpt>
      <trkpt lat="43.0171" lon="0.20774">
        <ele>1279.6</ele>
        <time>2023-11-19T12:19:29Z</time>
      </trkpt>
      <trkpt lat="43.0171" lon="0.20775">
        <ele>1279.8</ele>
        <time>2023-11-19T12:19:30Z</time>
      </trkpt>
      <trkpt lat="43.01709" lon="0.20777">
        <ele>1280</ele>
        <time>2023-11-19T12:19:31Z</time>
      </trkpt>
      <trkpt lat="43.01708" lon="0.20778">
        <ele>1280.1</ele>
        <time>2023-11-19T12:19:32Z</time>
      </trkpt>
      <trkpt lat="43.01708" lon="0.20779">
        <ele>1280.2</ele>
        <time>2023-11-19T12:19:33Z</time>
      </trkpt>
      <trkpt lat="43.01708" lon="0.2078">
        <ele>1280.3</ele>
        <time>2023-11-19T12:19:34Z</time>
      </trkpt>
      <trkpt lat="43.01707" lon="0.20781">
        <ele>1280.4</ele>
        <time>2023-11-19T12:19:35Z</time>
      </trkpt>
      <trkpt lat="43.01707" lon="0.20782">
        <ele>1280.5</ele>
        <time>2023-11-19T12:19:36Z</time>
      </trkpt>
      <trkpt lat="43.01706" lon="0.20784">
        <ele>1280.7</ele>
        <time>2023-11-19T12:19:37Z</time>
      </trkpt>
      <trkpt lat="43.01706" lon="0.20785">
        <ele>1280.8</ele>
        <time>2023-11-19T12:19:38Z</time>
      </trkpt>
      <trkpt lat="43.01706" lon="0.20786">
        <ele>1280.9</ele>
        <time>2023-11-19T12:19:39Z</time>
      </trkpt>
      <trkpt lat="43.01705" lon="0.20788">
        <ele>1281.1</ele>
        <time>2023-11-19T12:19:40Z</time>
      </trkpt>
      <trkpt lat="43.01705" lon="0.20789">
        <ele>1281.2</ele>
        <time>2023-11-19T12:19:41Z</time>
      </trkpt>
      <trkpt lat="43.01704" lon="0.20789">
        <ele>1281.3</ele>
        <time>2023-11-19T12:19:42Z</time>
      </trkpt>
      <trkpt lat="43.01704" lon="0.2079">
        <ele>1281.3</ele>
        <time>2023-11-19T12:19:43Z</time>
      </trkpt>
      <trkpt lat="43.01704" lon="0.20791">
        <ele>1281.5</ele>
        <time>2023-11-19T12:19:44Z</time>
      </trkpt>
      <trkpt lat="43.01703" lon="0.20793">
        <ele>1281.6</ele>
        <time>2023-11-19T12:19:45Z</time>
      </trkpt>
      <trkpt lat="43.01703" lon="0.20794">
        <ele>1281.7</ele>
        <time>2023-11-19T12:19:46Z</time>
      </trkpt>
      <trkpt lat="43.01703" lon="0.20795">
        <ele>1281.8</ele>
        <time>2023-11-19T12:19:47Z</time>
      </trkpt>
      <trkpt lat="43.01702" lon="0.20796">
        <ele>1281.9</ele>
        <time>2023-11-19T12:19:48Z</time>
      </trkpt>
      <trkpt lat="43.01702" lon="0.20798">
        <ele>1282</ele>
        <time>2023-11-19T12:19:49Z</time>
      </trkpt>
      <trkpt lat="43.01701" lon="0.208">
        <ele>1282.2</ele>
        <time>2023-11-19T12:19:50Z</time>
      </trkpt>
      <trkpt lat="43.01701" lon="0.20801">
        <ele>1282.3</ele>
        <time>2023-11-19T12:19:51Z</time>
      </trkpt>
      <trkpt lat="43.017" lon="0.20802">
        <ele>1282.4</ele>
        <time>2023-11-19T12:19:52Z</time>
      </trkpt>
      <trkpt lat="43.017" lon="0.20804">
        <ele>1282.6</ele>
        <time>2023-11-19T12:19:53Z</time>
      </trkpt>
      <trkpt lat="43.01699" lon="0.20805">
        <ele>1282.7</ele>
        <time>2023-11-19T12:19:54Z</time>
      </trkpt>
      <trkpt lat="43.01699" lon="0.20806">
        <ele>1282.8</ele>
        <time>2023-11-19T12:19:55Z</time>
      </trkpt>
      <trkpt lat="43.01698" lon="0.20807">
        <ele>1282.9</ele>
        <time>2023-11-19T12:19:56Z</time>
      </trkpt>
      <trkpt lat="43.01698" lon="0.20808">
        <ele>1283</ele>
        <time>2023-11-19T12:19:57Z</time>
      </trkpt>
      <trkpt lat="43.01698" lon="0.20809">
        <ele>1283.1</ele>
        <time>2023-11-19T12:19:58Z</time>
      </trkpt>
      <trkpt lat="43.01698" lon="0.20811">
        <ele>1283.2</ele>
        <time>2023-11-19T12:19:59Z</time>
      </trkpt>
      <trkpt lat="43.01697" lon="0.20811">
        <ele>1283.3</ele>
        <time>2023-11-19T12:20:00Z</time>
      </trkpt>
      <trkpt lat="43.01697" lon="0.20812">
        <ele>1283.3</ele>
        <time>2023-11-19T12:20:01Z</time>
      </trkpt>
      <trkpt lat="43.01697" lon="0.20814">
        <ele>1283.5</ele>
        <time>2023-11-19T12:20:02Z</time>
      </trkpt>
      <trkpt lat="43.01697" lon="0.20815">
        <ele>1283.5</ele>
        <time>2023-11-19T12:20:03Z</time>
      </trkpt>
      <trkpt lat="43.01696" lon="0.20816">
        <ele>1283.7</ele>
        <time>2023-11-19T12:20:04Z</time>
      </trkpt>
      <trkpt lat="43.01695" lon="0.20818">
        <ele>1283.8</ele>
        <time>2023-11-19T12:20:05Z</time>
      </trkpt>
      <trkpt lat="43.01695" lon="0.20819">
        <ele>1283.9</ele>
        <time>2023-11-19T12:20:06Z</time>
      </trkpt>
      <trkpt lat="43.01694" lon="0.20819">
        <ele>1284</ele>
        <time>2023-11-19T12:20:07Z</time>
      </trkpt>
      <trkpt lat="43.01694" lon="0.2082">
        <ele>1284</ele>
        <time>2023-11-19T12:20:08Z</time>
      </trkpt>
      <trkpt lat="43.01693" lon="0.20821">
        <ele>1284.1</ele>
        <time>2023-11-19T12:20:09Z</time>
      </trkpt>
      <trkpt lat="43.01693" lon="0.20822">
        <ele>1284.2</ele>
        <time>2023-11-19T12:20:10Z</time>
      </trkpt>
      <trkpt lat="43.01693" lon="0.20824">
        <ele>1284.4</ele>
        <time>2023-11-19T12:20:11Z</time>
      </trkpt>
      <trkpt lat="43.01692" lon="0.20826">
        <ele>1284.5</ele>
        <time>2023-11-19T12:20:12Z</time>
      </trkpt>
      <trkpt lat="43.01691" lon="0.20826">
        <ele>1284.6</ele>
        <time>2023-11-19T12:20:13Z</time>
      </trkpt>
      <trkpt lat="43.01691" lon="0.20828">
        <ele>1284.7</ele>
        <time>2023-11-19T12:20:14Z</time>
      </trkpt>
      <trkpt lat="43.0169" lon="0.20828">
        <ele>1284.8</ele>
        <time>2023-11-19T12:20:15Z</time>
      </trkpt>
      <trkpt lat="43.0169" lon="0.2083">
        <ele>1284.9</ele>
        <time>2023-11-19T12:20:16Z</time>
      </trkpt>
      <trkpt lat="43.0169" lon="0.20831">
        <ele>1285</ele>
        <time>2023-11-19T12:20:17Z</time>
      </trkpt>
      <trkpt lat="43.0169" lon="0.20833">
        <ele>1285.2</ele>
        <time>2023-11-19T12:20:18Z</time>
      </trkpt>
      <trkpt lat="43.01689" lon="0.20834">
        <ele>1285.3</ele>
        <time>2023-11-19T12:20:19Z</time>
      </trkpt>
      <trkpt lat="43.01689" lon="0.20835">
        <ele>1285.4</ele>
        <time>2023-11-19T12:20:20Z</time>
      </trkpt>
      <trkpt lat="43.01688" lon="0.20836">
        <ele>1285.5</ele>
        <time>2023-11-19T12:20:21Z</time>
      </trkpt>
      <trkpt lat="43.01687" lon="0.20838">
        <ele>1285.6</ele>
        <time>2023-11-19T12:20:22Z</time>
      </trkpt>
      <trkpt lat="43.01687" lon="0.20839">
        <ele>1285.7</ele>
        <time>2023-11-19T12:20:23Z</time>
      </trkpt>
      <trkpt lat="43.01686" lon="0.20841">
        <ele>1285.9</ele>
        <time>2023-11-19T12:20:24Z</time>
      </trkpt>
      <trkpt lat="43.01686" lon="0.20841">
        <ele>1285.9</ele>
        <time>2023-11-19T12:20:25Z</time>
      </trkpt>
      <trkpt lat="43.01685" lon="0.20843">
        <ele>1286.1</ele>
        <time>2023-11-19T12:20:26Z</time>
      </trkpt>
      <trkpt lat="43.01684" lon="0.20845">
        <ele>1286.2</ele>
        <time>2023-11-19T12:20:27Z</time>
      </trkpt>
      <trkpt lat="43.01686" lon="0.20845">
        <ele>1286.4</ele>
        <time>2023-11-19T12:20:28Z</time>
      </trkpt>
      <trkpt lat="43.01686" lon="0.20846">
        <ele>1286.5</ele>
        <time>2023-11-19T12:20:29Z</time>
      </trkpt>
      <trkpt lat="43.01686" lon="0.20846">
        <ele>1286.5</ele>
        <time>2023-11-19T12:20:30Z</time>
      </trkpt>
      <trkpt lat="43.01686" lon="0.20847">
        <ele>1286.6</ele>
        <time>2023-11-19T12:20:31Z</time>
      </trkpt>
      <trkpt lat="43.01686" lon="0.2085">
        <ele>1286.8</ele>
        <time>2023-11-19T12:20:32Z</time>
      </trkpt>
      <trkpt lat="43.01685" lon="0.20851">
        <ele>1286.9</ele>
        <time>2023-11-19T12:20:33Z</time>
      </trkpt>
      <trkpt lat="43.01685" lon="0.20852">
        <ele>1287</ele>
        <time>2023-11-19T12:20:34Z</time>
      </trkpt>
      <trkpt lat="43.01685" lon="0.20853">
        <ele>1287</ele>
        <time>2023-11-19T12:20:35Z</time>
      </trkpt>
      <trkpt lat="43.01685" lon="0.20854">
        <ele>1287.2</ele>
        <time>2023-11-19T12:20:36Z</time>
      </trkpt>
      <trkpt lat="43.01685" lon="0.20856">
        <ele>1287.3</ele>
        <time>2023-11-19T12:20:37Z</time>
      </trkpt>
      <trkpt lat="43.01685" lon="0.20857">
        <ele>1287.4</ele>
        <time>2023-11-19T12:20:38Z</time>
      </trkpt>
      <trkpt lat="43.01684" lon="0.20858">
        <ele>1287.5</ele>
        <time>2023-11-19T12:20:39Z</time>
      </trkpt>
      <trkpt lat="43.01683" lon="0.20859">
        <ele>1287.6</ele>
        <time>2023-11-19T12:20:40Z</time>
      </trkpt>
      <trkpt lat="43.01684" lon="0.20861">
        <ele>1287.7</ele>
        <time>2023-11-19T12:20:41Z</time>
      </trkpt>
      <trkpt lat="43.01683" lon="0.20862">
        <ele>1287.9</ele>
        <time>2023-11-19T12:20:42Z</time>
      </trkpt>
      <trkpt lat="43.01683" lon="0.20864">
        <ele>1288</ele>
        <time>2023-11-19T12:20:43Z</time>
      </trkpt>
      <trkpt lat="43.01683" lon="0.20865">
        <ele>1288.1</ele>
        <time>2023-11-19T12:20:44Z</time>
      </trkpt>
      <trkpt lat="43.01684" lon="0.20866">
        <ele>1288.1</ele>
        <time>2023-11-19T12:20:45Z</time>
      </trkpt>
      <trkpt lat="43.01683" lon="0.20867">
        <ele>1288.3</ele>
        <time>2023-11-19T12:20:46Z</time>
      </trkpt>
      <trkpt lat="43.01684" lon="0.20868">
        <ele>1288.3</ele>
        <time>2023-11-19T12:20:47Z</time>
      </trkpt>
      <trkpt lat="43.01684" lon="0.2087">
        <ele>1288.5</ele>
        <time>2023-11-19T12:20:48Z</time>
      </trkpt>
      <trkpt lat="43.01684" lon="0.20871">
        <ele>1288.5</ele>
        <time>2023-11-19T12:20:49Z</time>
      </trkpt>
      <trkpt lat="43.01684" lon="0.20872">
        <ele>1288.6</ele>
        <time>2023-11-19T12:20:50Z</time>
      </trkpt>
      <trkpt lat="43.01684" lon="0.20874">
        <ele>1288.8</ele>
        <time>2023-11-19T12:20:51Z</time>
      </trkpt>
      <trkpt lat="43.01684" lon="0.20875">
        <ele>1288.8</ele>
        <time>2023-11-19T12:20:52Z</time>
      </trkpt>
      <trkpt lat="43.01684" lon="0.20876">
        <ele>1288.9</ele>
        <time>2023-11-19T12:20:53Z</time>
      </trkpt>
      <trkpt lat="43.01684" lon="0.20877">
        <ele>1289</ele>
        <time>2023-11-19T12:20:54Z</time>
      </trkpt>
      <trkpt lat="43.01684" lon="0.20878">
        <ele>1289</ele>
        <time>2023-11-19T12:20:55Z</time>
      </trkpt>
      <trkpt lat="43.01685" lon="0.20881">
        <ele>1289.2</ele>
        <time>2023-11-19T12:20:56Z</time>
      </trkpt>
      <trkpt lat="43.01684" lon="0.20881">
        <ele>1289.3</ele>
        <time>2023-11-19T12:20:57Z</time>
      </trkpt>
      <trkpt lat="43.01684" lon="0.20883">
        <ele>1289.4</ele>
        <time>2023-11-19T12:20:58Z</time>
      </trkpt>
      <trkpt lat="43.01684" lon="0.20884">
        <ele>1289.4</ele>
        <time>2023-11-19T12:20:59Z</time>
      </trkpt>
      <trkpt lat="43.01684" lon="0.20886">
        <ele>1289.5</ele>
        <time>2023-11-19T12:21:00Z</time>
      </trkpt>
      <trkpt lat="43.01684" lon="0.20887">
        <ele>1289.6</ele>
        <time>2023-11-19T12:21:01Z</time>
      </trkpt>
      <trkpt lat="43.01684" lon="0.20889">
        <ele>1289.6</ele>
        <time>2023-11-19T12:21:02Z</time>
      </trkpt>
      <trkpt lat="43.01684" lon="0.2089">
        <ele>1289.7</ele>
        <time>2023-11-19T12:21:03Z</time>
      </trkpt>
      <trkpt lat="43.01684" lon="0.2089">
        <ele>1289.7</ele>
        <time>2023-11-19T12:21:04Z</time>
      </trkpt>
      <trkpt lat="43.01684" lon="0.20891">
        <ele>1289.8</ele>
        <time>2023-11-19T12:21:05Z</time>
      </trkpt>
      <trkpt lat="43.01684" lon="0.20891">
        <ele>1289.8</ele>
        <time>2023-11-19T12:21:06Z</time>
      </trkpt>
      <trkpt lat="43.01684" lon="0.20891">
        <ele>1289.8</ele>
        <time>2023-11-19T12:21:07Z</time>
      </trkpt>
      <trkpt lat="43.01684" lon="0.20891">
        <ele>1289.8</ele>
        <time>2023-11-19T12:21:08Z</time>
      </trkpt>
      <trkpt lat="43.01684" lon="0.20891">
        <ele>1289.8</ele>
        <time>2023-11-19T12:21:09Z</time>
      </trkpt>
      <trkpt lat="43.01684" lon="0.20891">
        <ele>1289.8</ele>
        <time>2023-11-19T12:21:10Z</time>
      </trkpt>
      <trkpt lat="43.01684" lon="0.20891">
        <ele>1289.9</ele>
        <time>2023-11-19T12:21:11Z</time>
      </trkpt>
      <trkpt lat="43.01684" lon="0.20893">
        <ele>1289.9</ele>
        <time>2023-11-19T12:21:13Z</time>
      </trkpt>
      <trkpt lat="43.01684" lon="0.20893">
        <ele>1289.9</ele>
        <time>2023-11-19T12:21:14Z</time>
      </trkpt>
      <trkpt lat="43.01683" lon="0.20894">
        <ele>1290</ele>
        <time>2023-11-19T12:21:15Z</time>
      </trkpt>
      <trkpt lat="43.01683" lon="0.20895">
        <ele>1290</ele>
        <time>2023-11-19T12:21:16Z</time>
      </trkpt>
      <trkpt lat="43.01683" lon="0.20896">
        <ele>1290.1</ele>
        <time>2023-11-19T12:21:17Z</time>
      </trkpt>
      <trkpt lat="43.01683" lon="0.20897">
        <ele>1290.1</ele>
        <time>2023-11-19T12:21:18Z</time>
      </trkpt>
      <trkpt lat="43.01683" lon="0.20899">
        <ele>1290.2</ele>
        <time>2023-11-19T12:21:19Z</time>
      </trkpt>
      <trkpt lat="43.01683" lon="0.209">
        <ele>1290.2</ele>
        <time>2023-11-19T12:21:20Z</time>
      </trkpt>
      <trkpt lat="43.01683" lon="0.20902">
        <ele>1290.3</ele>
        <time>2023-11-19T12:21:21Z</time>
      </trkpt>
      <trkpt lat="43.01683" lon="0.20903">
        <ele>1290.3</ele>
        <time>2023-11-19T12:21:22Z</time>
      </trkpt>
      <trkpt lat="43.01683" lon="0.20905">
        <ele>1290.3</ele>
        <time>2023-11-19T12:21:23Z</time>
      </trkpt>
      <trkpt lat="43.01683" lon="0.20906">
        <ele>1290.4</ele>
        <time>2023-11-19T12:21:24Z</time>
      </trkpt>
      <trkpt lat="43.01683" lon="0.20907">
        <ele>1290.4</ele>
        <time>2023-11-19T12:21:25Z</time>
      </trkpt>
      <trkpt lat="43.01683" lon="0.20908">
        <ele>1290.4</ele>
        <time>2023-11-19T12:21:26Z</time>
      </trkpt>
      <trkpt lat="43.01683" lon="0.2091">
        <ele>1290.5</ele>
        <time>2023-11-19T12:21:27Z</time>
      </trkpt>
      <trkpt lat="43.01684" lon="0.20913">
        <ele>1290.5</ele>
        <time>2023-11-19T12:21:28Z</time>
      </trkpt>
      <trkpt lat="43.01684" lon="0.20912">
        <ele>1290.6</ele>
        <time>2023-11-19T12:21:29Z</time>
      </trkpt>
      <trkpt lat="43.01684" lon="0.20912">
        <ele>1290.6</ele>
        <time>2023-11-19T12:21:30Z</time>
      </trkpt>
      <trkpt lat="43.01684" lon="0.20914">
        <ele>1290.6</ele>
        <time>2023-11-19T12:21:31Z</time>
      </trkpt>
      <trkpt lat="43.01684" lon="0.20914">
        <ele>1290.6</ele>
        <time>2023-11-19T12:21:32Z</time>
      </trkpt>
      <trkpt lat="43.01684" lon="0.20913">
        <ele>1290.6</ele>
        <time>2023-11-19T12:21:33Z</time>
      </trkpt>
      <trkpt lat="43.01684" lon="0.20913">
        <ele>1290.6</ele>
        <time>2023-11-19T12:21:34Z</time>
      </trkpt>
      <trkpt lat="43.01684" lon="0.20913">
        <ele>1290.6</ele>
        <time>2023-11-19T12:21:35Z</time>
      </trkpt>
      <trkpt lat="43.01684" lon="0.20913">
        <ele>1290.6</ele>
        <time>2023-11-19T12:21:36Z</time>
      </trkpt>
      <trkpt lat="43.01684" lon="0.20913">
        <ele>1290.6</ele>
        <time>2023-11-19T12:21:37Z</time>
      </trkpt>
      <trkpt lat="43.01683" lon="0.20913">
        <ele>1290.6</ele>
        <time>2023-11-19T12:21:38Z</time>
      </trkpt>
      <trkpt lat="43.01683" lon="0.20914">
        <ele>1290.6</ele>
        <time>2023-11-19T12:21:39Z</time>
      </trkpt>
      <trkpt lat="43.01683" lon="0.20914">
        <ele>1290.6</ele>
        <time>2023-11-19T12:21:40Z</time>
      </trkpt>
      <trkpt lat="43.01683" lon="0.20916">
        <ele>1290.6</ele>
        <time>2023-11-19T12:21:41Z</time>
      </trkpt>
      <trkpt lat="43.01683" lon="0.20918">
        <ele>1290.6</ele>
        <time>2023-11-19T12:21:42Z</time>
      </trkpt>
      <trkpt lat="43.01683" lon="0.20918">
        <ele>1290.6</ele>
        <time>2023-11-19T12:21:43Z</time>
      </trkpt>
      <trkpt lat="43.01683" lon="0.20919">
        <ele>1290.6</ele>
        <time>2023-11-19T12:21:44Z</time>
      </trkpt>
      <trkpt lat="43.01684" lon="0.2092">
        <ele>1290.6</ele>
        <time>2023-11-19T12:21:45Z</time>
      </trkpt>
      <trkpt lat="43.01684" lon="0.20922">
        <ele>1290.6</ele>
        <time>2023-11-19T12:21:46Z</time>
      </trkpt>
      <trkpt lat="43.01685" lon="0.20922">
        <ele>1290.6</ele>
        <time>2023-11-19T12:21:47Z</time>
      </trkpt>
      <trkpt lat="43.01686" lon="0.20924">
        <ele>1290.6</ele>
        <time>2023-11-19T12:21:48Z</time>
      </trkpt>
      <trkpt lat="43.01686" lon="0.20926">
        <ele>1290.6</ele>
        <time>2023-11-19T12:21:49Z</time>
      </trkpt>
      <trkpt lat="43.01685" lon="0.20928">
        <ele>1290.6</ele>
        <time>2023-11-19T12:21:50Z</time>
      </trkpt>
      <trkpt lat="43.01685" lon="0.2093">
        <ele>1290.5</ele>
        <time>2023-11-19T12:21:51Z</time>
      </trkpt>
      <trkpt lat="43.01685" lon="0.20932">
        <ele>1290.5</ele>
        <time>2023-11-19T12:21:52Z</time>
      </trkpt>
      <trkpt lat="43.01684" lon="0.20934">
        <ele>1290.5</ele>
        <time>2023-11-19T12:21:53Z</time>
      </trkpt>
      <trkpt lat="43.01686" lon="0.20936">
        <ele>1290.4</ele>
        <time>2023-11-19T12:21:54Z</time>
      </trkpt>
      <trkpt lat="43.01686" lon="0.20935">
        <ele>1290.4</ele>
        <time>2023-11-19T12:21:55Z</time>
      </trkpt>
      <trkpt lat="43.01686" lon="0.20937">
        <ele>1290.3</ele>
        <time>2023-11-19T12:21:56Z</time>
      </trkpt>
      <trkpt lat="43.01687" lon="0.20938">
        <ele>1290.3</ele>
        <time>2023-11-19T12:21:57Z</time>
      </trkpt>
      <trkpt lat="43.01687" lon="0.20941">
        <ele>1290.2</ele>
        <time>2023-11-19T12:21:58Z</time>
      </trkpt>
      <trkpt lat="43.01687" lon="0.20943">
        <ele>1290.1</ele>
        <time>2023-11-19T12:21:59Z</time>
      </trkpt>
      <trkpt lat="43.01688" lon="0.20945">
        <ele>1290.1</ele>
        <time>2023-11-19T12:22:00Z</time>
      </trkpt>
      <trkpt lat="43.01689" lon="0.20944">
        <ele>1290</ele>
        <time>2023-11-19T12:22:01Z</time>
      </trkpt>
      <trkpt lat="43.01688" lon="0.20947">
        <ele>1289.9</ele>
        <time>2023-11-19T12:22:02Z</time>
      </trkpt>
      <trkpt lat="43.01689" lon="0.20948">
        <ele>1289.9</ele>
        <time>2023-11-19T12:22:03Z</time>
      </trkpt>
      <trkpt lat="43.01689" lon="0.2095">
        <ele>1289.8</ele>
        <time>2023-11-19T12:22:04Z</time>
      </trkpt>
      <trkpt lat="43.01689" lon="0.20951">
        <ele>1289.8</ele>
        <time>2023-11-19T12:22:05Z</time>
      </trkpt>
      <trkpt lat="43.0169" lon="0.20951">
        <ele>1289.7</ele>
        <time>2023-11-19T12:22:06Z</time>
      </trkpt>
      <trkpt lat="43.0169" lon="0.20953">
        <ele>1289.7</ele>
        <time>2023-11-19T12:22:07Z</time>
      </trkpt>
      <trkpt lat="43.0169" lon="0.20954">
        <ele>1289.6</ele>
        <time>2023-11-19T12:22:08Z</time>
      </trkpt>
      <trkpt lat="43.01691" lon="0.20955">
        <ele>1289.6</ele>
        <time>2023-11-19T12:22:09Z</time>
      </trkpt>
      <trkpt lat="43.01691" lon="0.20957">
        <ele>1289.5</ele>
        <time>2023-11-19T12:22:10Z</time>
      </trkpt>
      <trkpt lat="43.01691" lon="0.20958">
        <ele>1289.5</ele>
        <time>2023-11-19T12:22:11Z</time>
      </trkpt>
      <trkpt lat="43.01692" lon="0.20959">
        <ele>1289.4</ele>
        <time>2023-11-19T12:22:12Z</time>
      </trkpt>
      <trkpt lat="43.01691" lon="0.2096">
        <ele>1289.4</ele>
        <time>2023-11-19T12:22:13Z</time>
      </trkpt>
      <trkpt lat="43.01691" lon="0.20963">
        <ele>1289.3</ele>
        <time>2023-11-19T12:22:14Z</time>
      </trkpt>
      <trkpt lat="43.01691" lon="0.20966">
        <ele>1289.2</ele>
        <time>2023-11-19T12:22:15Z</time>
      </trkpt>
      <trkpt lat="43.01692" lon="0.20967">
        <ele>1289.1</ele>
        <time>2023-11-19T12:22:16Z</time>
      </trkpt>
      <trkpt lat="43.01693" lon="0.20969">
        <ele>1289.1</ele>
        <time>2023-11-19T12:22:17Z</time>
      </trkpt>
      <trkpt lat="43.01693" lon="0.20971">
        <ele>1289</ele>
        <time>2023-11-19T12:22:18Z</time>
      </trkpt>
      <trkpt lat="43.01694" lon="0.20971">
        <ele>1289</ele>
        <time>2023-11-19T12:22:19Z</time>
      </trkpt>
      <trkpt lat="43.01694" lon="0.20972">
        <ele>1288.9</ele>
        <time>2023-11-19T12:22:20Z</time>
      </trkpt>
      <trkpt lat="43.01695" lon="0.20971">
        <ele>1288.9</ele>
        <time>2023-11-19T12:22:21Z</time>
      </trkpt>
      <trkpt lat="43.01695" lon="0.20971">
        <ele>1288.9</ele>
        <time>2023-11-19T12:22:22Z</time>
      </trkpt>
      <trkpt lat="43.01695" lon="0.20971">
        <ele>1288.9</ele>
        <time>2023-11-19T12:22:23Z</time>
      </trkpt>
      <trkpt lat="43.01695" lon="0.20971">
        <ele>1288.9</ele>
        <time>2023-11-19T12:22:24Z</time>
      </trkpt>
      <trkpt lat="43.01695" lon="0.20971">
        <ele>1288.9</ele>
        <time>2023-11-19T12:22:25Z</time>
      </trkpt>
      <trkpt lat="43.01695" lon="0.20971">
        <ele>1288.9</ele>
        <time>2023-11-19T12:22:26Z</time>
      </trkpt>
      <trkpt lat="43.01695" lon="0.20971">
        <ele>1288.9</ele>
        <time>2023-11-19T12:22:27Z</time>
      </trkpt>
      <trkpt lat="43.01695" lon="0.20971">
        <ele>1288.9</ele>
        <time>2023-11-19T12:22:28Z</time>
      </trkpt>
      <trkpt lat="43.01695" lon="0.20971">
        <ele>1288.8</ele>
        <time>2023-11-19T12:22:29Z</time>
      </trkpt>
      <trkpt lat="43.01695" lon="0.20971">
        <ele>1288.8</ele>
        <time>2023-11-19T12:22:30Z</time>
      </trkpt>
      <trkpt lat="43.01695" lon="0.20971">
        <ele>1288.8</ele>
        <time>2023-11-19T12:22:31Z</time>
      </trkpt>
      <trkpt lat="43.01695" lon="0.20971">
        <ele>1288.8</ele>
        <time>2023-11-19T12:22:32Z</time>
      </trkpt>
      <trkpt lat="43.01695" lon="0.20971">
        <ele>1288.8</ele>
        <time>2023-11-19T12:22:33Z</time>
      </trkpt>
      <trkpt lat="43.01695" lon="0.20971">
        <ele>1288.8</ele>
        <time>2023-11-19T12:22:34Z</time>
      </trkpt>
      <trkpt lat="43.01696" lon="0.20971">
        <ele>1288.8</ele>
        <time>2023-11-19T12:22:35Z</time>
      </trkpt>
      <trkpt lat="43.01695" lon="0.20973">
        <ele>1288.8</ele>
        <time>2023-11-19T12:22:36Z</time>
      </trkpt>
      <trkpt lat="43.01695" lon="0.20975">
        <ele>1288.7</ele>
        <time>2023-11-19T12:22:37Z</time>
      </trkpt>
      <trkpt lat="43.01696" lon="0.20976">
        <ele>1288.7</ele>
        <time>2023-11-19T12:22:38Z</time>
      </trkpt>
      <trkpt lat="43.01696" lon="0.20978">
        <ele>1288.6</ele>
        <time>2023-11-19T12:22:39Z</time>
      </trkpt>
      <trkpt lat="43.01694" lon="0.20978">
        <ele>1288.6</ele>
        <time>2023-11-19T12:22:40Z</time>
      </trkpt>
      <trkpt lat="43.01694" lon="0.20978">
        <ele>1288.6</ele>
        <time>2023-11-19T12:22:41Z</time>
      </trkpt>
      <trkpt lat="43.01693" lon="0.20978">
        <ele>1288.5</ele>
        <time>2023-11-19T12:22:42Z</time>
      </trkpt>
      <trkpt lat="43.01693" lon="0.20981">
        <ele>1288.5</ele>
        <time>2023-11-19T12:22:43Z</time>
      </trkpt>
      <trkpt lat="43.01694" lon="0.20983">
        <ele>1288.4</ele>
        <time>2023-11-19T12:22:44Z</time>
      </trkpt>
      <trkpt lat="43.01694" lon="0.20986">
        <ele>1288.4</ele>
        <time>2023-11-19T12:22:45Z</time>
      </trkpt>
      <trkpt lat="43.01694" lon="0.20987">
        <ele>1288.4</ele>
        <time>2023-11-19T12:22:46Z</time>
      </trkpt>
      <trkpt lat="43.01694" lon="0.20988">
        <ele>1288.3</ele>
        <time>2023-11-19T12:22:47Z</time>
      </trkpt>
      <trkpt lat="43.01694" lon="0.20991">
        <ele>1288.3</ele>
        <time>2023-11-19T12:22:48Z</time>
      </trkpt>
      <trkpt lat="43.01694" lon="0.20992">
        <ele>1288.3</ele>
        <time>2023-11-19T12:22:49Z</time>
      </trkpt>
      <trkpt lat="43.01693" lon="0.20993">
        <ele>1288.3</ele>
        <time>2023-11-19T12:22:50Z</time>
      </trkpt>
      <trkpt lat="43.01693" lon="0.20996">
        <ele>1288.3</ele>
        <time>2023-11-19T12:22:51Z</time>
      </trkpt>
      <trkpt lat="43.01693" lon="0.20997">
        <ele>1288.2</ele>
        <time>2023-11-19T12:22:52Z</time>
      </trkpt>
      <trkpt lat="43.01693" lon="0.20998">
        <ele>1288.2</ele>
        <time>2023-11-19T12:22:53Z</time>
      </trkpt>
      <trkpt lat="43.01693" lon="0.21001">
        <ele>1288.2</ele>
        <time>2023-11-19T12:22:54Z</time>
      </trkpt>
      <trkpt lat="43.01693" lon="0.21002">
        <ele>1288.2</ele>
        <time>2023-11-19T12:22:55Z</time>
      </trkpt>
      <trkpt lat="43.01693" lon="0.21004">
        <ele>1288.2</ele>
        <time>2023-11-19T12:22:56Z</time>
      </trkpt>
      <trkpt lat="43.01693" lon="0.21005">
        <ele>1288.2</ele>
        <time>2023-11-19T12:22:57Z</time>
      </trkpt>
      <trkpt lat="43.01692" lon="0.21007">
        <ele>1288.2</ele>
        <time>2023-11-19T12:22:58Z</time>
      </trkpt>
      <trkpt lat="43.01692" lon="0.21009">
        <ele>1288.2</ele>
        <time>2023-11-19T12:22:59Z</time>
      </trkpt>
      <trkpt lat="43.01693" lon="0.21011">
        <ele>1288.1</ele>
        <time>2023-11-19T12:23:00Z</time>
      </trkpt>
      <trkpt lat="43.01693" lon="0.21012">
        <ele>1288.1</ele>
        <time>2023-11-19T12:23:01Z</time>
      </trkpt>
      <trkpt lat="43.01693" lon="0.21014">
        <ele>1288.1</ele>
        <time>2023-11-19T12:23:02Z</time>
      </trkpt>
      <trkpt lat="43.01692" lon="0.21016">
        <ele>1288.1</ele>
        <time>2023-11-19T12:23:03Z</time>
      </trkpt>
      <trkpt lat="43.01693" lon="0.21017">
        <ele>1288.1</ele>
        <time>2023-11-19T12:23:04Z</time>
      </trkpt>
      <trkpt lat="43.01693" lon="0.21018">
        <ele>1288.1</ele>
        <time>2023-11-19T12:23:05Z</time>
      </trkpt>
      <trkpt lat="43.01694" lon="0.21021">
        <ele>1288.1</ele>
        <time>2023-11-19T12:23:06Z</time>
      </trkpt>
      <trkpt lat="43.01694" lon="0.21022">
        <ele>1288.1</ele>
        <time>2023-11-19T12:23:07Z</time>
      </trkpt>
      <trkpt lat="43.01694" lon="0.21023">
        <ele>1288.1</ele>
        <time>2023-11-19T12:23:08Z</time>
      </trkpt>
      <trkpt lat="43.01693" lon="0.21025">
        <ele>1288.1</ele>
        <time>2023-11-19T12:23:09Z</time>
      </trkpt>
      <trkpt lat="43.01693" lon="0.21028">
        <ele>1288.1</ele>
        <time>2023-11-19T12:23:10Z</time>
      </trkpt>
      <trkpt lat="43.01693" lon="0.21029">
        <ele>1288.1</ele>
        <time>2023-11-19T12:23:11Z</time>
      </trkpt>
      <trkpt lat="43.01693" lon="0.21029">
        <ele>1288.1</ele>
        <time>2023-11-19T12:23:12Z</time>
      </trkpt>
      <trkpt lat="43.01692" lon="0.21031">
        <ele>1288.1</ele>
        <time>2023-11-19T12:23:13Z</time>
      </trkpt>
      <trkpt lat="43.01692" lon="0.21032">
        <ele>1288.1</ele>
        <time>2023-11-19T12:23:14Z</time>
      </trkpt>
      <trkpt lat="43.01692" lon="0.21033">
        <ele>1288.1</ele>
        <time>2023-11-19T12:23:15Z</time>
      </trkpt>
      <trkpt lat="43.01691" lon="0.21034">
        <ele>1288.1</ele>
        <time>2023-11-19T12:23:16Z</time>
      </trkpt>
      <trkpt lat="43.01691" lon="0.21035">
        <ele>1288.1</ele>
        <time>2023-11-19T12:23:17Z</time>
      </trkpt>
      <trkpt lat="43.01691" lon="0.21038">
        <ele>1288.1</ele>
        <time>2023-11-19T12:23:18Z</time>
      </trkpt>
      <trkpt lat="43.01691" lon="0.21039">
        <ele>1288.1</ele>
        <time>2023-11-19T12:23:19Z</time>
      </trkpt>
      <trkpt lat="43.01691" lon="0.2104">
        <ele>1288.1</ele>
        <time>2023-11-19T12:23:20Z</time>
      </trkpt>
      <trkpt lat="43.01691" lon="0.21041">
        <ele>1288.1</ele>
        <time>2023-11-19T12:23:21Z</time>
      </trkpt>
      <trkpt lat="43.01692" lon="0.21042">
        <ele>1288.1</ele>
        <time>2023-11-19T12:23:22Z</time>
      </trkpt>
      <trkpt lat="43.01691" lon="0.21043">
        <ele>1288.1</ele>
        <time>2023-11-19T12:23:23Z</time>
      </trkpt>
      <trkpt lat="43.01691" lon="0.21044">
        <ele>1288.1</ele>
        <time>2023-11-19T12:23:24Z</time>
      </trkpt>
      <trkpt lat="43.01691" lon="0.21044">
        <ele>1288.1</ele>
        <time>2023-11-19T12:23:25Z</time>
      </trkpt>
      <trkpt lat="43.01692" lon="0.21044">
        <ele>1288.1</ele>
        <time>2023-11-19T12:23:26Z</time>
      </trkpt>
      <trkpt lat="43.01692" lon="0.21044">
        <ele>1288.1</ele>
        <time>2023-11-19T12:23:27Z</time>
      </trkpt>
      <trkpt lat="43.01692" lon="0.21044">
        <ele>1288.1</ele>
        <time>2023-11-19T12:23:28Z</time>
      </trkpt>
      <trkpt lat="43.01692" lon="0.21043">
        <ele>1288.1</ele>
        <time>2023-11-19T12:23:29Z</time>
      </trkpt>
      <trkpt lat="43.01692" lon="0.21042">
        <ele>1288.1</ele>
        <time>2023-11-19T12:23:30Z</time>
      </trkpt>
      <trkpt lat="43.01691" lon="0.21042">
        <ele>1288.1</ele>
        <time>2023-11-19T12:23:31Z</time>
      </trkpt>
      <trkpt lat="43.0169" lon="0.21042">
        <ele>1288.1</ele>
        <time>2023-11-19T12:23:32Z</time>
      </trkpt>
      <trkpt lat="43.0169" lon="0.21041">
        <ele>1288.1</ele>
        <time>2023-11-19T12:23:33Z</time>
      </trkpt>
      <trkpt lat="43.01689" lon="0.2104">
        <ele>1288.1</ele>
        <time>2023-11-19T12:23:34Z</time>
      </trkpt>
      <trkpt lat="43.0169" lon="0.2104">
        <ele>1288.1</ele>
        <time>2023-11-19T12:23:35Z</time>
      </trkpt>
      <trkpt lat="43.0169" lon="0.21041">
        <ele>1288.1</ele>
        <time>2023-11-19T12:23:36Z</time>
      </trkpt>
      <trkpt lat="43.01691" lon="0.21041">
        <ele>1288.1</ele>
        <time>2023-11-19T12:23:37Z</time>
      </trkpt>
      <trkpt lat="43.01691" lon="0.21041">
        <ele>1288.1</ele>
        <time>2023-11-19T12:23:38Z</time>
      </trkpt>
      <trkpt lat="43.01691" lon="0.2104">
        <ele>1288.1</ele>
        <time>2023-11-19T12:23:39Z</time>
      </trkpt>
      <trkpt lat="43.01691" lon="0.2104">
        <ele>1288.1</ele>
        <time>2023-11-19T12:23:40Z</time>
      </trkpt>
      <trkpt lat="43.01691" lon="0.2104">
        <ele>1288.1</ele>
        <time>2023-11-19T12:23:41Z</time>
      </trkpt>
      <trkpt lat="43.01692" lon="0.21041">
        <ele>1288.1</ele>
        <time>2023-11-19T12:23:42Z</time>
      </trkpt>
      <trkpt lat="43.01693" lon="0.21043">
        <ele>1288.1</ele>
        <time>2023-11-19T12:23:43Z</time>
      </trkpt>
      <trkpt lat="43.01692" lon="0.21045">
        <ele>1288.1</ele>
        <time>2023-11-19T12:23:44Z</time>
      </trkpt>
      <trkpt lat="43.01691" lon="0.21047">
        <ele>1288.1</ele>
        <time>2023-11-19T12:23:45Z</time>
      </trkpt>
      <trkpt lat="43.01691" lon="0.21049">
        <ele>1288.1</ele>
        <time>2023-11-19T12:23:46Z</time>
      </trkpt>
      <trkpt lat="43.0169" lon="0.2105">
        <ele>1288.1</ele>
        <time>2023-11-19T12:23:47Z</time>
      </trkpt>
      <trkpt lat="43.0169" lon="0.21051">
        <ele>1288.1</ele>
        <time>2023-11-19T12:23:48Z</time>
      </trkpt>
      <trkpt lat="43.01691" lon="0.21053">
        <ele>1288.1</ele>
        <time>2023-11-19T12:23:49Z</time>
      </trkpt>
      <trkpt lat="43.01691" lon="0.21055">
        <ele>1288.2</ele>
        <time>2023-11-19T12:23:50Z</time>
      </trkpt>
      <trkpt lat="43.0169" lon="0.21056">
        <ele>1288.2</ele>
        <time>2023-11-19T12:23:51Z</time>
      </trkpt>
      <trkpt lat="43.01689" lon="0.21057">
        <ele>1288.2</ele>
        <time>2023-11-19T12:23:52Z</time>
      </trkpt>
      <trkpt lat="43.01689" lon="0.21059">
        <ele>1288.2</ele>
        <time>2023-11-19T12:23:53Z</time>
      </trkpt>
      <trkpt lat="43.01689" lon="0.21061">
        <ele>1288.2</ele>
        <time>2023-11-19T12:23:54Z</time>
      </trkpt>
      <trkpt lat="43.01689" lon="0.21062">
        <ele>1288.3</ele>
        <time>2023-11-19T12:23:55Z</time>
      </trkpt>
      <trkpt lat="43.01688" lon="0.21064">
        <ele>1288.3</ele>
        <time>2023-11-19T12:23:56Z</time>
      </trkpt>
      <trkpt lat="43.01688" lon="0.21065">
        <ele>1288.3</ele>
        <time>2023-11-19T12:23:57Z</time>
      </trkpt>
      <trkpt lat="43.01687" lon="0.21066">
        <ele>1288.3</ele>
        <time>2023-11-19T12:23:58Z</time>
      </trkpt>
      <trkpt lat="43.01687" lon="0.21068">
        <ele>1288.3</ele>
        <time>2023-11-19T12:23:59Z</time>
      </trkpt>
      <trkpt lat="43.01688" lon="0.21068">
        <ele>1288.3</ele>
        <time>2023-11-19T12:24:00Z</time>
      </trkpt>
      <trkpt lat="43.01688" lon="0.2107">
        <ele>1288.4</ele>
        <time>2023-11-19T12:24:01Z</time>
      </trkpt>
      <trkpt lat="43.01687" lon="0.21071">
        <ele>1288.4</ele>
        <time>2023-11-19T12:24:02Z</time>
      </trkpt>
      <trkpt lat="43.01688" lon="0.21073">
        <ele>1288.4</ele>
        <time>2023-11-19T12:24:03Z</time>
      </trkpt>
      <trkpt lat="43.01688" lon="0.21075">
        <ele>1288.5</ele>
        <time>2023-11-19T12:24:04Z</time>
      </trkpt>
      <trkpt lat="43.01687" lon="0.21076">
        <ele>1288.5</ele>
        <time>2023-11-19T12:24:05Z</time>
      </trkpt>
      <trkpt lat="43.01687" lon="0.21079">
        <ele>1288.6</ele>
        <time>2023-11-19T12:24:06Z</time>
      </trkpt>
      <trkpt lat="43.01687" lon="0.21081">
        <ele>1288.7</ele>
        <time>2023-11-19T12:24:07Z</time>
      </trkpt>
      <trkpt lat="43.01686" lon="0.21082">
        <ele>1288.7</ele>
        <time>2023-11-19T12:24:08Z</time>
      </trkpt>
      <trkpt lat="43.01686" lon="0.21084">
        <ele>1288.7</ele>
        <time>2023-11-19T12:24:09Z</time>
      </trkpt>
      <trkpt lat="43.01686" lon="0.21085">
        <ele>1288.8</ele>
        <time>2023-11-19T12:24:10Z</time>
      </trkpt>
      <trkpt lat="43.01686" lon="0.21086">
        <ele>1288.8</ele>
        <time>2023-11-19T12:24:11Z</time>
      </trkpt>
      <trkpt lat="43.01685" lon="0.21089">
        <ele>1288.9</ele>
        <time>2023-11-19T12:24:12Z</time>
      </trkpt>
      <trkpt lat="43.01685" lon="0.2109">
        <ele>1289</ele>
        <time>2023-11-19T12:24:13Z</time>
      </trkpt>
      <trkpt lat="43.01684" lon="0.21092">
        <ele>1289</ele>
        <time>2023-11-19T12:24:14Z</time>
      </trkpt>
      <trkpt lat="43.01684" lon="0.21093">
        <ele>1289.1</ele>
        <time>2023-11-19T12:24:15Z</time>
      </trkpt>
      <trkpt lat="43.01684" lon="0.21094">
        <ele>1289.1</ele>
        <time>2023-11-19T12:24:16Z</time>
      </trkpt>
      <trkpt lat="43.01683" lon="0.21096">
        <ele>1289.2</ele>
        <time>2023-11-19T12:24:17Z</time>
      </trkpt>
      <trkpt lat="43.01683" lon="0.21099">
        <ele>1289.3</ele>
        <time>2023-11-19T12:24:18Z</time>
      </trkpt>
      <trkpt lat="43.01683" lon="0.211">
        <ele>1289.4</ele>
        <time>2023-11-19T12:24:19Z</time>
      </trkpt>
      <trkpt lat="43.01683" lon="0.21101">
        <ele>1289.4</ele>
        <time>2023-11-19T12:24:20Z</time>
      </trkpt>
      <trkpt lat="43.01683" lon="0.21103">
        <ele>1289.5</ele>
        <time>2023-11-19T12:24:21Z</time>
      </trkpt>
      <trkpt lat="43.01683" lon="0.21104">
        <ele>1289.6</ele>
        <time>2023-11-19T12:24:22Z</time>
      </trkpt>
      <trkpt lat="43.01683" lon="0.21106">
        <ele>1289.6</ele>
        <time>2023-11-19T12:24:23Z</time>
      </trkpt>
      <trkpt lat="43.01683" lon="0.21107">
        <ele>1289.7</ele>
        <time>2023-11-19T12:24:24Z</time>
      </trkpt>
      <trkpt lat="43.01683" lon="0.21109">
        <ele>1289.7</ele>
        <time>2023-11-19T12:24:25Z</time>
      </trkpt>
      <trkpt lat="43.01682" lon="0.2111">
        <ele>1289.8</ele>
        <time>2023-11-19T12:24:26Z</time>
      </trkpt>
      <trkpt lat="43.01682" lon="0.21111">
        <ele>1289.9</ele>
        <time>2023-11-19T12:24:27Z</time>
      </trkpt>
      <trkpt lat="43.01683" lon="0.21112">
        <ele>1290</ele>
        <time>2023-11-19T12:24:28Z</time>
      </trkpt>
      <trkpt lat="43.01682" lon="0.21113">
        <ele>1290</ele>
        <time>2023-11-19T12:24:29Z</time>
      </trkpt>
      <trkpt lat="43.01681" lon="0.21114">
        <ele>1290.1</ele>
        <time>2023-11-19T12:24:30Z</time>
      </trkpt>
      <trkpt lat="43.01681" lon="0.21115">
        <ele>1290.1</ele>
        <time>2023-11-19T12:24:31Z</time>
      </trkpt>
      <trkpt lat="43.01681" lon="0.21116">
        <ele>1290.2</ele>
        <time>2023-11-19T12:24:32Z</time>
      </trkpt>
      <trkpt lat="43.01681" lon="0.21118">
        <ele>1290.3</ele>
        <time>2023-11-19T12:24:33Z</time>
      </trkpt>
      <trkpt lat="43.01681" lon="0.21119">
        <ele>1290.3</ele>
        <time>2023-11-19T12:24:34Z</time>
      </trkpt>
      <trkpt lat="43.01679" lon="0.21122">
        <ele>1290.5</ele>
        <time>2023-11-19T12:24:35Z</time>
      </trkpt>
      <trkpt lat="43.01679" lon="0.21123">
        <ele>1290.6</ele>
        <time>2023-11-19T12:24:36Z</time>
      </trkpt>
      <trkpt lat="43.01679" lon="0.21124">
        <ele>1290.6</ele>
        <time>2023-11-19T12:24:37Z</time>
      </trkpt>
      <trkpt lat="43.01679" lon="0.21126">
        <ele>1290.7</ele>
        <time>2023-11-19T12:24:38Z</time>
      </trkpt>
      <trkpt lat="43.01678" lon="0.21127">
        <ele>1290.8</ele>
        <time>2023-11-19T12:24:39Z</time>
      </trkpt>
      <trkpt lat="43.01677" lon="0.21128">
        <ele>1290.9</ele>
        <time>2023-11-19T12:24:40Z</time>
      </trkpt>
      <trkpt lat="43.01677" lon="0.21131">
        <ele>1291</ele>
        <time>2023-11-19T12:24:41Z</time>
      </trkpt>
      <trkpt lat="43.01677" lon="0.21132">
        <ele>1291.1</ele>
        <time>2023-11-19T12:24:42Z</time>
      </trkpt>
      <trkpt lat="43.01677" lon="0.21133">
        <ele>1291.1</ele>
        <time>2023-11-19T12:24:43Z</time>
      </trkpt>
      <trkpt lat="43.01676" lon="0.21134">
        <ele>1291.2</ele>
        <time>2023-11-19T12:24:44Z</time>
      </trkpt>
      <trkpt lat="43.01675" lon="0.21136">
        <ele>1291.3</ele>
        <time>2023-11-19T12:24:45Z</time>
      </trkpt>
      <trkpt lat="43.01674" lon="0.21138">
        <ele>1291.4</ele>
        <time>2023-11-19T12:24:46Z</time>
      </trkpt>
      <trkpt lat="43.01675" lon="0.21139">
        <ele>1291.5</ele>
        <time>2023-11-19T12:24:47Z</time>
      </trkpt>
      <trkpt lat="43.01674" lon="0.2114">
        <ele>1291.5</ele>
        <time>2023-11-19T12:24:48Z</time>
      </trkpt>
      <trkpt lat="43.01674" lon="0.21141">
        <ele>1291.6</ele>
        <time>2023-11-19T12:24:49Z</time>
      </trkpt>
      <trkpt lat="43.01673" lon="0.21144">
        <ele>1291.7</ele>
        <time>2023-11-19T12:24:50Z</time>
      </trkpt>
      <trkpt lat="43.01673" lon="0.21145">
        <ele>1291.8</ele>
        <time>2023-11-19T12:24:51Z</time>
      </trkpt>
      <trkpt lat="43.01673" lon="0.21146">
        <ele>1291.8</ele>
        <time>2023-11-19T12:24:52Z</time>
      </trkpt>
      <trkpt lat="43.01672" lon="0.21148">
        <ele>1291.9</ele>
        <time>2023-11-19T12:24:53Z</time>
      </trkpt>
      <trkpt lat="43.01672" lon="0.21149">
        <ele>1291.9</ele>
        <time>2023-11-19T12:24:54Z</time>
      </trkpt>
      <trkpt lat="43.01672" lon="0.2115">
        <ele>1292</ele>
        <time>2023-11-19T12:24:55Z</time>
      </trkpt>
      <trkpt lat="43.01672" lon="0.21151">
        <ele>1292</ele>
        <time>2023-11-19T12:24:56Z</time>
      </trkpt>
      <trkpt lat="43.01671" lon="0.21152">
        <ele>1292.1</ele>
        <time>2023-11-19T12:24:57Z</time>
      </trkpt>
      <trkpt lat="43.01671" lon="0.21153">
        <ele>1292.1</ele>
        <time>2023-11-19T12:24:58Z</time>
      </trkpt>
      <trkpt lat="43.01671" lon="0.21154">
        <ele>1292.2</ele>
        <time>2023-11-19T12:24:59Z</time>
      </trkpt>
      <trkpt lat="43.0167" lon="0.21157">
        <ele>1292.2</ele>
        <time>2023-11-19T12:25:00Z</time>
      </trkpt>
      <trkpt lat="43.0167" lon="0.21158">
        <ele>1292.3</ele>
        <time>2023-11-19T12:25:01Z</time>
      </trkpt>
      <trkpt lat="43.0167" lon="0.21159">
        <ele>1292.3</ele>
        <time>2023-11-19T12:25:02Z</time>
      </trkpt>
      <trkpt lat="43.0167" lon="0.2116">
        <ele>1292.3</ele>
        <time>2023-11-19T12:25:03Z</time>
      </trkpt>
      <trkpt lat="43.01671" lon="0.21161">
        <ele>1292.4</ele>
        <time>2023-11-19T12:25:04Z</time>
      </trkpt>
      <trkpt lat="43.0167" lon="0.21163">
        <ele>1292.5</ele>
        <time>2023-11-19T12:25:05Z</time>
      </trkpt>
      <trkpt lat="43.0167" lon="0.21164">
        <ele>1292.5</ele>
        <time>2023-11-19T12:25:06Z</time>
      </trkpt>
      <trkpt lat="43.01669" lon="0.21166">
        <ele>1292.6</ele>
        <time>2023-11-19T12:25:07Z</time>
      </trkpt>
      <trkpt lat="43.01669" lon="0.21167">
        <ele>1292.6</ele>
        <time>2023-11-19T12:25:08Z</time>
      </trkpt>
      <trkpt lat="43.01669" lon="0.21168">
        <ele>1292.7</ele>
        <time>2023-11-19T12:25:09Z</time>
      </trkpt>
      <trkpt lat="43.01669" lon="0.21172">
        <ele>1292.8</ele>
        <time>2023-11-19T12:25:10Z</time>
      </trkpt>
      <trkpt lat="43.01669" lon="0.21173">
        <ele>1292.8</ele>
        <time>2023-11-19T12:25:11Z</time>
      </trkpt>
      <trkpt lat="43.01669" lon="0.21174">
        <ele>1292.8</ele>
        <time>2023-11-19T12:25:12Z</time>
      </trkpt>
      <trkpt lat="43.01667" lon="0.21174">
        <ele>1292.9</ele>
        <time>2023-11-19T12:25:13Z</time>
      </trkpt>
      <trkpt lat="43.01667" lon="0.21175">
        <ele>1292.9</ele>
        <time>2023-11-19T12:25:14Z</time>
      </trkpt>
      <trkpt lat="43.01667" lon="0.21178">
        <ele>1293</ele>
        <time>2023-11-19T12:25:15Z</time>
      </trkpt>
      <trkpt lat="43.01667" lon="0.21179">
        <ele>1293.1</ele>
        <time>2023-11-19T12:25:16Z</time>
      </trkpt>
      <trkpt lat="43.01668" lon="0.2118">
        <ele>1293.1</ele>
        <time>2023-11-19T12:25:17Z</time>
      </trkpt>
      <trkpt lat="43.01668" lon="0.21182">
        <ele>1293.2</ele>
        <time>2023-11-19T12:25:18Z</time>
      </trkpt>
      <trkpt lat="43.01669" lon="0.21183">
        <ele>1293.2</ele>
        <time>2023-11-19T12:25:19Z</time>
      </trkpt>
      <trkpt lat="43.01669" lon="0.21185">
        <ele>1293.3</ele>
        <time>2023-11-19T12:25:20Z</time>
      </trkpt>
      <trkpt lat="43.01669" lon="0.21186">
        <ele>1293.3</ele>
        <time>2023-11-19T12:25:21Z</time>
      </trkpt>
      <trkpt lat="43.01668" lon="0.21189">
        <ele>1293.4</ele>
        <time>2023-11-19T12:25:22Z</time>
      </trkpt>
      <trkpt lat="43.01668" lon="0.21191">
        <ele>1293.5</ele>
        <time>2023-11-19T12:25:23Z</time>
      </trkpt>
      <trkpt lat="43.01668" lon="0.21189">
        <ele>1293.6</ele>
        <time>2023-11-19T12:25:24Z</time>
      </trkpt>
      <trkpt lat="43.01668" lon="0.21191">
        <ele>1293.6</ele>
        <time>2023-11-19T12:25:25Z</time>
      </trkpt>
      <trkpt lat="43.01666" lon="0.21193">
        <ele>1293.7</ele>
        <time>2023-11-19T12:25:26Z</time>
      </trkpt>
      <trkpt lat="43.01666" lon="0.21196">
        <ele>1293.8</ele>
        <time>2023-11-19T12:25:27Z</time>
      </trkpt>
      <trkpt lat="43.01666" lon="0.21198">
        <ele>1293.9</ele>
        <time>2023-11-19T12:25:28Z</time>
      </trkpt>
      <trkpt lat="43.01665" lon="0.21199">
        <ele>1294</ele>
        <time>2023-11-19T12:25:29Z</time>
      </trkpt>
      <trkpt lat="43.01664" lon="0.21202">
        <ele>1294</ele>
        <time>2023-11-19T12:25:30Z</time>
      </trkpt>
      <trkpt lat="43.01663" lon="0.21203">
        <ele>1294.1</ele>
        <time>2023-11-19T12:25:31Z</time>
      </trkpt>
      <trkpt lat="43.01663" lon="0.21205">
        <ele>1294.2</ele>
        <time>2023-11-19T12:25:32Z</time>
      </trkpt>
      <trkpt lat="43.01662" lon="0.21208">
        <ele>1294.2</ele>
        <time>2023-11-19T12:25:33Z</time>
      </trkpt>
      <trkpt lat="43.01661" lon="0.21209">
        <ele>1294.3</ele>
        <time>2023-11-19T12:25:34Z</time>
      </trkpt>
      <trkpt lat="43.0166" lon="0.21211">
        <ele>1294.3</ele>
        <time>2023-11-19T12:25:35Z</time>
      </trkpt>
      <trkpt lat="43.0166" lon="0.21211">
        <ele>1294.4</ele>
        <time>2023-11-19T12:25:36Z</time>
      </trkpt>
      <trkpt lat="43.0166" lon="0.21213">
        <ele>1294.4</ele>
        <time>2023-11-19T12:25:37Z</time>
      </trkpt>
      <trkpt lat="43.0166" lon="0.21213">
        <ele>1294.4</ele>
        <time>2023-11-19T12:25:38Z</time>
      </trkpt>
      <trkpt lat="43.01659" lon="0.21214">
        <ele>1294.4</ele>
        <time>2023-11-19T12:25:39Z</time>
      </trkpt>
      <trkpt lat="43.01658" lon="0.21216">
        <ele>1294.5</ele>
        <time>2023-11-19T12:25:40Z</time>
      </trkpt>
      <trkpt lat="43.01659" lon="0.21217">
        <ele>1294.5</ele>
        <time>2023-11-19T12:25:41Z</time>
      </trkpt>
      <trkpt lat="43.01658" lon="0.21218">
        <ele>1294.5</ele>
        <time>2023-11-19T12:25:42Z</time>
      </trkpt>
      <trkpt lat="43.01658" lon="0.2122">
        <ele>1294.5</ele>
        <time>2023-11-19T12:25:43Z</time>
      </trkpt>
      <trkpt lat="43.01658" lon="0.21221">
        <ele>1294.5</ele>
        <time>2023-11-19T12:25:44Z</time>
      </trkpt>
      <trkpt lat="43.01658" lon="0.21221">
        <ele>1294.6</ele>
        <time>2023-11-19T12:25:45Z</time>
      </trkpt>
      <trkpt lat="43.01657" lon="0.21222">
        <ele>1294.6</ele>
        <time>2023-11-19T12:25:46Z</time>
      </trkpt>
      <trkpt lat="43.01656" lon="0.21222">
        <ele>1294.6</ele>
        <time>2023-11-19T12:25:47Z</time>
      </trkpt>
      <trkpt lat="43.01656" lon="0.21223">
        <ele>1294.6</ele>
        <time>2023-11-19T12:25:48Z</time>
      </trkpt>
      <trkpt lat="43.01655" lon="0.21225">
        <ele>1294.6</ele>
        <time>2023-11-19T12:25:49Z</time>
      </trkpt>
      <trkpt lat="43.01655" lon="0.21227">
        <ele>1294.6</ele>
        <time>2023-11-19T12:25:50Z</time>
      </trkpt>
      <trkpt lat="43.01654" lon="0.21229">
        <ele>1294.6</ele>
        <time>2023-11-19T12:25:51Z</time>
      </trkpt>
      <trkpt lat="43.01654" lon="0.2123">
        <ele>1294.6</ele>
        <time>2023-11-19T12:25:52Z</time>
      </trkpt>
      <trkpt lat="43.01654" lon="0.21232">
        <ele>1294.6</ele>
        <time>2023-11-19T12:25:53Z</time>
      </trkpt>
      <trkpt lat="43.01653" lon="0.21233">
        <ele>1294.6</ele>
        <time>2023-11-19T12:25:54Z</time>
      </trkpt>
      <trkpt lat="43.01652" lon="0.21234">
        <ele>1294.6</ele>
        <time>2023-11-19T12:25:55Z</time>
      </trkpt>
      <trkpt lat="43.01651" lon="0.21235">
        <ele>1294.6</ele>
        <time>2023-11-19T12:25:56Z</time>
      </trkpt>
      <trkpt lat="43.0165" lon="0.21235">
        <ele>1294.6</ele>
        <time>2023-11-19T12:25:57Z</time>
      </trkpt>
      <trkpt lat="43.01649" lon="0.21237">
        <ele>1294.6</ele>
        <time>2023-11-19T12:25:58Z</time>
      </trkpt>
      <trkpt lat="43.01649" lon="0.21237">
        <ele>1294.6</ele>
        <time>2023-11-19T12:25:59Z</time>
      </trkpt>
      <trkpt lat="43.01649" lon="0.21237">
        <ele>1294.6</ele>
        <time>2023-11-19T12:26:00Z</time>
      </trkpt>
      <trkpt lat="43.01648" lon="0.21238">
        <ele>1294.6</ele>
        <time>2023-11-19T12:26:01Z</time>
      </trkpt>
      <trkpt lat="43.01647" lon="0.21239">
        <ele>1294.6</ele>
        <time>2023-11-19T12:26:02Z</time>
      </trkpt>
      <trkpt lat="43.01645" lon="0.21239">
        <ele>1294.5</ele>
        <time>2023-11-19T12:26:03Z</time>
      </trkpt>
      <trkpt lat="43.01645" lon="0.21241">
        <ele>1294.5</ele>
        <time>2023-11-19T12:26:04Z</time>
      </trkpt>
      <trkpt lat="43.01644" lon="0.2124">
        <ele>1294.5</ele>
        <time>2023-11-19T12:26:05Z</time>
      </trkpt>
      <trkpt lat="43.01642" lon="0.21242">
        <ele>1294.4</ele>
        <time>2023-11-19T12:26:06Z</time>
      </trkpt>
      <trkpt lat="43.01641" lon="0.21242">
        <ele>1294.4</ele>
        <time>2023-11-19T12:26:07Z</time>
      </trkpt>
      <trkpt lat="43.0164" lon="0.21243">
        <ele>1294.3</ele>
        <time>2023-11-19T12:26:08Z</time>
      </trkpt>
      <trkpt lat="43.01639" lon="0.21244">
        <ele>1294.3</ele>
        <time>2023-11-19T12:26:09Z</time>
      </trkpt>
      <trkpt lat="43.01639" lon="0.21245">
        <ele>1294.3</ele>
        <time>2023-11-19T12:26:10Z</time>
      </trkpt>
      <trkpt lat="43.01638" lon="0.21246">
        <ele>1294.3</ele>
        <time>2023-11-19T12:26:11Z</time>
      </trkpt>
      <trkpt lat="43.01638" lon="0.21247">
        <ele>1294.2</ele>
        <time>2023-11-19T12:26:12Z</time>
      </trkpt>
      <trkpt lat="43.01636" lon="0.21248">
        <ele>1294.2</ele>
        <time>2023-11-19T12:26:13Z</time>
      </trkpt>
      <trkpt lat="43.01636" lon="0.21249">
        <ele>1294.1</ele>
        <time>2023-11-19T12:26:14Z</time>
      </trkpt>
      <trkpt lat="43.01635" lon="0.21249">
        <ele>1294.1</ele>
        <time>2023-11-19T12:26:15Z</time>
      </trkpt>
      <trkpt lat="43.01633" lon="0.2125">
        <ele>1294</ele>
        <time>2023-11-19T12:26:16Z</time>
      </trkpt>
      <trkpt lat="43.01632" lon="0.21251">
        <ele>1294</ele>
        <time>2023-11-19T12:26:17Z</time>
      </trkpt>
      <trkpt lat="43.01631" lon="0.21252">
        <ele>1293.9</ele>
        <time>2023-11-19T12:26:18Z</time>
      </trkpt>
      <trkpt lat="43.0163" lon="0.21253">
        <ele>1293.9</ele>
        <time>2023-11-19T12:26:19Z</time>
      </trkpt>
      <trkpt lat="43.0163" lon="0.21253">
        <ele>1293.8</ele>
        <time>2023-11-19T12:26:20Z</time>
      </trkpt>
      <trkpt lat="43.01628" lon="0.21253">
        <ele>1293.8</ele>
        <time>2023-11-19T12:26:21Z</time>
      </trkpt>
      <trkpt lat="43.01626" lon="0.21255">
        <ele>1293.7</ele>
        <time>2023-11-19T12:26:22Z</time>
      </trkpt>
      <trkpt lat="43.01626" lon="0.21255">
        <ele>1293.7</ele>
        <time>2023-11-19T12:26:23Z</time>
      </trkpt>
      <trkpt lat="43.01625" lon="0.21257">
        <ele>1293.6</ele>
        <time>2023-11-19T12:26:24Z</time>
      </trkpt>
      <trkpt lat="43.01624" lon="0.21258">
        <ele>1293.6</ele>
        <time>2023-11-19T12:26:25Z</time>
      </trkpt>
      <trkpt lat="43.01622" lon="0.21258">
        <ele>1293.5</ele>
        <time>2023-11-19T12:26:26Z</time>
      </trkpt>
      <trkpt lat="43.01621" lon="0.21259">
        <ele>1293.5</ele>
        <time>2023-11-19T12:26:27Z</time>
      </trkpt>
      <trkpt lat="43.0162" lon="0.21261">
        <ele>1293.4</ele>
        <time>2023-11-19T12:26:28Z</time>
      </trkpt>
      <trkpt lat="43.01619" lon="0.21263">
        <ele>1293.4</ele>
        <time>2023-11-19T12:26:29Z</time>
      </trkpt>
      <trkpt lat="43.01618" lon="0.21263">
        <ele>1293.4</ele>
        <time>2023-11-19T12:26:30Z</time>
      </trkpt>
      <trkpt lat="43.01618" lon="0.21264">
        <ele>1293.4</ele>
        <time>2023-11-19T12:26:31Z</time>
      </trkpt>
      <trkpt lat="43.01617" lon="0.21266">
        <ele>1293.3</ele>
        <time>2023-11-19T12:26:32Z</time>
      </trkpt>
      <trkpt lat="43.01616" lon="0.21268">
        <ele>1293.3</ele>
        <time>2023-11-19T12:26:33Z</time>
      </trkpt>
      <trkpt lat="43.01615" lon="0.2127">
        <ele>1293.3</ele>
        <time>2023-11-19T12:26:34Z</time>
      </trkpt>
      <trkpt lat="43.01615" lon="0.21272">
        <ele>1293.3</ele>
        <time>2023-11-19T12:26:35Z</time>
      </trkpt>
      <trkpt lat="43.01614" lon="0.21274">
        <ele>1293.3</ele>
        <time>2023-11-19T12:26:36Z</time>
      </trkpt>
      <trkpt lat="43.01614" lon="0.21276">
        <ele>1293.3</ele>
        <time>2023-11-19T12:26:37Z</time>
      </trkpt>
      <trkpt lat="43.01613" lon="0.21277">
        <ele>1293.4</ele>
        <time>2023-11-19T12:26:38Z</time>
      </trkpt>
      <trkpt lat="43.01612" lon="0.21279">
        <ele>1293.4</ele>
        <time>2023-11-19T12:26:39Z</time>
      </trkpt>
      <trkpt lat="43.01612" lon="0.21281">
        <ele>1293.4</ele>
        <time>2023-11-19T12:26:40Z</time>
      </trkpt>
      <trkpt lat="43.01611" lon="0.21282">
        <ele>1293.4</ele>
        <time>2023-11-19T12:26:41Z</time>
      </trkpt>
      <trkpt lat="43.0161" lon="0.21284">
        <ele>1293.5</ele>
        <time>2023-11-19T12:26:42Z</time>
      </trkpt>
      <trkpt lat="43.0161" lon="0.21286">
        <ele>1293.5</ele>
        <time>2023-11-19T12:26:43Z</time>
      </trkpt>
      <trkpt lat="43.0161" lon="0.21288">
        <ele>1293.5</ele>
        <time>2023-11-19T12:26:44Z</time>
      </trkpt>
      <trkpt lat="43.0161" lon="0.21289">
        <ele>1293.6</ele>
        <time>2023-11-19T12:26:45Z</time>
      </trkpt>
      <trkpt lat="43.01609" lon="0.2129">
        <ele>1293.6</ele>
        <time>2023-11-19T12:26:46Z</time>
      </trkpt>
      <trkpt lat="43.01609" lon="0.21291">
        <ele>1293.6</ele>
        <time>2023-11-19T12:26:47Z</time>
      </trkpt>
      <trkpt lat="43.0161" lon="0.21291">
        <ele>1293.7</ele>
        <time>2023-11-19T12:26:48Z</time>
      </trkpt>
      <trkpt lat="43.0161" lon="0.21292">
        <ele>1293.7</ele>
        <time>2023-11-19T12:26:49Z</time>
      </trkpt>
      <trkpt lat="43.01609" lon="0.21295">
        <ele>1293.8</ele>
        <time>2023-11-19T12:26:50Z</time>
      </trkpt>
      <trkpt lat="43.01609" lon="0.21296">
        <ele>1293.8</ele>
        <time>2023-11-19T12:26:51Z</time>
      </trkpt>
      <trkpt lat="43.01609" lon="0.21297">
        <ele>1293.8</ele>
        <time>2023-11-19T12:26:52Z</time>
      </trkpt>
      <trkpt lat="43.01609" lon="0.21297">
        <ele>1293.8</ele>
        <time>2023-11-19T12:26:53Z</time>
      </trkpt>
      <trkpt lat="43.0161" lon="0.21299">
        <ele>1293.8</ele>
        <time>2023-11-19T12:26:54Z</time>
      </trkpt>
      <trkpt lat="43.01611" lon="0.21302">
        <ele>1293.9</ele>
        <time>2023-11-19T12:26:55Z</time>
      </trkpt>
      <trkpt lat="43.01611" lon="0.21302">
        <ele>1293.9</ele>
        <time>2023-11-19T12:26:56Z</time>
      </trkpt>
      <trkpt lat="43.0161" lon="0.21304">
        <ele>1293.9</ele>
        <time>2023-11-19T12:26:57Z</time>
      </trkpt>
      <trkpt lat="43.0161" lon="0.21305">
        <ele>1294</ele>
        <time>2023-11-19T12:26:58Z</time>
      </trkpt>
      <trkpt lat="43.0161" lon="0.21306">
        <ele>1294</ele>
        <time>2023-11-19T12:26:59Z</time>
      </trkpt>
      <trkpt lat="43.0161" lon="0.21307">
        <ele>1294</ele>
        <time>2023-11-19T12:27:00Z</time>
      </trkpt>
      <trkpt lat="43.0161" lon="0.21309">
        <ele>1294</ele>
        <time>2023-11-19T12:27:01Z</time>
      </trkpt>
      <trkpt lat="43.0161" lon="0.21311">
        <ele>1294.1</ele>
        <time>2023-11-19T12:27:02Z</time>
      </trkpt>
      <trkpt lat="43.01608" lon="0.21314">
        <ele>1294.1</ele>
        <time>2023-11-19T12:27:03Z</time>
      </trkpt>
      <trkpt lat="43.01608" lon="0.21315">
        <ele>1294.1</ele>
        <time>2023-11-19T12:27:04Z</time>
      </trkpt>
      <trkpt lat="43.01607" lon="0.21316">
        <ele>1294.2</ele>
        <time>2023-11-19T12:27:05Z</time>
      </trkpt>
      <trkpt lat="43.01607" lon="0.21317">
        <ele>1294.2</ele>
        <time>2023-11-19T12:27:06Z</time>
      </trkpt>
      <trkpt lat="43.01607" lon="0.21318">
        <ele>1294.2</ele>
        <time>2023-11-19T12:27:07Z</time>
      </trkpt>
      <trkpt lat="43.01608" lon="0.2132">
        <ele>1294.2</ele>
        <time>2023-11-19T12:27:08Z</time>
      </trkpt>
      <trkpt lat="43.01608" lon="0.21321">
        <ele>1294.2</ele>
        <time>2023-11-19T12:27:09Z</time>
      </trkpt>
      <trkpt lat="43.01608" lon="0.21322">
        <ele>1294.2</ele>
        <time>2023-11-19T12:27:10Z</time>
      </trkpt>
      <trkpt lat="43.01608" lon="0.21324">
        <ele>1294.2</ele>
        <time>2023-11-19T12:27:11Z</time>
      </trkpt>
      <trkpt lat="43.01607" lon="0.21327">
        <ele>1294.3</ele>
        <time>2023-11-19T12:27:12Z</time>
      </trkpt>
      <trkpt lat="43.01607" lon="0.21329">
        <ele>1294.3</ele>
        <time>2023-11-19T12:27:13Z</time>
      </trkpt>
      <trkpt lat="43.01606" lon="0.21331">
        <ele>1294.3</ele>
        <time>2023-11-19T12:27:14Z</time>
      </trkpt>
      <trkpt lat="43.01605" lon="0.21332">
        <ele>1294.3</ele>
        <time>2023-11-19T12:27:15Z</time>
      </trkpt>
      <trkpt lat="43.01605" lon="0.21333">
        <ele>1294.3</ele>
        <time>2023-11-19T12:27:16Z</time>
      </trkpt>
      <trkpt lat="43.01604" lon="0.21334">
        <ele>1294.3</ele>
        <time>2023-11-19T12:27:17Z</time>
      </trkpt>
      <trkpt lat="43.01604" lon="0.21335">
        <ele>1294.3</ele>
        <time>2023-11-19T12:27:18Z</time>
      </trkpt>
      <trkpt lat="43.01603" lon="0.21338">
        <ele>1294.2</ele>
        <time>2023-11-19T12:27:19Z</time>
      </trkpt>
      <trkpt lat="43.01602" lon="0.21339">
        <ele>1294.2</ele>
        <time>2023-11-19T12:27:20Z</time>
      </trkpt>
      <trkpt lat="43.01602" lon="0.2134">
        <ele>1294.2</ele>
        <time>2023-11-19T12:27:21Z</time>
      </trkpt>
      <trkpt lat="43.01601" lon="0.21341">
        <ele>1294.2</ele>
        <time>2023-11-19T12:27:22Z</time>
      </trkpt>
      <trkpt lat="43.01601" lon="0.21342">
        <ele>1294.2</ele>
        <time>2023-11-19T12:27:23Z</time>
      </trkpt>
      <trkpt lat="43.01602" lon="0.21342">
        <ele>1294.2</ele>
        <time>2023-11-19T12:27:24Z</time>
      </trkpt>
      <trkpt lat="43.01602" lon="0.21344">
        <ele>1294.2</ele>
        <time>2023-11-19T12:27:25Z</time>
      </trkpt>
      <trkpt lat="43.01602" lon="0.21346">
        <ele>1294.1</ele>
        <time>2023-11-19T12:27:26Z</time>
      </trkpt>
      <trkpt lat="43.01602" lon="0.21347">
        <ele>1294.1</ele>
        <time>2023-11-19T12:27:27Z</time>
      </trkpt>
      <trkpt lat="43.01602" lon="0.21348">
        <ele>1294.1</ele>
        <time>2023-11-19T12:27:28Z</time>
      </trkpt>
      <trkpt lat="43.01601" lon="0.21349">
        <ele>1294</ele>
        <time>2023-11-19T12:27:29Z</time>
      </trkpt>
      <trkpt lat="43.016" lon="0.21351">
        <ele>1294</ele>
        <time>2023-11-19T12:27:31Z</time>
      </trkpt>
      <trkpt lat="43.01599" lon="0.21352">
        <ele>1293.9</ele>
        <time>2023-11-19T12:27:32Z</time>
      </trkpt>
      <trkpt lat="43.01599" lon="0.21353">
        <ele>1293.9</ele>
        <time>2023-11-19T12:27:33Z</time>
      </trkpt>
      <trkpt lat="43.01598" lon="0.21354">
        <ele>1293.9</ele>
        <time>2023-11-19T12:27:34Z</time>
      </trkpt>
      <trkpt lat="43.01598" lon="0.21354">
        <ele>1293.9</ele>
        <time>2023-11-19T12:27:35Z</time>
      </trkpt>
      <trkpt lat="43.01597" lon="0.21355">
        <ele>1293.8</ele>
        <time>2023-11-19T12:27:36Z</time>
      </trkpt>
      <trkpt lat="43.01597" lon="0.21356">
        <ele>1293.8</ele>
        <time>2023-11-19T12:27:37Z</time>
      </trkpt>
      <trkpt lat="43.01597" lon="0.21358">
        <ele>1293.8</ele>
        <time>2023-11-19T12:27:38Z</time>
      </trkpt>
      <trkpt lat="43.01598" lon="0.21357">
        <ele>1293.7</ele>
        <time>2023-11-19T12:27:39Z</time>
      </trkpt>
      <trkpt lat="43.01597" lon="0.21359">
        <ele>1293.6</ele>
        <time>2023-11-19T12:27:40Z</time>
      </trkpt>
      <trkpt lat="43.01596" lon="0.21362">
        <ele>1293.5</ele>
        <time>2023-11-19T12:27:41Z</time>
      </trkpt>
      <trkpt lat="43.01596" lon="0.21363">
        <ele>1293.5</ele>
        <time>2023-11-19T12:27:42Z</time>
      </trkpt>
      <trkpt lat="43.01596" lon="0.21362">
        <ele>1293.5</ele>
        <time>2023-11-19T12:27:43Z</time>
      </trkpt>
      <trkpt lat="43.01596" lon="0.21363">
        <ele>1293.4</ele>
        <time>2023-11-19T12:27:44Z</time>
      </trkpt>
      <trkpt lat="43.01594" lon="0.21364">
        <ele>1293.3</ele>
        <time>2023-11-19T12:27:45Z</time>
      </trkpt>
      <trkpt lat="43.01593" lon="0.21365">
        <ele>1293.2</ele>
        <time>2023-11-19T12:27:46Z</time>
      </trkpt>
      <trkpt lat="43.01591" lon="0.21366">
        <ele>1293.1</ele>
        <time>2023-11-19T12:27:47Z</time>
      </trkpt>
      <trkpt lat="43.01591" lon="0.21368">
        <ele>1293</ele>
        <time>2023-11-19T12:27:48Z</time>
      </trkpt>
      <trkpt lat="43.0159" lon="0.21369">
        <ele>1292.9</ele>
        <time>2023-11-19T12:27:49Z</time>
      </trkpt>
      <trkpt lat="43.01589" lon="0.21371">
        <ele>1292.8</ele>
        <time>2023-11-19T12:27:50Z</time>
      </trkpt>
      <trkpt lat="43.01588" lon="0.21372">
        <ele>1292.7</ele>
        <time>2023-11-19T12:27:51Z</time>
      </trkpt>
      <trkpt lat="43.01588" lon="0.21375">
        <ele>1292.6</ele>
        <time>2023-11-19T12:27:52Z</time>
      </trkpt>
      <trkpt lat="43.01587" lon="0.21376">
        <ele>1292.5</ele>
        <time>2023-11-19T12:27:53Z</time>
      </trkpt>
      <trkpt lat="43.01586" lon="0.21378">
        <ele>1292.4</ele>
        <time>2023-11-19T12:27:54Z</time>
      </trkpt>
      <trkpt lat="43.01586" lon="0.21379">
        <ele>1292.4</ele>
        <time>2023-11-19T12:27:55Z</time>
      </trkpt>
      <trkpt lat="43.01586" lon="0.2138">
        <ele>1292.3</ele>
        <time>2023-11-19T12:27:56Z</time>
      </trkpt>
      <trkpt lat="43.01584" lon="0.21383">
        <ele>1292.2</ele>
        <time>2023-11-19T12:27:57Z</time>
      </trkpt>
      <trkpt lat="43.01583" lon="0.21384">
        <ele>1292.1</ele>
        <time>2023-11-19T12:27:58Z</time>
      </trkpt>
      <trkpt lat="43.01582" lon="0.21385">
        <ele>1292.1</ele>
        <time>2023-11-19T12:27:59Z</time>
      </trkpt>
      <trkpt lat="43.01581" lon="0.21386">
        <ele>1292</ele>
        <time>2023-11-19T12:28:00Z</time>
      </trkpt>
      <trkpt lat="43.0158" lon="0.21388">
        <ele>1291.9</ele>
        <time>2023-11-19T12:28:01Z</time>
      </trkpt>
      <trkpt lat="43.0158" lon="0.21389">
        <ele>1291.9</ele>
        <time>2023-11-19T12:28:02Z</time>
      </trkpt>
      <trkpt lat="43.01579" lon="0.2139">
        <ele>1291.8</ele>
        <time>2023-11-19T12:28:03Z</time>
      </trkpt>
      <trkpt lat="43.01579" lon="0.2139">
        <ele>1291.8</ele>
        <time>2023-11-19T12:28:04Z</time>
      </trkpt>
      <trkpt lat="43.01578" lon="0.2139">
        <ele>1291.7</ele>
        <time>2023-11-19T12:28:05Z</time>
      </trkpt>
      <trkpt lat="43.01577" lon="0.21391">
        <ele>1291.7</ele>
        <time>2023-11-19T12:28:06Z</time>
      </trkpt>
      <trkpt lat="43.01576" lon="0.2139">
        <ele>1291.6</ele>
        <time>2023-11-19T12:28:07Z</time>
      </trkpt>
      <trkpt lat="43.01575" lon="0.21392">
        <ele>1291.5</ele>
        <time>2023-11-19T12:28:08Z</time>
      </trkpt>
      <trkpt lat="43.01575" lon="0.21394">
        <ele>1291.4</ele>
        <time>2023-11-19T12:28:09Z</time>
      </trkpt>
      <trkpt lat="43.01574" lon="0.21396">
        <ele>1291.4</ele>
        <time>2023-11-19T12:28:10Z</time>
      </trkpt>
      <trkpt lat="43.01573" lon="0.21397">
        <ele>1291.4</ele>
        <time>2023-11-19T12:28:11Z</time>
      </trkpt>
      <trkpt lat="43.01572" lon="0.21398">
        <ele>1291.3</ele>
        <time>2023-11-19T12:28:12Z</time>
      </trkpt>
      <trkpt lat="43.01571" lon="0.21398">
        <ele>1291.2</ele>
        <time>2023-11-19T12:28:13Z</time>
      </trkpt>
      <trkpt lat="43.0157" lon="0.214">
        <ele>1291.2</ele>
        <time>2023-11-19T12:28:14Z</time>
      </trkpt>
      <trkpt lat="43.0157" lon="0.21401">
        <ele>1291.1</ele>
        <time>2023-11-19T12:28:15Z</time>
      </trkpt>
      <trkpt lat="43.01569" lon="0.21402">
        <ele>1291.1</ele>
        <time>2023-11-19T12:28:16Z</time>
      </trkpt>
      <trkpt lat="43.01567" lon="0.21403">
        <ele>1291</ele>
        <time>2023-11-19T12:28:17Z</time>
      </trkpt>
      <trkpt lat="43.01567" lon="0.21403">
        <ele>1291</ele>
        <time>2023-11-19T12:28:18Z</time>
      </trkpt>
      <trkpt lat="43.01567" lon="0.21404">
        <ele>1291</ele>
        <time>2023-11-19T12:28:19Z</time>
      </trkpt>
      <trkpt lat="43.01566" lon="0.21404">
        <ele>1291</ele>
        <time>2023-11-19T12:28:20Z</time>
      </trkpt>
      <trkpt lat="43.01565" lon="0.21406">
        <ele>1290.9</ele>
        <time>2023-11-19T12:28:21Z</time>
      </trkpt>
      <trkpt lat="43.01564" lon="0.21407">
        <ele>1290.9</ele>
        <time>2023-11-19T12:28:22Z</time>
      </trkpt>
      <trkpt lat="43.01563" lon="0.21409">
        <ele>1290.8</ele>
        <time>2023-11-19T12:28:23Z</time>
      </trkpt>
      <trkpt lat="43.01563" lon="0.21409">
        <ele>1290.8</ele>
        <time>2023-11-19T12:28:24Z</time>
      </trkpt>
      <trkpt lat="43.01562" lon="0.21409">
        <ele>1290.8</ele>
        <time>2023-11-19T12:28:25Z</time>
      </trkpt>
      <trkpt lat="43.01561" lon="0.21411">
        <ele>1290.7</ele>
        <time>2023-11-19T12:28:26Z</time>
      </trkpt>
      <trkpt lat="43.01562" lon="0.21413">
        <ele>1290.7</ele>
        <time>2023-11-19T12:28:27Z</time>
      </trkpt>
      <trkpt lat="43.0156" lon="0.21417">
        <ele>1290.6</ele>
        <time>2023-11-19T12:28:28Z</time>
      </trkpt>
      <trkpt lat="43.01559" lon="0.21416">
        <ele>1290.6</ele>
        <time>2023-11-19T12:28:29Z</time>
      </trkpt>
      <trkpt lat="43.01559" lon="0.21417">
        <ele>1290.6</ele>
        <time>2023-11-19T12:28:30Z</time>
      </trkpt>
      <trkpt lat="43.01559" lon="0.21417">
        <ele>1290.6</ele>
        <time>2023-11-19T12:28:31Z</time>
      </trkpt>
      <trkpt lat="43.01558" lon="0.21417">
        <ele>1290.6</ele>
        <time>2023-11-19T12:28:32Z</time>
      </trkpt>
      <trkpt lat="43.01558" lon="0.2142">
        <ele>1290.6</ele>
        <time>2023-11-19T12:28:33Z</time>
      </trkpt>
      <trkpt lat="43.01556" lon="0.21422">
        <ele>1290.5</ele>
        <time>2023-11-19T12:28:34Z</time>
      </trkpt>
      <trkpt lat="43.01555" lon="0.21422">
        <ele>1290.5</ele>
        <time>2023-11-19T12:28:35Z</time>
      </trkpt>
      <trkpt lat="43.01554" lon="0.21423">
        <ele>1290.5</ele>
        <time>2023-11-19T12:28:36Z</time>
      </trkpt>
      <trkpt lat="43.01553" lon="0.21423">
        <ele>1290.5</ele>
        <time>2023-11-19T12:28:37Z</time>
      </trkpt>
      <trkpt lat="43.01552" lon="0.21424">
        <ele>1290.5</ele>
        <time>2023-11-19T12:28:38Z</time>
      </trkpt>
      <trkpt lat="43.01552" lon="0.21426">
        <ele>1290.5</ele>
        <time>2023-11-19T12:28:39Z</time>
      </trkpt>
      <trkpt lat="43.01551" lon="0.21428">
        <ele>1290.5</ele>
        <time>2023-11-19T12:28:40Z</time>
      </trkpt>
      <trkpt lat="43.0155" lon="0.2143">
        <ele>1290.5</ele>
        <time>2023-11-19T12:28:41Z</time>
      </trkpt>
      <trkpt lat="43.0155" lon="0.21431">
        <ele>1290.5</ele>
        <time>2023-11-19T12:28:42Z</time>
      </trkpt>
      <trkpt lat="43.0155" lon="0.21432">
        <ele>1290.6</ele>
        <time>2023-11-19T12:28:43Z</time>
      </trkpt>
      <trkpt lat="43.01551" lon="0.21434">
        <ele>1290.6</ele>
        <time>2023-11-19T12:28:44Z</time>
      </trkpt>
      <trkpt lat="43.0155" lon="0.21435">
        <ele>1290.6</ele>
        <time>2023-11-19T12:28:45Z</time>
      </trkpt>
      <trkpt lat="43.01548" lon="0.21436">
        <ele>1290.6</ele>
        <time>2023-11-19T12:28:46Z</time>
      </trkpt>
      <trkpt lat="43.01549" lon="0.21438">
        <ele>1290.6</ele>
        <time>2023-11-19T12:28:47Z</time>
      </trkpt>
      <trkpt lat="43.0155" lon="0.2144">
        <ele>1290.7</ele>
        <time>2023-11-19T12:28:48Z</time>
      </trkpt>
      <trkpt lat="43.0155" lon="0.21443">
        <ele>1290.7</ele>
        <time>2023-11-19T12:28:49Z</time>
      </trkpt>
      <trkpt lat="43.01548" lon="0.21444">
        <ele>1290.7</ele>
        <time>2023-11-19T12:28:50Z</time>
      </trkpt>
      <trkpt lat="43.01547" lon="0.21446">
        <ele>1290.8</ele>
        <time>2023-11-19T12:28:51Z</time>
      </trkpt>
      <trkpt lat="43.01547" lon="0.21448">
        <ele>1290.8</ele>
        <time>2023-11-19T12:28:52Z</time>
      </trkpt>
      <trkpt lat="43.01546" lon="0.2145">
        <ele>1290.8</ele>
        <time>2023-11-19T12:28:53Z</time>
      </trkpt>
      <trkpt lat="43.01545" lon="0.21451">
        <ele>1290.9</ele>
        <time>2023-11-19T12:28:54Z</time>
      </trkpt>
      <trkpt lat="43.01544" lon="0.21452">
        <ele>1290.9</ele>
        <time>2023-11-19T12:28:55Z</time>
      </trkpt>
      <trkpt lat="43.01544" lon="0.21454">
        <ele>1290.9</ele>
        <time>2023-11-19T12:28:56Z</time>
      </trkpt>
      <trkpt lat="43.01544" lon="0.21456">
        <ele>1290.9</ele>
        <time>2023-11-19T12:28:57Z</time>
      </trkpt>
      <trkpt lat="43.01543" lon="0.21457">
        <ele>1291</ele>
        <time>2023-11-19T12:28:58Z</time>
      </trkpt>
      <trkpt lat="43.01543" lon="0.21458">
        <ele>1291</ele>
        <time>2023-11-19T12:28:59Z</time>
      </trkpt>
      <trkpt lat="43.01543" lon="0.2146">
        <ele>1291</ele>
        <time>2023-11-19T12:29:00Z</time>
      </trkpt>
      <trkpt lat="43.01542" lon="0.2146">
        <ele>1291.1</ele>
        <time>2023-11-19T12:29:01Z</time>
      </trkpt>
      <trkpt lat="43.01541" lon="0.21462">
        <ele>1291.1</ele>
        <time>2023-11-19T12:29:02Z</time>
      </trkpt>
      <trkpt lat="43.0154" lon="0.21463">
        <ele>1291.1</ele>
        <time>2023-11-19T12:29:03Z</time>
      </trkpt>
      <trkpt lat="43.01539" lon="0.21463">
        <ele>1291.2</ele>
        <time>2023-11-19T12:29:04Z</time>
      </trkpt>
      <trkpt lat="43.01538" lon="0.21464">
        <ele>1291.2</ele>
        <time>2023-11-19T12:29:05Z</time>
      </trkpt>
      <trkpt lat="43.01537" lon="0.21465">
        <ele>1291.2</ele>
        <time>2023-11-19T12:29:06Z</time>
      </trkpt>
      <trkpt lat="43.01536" lon="0.21467">
        <ele>1291.3</ele>
        <time>2023-11-19T12:29:07Z</time>
      </trkpt>
      <trkpt lat="43.01535" lon="0.2147">
        <ele>1291.3</ele>
        <time>2023-11-19T12:29:08Z</time>
      </trkpt>
      <trkpt lat="43.01534" lon="0.2147">
        <ele>1291.3</ele>
        <time>2023-11-19T12:29:09Z</time>
      </trkpt>
      <trkpt lat="43.01534" lon="0.21471">
        <ele>1291.4</ele>
        <time>2023-11-19T12:29:10Z</time>
      </trkpt>
      <trkpt lat="43.01534" lon="0.21474">
        <ele>1291.4</ele>
        <time>2023-11-19T12:29:11Z</time>
      </trkpt>
      <trkpt lat="43.01533" lon="0.21475">
        <ele>1291.4</ele>
        <time>2023-11-19T12:29:12Z</time>
      </trkpt>
      <trkpt lat="43.01533" lon="0.21476">
        <ele>1291.5</ele>
        <time>2023-11-19T12:29:13Z</time>
      </trkpt>
      <trkpt lat="43.01532" lon="0.21477">
        <ele>1291.5</ele>
        <time>2023-11-19T12:29:14Z</time>
      </trkpt>
      <trkpt lat="43.01532" lon="0.21478">
        <ele>1291.5</ele>
        <time>2023-11-19T12:29:15Z</time>
      </trkpt>
      <trkpt lat="43.01531" lon="0.21478">
        <ele>1291.5</ele>
        <time>2023-11-19T12:29:16Z</time>
      </trkpt>
      <trkpt lat="43.0153" lon="0.2148">
        <ele>1291.6</ele>
        <time>2023-11-19T12:29:17Z</time>
      </trkpt>
      <trkpt lat="43.01529" lon="0.21479">
        <ele>1291.6</ele>
        <time>2023-11-19T12:29:18Z</time>
      </trkpt>
      <trkpt lat="43.0153" lon="0.21482">
        <ele>1291.7</ele>
        <time>2023-11-19T12:29:19Z</time>
      </trkpt>
      <trkpt lat="43.0153" lon="0.21484">
        <ele>1291.7</ele>
        <time>2023-11-19T12:29:20Z</time>
      </trkpt>
      <trkpt lat="43.01531" lon="0.21485">
        <ele>1291.8</ele>
        <time>2023-11-19T12:29:21Z</time>
      </trkpt>
      <trkpt lat="43.0153" lon="0.21488">
        <ele>1291.8</ele>
        <time>2023-11-19T12:29:22Z</time>
      </trkpt>
      <trkpt lat="43.01531" lon="0.21492">
        <ele>1291.9</ele>
        <time>2023-11-19T12:29:23Z</time>
      </trkpt>
      <trkpt lat="43.01531" lon="0.21493">
        <ele>1291.9</ele>
        <time>2023-11-19T12:29:24Z</time>
      </trkpt>
      <trkpt lat="43.01531" lon="0.21494">
        <ele>1291.9</ele>
        <time>2023-11-19T12:29:25Z</time>
      </trkpt>
      <trkpt lat="43.01532" lon="0.21496">
        <ele>1292</ele>
        <time>2023-11-19T12:29:26Z</time>
      </trkpt>
      <trkpt lat="43.01531" lon="0.21498">
        <ele>1292</ele>
        <time>2023-11-19T12:29:27Z</time>
      </trkpt>
      <trkpt lat="43.0153" lon="0.215">
        <ele>1292.1</ele>
        <time>2023-11-19T12:29:28Z</time>
      </trkpt>
      <trkpt lat="43.01531" lon="0.21501">
        <ele>1292.2</ele>
        <time>2023-11-19T12:29:29Z</time>
      </trkpt>
      <trkpt lat="43.01531" lon="0.21502">
        <ele>1292.2</ele>
        <time>2023-11-19T12:29:30Z</time>
      </trkpt>
      <trkpt lat="43.01529" lon="0.21504">
        <ele>1292.2</ele>
        <time>2023-11-19T12:29:31Z</time>
      </trkpt>
      <trkpt lat="43.01529" lon="0.21505">
        <ele>1292.3</ele>
        <time>2023-11-19T12:29:32Z</time>
      </trkpt>
      <trkpt lat="43.01528" lon="0.21506">
        <ele>1292.3</ele>
        <time>2023-11-19T12:29:33Z</time>
      </trkpt>
      <trkpt lat="43.01525" lon="0.21507">
        <ele>1292.4</ele>
        <time>2023-11-19T12:29:34Z</time>
      </trkpt>
      <trkpt lat="43.01524" lon="0.21507">
        <ele>1292.5</ele>
        <time>2023-11-19T12:29:35Z</time>
      </trkpt>
      <trkpt lat="43.01525" lon="0.21508">
        <ele>1292.5</ele>
        <time>2023-11-19T12:29:37Z</time>
      </trkpt>
      <trkpt lat="43.01523" lon="0.21508">
        <ele>1292.6</ele>
        <time>2023-11-19T12:29:38Z</time>
      </trkpt>
      <trkpt lat="43.01523" lon="0.21509">
        <ele>1292.6</ele>
        <time>2023-11-19T12:29:39Z</time>
      </trkpt>
      <trkpt lat="43.01522" lon="0.21511">
        <ele>1292.7</ele>
        <time>2023-11-19T12:29:40Z</time>
      </trkpt>
      <trkpt lat="43.01522" lon="0.21514">
        <ele>1292.8</ele>
        <time>2023-11-19T12:29:41Z</time>
      </trkpt>
      <trkpt lat="43.01521" lon="0.21515">
        <ele>1292.8</ele>
        <time>2023-11-19T12:29:42Z</time>
      </trkpt>
      <trkpt lat="43.01521" lon="0.21516">
        <ele>1292.8</ele>
        <time>2023-11-19T12:29:43Z</time>
      </trkpt>
      <trkpt lat="43.0152" lon="0.21517">
        <ele>1292.9</ele>
        <time>2023-11-19T12:29:44Z</time>
      </trkpt>
      <trkpt lat="43.0152" lon="0.21518">
        <ele>1292.9</ele>
        <time>2023-11-19T12:29:45Z</time>
      </trkpt>
      <trkpt lat="43.0152" lon="0.21519">
        <ele>1292.9</ele>
        <time>2023-11-19T12:29:46Z</time>
      </trkpt>
      <trkpt lat="43.01521" lon="0.2152">
        <ele>1293</ele>
        <time>2023-11-19T12:29:47Z</time>
      </trkpt>
      <trkpt lat="43.01522" lon="0.21518">
        <ele>1293.1</ele>
        <time>2023-11-19T12:29:48Z</time>
      </trkpt>
      <trkpt lat="43.01518" lon="0.21522">
        <ele>1293.2</ele>
        <time>2023-11-19T12:29:49Z</time>
      </trkpt>
      <trkpt lat="43.01517" lon="0.21523">
        <ele>1293.2</ele>
        <time>2023-11-19T12:29:50Z</time>
      </trkpt>
      <trkpt lat="43.01518" lon="0.21524">
        <ele>1293.3</ele>
        <time>2023-11-19T12:29:51Z</time>
      </trkpt>
      <trkpt lat="43.01516" lon="0.21526">
        <ele>1293.3</ele>
        <time>2023-11-19T12:29:52Z</time>
      </trkpt>
      <trkpt lat="43.01515" lon="0.21528">
        <ele>1293.4</ele>
        <time>2023-11-19T12:29:53Z</time>
      </trkpt>
      <trkpt lat="43.01515" lon="0.21529">
        <ele>1293.4</ele>
        <time>2023-11-19T12:29:54Z</time>
      </trkpt>
      <trkpt lat="43.01514" lon="0.2153">
        <ele>1293.4</ele>
        <time>2023-11-19T12:29:55Z</time>
      </trkpt>
      <trkpt lat="43.01513" lon="0.21531">
        <ele>1293.5</ele>
        <time>2023-11-19T12:29:56Z</time>
      </trkpt>
      <trkpt lat="43.01513" lon="0.21532">
        <ele>1293.5</ele>
        <time>2023-11-19T12:29:57Z</time>
      </trkpt>
      <trkpt lat="43.01512" lon="0.21534">
        <ele>1293.5</ele>
        <time>2023-11-19T12:29:58Z</time>
      </trkpt>
      <trkpt lat="43.01511" lon="0.21535">
        <ele>1293.5</ele>
        <time>2023-11-19T12:29:59Z</time>
      </trkpt>
      <trkpt lat="43.01511" lon="0.21537">
        <ele>1293.6</ele>
        <time>2023-11-19T12:30:00Z</time>
      </trkpt>
      <trkpt lat="43.0151" lon="0.21539">
        <ele>1293.6</ele>
        <time>2023-11-19T12:30:01Z</time>
      </trkpt>
      <trkpt lat="43.0151" lon="0.2154">
        <ele>1293.6</ele>
        <time>2023-11-19T12:30:02Z</time>
      </trkpt>
      <trkpt lat="43.01509" lon="0.2154">
        <ele>1293.6</ele>
        <time>2023-11-19T12:30:03Z</time>
      </trkpt>
      <trkpt lat="43.01508" lon="0.2154">
        <ele>1293.6</ele>
        <time>2023-11-19T12:30:04Z</time>
      </trkpt>
      <trkpt lat="43.01507" lon="0.21541">
        <ele>1293.6</ele>
        <time>2023-11-19T12:30:05Z</time>
      </trkpt>
      <trkpt lat="43.01507" lon="0.21542">
        <ele>1293.6</ele>
        <time>2023-11-19T12:30:06Z</time>
      </trkpt>
      <trkpt lat="43.01506" lon="0.21542">
        <ele>1293.6</ele>
        <time>2023-11-19T12:30:07Z</time>
      </trkpt>
      <trkpt lat="43.01505" lon="0.21543">
        <ele>1293.6</ele>
        <time>2023-11-19T12:30:08Z</time>
      </trkpt>
      <trkpt lat="43.01505" lon="0.21545">
        <ele>1293.6</ele>
        <time>2023-11-19T12:30:09Z</time>
      </trkpt>
      <trkpt lat="43.01505" lon="0.21547">
        <ele>1293.6</ele>
        <time>2023-11-19T12:30:10Z</time>
      </trkpt>
      <trkpt lat="43.01505" lon="0.21548">
        <ele>1293.6</ele>
        <time>2023-11-19T12:30:11Z</time>
      </trkpt>
      <trkpt lat="43.01504" lon="0.2155">
        <ele>1293.6</ele>
        <time>2023-11-19T12:30:12Z</time>
      </trkpt>
      <trkpt lat="43.01504" lon="0.2155">
        <ele>1293.6</ele>
        <time>2023-11-19T12:30:13Z</time>
      </trkpt>
      <trkpt lat="43.01504" lon="0.21552">
        <ele>1293.6</ele>
        <time>2023-11-19T12:30:14Z</time>
      </trkpt>
      <trkpt lat="43.01504" lon="0.21554">
        <ele>1293.6</ele>
        <time>2023-11-19T12:30:15Z</time>
      </trkpt>
      <trkpt lat="43.01504" lon="0.21556">
        <ele>1293.6</ele>
        <time>2023-11-19T12:30:16Z</time>
      </trkpt>
      <trkpt lat="43.01506" lon="0.21556">
        <ele>1293.6</ele>
        <time>2023-11-19T12:30:17Z</time>
      </trkpt>
      <trkpt lat="43.01505" lon="0.21556">
        <ele>1293.6</ele>
        <time>2023-11-19T12:30:18Z</time>
      </trkpt>
      <trkpt lat="43.01505" lon="0.21557">
        <ele>1293.6</ele>
        <time>2023-11-19T12:30:19Z</time>
      </trkpt>
      <trkpt lat="43.01505" lon="0.21558">
        <ele>1293.6</ele>
        <time>2023-11-19T12:30:20Z</time>
      </trkpt>
      <trkpt lat="43.01505" lon="0.21559">
        <ele>1293.5</ele>
        <time>2023-11-19T12:30:21Z</time>
      </trkpt>
      <trkpt lat="43.01505" lon="0.21559">
        <ele>1293.5</ele>
        <time>2023-11-19T12:30:22Z</time>
      </trkpt>
      <trkpt lat="43.01506" lon="0.2156">
        <ele>1293.5</ele>
        <time>2023-11-19T12:30:23Z</time>
      </trkpt>
      <trkpt lat="43.01506" lon="0.2156">
        <ele>1293.5</ele>
        <time>2023-11-19T12:30:24Z</time>
      </trkpt>
      <trkpt lat="43.01507" lon="0.2156">
        <ele>1293.5</ele>
        <time>2023-11-19T12:30:25Z</time>
      </trkpt>
      <trkpt lat="43.01507" lon="0.2156">
        <ele>1293.5</ele>
        <time>2023-11-19T12:30:26Z</time>
      </trkpt>
      <trkpt lat="43.01508" lon="0.21562">
        <ele>1293.5</ele>
        <time>2023-11-19T12:30:27Z</time>
      </trkpt>
      <trkpt lat="43.01507" lon="0.21563">
        <ele>1293.5</ele>
        <time>2023-11-19T12:30:28Z</time>
      </trkpt>
      <trkpt lat="43.01506" lon="0.21563">
        <ele>1293.4</ele>
        <time>2023-11-19T12:30:29Z</time>
      </trkpt>
      <trkpt lat="43.01506" lon="0.21564">
        <ele>1293.4</ele>
        <time>2023-11-19T12:30:30Z</time>
      </trkpt>
      <trkpt lat="43.01506" lon="0.21564">
        <ele>1293.4</ele>
        <time>2023-11-19T12:30:31Z</time>
      </trkpt>
      <trkpt lat="43.01506" lon="0.21565">
        <ele>1293.4</ele>
        <time>2023-11-19T12:30:32Z</time>
      </trkpt>
      <trkpt lat="43.01506" lon="0.21565">
        <ele>1293.4</ele>
        <time>2023-11-19T12:30:33Z</time>
      </trkpt>
      <trkpt lat="43.01505" lon="0.21565">
        <ele>1293.4</ele>
        <time>2023-11-19T12:30:34Z</time>
      </trkpt>
      <trkpt lat="43.01505" lon="0.21565">
        <ele>1293.4</ele>
        <time>2023-11-19T12:30:35Z</time>
      </trkpt>
      <trkpt lat="43.01503" lon="0.21566">
        <ele>1293.4</ele>
        <time>2023-11-19T12:30:36Z</time>
      </trkpt>
      <trkpt lat="43.01504" lon="0.21564">
        <ele>1293.3</ele>
        <time>2023-11-19T12:30:37Z</time>
      </trkpt>
      <trkpt lat="43.01504" lon="0.21564">
        <ele>1293.3</ele>
        <time>2023-11-19T12:30:38Z</time>
      </trkpt>
      <trkpt lat="43.01504" lon="0.21564">
        <ele>1293.3</ele>
        <time>2023-11-19T12:30:39Z</time>
      </trkpt>
      <trkpt lat="43.01503" lon="0.21564">
        <ele>1293.3</ele>
        <time>2023-11-19T12:30:40Z</time>
      </trkpt>
      <trkpt lat="43.01502" lon="0.21564">
        <ele>1293.3</ele>
        <time>2023-11-19T12:30:41Z</time>
      </trkpt>
      <trkpt lat="43.01502" lon="0.21566">
        <ele>1293.3</ele>
        <time>2023-11-19T12:30:42Z</time>
      </trkpt>
      <trkpt lat="43.01503" lon="0.21567">
        <ele>1293.3</ele>
        <time>2023-11-19T12:30:43Z</time>
      </trkpt>
      <trkpt lat="43.01502" lon="0.2157">
        <ele>1293.2</ele>
        <time>2023-11-19T12:30:44Z</time>
      </trkpt>
      <trkpt lat="43.01501" lon="0.21572">
        <ele>1293.2</ele>
        <time>2023-11-19T12:30:45Z</time>
      </trkpt>
      <trkpt lat="43.015" lon="0.21573">
        <ele>1293.2</ele>
        <time>2023-11-19T12:30:46Z</time>
      </trkpt>
      <trkpt lat="43.01499" lon="0.21574">
        <ele>1293.2</ele>
        <time>2023-11-19T12:30:47Z</time>
      </trkpt>
      <trkpt lat="43.01499" lon="0.21576">
        <ele>1293.1</ele>
        <time>2023-11-19T12:30:48Z</time>
      </trkpt>
      <trkpt lat="43.01498" lon="0.21578">
        <ele>1293.1</ele>
        <time>2023-11-19T12:30:49Z</time>
      </trkpt>
      <trkpt lat="43.01498" lon="0.2158">
        <ele>1293</ele>
        <time>2023-11-19T12:30:50Z</time>
      </trkpt>
      <trkpt lat="43.01498" lon="0.21581">
        <ele>1293</ele>
        <time>2023-11-19T12:30:51Z</time>
      </trkpt>
      <trkpt lat="43.01498" lon="0.21583">
        <ele>1293</ele>
        <time>2023-11-19T12:30:52Z</time>
      </trkpt>
      <trkpt lat="43.01498" lon="0.21585">
        <ele>1292.9</ele>
        <time>2023-11-19T12:30:53Z</time>
      </trkpt>
      <trkpt lat="43.01497" lon="0.21586">
        <ele>1292.9</ele>
        <time>2023-11-19T12:30:54Z</time>
      </trkpt>
      <trkpt lat="43.01496" lon="0.21587">
        <ele>1292.8</ele>
        <time>2023-11-19T12:30:55Z</time>
      </trkpt>
      <trkpt lat="43.01496" lon="0.2159">
        <ele>1292.8</ele>
        <time>2023-11-19T12:30:56Z</time>
      </trkpt>
      <trkpt lat="43.01496" lon="0.21592">
        <ele>1292.7</ele>
        <time>2023-11-19T12:30:57Z</time>
      </trkpt>
      <trkpt lat="43.01497" lon="0.21593">
        <ele>1292.6</ele>
        <time>2023-11-19T12:30:58Z</time>
      </trkpt>
      <trkpt lat="43.01497" lon="0.21595">
        <ele>1292.6</ele>
        <time>2023-11-19T12:30:59Z</time>
      </trkpt>
      <trkpt lat="43.01498" lon="0.21597">
        <ele>1292.5</ele>
        <time>2023-11-19T12:31:00Z</time>
      </trkpt>
      <trkpt lat="43.01498" lon="0.216">
        <ele>1292.4</ele>
        <time>2023-11-19T12:31:01Z</time>
      </trkpt>
      <trkpt lat="43.01498" lon="0.21601">
        <ele>1292.3</ele>
        <time>2023-11-19T12:31:02Z</time>
      </trkpt>
      <trkpt lat="43.01497" lon="0.21602">
        <ele>1292.3</ele>
        <time>2023-11-19T12:31:03Z</time>
      </trkpt>
      <trkpt lat="43.01497" lon="0.21604">
        <ele>1292.2</ele>
        <time>2023-11-19T12:31:04Z</time>
      </trkpt>
      <trkpt lat="43.01497" lon="0.21605">
        <ele>1292.2</ele>
        <time>2023-11-19T12:31:05Z</time>
      </trkpt>
      <trkpt lat="43.01497" lon="0.21608">
        <ele>1292.1</ele>
        <time>2023-11-19T12:31:06Z</time>
      </trkpt>
      <trkpt lat="43.01496" lon="0.2161">
        <ele>1292</ele>
        <time>2023-11-19T12:31:07Z</time>
      </trkpt>
      <trkpt lat="43.01496" lon="0.21612">
        <ele>1291.9</ele>
        <time>2023-11-19T12:31:08Z</time>
      </trkpt>
      <trkpt lat="43.01495" lon="0.21615">
        <ele>1291.8</ele>
        <time>2023-11-19T12:31:09Z</time>
      </trkpt>
      <trkpt lat="43.01495" lon="0.21617">
        <ele>1291.7</ele>
        <time>2023-11-19T12:31:10Z</time>
      </trkpt>
      <trkpt lat="43.01495" lon="0.21619">
        <ele>1291.6</ele>
        <time>2023-11-19T12:31:11Z</time>
      </trkpt>
      <trkpt lat="43.01494" lon="0.21621">
        <ele>1291.6</ele>
        <time>2023-11-19T12:31:12Z</time>
      </trkpt>
      <trkpt lat="43.01494" lon="0.21623">
        <ele>1291.5</ele>
        <time>2023-11-19T12:31:13Z</time>
      </trkpt>
      <trkpt lat="43.01494" lon="0.21624">
        <ele>1291.4</ele>
        <time>2023-11-19T12:31:14Z</time>
      </trkpt>
      <trkpt lat="43.01493" lon="0.21625">
        <ele>1291.4</ele>
        <time>2023-11-19T12:31:15Z</time>
      </trkpt>
      <trkpt lat="43.01493" lon="0.21627">
        <ele>1291.3</ele>
        <time>2023-11-19T12:31:16Z</time>
      </trkpt>
      <trkpt lat="43.01493" lon="0.21629">
        <ele>1291.3</ele>
        <time>2023-11-19T12:31:17Z</time>
      </trkpt>
      <trkpt lat="43.01493" lon="0.21629">
        <ele>1291.2</ele>
        <time>2023-11-19T12:31:18Z</time>
      </trkpt>
      <trkpt lat="43.01493" lon="0.2163">
        <ele>1291.2</ele>
        <time>2023-11-19T12:31:19Z</time>
      </trkpt>
      <trkpt lat="43.01494" lon="0.2163">
        <ele>1291.1</ele>
        <time>2023-11-19T12:31:20Z</time>
      </trkpt>
      <trkpt lat="43.01495" lon="0.2163">
        <ele>1291.1</ele>
        <time>2023-11-19T12:31:21Z</time>
      </trkpt>
      <trkpt lat="43.01495" lon="0.2163">
        <ele>1291.1</ele>
        <time>2023-11-19T12:31:22Z</time>
      </trkpt>
      <trkpt lat="43.01495" lon="0.2163">
        <ele>1291.1</ele>
        <time>2023-11-19T12:31:23Z</time>
      </trkpt>
      <trkpt lat="43.01495" lon="0.2163">
        <ele>1291.1</ele>
        <time>2023-11-19T12:31:24Z</time>
      </trkpt>
      <trkpt lat="43.01494" lon="0.21627">
        <ele>1291</ele>
        <time>2023-11-19T12:31:25Z</time>
      </trkpt>
      <trkpt lat="43.01494" lon="0.21626">
        <ele>1291</ele>
        <time>2023-11-19T12:31:26Z</time>
      </trkpt>
      <trkpt lat="43.01494" lon="0.21625">
        <ele>1290.9</ele>
        <time>2023-11-19T12:31:27Z</time>
      </trkpt>
      <trkpt lat="43.01494" lon="0.21626">
        <ele>1290.9</ele>
        <time>2023-11-19T12:31:28Z</time>
      </trkpt>
      <trkpt lat="43.01494" lon="0.21626">
        <ele>1290.9</ele>
        <time>2023-11-19T12:31:29Z</time>
      </trkpt>
      <trkpt lat="43.01493" lon="0.21627">
        <ele>1290.7</ele>
        <time>2023-11-19T12:31:30Z</time>
      </trkpt>
      <trkpt lat="43.01493" lon="0.21628">
        <ele>1290.6</ele>
        <time>2023-11-19T12:31:31Z</time>
      </trkpt>
      <trkpt lat="43.01492" lon="0.21629">
        <ele>1290.5</ele>
        <time>2023-11-19T12:31:32Z</time>
      </trkpt>
      <trkpt lat="43.01492" lon="0.21631">
        <ele>1290.4</ele>
        <time>2023-11-19T12:31:33Z</time>
      </trkpt>
      <trkpt lat="43.01492" lon="0.21631">
        <ele>1290.3</ele>
        <time>2023-11-19T12:31:34Z</time>
      </trkpt>
      <trkpt lat="43.01491" lon="0.21632">
        <ele>1290.3</ele>
        <time>2023-11-19T12:31:35Z</time>
      </trkpt>
      <trkpt lat="43.01491" lon="0.21632">
        <ele>1290.2</ele>
        <time>2023-11-19T12:31:36Z</time>
      </trkpt>
      <trkpt lat="43.01491" lon="0.21633">
        <ele>1290.2</ele>
        <time>2023-11-19T12:31:37Z</time>
      </trkpt>
      <trkpt lat="43.01491" lon="0.21634">
        <ele>1290.1</ele>
        <time>2023-11-19T12:31:38Z</time>
      </trkpt>
      <trkpt lat="43.01491" lon="0.21634">
        <ele>1290.1</ele>
        <time>2023-11-19T12:31:39Z</time>
      </trkpt>
      <trkpt lat="43.01491" lon="0.21635">
        <ele>1290</ele>
        <time>2023-11-19T12:31:40Z</time>
      </trkpt>
      <trkpt lat="43.0149" lon="0.21636">
        <ele>1290</ele>
        <time>2023-11-19T12:31:41Z</time>
      </trkpt>
      <trkpt lat="43.0149" lon="0.21636">
        <ele>1289.9</ele>
        <time>2023-11-19T12:31:43Z</time>
      </trkpt>
      <trkpt lat="43.0149" lon="0.21637">
        <ele>1289.8</ele>
        <time>2023-11-19T12:31:44Z</time>
      </trkpt>
      <trkpt lat="43.0149" lon="0.21637">
        <ele>1289.8</ele>
        <time>2023-11-19T12:31:45Z</time>
      </trkpt>
      <trkpt lat="43.0149" lon="0.21638">
        <ele>1289.7</ele>
        <time>2023-11-19T12:31:46Z</time>
      </trkpt>
      <trkpt lat="43.01489" lon="0.21639">
        <ele>1289.6</ele>
        <time>2023-11-19T12:31:47Z</time>
      </trkpt>
      <trkpt lat="43.01487" lon="0.2164">
        <ele>1289.4</ele>
        <time>2023-11-19T12:31:48Z</time>
      </trkpt>
      <trkpt lat="43.01485" lon="0.21641">
        <ele>1289.2</ele>
        <time>2023-11-19T12:31:49Z</time>
      </trkpt>
      <trkpt lat="43.01484" lon="0.21641">
        <ele>1289.1</ele>
        <time>2023-11-19T12:31:50Z</time>
      </trkpt>
      <trkpt lat="43.01482" lon="0.21643">
        <ele>1288.8</ele>
        <time>2023-11-19T12:31:51Z</time>
      </trkpt>
      <trkpt lat="43.01481" lon="0.21643">
        <ele>1288.7</ele>
        <time>2023-11-19T12:31:52Z</time>
      </trkpt>
      <trkpt lat="43.01481" lon="0.21643">
        <ele>1288.6</ele>
        <time>2023-11-19T12:31:53Z</time>
      </trkpt>
      <trkpt lat="43.01479" lon="0.21644">
        <ele>1288.4</ele>
        <time>2023-11-19T12:31:54Z</time>
      </trkpt>
      <trkpt lat="43.01478" lon="0.21645">
        <ele>1288.3</ele>
        <time>2023-11-19T12:31:55Z</time>
      </trkpt>
      <trkpt lat="43.01477" lon="0.21645">
        <ele>1288.2</ele>
        <time>2023-11-19T12:31:56Z</time>
      </trkpt>
      <trkpt lat="43.01476" lon="0.21646">
        <ele>1288.1</ele>
        <time>2023-11-19T12:31:57Z</time>
      </trkpt>
      <trkpt lat="43.01476" lon="0.21648">
        <ele>1288</ele>
        <time>2023-11-19T12:31:58Z</time>
      </trkpt>
      <trkpt lat="43.01475" lon="0.21649">
        <ele>1287.9</ele>
        <time>2023-11-19T12:31:59Z</time>
      </trkpt>
      <trkpt lat="43.01474" lon="0.21651">
        <ele>1287.8</ele>
        <time>2023-11-19T12:32:00Z</time>
      </trkpt>
      <trkpt lat="43.01473" lon="0.21651">
        <ele>1287.7</ele>
        <time>2023-11-19T12:32:01Z</time>
      </trkpt>
      <trkpt lat="43.01472" lon="0.21652">
        <ele>1287.6</ele>
        <time>2023-11-19T12:32:02Z</time>
      </trkpt>
      <trkpt lat="43.01471" lon="0.21652">
        <ele>1287.5</ele>
        <time>2023-11-19T12:32:03Z</time>
      </trkpt>
      <trkpt lat="43.0147" lon="0.21653">
        <ele>1287.4</ele>
        <time>2023-11-19T12:32:04Z</time>
      </trkpt>
      <trkpt lat="43.01468" lon="0.21655">
        <ele>1287.3</ele>
        <time>2023-11-19T12:32:05Z</time>
      </trkpt>
      <trkpt lat="43.01467" lon="0.21655">
        <ele>1287.3</ele>
        <time>2023-11-19T12:32:06Z</time>
      </trkpt>
      <trkpt lat="43.01466" lon="0.21656">
        <ele>1287.2</ele>
        <time>2023-11-19T12:32:07Z</time>
      </trkpt>
      <trkpt lat="43.01465" lon="0.21657">
        <ele>1287.2</ele>
        <time>2023-11-19T12:32:08Z</time>
      </trkpt>
      <trkpt lat="43.01465" lon="0.21659">
        <ele>1287.1</ele>
        <time>2023-11-19T12:32:09Z</time>
      </trkpt>
      <trkpt lat="43.01464" lon="0.21661">
        <ele>1287</ele>
        <time>2023-11-19T12:32:10Z</time>
      </trkpt>
      <trkpt lat="43.01463" lon="0.21662">
        <ele>1287</ele>
        <time>2023-11-19T12:32:11Z</time>
      </trkpt>
      <trkpt lat="43.01462" lon="0.21663">
        <ele>1287</ele>
        <time>2023-11-19T12:32:12Z</time>
      </trkpt>
      <trkpt lat="43.0146" lon="0.21665">
        <ele>1286.9</ele>
        <time>2023-11-19T12:32:13Z</time>
      </trkpt>
      <trkpt lat="43.0146" lon="0.21666">
        <ele>1286.9</ele>
        <time>2023-11-19T12:32:14Z</time>
      </trkpt>
      <trkpt lat="43.01459" lon="0.21668">
        <ele>1286.8</ele>
        <time>2023-11-19T12:32:15Z</time>
      </trkpt>
      <trkpt lat="43.01459" lon="0.21669">
        <ele>1286.8</ele>
        <time>2023-11-19T12:32:16Z</time>
      </trkpt>
      <trkpt lat="43.01459" lon="0.2167">
        <ele>1286.8</ele>
        <time>2023-11-19T12:32:17Z</time>
      </trkpt>
      <trkpt lat="43.01458" lon="0.21672">
        <ele>1286.8</ele>
        <time>2023-11-19T12:32:18Z</time>
      </trkpt>
      <trkpt lat="43.01458" lon="0.21674">
        <ele>1286.8</ele>
        <time>2023-11-19T12:32:19Z</time>
      </trkpt>
      <trkpt lat="43.01458" lon="0.21677">
        <ele>1286.8</ele>
        <time>2023-11-19T12:32:20Z</time>
      </trkpt>
      <trkpt lat="43.01457" lon="0.21678">
        <ele>1286.8</ele>
        <time>2023-11-19T12:32:21Z</time>
      </trkpt>
      <trkpt lat="43.01457" lon="0.21679">
        <ele>1286.8</ele>
        <time>2023-11-19T12:32:22Z</time>
      </trkpt>
      <trkpt lat="43.01457" lon="0.21681">
        <ele>1286.8</ele>
        <time>2023-11-19T12:32:23Z</time>
      </trkpt>
      <trkpt lat="43.01457" lon="0.21683">
        <ele>1286.9</ele>
        <time>2023-11-19T12:32:24Z</time>
      </trkpt>
      <trkpt lat="43.01457" lon="0.21685">
        <ele>1286.9</ele>
        <time>2023-11-19T12:32:25Z</time>
      </trkpt>
      <trkpt lat="43.01457" lon="0.21687">
        <ele>1287</ele>
        <time>2023-11-19T12:32:26Z</time>
      </trkpt>
      <trkpt lat="43.01457" lon="0.2169">
        <ele>1287.1</ele>
        <time>2023-11-19T12:32:27Z</time>
      </trkpt>
      <trkpt lat="43.01457" lon="0.21691">
        <ele>1287.1</ele>
        <time>2023-11-19T12:32:28Z</time>
      </trkpt>
      <trkpt lat="43.01457" lon="0.21692">
        <ele>1287.1</ele>
        <time>2023-11-19T12:32:29Z</time>
      </trkpt>
      <trkpt lat="43.01457" lon="0.21695">
        <ele>1287.3</ele>
        <time>2023-11-19T12:32:30Z</time>
      </trkpt>
      <trkpt lat="43.01457" lon="0.21696">
        <ele>1287.3</ele>
        <time>2023-11-19T12:32:31Z</time>
      </trkpt>
      <trkpt lat="43.01457" lon="0.21697">
        <ele>1287.4</ele>
        <time>2023-11-19T12:32:32Z</time>
      </trkpt>
      <trkpt lat="43.01457" lon="0.217">
        <ele>1287.5</ele>
        <time>2023-11-19T12:32:33Z</time>
      </trkpt>
      <trkpt lat="43.01457" lon="0.21701">
        <ele>1287.6</ele>
        <time>2023-11-19T12:32:34Z</time>
      </trkpt>
      <trkpt lat="43.01457" lon="0.21702">
        <ele>1287.6</ele>
        <time>2023-11-19T12:32:35Z</time>
      </trkpt>
      <trkpt lat="43.01457" lon="0.21704">
        <ele>1287.7</ele>
        <time>2023-11-19T12:32:36Z</time>
      </trkpt>
      <trkpt lat="43.01457" lon="0.21705">
        <ele>1287.8</ele>
        <time>2023-11-19T12:32:37Z</time>
      </trkpt>
      <trkpt lat="43.01457" lon="0.21707">
        <ele>1287.9</ele>
        <time>2023-11-19T12:32:38Z</time>
      </trkpt>
      <trkpt lat="43.01457" lon="0.21708">
        <ele>1287.9</ele>
        <time>2023-11-19T12:32:39Z</time>
      </trkpt>
      <trkpt lat="43.01458" lon="0.21709">
        <ele>1288</ele>
        <time>2023-11-19T12:32:40Z</time>
      </trkpt>
      <trkpt lat="43.01458" lon="0.2171">
        <ele>1288.1</ele>
        <time>2023-11-19T12:32:41Z</time>
      </trkpt>
      <trkpt lat="43.01458" lon="0.21712">
        <ele>1288.2</ele>
        <time>2023-11-19T12:32:42Z</time>
      </trkpt>
      <trkpt lat="43.01458" lon="0.21714">
        <ele>1288.3</ele>
        <time>2023-11-19T12:32:43Z</time>
      </trkpt>
      <trkpt lat="43.01458" lon="0.21715">
        <ele>1288.4</ele>
        <time>2023-11-19T12:32:44Z</time>
      </trkpt>
      <trkpt lat="43.01458" lon="0.21718">
        <ele>1288.6</ele>
        <time>2023-11-19T12:32:45Z</time>
      </trkpt>
      <trkpt lat="43.01459" lon="0.21719">
        <ele>1288.7</ele>
        <time>2023-11-19T12:32:46Z</time>
      </trkpt>
      <trkpt lat="43.01459" lon="0.2172">
        <ele>1288.8</ele>
        <time>2023-11-19T12:32:47Z</time>
      </trkpt>
      <trkpt lat="43.0146" lon="0.21721">
        <ele>1288.9</ele>
        <time>2023-11-19T12:32:48Z</time>
      </trkpt>
      <trkpt lat="43.0146" lon="0.21723">
        <ele>1289</ele>
        <time>2023-11-19T12:32:49Z</time>
      </trkpt>
      <trkpt lat="43.01461" lon="0.21724">
        <ele>1289.1</ele>
        <time>2023-11-19T12:32:50Z</time>
      </trkpt>
      <trkpt lat="43.01462" lon="0.21725">
        <ele>1289.3</ele>
        <time>2023-11-19T12:32:51Z</time>
      </trkpt>
      <trkpt lat="43.01462" lon="0.21727">
        <ele>1289.4</ele>
        <time>2023-11-19T12:32:52Z</time>
      </trkpt>
      <trkpt lat="43.01462" lon="0.21728">
        <ele>1289.5</ele>
        <time>2023-11-19T12:32:53Z</time>
      </trkpt>
      <trkpt lat="43.01463" lon="0.21729">
        <ele>1289.6</ele>
        <time>2023-11-19T12:32:54Z</time>
      </trkpt>
      <trkpt lat="43.01463" lon="0.2173">
        <ele>1289.7</ele>
        <time>2023-11-19T12:32:55Z</time>
      </trkpt>
      <trkpt lat="43.01464" lon="0.21732">
        <ele>1289.8</ele>
        <time>2023-11-19T12:32:56Z</time>
      </trkpt>
      <trkpt lat="43.01465" lon="0.21734">
        <ele>1290.1</ele>
        <time>2023-11-19T12:32:57Z</time>
      </trkpt>
      <trkpt lat="43.01466" lon="0.21735">
        <ele>1290.1</ele>
        <time>2023-11-19T12:32:58Z</time>
      </trkpt>
      <trkpt lat="43.01466" lon="0.21736">
        <ele>1290.2</ele>
        <time>2023-11-19T12:32:59Z</time>
      </trkpt>
      <trkpt lat="43.01466" lon="0.21737">
        <ele>1290.3</ele>
        <time>2023-11-19T12:33:00Z</time>
      </trkpt>
      <trkpt lat="43.01466" lon="0.21738">
        <ele>1290.4</ele>
        <time>2023-11-19T12:33:01Z</time>
      </trkpt>
      <trkpt lat="43.01466" lon="0.21739">
        <ele>1290.5</ele>
        <time>2023-11-19T12:33:02Z</time>
      </trkpt>
      <trkpt lat="43.01467" lon="0.2174">
        <ele>1290.6</ele>
        <time>2023-11-19T12:33:03Z</time>
      </trkpt>
      <trkpt lat="43.01467" lon="0.21741">
        <ele>1290.7</ele>
        <time>2023-11-19T12:33:04Z</time>
      </trkpt>
      <trkpt lat="43.01468" lon="0.21743">
        <ele>1290.8</ele>
        <time>2023-11-19T12:33:05Z</time>
      </trkpt>
      <trkpt lat="43.01468" lon="0.21743">
        <ele>1290.8</ele>
        <time>2023-11-19T12:33:06Z</time>
      </trkpt>
      <trkpt lat="43.01469" lon="0.21745">
        <ele>1290.9</ele>
        <time>2023-11-19T12:33:07Z</time>
      </trkpt>
      <trkpt lat="43.01469" lon="0.21746">
        <ele>1291.1</ele>
        <time>2023-11-19T12:33:08Z</time>
      </trkpt>
      <trkpt lat="43.0147" lon="0.21747">
        <ele>1291.2</ele>
        <time>2023-11-19T12:33:09Z</time>
      </trkpt>
      <trkpt lat="43.0147" lon="0.21749">
        <ele>1291.3</ele>
        <time>2023-11-19T12:33:10Z</time>
      </trkpt>
      <trkpt lat="43.0147" lon="0.2175">
        <ele>1291.4</ele>
        <time>2023-11-19T12:33:11Z</time>
      </trkpt>
      <trkpt lat="43.01471" lon="0.21751">
        <ele>1291.5</ele>
        <time>2023-11-19T12:33:12Z</time>
      </trkpt>
      <trkpt lat="43.01471" lon="0.21752">
        <ele>1291.6</ele>
        <time>2023-11-19T12:33:13Z</time>
      </trkpt>
      <trkpt lat="43.01472" lon="0.21754">
        <ele>1291.7</ele>
        <time>2023-11-19T12:33:14Z</time>
      </trkpt>
      <trkpt lat="43.01472" lon="0.21755">
        <ele>1291.8</ele>
        <time>2023-11-19T12:33:15Z</time>
      </trkpt>
      <trkpt lat="43.01472" lon="0.21756">
        <ele>1291.8</ele>
        <time>2023-11-19T12:33:16Z</time>
      </trkpt>
      <trkpt lat="43.01473" lon="0.21757">
        <ele>1291.9</ele>
        <time>2023-11-19T12:33:17Z</time>
      </trkpt>
      <trkpt lat="43.01473" lon="0.21758">
        <ele>1292</ele>
        <time>2023-11-19T12:33:18Z</time>
      </trkpt>
      <trkpt lat="43.01473" lon="0.21759">
        <ele>1292.1</ele>
        <time>2023-11-19T12:33:19Z</time>
      </trkpt>
      <trkpt lat="43.01473" lon="0.2176">
        <ele>1292.1</ele>
        <time>2023-11-19T12:33:20Z</time>
      </trkpt>
      <trkpt lat="43.01473" lon="0.21761">
        <ele>1292.2</ele>
        <time>2023-11-19T12:33:21Z</time>
      </trkpt>
      <trkpt lat="43.01474" lon="0.21762">
        <ele>1292.3</ele>
        <time>2023-11-19T12:33:22Z</time>
      </trkpt>
      <trkpt lat="43.01475" lon="0.21763">
        <ele>1292.3</ele>
        <time>2023-11-19T12:33:23Z</time>
      </trkpt>
      <trkpt lat="43.01475" lon="0.21764">
        <ele>1292.4</ele>
        <time>2023-11-19T12:33:24Z</time>
      </trkpt>
      <trkpt lat="43.01475" lon="0.21764">
        <ele>1292.4</ele>
        <time>2023-11-19T12:33:25Z</time>
      </trkpt>
      <trkpt lat="43.01476" lon="0.21765">
        <ele>1292.5</ele>
        <time>2023-11-19T12:33:26Z</time>
      </trkpt>
      <trkpt lat="43.01476" lon="0.21765">
        <ele>1292.5</ele>
        <time>2023-11-19T12:33:27Z</time>
      </trkpt>
      <trkpt lat="43.01476" lon="0.21766">
        <ele>1292.6</ele>
        <time>2023-11-19T12:33:28Z</time>
      </trkpt>
      <trkpt lat="43.01477" lon="0.21768">
        <ele>1292.7</ele>
        <time>2023-11-19T12:33:29Z</time>
      </trkpt>
      <trkpt lat="43.01477" lon="0.21769">
        <ele>1292.8</ele>
        <time>2023-11-19T12:33:30Z</time>
      </trkpt>
      <trkpt lat="43.01478" lon="0.2177">
        <ele>1292.8</ele>
        <time>2023-11-19T12:33:31Z</time>
      </trkpt>
      <trkpt lat="43.01478" lon="0.21771">
        <ele>1292.9</ele>
        <time>2023-11-19T12:33:32Z</time>
      </trkpt>
      <trkpt lat="43.01478" lon="0.21773">
        <ele>1293</ele>
        <time>2023-11-19T12:33:33Z</time>
      </trkpt>
      <trkpt lat="43.01479" lon="0.21775">
        <ele>1293.1</ele>
        <time>2023-11-19T12:33:34Z</time>
      </trkpt>
      <trkpt lat="43.0148" lon="0.21776">
        <ele>1293.2</ele>
        <time>2023-11-19T12:33:35Z</time>
      </trkpt>
      <trkpt lat="43.0148" lon="0.21777">
        <ele>1293.3</ele>
        <time>2023-11-19T12:33:36Z</time>
      </trkpt>
      <trkpt lat="43.0148" lon="0.21779">
        <ele>1293.3</ele>
        <time>2023-11-19T12:33:37Z</time>
      </trkpt>
      <trkpt lat="43.0148" lon="0.2178">
        <ele>1293.4</ele>
        <time>2023-11-19T12:33:38Z</time>
      </trkpt>
      <trkpt lat="43.0148" lon="0.21782">
        <ele>1293.5</ele>
        <time>2023-11-19T12:33:39Z</time>
      </trkpt>
      <trkpt lat="43.01479" lon="0.21784">
        <ele>1293.6</ele>
        <time>2023-11-19T12:33:40Z</time>
      </trkpt>
      <trkpt lat="43.01479" lon="0.21785">
        <ele>1293.6</ele>
        <time>2023-11-19T12:33:41Z</time>
      </trkpt>
      <trkpt lat="43.01479" lon="0.21785">
        <ele>1293.7</ele>
        <time>2023-11-19T12:33:42Z</time>
      </trkpt>
      <trkpt lat="43.0148" lon="0.21786">
        <ele>1293.7</ele>
        <time>2023-11-19T12:33:43Z</time>
      </trkpt>
      <trkpt lat="43.0148" lon="0.21787">
        <ele>1293.8</ele>
        <time>2023-11-19T12:33:44Z</time>
      </trkpt>
      <trkpt lat="43.0148" lon="0.2179">
        <ele>1293.9</ele>
        <time>2023-11-19T12:33:45Z</time>
      </trkpt>
      <trkpt lat="43.0148" lon="0.21791">
        <ele>1293.9</ele>
        <time>2023-11-19T12:33:46Z</time>
      </trkpt>
      <trkpt lat="43.0148" lon="0.21792">
        <ele>1294</ele>
        <time>2023-11-19T12:33:47Z</time>
      </trkpt>
      <trkpt lat="43.0148" lon="0.21793">
        <ele>1294</ele>
        <time>2023-11-19T12:33:49Z</time>
      </trkpt>
      <trkpt lat="43.0148" lon="0.21795">
        <ele>1294.1</ele>
        <time>2023-11-19T12:33:50Z</time>
      </trkpt>
      <trkpt lat="43.0148" lon="0.21796">
        <ele>1294.2</ele>
        <time>2023-11-19T12:33:51Z</time>
      </trkpt>
      <trkpt lat="43.0148" lon="0.21797">
        <ele>1294.2</ele>
        <time>2023-11-19T12:33:52Z</time>
      </trkpt>
      <trkpt lat="43.0148" lon="0.21799">
        <ele>1294.3</ele>
        <time>2023-11-19T12:33:53Z</time>
      </trkpt>
      <trkpt lat="43.0148" lon="0.218">
        <ele>1294.3</ele>
        <time>2023-11-19T12:33:54Z</time>
      </trkpt>
      <trkpt lat="43.01481" lon="0.21802">
        <ele>1294.4</ele>
        <time>2023-11-19T12:33:55Z</time>
      </trkpt>
      <trkpt lat="43.01481" lon="0.21803">
        <ele>1294.4</ele>
        <time>2023-11-19T12:33:56Z</time>
      </trkpt>
      <trkpt lat="43.01481" lon="0.21805">
        <ele>1294.5</ele>
        <time>2023-11-19T12:33:57Z</time>
      </trkpt>
      <trkpt lat="43.01481" lon="0.21805">
        <ele>1294.5</ele>
        <time>2023-11-19T12:33:58Z</time>
      </trkpt>
      <trkpt lat="43.01481" lon="0.21807">
        <ele>1294.6</ele>
        <time>2023-11-19T12:33:59Z</time>
      </trkpt>
      <trkpt lat="43.01482" lon="0.21809">
        <ele>1294.6</ele>
        <time>2023-11-19T12:34:00Z</time>
      </trkpt>
      <trkpt lat="43.01482" lon="0.21811">
        <ele>1294.7</ele>
        <time>2023-11-19T12:34:01Z</time>
      </trkpt>
      <trkpt lat="43.01483" lon="0.21812">
        <ele>1294.8</ele>
        <time>2023-11-19T12:34:02Z</time>
      </trkpt>
      <trkpt lat="43.01483" lon="0.21813">
        <ele>1294.8</ele>
        <time>2023-11-19T12:34:03Z</time>
      </trkpt>
      <trkpt lat="43.01483" lon="0.21814">
        <ele>1294.8</ele>
        <time>2023-11-19T12:34:04Z</time>
      </trkpt>
      <trkpt lat="43.01484" lon="0.21816">
        <ele>1294.9</ele>
        <time>2023-11-19T12:34:05Z</time>
      </trkpt>
      <trkpt lat="43.01485" lon="0.21818">
        <ele>1294.9</ele>
        <time>2023-11-19T12:34:06Z</time>
      </trkpt>
      <trkpt lat="43.01485" lon="0.21819">
        <ele>1295</ele>
        <time>2023-11-19T12:34:07Z</time>
      </trkpt>
      <trkpt lat="43.01485" lon="0.2182">
        <ele>1295</ele>
        <time>2023-11-19T12:34:08Z</time>
      </trkpt>
      <trkpt lat="43.01486" lon="0.21822">
        <ele>1295.1</ele>
        <time>2023-11-19T12:34:09Z</time>
      </trkpt>
      <trkpt lat="43.01486" lon="0.21823">
        <ele>1295.1</ele>
        <time>2023-11-19T12:34:10Z</time>
      </trkpt>
      <trkpt lat="43.01486" lon="0.21825">
        <ele>1295.1</ele>
        <time>2023-11-19T12:34:11Z</time>
      </trkpt>
      <trkpt lat="43.01487" lon="0.21826">
        <ele>1295.2</ele>
        <time>2023-11-19T12:34:12Z</time>
      </trkpt>
      <trkpt lat="43.01488" lon="0.21829">
        <ele>1295.2</ele>
        <time>2023-11-19T12:34:13Z</time>
      </trkpt>
      <trkpt lat="43.01488" lon="0.2183">
        <ele>1295.3</ele>
        <time>2023-11-19T12:34:14Z</time>
      </trkpt>
      <trkpt lat="43.01489" lon="0.21832">
        <ele>1295.3</ele>
        <time>2023-11-19T12:34:15Z</time>
      </trkpt>
      <trkpt lat="43.01489" lon="0.21834">
        <ele>1295.3</ele>
        <time>2023-11-19T12:34:16Z</time>
      </trkpt>
      <trkpt lat="43.0149" lon="0.21834">
        <ele>1295.3</ele>
        <time>2023-11-19T12:34:17Z</time>
      </trkpt>
      <trkpt lat="43.01491" lon="0.21836">
        <ele>1295.4</ele>
        <time>2023-11-19T12:34:18Z</time>
      </trkpt>
      <trkpt lat="43.01491" lon="0.21836">
        <ele>1295</ele>
        <time>2023-11-19T12:34:19Z</time>
      </trkpt>
      <trkpt lat="43.01492" lon="0.21837">
        <ele>1295</ele>
        <time>2023-11-19T12:34:20Z</time>
      </trkpt>
      <trkpt lat="43.01493" lon="0.21839">
        <ele>1295</ele>
        <time>2023-11-19T12:34:21Z</time>
      </trkpt>
      <trkpt lat="43.01494" lon="0.2184">
        <ele>1295</ele>
        <time>2023-11-19T12:34:22Z</time>
      </trkpt>
      <trkpt lat="43.01494" lon="0.21841">
        <ele>1295.1</ele>
        <time>2023-11-19T12:34:23Z</time>
      </trkpt>
      <trkpt lat="43.01494" lon="0.21841">
        <ele>1294.7</ele>
        <time>2023-11-19T12:34:24Z</time>
      </trkpt>
      <trkpt lat="43.01495" lon="0.21843">
        <ele>1294.7</ele>
        <time>2023-11-19T12:34:25Z</time>
      </trkpt>
      <trkpt lat="43.01495" lon="0.21844">
        <ele>1294.7</ele>
        <time>2023-11-19T12:34:26Z</time>
      </trkpt>
      <trkpt lat="43.01496" lon="0.21845">
        <ele>1294.7</ele>
        <time>2023-11-19T12:34:27Z</time>
      </trkpt>
      <trkpt lat="43.01497" lon="0.21846">
        <ele>1294.7</ele>
        <time>2023-11-19T12:34:28Z</time>
      </trkpt>
      <trkpt lat="43.01498" lon="0.21847">
        <ele>1294.4</ele>
        <time>2023-11-19T12:34:29Z</time>
      </trkpt>
      <trkpt lat="43.01498" lon="0.21848">
        <ele>1294.4</ele>
        <time>2023-11-19T12:34:30Z</time>
      </trkpt>
      <trkpt lat="43.01499" lon="0.21849">
        <ele>1294.4</ele>
        <time>2023-11-19T12:34:31Z</time>
      </trkpt>
      <trkpt lat="43.015" lon="0.2185">
        <ele>1294.4</ele>
        <time>2023-11-19T12:34:32Z</time>
      </trkpt>
      <trkpt lat="43.015" lon="0.2185">
        <ele>1294.1</ele>
        <time>2023-11-19T12:34:33Z</time>
      </trkpt>
      <trkpt lat="43.01501" lon="0.21851">
        <ele>1294.1</ele>
        <time>2023-11-19T12:34:34Z</time>
      </trkpt>
      <trkpt lat="43.01502" lon="0.21851">
        <ele>1294.1</ele>
        <time>2023-11-19T12:34:35Z</time>
      </trkpt>
      <trkpt lat="43.01502" lon="0.21852">
        <ele>1294.1</ele>
        <time>2023-11-19T12:34:36Z</time>
      </trkpt>
      <trkpt lat="43.01503" lon="0.21852">
        <ele>1294.1</ele>
        <time>2023-11-19T12:34:37Z</time>
      </trkpt>
      <trkpt lat="43.01503" lon="0.21853">
        <ele>1294.2</ele>
        <time>2023-11-19T12:34:38Z</time>
      </trkpt>
      <trkpt lat="43.01503" lon="0.21852">
        <ele>1294.1</ele>
        <time>2023-11-19T12:34:39Z</time>
      </trkpt>
      <trkpt lat="43.01504" lon="0.21852">
        <ele>1293.9</ele>
        <time>2023-11-19T12:34:40Z</time>
      </trkpt>
      <trkpt lat="43.01505" lon="0.21853">
        <ele>1293.9</ele>
        <time>2023-11-19T12:34:41Z</time>
      </trkpt>
      <trkpt lat="43.01506" lon="0.21853">
        <ele>1293.9</ele>
        <time>2023-11-19T12:34:42Z</time>
      </trkpt>
      <trkpt lat="43.01506" lon="0.21854">
        <ele>1293.9</ele>
        <time>2023-11-19T12:34:43Z</time>
      </trkpt>
      <trkpt lat="43.01506" lon="0.21853">
        <ele>1293.9</ele>
        <time>2023-11-19T12:34:44Z</time>
      </trkpt>
      <trkpt lat="43.01506" lon="0.21853">
        <ele>1293.9</ele>
        <time>2023-11-19T12:34:45Z</time>
      </trkpt>
      <trkpt lat="43.01506" lon="0.21853">
        <ele>1293.9</ele>
        <time>2023-11-19T12:34:46Z</time>
      </trkpt>
      <trkpt lat="43.01506" lon="0.21853">
        <ele>1293.9</ele>
        <time>2023-11-19T12:34:47Z</time>
      </trkpt>
      <trkpt lat="43.01506" lon="0.21853">
        <ele>1294</ele>
        <time>2023-11-19T12:34:48Z</time>
      </trkpt>
      <trkpt lat="43.01506" lon="0.21853">
        <ele>1294</ele>
        <time>2023-11-19T12:34:49Z</time>
      </trkpt>
      <trkpt lat="43.01507" lon="0.21854">
        <ele>1293.7</ele>
        <time>2023-11-19T12:34:50Z</time>
      </trkpt>
      <trkpt lat="43.01509" lon="0.21856">
        <ele>1293.7</ele>
        <time>2023-11-19T12:34:51Z</time>
      </trkpt>
      <trkpt lat="43.01509" lon="0.21855">
        <ele>1293.7</ele>
        <time>2023-11-19T12:34:52Z</time>
      </trkpt>
      <trkpt lat="43.0151" lon="0.21855">
        <ele>1293.5</ele>
        <time>2023-11-19T12:34:53Z</time>
      </trkpt>
      <trkpt lat="43.01511" lon="0.21855">
        <ele>1293.5</ele>
        <time>2023-11-19T12:34:54Z</time>
      </trkpt>
      <trkpt lat="43.01511" lon="0.21854">
        <ele>1293.5</ele>
        <time>2023-11-19T12:34:55Z</time>
      </trkpt>
      <trkpt lat="43.01512" lon="0.21852">
        <ele>1293.5</ele>
        <time>2023-11-19T12:34:56Z</time>
      </trkpt>
      <trkpt lat="43.01512" lon="0.21851">
        <ele>1293.5</ele>
        <time>2023-11-19T12:34:57Z</time>
      </trkpt>
      <trkpt lat="43.01511" lon="0.21851">
        <ele>1293.5</ele>
        <time>2023-11-19T12:34:58Z</time>
      </trkpt>
      <trkpt lat="43.01511" lon="0.21851">
        <ele>1293.5</ele>
        <time>2023-11-19T12:34:59Z</time>
      </trkpt>
      <trkpt lat="43.01511" lon="0.21851">
        <ele>1293.5</ele>
        <time>2023-11-19T12:35:00Z</time>
      </trkpt>
      <trkpt lat="43.01511" lon="0.21851">
        <ele>1293.5</ele>
        <time>2023-11-19T12:35:01Z</time>
      </trkpt>
      <trkpt lat="43.01511" lon="0.21851">
        <ele>1293.5</ele>
        <time>2023-11-19T12:35:02Z</time>
      </trkpt>
      <trkpt lat="43.01509" lon="0.2185">
        <ele>1293.8</ele>
        <time>2023-11-19T12:35:03Z</time>
      </trkpt>
      <trkpt lat="43.01507" lon="0.2185">
        <ele>1293.8</ele>
        <time>2023-11-19T12:35:04Z</time>
      </trkpt>
      <trkpt lat="43.01508" lon="0.2185">
        <ele>1293.8</ele>
        <time>2023-11-19T12:35:05Z</time>
      </trkpt>
      <trkpt lat="43.01509" lon="0.2185">
        <ele>1293.8</ele>
        <time>2023-11-19T12:35:06Z</time>
      </trkpt>
      <trkpt lat="43.01509" lon="0.2185">
        <ele>1293.8</ele>
        <time>2023-11-19T12:35:07Z</time>
      </trkpt>
      <trkpt lat="43.01509" lon="0.2185">
        <ele>1293.8</ele>
        <time>2023-11-19T12:35:08Z</time>
      </trkpt>
      <trkpt lat="43.01509" lon="0.2185">
        <ele>1293.8</ele>
        <time>2023-11-19T12:35:09Z</time>
      </trkpt>
      <trkpt lat="43.01509" lon="0.2185">
        <ele>1293.8</ele>
        <time>2023-11-19T12:35:10Z</time>
      </trkpt>
      <trkpt lat="43.01509" lon="0.2185">
        <ele>1293.8</ele>
        <time>2023-11-19T12:35:11Z</time>
      </trkpt>
      <trkpt lat="43.01509" lon="0.2185">
        <ele>1293.8</ele>
        <time>2023-11-19T12:35:12Z</time>
      </trkpt>
      <trkpt lat="43.01509" lon="0.2185">
        <ele>1293.8</ele>
        <time>2023-11-19T12:35:13Z</time>
      </trkpt>
      <trkpt lat="43.01508" lon="0.2185">
        <ele>1293.8</ele>
        <time>2023-11-19T12:35:14Z</time>
      </trkpt>
      <trkpt lat="43.01509" lon="0.2185">
        <ele>1293.9</ele>
        <time>2023-11-19T12:35:15Z</time>
      </trkpt>
      <trkpt lat="43.01509" lon="0.2185">
        <ele>1293.9</ele>
        <time>2023-11-19T12:35:16Z</time>
      </trkpt>
      <trkpt lat="43.01509" lon="0.21851">
        <ele>1293.9</ele>
        <time>2023-11-19T12:35:17Z</time>
      </trkpt>
      <trkpt lat="43.0151" lon="0.21851">
        <ele>1293.6</ele>
        <time>2023-11-19T12:35:18Z</time>
      </trkpt>
      <trkpt lat="43.0151" lon="0.21852">
        <ele>1293.7</ele>
        <time>2023-11-19T12:35:19Z</time>
      </trkpt>
      <trkpt lat="43.0151" lon="0.21851">
        <ele>1293.7</ele>
        <time>2023-11-19T12:35:20Z</time>
      </trkpt>
      <trkpt lat="43.0151" lon="0.21852">
        <ele>1293.7</ele>
        <time>2023-11-19T12:35:21Z</time>
      </trkpt>
      <trkpt lat="43.0151" lon="0.21852">
        <ele>1293.7</ele>
        <time>2023-11-19T12:35:22Z</time>
      </trkpt>
      <trkpt lat="43.0151" lon="0.21852">
        <ele>1293.7</ele>
        <time>2023-11-19T12:35:23Z</time>
      </trkpt>
      <trkpt lat="43.0151" lon="0.21852">
        <ele>1293.7</ele>
        <time>2023-11-19T12:35:24Z</time>
      </trkpt>
      <trkpt lat="43.01511" lon="0.21852">
        <ele>1293.7</ele>
        <time>2023-11-19T12:35:25Z</time>
      </trkpt>
      <trkpt lat="43.01511" lon="0.21852">
        <ele>1293.7</ele>
        <time>2023-11-19T12:35:26Z</time>
      </trkpt>
      <trkpt lat="43.01511" lon="0.21852">
        <ele>1293.7</ele>
        <time>2023-11-19T12:35:27Z</time>
      </trkpt>
      <trkpt lat="43.01511" lon="0.21852">
        <ele>1293.7</ele>
        <time>2023-11-19T12:35:28Z</time>
      </trkpt>
      <trkpt lat="43.01511" lon="0.21852">
        <ele>1293.7</ele>
        <time>2023-11-19T12:35:29Z</time>
      </trkpt>
      <trkpt lat="43.01511" lon="0.21852">
        <ele>1293.7</ele>
        <time>2023-11-19T12:35:30Z</time>
      </trkpt>
      <trkpt lat="43.01511" lon="0.21852">
        <ele>1293.7</ele>
        <time>2023-11-19T12:35:31Z</time>
      </trkpt>
      <trkpt lat="43.01511" lon="0.21853">
        <ele>1293.8</ele>
        <time>2023-11-19T12:35:32Z</time>
      </trkpt>
      <trkpt lat="43.01511" lon="0.21853">
        <ele>1293.8</ele>
        <time>2023-11-19T12:35:33Z</time>
      </trkpt>
      <trkpt lat="43.01511" lon="0.21853">
        <ele>1293.8</ele>
        <time>2023-11-19T12:35:34Z</time>
      </trkpt>
      <trkpt lat="43.01511" lon="0.21853">
        <ele>1293.8</ele>
        <time>2023-11-19T12:35:35Z</time>
      </trkpt>
      <trkpt lat="43.01511" lon="0.21853">
        <ele>1293.8</ele>
        <time>2023-11-19T12:35:36Z</time>
      </trkpt>
      <trkpt lat="43.01511" lon="0.21853">
        <ele>1293.8</ele>
        <time>2023-11-19T12:35:37Z</time>
      </trkpt>
      <trkpt lat="43.01511" lon="0.21853">
        <ele>1293.9</ele>
        <time>2023-11-19T12:35:38Z</time>
      </trkpt>
      <trkpt lat="43.01511" lon="0.21853">
        <ele>1293.9</ele>
        <time>2023-11-19T12:35:39Z</time>
      </trkpt>
      <trkpt lat="43.01511" lon="0.21852">
        <ele>1293.8</ele>
        <time>2023-11-19T12:35:40Z</time>
      </trkpt>
      <trkpt lat="43.01511" lon="0.21852">
        <ele>1293.8</ele>
        <time>2023-11-19T12:35:41Z</time>
      </trkpt>
      <trkpt lat="43.01511" lon="0.21852">
        <ele>1293.8</ele>
        <time>2023-11-19T12:35:42Z</time>
      </trkpt>
      <trkpt lat="43.01511" lon="0.21852">
        <ele>1293.8</ele>
        <time>2023-11-19T12:35:43Z</time>
      </trkpt>
      <trkpt lat="43.01511" lon="0.21852">
        <ele>1293.8</ele>
        <time>2023-11-19T12:35:44Z</time>
      </trkpt>
      <trkpt lat="43.01511" lon="0.21852">
        <ele>1293.9</ele>
        <time>2023-11-19T12:35:45Z</time>
      </trkpt>
      <trkpt lat="43.01511" lon="0.21852">
        <ele>1293.9</ele>
        <time>2023-11-19T12:35:46Z</time>
      </trkpt>
      <trkpt lat="43.01511" lon="0.21853">
        <ele>1293.9</ele>
        <time>2023-11-19T12:35:47Z</time>
      </trkpt>
      <trkpt lat="43.01511" lon="0.21853">
        <ele>1293.9</ele>
        <time>2023-11-19T12:35:48Z</time>
      </trkpt>
      <trkpt lat="43.01512" lon="0.21853">
        <ele>1293.9</ele>
        <time>2023-11-19T12:35:49Z</time>
      </trkpt>
      <trkpt lat="43.01512" lon="0.21853">
        <ele>1293.9</ele>
        <time>2023-11-19T12:35:50Z</time>
      </trkpt>
      <trkpt lat="43.01512" lon="0.21853">
        <ele>1294</ele>
        <time>2023-11-19T12:35:51Z</time>
      </trkpt>
      <trkpt lat="43.01512" lon="0.21853">
        <ele>1294</ele>
        <time>2023-11-19T12:35:52Z</time>
      </trkpt>
      <trkpt lat="43.01512" lon="0.21853">
        <ele>1294</ele>
        <time>2023-11-19T12:35:53Z</time>
      </trkpt>
      <trkpt lat="43.01512" lon="0.21853">
        <ele>1294</ele>
        <time>2023-11-19T12:35:55Z</time>
      </trkpt>
      <trkpt lat="43.01512" lon="0.21854">
        <ele>1294</ele>
        <time>2023-11-19T12:35:56Z</time>
      </trkpt>
      <trkpt lat="43.01511" lon="0.21854">
        <ele>1294</ele>
        <time>2023-11-19T12:35:57Z</time>
      </trkpt>
      <trkpt lat="43.01512" lon="0.21856">
        <ele>1294</ele>
        <time>2023-11-19T12:35:58Z</time>
      </trkpt>
      <trkpt lat="43.01511" lon="0.21856">
        <ele>1294</ele>
        <time>2023-11-19T12:35:59Z</time>
      </trkpt>
      <trkpt lat="43.01511" lon="0.21858">
        <ele>1294.1</ele>
        <time>2023-11-19T12:36:00Z</time>
      </trkpt>
      <trkpt lat="43.01511" lon="0.21859">
        <ele>1294.1</ele>
        <time>2023-11-19T12:36:01Z</time>
      </trkpt>
      <trkpt lat="43.0151" lon="0.21862">
        <ele>1294.1</ele>
        <time>2023-11-19T12:36:02Z</time>
      </trkpt>
      <trkpt lat="43.0151" lon="0.21863">
        <ele>1294.1</ele>
        <time>2023-11-19T12:36:03Z</time>
      </trkpt>
      <trkpt lat="43.0151" lon="0.21864">
        <ele>1294.3</ele>
        <time>2023-11-19T12:36:04Z</time>
      </trkpt>
      <trkpt lat="43.0151" lon="0.21864">
        <ele>1294.1</ele>
        <time>2023-11-19T12:36:05Z</time>
      </trkpt>
      <trkpt lat="43.0151" lon="0.21865">
        <ele>1294.1</ele>
        <time>2023-11-19T12:36:06Z</time>
      </trkpt>
      <trkpt lat="43.01508" lon="0.21867">
        <ele>1294.3</ele>
        <time>2023-11-19T12:36:07Z</time>
      </trkpt>
      <trkpt lat="43.01508" lon="0.21866">
        <ele>1294.3</ele>
        <time>2023-11-19T12:36:08Z</time>
      </trkpt>
      <trkpt lat="43.01507" lon="0.21867">
        <ele>1294.3</ele>
        <time>2023-11-19T12:36:09Z</time>
      </trkpt>
      <trkpt lat="43.01506" lon="0.21868">
        <ele>1294.6</ele>
        <time>2023-11-19T12:36:10Z</time>
      </trkpt>
      <trkpt lat="43.01505" lon="0.21869">
        <ele>1294.6</ele>
        <time>2023-11-19T12:36:11Z</time>
      </trkpt>
      <trkpt lat="43.01504" lon="0.2187">
        <ele>1294.6</ele>
        <time>2023-11-19T12:36:12Z</time>
      </trkpt>
      <trkpt lat="43.01503" lon="0.2187">
        <ele>1294.8</ele>
        <time>2023-11-19T12:36:13Z</time>
      </trkpt>
      <trkpt lat="43.01503" lon="0.21873">
        <ele>1294.8</ele>
        <time>2023-11-19T12:36:14Z</time>
      </trkpt>
      <trkpt lat="43.01505" lon="0.21877">
        <ele>1294.5</ele>
        <time>2023-11-19T12:36:15Z</time>
      </trkpt>
      <trkpt lat="43.01506" lon="0.21879">
        <ele>1294.5</ele>
        <time>2023-11-19T12:36:16Z</time>
      </trkpt>
      <trkpt lat="43.01506" lon="0.2188">
        <ele>1294.5</ele>
        <time>2023-11-19T12:36:17Z</time>
      </trkpt>
      <trkpt lat="43.01506" lon="0.21881">
        <ele>1294.5</ele>
        <time>2023-11-19T12:36:18Z</time>
      </trkpt>
      <trkpt lat="43.01507" lon="0.21882">
        <ele>1294.3</ele>
        <time>2023-11-19T12:36:19Z</time>
      </trkpt>
      <trkpt lat="43.01508" lon="0.21884">
        <ele>1294.3</ele>
        <time>2023-11-19T12:36:20Z</time>
      </trkpt>
      <trkpt lat="43.01508" lon="0.21885">
        <ele>1294.3</ele>
        <time>2023-11-19T12:36:21Z</time>
      </trkpt>
      <trkpt lat="43.01509" lon="0.21886">
        <ele>1294.3</ele>
        <time>2023-11-19T12:36:22Z</time>
      </trkpt>
      <trkpt lat="43.01511" lon="0.21886">
        <ele>1294.1</ele>
        <time>2023-11-19T12:36:23Z</time>
      </trkpt>
      <trkpt lat="43.01512" lon="0.21886">
        <ele>1294.1</ele>
        <time>2023-11-19T12:36:24Z</time>
      </trkpt>
      <trkpt lat="43.01513" lon="0.21887">
        <ele>1294.1</ele>
        <time>2023-11-19T12:36:25Z</time>
      </trkpt>
      <trkpt lat="43.01514" lon="0.21885">
        <ele>1294</ele>
        <time>2023-11-19T12:36:26Z</time>
      </trkpt>
      <trkpt lat="43.01515" lon="0.21883">
        <ele>1294</ele>
        <time>2023-11-19T12:36:27Z</time>
      </trkpt>
      <trkpt lat="43.01516" lon="0.21885">
        <ele>1294</ele>
        <time>2023-11-19T12:36:28Z</time>
      </trkpt>
      <trkpt lat="43.01517" lon="0.21885">
        <ele>1293.8</ele>
        <time>2023-11-19T12:36:29Z</time>
      </trkpt>
      <trkpt lat="43.01519" lon="0.21887">
        <ele>1293.7</ele>
        <time>2023-11-19T12:36:30Z</time>
      </trkpt>
      <trkpt lat="43.0152" lon="0.21888">
        <ele>1293.7</ele>
        <time>2023-11-19T12:36:31Z</time>
      </trkpt>
      <trkpt lat="43.01521" lon="0.21887">
        <ele>1293.7</ele>
        <time>2023-11-19T12:36:32Z</time>
      </trkpt>
      <trkpt lat="43.01522" lon="0.21888">
        <ele>1293.7</ele>
        <time>2023-11-19T12:36:33Z</time>
      </trkpt>
      <trkpt lat="43.01523" lon="0.21888">
        <ele>1293.6</ele>
        <time>2023-11-19T12:36:34Z</time>
      </trkpt>
      <trkpt lat="43.01523" lon="0.21889">
        <ele>1293.6</ele>
        <time>2023-11-19T12:36:35Z</time>
      </trkpt>
      <trkpt lat="43.01524" lon="0.21889">
        <ele>1293.6</ele>
        <time>2023-11-19T12:36:36Z</time>
      </trkpt>
      <trkpt lat="43.01525" lon="0.21889">
        <ele>1293.6</ele>
        <time>2023-11-19T12:36:37Z</time>
      </trkpt>
      <trkpt lat="43.01526" lon="0.21888">
        <ele>1293.4</ele>
        <time>2023-11-19T12:36:38Z</time>
      </trkpt>
      <trkpt lat="43.01526" lon="0.21888">
        <ele>1293.4</ele>
        <time>2023-11-19T12:36:39Z</time>
      </trkpt>
      <trkpt lat="43.01528" lon="0.21888">
        <ele>1293.4</ele>
        <time>2023-11-19T12:36:40Z</time>
      </trkpt>
      <trkpt lat="43.01529" lon="0.21889">
        <ele>1293.3</ele>
        <time>2023-11-19T12:36:41Z</time>
      </trkpt>
      <trkpt lat="43.0153" lon="0.2189">
        <ele>1293.3</ele>
        <time>2023-11-19T12:36:42Z</time>
      </trkpt>
      <trkpt lat="43.01529" lon="0.21891">
        <ele>1293.3</ele>
        <time>2023-11-19T12:36:43Z</time>
      </trkpt>
      <trkpt lat="43.0153" lon="0.2189">
        <ele>1293.3</ele>
        <time>2023-11-19T12:36:44Z</time>
      </trkpt>
      <trkpt lat="43.01529" lon="0.2189">
        <ele>1293.3</ele>
        <time>2023-11-19T12:36:45Z</time>
      </trkpt>
      <trkpt lat="43.01531" lon="0.2189">
        <ele>1293.4</ele>
        <time>2023-11-19T12:36:46Z</time>
      </trkpt>
      <trkpt lat="43.01532" lon="0.21891">
        <ele>1293.2</ele>
        <time>2023-11-19T12:36:47Z</time>
      </trkpt>
      <trkpt lat="43.01533" lon="0.21891">
        <ele>1293.2</ele>
        <time>2023-11-19T12:36:48Z</time>
      </trkpt>
      <trkpt lat="43.01532" lon="0.21893">
        <ele>1293.2</ele>
        <time>2023-11-19T12:36:49Z</time>
      </trkpt>
      <trkpt lat="43.01533" lon="0.21893">
        <ele>1293.2</ele>
        <time>2023-11-19T12:36:50Z</time>
      </trkpt>
      <trkpt lat="43.01533" lon="0.21894">
        <ele>1293.2</ele>
        <time>2023-11-19T12:36:51Z</time>
      </trkpt>
      <trkpt lat="43.01532" lon="0.21896">
        <ele>1293.2</ele>
        <time>2023-11-19T12:36:52Z</time>
      </trkpt>
      <trkpt lat="43.01533" lon="0.21899">
        <ele>1293.2</ele>
        <time>2023-11-19T12:36:53Z</time>
      </trkpt>
      <trkpt lat="43.01533" lon="0.219">
        <ele>1293.1</ele>
        <time>2023-11-19T12:36:54Z</time>
      </trkpt>
      <trkpt lat="43.01534" lon="0.21903">
        <ele>1293.1</ele>
        <time>2023-11-19T12:36:55Z</time>
      </trkpt>
      <trkpt lat="43.01534" lon="0.21903">
        <ele>1293.1</ele>
        <time>2023-11-19T12:36:56Z</time>
      </trkpt>
      <trkpt lat="43.01535" lon="0.21904">
        <ele>1292.9</ele>
        <time>2023-11-19T12:36:57Z</time>
      </trkpt>
      <trkpt lat="43.01536" lon="0.21905">
        <ele>1292.9</ele>
        <time>2023-11-19T12:36:58Z</time>
      </trkpt>
      <trkpt lat="43.01537" lon="0.21906">
        <ele>1293</ele>
        <time>2023-11-19T12:36:59Z</time>
      </trkpt>
      <trkpt lat="43.01538" lon="0.21907">
        <ele>1293</ele>
        <time>2023-11-19T12:37:00Z</time>
      </trkpt>
      <trkpt lat="43.01539" lon="0.21908">
        <ele>1292.9</ele>
        <time>2023-11-19T12:37:01Z</time>
      </trkpt>
      <trkpt lat="43.0154" lon="0.21909">
        <ele>1292.9</ele>
        <time>2023-11-19T12:37:02Z</time>
      </trkpt>
      <trkpt lat="43.0154" lon="0.2191">
        <ele>1292.9</ele>
        <time>2023-11-19T12:37:03Z</time>
      </trkpt>
      <trkpt lat="43.01541" lon="0.21911">
        <ele>1292.9</ele>
        <time>2023-11-19T12:37:04Z</time>
      </trkpt>
      <trkpt lat="43.01542" lon="0.21913">
        <ele>1293</ele>
        <time>2023-11-19T12:37:05Z</time>
      </trkpt>
      <trkpt lat="43.01544" lon="0.21914">
        <ele>1293</ele>
        <time>2023-11-19T12:37:06Z</time>
      </trkpt>
      <trkpt lat="43.01545" lon="0.21914">
        <ele>1293.1</ele>
        <time>2023-11-19T12:37:07Z</time>
      </trkpt>
      <trkpt lat="43.01546" lon="0.21914">
        <ele>1293.1</ele>
        <time>2023-11-19T12:37:08Z</time>
      </trkpt>
      <trkpt lat="43.01547" lon="0.21915">
        <ele>1293.1</ele>
        <time>2023-11-19T12:37:09Z</time>
      </trkpt>
      <trkpt lat="43.01547" lon="0.21915">
        <ele>1293.1</ele>
        <time>2023-11-19T12:37:10Z</time>
      </trkpt>
      <trkpt lat="43.01547" lon="0.21916">
        <ele>1293.2</ele>
        <time>2023-11-19T12:37:11Z</time>
      </trkpt>
      <trkpt lat="43.01547" lon="0.21916">
        <ele>1293.2</ele>
        <time>2023-11-19T12:37:12Z</time>
      </trkpt>
      <trkpt lat="43.01547" lon="0.21916">
        <ele>1293.2</ele>
        <time>2023-11-19T12:37:13Z</time>
      </trkpt>
      <trkpt lat="43.01547" lon="0.21917">
        <ele>1293.4</ele>
        <time>2023-11-19T12:37:14Z</time>
      </trkpt>
      <trkpt lat="43.01548" lon="0.21917">
        <ele>1293.5</ele>
        <time>2023-11-19T12:37:15Z</time>
      </trkpt>
      <trkpt lat="43.01548" lon="0.21917">
        <ele>1293.6</ele>
        <time>2023-11-19T12:37:16Z</time>
      </trkpt>
      <trkpt lat="43.01548" lon="0.21918">
        <ele>1293.6</ele>
        <time>2023-11-19T12:37:17Z</time>
      </trkpt>
      <trkpt lat="43.01548" lon="0.21918">
        <ele>1293.6</ele>
        <time>2023-11-19T12:37:18Z</time>
      </trkpt>
      <trkpt lat="43.01548" lon="0.21918">
        <ele>1293.6</ele>
        <time>2023-11-19T12:37:19Z</time>
      </trkpt>
      <trkpt lat="43.01548" lon="0.2192">
        <ele>1293.6</ele>
        <time>2023-11-19T12:37:20Z</time>
      </trkpt>
      <trkpt lat="43.01548" lon="0.21921">
        <ele>1293.6</ele>
        <time>2023-11-19T12:37:21Z</time>
      </trkpt>
      <trkpt lat="43.01548" lon="0.21922">
        <ele>1293.8</ele>
        <time>2023-11-19T12:37:22Z</time>
      </trkpt>
      <trkpt lat="43.01548" lon="0.21923">
        <ele>1293.8</ele>
        <time>2023-11-19T12:37:23Z</time>
      </trkpt>
      <trkpt lat="43.01548" lon="0.21924">
        <ele>1293.8</ele>
        <time>2023-11-19T12:37:24Z</time>
      </trkpt>
      <trkpt lat="43.01547" lon="0.21925">
        <ele>1293.5</ele>
        <time>2023-11-19T12:37:25Z</time>
      </trkpt>
      <trkpt lat="43.01547" lon="0.21925">
        <ele>1293.6</ele>
        <time>2023-11-19T12:37:26Z</time>
      </trkpt>
      <trkpt lat="43.01547" lon="0.21926">
        <ele>1293.8</ele>
        <time>2023-11-19T12:37:27Z</time>
      </trkpt>
      <trkpt lat="43.01547" lon="0.21927">
        <ele>1293.8</ele>
        <time>2023-11-19T12:37:28Z</time>
      </trkpt>
      <trkpt lat="43.01546" lon="0.21928">
        <ele>1293.8</ele>
        <time>2023-11-19T12:37:29Z</time>
      </trkpt>
      <trkpt lat="43.01546" lon="0.21929">
        <ele>1293.8</ele>
        <time>2023-11-19T12:37:30Z</time>
      </trkpt>
      <trkpt lat="43.01546" lon="0.2193">
        <ele>1293.8</ele>
        <time>2023-11-19T12:37:31Z</time>
      </trkpt>
      <trkpt lat="43.01546" lon="0.21933">
        <ele>1294.1</ele>
        <time>2023-11-19T12:37:32Z</time>
      </trkpt>
      <trkpt lat="43.01546" lon="0.21934">
        <ele>1294.1</ele>
        <time>2023-11-19T12:37:33Z</time>
      </trkpt>
      <trkpt lat="43.01546" lon="0.21935">
        <ele>1294.5</ele>
        <time>2023-11-19T12:37:34Z</time>
      </trkpt>
      <trkpt lat="43.01546" lon="0.21936">
        <ele>1294.5</ele>
        <time>2023-11-19T12:37:35Z</time>
      </trkpt>
      <trkpt lat="43.01547" lon="0.21936">
        <ele>1294.5</ele>
        <time>2023-11-19T12:37:36Z</time>
      </trkpt>
      <trkpt lat="43.01547" lon="0.21935">
        <ele>1294.5</ele>
        <time>2023-11-19T12:37:37Z</time>
      </trkpt>
      <trkpt lat="43.01547" lon="0.21937">
        <ele>1294.5</ele>
        <time>2023-11-19T12:37:38Z</time>
      </trkpt>
      <trkpt lat="43.01547" lon="0.21939">
        <ele>1294.9</ele>
        <time>2023-11-19T12:37:39Z</time>
      </trkpt>
      <trkpt lat="43.01547" lon="0.2194">
        <ele>1294.9</ele>
        <time>2023-11-19T12:37:40Z</time>
      </trkpt>
      <trkpt lat="43.01547" lon="0.21939">
        <ele>1294.9</ele>
        <time>2023-11-19T12:37:41Z</time>
      </trkpt>
      <trkpt lat="43.01547" lon="0.21939">
        <ele>1295</ele>
        <time>2023-11-19T12:37:42Z</time>
      </trkpt>
      <trkpt lat="43.01548" lon="0.21941">
        <ele>1295.3</ele>
        <time>2023-11-19T12:37:43Z</time>
      </trkpt>
      <trkpt lat="43.01548" lon="0.21941">
        <ele>1295.3</ele>
        <time>2023-11-19T12:37:44Z</time>
      </trkpt>
      <trkpt lat="43.01548" lon="0.21942">
        <ele>1295.3</ele>
        <time>2023-11-19T12:37:45Z</time>
      </trkpt>
      <trkpt lat="43.01548" lon="0.21942">
        <ele>1295.3</ele>
        <time>2023-11-19T12:37:46Z</time>
      </trkpt>
      <trkpt lat="43.01548" lon="0.21943">
        <ele>1295.8</ele>
        <time>2023-11-19T12:37:47Z</time>
      </trkpt>
      <trkpt lat="43.01549" lon="0.21944">
        <ele>1295.8</ele>
        <time>2023-11-19T12:37:48Z</time>
      </trkpt>
      <trkpt lat="43.01549" lon="0.21945">
        <ele>1295.8</ele>
        <time>2023-11-19T12:37:49Z</time>
      </trkpt>
      <trkpt lat="43.01549" lon="0.21945">
        <ele>1295.8</ele>
        <time>2023-11-19T12:37:50Z</time>
      </trkpt>
      <trkpt lat="43.01549" lon="0.21944">
        <ele>1295.8</ele>
        <time>2023-11-19T12:37:51Z</time>
      </trkpt>
      <trkpt lat="43.01549" lon="0.21944">
        <ele>1295.8</ele>
        <time>2023-11-19T12:37:52Z</time>
      </trkpt>
      <trkpt lat="43.01549" lon="0.21944">
        <ele>1295.8</ele>
        <time>2023-11-19T12:37:53Z</time>
      </trkpt>
      <trkpt lat="43.0155" lon="0.21944">
        <ele>1295.8</ele>
        <time>2023-11-19T12:37:54Z</time>
      </trkpt>
      <trkpt lat="43.0155" lon="0.21944">
        <ele>1295.8</ele>
        <time>2023-11-19T12:37:55Z</time>
      </trkpt>
      <trkpt lat="43.01552" lon="0.21946">
        <ele>1296.2</ele>
        <time>2023-11-19T12:37:56Z</time>
      </trkpt>
      <trkpt lat="43.01553" lon="0.21946">
        <ele>1296.2</ele>
        <time>2023-11-19T12:37:57Z</time>
      </trkpt>
      <trkpt lat="43.01552" lon="0.21946">
        <ele>1296.2</ele>
        <time>2023-11-19T12:37:58Z</time>
      </trkpt>
      <trkpt lat="43.01553" lon="0.21946">
        <ele>1296.2</ele>
        <time>2023-11-19T12:37:59Z</time>
      </trkpt>
      <trkpt lat="43.01554" lon="0.21946">
        <ele>1296.7</ele>
        <time>2023-11-19T12:38:01Z</time>
      </trkpt>
      <trkpt lat="43.01555" lon="0.21945">
        <ele>1296.7</ele>
        <time>2023-11-19T12:38:02Z</time>
      </trkpt>
      <trkpt lat="43.01555" lon="0.21945">
        <ele>1296.7</ele>
        <time>2023-11-19T12:38:03Z</time>
      </trkpt>
      <trkpt lat="43.01556" lon="0.21945">
        <ele>1296.7</ele>
        <time>2023-11-19T12:38:04Z</time>
      </trkpt>
      <trkpt lat="43.01556" lon="0.21945">
        <ele>1296.7</ele>
        <time>2023-11-19T12:38:05Z</time>
      </trkpt>
      <trkpt lat="43.01556" lon="0.21944">
        <ele>1296.7</ele>
        <time>2023-11-19T12:38:06Z</time>
      </trkpt>
      <trkpt lat="43.01556" lon="0.21944">
        <ele>1296.7</ele>
        <time>2023-11-19T12:38:07Z</time>
      </trkpt>
      <trkpt lat="43.01558" lon="0.21943">
        <ele>1297.2</ele>
        <time>2023-11-19T12:38:08Z</time>
      </trkpt>
      <trkpt lat="43.01558" lon="0.21943">
        <ele>1297.2</ele>
        <time>2023-11-19T12:38:09Z</time>
      </trkpt>
      <trkpt lat="43.01557" lon="0.21943">
        <ele>1297.2</ele>
        <time>2023-11-19T12:38:10Z</time>
      </trkpt>
      <trkpt lat="43.01558" lon="0.21943">
        <ele>1297.2</ele>
        <time>2023-11-19T12:38:11Z</time>
      </trkpt>
      <trkpt lat="43.01558" lon="0.21943">
        <ele>1297.2</ele>
        <time>2023-11-19T12:38:12Z</time>
      </trkpt>
      <trkpt lat="43.01558" lon="0.21944">
        <ele>1297.2</ele>
        <time>2023-11-19T12:38:13Z</time>
      </trkpt>
      <trkpt lat="43.01557" lon="0.21944">
        <ele>1297.2</ele>
        <time>2023-11-19T12:38:14Z</time>
      </trkpt>
      <trkpt lat="43.01559" lon="0.21945">
        <ele>1297.2</ele>
        <time>2023-11-19T12:38:15Z</time>
      </trkpt>
      <trkpt lat="43.01558" lon="0.21945">
        <ele>1297.2</ele>
        <time>2023-11-19T12:38:16Z</time>
      </trkpt>
      <trkpt lat="43.01558" lon="0.21945">
        <ele>1297.2</ele>
        <time>2023-11-19T12:38:17Z</time>
      </trkpt>
      <trkpt lat="43.01559" lon="0.21946">
        <ele>1297.2</ele>
        <time>2023-11-19T12:38:18Z</time>
      </trkpt>
      <trkpt lat="43.01559" lon="0.21946">
        <ele>1297.2</ele>
        <time>2023-11-19T12:38:19Z</time>
      </trkpt>
      <trkpt lat="43.01559" lon="0.21947">
        <ele>1297.6</ele>
        <time>2023-11-19T12:38:20Z</time>
      </trkpt>
      <trkpt lat="43.01559" lon="0.21949">
        <ele>1297.6</ele>
        <time>2023-11-19T12:38:21Z</time>
      </trkpt>
      <trkpt lat="43.01559" lon="0.21949">
        <ele>1297.6</ele>
        <time>2023-11-19T12:38:22Z</time>
      </trkpt>
      <trkpt lat="43.01559" lon="0.2195">
        <ele>1297.6</ele>
        <time>2023-11-19T12:38:23Z</time>
      </trkpt>
      <trkpt lat="43.01559" lon="0.2195">
        <ele>1297.6</ele>
        <time>2023-11-19T12:38:24Z</time>
      </trkpt>
      <trkpt lat="43.01559" lon="0.21951">
        <ele>1297.9</ele>
        <time>2023-11-19T12:38:25Z</time>
      </trkpt>
      <trkpt lat="43.01559" lon="0.21951">
        <ele>1297.6</ele>
        <time>2023-11-19T12:38:26Z</time>
      </trkpt>
      <trkpt lat="43.01559" lon="0.21951">
        <ele>1298</ele>
        <time>2023-11-19T12:38:27Z</time>
      </trkpt>
      <trkpt lat="43.01559" lon="0.21952">
        <ele>1298</ele>
        <time>2023-11-19T12:38:28Z</time>
      </trkpt>
      <trkpt lat="43.01558" lon="0.21952">
        <ele>1298</ele>
        <time>2023-11-19T12:38:29Z</time>
      </trkpt>
      <trkpt lat="43.01558" lon="0.21953">
        <ele>1298</ele>
        <time>2023-11-19T12:38:30Z</time>
      </trkpt>
      <trkpt lat="43.01558" lon="0.21954">
        <ele>1298</ele>
        <time>2023-11-19T12:38:31Z</time>
      </trkpt>
      <trkpt lat="43.01558" lon="0.21955">
        <ele>1298</ele>
        <time>2023-11-19T12:38:32Z</time>
      </trkpt>
      <trkpt lat="43.01558" lon="0.21956">
        <ele>1298.3</ele>
        <time>2023-11-19T12:38:33Z</time>
      </trkpt>
      <trkpt lat="43.01557" lon="0.21957">
        <ele>1298.3</ele>
        <time>2023-11-19T12:38:34Z</time>
      </trkpt>
      <trkpt lat="43.01557" lon="0.21958">
        <ele>1298.3</ele>
        <time>2023-11-19T12:38:35Z</time>
      </trkpt>
      <trkpt lat="43.01557" lon="0.21958">
        <ele>1298.3</ele>
        <time>2023-11-19T12:38:36Z</time>
      </trkpt>
      <trkpt lat="43.01557" lon="0.21958">
        <ele>1298.4</ele>
        <time>2023-11-19T12:38:37Z</time>
      </trkpt>
      <trkpt lat="43.01556" lon="0.21959">
        <ele>1298.1</ele>
        <time>2023-11-19T12:38:38Z</time>
      </trkpt>
      <trkpt lat="43.01556" lon="0.2196">
        <ele>1298.4</ele>
        <time>2023-11-19T12:38:39Z</time>
      </trkpt>
      <trkpt lat="43.01556" lon="0.2196">
        <ele>1298.4</ele>
        <time>2023-11-19T12:38:40Z</time>
      </trkpt>
      <trkpt lat="43.01556" lon="0.21961">
        <ele>1298.4</ele>
        <time>2023-11-19T12:38:41Z</time>
      </trkpt>
      <trkpt lat="43.01555" lon="0.21962">
        <ele>1298.4</ele>
        <time>2023-11-19T12:38:42Z</time>
      </trkpt>
      <trkpt lat="43.01556" lon="0.21962">
        <ele>1298.5</ele>
        <time>2023-11-19T12:38:43Z</time>
      </trkpt>
      <trkpt lat="43.01555" lon="0.21963">
        <ele>1298.5</ele>
        <time>2023-11-19T12:38:44Z</time>
      </trkpt>
      <trkpt lat="43.01556" lon="0.21963">
        <ele>1298.5</ele>
        <time>2023-11-19T12:38:45Z</time>
      </trkpt>
      <trkpt lat="43.01556" lon="0.21964">
        <ele>1298.9</ele>
        <time>2023-11-19T12:38:46Z</time>
      </trkpt>
      <trkpt lat="43.01556" lon="0.21965">
        <ele>1298.9</ele>
        <time>2023-11-19T12:38:47Z</time>
      </trkpt>
      <trkpt lat="43.01556" lon="0.21965">
        <ele>1298.9</ele>
        <time>2023-11-19T12:38:48Z</time>
      </trkpt>
      <trkpt lat="43.01555" lon="0.21966">
        <ele>1298.9</ele>
        <time>2023-11-19T12:38:49Z</time>
      </trkpt>
      <trkpt lat="43.01556" lon="0.21967">
        <ele>1298.9</ele>
        <time>2023-11-19T12:38:50Z</time>
      </trkpt>
      <trkpt lat="43.01556" lon="0.21968">
        <ele>1298.9</ele>
        <time>2023-11-19T12:38:51Z</time>
      </trkpt>
      <trkpt lat="43.01557" lon="0.21969">
        <ele>1299.5</ele>
        <time>2023-11-19T12:38:52Z</time>
      </trkpt>
      <trkpt lat="43.01557" lon="0.21969">
        <ele>1299.5</ele>
        <time>2023-11-19T12:38:53Z</time>
      </trkpt>
      <trkpt lat="43.01558" lon="0.2197">
        <ele>1299.5</ele>
        <time>2023-11-19T12:38:54Z</time>
      </trkpt>
      <trkpt lat="43.01559" lon="0.21971">
        <ele>1299.5</ele>
        <time>2023-11-19T12:38:55Z</time>
      </trkpt>
      <trkpt lat="43.01559" lon="0.21969">
        <ele>1299.6</ele>
        <time>2023-11-19T12:38:56Z</time>
      </trkpt>
      <trkpt lat="43.01559" lon="0.2197">
        <ele>1299.6</ele>
        <time>2023-11-19T12:38:57Z</time>
      </trkpt>
      <trkpt lat="43.01559" lon="0.2197">
        <ele>1299.6</ele>
        <time>2023-11-19T12:38:58Z</time>
      </trkpt>
      <trkpt lat="43.01558" lon="0.2197">
        <ele>1299.6</ele>
        <time>2023-11-19T12:38:59Z</time>
      </trkpt>
      <trkpt lat="43.01559" lon="0.2197">
        <ele>1299.6</ele>
        <time>2023-11-19T12:39:00Z</time>
      </trkpt>
      <trkpt lat="43.01559" lon="0.2197">
        <ele>1299.6</ele>
        <time>2023-11-19T12:39:01Z</time>
      </trkpt>
      <trkpt lat="43.01559" lon="0.2197">
        <ele>1299.6</ele>
        <time>2023-11-19T12:39:02Z</time>
      </trkpt>
      <trkpt lat="43.0156" lon="0.21971">
        <ele>1299.6</ele>
        <time>2023-11-19T12:39:03Z</time>
      </trkpt>
      <trkpt lat="43.01561" lon="0.21971">
        <ele>1299.8</ele>
        <time>2023-11-19T12:39:04Z</time>
      </trkpt>
      <trkpt lat="43.01561" lon="0.21972">
        <ele>1299.8</ele>
        <time>2023-11-19T12:39:05Z</time>
      </trkpt>
      <trkpt lat="43.01561" lon="0.21973">
        <ele>1299.8</ele>
        <time>2023-11-19T12:39:06Z</time>
      </trkpt>
      <trkpt lat="43.0156" lon="0.21973">
        <ele>1299.6</ele>
        <time>2023-11-19T12:39:07Z</time>
      </trkpt>
      <trkpt lat="43.01561" lon="0.21974">
        <ele>1300.5</ele>
        <time>2023-11-19T12:39:08Z</time>
      </trkpt>
      <trkpt lat="43.01562" lon="0.21974">
        <ele>1300.5</ele>
        <time>2023-11-19T12:39:09Z</time>
      </trkpt>
      <trkpt lat="43.01562" lon="0.21974">
        <ele>1300.5</ele>
        <time>2023-11-19T12:39:10Z</time>
      </trkpt>
      <trkpt lat="43.01562" lon="0.21974">
        <ele>1300.5</ele>
        <time>2023-11-19T12:39:11Z</time>
      </trkpt>
      <trkpt lat="43.01563" lon="0.21974">
        <ele>1300.5</ele>
        <time>2023-11-19T12:39:12Z</time>
      </trkpt>
      <trkpt lat="43.01563" lon="0.21974">
        <ele>1300.5</ele>
        <time>2023-11-19T12:39:13Z</time>
      </trkpt>
      <trkpt lat="43.01563" lon="0.21974">
        <ele>1300.5</ele>
        <time>2023-11-19T12:39:14Z</time>
      </trkpt>
      <trkpt lat="43.01563" lon="0.21974">
        <ele>1300.7</ele>
        <time>2023-11-19T12:39:15Z</time>
      </trkpt>
      <trkpt lat="43.01563" lon="0.21974">
        <ele>1300.7</ele>
        <time>2023-11-19T12:39:16Z</time>
      </trkpt>
      <trkpt lat="43.01564" lon="0.21974">
        <ele>1300.7</ele>
        <time>2023-11-19T12:39:17Z</time>
      </trkpt>
      <trkpt lat="43.01564" lon="0.21974">
        <ele>1300.7</ele>
        <time>2023-11-19T12:39:18Z</time>
      </trkpt>
      <trkpt lat="43.01564" lon="0.21974">
        <ele>1300.7</ele>
        <time>2023-11-19T12:39:19Z</time>
      </trkpt>
      <trkpt lat="43.01564" lon="0.21974">
        <ele>1300.7</ele>
        <time>2023-11-19T12:39:20Z</time>
      </trkpt>
      <trkpt lat="43.01564" lon="0.21975">
        <ele>1300.7</ele>
        <time>2023-11-19T12:39:21Z</time>
      </trkpt>
      <trkpt lat="43.01565" lon="0.21975">
        <ele>1300.7</ele>
        <time>2023-11-19T12:39:22Z</time>
      </trkpt>
      <trkpt lat="43.01565" lon="0.21975">
        <ele>1300.8</ele>
        <time>2023-11-19T12:39:23Z</time>
      </trkpt>
      <trkpt lat="43.01564" lon="0.21975">
        <ele>1300.8</ele>
        <time>2023-11-19T12:39:24Z</time>
      </trkpt>
      <trkpt lat="43.01563" lon="0.21975">
        <ele>1300.8</ele>
        <time>2023-11-19T12:39:25Z</time>
      </trkpt>
      <trkpt lat="43.01564" lon="0.21977">
        <ele>1300.8</ele>
        <time>2023-11-19T12:39:26Z</time>
      </trkpt>
      <trkpt lat="43.01566" lon="0.21978">
        <ele>1301.2</ele>
        <time>2023-11-19T12:39:27Z</time>
      </trkpt>
      <trkpt lat="43.01565" lon="0.21979">
        <ele>1301.2</ele>
        <time>2023-11-19T12:39:28Z</time>
      </trkpt>
      <trkpt lat="43.01565" lon="0.21983">
        <ele>1301.6</ele>
        <time>2023-11-19T12:39:29Z</time>
      </trkpt>
      <trkpt lat="43.01566" lon="0.21983">
        <ele>1301.6</ele>
        <time>2023-11-19T12:39:30Z</time>
      </trkpt>
      <trkpt lat="43.01566" lon="0.21983">
        <ele>1301.8</ele>
        <time>2023-11-19T12:39:31Z</time>
      </trkpt>
      <trkpt lat="43.01567" lon="0.21984">
        <ele>1301.8</ele>
        <time>2023-11-19T12:39:32Z</time>
      </trkpt>
      <trkpt lat="43.01567" lon="0.21984">
        <ele>1301.8</ele>
        <time>2023-11-19T12:39:33Z</time>
      </trkpt>
      <trkpt lat="43.01567" lon="0.21985">
        <ele>1301.8</ele>
        <time>2023-11-19T12:39:34Z</time>
      </trkpt>
      <trkpt lat="43.01567" lon="0.21986">
        <ele>1301.8</ele>
        <time>2023-11-19T12:39:35Z</time>
      </trkpt>
      <trkpt lat="43.01568" lon="0.21987">
        <ele>1302.2</ele>
        <time>2023-11-19T12:39:36Z</time>
      </trkpt>
      <trkpt lat="43.01568" lon="0.21987">
        <ele>1302.2</ele>
        <time>2023-11-19T12:39:37Z</time>
      </trkpt>
      <trkpt lat="43.01568" lon="0.21988">
        <ele>1302.2</ele>
        <time>2023-11-19T12:39:38Z</time>
      </trkpt>
      <trkpt lat="43.01568" lon="0.21989">
        <ele>1302.2</ele>
        <time>2023-11-19T12:39:39Z</time>
      </trkpt>
      <trkpt lat="43.01568" lon="0.21989">
        <ele>1302.2</ele>
        <time>2023-11-19T12:39:40Z</time>
      </trkpt>
      <trkpt lat="43.01568" lon="0.2199">
        <ele>1302.3</ele>
        <time>2023-11-19T12:39:41Z</time>
      </trkpt>
      <trkpt lat="43.01569" lon="0.21989">
        <ele>1302.3</ele>
        <time>2023-11-19T12:39:42Z</time>
      </trkpt>
      <trkpt lat="43.0157" lon="0.21989">
        <ele>1302.5</ele>
        <time>2023-11-19T12:39:43Z</time>
      </trkpt>
      <trkpt lat="43.0157" lon="0.2199">
        <ele>1302.9</ele>
        <time>2023-11-19T12:39:44Z</time>
      </trkpt>
      <trkpt lat="43.01571" lon="0.2199">
        <ele>1302.9</ele>
        <time>2023-11-19T12:39:45Z</time>
      </trkpt>
      <trkpt lat="43.01572" lon="0.21991">
        <ele>1302.9</ele>
        <time>2023-11-19T12:39:46Z</time>
      </trkpt>
      <trkpt lat="43.01572" lon="0.21991">
        <ele>1302.9</ele>
        <time>2023-11-19T12:39:47Z</time>
      </trkpt>
      <trkpt lat="43.01573" lon="0.21991">
        <ele>1303.2</ele>
        <time>2023-11-19T12:39:48Z</time>
      </trkpt>
      <trkpt lat="43.01573" lon="0.21991">
        <ele>1303.2</ele>
        <time>2023-11-19T12:39:49Z</time>
      </trkpt>
      <trkpt lat="43.01574" lon="0.21992">
        <ele>1303.3</ele>
        <time>2023-11-19T12:39:50Z</time>
      </trkpt>
      <trkpt lat="43.01574" lon="0.21992">
        <ele>1303.3</ele>
        <time>2023-11-19T12:39:51Z</time>
      </trkpt>
      <trkpt lat="43.01575" lon="0.21992">
        <ele>1303.3</ele>
        <time>2023-11-19T12:39:52Z</time>
      </trkpt>
      <trkpt lat="43.01575" lon="0.21992">
        <ele>1303.3</ele>
        <time>2023-11-19T12:39:53Z</time>
      </trkpt>
      <trkpt lat="43.01576" lon="0.21992">
        <ele>1303.3</ele>
        <time>2023-11-19T12:39:54Z</time>
      </trkpt>
      <trkpt lat="43.01576" lon="0.21992">
        <ele>1303.7</ele>
        <time>2023-11-19T12:39:55Z</time>
      </trkpt>
      <trkpt lat="43.01577" lon="0.21993">
        <ele>1303.7</ele>
        <time>2023-11-19T12:39:56Z</time>
      </trkpt>
      <trkpt lat="43.01577" lon="0.21992">
        <ele>1303.7</ele>
        <time>2023-11-19T12:39:57Z</time>
      </trkpt>
      <trkpt lat="43.01577" lon="0.21992">
        <ele>1303.7</ele>
        <time>2023-11-19T12:39:58Z</time>
      </trkpt>
      <trkpt lat="43.01577" lon="0.21993">
        <ele>1303.7</ele>
        <time>2023-11-19T12:39:59Z</time>
      </trkpt>
      <trkpt lat="43.01577" lon="0.21995">
        <ele>1304.2</ele>
        <time>2023-11-19T12:40:00Z</time>
      </trkpt>
      <trkpt lat="43.01576" lon="0.21996">
        <ele>1304.2</ele>
        <time>2023-11-19T12:40:01Z</time>
      </trkpt>
      <trkpt lat="43.01576" lon="0.21998">
        <ele>1304.2</ele>
        <time>2023-11-19T12:40:02Z</time>
      </trkpt>
      <trkpt lat="43.01576" lon="0.21999">
        <ele>1304.8</ele>
        <time>2023-11-19T12:40:03Z</time>
      </trkpt>
      <trkpt lat="43.01576" lon="0.21999">
        <ele>1304.8</ele>
        <time>2023-11-19T12:40:04Z</time>
      </trkpt>
      <trkpt lat="43.01577" lon="0.22001">
        <ele>1304.8</ele>
        <time>2023-11-19T12:40:05Z</time>
      </trkpt>
      <trkpt lat="43.01577" lon="0.22001">
        <ele>1304.8</ele>
        <time>2023-11-19T12:40:06Z</time>
      </trkpt>
      <trkpt lat="43.01577" lon="0.22001">
        <ele>1304.8</ele>
        <time>2023-11-19T12:40:07Z</time>
      </trkpt>
      <trkpt lat="43.01578" lon="0.22001">
        <ele>1304.8</ele>
        <time>2023-11-19T12:40:08Z</time>
      </trkpt>
      <trkpt lat="43.01579" lon="0.22">
        <ele>1305.4</ele>
        <time>2023-11-19T12:40:09Z</time>
      </trkpt>
      <trkpt lat="43.0158" lon="0.21999">
        <ele>1305.4</ele>
        <time>2023-11-19T12:40:11Z</time>
      </trkpt>
      <trkpt lat="43.01581" lon="0.21999">
        <ele>1305.4</ele>
        <time>2023-11-19T12:40:12Z</time>
      </trkpt>
      <trkpt lat="43.01583" lon="0.22001">
        <ele>1306</ele>
        <time>2023-11-19T12:40:14Z</time>
      </trkpt>
      <trkpt lat="43.01583" lon="0.22001">
        <ele>1306</ele>
        <time>2023-11-19T12:40:15Z</time>
      </trkpt>
      <trkpt lat="43.01584" lon="0.22003">
        <ele>1306</ele>
        <time>2023-11-19T12:40:17Z</time>
      </trkpt>
      <trkpt lat="43.01584" lon="0.22004">
        <ele>1306.7</ele>
        <time>2023-11-19T12:40:18Z</time>
      </trkpt>
      <trkpt lat="43.01584" lon="0.22006">
        <ele>1306.7</ele>
        <time>2023-11-19T12:40:20Z</time>
      </trkpt>
      <trkpt lat="43.01584" lon="0.22007">
        <ele>1306.7</ele>
        <time>2023-11-19T12:40:21Z</time>
      </trkpt>
      <trkpt lat="43.01585" lon="0.22006">
        <ele>1307.3</ele>
        <time>2023-11-19T12:40:22Z</time>
      </trkpt>
      <trkpt lat="43.01586" lon="0.22006">
        <ele>1307.3</ele>
        <time>2023-11-19T12:40:23Z</time>
      </trkpt>
      <trkpt lat="43.01586" lon="0.22006">
        <ele>1307.3</ele>
        <time>2023-11-19T12:40:24Z</time>
      </trkpt>
      <trkpt lat="43.01587" lon="0.22005">
        <ele>1307.4</ele>
        <time>2023-11-19T12:40:25Z</time>
      </trkpt>
      <trkpt lat="43.01588" lon="0.22005">
        <ele>1307.4</ele>
        <time>2023-11-19T12:40:26Z</time>
      </trkpt>
      <trkpt lat="43.01589" lon="0.22005">
        <ele>1308</ele>
        <time>2023-11-19T12:40:27Z</time>
      </trkpt>
      <trkpt lat="43.0159" lon="0.22004">
        <ele>1308</ele>
        <time>2023-11-19T12:40:28Z</time>
      </trkpt>
      <trkpt lat="43.0159" lon="0.22004">
        <ele>1308</ele>
        <time>2023-11-19T12:40:29Z</time>
      </trkpt>
      <trkpt lat="43.01591" lon="0.22004">
        <ele>1308</ele>
        <time>2023-11-19T12:40:30Z</time>
      </trkpt>
      <trkpt lat="43.01592" lon="0.22004">
        <ele>1308.7</ele>
        <time>2023-11-19T12:40:31Z</time>
      </trkpt>
      <trkpt lat="43.01593" lon="0.22005">
        <ele>1308.7</ele>
        <time>2023-11-19T12:40:32Z</time>
      </trkpt>
      <trkpt lat="43.01593" lon="0.22006">
        <ele>1308.7</ele>
        <time>2023-11-19T12:40:33Z</time>
      </trkpt>
      <trkpt lat="43.01593" lon="0.22007">
        <ele>1309.4</ele>
        <time>2023-11-19T12:40:34Z</time>
      </trkpt>
      <trkpt lat="43.01593" lon="0.22008">
        <ele>1309.4</ele>
        <time>2023-11-19T12:40:35Z</time>
      </trkpt>
      <trkpt lat="43.01592" lon="0.22009">
        <ele>1309.5</ele>
        <time>2023-11-19T12:40:36Z</time>
      </trkpt>
      <trkpt lat="43.01591" lon="0.2201">
        <ele>1308.8</ele>
        <time>2023-11-19T12:40:37Z</time>
      </trkpt>
      <trkpt lat="43.01591" lon="0.2201">
        <ele>1309.5</ele>
        <time>2023-11-19T12:40:38Z</time>
      </trkpt>
      <trkpt lat="43.01592" lon="0.22011">
        <ele>1309.5</ele>
        <time>2023-11-19T12:40:39Z</time>
      </trkpt>
      <trkpt lat="43.01592" lon="0.22011">
        <ele>1309.5</ele>
        <time>2023-11-19T12:40:40Z</time>
      </trkpt>
      <trkpt lat="43.01593" lon="0.22011">
        <ele>1309.5</ele>
        <time>2023-11-19T12:40:41Z</time>
      </trkpt>
      <trkpt lat="43.01594" lon="0.22012">
        <ele>1310.3</ele>
        <time>2023-11-19T12:40:42Z</time>
      </trkpt>
      <trkpt lat="43.01594" lon="0.22014">
        <ele>1310.3</ele>
        <time>2023-11-19T12:40:43Z</time>
      </trkpt>
      <trkpt lat="43.01595" lon="0.22014">
        <ele>1311</ele>
        <time>2023-11-19T12:40:44Z</time>
      </trkpt>
      <trkpt lat="43.01596" lon="0.22016">
        <ele>1311.8</ele>
        <time>2023-11-19T12:40:45Z</time>
      </trkpt>
      <trkpt lat="43.01595" lon="0.22017">
        <ele>1311.8</ele>
        <time>2023-11-19T12:40:46Z</time>
      </trkpt>
      <trkpt lat="43.01596" lon="0.22017">
        <ele>1311.8</ele>
        <time>2023-11-19T12:40:47Z</time>
      </trkpt>
      <trkpt lat="43.01595" lon="0.22016">
        <ele>1311</ele>
        <time>2023-11-19T12:40:48Z</time>
      </trkpt>
      <trkpt lat="43.01594" lon="0.22017">
        <ele>1311.1</ele>
        <time>2023-11-19T12:40:49Z</time>
      </trkpt>
      <trkpt lat="43.01594" lon="0.22018">
        <ele>1311.1</ele>
        <time>2023-11-19T12:40:50Z</time>
      </trkpt>
      <trkpt lat="43.01595" lon="0.22018">
        <ele>1311.9</ele>
        <time>2023-11-19T12:40:51Z</time>
      </trkpt>
      <trkpt lat="43.01595" lon="0.22019">
        <ele>1311.9</ele>
        <time>2023-11-19T12:40:52Z</time>
      </trkpt>
      <trkpt lat="43.01597" lon="0.2202">
        <ele>1312.7</ele>
        <time>2023-11-19T12:40:53Z</time>
      </trkpt>
      <trkpt lat="43.01597" lon="0.2202">
        <ele>1312.7</ele>
        <time>2023-11-19T12:40:54Z</time>
      </trkpt>
      <trkpt lat="43.01598" lon="0.22021">
        <ele>1313.5</ele>
        <time>2023-11-19T12:40:55Z</time>
      </trkpt>
      <trkpt lat="43.01598" lon="0.22022">
        <ele>1313.5</ele>
        <time>2023-11-19T12:40:56Z</time>
      </trkpt>
      <trkpt lat="43.01599" lon="0.22023">
        <ele>1313.5</ele>
        <time>2023-11-19T12:40:57Z</time>
      </trkpt>
      <trkpt lat="43.01599" lon="0.22025">
        <ele>1314.4</ele>
        <time>2023-11-19T12:40:58Z</time>
      </trkpt>
      <trkpt lat="43.01599" lon="0.22028">
        <ele>1314.4</ele>
        <time>2023-11-19T12:40:59Z</time>
      </trkpt>
      <trkpt lat="43.01597" lon="0.22027">
        <ele>1313.6</ele>
        <time>2023-11-19T12:41:00Z</time>
      </trkpt>
      <trkpt lat="43.01598" lon="0.22028">
        <ele>1314.4</ele>
        <time>2023-11-19T12:41:01Z</time>
      </trkpt>
      <trkpt lat="43.01597" lon="0.22027">
        <ele>1313.6</ele>
        <time>2023-11-19T12:41:02Z</time>
      </trkpt>
      <trkpt lat="43.01598" lon="0.22027">
        <ele>1314.4</ele>
        <time>2023-11-19T12:41:03Z</time>
      </trkpt>
      <trkpt lat="43.01598" lon="0.22029">
        <ele>1315.3</ele>
        <time>2023-11-19T12:41:04Z</time>
      </trkpt>
      <trkpt lat="43.01597" lon="0.22031">
        <ele>1314.5</ele>
        <time>2023-11-19T12:41:05Z</time>
      </trkpt>
      <trkpt lat="43.01597" lon="0.22032">
        <ele>1314.5</ele>
        <time>2023-11-19T12:41:06Z</time>
      </trkpt>
      <trkpt lat="43.01596" lon="0.22032">
        <ele>1314.5</ele>
        <time>2023-11-19T12:41:07Z</time>
      </trkpt>
      <trkpt lat="43.01595" lon="0.22034">
        <ele>1315.3</ele>
        <time>2023-11-19T12:41:08Z</time>
      </trkpt>
      <trkpt lat="43.01594" lon="0.22035">
        <ele>1314.6</ele>
        <time>2023-11-19T12:41:09Z</time>
      </trkpt>
      <trkpt lat="43.01594" lon="0.22036">
        <ele>1314.6</ele>
        <time>2023-11-19T12:41:10Z</time>
      </trkpt>
      <trkpt lat="43.01593" lon="0.22037">
        <ele>1315.4</ele>
        <time>2023-11-19T12:41:11Z</time>
      </trkpt>
      <trkpt lat="43.01594" lon="0.22039">
        <ele>1315.4</ele>
        <time>2023-11-19T12:41:12Z</time>
      </trkpt>
      <trkpt lat="43.01594" lon="0.2204">
        <ele>1315.4</ele>
        <time>2023-11-19T12:41:13Z</time>
      </trkpt>
      <trkpt lat="43.01594" lon="0.2204">
        <ele>1315.4</ele>
        <time>2023-11-19T12:41:14Z</time>
      </trkpt>
      <trkpt lat="43.01594" lon="0.22041">
        <ele>1315.4</ele>
        <time>2023-11-19T12:41:15Z</time>
      </trkpt>
      <trkpt lat="43.01595" lon="0.22042">
        <ele>1317</ele>
        <time>2023-11-19T12:41:16Z</time>
      </trkpt>
      <trkpt lat="43.01595" lon="0.22043">
        <ele>1317</ele>
        <time>2023-11-19T12:41:17Z</time>
      </trkpt>
      <trkpt lat="43.01595" lon="0.22044">
        <ele>1317</ele>
        <time>2023-11-19T12:41:18Z</time>
      </trkpt>
      <trkpt lat="43.01595" lon="0.22045">
        <ele>1317</ele>
        <time>2023-11-19T12:41:19Z</time>
      </trkpt>
      <trkpt lat="43.01595" lon="0.22046">
        <ele>1317.9</ele>
        <time>2023-11-19T12:41:20Z</time>
      </trkpt>
      <trkpt lat="43.01595" lon="0.22047">
        <ele>1317.9</ele>
        <time>2023-11-19T12:41:21Z</time>
      </trkpt>
      <trkpt lat="43.01595" lon="0.22048">
        <ele>1317.9</ele>
        <time>2023-11-19T12:41:22Z</time>
      </trkpt>
      <trkpt lat="43.01596" lon="0.22048">
        <ele>1317.9</ele>
        <time>2023-11-19T12:41:23Z</time>
      </trkpt>
      <trkpt lat="43.01596" lon="0.22048">
        <ele>1317.9</ele>
        <time>2023-11-19T12:41:24Z</time>
      </trkpt>
      <trkpt lat="43.01596" lon="0.22049">
        <ele>1317.9</ele>
        <time>2023-11-19T12:41:25Z</time>
      </trkpt>
      <trkpt lat="43.01596" lon="0.22049">
        <ele>1317.9</ele>
        <time>2023-11-19T12:41:26Z</time>
      </trkpt>
      <trkpt lat="43.01597" lon="0.22049">
        <ele>1317.9</ele>
        <time>2023-11-19T12:41:27Z</time>
      </trkpt>
      <trkpt lat="43.01597" lon="0.2205">
        <ele>1317.9</ele>
        <time>2023-11-19T12:41:28Z</time>
      </trkpt>
      <trkpt lat="43.01597" lon="0.2205">
        <ele>1318.8</ele>
        <time>2023-11-19T12:41:29Z</time>
      </trkpt>
      <trkpt lat="43.01597" lon="0.22051">
        <ele>1318.8</ele>
        <time>2023-11-19T12:41:30Z</time>
      </trkpt>
      <trkpt lat="43.01597" lon="0.22051">
        <ele>1318.8</ele>
        <time>2023-11-19T12:41:31Z</time>
      </trkpt>
      <trkpt lat="43.01598" lon="0.22053">
        <ele>1318.9</ele>
        <time>2023-11-19T12:41:32Z</time>
      </trkpt>
      <trkpt lat="43.01598" lon="0.22053">
        <ele>1319.7</ele>
        <time>2023-11-19T12:41:33Z</time>
      </trkpt>
      <trkpt lat="43.01598" lon="0.22054">
        <ele>1319.7</ele>
        <time>2023-11-19T12:41:34Z</time>
      </trkpt>
      <trkpt lat="43.01598" lon="0.22054">
        <ele>1319.7</ele>
        <time>2023-11-19T12:41:35Z</time>
      </trkpt>
      <trkpt lat="43.01601" lon="0.22055">
        <ele>1321.7</ele>
        <time>2023-11-19T12:41:36Z</time>
      </trkpt>
      <trkpt lat="43.016" lon="0.22054">
        <ele>1320.7</ele>
        <time>2023-11-19T12:41:37Z</time>
      </trkpt>
      <trkpt lat="43.016" lon="0.22055">
        <ele>1320.7</ele>
        <time>2023-11-19T12:41:38Z</time>
      </trkpt>
      <trkpt lat="43.016" lon="0.22054">
        <ele>1320.7</ele>
        <time>2023-11-19T12:41:39Z</time>
      </trkpt>
      <trkpt lat="43.01601" lon="0.22053">
        <ele>1320.7</ele>
        <time>2023-11-19T12:41:40Z</time>
      </trkpt>
      <trkpt lat="43.01601" lon="0.22053">
        <ele>1319.8</ele>
        <time>2023-11-19T12:41:41Z</time>
      </trkpt>
      <trkpt lat="43.01601" lon="0.22053">
        <ele>1319.8</ele>
        <time>2023-11-19T12:41:42Z</time>
      </trkpt>
      <trkpt lat="43.01601" lon="0.22053">
        <ele>1319.8</ele>
        <time>2023-11-19T12:41:43Z</time>
      </trkpt>
      <trkpt lat="43.01601" lon="0.22053">
        <ele>1319.8</ele>
        <time>2023-11-19T12:41:44Z</time>
      </trkpt>
      <trkpt lat="43.01601" lon="0.22053">
        <ele>1319.8</ele>
        <time>2023-11-19T12:41:45Z</time>
      </trkpt>
      <trkpt lat="43.01601" lon="0.22053">
        <ele>1319.8</ele>
        <time>2023-11-19T12:41:46Z</time>
      </trkpt>
      <trkpt lat="43.01601" lon="0.22053">
        <ele>1319.8</ele>
        <time>2023-11-19T12:41:47Z</time>
      </trkpt>
      <trkpt lat="43.01601" lon="0.22053">
        <ele>1319.8</ele>
        <time>2023-11-19T12:41:48Z</time>
      </trkpt>
      <trkpt lat="43.01601" lon="0.22053">
        <ele>1319.8</ele>
        <time>2023-11-19T12:41:49Z</time>
      </trkpt>
      <trkpt lat="43.01601" lon="0.22053">
        <ele>1319.9</ele>
        <time>2023-11-19T12:41:50Z</time>
      </trkpt>
      <trkpt lat="43.01601" lon="0.22053">
        <ele>1319.9</ele>
        <time>2023-11-19T12:41:51Z</time>
      </trkpt>
      <trkpt lat="43.01601" lon="0.22053">
        <ele>1319.9</ele>
        <time>2023-11-19T12:41:52Z</time>
      </trkpt>
      <trkpt lat="43.01601" lon="0.22053">
        <ele>1319.9</ele>
        <time>2023-11-19T12:41:53Z</time>
      </trkpt>
      <trkpt lat="43.01601" lon="0.22053">
        <ele>1319.9</ele>
        <time>2023-11-19T12:41:54Z</time>
      </trkpt>
      <trkpt lat="43.01601" lon="0.22053">
        <ele>1319.9</ele>
        <time>2023-11-19T12:41:55Z</time>
      </trkpt>
      <trkpt lat="43.01601" lon="0.22053">
        <ele>1319.9</ele>
        <time>2023-11-19T12:41:56Z</time>
      </trkpt>
      <trkpt lat="43.01601" lon="0.22053">
        <ele>1319.9</ele>
        <time>2023-11-19T12:41:57Z</time>
      </trkpt>
      <trkpt lat="43.01601" lon="0.22053">
        <ele>1319.9</ele>
        <time>2023-11-19T12:41:58Z</time>
      </trkpt>
      <trkpt lat="43.01599" lon="0.22054">
        <ele>1319.9</ele>
        <time>2023-11-19T12:41:59Z</time>
      </trkpt>
      <trkpt lat="43.01599" lon="0.22054">
        <ele>1319.9</ele>
        <time>2023-11-19T12:42:00Z</time>
      </trkpt>
      <trkpt lat="43.01598" lon="0.22055">
        <ele>1320.9</ele>
        <time>2023-11-19T12:42:01Z</time>
      </trkpt>
      <trkpt lat="43.01598" lon="0.22055">
        <ele>1320.9</ele>
        <time>2023-11-19T12:42:02Z</time>
      </trkpt>
      <trkpt lat="43.01598" lon="0.22057">
        <ele>1320.9</ele>
        <time>2023-11-19T12:42:03Z</time>
      </trkpt>
      <trkpt lat="43.01598" lon="0.22057">
        <ele>1320.9</ele>
        <time>2023-11-19T12:42:04Z</time>
      </trkpt>
      <trkpt lat="43.01598" lon="0.22059">
        <ele>1321.9</ele>
        <time>2023-11-19T12:42:05Z</time>
      </trkpt>
      <trkpt lat="43.01598" lon="0.2206">
        <ele>1321.9</ele>
        <time>2023-11-19T12:42:06Z</time>
      </trkpt>
      <trkpt lat="43.01597" lon="0.22062">
        <ele>1321</ele>
        <time>2023-11-19T12:42:07Z</time>
      </trkpt>
      <trkpt lat="43.01597" lon="0.22063">
        <ele>1322</ele>
        <time>2023-11-19T12:42:08Z</time>
      </trkpt>
      <trkpt lat="43.01597" lon="0.22065">
        <ele>1322</ele>
        <time>2023-11-19T12:42:09Z</time>
      </trkpt>
      <trkpt lat="43.01597" lon="0.22066">
        <ele>1322</ele>
        <time>2023-11-19T12:42:10Z</time>
      </trkpt>
      <trkpt lat="43.01598" lon="0.22066">
        <ele>1322</ele>
        <time>2023-11-19T12:42:11Z</time>
      </trkpt>
      <trkpt lat="43.01598" lon="0.22067">
        <ele>1323.9</ele>
        <time>2023-11-19T12:42:13Z</time>
      </trkpt>
      <trkpt lat="43.01598" lon="0.22069">
        <ele>1323.9</ele>
        <time>2023-11-19T12:42:14Z</time>
      </trkpt>
      <trkpt lat="43.01598" lon="0.22069">
        <ele>1323.9</ele>
        <time>2023-11-19T12:42:15Z</time>
      </trkpt>
      <trkpt lat="43.01598" lon="0.22071">
        <ele>1323.9</ele>
        <time>2023-11-19T12:42:16Z</time>
      </trkpt>
      <trkpt lat="43.01598" lon="0.22072">
        <ele>1324.8</ele>
        <time>2023-11-19T12:42:17Z</time>
      </trkpt>
      <trkpt lat="43.01597" lon="0.22072">
        <ele>1323.9</ele>
        <time>2023-11-19T12:42:18Z</time>
      </trkpt>
      <trkpt lat="43.01598" lon="0.22073">
        <ele>1324.9</ele>
        <time>2023-11-19T12:42:19Z</time>
      </trkpt>
      <trkpt lat="43.01598" lon="0.22073">
        <ele>1324.9</ele>
        <time>2023-11-19T12:42:20Z</time>
      </trkpt>
      <trkpt lat="43.01599" lon="0.22074">
        <ele>1324.9</ele>
        <time>2023-11-19T12:42:21Z</time>
      </trkpt>
      <trkpt lat="43.01599" lon="0.22075">
        <ele>1324.9</ele>
        <time>2023-11-19T12:42:22Z</time>
      </trkpt>
      <trkpt lat="43.01599" lon="0.22076">
        <ele>1325.8</ele>
        <time>2023-11-19T12:42:23Z</time>
      </trkpt>
      <trkpt lat="43.01599" lon="0.22078">
        <ele>1325.8</ele>
        <time>2023-11-19T12:42:24Z</time>
      </trkpt>
      <trkpt lat="43.01598" lon="0.22078">
        <ele>1325.8</ele>
        <time>2023-11-19T12:42:25Z</time>
      </trkpt>
      <trkpt lat="43.01598" lon="0.22079">
        <ele>1325.8</ele>
        <time>2023-11-19T12:42:26Z</time>
      </trkpt>
      <trkpt lat="43.01599" lon="0.22081">
        <ele>1326.7</ele>
        <time>2023-11-19T12:42:27Z</time>
      </trkpt>
      <trkpt lat="43.016" lon="0.22082">
        <ele>1326.7</ele>
        <time>2023-11-19T12:42:28Z</time>
      </trkpt>
      <trkpt lat="43.016" lon="0.22082">
        <ele>1326.7</ele>
        <time>2023-11-19T12:42:29Z</time>
      </trkpt>
      <trkpt lat="43.01599" lon="0.22083">
        <ele>1326.7</ele>
        <time>2023-11-19T12:42:30Z</time>
      </trkpt>
      <trkpt lat="43.01599" lon="0.22084">
        <ele>1327.6</ele>
        <time>2023-11-19T12:42:31Z</time>
      </trkpt>
      <trkpt lat="43.01599" lon="0.22085">
        <ele>1327.6</ele>
        <time>2023-11-19T12:42:32Z</time>
      </trkpt>
      <trkpt lat="43.01599" lon="0.22087">
        <ele>1327.6</ele>
        <time>2023-11-19T12:42:33Z</time>
      </trkpt>
      <trkpt lat="43.01599" lon="0.22087">
        <ele>1327.6</ele>
        <time>2023-11-19T12:42:34Z</time>
      </trkpt>
      <trkpt lat="43.01599" lon="0.22088">
        <ele>1327.6</ele>
        <time>2023-11-19T12:42:35Z</time>
      </trkpt>
      <trkpt lat="43.01599" lon="0.22089">
        <ele>1328.5</ele>
        <time>2023-11-19T12:42:36Z</time>
      </trkpt>
      <trkpt lat="43.01599" lon="0.2209">
        <ele>1328.5</ele>
        <time>2023-11-19T12:42:37Z</time>
      </trkpt>
      <trkpt lat="43.01599" lon="0.22089">
        <ele>1328.5</ele>
        <time>2023-11-19T12:42:38Z</time>
      </trkpt>
      <trkpt lat="43.016" lon="0.22089">
        <ele>1328.5</ele>
        <time>2023-11-19T12:42:39Z</time>
      </trkpt>
      <trkpt lat="43.01599" lon="0.22089">
        <ele>1328.5</ele>
        <time>2023-11-19T12:42:40Z</time>
      </trkpt>
      <trkpt lat="43.01599" lon="0.22089">
        <ele>1327.7</ele>
        <time>2023-11-19T12:42:41Z</time>
      </trkpt>
      <trkpt lat="43.016" lon="0.22088">
        <ele>1327.7</ele>
        <time>2023-11-19T12:42:42Z</time>
      </trkpt>
      <trkpt lat="43.016" lon="0.22088">
        <ele>1327.7</ele>
        <time>2023-11-19T12:42:43Z</time>
      </trkpt>
      <trkpt lat="43.016" lon="0.22088">
        <ele>1327.7</ele>
        <time>2023-11-19T12:42:44Z</time>
      </trkpt>
      <trkpt lat="43.01601" lon="0.22086">
        <ele>1328.8</ele>
        <time>2023-11-19T12:42:45Z</time>
      </trkpt>
      <trkpt lat="43.01601" lon="0.22084">
        <ele>1327.9</ele>
        <time>2023-11-19T12:42:46Z</time>
      </trkpt>
      <trkpt lat="43.01602" lon="0.22083">
        <ele>1327.9</ele>
        <time>2023-11-19T12:42:47Z</time>
      </trkpt>
      <trkpt lat="43.01602" lon="0.22083">
        <ele>1327.9</ele>
        <time>2023-11-19T12:42:48Z</time>
      </trkpt>
      <trkpt lat="43.01602" lon="0.22082">
        <ele>1327.9</ele>
        <time>2023-11-19T12:42:49Z</time>
      </trkpt>
      <trkpt lat="43.01602" lon="0.22082">
        <ele>1327.9</ele>
        <time>2023-11-19T12:42:50Z</time>
      </trkpt>
      <trkpt lat="43.01603" lon="0.22082">
        <ele>1327.9</ele>
        <time>2023-11-19T12:42:51Z</time>
      </trkpt>
      <trkpt lat="43.01603" lon="0.22082">
        <ele>1327.9</ele>
        <time>2023-11-19T12:42:52Z</time>
      </trkpt>
      <trkpt lat="43.01604" lon="0.22082">
        <ele>1328</ele>
        <time>2023-11-19T12:42:53Z</time>
      </trkpt>
      <trkpt lat="43.01605" lon="0.22082">
        <ele>1329.1</ele>
        <time>2023-11-19T12:42:54Z</time>
      </trkpt>
      <trkpt lat="43.01605" lon="0.22083">
        <ele>1329.1</ele>
        <time>2023-11-19T12:42:55Z</time>
      </trkpt>
      <trkpt lat="43.01604" lon="0.22083">
        <ele>1329.1</ele>
        <time>2023-11-19T12:42:56Z</time>
      </trkpt>
      <trkpt lat="43.01604" lon="0.22083">
        <ele>1329.1</ele>
        <time>2023-11-19T12:42:57Z</time>
      </trkpt>
      <trkpt lat="43.01604" lon="0.22083">
        <ele>1329.1</ele>
        <time>2023-11-19T12:42:58Z</time>
      </trkpt>
      <trkpt lat="43.01604" lon="0.22082">
        <ele>1328</ele>
        <time>2023-11-19T12:42:59Z</time>
      </trkpt>
      <trkpt lat="43.01604" lon="0.22083">
        <ele>1329.1</ele>
        <time>2023-11-19T12:43:00Z</time>
      </trkpt>
      <trkpt lat="43.01604" lon="0.22083">
        <ele>1328</ele>
        <time>2023-11-19T12:43:01Z</time>
      </trkpt>
      <trkpt lat="43.01604" lon="0.22084">
        <ele>1329.2</ele>
        <time>2023-11-19T12:43:02Z</time>
      </trkpt>
      <trkpt lat="43.01603" lon="0.22086">
        <ele>1328.9</ele>
        <time>2023-11-19T12:43:03Z</time>
      </trkpt>
      <trkpt lat="43.01603" lon="0.22088">
        <ele>1328.9</ele>
        <time>2023-11-19T12:43:04Z</time>
      </trkpt>
      <trkpt lat="43.01602" lon="0.22089">
        <ele>1329.8</ele>
        <time>2023-11-19T12:43:05Z</time>
      </trkpt>
      <trkpt lat="43.01602" lon="0.22089">
        <ele>1329.8</ele>
        <time>2023-11-19T12:43:06Z</time>
      </trkpt>
      <trkpt lat="43.01602" lon="0.22088">
        <ele>1328.9</ele>
        <time>2023-11-19T12:43:07Z</time>
      </trkpt>
      <trkpt lat="43.01602" lon="0.22088">
        <ele>1328.9</ele>
        <time>2023-11-19T12:43:08Z</time>
      </trkpt>
      <trkpt lat="43.01602" lon="0.22088">
        <ele>1328.9</ele>
        <time>2023-11-19T12:43:09Z</time>
      </trkpt>
      <trkpt lat="43.01602" lon="0.22088">
        <ele>1328.9</ele>
        <time>2023-11-19T12:43:10Z</time>
      </trkpt>
      <trkpt lat="43.01602" lon="0.22088">
        <ele>1329</ele>
        <time>2023-11-19T12:43:11Z</time>
      </trkpt>
      <trkpt lat="43.01602" lon="0.22088">
        <ele>1329</ele>
        <time>2023-11-19T12:43:12Z</time>
      </trkpt>
      <trkpt lat="43.01603" lon="0.22088">
        <ele>1329</ele>
        <time>2023-11-19T12:43:13Z</time>
      </trkpt>
      <trkpt lat="43.01603" lon="0.22087">
        <ele>1329</ele>
        <time>2023-11-19T12:43:14Z</time>
      </trkpt>
      <trkpt lat="43.01603" lon="0.22087">
        <ele>1329</ele>
        <time>2023-11-19T12:43:15Z</time>
      </trkpt>
      <trkpt lat="43.01603" lon="0.22087">
        <ele>1329</ele>
        <time>2023-11-19T12:43:16Z</time>
      </trkpt>
      <trkpt lat="43.01602" lon="0.22087">
        <ele>1329</ele>
        <time>2023-11-19T12:43:17Z</time>
      </trkpt>
      <trkpt lat="43.01602" lon="0.22087">
        <ele>1329</ele>
        <time>2023-11-19T12:43:18Z</time>
      </trkpt>
      <trkpt lat="43.01602" lon="0.22087">
        <ele>1329</ele>
        <time>2023-11-19T12:43:19Z</time>
      </trkpt>
      <trkpt lat="43.01602" lon="0.22087">
        <ele>1329</ele>
        <time>2023-11-19T12:43:20Z</time>
      </trkpt>
      <trkpt lat="43.01602" lon="0.22087">
        <ele>1329</ele>
        <time>2023-11-19T12:43:21Z</time>
      </trkpt>
      <trkpt lat="43.01602" lon="0.22087">
        <ele>1329</ele>
        <time>2023-11-19T12:43:22Z</time>
      </trkpt>
      <trkpt lat="43.01602" lon="0.22087">
        <ele>1329</ele>
        <time>2023-11-19T12:43:23Z</time>
      </trkpt>
      <trkpt lat="43.01602" lon="0.22087">
        <ele>1329.1</ele>
        <time>2023-11-19T12:43:24Z</time>
      </trkpt>
      <trkpt lat="43.01602" lon="0.22087">
        <ele>1329.1</ele>
        <time>2023-11-19T12:43:25Z</time>
      </trkpt>
      <trkpt lat="43.01602" lon="0.22087">
        <ele>1329.1</ele>
        <time>2023-11-19T12:43:26Z</time>
      </trkpt>
      <trkpt lat="43.01602" lon="0.22087">
        <ele>1329.1</ele>
        <time>2023-11-19T12:43:27Z</time>
      </trkpt>
      <trkpt lat="43.01602" lon="0.22087">
        <ele>1329.1</ele>
        <time>2023-11-19T12:43:28Z</time>
      </trkpt>
      <trkpt lat="43.01602" lon="0.22087">
        <ele>1329.1</ele>
        <time>2023-11-19T12:43:29Z</time>
      </trkpt>
      <trkpt lat="43.01602" lon="0.22087">
        <ele>1329.1</ele>
        <time>2023-11-19T12:43:30Z</time>
      </trkpt>
      <trkpt lat="43.01601" lon="0.22087">
        <ele>1329.1</ele>
        <time>2023-11-19T12:43:31Z</time>
      </trkpt>
      <trkpt lat="43.01602" lon="0.22086">
        <ele>1329.1</ele>
        <time>2023-11-19T12:43:32Z</time>
      </trkpt>
      <trkpt lat="43.01602" lon="0.22087">
        <ele>1329.1</ele>
        <time>2023-11-19T12:43:33Z</time>
      </trkpt>
      <trkpt lat="43.01601" lon="0.22087">
        <ele>1329.1</ele>
        <time>2023-11-19T12:43:34Z</time>
      </trkpt>
      <trkpt lat="43.01601" lon="0.22087">
        <ele>1329.1</ele>
        <time>2023-11-19T12:43:35Z</time>
      </trkpt>
      <trkpt lat="43.01602" lon="0.22087">
        <ele>1329.1</ele>
        <time>2023-11-19T12:43:36Z</time>
      </trkpt>
      <trkpt lat="43.01603" lon="0.22087">
        <ele>1329.2</ele>
        <time>2023-11-19T12:43:37Z</time>
      </trkpt>
      <trkpt lat="43.01603" lon="0.22087">
        <ele>1329.2</ele>
        <time>2023-11-19T12:43:38Z</time>
      </trkpt>
      <trkpt lat="43.01604" lon="0.22088">
        <ele>1329.2</ele>
        <time>2023-11-19T12:43:39Z</time>
      </trkpt>
      <trkpt lat="43.01605" lon="0.22088">
        <ele>1330.3</ele>
        <time>2023-11-19T12:43:40Z</time>
      </trkpt>
      <trkpt lat="43.01606" lon="0.22088">
        <ele>1330.3</ele>
        <time>2023-11-19T12:43:41Z</time>
      </trkpt>
      <trkpt lat="43.01606" lon="0.22088">
        <ele>1330.3</ele>
        <time>2023-11-19T12:43:42Z</time>
      </trkpt>
      <trkpt lat="43.01607" lon="0.22089">
        <ele>1331.2</ele>
        <time>2023-11-19T12:43:43Z</time>
      </trkpt>
      <trkpt lat="43.01607" lon="0.22089">
        <ele>1331.2</ele>
        <time>2023-11-19T12:43:44Z</time>
      </trkpt>
      <trkpt lat="43.01607" lon="0.2209">
        <ele>1332.4</ele>
        <time>2023-11-19T12:43:45Z</time>
      </trkpt>
      <trkpt lat="43.01608" lon="0.22091">
        <ele>1332.4</ele>
        <time>2023-11-19T12:43:46Z</time>
      </trkpt>
      <trkpt lat="43.01609" lon="0.22091">
        <ele>1332.4</ele>
        <time>2023-11-19T12:43:47Z</time>
      </trkpt>
      <trkpt lat="43.0161" lon="0.22091">
        <ele>1332.4</ele>
        <time>2023-11-19T12:43:48Z</time>
      </trkpt>
      <trkpt lat="43.0161" lon="0.22091">
        <ele>1332.5</ele>
        <time>2023-11-19T12:43:49Z</time>
      </trkpt>
      <trkpt lat="43.01611" lon="0.22092">
        <ele>1333.7</ele>
        <time>2023-11-19T12:43:50Z</time>
      </trkpt>
      <trkpt lat="43.01612" lon="0.22092">
        <ele>1333.7</ele>
        <time>2023-11-19T12:43:51Z</time>
      </trkpt>
      <trkpt lat="43.01612" lon="0.22092">
        <ele>1333.7</ele>
        <time>2023-11-19T12:43:52Z</time>
      </trkpt>
      <trkpt lat="43.01613" lon="0.22092">
        <ele>1333.7</ele>
        <time>2023-11-19T12:43:53Z</time>
      </trkpt>
      <trkpt lat="43.01614" lon="0.22092">
        <ele>1334.9</ele>
        <time>2023-11-19T12:43:54Z</time>
      </trkpt>
      <trkpt lat="43.01614" lon="0.22092">
        <ele>1334.9</ele>
        <time>2023-11-19T12:43:55Z</time>
      </trkpt>
      <trkpt lat="43.01614" lon="0.22093">
        <ele>1334.9</ele>
        <time>2023-11-19T12:43:56Z</time>
      </trkpt>
      <trkpt lat="43.01614" lon="0.22093">
        <ele>1335.8</ele>
        <time>2023-11-19T12:43:57Z</time>
      </trkpt>
      <trkpt lat="43.01614" lon="0.22093">
        <ele>1335.8</ele>
        <time>2023-11-19T12:43:58Z</time>
      </trkpt>
      <trkpt lat="43.01615" lon="0.22094">
        <ele>1335.8</ele>
        <time>2023-11-19T12:43:59Z</time>
      </trkpt>
      <trkpt lat="43.01615" lon="0.22094">
        <ele>1335.8</ele>
        <time>2023-11-19T12:44:00Z</time>
      </trkpt>
      <trkpt lat="43.01615" lon="0.22094">
        <ele>1335.8</ele>
        <time>2023-11-19T12:44:01Z</time>
      </trkpt>
      <trkpt lat="43.01616" lon="0.22094">
        <ele>1335.8</ele>
        <time>2023-11-19T12:44:02Z</time>
      </trkpt>
      <trkpt lat="43.01616" lon="0.22094">
        <ele>1335.8</ele>
        <time>2023-11-19T12:44:03Z</time>
      </trkpt>
      <trkpt lat="43.01617" lon="0.22094">
        <ele>1337</ele>
        <time>2023-11-19T12:44:04Z</time>
      </trkpt>
      <trkpt lat="43.01617" lon="0.22094">
        <ele>1337</ele>
        <time>2023-11-19T12:44:05Z</time>
      </trkpt>
      <trkpt lat="43.01618" lon="0.22094">
        <ele>1337</ele>
        <time>2023-11-19T12:44:06Z</time>
      </trkpt>
      <trkpt lat="43.01619" lon="0.22094">
        <ele>1337</ele>
        <time>2023-11-19T12:44:07Z</time>
      </trkpt>
      <trkpt lat="43.01619" lon="0.22094">
        <ele>1337</ele>
        <time>2023-11-19T12:44:08Z</time>
      </trkpt>
      <trkpt lat="43.0162" lon="0.22094">
        <ele>1338.2</ele>
        <time>2023-11-19T12:44:09Z</time>
      </trkpt>
      <trkpt lat="43.0162" lon="0.22094">
        <ele>1338.2</ele>
        <time>2023-11-19T12:44:10Z</time>
      </trkpt>
      <trkpt lat="43.01621" lon="0.22095">
        <ele>1338.2</ele>
        <time>2023-11-19T12:44:11Z</time>
      </trkpt>
      <trkpt lat="43.01621" lon="0.22096">
        <ele>1338.2</ele>
        <time>2023-11-19T12:44:12Z</time>
      </trkpt>
      <trkpt lat="43.01621" lon="0.22096">
        <ele>1338.2</ele>
        <time>2023-11-19T12:44:13Z</time>
      </trkpt>
      <trkpt lat="43.01622" lon="0.22096">
        <ele>1338.2</ele>
        <time>2023-11-19T12:44:14Z</time>
      </trkpt>
      <trkpt lat="43.01622" lon="0.22097">
        <ele>1338.2</ele>
        <time>2023-11-19T12:44:15Z</time>
      </trkpt>
      <trkpt lat="43.01622" lon="0.22099">
        <ele>1339.1</ele>
        <time>2023-11-19T12:44:16Z</time>
      </trkpt>
      <trkpt lat="43.01623" lon="0.22099">
        <ele>1339.1</ele>
        <time>2023-11-19T12:44:17Z</time>
      </trkpt>
      <trkpt lat="43.01623" lon="0.22099">
        <ele>1340.2</ele>
        <time>2023-11-19T12:44:18Z</time>
      </trkpt>
      <trkpt lat="43.01623" lon="0.22099">
        <ele>1340.3</ele>
        <time>2023-11-19T12:44:19Z</time>
      </trkpt>
      <trkpt lat="43.01622" lon="0.221">
        <ele>1340.3</ele>
        <time>2023-11-19T12:44:20Z</time>
      </trkpt>
      <trkpt lat="43.01622" lon="0.221">
        <ele>1340.4</ele>
        <time>2023-11-19T12:44:21Z</time>
      </trkpt>
      <trkpt lat="43.01622" lon="0.22101">
        <ele>1340.5</ele>
        <time>2023-11-19T12:44:22Z</time>
      </trkpt>
      <trkpt lat="43.01622" lon="0.22102">
        <ele>1340.6</ele>
        <time>2023-11-19T12:44:23Z</time>
      </trkpt>
      <trkpt lat="43.01622" lon="0.22103">
        <ele>1340.6</ele>
        <time>2023-11-19T12:44:24Z</time>
      </trkpt>
      <trkpt lat="43.01622" lon="0.22104">
        <ele>1340.7</ele>
        <time>2023-11-19T12:44:25Z</time>
      </trkpt>
      <trkpt lat="43.01622" lon="0.22104">
        <ele>1340.8</ele>
        <time>2023-11-19T12:44:26Z</time>
      </trkpt>
      <trkpt lat="43.01622" lon="0.22105">
        <ele>1340.8</ele>
        <time>2023-11-19T12:44:27Z</time>
      </trkpt>
      <trkpt lat="43.01622" lon="0.22106">
        <ele>1340.9</ele>
        <time>2023-11-19T12:44:28Z</time>
      </trkpt>
      <trkpt lat="43.01621" lon="0.22106">
        <ele>1340.9</ele>
        <time>2023-11-19T12:44:29Z</time>
      </trkpt>
      <trkpt lat="43.01621" lon="0.22107">
        <ele>1341</ele>
        <time>2023-11-19T12:44:30Z</time>
      </trkpt>
      <trkpt lat="43.01621" lon="0.22108">
        <ele>1341</ele>
        <time>2023-11-19T12:44:31Z</time>
      </trkpt>
      <trkpt lat="43.01621" lon="0.22108">
        <ele>1341.1</ele>
        <time>2023-11-19T12:44:32Z</time>
      </trkpt>
      <trkpt lat="43.01621" lon="0.22109">
        <ele>1341.2</ele>
        <time>2023-11-19T12:44:33Z</time>
      </trkpt>
      <trkpt lat="43.01621" lon="0.2211">
        <ele>1341.3</ele>
        <time>2023-11-19T12:44:34Z</time>
      </trkpt>
      <trkpt lat="43.0162" lon="0.22111">
        <ele>1341.4</ele>
        <time>2023-11-19T12:44:35Z</time>
      </trkpt>
      <trkpt lat="43.0162" lon="0.22112">
        <ele>1341.5</ele>
        <time>2023-11-19T12:44:36Z</time>
      </trkpt>
      <trkpt lat="43.0162" lon="0.22113">
        <ele>1341.6</ele>
        <time>2023-11-19T12:44:37Z</time>
      </trkpt>
      <trkpt lat="43.01619" lon="0.22114">
        <ele>1341.7</ele>
        <time>2023-11-19T12:44:38Z</time>
      </trkpt>
      <trkpt lat="43.01619" lon="0.22115">
        <ele>1341.8</ele>
        <time>2023-11-19T12:44:39Z</time>
      </trkpt>
      <trkpt lat="43.01619" lon="0.22116">
        <ele>1341.8</ele>
        <time>2023-11-19T12:44:40Z</time>
      </trkpt>
      <trkpt lat="43.01618" lon="0.22117">
        <ele>1341.9</ele>
        <time>2023-11-19T12:44:41Z</time>
      </trkpt>
      <trkpt lat="43.01617" lon="0.22118">
        <ele>1342.1</ele>
        <time>2023-11-19T12:44:42Z</time>
      </trkpt>
      <trkpt lat="43.01617" lon="0.22119">
        <ele>1342.2</ele>
        <time>2023-11-19T12:44:43Z</time>
      </trkpt>
      <trkpt lat="43.01617" lon="0.22119">
        <ele>1342.2</ele>
        <time>2023-11-19T12:44:44Z</time>
      </trkpt>
      <trkpt lat="43.01617" lon="0.22121">
        <ele>1342.4</ele>
        <time>2023-11-19T12:44:45Z</time>
      </trkpt>
      <trkpt lat="43.01617" lon="0.22122">
        <ele>1342.5</ele>
        <time>2023-11-19T12:44:46Z</time>
      </trkpt>
      <trkpt lat="43.01617" lon="0.22123">
        <ele>1342.5</ele>
        <time>2023-11-19T12:44:47Z</time>
      </trkpt>
      <trkpt lat="43.01617" lon="0.22123">
        <ele>1342.6</ele>
        <time>2023-11-19T12:44:48Z</time>
      </trkpt>
      <trkpt lat="43.01617" lon="0.22124">
        <ele>1342.6</ele>
        <time>2023-11-19T12:44:49Z</time>
      </trkpt>
      <trkpt lat="43.01617" lon="0.22125">
        <ele>1342.8</ele>
        <time>2023-11-19T12:44:50Z</time>
      </trkpt>
      <trkpt lat="43.01617" lon="0.22126">
        <ele>1342.9</ele>
        <time>2023-11-19T12:44:51Z</time>
      </trkpt>
      <trkpt lat="43.01616" lon="0.22126">
        <ele>1343</ele>
        <time>2023-11-19T12:44:52Z</time>
      </trkpt>
      <trkpt lat="43.01615" lon="0.22128">
        <ele>1343.2</ele>
        <time>2023-11-19T12:44:53Z</time>
      </trkpt>
      <trkpt lat="43.01615" lon="0.22129">
        <ele>1343.3</ele>
        <time>2023-11-19T12:44:54Z</time>
      </trkpt>
      <trkpt lat="43.01614" lon="0.2213">
        <ele>1343.5</ele>
        <time>2023-11-19T12:44:55Z</time>
      </trkpt>
      <trkpt lat="43.01613" lon="0.22131">
        <ele>1343.6</ele>
        <time>2023-11-19T12:44:56Z</time>
      </trkpt>
      <trkpt lat="43.01613" lon="0.22133">
        <ele>1343.8</ele>
        <time>2023-11-19T12:44:57Z</time>
      </trkpt>
      <trkpt lat="43.01612" lon="0.22134">
        <ele>1344</ele>
        <time>2023-11-19T12:44:58Z</time>
      </trkpt>
      <trkpt lat="43.01612" lon="0.22135">
        <ele>1344</ele>
        <time>2023-11-19T12:44:59Z</time>
      </trkpt>
      <trkpt lat="43.01612" lon="0.22135">
        <ele>1344.1</ele>
        <time>2023-11-19T12:45:00Z</time>
      </trkpt>
      <trkpt lat="43.01611" lon="0.22136">
        <ele>1344.3</ele>
        <time>2023-11-19T12:45:01Z</time>
      </trkpt>
      <trkpt lat="43.01611" lon="0.22137">
        <ele>1344.3</ele>
        <time>2023-11-19T12:45:02Z</time>
      </trkpt>
      <trkpt lat="43.01612" lon="0.22137">
        <ele>1344.4</ele>
        <time>2023-11-19T12:45:03Z</time>
      </trkpt>
      <trkpt lat="43.01612" lon="0.22138">
        <ele>1344.5</ele>
        <time>2023-11-19T12:45:04Z</time>
      </trkpt>
      <trkpt lat="43.01613" lon="0.22139">
        <ele>1344.6</ele>
        <time>2023-11-19T12:45:05Z</time>
      </trkpt>
      <trkpt lat="43.01612" lon="0.22138">
        <ele>1344.7</ele>
        <time>2023-11-19T12:45:06Z</time>
      </trkpt>
      <trkpt lat="43.01613" lon="0.22138">
        <ele>1344.8</ele>
        <time>2023-11-19T12:45:07Z</time>
      </trkpt>
      <trkpt lat="43.01613" lon="0.22139">
        <ele>1344.8</ele>
        <time>2023-11-19T12:45:08Z</time>
      </trkpt>
      <trkpt lat="43.01613" lon="0.22139">
        <ele>1344.8</ele>
        <time>2023-11-19T12:45:09Z</time>
      </trkpt>
      <trkpt lat="43.01613" lon="0.22139">
        <ele>1344.8</ele>
        <time>2023-11-19T12:45:10Z</time>
      </trkpt>
      <trkpt lat="43.01613" lon="0.22139">
        <ele>1344.9</ele>
        <time>2023-11-19T12:45:11Z</time>
      </trkpt>
      <trkpt lat="43.01613" lon="0.22139">
        <ele>1344.9</ele>
        <time>2023-11-19T12:45:12Z</time>
      </trkpt>
      <trkpt lat="43.01613" lon="0.2214">
        <ele>1345</ele>
        <time>2023-11-19T12:45:13Z</time>
      </trkpt>
      <trkpt lat="43.01613" lon="0.22139">
        <ele>1345</ele>
        <time>2023-11-19T12:45:14Z</time>
      </trkpt>
      <trkpt lat="43.01613" lon="0.22139">
        <ele>1345</ele>
        <time>2023-11-19T12:45:15Z</time>
      </trkpt>
      <trkpt lat="43.01613" lon="0.2214">
        <ele>1345</ele>
        <time>2023-11-19T12:45:16Z</time>
      </trkpt>
      <trkpt lat="43.01613" lon="0.2214">
        <ele>1345</ele>
        <time>2023-11-19T12:45:17Z</time>
      </trkpt>
      <trkpt lat="43.01613" lon="0.2214">
        <ele>1345.1</ele>
        <time>2023-11-19T12:45:18Z</time>
      </trkpt>
      <trkpt lat="43.01613" lon="0.2214">
        <ele>1345.1</ele>
        <time>2023-11-19T12:45:19Z</time>
      </trkpt>
      <trkpt lat="43.01613" lon="0.2214">
        <ele>1345.1</ele>
        <time>2023-11-19T12:45:20Z</time>
      </trkpt>
      <trkpt lat="43.01613" lon="0.2214">
        <ele>1345.1</ele>
        <time>2023-11-19T12:45:21Z</time>
      </trkpt>
      <trkpt lat="43.01613" lon="0.2214">
        <ele>1345.1</ele>
        <time>2023-11-19T12:45:22Z</time>
      </trkpt>
      <trkpt lat="43.01613" lon="0.2214">
        <ele>1345.1</ele>
        <time>2023-11-19T12:45:23Z</time>
      </trkpt>
      <trkpt lat="43.01613" lon="0.2214">
        <ele>1345.1</ele>
        <time>2023-11-19T12:45:24Z</time>
      </trkpt>
      <trkpt lat="43.01613" lon="0.2214">
        <ele>1345.1</ele>
        <time>2023-11-19T12:45:25Z</time>
      </trkpt>
      <trkpt lat="43.01613" lon="0.2214">
        <ele>1345.1</ele>
        <time>2023-11-19T12:45:26Z</time>
      </trkpt>
      <trkpt lat="43.01613" lon="0.2214">
        <ele>1345.1</ele>
        <time>2023-11-19T12:45:27Z</time>
      </trkpt>
      <trkpt lat="43.01613" lon="0.2214">
        <ele>1345.1</ele>
        <time>2023-11-19T12:45:28Z</time>
      </trkpt>
      <trkpt lat="43.01613" lon="0.2214">
        <ele>1345.1</ele>
        <time>2023-11-19T12:45:29Z</time>
      </trkpt>
      <trkpt lat="43.01613" lon="0.2214">
        <ele>1345.1</ele>
        <time>2023-11-19T12:45:30Z</time>
      </trkpt>
      <trkpt lat="43.01613" lon="0.2214">
        <ele>1345.1</ele>
        <time>2023-11-19T12:45:31Z</time>
      </trkpt>
      <trkpt lat="43.01613" lon="0.2214">
        <ele>1345.1</ele>
        <time>2023-11-19T12:45:32Z</time>
      </trkpt>
      <trkpt lat="43.01613" lon="0.2214">
        <ele>1345.1</ele>
        <time>2023-11-19T12:45:33Z</time>
      </trkpt>
      <trkpt lat="43.01613" lon="0.2214">
        <ele>1345.1</ele>
        <time>2023-11-19T12:45:34Z</time>
      </trkpt>
      <trkpt lat="43.01613" lon="0.2214">
        <ele>1345.1</ele>
        <time>2023-11-19T12:45:35Z</time>
      </trkpt>
      <trkpt lat="43.01613" lon="0.2214">
        <ele>1345.2</ele>
        <time>2023-11-19T12:45:36Z</time>
      </trkpt>
      <trkpt lat="43.01613" lon="0.2214">
        <ele>1345.2</ele>
        <time>2023-11-19T12:45:37Z</time>
      </trkpt>
      <trkpt lat="43.01613" lon="0.2214">
        <ele>1345.2</ele>
        <time>2023-11-19T12:45:38Z</time>
      </trkpt>
      <trkpt lat="43.01613" lon="0.22141">
        <ele>1345.2</ele>
        <time>2023-11-19T12:45:39Z</time>
      </trkpt>
      <trkpt lat="43.01613" lon="0.22141">
        <ele>1345.2</ele>
        <time>2023-11-19T12:45:40Z</time>
      </trkpt>
      <trkpt lat="43.01613" lon="0.22141">
        <ele>1345.2</ele>
        <time>2023-11-19T12:45:41Z</time>
      </trkpt>
      <trkpt lat="43.01613" lon="0.22141">
        <ele>1345.2</ele>
        <time>2023-11-19T12:45:42Z</time>
      </trkpt>
      <trkpt lat="43.01613" lon="0.22141">
        <ele>1345.2</ele>
        <time>2023-11-19T12:45:43Z</time>
      </trkpt>
      <trkpt lat="43.01613" lon="0.22141">
        <ele>1345.2</ele>
        <time>2023-11-19T12:45:44Z</time>
      </trkpt>
      <trkpt lat="43.01613" lon="0.22141">
        <ele>1345.2</ele>
        <time>2023-11-19T12:45:45Z</time>
      </trkpt>
      <trkpt lat="43.01613" lon="0.22141">
        <ele>1345.2</ele>
        <time>2023-11-19T12:45:46Z</time>
      </trkpt>
      <trkpt lat="43.01613" lon="0.22141">
        <ele>1345.2</ele>
        <time>2023-11-19T12:45:47Z</time>
      </trkpt>
      <trkpt lat="43.01613" lon="0.22141">
        <ele>1345.2</ele>
        <time>2023-11-19T12:45:48Z</time>
      </trkpt>
      <trkpt lat="43.01613" lon="0.22141">
        <ele>1345.2</ele>
        <time>2023-11-19T12:45:49Z</time>
      </trkpt>
      <trkpt lat="43.01613" lon="0.22141">
        <ele>1345.2</ele>
        <time>2023-11-19T12:45:50Z</time>
      </trkpt>
      <trkpt lat="43.01613" lon="0.22141">
        <ele>1345.2</ele>
        <time>2023-11-19T12:45:51Z</time>
      </trkpt>
      <trkpt lat="43.01613" lon="0.22141">
        <ele>1345.2</ele>
        <time>2023-11-19T12:45:52Z</time>
      </trkpt>
      <trkpt lat="43.01613" lon="0.22141">
        <ele>1345.2</ele>
        <time>2023-11-19T12:45:53Z</time>
      </trkpt>
      <trkpt lat="43.01613" lon="0.22141">
        <ele>1345.2</ele>
        <time>2023-11-19T12:45:54Z</time>
      </trkpt>
      <trkpt lat="43.01613" lon="0.22141">
        <ele>1345.2</ele>
        <time>2023-11-19T12:45:55Z</time>
      </trkpt>
      <trkpt lat="43.01613" lon="0.22141">
        <ele>1345.3</ele>
        <time>2023-11-19T12:45:56Z</time>
      </trkpt>
      <trkpt lat="43.01613" lon="0.22141">
        <ele>1345.3</ele>
        <time>2023-11-19T12:45:57Z</time>
      </trkpt>
      <trkpt lat="43.01613" lon="0.22141">
        <ele>1345.3</ele>
        <time>2023-11-19T12:45:58Z</time>
      </trkpt>
      <trkpt lat="43.01613" lon="0.22141">
        <ele>1345.3</ele>
        <time>2023-11-19T12:45:59Z</time>
      </trkpt>
      <trkpt lat="43.01613" lon="0.22141">
        <ele>1345.3</ele>
        <time>2023-11-19T12:46:00Z</time>
      </trkpt>
      <trkpt lat="43.01613" lon="0.22142">
        <ele>1345.3</ele>
        <time>2023-11-19T12:46:01Z</time>
      </trkpt>
      <trkpt lat="43.01613" lon="0.22142">
        <ele>1345.3</ele>
        <time>2023-11-19T12:46:02Z</time>
      </trkpt>
      <trkpt lat="43.01613" lon="0.22142">
        <ele>1345.3</ele>
        <time>2023-11-19T12:46:03Z</time>
      </trkpt>
      <trkpt lat="43.01613" lon="0.22142">
        <ele>1345.3</ele>
        <time>2023-11-19T12:46:04Z</time>
      </trkpt>
      <trkpt lat="43.01613" lon="0.22142">
        <ele>1345.3</ele>
        <time>2023-11-19T12:46:05Z</time>
      </trkpt>
      <trkpt lat="43.01613" lon="0.22142">
        <ele>1345.3</ele>
        <time>2023-11-19T12:46:06Z</time>
      </trkpt>
      <trkpt lat="43.01613" lon="0.22142">
        <ele>1345.3</ele>
        <time>2023-11-19T12:46:07Z</time>
      </trkpt>
      <trkpt lat="43.01613" lon="0.22142">
        <ele>1345.3</ele>
        <time>2023-11-19T12:46:08Z</time>
      </trkpt>
      <trkpt lat="43.01613" lon="0.22142">
        <ele>1345.3</ele>
        <time>2023-11-19T12:46:09Z</time>
      </trkpt>
      <trkpt lat="43.01613" lon="0.22142">
        <ele>1345.3</ele>
        <time>2023-11-19T12:46:10Z</time>
      </trkpt>
      <trkpt lat="43.01613" lon="0.22142">
        <ele>1345.3</ele>
        <time>2023-11-19T12:46:11Z</time>
      </trkpt>
      <trkpt lat="43.01613" lon="0.22142">
        <ele>1345.3</ele>
        <time>2023-11-19T12:46:12Z</time>
      </trkpt>
      <trkpt lat="43.01613" lon="0.22142">
        <ele>1345.3</ele>
        <time>2023-11-19T12:46:13Z</time>
      </trkpt>
      <trkpt lat="43.01613" lon="0.22142">
        <ele>1345.3</ele>
        <time>2023-11-19T12:46:14Z</time>
      </trkpt>
      <trkpt lat="43.01613" lon="0.22142">
        <ele>1345.4</ele>
        <time>2023-11-19T12:46:15Z</time>
      </trkpt>
      <trkpt lat="43.01613" lon="0.22142">
        <ele>1345.4</ele>
        <time>2023-11-19T12:46:16Z</time>
      </trkpt>
      <trkpt lat="43.01613" lon="0.22142">
        <ele>1345.4</ele>
        <time>2023-11-19T12:46:17Z</time>
      </trkpt>
      <trkpt lat="43.01613" lon="0.22142">
        <ele>1345.4</ele>
        <time>2023-11-19T12:46:18Z</time>
      </trkpt>
      <trkpt lat="43.01613" lon="0.22142">
        <ele>1345.4</ele>
        <time>2023-11-19T12:46:19Z</time>
      </trkpt>
      <trkpt lat="43.01613" lon="0.22142">
        <ele>1345.4</ele>
        <time>2023-11-19T12:46:20Z</time>
      </trkpt>
      <trkpt lat="43.01613" lon="0.22142">
        <ele>1345.4</ele>
        <time>2023-11-19T12:46:21Z</time>
      </trkpt>
      <trkpt lat="43.01613" lon="0.22142">
        <ele>1345.4</ele>
        <time>2023-11-19T12:46:22Z</time>
      </trkpt>
      <trkpt lat="43.01613" lon="0.22142">
        <ele>1345.4</ele>
        <time>2023-11-19T12:46:23Z</time>
      </trkpt>
      <trkpt lat="43.01613" lon="0.22143">
        <ele>1345.4</ele>
        <time>2023-11-19T12:46:24Z</time>
      </trkpt>
      <trkpt lat="43.01613" lon="0.22143">
        <ele>1345.4</ele>
        <time>2023-11-19T12:46:25Z</time>
      </trkpt>
      <trkpt lat="43.01613" lon="0.22143">
        <ele>1345.4</ele>
        <time>2023-11-19T12:46:26Z</time>
      </trkpt>
      <trkpt lat="43.01613" lon="0.22143">
        <ele>1345.4</ele>
        <time>2023-11-19T12:46:27Z</time>
      </trkpt>
      <trkpt lat="43.01613" lon="0.22143">
        <ele>1345.4</ele>
        <time>2023-11-19T12:46:28Z</time>
      </trkpt>
      <trkpt lat="43.01613" lon="0.22143">
        <ele>1345.4</ele>
        <time>2023-11-19T12:46:29Z</time>
      </trkpt>
      <trkpt lat="43.01613" lon="0.22143">
        <ele>1345.4</ele>
        <time>2023-11-19T12:46:30Z</time>
      </trkpt>
      <trkpt lat="43.01613" lon="0.22143">
        <ele>1345.4</ele>
        <time>2023-11-19T12:46:31Z</time>
      </trkpt>
      <trkpt lat="43.01613" lon="0.22143">
        <ele>1345.4</ele>
        <time>2023-11-19T12:46:32Z</time>
      </trkpt>
      <trkpt lat="43.01613" lon="0.22143">
        <ele>1345.5</ele>
        <time>2023-11-19T12:46:33Z</time>
      </trkpt>
      <trkpt lat="43.01613" lon="0.22143">
        <ele>1345.5</ele>
        <time>2023-11-19T12:46:34Z</time>
      </trkpt>
      <trkpt lat="43.01613" lon="0.22143">
        <ele>1345.5</ele>
        <time>2023-11-19T12:46:35Z</time>
      </trkpt>
      <trkpt lat="43.01613" lon="0.22143">
        <ele>1345.5</ele>
        <time>2023-11-19T12:46:36Z</time>
      </trkpt>
      <trkpt lat="43.01613" lon="0.22143">
        <ele>1345.5</ele>
        <time>2023-11-19T12:46:37Z</time>
      </trkpt>
      <trkpt lat="43.01613" lon="0.22143">
        <ele>1345.5</ele>
        <time>2023-11-19T12:46:38Z</time>
      </trkpt>
      <trkpt lat="43.01613" lon="0.22143">
        <ele>1345.5</ele>
        <time>2023-11-19T12:46:39Z</time>
      </trkpt>
      <trkpt lat="43.01613" lon="0.22143">
        <ele>1345.5</ele>
        <time>2023-11-19T12:46:40Z</time>
      </trkpt>
      <trkpt lat="43.01613" lon="0.22143">
        <ele>1345.5</ele>
        <time>2023-11-19T12:46:41Z</time>
      </trkpt>
      <trkpt lat="43.01613" lon="0.22143">
        <ele>1345.5</ele>
        <time>2023-11-19T12:46:42Z</time>
      </trkpt>
      <trkpt lat="43.01613" lon="0.22143">
        <ele>1345.5</ele>
        <time>2023-11-19T12:46:43Z</time>
      </trkpt>
      <trkpt lat="43.01613" lon="0.22143">
        <ele>1345.5</ele>
        <time>2023-11-19T12:46:44Z</time>
      </trkpt>
      <trkpt lat="43.01613" lon="0.22143">
        <ele>1345.5</ele>
        <time>2023-11-19T12:46:45Z</time>
      </trkpt>
      <trkpt lat="43.01613" lon="0.22143">
        <ele>1345.5</ele>
        <time>2023-11-19T12:46:46Z</time>
      </trkpt>
      <trkpt lat="43.01613" lon="0.22144">
        <ele>1345.5</ele>
        <time>2023-11-19T12:46:47Z</time>
      </trkpt>
      <trkpt lat="43.01613" lon="0.22144">
        <ele>1345.5</ele>
        <time>2023-11-19T12:46:48Z</time>
      </trkpt>
      <trkpt lat="43.01613" lon="0.22144">
        <ele>1345.5</ele>
        <time>2023-11-19T12:46:49Z</time>
      </trkpt>
      <trkpt lat="43.01613" lon="0.22144">
        <ele>1345.5</ele>
        <time>2023-11-19T12:46:50Z</time>
      </trkpt>
      <trkpt lat="43.01613" lon="0.22144">
        <ele>1345.5</ele>
        <time>2023-11-19T12:46:51Z</time>
      </trkpt>
      <trkpt lat="43.01613" lon="0.22144">
        <ele>1345.5</ele>
        <time>2023-11-19T12:46:52Z</time>
      </trkpt>
      <trkpt lat="43.01613" lon="0.22144">
        <ele>1345.5</ele>
        <time>2023-11-19T12:46:53Z</time>
      </trkpt>
      <trkpt lat="43.01613" lon="0.22144">
        <ele>1345.6</ele>
        <time>2023-11-19T12:46:54Z</time>
      </trkpt>
      <trkpt lat="43.01613" lon="0.22144">
        <ele>1345.6</ele>
        <time>2023-11-19T12:46:55Z</time>
      </trkpt>
      <trkpt lat="43.01613" lon="0.22144">
        <ele>1345.6</ele>
        <time>2023-11-19T12:46:56Z</time>
      </trkpt>
      <trkpt lat="43.01613" lon="0.22144">
        <ele>1345.6</ele>
        <time>2023-11-19T12:46:57Z</time>
      </trkpt>
      <trkpt lat="43.01613" lon="0.22144">
        <ele>1345.6</ele>
        <time>2023-11-19T12:46:58Z</time>
      </trkpt>
      <trkpt lat="43.01613" lon="0.22144">
        <ele>1345.6</ele>
        <time>2023-11-19T12:46:59Z</time>
      </trkpt>
      <trkpt lat="43.01613" lon="0.22144">
        <ele>1345.6</ele>
        <time>2023-11-19T12:47:00Z</time>
      </trkpt>
      <trkpt lat="43.01613" lon="0.22144">
        <ele>1345.6</ele>
        <time>2023-11-19T12:47:01Z</time>
      </trkpt>
      <trkpt lat="43.01613" lon="0.22144">
        <ele>1345.6</ele>
        <time>2023-11-19T12:47:02Z</time>
      </trkpt>
      <trkpt lat="43.01613" lon="0.22144">
        <ele>1345.6</ele>
        <time>2023-11-19T12:47:03Z</time>
      </trkpt>
      <trkpt lat="43.01613" lon="0.22144">
        <ele>1345.6</ele>
        <time>2023-11-19T12:47:04Z</time>
      </trkpt>
      <trkpt lat="43.01613" lon="0.22144">
        <ele>1345.6</ele>
        <time>2023-11-19T12:47:05Z</time>
      </trkpt>
      <trkpt lat="43.01613" lon="0.22144">
        <ele>1345.6</ele>
        <time>2023-11-19T12:47:06Z</time>
      </trkpt>
      <trkpt lat="43.01613" lon="0.22144">
        <ele>1345.6</ele>
        <time>2023-11-19T12:47:07Z</time>
      </trkpt>
      <trkpt lat="43.01613" lon="0.22144">
        <ele>1345.6</ele>
        <time>2023-11-19T12:47:08Z</time>
      </trkpt>
      <trkpt lat="43.01613" lon="0.22144">
        <ele>1345.6</ele>
        <time>2023-11-19T12:47:09Z</time>
      </trkpt>
      <trkpt lat="43.01614" lon="0.22145">
        <ele>1345.6</ele>
        <time>2023-11-19T12:47:10Z</time>
      </trkpt>
      <trkpt lat="43.01614" lon="0.22145">
        <ele>1345.6</ele>
        <time>2023-11-19T12:47:11Z</time>
      </trkpt>
      <trkpt lat="43.01614" lon="0.22145">
        <ele>1345.7</ele>
        <time>2023-11-19T12:47:12Z</time>
      </trkpt>
      <trkpt lat="43.01614" lon="0.22145">
        <ele>1345.7</ele>
        <time>2023-11-19T12:47:13Z</time>
      </trkpt>
      <trkpt lat="43.01614" lon="0.22145">
        <ele>1345.7</ele>
        <time>2023-11-19T12:47:14Z</time>
      </trkpt>
      <trkpt lat="43.01614" lon="0.22145">
        <ele>1345.7</ele>
        <time>2023-11-19T12:47:15Z</time>
      </trkpt>
      <trkpt lat="43.01614" lon="0.22145">
        <ele>1345.7</ele>
        <time>2023-11-19T12:47:16Z</time>
      </trkpt>
      <trkpt lat="43.01614" lon="0.22145">
        <ele>1345.7</ele>
        <time>2023-11-19T12:47:17Z</time>
      </trkpt>
      <trkpt lat="43.01614" lon="0.22145">
        <ele>1345.7</ele>
        <time>2023-11-19T12:47:18Z</time>
      </trkpt>
      <trkpt lat="43.01613" lon="0.22146">
        <ele>1345.8</ele>
        <time>2023-11-19T12:47:19Z</time>
      </trkpt>
      <trkpt lat="43.01613" lon="0.22147">
        <ele>1345.9</ele>
        <time>2023-11-19T12:47:20Z</time>
      </trkpt>
      <trkpt lat="43.01613" lon="0.22148">
        <ele>1345.9</ele>
        <time>2023-11-19T12:47:21Z</time>
      </trkpt>
      <trkpt lat="43.01613" lon="0.22149">
        <ele>1346</ele>
        <time>2023-11-19T12:47:22Z</time>
      </trkpt>
      <trkpt lat="43.01613" lon="0.2215">
        <ele>1346.1</ele>
        <time>2023-11-19T12:47:23Z</time>
      </trkpt>
      <trkpt lat="43.01613" lon="0.22151">
        <ele>1346.2</ele>
        <time>2023-11-19T12:47:24Z</time>
      </trkpt>
      <trkpt lat="43.01613" lon="0.22153">
        <ele>1346.4</ele>
        <time>2023-11-19T12:47:25Z</time>
      </trkpt>
      <trkpt lat="43.01614" lon="0.22155">
        <ele>1346.7</ele>
        <time>2023-11-19T12:47:26Z</time>
      </trkpt>
      <trkpt lat="43.01614" lon="0.22156">
        <ele>1346.8</ele>
        <time>2023-11-19T12:47:27Z</time>
      </trkpt>
      <trkpt lat="43.01614" lon="0.22157">
        <ele>1346.8</ele>
        <time>2023-11-19T12:47:28Z</time>
      </trkpt>
      <trkpt lat="43.01615" lon="0.22158">
        <ele>1346.9</ele>
        <time>2023-11-19T12:47:29Z</time>
      </trkpt>
      <trkpt lat="43.01614" lon="0.22159">
        <ele>1347.1</ele>
        <time>2023-11-19T12:47:30Z</time>
      </trkpt>
      <trkpt lat="43.01613" lon="0.2216">
        <ele>1347.2</ele>
        <time>2023-11-19T12:47:31Z</time>
      </trkpt>
      <trkpt lat="43.01613" lon="0.22161">
        <ele>1347.3</ele>
        <time>2023-11-19T12:47:32Z</time>
      </trkpt>
      <trkpt lat="43.01613" lon="0.22163">
        <ele>1347.5</ele>
        <time>2023-11-19T12:47:33Z</time>
      </trkpt>
      <trkpt lat="43.01613" lon="0.22165">
        <ele>1347.7</ele>
        <time>2023-11-19T12:47:34Z</time>
      </trkpt>
      <trkpt lat="43.01614" lon="0.22166">
        <ele>1347.8</ele>
        <time>2023-11-19T12:47:35Z</time>
      </trkpt>
      <trkpt lat="43.01614" lon="0.22166">
        <ele>1347.9</ele>
        <time>2023-11-19T12:47:36Z</time>
      </trkpt>
      <trkpt lat="43.01613" lon="0.22167">
        <ele>1348</ele>
        <time>2023-11-19T12:47:37Z</time>
      </trkpt>
      <trkpt lat="43.01613" lon="0.22168">
        <ele>1348.1</ele>
        <time>2023-11-19T12:47:38Z</time>
      </trkpt>
      <trkpt lat="43.01613" lon="0.22169">
        <ele>1348.2</ele>
        <time>2023-11-19T12:47:39Z</time>
      </trkpt>
      <trkpt lat="43.01613" lon="0.2217">
        <ele>1348.3</ele>
        <time>2023-11-19T12:47:40Z</time>
      </trkpt>
      <trkpt lat="43.01613" lon="0.22171">
        <ele>1348.4</ele>
        <time>2023-11-19T12:47:41Z</time>
      </trkpt>
      <trkpt lat="43.01612" lon="0.22172">
        <ele>1348.5</ele>
        <time>2023-11-19T12:47:42Z</time>
      </trkpt>
      <trkpt lat="43.01612" lon="0.22173">
        <ele>1348.6</ele>
        <time>2023-11-19T12:47:43Z</time>
      </trkpt>
      <trkpt lat="43.01612" lon="0.22174">
        <ele>1348.7</ele>
        <time>2023-11-19T12:47:44Z</time>
      </trkpt>
      <trkpt lat="43.01611" lon="0.22176">
        <ele>1348.9</ele>
        <time>2023-11-19T12:47:45Z</time>
      </trkpt>
      <trkpt lat="43.01611" lon="0.22177">
        <ele>1349</ele>
        <time>2023-11-19T12:47:46Z</time>
      </trkpt>
      <trkpt lat="43.01611" lon="0.22178">
        <ele>1349.1</ele>
        <time>2023-11-19T12:47:47Z</time>
      </trkpt>
      <trkpt lat="43.0161" lon="0.22179">
        <ele>1349.2</ele>
        <time>2023-11-19T12:47:48Z</time>
      </trkpt>
      <trkpt lat="43.01611" lon="0.2218">
        <ele>1349.3</ele>
        <time>2023-11-19T12:47:49Z</time>
      </trkpt>
      <trkpt lat="43.01611" lon="0.22181">
        <ele>1349.5</ele>
        <time>2023-11-19T12:47:50Z</time>
      </trkpt>
      <trkpt lat="43.01611" lon="0.22182">
        <ele>1349.6</ele>
        <time>2023-11-19T12:47:51Z</time>
      </trkpt>
      <trkpt lat="43.01611" lon="0.22184">
        <ele>1349.7</ele>
        <time>2023-11-19T12:47:52Z</time>
      </trkpt>
      <trkpt lat="43.0161" lon="0.22185">
        <ele>1349.8</ele>
        <time>2023-11-19T12:47:53Z</time>
      </trkpt>
      <trkpt lat="43.0161" lon="0.22185">
        <ele>1349.9</ele>
        <time>2023-11-19T12:47:54Z</time>
      </trkpt>
      <trkpt lat="43.01609" lon="0.22186">
        <ele>1350</ele>
        <time>2023-11-19T12:47:55Z</time>
      </trkpt>
      <trkpt lat="43.01609" lon="0.22187">
        <ele>1350.1</ele>
        <time>2023-11-19T12:47:56Z</time>
      </trkpt>
      <trkpt lat="43.01608" lon="0.22188">
        <ele>1350.3</ele>
        <time>2023-11-19T12:47:57Z</time>
      </trkpt>
      <trkpt lat="43.01608" lon="0.22188">
        <ele>1350.3</ele>
        <time>2023-11-19T12:47:58Z</time>
      </trkpt>
      <trkpt lat="43.01607" lon="0.22189">
        <ele>1350.5</ele>
        <time>2023-11-19T12:47:59Z</time>
      </trkpt>
      <trkpt lat="43.01607" lon="0.2219">
        <ele>1350.6</ele>
        <time>2023-11-19T12:48:00Z</time>
      </trkpt>
      <trkpt lat="43.01606" lon="0.22191">
        <ele>1350.8</ele>
        <time>2023-11-19T12:48:01Z</time>
      </trkpt>
      <trkpt lat="43.01605" lon="0.22192">
        <ele>1350.9</ele>
        <time>2023-11-19T12:48:02Z</time>
      </trkpt>
      <trkpt lat="43.01605" lon="0.22194">
        <ele>1351.1</ele>
        <time>2023-11-19T12:48:03Z</time>
      </trkpt>
      <trkpt lat="43.01605" lon="0.22195">
        <ele>1351.3</ele>
        <time>2023-11-19T12:48:04Z</time>
      </trkpt>
      <trkpt lat="43.01605" lon="0.22196">
        <ele>1351.4</ele>
        <time>2023-11-19T12:48:05Z</time>
      </trkpt>
      <trkpt lat="43.01604" lon="0.22197">
        <ele>1351.6</ele>
        <time>2023-11-19T12:48:06Z</time>
      </trkpt>
      <trkpt lat="43.01604" lon="0.22197">
        <ele>1351.7</ele>
        <time>2023-11-19T12:48:07Z</time>
      </trkpt>
      <trkpt lat="43.01604" lon="0.22198">
        <ele>1351.8</ele>
        <time>2023-11-19T12:48:08Z</time>
      </trkpt>
      <trkpt lat="43.01604" lon="0.222">
        <ele>1352</ele>
        <time>2023-11-19T12:48:09Z</time>
      </trkpt>
      <trkpt lat="43.01604" lon="0.22201">
        <ele>1352.1</ele>
        <time>2023-11-19T12:48:10Z</time>
      </trkpt>
      <trkpt lat="43.01604" lon="0.22201">
        <ele>1352.2</ele>
        <time>2023-11-19T12:48:11Z</time>
      </trkpt>
      <trkpt lat="43.01604" lon="0.22202">
        <ele>1352.4</ele>
        <time>2023-11-19T12:48:12Z</time>
      </trkpt>
      <trkpt lat="43.01604" lon="0.22203">
        <ele>1352.6</ele>
        <time>2023-11-19T12:48:13Z</time>
      </trkpt>
      <trkpt lat="43.01604" lon="0.22204">
        <ele>1352.7</ele>
        <time>2023-11-19T12:48:14Z</time>
      </trkpt>
      <trkpt lat="43.01603" lon="0.22205">
        <ele>1352.9</ele>
        <time>2023-11-19T12:48:15Z</time>
      </trkpt>
      <trkpt lat="43.01603" lon="0.22207">
        <ele>1353.1</ele>
        <time>2023-11-19T12:48:16Z</time>
      </trkpt>
      <trkpt lat="43.01604" lon="0.22207">
        <ele>1353.3</ele>
        <time>2023-11-19T12:48:17Z</time>
      </trkpt>
      <trkpt lat="43.01605" lon="0.22208">
        <ele>1353.4</ele>
        <time>2023-11-19T12:48:18Z</time>
      </trkpt>
      <trkpt lat="43.01605" lon="0.22208">
        <ele>1353.6</ele>
        <time>2023-11-19T12:48:19Z</time>
      </trkpt>
      <trkpt lat="43.01606" lon="0.22208">
        <ele>1353.8</ele>
        <time>2023-11-19T12:48:20Z</time>
      </trkpt>
      <trkpt lat="43.01607" lon="0.22208">
        <ele>1353.9</ele>
        <time>2023-11-19T12:48:21Z</time>
      </trkpt>
      <trkpt lat="43.01607" lon="0.22209">
        <ele>1354.1</ele>
        <time>2023-11-19T12:48:22Z</time>
      </trkpt>
      <trkpt lat="43.01608" lon="0.22209">
        <ele>1354.2</ele>
        <time>2023-11-19T12:48:23Z</time>
      </trkpt>
      <trkpt lat="43.01609" lon="0.2221">
        <ele>1354.4</ele>
        <time>2023-11-19T12:48:24Z</time>
      </trkpt>
      <trkpt lat="43.0161" lon="0.2221">
        <ele>1354.6</ele>
        <time>2023-11-19T12:48:25Z</time>
      </trkpt>
      <trkpt lat="43.0161" lon="0.22211">
        <ele>1354.7</ele>
        <time>2023-11-19T12:48:26Z</time>
      </trkpt>
      <trkpt lat="43.0161" lon="0.22211">
        <ele>1354.8</ele>
        <time>2023-11-19T12:48:27Z</time>
      </trkpt>
      <trkpt lat="43.01611" lon="0.22212">
        <ele>1355</ele>
        <time>2023-11-19T12:48:28Z</time>
      </trkpt>
      <trkpt lat="43.01612" lon="0.22212">
        <ele>1355.2</ele>
        <time>2023-11-19T12:48:29Z</time>
      </trkpt>
      <trkpt lat="43.01612" lon="0.22212">
        <ele>1355.3</ele>
        <time>2023-11-19T12:48:30Z</time>
      </trkpt>
      <trkpt lat="43.01613" lon="0.22212">
        <ele>1355.4</ele>
        <time>2023-11-19T12:48:31Z</time>
      </trkpt>
      <trkpt lat="43.01614" lon="0.22212">
        <ele>1355.6</ele>
        <time>2023-11-19T12:48:32Z</time>
      </trkpt>
      <trkpt lat="43.01614" lon="0.22212">
        <ele>1355.7</ele>
        <time>2023-11-19T12:48:33Z</time>
      </trkpt>
      <trkpt lat="43.01614" lon="0.22213">
        <ele>1355.8</ele>
        <time>2023-11-19T12:48:34Z</time>
      </trkpt>
      <trkpt lat="43.01615" lon="0.22213">
        <ele>1355.9</ele>
        <time>2023-11-19T12:48:35Z</time>
      </trkpt>
      <trkpt lat="43.01615" lon="0.22214">
        <ele>1356</ele>
        <time>2023-11-19T12:48:36Z</time>
      </trkpt>
      <trkpt lat="43.01614" lon="0.22216">
        <ele>1356.3</ele>
        <time>2023-11-19T12:48:37Z</time>
      </trkpt>
      <trkpt lat="43.01614" lon="0.22217">
        <ele>1356.4</ele>
        <time>2023-11-19T12:48:38Z</time>
      </trkpt>
      <trkpt lat="43.01614" lon="0.22218">
        <ele>1356.6</ele>
        <time>2023-11-19T12:48:39Z</time>
      </trkpt>
      <trkpt lat="43.01614" lon="0.22219">
        <ele>1356.7</ele>
        <time>2023-11-19T12:48:40Z</time>
      </trkpt>
      <trkpt lat="43.01614" lon="0.22219">
        <ele>1356.8</ele>
        <time>2023-11-19T12:48:41Z</time>
      </trkpt>
      <trkpt lat="43.01615" lon="0.2222">
        <ele>1357</ele>
        <time>2023-11-19T12:48:42Z</time>
      </trkpt>
      <trkpt lat="43.01615" lon="0.2222">
        <ele>1357.1</ele>
        <time>2023-11-19T12:48:43Z</time>
      </trkpt>
      <trkpt lat="43.01616" lon="0.2222">
        <ele>1357.2</ele>
        <time>2023-11-19T12:48:44Z</time>
      </trkpt>
      <trkpt lat="43.01616" lon="0.22221">
        <ele>1357.4</ele>
        <time>2023-11-19T12:48:45Z</time>
      </trkpt>
      <trkpt lat="43.01617" lon="0.2222">
        <ele>1357.5</ele>
        <time>2023-11-19T12:48:46Z</time>
      </trkpt>
      <trkpt lat="43.01617" lon="0.2222">
        <ele>1357.6</ele>
        <time>2023-11-19T12:48:47Z</time>
      </trkpt>
      <trkpt lat="43.01618" lon="0.2222">
        <ele>1357.8</ele>
        <time>2023-11-19T12:48:48Z</time>
      </trkpt>
      <trkpt lat="43.01619" lon="0.2222">
        <ele>1357.9</ele>
        <time>2023-11-19T12:48:49Z</time>
      </trkpt>
      <trkpt lat="43.01619" lon="0.2222">
        <ele>1358</ele>
        <time>2023-11-19T12:48:50Z</time>
      </trkpt>
      <trkpt lat="43.0162" lon="0.22221">
        <ele>1358.1</ele>
        <time>2023-11-19T12:48:51Z</time>
      </trkpt>
      <trkpt lat="43.0162" lon="0.22221">
        <ele>1358.2</ele>
        <time>2023-11-19T12:48:52Z</time>
      </trkpt>
      <trkpt lat="43.0162" lon="0.22222">
        <ele>1358.3</ele>
        <time>2023-11-19T12:48:53Z</time>
      </trkpt>
      <trkpt lat="43.0162" lon="0.22223">
        <ele>1358.5</ele>
        <time>2023-11-19T12:48:54Z</time>
      </trkpt>
      <trkpt lat="43.01619" lon="0.22224">
        <ele>1358.7</ele>
        <time>2023-11-19T12:48:55Z</time>
      </trkpt>
      <trkpt lat="43.01619" lon="0.22224">
        <ele>1358.8</ele>
        <time>2023-11-19T12:48:56Z</time>
      </trkpt>
      <trkpt lat="43.01619" lon="0.22226">
        <ele>1359</ele>
        <time>2023-11-19T12:48:57Z</time>
      </trkpt>
      <trkpt lat="43.01619" lon="0.22226">
        <ele>1359.1</ele>
        <time>2023-11-19T12:48:58Z</time>
      </trkpt>
      <trkpt lat="43.01619" lon="0.22227">
        <ele>1359.2</ele>
        <time>2023-11-19T12:48:59Z</time>
      </trkpt>
      <trkpt lat="43.01619" lon="0.22228">
        <ele>1359.4</ele>
        <time>2023-11-19T12:49:00Z</time>
      </trkpt>
      <trkpt lat="43.01619" lon="0.22229">
        <ele>1359.5</ele>
        <time>2023-11-19T12:49:01Z</time>
      </trkpt>
      <trkpt lat="43.01619" lon="0.2223">
        <ele>1359.6</ele>
        <time>2023-11-19T12:49:02Z</time>
      </trkpt>
      <trkpt lat="43.01619" lon="0.22231">
        <ele>1359.8</ele>
        <time>2023-11-19T12:49:03Z</time>
      </trkpt>
      <trkpt lat="43.0162" lon="0.22231">
        <ele>1359.9</ele>
        <time>2023-11-19T12:49:04Z</time>
      </trkpt>
      <trkpt lat="43.0162" lon="0.22232">
        <ele>1360</ele>
        <time>2023-11-19T12:49:05Z</time>
      </trkpt>
      <trkpt lat="43.01621" lon="0.22232">
        <ele>1360.1</ele>
        <time>2023-11-19T12:49:06Z</time>
      </trkpt>
      <trkpt lat="43.01621" lon="0.22232">
        <ele>1360.2</ele>
        <time>2023-11-19T12:49:07Z</time>
      </trkpt>
      <trkpt lat="43.01621" lon="0.22233">
        <ele>1360.3</ele>
        <time>2023-11-19T12:49:08Z</time>
      </trkpt>
      <trkpt lat="43.01621" lon="0.22234">
        <ele>1360.4</ele>
        <time>2023-11-19T12:49:09Z</time>
      </trkpt>
      <trkpt lat="43.01621" lon="0.22234">
        <ele>1360.5</ele>
        <time>2023-11-19T12:49:10Z</time>
      </trkpt>
      <trkpt lat="43.01621" lon="0.22235">
        <ele>1360.6</ele>
        <time>2023-11-19T12:49:11Z</time>
      </trkpt>
      <trkpt lat="43.01621" lon="0.22236">
        <ele>1360.8</ele>
        <time>2023-11-19T12:49:12Z</time>
      </trkpt>
      <trkpt lat="43.0162" lon="0.22236">
        <ele>1360.9</ele>
        <time>2023-11-19T12:49:13Z</time>
      </trkpt>
      <trkpt lat="43.0162" lon="0.22237">
        <ele>1360.9</ele>
        <time>2023-11-19T12:49:14Z</time>
      </trkpt>
      <trkpt lat="43.0162" lon="0.22238">
        <ele>1361</ele>
        <time>2023-11-19T12:49:15Z</time>
      </trkpt>
      <trkpt lat="43.0162" lon="0.22239">
        <ele>1361.2</ele>
        <time>2023-11-19T12:49:16Z</time>
      </trkpt>
      <trkpt lat="43.0162" lon="0.2224">
        <ele>1361.4</ele>
        <time>2023-11-19T12:49:17Z</time>
      </trkpt>
      <trkpt lat="43.0162" lon="0.2224">
        <ele>1361.5</ele>
        <time>2023-11-19T12:49:18Z</time>
      </trkpt>
      <trkpt lat="43.0162" lon="0.22241">
        <ele>1361.6</ele>
        <time>2023-11-19T12:49:19Z</time>
      </trkpt>
      <trkpt lat="43.0162" lon="0.22241">
        <ele>1361.7</ele>
        <time>2023-11-19T12:49:20Z</time>
      </trkpt>
      <trkpt lat="43.0162" lon="0.22243">
        <ele>1361.9</ele>
        <time>2023-11-19T12:49:21Z</time>
      </trkpt>
      <trkpt lat="43.01621" lon="0.22243">
        <ele>1362</ele>
        <time>2023-11-19T12:49:22Z</time>
      </trkpt>
      <trkpt lat="43.01621" lon="0.22244">
        <ele>1362.1</ele>
        <time>2023-11-19T12:49:23Z</time>
      </trkpt>
      <trkpt lat="43.01621" lon="0.22244">
        <ele>1362.2</ele>
        <time>2023-11-19T12:49:24Z</time>
      </trkpt>
      <trkpt lat="43.01621" lon="0.22245">
        <ele>1362.3</ele>
        <time>2023-11-19T12:49:25Z</time>
      </trkpt>
      <trkpt lat="43.01621" lon="0.22245">
        <ele>1362.4</ele>
        <time>2023-11-19T12:49:26Z</time>
      </trkpt>
      <trkpt lat="43.01621" lon="0.22246">
        <ele>1362.5</ele>
        <time>2023-11-19T12:49:27Z</time>
      </trkpt>
      <trkpt lat="43.01621" lon="0.22247">
        <ele>1362.6</ele>
        <time>2023-11-19T12:49:28Z</time>
      </trkpt>
      <trkpt lat="43.01622" lon="0.22248">
        <ele>1362.7</ele>
        <time>2023-11-19T12:49:29Z</time>
      </trkpt>
      <trkpt lat="43.01622" lon="0.22248">
        <ele>1362.8</ele>
        <time>2023-11-19T12:49:30Z</time>
      </trkpt>
      <trkpt lat="43.01622" lon="0.22249">
        <ele>1362.8</ele>
        <time>2023-11-19T12:49:31Z</time>
      </trkpt>
      <trkpt lat="43.01623" lon="0.22249">
        <ele>1363</ele>
        <time>2023-11-19T12:49:32Z</time>
      </trkpt>
      <trkpt lat="43.01623" lon="0.22249">
        <ele>1363.1</ele>
        <time>2023-11-19T12:49:33Z</time>
      </trkpt>
      <trkpt lat="43.01624" lon="0.22249">
        <ele>1363.2</ele>
        <time>2023-11-19T12:49:34Z</time>
      </trkpt>
      <trkpt lat="43.01623" lon="0.2225">
        <ele>1363.3</ele>
        <time>2023-11-19T12:49:35Z</time>
      </trkpt>
      <trkpt lat="43.01623" lon="0.2225">
        <ele>1363.4</ele>
        <time>2023-11-19T12:49:36Z</time>
      </trkpt>
      <trkpt lat="43.01623" lon="0.22251">
        <ele>1363.5</ele>
        <time>2023-11-19T12:49:37Z</time>
      </trkpt>
      <trkpt lat="43.01623" lon="0.22252">
        <ele>1363.6</ele>
        <time>2023-11-19T12:49:38Z</time>
      </trkpt>
      <trkpt lat="43.01623" lon="0.22252">
        <ele>1363.7</ele>
        <time>2023-11-19T12:49:39Z</time>
      </trkpt>
      <trkpt lat="43.01623" lon="0.22253">
        <ele>1363.8</ele>
        <time>2023-11-19T12:49:40Z</time>
      </trkpt>
      <trkpt lat="43.01623" lon="0.22254">
        <ele>1363.9</ele>
        <time>2023-11-19T12:49:41Z</time>
      </trkpt>
      <trkpt lat="43.01623" lon="0.22255">
        <ele>1364</ele>
        <time>2023-11-19T12:49:42Z</time>
      </trkpt>
      <trkpt lat="43.01623" lon="0.22256">
        <ele>1364.1</ele>
        <time>2023-11-19T12:49:43Z</time>
      </trkpt>
      <trkpt lat="43.01622" lon="0.22256">
        <ele>1364.2</ele>
        <time>2023-11-19T12:49:44Z</time>
      </trkpt>
      <trkpt lat="43.01622" lon="0.22257">
        <ele>1364.3</ele>
        <time>2023-11-19T12:49:45Z</time>
      </trkpt>
      <trkpt lat="43.01622" lon="0.22258">
        <ele>1364.4</ele>
        <time>2023-11-19T12:49:46Z</time>
      </trkpt>
      <trkpt lat="43.01622" lon="0.22258">
        <ele>1364.4</ele>
        <time>2023-11-19T12:49:47Z</time>
      </trkpt>
      <trkpt lat="43.01622" lon="0.22258">
        <ele>1364.5</ele>
        <time>2023-11-19T12:49:48Z</time>
      </trkpt>
      <trkpt lat="43.01622" lon="0.22259">
        <ele>1364.6</ele>
        <time>2023-11-19T12:49:49Z</time>
      </trkpt>
      <trkpt lat="43.01622" lon="0.22259">
        <ele>1364.6</ele>
        <time>2023-11-19T12:49:50Z</time>
      </trkpt>
      <trkpt lat="43.01622" lon="0.2226">
        <ele>1364.8</ele>
        <time>2023-11-19T12:49:51Z</time>
      </trkpt>
      <trkpt lat="43.01622" lon="0.22261">
        <ele>1364.9</ele>
        <time>2023-11-19T12:49:52Z</time>
      </trkpt>
      <trkpt lat="43.01622" lon="0.22262">
        <ele>1365</ele>
        <time>2023-11-19T12:49:53Z</time>
      </trkpt>
      <trkpt lat="43.01622" lon="0.22263">
        <ele>1365.1</ele>
        <time>2023-11-19T12:49:54Z</time>
      </trkpt>
      <trkpt lat="43.01621" lon="0.22264">
        <ele>1365.2</ele>
        <time>2023-11-19T12:49:55Z</time>
      </trkpt>
      <trkpt lat="43.01621" lon="0.22264">
        <ele>1365.2</ele>
        <time>2023-11-19T12:49:56Z</time>
      </trkpt>
      <trkpt lat="43.01621" lon="0.22265">
        <ele>1365.3</ele>
        <time>2023-11-19T12:49:57Z</time>
      </trkpt>
      <trkpt lat="43.01621" lon="0.22267">
        <ele>1365.5</ele>
        <time>2023-11-19T12:49:58Z</time>
      </trkpt>
      <trkpt lat="43.01621" lon="0.22267">
        <ele>1365.6</ele>
        <time>2023-11-19T12:49:59Z</time>
      </trkpt>
      <trkpt lat="43.01621" lon="0.22268">
        <ele>1365.7</ele>
        <time>2023-11-19T12:50:00Z</time>
      </trkpt>
      <trkpt lat="43.01621" lon="0.2227">
        <ele>1365.8</ele>
        <time>2023-11-19T12:50:01Z</time>
      </trkpt>
      <trkpt lat="43.01621" lon="0.2227">
        <ele>1365.9</ele>
        <time>2023-11-19T12:50:02Z</time>
      </trkpt>
      <trkpt lat="43.01621" lon="0.22272">
        <ele>1366.1</ele>
        <time>2023-11-19T12:50:03Z</time>
      </trkpt>
      <trkpt lat="43.0162" lon="0.22272">
        <ele>1366.1</ele>
        <time>2023-11-19T12:50:04Z</time>
      </trkpt>
      <trkpt lat="43.0162" lon="0.22273">
        <ele>1366.2</ele>
        <time>2023-11-19T12:50:05Z</time>
      </trkpt>
      <trkpt lat="43.0162" lon="0.22274">
        <ele>1366.3</ele>
        <time>2023-11-19T12:50:06Z</time>
      </trkpt>
      <trkpt lat="43.0162" lon="0.22274">
        <ele>1366.4</ele>
        <time>2023-11-19T12:50:07Z</time>
      </trkpt>
      <trkpt lat="43.0162" lon="0.22276">
        <ele>1366.5</ele>
        <time>2023-11-19T12:50:08Z</time>
      </trkpt>
      <trkpt lat="43.0162" lon="0.22276">
        <ele>1366.6</ele>
        <time>2023-11-19T12:50:09Z</time>
      </trkpt>
      <trkpt lat="43.0162" lon="0.22277">
        <ele>1366.7</ele>
        <time>2023-11-19T12:50:10Z</time>
      </trkpt>
      <trkpt lat="43.0162" lon="0.22278">
        <ele>1366.9</ele>
        <time>2023-11-19T12:50:11Z</time>
      </trkpt>
      <trkpt lat="43.0162" lon="0.22278">
        <ele>1366.9</ele>
        <time>2023-11-19T12:50:12Z</time>
      </trkpt>
      <trkpt lat="43.0162" lon="0.22279">
        <ele>1366.9</ele>
        <time>2023-11-19T12:50:13Z</time>
      </trkpt>
      <trkpt lat="43.01621" lon="0.2228">
        <ele>1367.1</ele>
        <time>2023-11-19T12:50:14Z</time>
      </trkpt>
      <trkpt lat="43.0162" lon="0.22281">
        <ele>1367.2</ele>
        <time>2023-11-19T12:50:15Z</time>
      </trkpt>
      <trkpt lat="43.0162" lon="0.22282">
        <ele>1367.3</ele>
        <time>2023-11-19T12:50:16Z</time>
      </trkpt>
      <trkpt lat="43.0162" lon="0.22283">
        <ele>1367.4</ele>
        <time>2023-11-19T12:50:17Z</time>
      </trkpt>
      <trkpt lat="43.01619" lon="0.22284">
        <ele>1367.5</ele>
        <time>2023-11-19T12:50:18Z</time>
      </trkpt>
      <trkpt lat="43.01619" lon="0.22284">
        <ele>1367.6</ele>
        <time>2023-11-19T12:50:19Z</time>
      </trkpt>
      <trkpt lat="43.0162" lon="0.22285">
        <ele>1367.7</ele>
        <time>2023-11-19T12:50:20Z</time>
      </trkpt>
      <trkpt lat="43.0162" lon="0.22285">
        <ele>1367.7</ele>
        <time>2023-11-19T12:50:21Z</time>
      </trkpt>
      <trkpt lat="43.01621" lon="0.22285">
        <ele>1367.8</ele>
        <time>2023-11-19T12:50:22Z</time>
      </trkpt>
      <trkpt lat="43.01621" lon="0.22286">
        <ele>1368</ele>
        <time>2023-11-19T12:50:23Z</time>
      </trkpt>
      <trkpt lat="43.01621" lon="0.22287">
        <ele>1368.1</ele>
        <time>2023-11-19T12:50:24Z</time>
      </trkpt>
      <trkpt lat="43.01621" lon="0.22287">
        <ele>1368.2</ele>
        <time>2023-11-19T12:50:25Z</time>
      </trkpt>
      <trkpt lat="43.01621" lon="0.22288">
        <ele>1368.3</ele>
        <time>2023-11-19T12:50:26Z</time>
      </trkpt>
      <trkpt lat="43.01621" lon="0.2229">
        <ele>1368.4</ele>
        <time>2023-11-19T12:50:27Z</time>
      </trkpt>
      <trkpt lat="43.01621" lon="0.2229">
        <ele>1368.5</ele>
        <time>2023-11-19T12:50:28Z</time>
      </trkpt>
      <trkpt lat="43.01621" lon="0.22291">
        <ele>1368.6</ele>
        <time>2023-11-19T12:50:29Z</time>
      </trkpt>
      <trkpt lat="43.01621" lon="0.22292">
        <ele>1368.7</ele>
        <time>2023-11-19T12:50:30Z</time>
      </trkpt>
      <trkpt lat="43.01621" lon="0.22293">
        <ele>1368.9</ele>
        <time>2023-11-19T12:50:31Z</time>
      </trkpt>
      <trkpt lat="43.01621" lon="0.22293">
        <ele>1368.9</ele>
        <time>2023-11-19T12:50:32Z</time>
      </trkpt>
      <trkpt lat="43.01621" lon="0.22294">
        <ele>1369</ele>
        <time>2023-11-19T12:50:33Z</time>
      </trkpt>
      <trkpt lat="43.01621" lon="0.22295">
        <ele>1369.2</ele>
        <time>2023-11-19T12:50:34Z</time>
      </trkpt>
      <trkpt lat="43.01621" lon="0.22296">
        <ele>1369.2</ele>
        <time>2023-11-19T12:50:35Z</time>
      </trkpt>
      <trkpt lat="43.01621" lon="0.22296">
        <ele>1369.3</ele>
        <time>2023-11-19T12:50:36Z</time>
      </trkpt>
      <trkpt lat="43.01621" lon="0.22297">
        <ele>1369.5</ele>
        <time>2023-11-19T12:50:37Z</time>
      </trkpt>
      <trkpt lat="43.01621" lon="0.22298">
        <ele>1369.5</ele>
        <time>2023-11-19T12:50:38Z</time>
      </trkpt>
      <trkpt lat="43.0162" lon="0.22298">
        <ele>1369.7</ele>
        <time>2023-11-19T12:50:39Z</time>
      </trkpt>
      <trkpt lat="43.0162" lon="0.22299">
        <ele>1369.8</ele>
        <time>2023-11-19T12:50:40Z</time>
      </trkpt>
      <trkpt lat="43.0162" lon="0.223">
        <ele>1369.9</ele>
        <time>2023-11-19T12:50:41Z</time>
      </trkpt>
      <trkpt lat="43.01619" lon="0.22301">
        <ele>1370.1</ele>
        <time>2023-11-19T12:50:42Z</time>
      </trkpt>
      <trkpt lat="43.01619" lon="0.22302">
        <ele>1370.2</ele>
        <time>2023-11-19T12:50:43Z</time>
      </trkpt>
      <trkpt lat="43.01619" lon="0.22303">
        <ele>1370.3</ele>
        <time>2023-11-19T12:50:44Z</time>
      </trkpt>
      <trkpt lat="43.01619" lon="0.22304">
        <ele>1370.5</ele>
        <time>2023-11-19T12:50:45Z</time>
      </trkpt>
      <trkpt lat="43.01619" lon="0.22305">
        <ele>1370.6</ele>
        <time>2023-11-19T12:50:46Z</time>
      </trkpt>
      <trkpt lat="43.01619" lon="0.22306">
        <ele>1370.7</ele>
        <time>2023-11-19T12:50:47Z</time>
      </trkpt>
      <trkpt lat="43.01619" lon="0.22307">
        <ele>1370.8</ele>
        <time>2023-11-19T12:50:48Z</time>
      </trkpt>
      <trkpt lat="43.01619" lon="0.22307">
        <ele>1370.9</ele>
        <time>2023-11-19T12:50:49Z</time>
      </trkpt>
      <trkpt lat="43.01619" lon="0.22308">
        <ele>1371</ele>
        <time>2023-11-19T12:50:50Z</time>
      </trkpt>
      <trkpt lat="43.01619" lon="0.22309">
        <ele>1371.1</ele>
        <time>2023-11-19T12:50:51Z</time>
      </trkpt>
      <trkpt lat="43.01619" lon="0.22309">
        <ele>1371.2</ele>
        <time>2023-11-19T12:50:52Z</time>
      </trkpt>
      <trkpt lat="43.01619" lon="0.2231">
        <ele>1371.3</ele>
        <time>2023-11-19T12:50:53Z</time>
      </trkpt>
      <trkpt lat="43.01619" lon="0.2231">
        <ele>1371.4</ele>
        <time>2023-11-19T12:50:54Z</time>
      </trkpt>
      <trkpt lat="43.01618" lon="0.22311">
        <ele>1371.6</ele>
        <time>2023-11-19T12:50:55Z</time>
      </trkpt>
      <trkpt lat="43.01618" lon="0.22312">
        <ele>1371.8</ele>
        <time>2023-11-19T12:50:56Z</time>
      </trkpt>
      <trkpt lat="43.01617" lon="0.22313">
        <ele>1371.9</ele>
        <time>2023-11-19T12:50:57Z</time>
      </trkpt>
      <trkpt lat="43.01617" lon="0.22313">
        <ele>1371.9</ele>
        <time>2023-11-19T12:50:58Z</time>
      </trkpt>
      <trkpt lat="43.01617" lon="0.22314">
        <ele>1372</ele>
        <time>2023-11-19T12:50:59Z</time>
      </trkpt>
      <trkpt lat="43.01617" lon="0.22314">
        <ele>1372.1</ele>
        <time>2023-11-19T12:51:00Z</time>
      </trkpt>
      <trkpt lat="43.01617" lon="0.22315">
        <ele>1372.3</ele>
        <time>2023-11-19T12:51:01Z</time>
      </trkpt>
      <trkpt lat="43.01617" lon="0.22316">
        <ele>1372.4</ele>
        <time>2023-11-19T12:51:02Z</time>
      </trkpt>
      <trkpt lat="43.01617" lon="0.22317">
        <ele>1372.5</ele>
        <time>2023-11-19T12:51:03Z</time>
      </trkpt>
      <trkpt lat="43.01617" lon="0.22318">
        <ele>1372.7</ele>
        <time>2023-11-19T12:51:04Z</time>
      </trkpt>
      <trkpt lat="43.01617" lon="0.22319">
        <ele>1372.8</ele>
        <time>2023-11-19T12:51:05Z</time>
      </trkpt>
      <trkpt lat="43.01617" lon="0.2232">
        <ele>1372.9</ele>
        <time>2023-11-19T12:51:06Z</time>
      </trkpt>
      <trkpt lat="43.01617" lon="0.22321">
        <ele>1373.1</ele>
        <time>2023-11-19T12:51:07Z</time>
      </trkpt>
      <trkpt lat="43.01617" lon="0.22321">
        <ele>1373.1</ele>
        <time>2023-11-19T12:51:08Z</time>
      </trkpt>
      <trkpt lat="43.01617" lon="0.22322">
        <ele>1373.3</ele>
        <time>2023-11-19T12:51:09Z</time>
      </trkpt>
      <trkpt lat="43.01617" lon="0.22323">
        <ele>1373.4</ele>
        <time>2023-11-19T12:51:10Z</time>
      </trkpt>
      <trkpt lat="43.01617" lon="0.22323">
        <ele>1373.5</ele>
        <time>2023-11-19T12:51:11Z</time>
      </trkpt>
      <trkpt lat="43.01617" lon="0.22324">
        <ele>1373.6</ele>
        <time>2023-11-19T12:51:12Z</time>
      </trkpt>
      <trkpt lat="43.01617" lon="0.22325">
        <ele>1373.7</ele>
        <time>2023-11-19T12:51:13Z</time>
      </trkpt>
      <trkpt lat="43.01617" lon="0.22326">
        <ele>1373.9</ele>
        <time>2023-11-19T12:51:14Z</time>
      </trkpt>
      <trkpt lat="43.01617" lon="0.22326">
        <ele>1374</ele>
        <time>2023-11-19T12:51:15Z</time>
      </trkpt>
      <trkpt lat="43.01616" lon="0.22327">
        <ele>1374.1</ele>
        <time>2023-11-19T12:51:16Z</time>
      </trkpt>
      <trkpt lat="43.01616" lon="0.22328">
        <ele>1374.2</ele>
        <time>2023-11-19T12:51:17Z</time>
      </trkpt>
      <trkpt lat="43.01616" lon="0.22328">
        <ele>1374.3</ele>
        <time>2023-11-19T12:51:18Z</time>
      </trkpt>
      <trkpt lat="43.01616" lon="0.22329">
        <ele>1374.4</ele>
        <time>2023-11-19T12:51:19Z</time>
      </trkpt>
      <trkpt lat="43.01617" lon="0.2233">
        <ele>1374.6</ele>
        <time>2023-11-19T12:51:20Z</time>
      </trkpt>
      <trkpt lat="43.01617" lon="0.22331">
        <ele>1374.8</ele>
        <time>2023-11-19T12:51:21Z</time>
      </trkpt>
      <trkpt lat="43.01617" lon="0.22332">
        <ele>1374.9</ele>
        <time>2023-11-19T12:51:22Z</time>
      </trkpt>
      <trkpt lat="43.01617" lon="0.22332">
        <ele>1375</ele>
        <time>2023-11-19T12:51:23Z</time>
      </trkpt>
      <trkpt lat="43.01617" lon="0.22333">
        <ele>1375.1</ele>
        <time>2023-11-19T12:51:24Z</time>
      </trkpt>
      <trkpt lat="43.01616" lon="0.22334">
        <ele>1375.3</ele>
        <time>2023-11-19T12:51:25Z</time>
      </trkpt>
      <trkpt lat="43.01616" lon="0.22335">
        <ele>1375.4</ele>
        <time>2023-11-19T12:51:26Z</time>
      </trkpt>
      <trkpt lat="43.01616" lon="0.22335">
        <ele>1375.5</ele>
        <time>2023-11-19T12:51:27Z</time>
      </trkpt>
      <trkpt lat="43.01616" lon="0.22336">
        <ele>1375.6</ele>
        <time>2023-11-19T12:51:28Z</time>
      </trkpt>
      <trkpt lat="43.01615" lon="0.22337">
        <ele>1375.7</ele>
        <time>2023-11-19T12:51:29Z</time>
      </trkpt>
      <trkpt lat="43.01615" lon="0.22337">
        <ele>1375.8</ele>
        <time>2023-11-19T12:51:30Z</time>
      </trkpt>
      <trkpt lat="43.01615" lon="0.22338">
        <ele>1375.9</ele>
        <time>2023-11-19T12:51:31Z</time>
      </trkpt>
      <trkpt lat="43.01615" lon="0.22338">
        <ele>1376.1</ele>
        <time>2023-11-19T12:51:32Z</time>
      </trkpt>
      <trkpt lat="43.01615" lon="0.2234">
        <ele>1376.2</ele>
        <time>2023-11-19T12:51:33Z</time>
      </trkpt>
      <trkpt lat="43.01615" lon="0.2234">
        <ele>1376.3</ele>
        <time>2023-11-19T12:51:34Z</time>
      </trkpt>
      <trkpt lat="43.01615" lon="0.22341">
        <ele>1376.4</ele>
        <time>2023-11-19T12:51:35Z</time>
      </trkpt>
      <trkpt lat="43.01614" lon="0.22342">
        <ele>1376.6</ele>
        <time>2023-11-19T12:51:36Z</time>
      </trkpt>
      <trkpt lat="43.01614" lon="0.22343">
        <ele>1376.8</ele>
        <time>2023-11-19T12:51:37Z</time>
      </trkpt>
      <trkpt lat="43.01614" lon="0.22344">
        <ele>1377</ele>
        <time>2023-11-19T12:51:38Z</time>
      </trkpt>
      <trkpt lat="43.01614" lon="0.22345">
        <ele>1377.1</ele>
        <time>2023-11-19T12:51:39Z</time>
      </trkpt>
      <trkpt lat="43.01614" lon="0.22345">
        <ele>1377.2</ele>
        <time>2023-11-19T12:51:40Z</time>
      </trkpt>
      <trkpt lat="43.01615" lon="0.22346">
        <ele>1377.3</ele>
        <time>2023-11-19T12:51:41Z</time>
      </trkpt>
      <trkpt lat="43.01615" lon="0.22346">
        <ele>1377.4</ele>
        <time>2023-11-19T12:51:42Z</time>
      </trkpt>
      <trkpt lat="43.01614" lon="0.22347">
        <ele>1377.5</ele>
        <time>2023-11-19T12:51:43Z</time>
      </trkpt>
      <trkpt lat="43.01614" lon="0.22348">
        <ele>1377.6</ele>
        <time>2023-11-19T12:51:44Z</time>
      </trkpt>
      <trkpt lat="43.01615" lon="0.22349">
        <ele>1377.8</ele>
        <time>2023-11-19T12:51:45Z</time>
      </trkpt>
      <trkpt lat="43.01615" lon="0.22349">
        <ele>1377.9</ele>
        <time>2023-11-19T12:51:46Z</time>
      </trkpt>
      <trkpt lat="43.01616" lon="0.2235">
        <ele>1378.1</ele>
        <time>2023-11-19T12:51:47Z</time>
      </trkpt>
      <trkpt lat="43.01615" lon="0.22349">
        <ele>1378.2</ele>
        <time>2023-11-19T12:51:48Z</time>
      </trkpt>
      <trkpt lat="43.01615" lon="0.22349">
        <ele>1378.2</ele>
        <time>2023-11-19T12:51:49Z</time>
      </trkpt>
      <trkpt lat="43.01616" lon="0.22349">
        <ele>1378.2</ele>
        <time>2023-11-19T12:51:50Z</time>
      </trkpt>
      <trkpt lat="43.01615" lon="0.22349">
        <ele>1378.3</ele>
        <time>2023-11-19T12:51:51Z</time>
      </trkpt>
      <trkpt lat="43.01615" lon="0.2235">
        <ele>1378.4</ele>
        <time>2023-11-19T12:51:52Z</time>
      </trkpt>
      <trkpt lat="43.01615" lon="0.2235">
        <ele>1378.5</ele>
        <time>2023-11-19T12:51:53Z</time>
      </trkpt>
      <trkpt lat="43.01615" lon="0.22351">
        <ele>1378.7</ele>
        <time>2023-11-19T12:51:54Z</time>
      </trkpt>
      <trkpt lat="43.01615" lon="0.22353">
        <ele>1378.9</ele>
        <time>2023-11-19T12:51:55Z</time>
      </trkpt>
      <trkpt lat="43.01614" lon="0.22353">
        <ele>1379</ele>
        <time>2023-11-19T12:51:56Z</time>
      </trkpt>
      <trkpt lat="43.01614" lon="0.22354">
        <ele>1379.1</ele>
        <time>2023-11-19T12:51:57Z</time>
      </trkpt>
      <trkpt lat="43.01614" lon="0.22355">
        <ele>1379.2</ele>
        <time>2023-11-19T12:51:58Z</time>
      </trkpt>
      <trkpt lat="43.01614" lon="0.22356">
        <ele>1379.3</ele>
        <time>2023-11-19T12:51:59Z</time>
      </trkpt>
      <trkpt lat="43.01614" lon="0.22356">
        <ele>1379.5</ele>
        <time>2023-11-19T12:52:00Z</time>
      </trkpt>
      <trkpt lat="43.01614" lon="0.22357">
        <ele>1379.6</ele>
        <time>2023-11-19T12:52:01Z</time>
      </trkpt>
      <trkpt lat="43.01614" lon="0.22357">
        <ele>1379.6</ele>
        <time>2023-11-19T12:52:02Z</time>
      </trkpt>
      <trkpt lat="43.01614" lon="0.22358">
        <ele>1379.7</ele>
        <time>2023-11-19T12:52:03Z</time>
      </trkpt>
      <trkpt lat="43.01613" lon="0.22359">
        <ele>1379.9</ele>
        <time>2023-11-19T12:52:04Z</time>
      </trkpt>
      <trkpt lat="43.01613" lon="0.2236">
        <ele>1380.1</ele>
        <time>2023-11-19T12:52:05Z</time>
      </trkpt>
      <trkpt lat="43.01613" lon="0.22361">
        <ele>1380.2</ele>
        <time>2023-11-19T12:52:06Z</time>
      </trkpt>
      <trkpt lat="43.01612" lon="0.22362">
        <ele>1380.4</ele>
        <time>2023-11-19T12:52:07Z</time>
      </trkpt>
      <trkpt lat="43.01612" lon="0.22363">
        <ele>1380.5</ele>
        <time>2023-11-19T12:52:08Z</time>
      </trkpt>
      <trkpt lat="43.01612" lon="0.22364">
        <ele>1380.6</ele>
        <time>2023-11-19T12:52:09Z</time>
      </trkpt>
      <trkpt lat="43.01612" lon="0.22364">
        <ele>1380.7</ele>
        <time>2023-11-19T12:52:10Z</time>
      </trkpt>
      <trkpt lat="43.01612" lon="0.22365">
        <ele>1380.8</ele>
        <time>2023-11-19T12:52:11Z</time>
      </trkpt>
      <trkpt lat="43.01612" lon="0.22366">
        <ele>1380.9</ele>
        <time>2023-11-19T12:52:12Z</time>
      </trkpt>
      <trkpt lat="43.01612" lon="0.22367">
        <ele>1381</ele>
        <time>2023-11-19T12:52:13Z</time>
      </trkpt>
      <trkpt lat="43.01611" lon="0.22367">
        <ele>1381.1</ele>
        <time>2023-11-19T12:52:14Z</time>
      </trkpt>
      <trkpt lat="43.01611" lon="0.22368">
        <ele>1381.3</ele>
        <time>2023-11-19T12:52:15Z</time>
      </trkpt>
      <trkpt lat="43.0161" lon="0.22369">
        <ele>1381.4</ele>
        <time>2023-11-19T12:52:16Z</time>
      </trkpt>
      <trkpt lat="43.0161" lon="0.2237">
        <ele>1381.6</ele>
        <time>2023-11-19T12:52:17Z</time>
      </trkpt>
      <trkpt lat="43.0161" lon="0.2237">
        <ele>1381.7</ele>
        <time>2023-11-19T12:52:18Z</time>
      </trkpt>
      <trkpt lat="43.0161" lon="0.22372">
        <ele>1381.8</ele>
        <time>2023-11-19T12:52:19Z</time>
      </trkpt>
      <trkpt lat="43.0161" lon="0.22372">
        <ele>1381.9</ele>
        <time>2023-11-19T12:52:20Z</time>
      </trkpt>
      <trkpt lat="43.01609" lon="0.22373">
        <ele>1382</ele>
        <time>2023-11-19T12:52:21Z</time>
      </trkpt>
      <trkpt lat="43.01609" lon="0.22374">
        <ele>1382.2</ele>
        <time>2023-11-19T12:52:22Z</time>
      </trkpt>
      <trkpt lat="43.01609" lon="0.22375">
        <ele>1382.3</ele>
        <time>2023-11-19T12:52:23Z</time>
      </trkpt>
      <trkpt lat="43.01608" lon="0.22376">
        <ele>1382.4</ele>
        <time>2023-11-19T12:52:24Z</time>
      </trkpt>
      <trkpt lat="43.01608" lon="0.22376">
        <ele>1382.5</ele>
        <time>2023-11-19T12:52:25Z</time>
      </trkpt>
      <trkpt lat="43.01608" lon="0.22377">
        <ele>1382.6</ele>
        <time>2023-11-19T12:52:26Z</time>
      </trkpt>
      <trkpt lat="43.01608" lon="0.22378">
        <ele>1382.7</ele>
        <time>2023-11-19T12:52:27Z</time>
      </trkpt>
      <trkpt lat="43.01607" lon="0.22379">
        <ele>1382.8</ele>
        <time>2023-11-19T12:52:28Z</time>
      </trkpt>
      <trkpt lat="43.01608" lon="0.22379">
        <ele>1382.8</ele>
        <time>2023-11-19T12:52:29Z</time>
      </trkpt>
      <trkpt lat="43.01608" lon="0.2238">
        <ele>1382.9</ele>
        <time>2023-11-19T12:52:30Z</time>
      </trkpt>
      <trkpt lat="43.01608" lon="0.22379">
        <ele>1382.9</ele>
        <time>2023-11-19T12:52:31Z</time>
      </trkpt>
      <trkpt lat="43.01609" lon="0.22379">
        <ele>1383</ele>
        <time>2023-11-19T12:52:32Z</time>
      </trkpt>
      <trkpt lat="43.01609" lon="0.22379">
        <ele>1383</ele>
        <time>2023-11-19T12:52:33Z</time>
      </trkpt>
      <trkpt lat="43.01609" lon="0.2238">
        <ele>1383</ele>
        <time>2023-11-19T12:52:34Z</time>
      </trkpt>
      <trkpt lat="43.0161" lon="0.2238">
        <ele>1383.1</ele>
        <time>2023-11-19T12:52:35Z</time>
      </trkpt>
      <trkpt lat="43.0161" lon="0.2238">
        <ele>1383.1</ele>
        <time>2023-11-19T12:52:36Z</time>
      </trkpt>
      <trkpt lat="43.01611" lon="0.2238">
        <ele>1384.5</ele>
        <time>2023-11-19T12:52:37Z</time>
      </trkpt>
      <trkpt lat="43.01612" lon="0.2238">
        <ele>1384.5</ele>
        <time>2023-11-19T12:52:38Z</time>
      </trkpt>
      <trkpt lat="43.01613" lon="0.2238">
        <ele>1384.6</ele>
        <time>2023-11-19T12:52:39Z</time>
      </trkpt>
      <trkpt lat="43.01613" lon="0.2238">
        <ele>1384.6</ele>
        <time>2023-11-19T12:52:40Z</time>
      </trkpt>
      <trkpt lat="43.01613" lon="0.2238">
        <ele>1385.9</ele>
        <time>2023-11-19T12:52:41Z</time>
      </trkpt>
      <trkpt lat="43.01613" lon="0.22381">
        <ele>1385.8</ele>
        <time>2023-11-19T12:52:42Z</time>
      </trkpt>
      <trkpt lat="43.01614" lon="0.22381">
        <ele>1387.1</ele>
        <time>2023-11-19T12:52:43Z</time>
      </trkpt>
      <trkpt lat="43.01614" lon="0.22382">
        <ele>1387.2</ele>
        <time>2023-11-19T12:52:44Z</time>
      </trkpt>
      <trkpt lat="43.01614" lon="0.22384">
        <ele>1387.2</ele>
        <time>2023-11-19T12:52:45Z</time>
      </trkpt>
      <trkpt lat="43.01615" lon="0.22384">
        <ele>1387.3</ele>
        <time>2023-11-19T12:52:46Z</time>
      </trkpt>
      <trkpt lat="43.01615" lon="0.22385">
        <ele>1387.3</ele>
        <time>2023-11-19T12:52:47Z</time>
      </trkpt>
      <trkpt lat="43.01616" lon="0.22385">
        <ele>1387.3</ele>
        <time>2023-11-19T12:52:48Z</time>
      </trkpt>
      <trkpt lat="43.01617" lon="0.22385">
        <ele>1389.7</ele>
        <time>2023-11-19T12:52:49Z</time>
      </trkpt>
      <trkpt lat="43.01617" lon="0.22386">
        <ele>1389.7</ele>
        <time>2023-11-19T12:52:50Z</time>
      </trkpt>
      <trkpt lat="43.01617" lon="0.22386">
        <ele>1389.8</ele>
        <time>2023-11-19T12:52:51Z</time>
      </trkpt>
      <trkpt lat="43.01618" lon="0.22386">
        <ele>1389.8</ele>
        <time>2023-11-19T12:52:52Z</time>
      </trkpt>
      <trkpt lat="43.01618" lon="0.22386">
        <ele>1389.8</ele>
        <time>2023-11-19T12:52:53Z</time>
      </trkpt>
      <trkpt lat="43.01619" lon="0.22385">
        <ele>1389.9</ele>
        <time>2023-11-19T12:52:54Z</time>
      </trkpt>
      <trkpt lat="43.0162" lon="0.22386">
        <ele>1391.1</ele>
        <time>2023-11-19T12:52:55Z</time>
      </trkpt>
      <trkpt lat="43.0162" lon="0.22386">
        <ele>1391.1</ele>
        <time>2023-11-19T12:52:56Z</time>
      </trkpt>
      <trkpt lat="43.0162" lon="0.22386">
        <ele>1391.2</ele>
        <time>2023-11-19T12:52:57Z</time>
      </trkpt>
      <trkpt lat="43.01621" lon="0.22386">
        <ele>1391.2</ele>
        <time>2023-11-19T12:52:58Z</time>
      </trkpt>
      <trkpt lat="43.01621" lon="0.22386">
        <ele>1391.3</ele>
        <time>2023-11-19T12:52:59Z</time>
      </trkpt>
      <trkpt lat="43.01622" lon="0.22386">
        <ele>1391.3</ele>
        <time>2023-11-19T12:53:00Z</time>
      </trkpt>
      <trkpt lat="43.01622" lon="0.22387">
        <ele>1391.3</ele>
        <time>2023-11-19T12:53:01Z</time>
      </trkpt>
      <trkpt lat="43.01622" lon="0.22387">
        <ele>1391.4</ele>
        <time>2023-11-19T12:53:02Z</time>
      </trkpt>
      <trkpt lat="43.01623" lon="0.22387">
        <ele>1392.5</ele>
        <time>2023-11-19T12:53:03Z</time>
      </trkpt>
      <trkpt lat="43.01623" lon="0.22387">
        <ele>1392.6</ele>
        <time>2023-11-19T12:53:04Z</time>
      </trkpt>
      <trkpt lat="43.01623" lon="0.22387">
        <ele>1392.6</ele>
        <time>2023-11-19T12:53:05Z</time>
      </trkpt>
      <trkpt lat="43.01624" lon="0.22387">
        <ele>1392.7</ele>
        <time>2023-11-19T12:53:06Z</time>
      </trkpt>
      <trkpt lat="43.01624" lon="0.22387">
        <ele>1392.7</ele>
        <time>2023-11-19T12:53:07Z</time>
      </trkpt>
      <trkpt lat="43.01624" lon="0.22387">
        <ele>1392.7</ele>
        <time>2023-11-19T12:53:08Z</time>
      </trkpt>
      <trkpt lat="43.01625" lon="0.22387">
        <ele>1392.8</ele>
        <time>2023-11-19T12:53:09Z</time>
      </trkpt>
      <trkpt lat="43.01625" lon="0.22388">
        <ele>1392.8</ele>
        <time>2023-11-19T12:53:10Z</time>
      </trkpt>
      <trkpt lat="43.01626" lon="0.22388">
        <ele>1392.9</ele>
        <time>2023-11-19T12:53:11Z</time>
      </trkpt>
      <trkpt lat="43.01626" lon="0.22388">
        <ele>1392.9</ele>
        <time>2023-11-19T12:53:12Z</time>
      </trkpt>
      <trkpt lat="43.01626" lon="0.22388">
        <ele>1392.9</ele>
        <time>2023-11-19T12:53:13Z</time>
      </trkpt>
      <trkpt lat="43.01626" lon="0.22388">
        <ele>1393</ele>
        <time>2023-11-19T12:53:14Z</time>
      </trkpt>
      <trkpt lat="43.01627" lon="0.22388">
        <ele>1394.1</ele>
        <time>2023-11-19T12:53:15Z</time>
      </trkpt>
      <trkpt lat="43.01627" lon="0.22388">
        <ele>1394.2</ele>
        <time>2023-11-19T12:53:16Z</time>
      </trkpt>
      <trkpt lat="43.01627" lon="0.22388">
        <ele>1394.2</ele>
        <time>2023-11-19T12:53:17Z</time>
      </trkpt>
      <trkpt lat="43.01627" lon="0.22389">
        <ele>1395.3</ele>
        <time>2023-11-19T12:53:18Z</time>
      </trkpt>
      <trkpt lat="43.01628" lon="0.22389">
        <ele>1395.3</ele>
        <time>2023-11-19T12:53:19Z</time>
      </trkpt>
      <trkpt lat="43.01628" lon="0.2239">
        <ele>1395.3</ele>
        <time>2023-11-19T12:53:20Z</time>
      </trkpt>
      <trkpt lat="43.01628" lon="0.2239">
        <ele>1395.4</ele>
        <time>2023-11-19T12:53:21Z</time>
      </trkpt>
      <trkpt lat="43.01629" lon="0.2239">
        <ele>1395.4</ele>
        <time>2023-11-19T12:53:22Z</time>
      </trkpt>
      <trkpt lat="43.01629" lon="0.22389">
        <ele>1395.5</ele>
        <time>2023-11-19T12:53:23Z</time>
      </trkpt>
      <trkpt lat="43.0163" lon="0.22389">
        <ele>1395.6</ele>
        <time>2023-11-19T12:53:24Z</time>
      </trkpt>
      <trkpt lat="43.0163" lon="0.22389">
        <ele>1395.6</ele>
        <time>2023-11-19T12:53:25Z</time>
      </trkpt>
      <trkpt lat="43.01631" lon="0.22389">
        <ele>1396.7</ele>
        <time>2023-11-19T12:53:26Z</time>
      </trkpt>
      <trkpt lat="43.01631" lon="0.22389">
        <ele>1396.7</ele>
        <time>2023-11-19T12:53:27Z</time>
      </trkpt>
      <trkpt lat="43.01632" lon="0.22389">
        <ele>1396.7</ele>
        <time>2023-11-19T12:53:28Z</time>
      </trkpt>
      <trkpt lat="43.01632" lon="0.22389">
        <ele>1397.8</ele>
        <time>2023-11-19T12:53:29Z</time>
      </trkpt>
      <trkpt lat="43.01633" lon="0.22389">
        <ele>1397.9</ele>
        <time>2023-11-19T12:53:30Z</time>
      </trkpt>
      <trkpt lat="43.01633" lon="0.22389">
        <ele>1397.9</ele>
        <time>2023-11-19T12:53:31Z</time>
      </trkpt>
      <trkpt lat="43.01634" lon="0.22389">
        <ele>1397</ele>
        <time>2023-11-19T12:53:32Z</time>
      </trkpt>
      <trkpt lat="43.01634" lon="0.22389">
        <ele>1397</ele>
        <time>2023-11-19T12:53:33Z</time>
      </trkpt>
      <trkpt lat="43.01634" lon="0.22389">
        <ele>1398</ele>
        <time>2023-11-19T12:53:34Z</time>
      </trkpt>
      <trkpt lat="43.01634" lon="0.22389">
        <ele>1398.1</ele>
        <time>2023-11-19T12:53:35Z</time>
      </trkpt>
      <trkpt lat="43.01634" lon="0.22389">
        <ele>1398.1</ele>
        <time>2023-11-19T12:53:36Z</time>
      </trkpt>
      <trkpt lat="43.01634" lon="0.22389">
        <ele>1398.2</ele>
        <time>2023-11-19T12:53:37Z</time>
      </trkpt>
      <trkpt lat="43.01634" lon="0.22389">
        <ele>1398.2</ele>
        <time>2023-11-19T12:53:38Z</time>
      </trkpt>
      <trkpt lat="43.01635" lon="0.22389">
        <ele>1398.4</ele>
        <time>2023-11-19T12:53:39Z</time>
      </trkpt>
      <trkpt lat="43.01636" lon="0.22388">
        <ele>1398.4</ele>
        <time>2023-11-19T12:53:40Z</time>
      </trkpt>
      <trkpt lat="43.01637" lon="0.22389">
        <ele>1398.4</ele>
        <time>2023-11-19T12:53:41Z</time>
      </trkpt>
      <trkpt lat="43.01637" lon="0.22388">
        <ele>1398.5</ele>
        <time>2023-11-19T12:53:42Z</time>
      </trkpt>
      <trkpt lat="43.01638" lon="0.22387">
        <ele>1398.5</ele>
        <time>2023-11-19T12:53:43Z</time>
      </trkpt>
      <trkpt lat="43.01638" lon="0.22387">
        <ele>1398.6</ele>
        <time>2023-11-19T12:53:44Z</time>
      </trkpt>
      <trkpt lat="43.01639" lon="0.22387">
        <ele>1399.6</ele>
        <time>2023-11-19T12:53:45Z</time>
      </trkpt>
      <trkpt lat="43.01639" lon="0.22387">
        <ele>1399.7</ele>
        <time>2023-11-19T12:53:46Z</time>
      </trkpt>
      <trkpt lat="43.0164" lon="0.22388">
        <ele>1399.7</ele>
        <time>2023-11-19T12:53:47Z</time>
      </trkpt>
      <trkpt lat="43.0164" lon="0.22389">
        <ele>1399.8</ele>
        <time>2023-11-19T12:53:48Z</time>
      </trkpt>
      <trkpt lat="43.0164" lon="0.22388">
        <ele>1399.8</ele>
        <time>2023-11-19T12:53:49Z</time>
      </trkpt>
      <trkpt lat="43.01641" lon="0.22388">
        <ele>1399.9</ele>
        <time>2023-11-19T12:53:50Z</time>
      </trkpt>
      <trkpt lat="43.01641" lon="0.22387">
        <ele>1400</ele>
        <time>2023-11-19T12:53:51Z</time>
      </trkpt>
      <trkpt lat="43.01642" lon="0.22386">
        <ele>1400.2</ele>
        <time>2023-11-19T12:53:52Z</time>
      </trkpt>
      <trkpt lat="43.01642" lon="0.22384">
        <ele>1400.4</ele>
        <time>2023-11-19T12:53:53Z</time>
      </trkpt>
      <trkpt lat="43.01643" lon="0.22383">
        <ele>1400.6</ele>
        <time>2023-11-19T12:53:54Z</time>
      </trkpt>
      <trkpt lat="43.01643" lon="0.22384">
        <ele>1400.7</ele>
        <time>2023-11-19T12:53:55Z</time>
      </trkpt>
      <trkpt lat="43.01644" lon="0.22384">
        <ele>1400.8</ele>
        <time>2023-11-19T12:53:56Z</time>
      </trkpt>
      <trkpt lat="43.01644" lon="0.22383">
        <ele>1400.9</ele>
        <time>2023-11-19T12:53:57Z</time>
      </trkpt>
      <trkpt lat="43.01645" lon="0.22382">
        <ele>1401.1</ele>
        <time>2023-11-19T12:53:58Z</time>
      </trkpt>
      <trkpt lat="43.01646" lon="0.22382">
        <ele>1401.2</ele>
        <time>2023-11-19T12:53:59Z</time>
      </trkpt>
      <trkpt lat="43.01646" lon="0.22384">
        <ele>1401.4</ele>
        <time>2023-11-19T12:54:00Z</time>
      </trkpt>
      <trkpt lat="43.01646" lon="0.22385">
        <ele>1401.5</ele>
        <time>2023-11-19T12:54:01Z</time>
      </trkpt>
      <trkpt lat="43.01646" lon="0.22386">
        <ele>1401.6</ele>
        <time>2023-11-19T12:54:02Z</time>
      </trkpt>
      <trkpt lat="43.01646" lon="0.22386">
        <ele>1401.7</ele>
        <time>2023-11-19T12:54:03Z</time>
      </trkpt>
      <trkpt lat="43.01646" lon="0.22387">
        <ele>1401.9</ele>
        <time>2023-11-19T12:54:04Z</time>
      </trkpt>
      <trkpt lat="43.01645" lon="0.22388">
        <ele>1402</ele>
        <time>2023-11-19T12:54:05Z</time>
      </trkpt>
      <trkpt lat="43.01645" lon="0.22389">
        <ele>1402.1</ele>
        <time>2023-11-19T12:54:06Z</time>
      </trkpt>
      <trkpt lat="43.01645" lon="0.22389">
        <ele>1402.2</ele>
        <time>2023-11-19T12:54:07Z</time>
      </trkpt>
      <trkpt lat="43.01645" lon="0.2239">
        <ele>1402.3</ele>
        <time>2023-11-19T12:54:08Z</time>
      </trkpt>
      <trkpt lat="43.01644" lon="0.2239">
        <ele>1402.4</ele>
        <time>2023-11-19T12:54:09Z</time>
      </trkpt>
      <trkpt lat="43.01644" lon="0.2239">
        <ele>1402.4</ele>
        <time>2023-11-19T12:54:10Z</time>
      </trkpt>
      <trkpt lat="43.01644" lon="0.2239">
        <ele>1402.4</ele>
        <time>2023-11-19T12:54:11Z</time>
      </trkpt>
      <trkpt lat="43.01644" lon="0.22391">
        <ele>1402.6</ele>
        <time>2023-11-19T12:54:12Z</time>
      </trkpt>
      <trkpt lat="43.01643" lon="0.22392">
        <ele>1402.8</ele>
        <time>2023-11-19T12:54:13Z</time>
      </trkpt>
      <trkpt lat="43.01643" lon="0.22392">
        <ele>1402.9</ele>
        <time>2023-11-19T12:54:14Z</time>
      </trkpt>
      <trkpt lat="43.01643" lon="0.22393">
        <ele>1403</ele>
        <time>2023-11-19T12:54:15Z</time>
      </trkpt>
      <trkpt lat="43.01643" lon="0.22394">
        <ele>1403.2</ele>
        <time>2023-11-19T12:54:16Z</time>
      </trkpt>
      <trkpt lat="43.01643" lon="0.22395">
        <ele>1403.3</ele>
        <time>2023-11-19T12:54:17Z</time>
      </trkpt>
      <trkpt lat="43.01643" lon="0.22396">
        <ele>1403.4</ele>
        <time>2023-11-19T12:54:18Z</time>
      </trkpt>
      <trkpt lat="43.01643" lon="0.22396">
        <ele>1403.5</ele>
        <time>2023-11-19T12:54:19Z</time>
      </trkpt>
      <trkpt lat="43.01643" lon="0.22397">
        <ele>1403.7</ele>
        <time>2023-11-19T12:54:20Z</time>
      </trkpt>
      <trkpt lat="43.01643" lon="0.22398">
        <ele>1403.8</ele>
        <time>2023-11-19T12:54:21Z</time>
      </trkpt>
      <trkpt lat="43.01642" lon="0.22399">
        <ele>1404</ele>
        <time>2023-11-19T12:54:22Z</time>
      </trkpt>
      <trkpt lat="43.01642" lon="0.22399">
        <ele>1404.1</ele>
        <time>2023-11-19T12:54:23Z</time>
      </trkpt>
      <trkpt lat="43.01642" lon="0.224">
        <ele>1404.2</ele>
        <time>2023-11-19T12:54:24Z</time>
      </trkpt>
      <trkpt lat="43.01642" lon="0.22399">
        <ele>1404.2</ele>
        <time>2023-11-19T12:54:25Z</time>
      </trkpt>
      <trkpt lat="43.01642" lon="0.22399">
        <ele>1404.3</ele>
        <time>2023-11-19T12:54:26Z</time>
      </trkpt>
      <trkpt lat="43.01642" lon="0.22399">
        <ele>1404.3</ele>
        <time>2023-11-19T12:54:27Z</time>
      </trkpt>
      <trkpt lat="43.01642" lon="0.224">
        <ele>1404.4</ele>
        <time>2023-11-19T12:54:28Z</time>
      </trkpt>
      <trkpt lat="43.01641" lon="0.22402">
        <ele>1404.6</ele>
        <time>2023-11-19T12:54:29Z</time>
      </trkpt>
      <trkpt lat="43.01641" lon="0.22401">
        <ele>1404.7</ele>
        <time>2023-11-19T12:54:30Z</time>
      </trkpt>
      <trkpt lat="43.01641" lon="0.22401">
        <ele>1404.8</ele>
        <time>2023-11-19T12:54:31Z</time>
      </trkpt>
      <trkpt lat="43.01641" lon="0.22402">
        <ele>1405</ele>
        <time>2023-11-19T12:54:32Z</time>
      </trkpt>
      <trkpt lat="43.01641" lon="0.22404">
        <ele>1405.2</ele>
        <time>2023-11-19T12:54:33Z</time>
      </trkpt>
      <trkpt lat="43.0164" lon="0.22405">
        <ele>1405.3</ele>
        <time>2023-11-19T12:54:34Z</time>
      </trkpt>
      <trkpt lat="43.0164" lon="0.22405">
        <ele>1405.4</ele>
        <time>2023-11-19T12:54:35Z</time>
      </trkpt>
      <trkpt lat="43.0164" lon="0.22406">
        <ele>1405.6</ele>
        <time>2023-11-19T12:54:36Z</time>
      </trkpt>
      <trkpt lat="43.01639" lon="0.22407">
        <ele>1405.7</ele>
        <time>2023-11-19T12:54:37Z</time>
      </trkpt>
      <trkpt lat="43.01639" lon="0.22407">
        <ele>1405.8</ele>
        <time>2023-11-19T12:54:38Z</time>
      </trkpt>
      <trkpt lat="43.01639" lon="0.22408">
        <ele>1405.9</ele>
        <time>2023-11-19T12:54:39Z</time>
      </trkpt>
      <trkpt lat="43.01639" lon="0.22409">
        <ele>1406</ele>
        <time>2023-11-19T12:54:40Z</time>
      </trkpt>
      <trkpt lat="43.01639" lon="0.22408">
        <ele>1406.2</ele>
        <time>2023-11-19T12:54:41Z</time>
      </trkpt>
      <trkpt lat="43.01638" lon="0.22407">
        <ele>1406.3</ele>
        <time>2023-11-19T12:54:42Z</time>
      </trkpt>
      <trkpt lat="43.01638" lon="0.22407">
        <ele>1406.3</ele>
        <time>2023-11-19T12:54:43Z</time>
      </trkpt>
      <trkpt lat="43.01638" lon="0.22406">
        <ele>1406.4</ele>
        <time>2023-11-19T12:54:44Z</time>
      </trkpt>
      <trkpt lat="43.01638" lon="0.22406">
        <ele>1406.5</ele>
        <time>2023-11-19T12:54:45Z</time>
      </trkpt>
      <trkpt lat="43.01637" lon="0.22406">
        <ele>1406.6</ele>
        <time>2023-11-19T12:54:46Z</time>
      </trkpt>
      <trkpt lat="43.01637" lon="0.22405">
        <ele>1406.7</ele>
        <time>2023-11-19T12:54:47Z</time>
      </trkpt>
      <trkpt lat="43.01637" lon="0.22405">
        <ele>1406.7</ele>
        <time>2023-11-19T12:54:48Z</time>
      </trkpt>
      <trkpt lat="43.01637" lon="0.22405">
        <ele>1406.8</ele>
        <time>2023-11-19T12:54:49Z</time>
      </trkpt>
      <trkpt lat="43.01638" lon="0.22408">
        <ele>1407.3</ele>
        <time>2023-11-19T12:54:50Z</time>
      </trkpt>
      <trkpt lat="43.01638" lon="0.22408">
        <ele>1407.5</ele>
        <time>2023-11-19T12:54:51Z</time>
      </trkpt>
      <trkpt lat="43.01639" lon="0.22409">
        <ele>1407.6</ele>
        <time>2023-11-19T12:54:52Z</time>
      </trkpt>
      <trkpt lat="43.01638" lon="0.2241">
        <ele>1407.9</ele>
        <time>2023-11-19T12:54:53Z</time>
      </trkpt>
      <trkpt lat="43.01638" lon="0.22411">
        <ele>1408</ele>
        <time>2023-11-19T12:54:54Z</time>
      </trkpt>
      <trkpt lat="43.01637" lon="0.22411">
        <ele>1408.1</ele>
        <time>2023-11-19T12:54:55Z</time>
      </trkpt>
      <trkpt lat="43.01637" lon="0.22411">
        <ele>1408.2</ele>
        <time>2023-11-19T12:54:56Z</time>
      </trkpt>
      <trkpt lat="43.01637" lon="0.22411">
        <ele>1408.3</ele>
        <time>2023-11-19T12:54:57Z</time>
      </trkpt>
      <trkpt lat="43.01637" lon="0.22412">
        <ele>1408.4</ele>
        <time>2023-11-19T12:54:58Z</time>
      </trkpt>
      <trkpt lat="43.01638" lon="0.22412">
        <ele>1408.4</ele>
        <time>2023-11-19T12:54:59Z</time>
      </trkpt>
      <trkpt lat="43.01638" lon="0.22411">
        <ele>1408.5</ele>
        <time>2023-11-19T12:55:00Z</time>
      </trkpt>
      <trkpt lat="43.01638" lon="0.22411">
        <ele>1408.5</ele>
        <time>2023-11-19T12:55:01Z</time>
      </trkpt>
      <trkpt lat="43.01638" lon="0.22411">
        <ele>1408.6</ele>
        <time>2023-11-19T12:55:02Z</time>
      </trkpt>
      <trkpt lat="43.01638" lon="0.22411">
        <ele>1408.6</ele>
        <time>2023-11-19T12:55:03Z</time>
      </trkpt>
      <trkpt lat="43.01638" lon="0.22411">
        <ele>1408.6</ele>
        <time>2023-11-19T12:55:04Z</time>
      </trkpt>
      <trkpt lat="43.01638" lon="0.2241">
        <ele>1408.6</ele>
        <time>2023-11-19T12:55:05Z</time>
      </trkpt>
      <trkpt lat="43.01638" lon="0.22411">
        <ele>1408.7</ele>
        <time>2023-11-19T12:55:06Z</time>
      </trkpt>
      <trkpt lat="43.01638" lon="0.2241">
        <ele>1408.7</ele>
        <time>2023-11-19T12:55:07Z</time>
      </trkpt>
      <trkpt lat="43.01638" lon="0.2241">
        <ele>1408.8</ele>
        <time>2023-11-19T12:55:08Z</time>
      </trkpt>
      <trkpt lat="43.01638" lon="0.2241">
        <ele>1408.8</ele>
        <time>2023-11-19T12:55:09Z</time>
      </trkpt>
      <trkpt lat="43.01638" lon="0.2241">
        <ele>1408.8</ele>
        <time>2023-11-19T12:55:10Z</time>
      </trkpt>
      <trkpt lat="43.01638" lon="0.2241">
        <ele>1408.8</ele>
        <time>2023-11-19T12:55:11Z</time>
      </trkpt>
      <trkpt lat="43.01638" lon="0.2241">
        <ele>1408.8</ele>
        <time>2023-11-19T12:55:12Z</time>
      </trkpt>
      <trkpt lat="43.01638" lon="0.2241">
        <ele>1408.8</ele>
        <time>2023-11-19T12:55:13Z</time>
      </trkpt>
      <trkpt lat="43.01638" lon="0.2241">
        <ele>1408.9</ele>
        <time>2023-11-19T12:55:14Z</time>
      </trkpt>
      <trkpt lat="43.01638" lon="0.2241">
        <ele>1408.9</ele>
        <time>2023-11-19T12:55:15Z</time>
      </trkpt>
      <trkpt lat="43.01638" lon="0.22411">
        <ele>1408.9</ele>
        <time>2023-11-19T12:55:16Z</time>
      </trkpt>
      <trkpt lat="43.01638" lon="0.22411">
        <ele>1408.9</ele>
        <time>2023-11-19T12:55:17Z</time>
      </trkpt>
      <trkpt lat="43.01638" lon="0.22411">
        <ele>1408.9</ele>
        <time>2023-11-19T12:55:18Z</time>
      </trkpt>
      <trkpt lat="43.01638" lon="0.22411">
        <ele>1408.9</ele>
        <time>2023-11-19T12:55:19Z</time>
      </trkpt>
      <trkpt lat="43.01638" lon="0.22411">
        <ele>1408.9</ele>
        <time>2023-11-19T12:55:20Z</time>
      </trkpt>
      <trkpt lat="43.01638" lon="0.22411">
        <ele>1408.9</ele>
        <time>2023-11-19T12:55:21Z</time>
      </trkpt>
      <trkpt lat="43.01638" lon="0.22411">
        <ele>1408.9</ele>
        <time>2023-11-19T12:55:22Z</time>
      </trkpt>
      <trkpt lat="43.01638" lon="0.22411">
        <ele>1408.9</ele>
        <time>2023-11-19T12:55:23Z</time>
      </trkpt>
      <trkpt lat="43.01638" lon="0.22411">
        <ele>1408.9</ele>
        <time>2023-11-19T12:55:24Z</time>
      </trkpt>
      <trkpt lat="43.01638" lon="0.22411">
        <ele>1408.9</ele>
        <time>2023-11-19T12:55:25Z</time>
      </trkpt>
      <trkpt lat="43.01638" lon="0.22411">
        <ele>1408.9</ele>
        <time>2023-11-19T12:55:26Z</time>
      </trkpt>
      <trkpt lat="43.01638" lon="0.22411">
        <ele>1408.9</ele>
        <time>2023-11-19T12:55:27Z</time>
      </trkpt>
      <trkpt lat="43.01638" lon="0.22411">
        <ele>1408.9</ele>
        <time>2023-11-19T12:55:28Z</time>
      </trkpt>
      <trkpt lat="43.01638" lon="0.22411">
        <ele>1408.9</ele>
        <time>2023-11-19T12:55:29Z</time>
      </trkpt>
      <trkpt lat="43.01638" lon="0.22411">
        <ele>1408.9</ele>
        <time>2023-11-19T12:55:30Z</time>
      </trkpt>
      <trkpt lat="43.01638" lon="0.2241">
        <ele>1409</ele>
        <time>2023-11-19T12:55:31Z</time>
      </trkpt>
      <trkpt lat="43.01638" lon="0.2241">
        <ele>1409</ele>
        <time>2023-11-19T12:55:32Z</time>
      </trkpt>
      <trkpt lat="43.01638" lon="0.2241">
        <ele>1409</ele>
        <time>2023-11-19T12:55:33Z</time>
      </trkpt>
      <trkpt lat="43.01638" lon="0.22411">
        <ele>1409.1</ele>
        <time>2023-11-19T12:55:34Z</time>
      </trkpt>
      <trkpt lat="43.01638" lon="0.22411">
        <ele>1409.2</ele>
        <time>2023-11-19T12:55:35Z</time>
      </trkpt>
      <trkpt lat="43.01638" lon="0.22411">
        <ele>1409.3</ele>
        <time>2023-11-19T12:55:36Z</time>
      </trkpt>
      <trkpt lat="43.01638" lon="0.22411">
        <ele>1409.3</ele>
        <time>2023-11-19T12:55:37Z</time>
      </trkpt>
      <trkpt lat="43.01638" lon="0.22411">
        <ele>1409.3</ele>
        <time>2023-11-19T12:55:38Z</time>
      </trkpt>
      <trkpt lat="43.01639" lon="0.22411">
        <ele>1409.3</ele>
        <time>2023-11-19T12:55:39Z</time>
      </trkpt>
      <trkpt lat="43.01639" lon="0.22411">
        <ele>1409.3</ele>
        <time>2023-11-19T12:55:40Z</time>
      </trkpt>
      <trkpt lat="43.01639" lon="0.22411">
        <ele>1409.3</ele>
        <time>2023-11-19T12:55:41Z</time>
      </trkpt>
      <trkpt lat="43.01639" lon="0.22411">
        <ele>1409.3</ele>
        <time>2023-11-19T12:55:42Z</time>
      </trkpt>
      <trkpt lat="43.01639" lon="0.22411">
        <ele>1409.3</ele>
        <time>2023-11-19T12:55:43Z</time>
      </trkpt>
      <trkpt lat="43.01639" lon="0.22411">
        <ele>1409.3</ele>
        <time>2023-11-19T12:55:44Z</time>
      </trkpt>
      <trkpt lat="43.01639" lon="0.22411">
        <ele>1409.3</ele>
        <time>2023-11-19T12:55:45Z</time>
      </trkpt>
      <trkpt lat="43.01639" lon="0.22411">
        <ele>1409.3</ele>
        <time>2023-11-19T12:55:46Z</time>
      </trkpt>
      <trkpt lat="43.01639" lon="0.22411">
        <ele>1409.3</ele>
        <time>2023-11-19T12:55:47Z</time>
      </trkpt>
      <trkpt lat="43.01639" lon="0.22411">
        <ele>1409.3</ele>
        <time>2023-11-19T12:55:48Z</time>
      </trkpt>
      <trkpt lat="43.01639" lon="0.22411">
        <ele>1409.4</ele>
        <time>2023-11-19T12:55:49Z</time>
      </trkpt>
      <trkpt lat="43.01639" lon="0.22411">
        <ele>1409.4</ele>
        <time>2023-11-19T12:55:50Z</time>
      </trkpt>
      <trkpt lat="43.01639" lon="0.22411">
        <ele>1409.4</ele>
        <time>2023-11-19T12:55:51Z</time>
      </trkpt>
      <trkpt lat="43.01639" lon="0.22411">
        <ele>1409.5</ele>
        <time>2023-11-19T12:55:52Z</time>
      </trkpt>
      <trkpt lat="43.01639" lon="0.22411">
        <ele>1409.5</ele>
        <time>2023-11-19T12:55:53Z</time>
      </trkpt>
      <trkpt lat="43.01639" lon="0.22411">
        <ele>1409.5</ele>
        <time>2023-11-19T12:55:54Z</time>
      </trkpt>
      <trkpt lat="43.01639" lon="0.22411">
        <ele>1409.5</ele>
        <time>2023-11-19T12:55:55Z</time>
      </trkpt>
      <trkpt lat="43.01639" lon="0.22411">
        <ele>1409.5</ele>
        <time>2023-11-19T12:55:56Z</time>
      </trkpt>
      <trkpt lat="43.01639" lon="0.22411">
        <ele>1409.5</ele>
        <time>2023-11-19T12:55:57Z</time>
      </trkpt>
      <trkpt lat="43.01639" lon="0.2241">
        <ele>1409.6</ele>
        <time>2023-11-19T12:55:58Z</time>
      </trkpt>
      <trkpt lat="43.01639" lon="0.22411">
        <ele>1409.6</ele>
        <time>2023-11-19T12:55:59Z</time>
      </trkpt>
      <trkpt lat="43.01639" lon="0.22411">
        <ele>1409.6</ele>
        <time>2023-11-19T12:56:00Z</time>
      </trkpt>
      <trkpt lat="43.01639" lon="0.22411">
        <ele>1409.6</ele>
        <time>2023-11-19T12:56:01Z</time>
      </trkpt>
      <trkpt lat="43.01639" lon="0.2241">
        <ele>1409.7</ele>
        <time>2023-11-19T12:56:02Z</time>
      </trkpt>
      <trkpt lat="43.01639" lon="0.2241">
        <ele>1409.7</ele>
        <time>2023-11-19T12:56:03Z</time>
      </trkpt>
      <trkpt lat="43.01639" lon="0.2241">
        <ele>1409.7</ele>
        <time>2023-11-19T12:56:04Z</time>
      </trkpt>
      <trkpt lat="43.01639" lon="0.22411">
        <ele>1409.8</ele>
        <time>2023-11-19T12:56:05Z</time>
      </trkpt>
      <trkpt lat="43.01639" lon="0.22411">
        <ele>1409.8</ele>
        <time>2023-11-19T12:56:06Z</time>
      </trkpt>
      <trkpt lat="43.01639" lon="0.22411">
        <ele>1409.9</ele>
        <time>2023-11-19T12:56:07Z</time>
      </trkpt>
      <trkpt lat="43.01639" lon="0.22411">
        <ele>1409.9</ele>
        <time>2023-11-19T12:56:08Z</time>
      </trkpt>
      <trkpt lat="43.01639" lon="0.22411">
        <ele>1409.9</ele>
        <time>2023-11-19T12:56:09Z</time>
      </trkpt>
      <trkpt lat="43.01639" lon="0.22411">
        <ele>1409.9</ele>
        <time>2023-11-19T12:56:10Z</time>
      </trkpt>
      <trkpt lat="43.01639" lon="0.22411">
        <ele>1410</ele>
        <time>2023-11-19T12:56:11Z</time>
      </trkpt>
      <trkpt lat="43.01639" lon="0.22411">
        <ele>1410</ele>
        <time>2023-11-19T12:56:12Z</time>
      </trkpt>
      <trkpt lat="43.01639" lon="0.22411">
        <ele>1410</ele>
        <time>2023-11-19T12:56:13Z</time>
      </trkpt>
      <trkpt lat="43.01639" lon="0.22411">
        <ele>1410</ele>
        <time>2023-11-19T12:56:14Z</time>
      </trkpt>
      <trkpt lat="43.01638" lon="0.22409">
        <ele>1410.5</ele>
        <time>2023-11-19T12:56:15Z</time>
      </trkpt>
      <trkpt lat="43.01638" lon="0.22409">
        <ele>1410.5</ele>
        <time>2023-11-19T12:56:16Z</time>
      </trkpt>
      <trkpt lat="43.01638" lon="0.22409">
        <ele>1410.5</ele>
        <time>2023-11-19T12:56:17Z</time>
      </trkpt>
      <trkpt lat="43.01638" lon="0.22409">
        <ele>1410.5</ele>
        <time>2023-11-19T12:56:18Z</time>
      </trkpt>
      <trkpt lat="43.01638" lon="0.22409">
        <ele>1410.5</ele>
        <time>2023-11-19T12:56:19Z</time>
      </trkpt>
      <trkpt lat="43.01638" lon="0.22409">
        <ele>1410.5</ele>
        <time>2023-11-19T12:56:20Z</time>
      </trkpt>
      <trkpt lat="43.01638" lon="0.22409">
        <ele>1410.5</ele>
        <time>2023-11-19T12:56:21Z</time>
      </trkpt>
      <trkpt lat="43.01638" lon="0.22409">
        <ele>1410.5</ele>
        <time>2023-11-19T12:56:22Z</time>
      </trkpt>
      <trkpt lat="43.01638" lon="0.22409">
        <ele>1410.5</ele>
        <time>2023-11-19T12:56:23Z</time>
      </trkpt>
      <trkpt lat="43.01638" lon="0.22409">
        <ele>1410.5</ele>
        <time>2023-11-19T12:56:24Z</time>
      </trkpt>
      <trkpt lat="43.01638" lon="0.22409">
        <ele>1410.5</ele>
        <time>2023-11-19T12:56:25Z</time>
      </trkpt>
      <trkpt lat="43.01638" lon="0.22409">
        <ele>1410.5</ele>
        <time>2023-11-19T12:56:26Z</time>
      </trkpt>
      <trkpt lat="43.01638" lon="0.22409">
        <ele>1410.5</ele>
        <time>2023-11-19T12:56:27Z</time>
      </trkpt>
      <trkpt lat="43.01638" lon="0.22409">
        <ele>1410.5</ele>
        <time>2023-11-19T12:56:28Z</time>
      </trkpt>
      <trkpt lat="43.01638" lon="0.22409">
        <ele>1410.5</ele>
        <time>2023-11-19T12:56:29Z</time>
      </trkpt>
      <trkpt lat="43.01638" lon="0.22409">
        <ele>1410.5</ele>
        <time>2023-11-19T12:56:30Z</time>
      </trkpt>
      <trkpt lat="43.01638" lon="0.22409">
        <ele>1410.5</ele>
        <time>2023-11-19T12:56:31Z</time>
      </trkpt>
      <trkpt lat="43.01638" lon="0.22409">
        <ele>1410.5</ele>
        <time>2023-11-19T12:56:32Z</time>
      </trkpt>
      <trkpt lat="43.01638" lon="0.22409">
        <ele>1410.5</ele>
        <time>2023-11-19T12:56:33Z</time>
      </trkpt>
      <trkpt lat="43.0164" lon="0.2241">
        <ele>1411</ele>
        <time>2023-11-19T12:56:34Z</time>
      </trkpt>
      <trkpt lat="43.01639" lon="0.2241">
        <ele>1411.1</ele>
        <time>2023-11-19T12:56:35Z</time>
      </trkpt>
      <trkpt lat="43.01639" lon="0.2241">
        <ele>1411.2</ele>
        <time>2023-11-19T12:56:36Z</time>
      </trkpt>
      <trkpt lat="43.01639" lon="0.2241">
        <ele>1411.3</ele>
        <time>2023-11-19T12:56:37Z</time>
      </trkpt>
      <trkpt lat="43.0164" lon="0.2241">
        <ele>1411.3</ele>
        <time>2023-11-19T12:56:38Z</time>
      </trkpt>
      <trkpt lat="43.0164" lon="0.2241">
        <ele>1411.4</ele>
        <time>2023-11-19T12:56:39Z</time>
      </trkpt>
      <trkpt lat="43.01639" lon="0.2241">
        <ele>1411.6</ele>
        <time>2023-11-19T12:56:40Z</time>
      </trkpt>
      <trkpt lat="43.01639" lon="0.2241">
        <ele>1411.6</ele>
        <time>2023-11-19T12:56:41Z</time>
      </trkpt>
      <trkpt lat="43.01639" lon="0.2241">
        <ele>1411.7</ele>
        <time>2023-11-19T12:56:42Z</time>
      </trkpt>
      <trkpt lat="43.01639" lon="0.2241">
        <ele>1411.7</ele>
        <time>2023-11-19T12:56:43Z</time>
      </trkpt>
      <trkpt lat="43.01639" lon="0.2241">
        <ele>1411.8</ele>
        <time>2023-11-19T12:56:44Z</time>
      </trkpt>
      <trkpt lat="43.01638" lon="0.22412">
        <ele>1412.3</ele>
        <time>2023-11-19T12:56:45Z</time>
      </trkpt>
      <trkpt lat="43.01639" lon="0.22413">
        <ele>1412.6</ele>
        <time>2023-11-19T12:56:46Z</time>
      </trkpt>
      <trkpt lat="43.01638" lon="0.22415">
        <ele>1412.8</ele>
        <time>2023-11-19T12:56:47Z</time>
      </trkpt>
      <trkpt lat="43.01638" lon="0.22416">
        <ele>1413.2</ele>
        <time>2023-11-19T12:56:48Z</time>
      </trkpt>
      <trkpt lat="43.01638" lon="0.22417">
        <ele>1413.4</ele>
        <time>2023-11-19T12:56:49Z</time>
      </trkpt>
      <trkpt lat="43.01638" lon="0.22421">
        <ele>1414.1</ele>
        <time>2023-11-19T12:56:50Z</time>
      </trkpt>
      <trkpt lat="43.01637" lon="0.22422">
        <ele>1414.4</ele>
        <time>2023-11-19T12:56:51Z</time>
      </trkpt>
      <trkpt lat="43.01637" lon="0.22422">
        <ele>1414.4</ele>
        <time>2023-11-19T12:56:52Z</time>
      </trkpt>
      <trkpt lat="43.01637" lon="0.22423">
        <ele>1414.6</ele>
        <time>2023-11-19T12:56:53Z</time>
      </trkpt>
      <trkpt lat="43.01637" lon="0.22424">
        <ele>1414.8</ele>
        <time>2023-11-19T12:56:54Z</time>
      </trkpt>
      <trkpt lat="43.01637" lon="0.22425">
        <ele>1415</ele>
        <time>2023-11-19T12:56:55Z</time>
      </trkpt>
      <trkpt lat="43.01636" lon="0.22426">
        <ele>1415.3</ele>
        <time>2023-11-19T12:56:56Z</time>
      </trkpt>
      <trkpt lat="43.01636" lon="0.22427">
        <ele>1415.4</ele>
        <time>2023-11-19T12:56:57Z</time>
      </trkpt>
      <trkpt lat="43.01636" lon="0.22427">
        <ele>1415.6</ele>
        <time>2023-11-19T12:56:58Z</time>
      </trkpt>
      <trkpt lat="43.01636" lon="0.22428">
        <ele>1415.8</ele>
        <time>2023-11-19T12:56:59Z</time>
      </trkpt>
      <trkpt lat="43.01635" lon="0.22428">
        <ele>1415.9</ele>
        <time>2023-11-19T12:57:00Z</time>
      </trkpt>
      <trkpt lat="43.01635" lon="0.22429">
        <ele>1416</ele>
        <time>2023-11-19T12:57:01Z</time>
      </trkpt>
      <trkpt lat="43.01635" lon="0.22431">
        <ele>1416.4</ele>
        <time>2023-11-19T12:57:02Z</time>
      </trkpt>
      <trkpt lat="43.01635" lon="0.22433">
        <ele>1416.8</ele>
        <time>2023-11-19T12:57:03Z</time>
      </trkpt>
      <trkpt lat="43.01635" lon="0.22433">
        <ele>1416.9</ele>
        <time>2023-11-19T12:57:04Z</time>
      </trkpt>
      <trkpt lat="43.01635" lon="0.22434">
        <ele>1417</ele>
        <time>2023-11-19T12:57:05Z</time>
      </trkpt>
      <trkpt lat="43.01636" lon="0.22435">
        <ele>1417.3</ele>
        <time>2023-11-19T12:57:06Z</time>
      </trkpt>
      <trkpt lat="43.01636" lon="0.22436">
        <ele>1417.6</ele>
        <time>2023-11-19T12:57:07Z</time>
      </trkpt>
      <trkpt lat="43.01636" lon="0.22436">
        <ele>1417.7</ele>
        <time>2023-11-19T12:57:08Z</time>
      </trkpt>
      <trkpt lat="43.01636" lon="0.22438">
        <ele>1417.9</ele>
        <time>2023-11-19T12:57:09Z</time>
      </trkpt>
      <trkpt lat="43.01636" lon="0.22438">
        <ele>1418</ele>
        <time>2023-11-19T12:57:10Z</time>
      </trkpt>
      <trkpt lat="43.01636" lon="0.22438">
        <ele>1418.1</ele>
        <time>2023-11-19T12:57:11Z</time>
      </trkpt>
      <trkpt lat="43.01636" lon="0.22438">
        <ele>1418.1</ele>
        <time>2023-11-19T12:57:12Z</time>
      </trkpt>
      <trkpt lat="43.01636" lon="0.22438">
        <ele>1418.2</ele>
        <time>2023-11-19T12:57:13Z</time>
      </trkpt>
      <trkpt lat="43.01636" lon="0.22437">
        <ele>1418.3</ele>
        <time>2023-11-19T12:57:14Z</time>
      </trkpt>
      <trkpt lat="43.01637" lon="0.22438">
        <ele>1418.5</ele>
        <time>2023-11-19T12:57:15Z</time>
      </trkpt>
      <trkpt lat="43.01638" lon="0.22438">
        <ele>1418.7</ele>
        <time>2023-11-19T12:57:16Z</time>
      </trkpt>
      <trkpt lat="43.01638" lon="0.22439">
        <ele>1418.8</ele>
        <time>2023-11-19T12:57:17Z</time>
      </trkpt>
      <trkpt lat="43.01639" lon="0.22439">
        <ele>1419</ele>
        <time>2023-11-19T12:57:18Z</time>
      </trkpt>
      <trkpt lat="43.01639" lon="0.22439">
        <ele>1419.1</ele>
        <time>2023-11-19T12:57:19Z</time>
      </trkpt>
      <trkpt lat="43.01639" lon="0.2244">
        <ele>1419.2</ele>
        <time>2023-11-19T12:57:20Z</time>
      </trkpt>
      <trkpt lat="43.0164" lon="0.22441">
        <ele>1419.4</ele>
        <time>2023-11-19T12:57:21Z</time>
      </trkpt>
      <trkpt lat="43.01639" lon="0.22441">
        <ele>1419.6</ele>
        <time>2023-11-19T12:57:22Z</time>
      </trkpt>
      <trkpt lat="43.01639" lon="0.22442">
        <ele>1419.7</ele>
        <time>2023-11-19T12:57:23Z</time>
      </trkpt>
      <trkpt lat="43.0164" lon="0.22442">
        <ele>1419.8</ele>
        <time>2023-11-19T12:57:24Z</time>
      </trkpt>
      <trkpt lat="43.0164" lon="0.22443">
        <ele>1420</ele>
        <time>2023-11-19T12:57:25Z</time>
      </trkpt>
      <trkpt lat="43.01641" lon="0.22444">
        <ele>1420.2</ele>
        <time>2023-11-19T12:57:26Z</time>
      </trkpt>
      <trkpt lat="43.01641" lon="0.22444">
        <ele>1420.3</ele>
        <time>2023-11-19T12:57:27Z</time>
      </trkpt>
      <trkpt lat="43.01641" lon="0.22445">
        <ele>1420.6</ele>
        <time>2023-11-19T12:57:28Z</time>
      </trkpt>
      <trkpt lat="43.01641" lon="0.22446">
        <ele>1420.7</ele>
        <time>2023-11-19T12:57:29Z</time>
      </trkpt>
      <trkpt lat="43.0164" lon="0.22446">
        <ele>1420.8</ele>
        <time>2023-11-19T12:57:30Z</time>
      </trkpt>
      <trkpt lat="43.0164" lon="0.22447">
        <ele>1420.9</ele>
        <time>2023-11-19T12:57:31Z</time>
      </trkpt>
      <trkpt lat="43.0164" lon="0.22448">
        <ele>1421.1</ele>
        <time>2023-11-19T12:57:32Z</time>
      </trkpt>
      <trkpt lat="43.0164" lon="0.22448">
        <ele>1421.2</ele>
        <time>2023-11-19T12:57:33Z</time>
      </trkpt>
      <trkpt lat="43.01641" lon="0.22448">
        <ele>1421.3</ele>
        <time>2023-11-19T12:57:34Z</time>
      </trkpt>
      <trkpt lat="43.01642" lon="0.22448">
        <ele>1421.5</ele>
        <time>2023-11-19T12:57:35Z</time>
      </trkpt>
      <trkpt lat="43.01642" lon="0.22449">
        <ele>1421.7</ele>
        <time>2023-11-19T12:57:36Z</time>
      </trkpt>
      <trkpt lat="43.01643" lon="0.22449">
        <ele>1422</ele>
        <time>2023-11-19T12:57:37Z</time>
      </trkpt>
      <trkpt lat="43.01643" lon="0.22448">
        <ele>1422.2</ele>
        <time>2023-11-19T12:57:38Z</time>
      </trkpt>
      <trkpt lat="43.01644" lon="0.22447">
        <ele>1422.3</ele>
        <time>2023-11-19T12:57:39Z</time>
      </trkpt>
      <trkpt lat="43.01644" lon="0.22447">
        <ele>1422.4</ele>
        <time>2023-11-19T12:57:40Z</time>
      </trkpt>
      <trkpt lat="43.01644" lon="0.22446">
        <ele>1422.7</ele>
        <time>2023-11-19T12:57:41Z</time>
      </trkpt>
      <trkpt lat="43.01646" lon="0.22447">
        <ele>1423.2</ele>
        <time>2023-11-19T12:57:42Z</time>
      </trkpt>
      <trkpt lat="43.01645" lon="0.22447">
        <ele>1423.3</ele>
        <time>2023-11-19T12:57:43Z</time>
      </trkpt>
      <trkpt lat="43.01646" lon="0.22445">
        <ele>1423.7</ele>
        <time>2023-11-19T12:57:44Z</time>
      </trkpt>
      <trkpt lat="43.01647" lon="0.22447">
        <ele>1424.1</ele>
        <time>2023-11-19T12:57:45Z</time>
      </trkpt>
      <trkpt lat="43.01647" lon="0.22445">
        <ele>1424.4</ele>
        <time>2023-11-19T12:57:46Z</time>
      </trkpt>
      <trkpt lat="43.01647" lon="0.22445">
        <ele>1424.6</ele>
        <time>2023-11-19T12:57:47Z</time>
      </trkpt>
      <trkpt lat="43.01647" lon="0.22444">
        <ele>1424.7</ele>
        <time>2023-11-19T12:57:48Z</time>
      </trkpt>
      <trkpt lat="43.01647" lon="0.22443">
        <ele>1424.8</ele>
        <time>2023-11-19T12:57:49Z</time>
      </trkpt>
      <trkpt lat="43.01648" lon="0.22443">
        <ele>1425.1</ele>
        <time>2023-11-19T12:57:50Z</time>
      </trkpt>
      <trkpt lat="43.01649" lon="0.22443">
        <ele>1425.3</ele>
        <time>2023-11-19T12:57:51Z</time>
      </trkpt>
      <trkpt lat="43.01649" lon="0.22443">
        <ele>1425.6</ele>
        <time>2023-11-19T12:57:52Z</time>
      </trkpt>
      <trkpt lat="43.0165" lon="0.22443">
        <ele>1425.7</ele>
        <time>2023-11-19T12:57:53Z</time>
      </trkpt>
      <trkpt lat="43.01651" lon="0.22443">
        <ele>1426</ele>
        <time>2023-11-19T12:57:54Z</time>
      </trkpt>
      <trkpt lat="43.01652" lon="0.22442">
        <ele>1426.3</ele>
        <time>2023-11-19T12:57:55Z</time>
      </trkpt>
      <trkpt lat="43.01652" lon="0.22443">
        <ele>1426.5</ele>
        <time>2023-11-19T12:57:56Z</time>
      </trkpt>
      <trkpt lat="43.01653" lon="0.22444">
        <ele>1426.6</ele>
        <time>2023-11-19T12:57:57Z</time>
      </trkpt>
      <trkpt lat="43.01653" lon="0.22444">
        <ele>1427</ele>
        <time>2023-11-19T12:57:58Z</time>
      </trkpt>
      <trkpt lat="43.01654" lon="0.22445">
        <ele>1427.1</ele>
        <time>2023-11-19T12:57:59Z</time>
      </trkpt>
      <trkpt lat="43.01654" lon="0.22445">
        <ele>1427.4</ele>
        <time>2023-11-19T12:58:00Z</time>
      </trkpt>
      <trkpt lat="43.01655" lon="0.22443">
        <ele>1427.7</ele>
        <time>2023-11-19T12:58:01Z</time>
      </trkpt>
      <trkpt lat="43.01656" lon="0.22443">
        <ele>1427.9</ele>
        <time>2023-11-19T12:58:02Z</time>
      </trkpt>
      <trkpt lat="43.01656" lon="0.22443">
        <ele>1428.2</ele>
        <time>2023-11-19T12:58:03Z</time>
      </trkpt>
      <trkpt lat="43.01657" lon="0.22443">
        <ele>1428.5</ele>
        <time>2023-11-19T12:58:04Z</time>
      </trkpt>
      <trkpt lat="43.01658" lon="0.22444">
        <ele>1428.7</ele>
        <time>2023-11-19T12:58:05Z</time>
      </trkpt>
      <trkpt lat="43.01658" lon="0.22444">
        <ele>1428.8</ele>
        <time>2023-11-19T12:58:06Z</time>
      </trkpt>
      <trkpt lat="43.01659" lon="0.22444">
        <ele>1429.2</ele>
        <time>2023-11-19T12:58:07Z</time>
      </trkpt>
      <trkpt lat="43.01659" lon="0.22445">
        <ele>1429.4</ele>
        <time>2023-11-19T12:58:08Z</time>
      </trkpt>
      <trkpt lat="43.0166" lon="0.22444">
        <ele>1429.7</ele>
        <time>2023-11-19T12:58:09Z</time>
      </trkpt>
      <trkpt lat="43.01661" lon="0.22444">
        <ele>1429.9</ele>
        <time>2023-11-19T12:58:10Z</time>
      </trkpt>
      <trkpt lat="43.01662" lon="0.22444">
        <ele>1430.1</ele>
        <time>2023-11-19T12:58:11Z</time>
      </trkpt>
      <trkpt lat="43.01662" lon="0.22444">
        <ele>1430.3</ele>
        <time>2023-11-19T12:58:12Z</time>
      </trkpt>
      <trkpt lat="43.01663" lon="0.22443">
        <ele>1430.6</ele>
        <time>2023-11-19T12:58:13Z</time>
      </trkpt>
      <trkpt lat="43.01663" lon="0.22443">
        <ele>1430.7</ele>
        <time>2023-11-19T12:58:14Z</time>
      </trkpt>
      <trkpt lat="43.01664" lon="0.22441">
        <ele>1431.1</ele>
        <time>2023-11-19T12:58:15Z</time>
      </trkpt>
      <trkpt lat="43.01664" lon="0.2244">
        <ele>1431.3</ele>
        <time>2023-11-19T12:58:16Z</time>
      </trkpt>
      <trkpt lat="43.01664" lon="0.2244">
        <ele>1431.4</ele>
        <time>2023-11-19T12:58:17Z</time>
      </trkpt>
      <trkpt lat="43.01664" lon="0.22441">
        <ele>1431.5</ele>
        <time>2023-11-19T12:58:18Z</time>
      </trkpt>
      <trkpt lat="43.01665" lon="0.22442">
        <ele>1431.9</ele>
        <time>2023-11-19T12:58:19Z</time>
      </trkpt>
      <trkpt lat="43.01665" lon="0.22442">
        <ele>1432.1</ele>
        <time>2023-11-19T12:58:20Z</time>
      </trkpt>
      <trkpt lat="43.01665" lon="0.22443">
        <ele>1432.3</ele>
        <time>2023-11-19T12:58:21Z</time>
      </trkpt>
      <trkpt lat="43.01666" lon="0.22443">
        <ele>1432.5</ele>
        <time>2023-11-19T12:58:22Z</time>
      </trkpt>
      <trkpt lat="43.01666" lon="0.22443">
        <ele>1432.6</ele>
        <time>2023-11-19T12:58:23Z</time>
      </trkpt>
      <trkpt lat="43.01667" lon="0.22443">
        <ele>1432.8</ele>
        <time>2023-11-19T12:58:24Z</time>
      </trkpt>
      <trkpt lat="43.01667" lon="0.22443">
        <ele>1432.9</ele>
        <time>2023-11-19T12:58:25Z</time>
      </trkpt>
      <trkpt lat="43.01667" lon="0.22443">
        <ele>1433</ele>
        <time>2023-11-19T12:58:26Z</time>
      </trkpt>
      <trkpt lat="43.01667" lon="0.22444">
        <ele>1433.2</ele>
        <time>2023-11-19T12:58:27Z</time>
      </trkpt>
      <trkpt lat="43.01667" lon="0.22443">
        <ele>1433.3</ele>
        <time>2023-11-19T12:58:28Z</time>
      </trkpt>
      <trkpt lat="43.01667" lon="0.22444">
        <ele>1433.4</ele>
        <time>2023-11-19T12:58:29Z</time>
      </trkpt>
      <trkpt lat="43.01667" lon="0.22444">
        <ele>1433.4</ele>
        <time>2023-11-19T12:58:30Z</time>
      </trkpt>
      <trkpt lat="43.01667" lon="0.22444">
        <ele>1433.6</ele>
        <time>2023-11-19T12:58:31Z</time>
      </trkpt>
      <trkpt lat="43.01667" lon="0.22444">
        <ele>1433.7</ele>
        <time>2023-11-19T12:58:32Z</time>
      </trkpt>
      <trkpt lat="43.01667" lon="0.22444">
        <ele>1433.7</ele>
        <time>2023-11-19T12:58:33Z</time>
      </trkpt>
      <trkpt lat="43.01668" lon="0.22444">
        <ele>1433.8</ele>
        <time>2023-11-19T12:58:34Z</time>
      </trkpt>
      <trkpt lat="43.01668" lon="0.22444">
        <ele>1434</ele>
        <time>2023-11-19T12:58:35Z</time>
      </trkpt>
      <trkpt lat="43.01668" lon="0.22444">
        <ele>1434</ele>
        <time>2023-11-19T12:58:36Z</time>
      </trkpt>
      <trkpt lat="43.01668" lon="0.22444">
        <ele>1434.2</ele>
        <time>2023-11-19T12:58:37Z</time>
      </trkpt>
      <trkpt lat="43.01668" lon="0.22444">
        <ele>1434.2</ele>
        <time>2023-11-19T12:58:38Z</time>
      </trkpt>
      <trkpt lat="43.01668" lon="0.22444">
        <ele>1434.4</ele>
        <time>2023-11-19T12:58:39Z</time>
      </trkpt>
      <trkpt lat="43.01669" lon="0.22444">
        <ele>1434.5</ele>
        <time>2023-11-19T12:58:40Z</time>
      </trkpt>
      <trkpt lat="43.01669" lon="0.22444">
        <ele>1434.6</ele>
        <time>2023-11-19T12:58:41Z</time>
      </trkpt>
      <trkpt lat="43.01669" lon="0.22444">
        <ele>1434.7</ele>
        <time>2023-11-19T12:58:42Z</time>
      </trkpt>
      <trkpt lat="43.0167" lon="0.22445">
        <ele>1434.9</ele>
        <time>2023-11-19T12:58:43Z</time>
      </trkpt>
      <trkpt lat="43.0167" lon="0.22445">
        <ele>1435.2</ele>
        <time>2023-11-19T12:58:44Z</time>
      </trkpt>
      <trkpt lat="43.01671" lon="0.22446">
        <ele>1435.5</ele>
        <time>2023-11-19T12:58:45Z</time>
      </trkpt>
      <trkpt lat="43.01671" lon="0.22446">
        <ele>1435.6</ele>
        <time>2023-11-19T12:58:46Z</time>
      </trkpt>
      <trkpt lat="43.01672" lon="0.22446">
        <ele>1435.8</ele>
        <time>2023-11-19T12:58:47Z</time>
      </trkpt>
      <trkpt lat="43.01673" lon="0.22446">
        <ele>1436</ele>
        <time>2023-11-19T12:58:48Z</time>
      </trkpt>
      <trkpt lat="43.01673" lon="0.22446">
        <ele>1436.3</ele>
        <time>2023-11-19T12:58:49Z</time>
      </trkpt>
      <trkpt lat="43.01674" lon="0.22447">
        <ele>1436.4</ele>
        <time>2023-11-19T12:58:50Z</time>
      </trkpt>
      <trkpt lat="43.01674" lon="0.22448">
        <ele>1436.6</ele>
        <time>2023-11-19T12:58:51Z</time>
      </trkpt>
      <trkpt lat="43.01674" lon="0.22447">
        <ele>1436.8</ele>
        <time>2023-11-19T12:58:52Z</time>
      </trkpt>
      <trkpt lat="43.01674" lon="0.22449">
        <ele>1437.1</ele>
        <time>2023-11-19T12:58:53Z</time>
      </trkpt>
      <trkpt lat="43.01674" lon="0.22449">
        <ele>1437.1</ele>
        <time>2023-11-19T12:58:54Z</time>
      </trkpt>
      <trkpt lat="43.01674" lon="0.22449">
        <ele>1437.3</ele>
        <time>2023-11-19T12:58:55Z</time>
      </trkpt>
      <trkpt lat="43.01674" lon="0.22449">
        <ele>1437.4</ele>
        <time>2023-11-19T12:58:56Z</time>
      </trkpt>
      <trkpt lat="43.01675" lon="0.2245">
        <ele>1437.6</ele>
        <time>2023-11-19T12:58:57Z</time>
      </trkpt>
      <trkpt lat="43.01676" lon="0.2245">
        <ele>1437.8</ele>
        <time>2023-11-19T12:58:58Z</time>
      </trkpt>
      <trkpt lat="43.01676" lon="0.2245">
        <ele>1437.9</ele>
        <time>2023-11-19T12:58:59Z</time>
      </trkpt>
      <trkpt lat="43.01676" lon="0.2245">
        <ele>1438</ele>
        <time>2023-11-19T12:59:00Z</time>
      </trkpt>
      <trkpt lat="43.01676" lon="0.2245">
        <ele>1438.2</ele>
        <time>2023-11-19T12:59:01Z</time>
      </trkpt>
      <trkpt lat="43.01676" lon="0.2245">
        <ele>1438.2</ele>
        <time>2023-11-19T12:59:02Z</time>
      </trkpt>
      <trkpt lat="43.01676" lon="0.2245">
        <ele>1438.2</ele>
        <time>2023-11-19T12:59:03Z</time>
      </trkpt>
      <trkpt lat="43.01676" lon="0.22451">
        <ele>1438.4</ele>
        <time>2023-11-19T12:59:04Z</time>
      </trkpt>
      <trkpt lat="43.01676" lon="0.22451">
        <ele>1438.5</ele>
        <time>2023-11-19T12:59:05Z</time>
      </trkpt>
      <trkpt lat="43.01676" lon="0.22452">
        <ele>1438.7</ele>
        <time>2023-11-19T12:59:06Z</time>
      </trkpt>
      <trkpt lat="43.01676" lon="0.22452">
        <ele>1438.8</ele>
        <time>2023-11-19T12:59:07Z</time>
      </trkpt>
      <trkpt lat="43.01677" lon="0.22451">
        <ele>1439</ele>
        <time>2023-11-19T12:59:08Z</time>
      </trkpt>
      <trkpt lat="43.01676" lon="0.22452">
        <ele>1439.3</ele>
        <time>2023-11-19T12:59:09Z</time>
      </trkpt>
      <trkpt lat="43.01676" lon="0.22454">
        <ele>1439.7</ele>
        <time>2023-11-19T12:59:10Z</time>
      </trkpt>
      <trkpt lat="43.01676" lon="0.22454">
        <ele>1439.9</ele>
        <time>2023-11-19T12:59:11Z</time>
      </trkpt>
      <trkpt lat="43.01676" lon="0.22455">
        <ele>1440</ele>
        <time>2023-11-19T12:59:12Z</time>
      </trkpt>
      <trkpt lat="43.01675" lon="0.22455">
        <ele>1440.2</ele>
        <time>2023-11-19T12:59:13Z</time>
      </trkpt>
      <trkpt lat="43.01675" lon="0.22456">
        <ele>1440.5</ele>
        <time>2023-11-19T12:59:14Z</time>
      </trkpt>
      <trkpt lat="43.01675" lon="0.22457">
        <ele>1440.7</ele>
        <time>2023-11-19T12:59:15Z</time>
      </trkpt>
      <trkpt lat="43.01676" lon="0.22458">
        <ele>1440.8</ele>
        <time>2023-11-19T12:59:16Z</time>
      </trkpt>
      <trkpt lat="43.01676" lon="0.22459">
        <ele>1440.9</ele>
        <time>2023-11-19T12:59:17Z</time>
      </trkpt>
      <trkpt lat="43.01675" lon="0.2246">
        <ele>1441.1</ele>
        <time>2023-11-19T12:59:18Z</time>
      </trkpt>
      <trkpt lat="43.01675" lon="0.22461">
        <ele>1441.3</ele>
        <time>2023-11-19T12:59:19Z</time>
      </trkpt>
      <trkpt lat="43.01675" lon="0.22461">
        <ele>1441.4</ele>
        <time>2023-11-19T12:59:20Z</time>
      </trkpt>
      <trkpt lat="43.01675" lon="0.22461">
        <ele>1441.4</ele>
        <time>2023-11-19T12:59:21Z</time>
      </trkpt>
      <trkpt lat="43.01675" lon="0.22461">
        <ele>1441.5</ele>
        <time>2023-11-19T12:59:22Z</time>
      </trkpt>
      <trkpt lat="43.01675" lon="0.22461">
        <ele>1441.6</ele>
        <time>2023-11-19T12:59:23Z</time>
      </trkpt>
      <trkpt lat="43.01675" lon="0.22461">
        <ele>1441.6</ele>
        <time>2023-11-19T12:59:24Z</time>
      </trkpt>
      <trkpt lat="43.01675" lon="0.22461">
        <ele>1441.6</ele>
        <time>2023-11-19T12:59:25Z</time>
      </trkpt>
      <trkpt lat="43.01675" lon="0.22461">
        <ele>1441.6</ele>
        <time>2023-11-19T12:59:26Z</time>
      </trkpt>
      <trkpt lat="43.01676" lon="0.22462">
        <ele>1441.8</ele>
        <time>2023-11-19T12:59:27Z</time>
      </trkpt>
      <trkpt lat="43.01675" lon="0.22463">
        <ele>1442</ele>
        <time>2023-11-19T12:59:28Z</time>
      </trkpt>
      <trkpt lat="43.01676" lon="0.22464">
        <ele>1442.2</ele>
        <time>2023-11-19T12:59:29Z</time>
      </trkpt>
      <trkpt lat="43.01676" lon="0.22464">
        <ele>1442.2</ele>
        <time>2023-11-19T12:59:30Z</time>
      </trkpt>
      <trkpt lat="43.01676" lon="0.22465">
        <ele>1442.4</ele>
        <time>2023-11-19T12:59:31Z</time>
      </trkpt>
      <trkpt lat="43.01677" lon="0.22466">
        <ele>1442.6</ele>
        <time>2023-11-19T12:59:32Z</time>
      </trkpt>
      <trkpt lat="43.01677" lon="0.22467">
        <ele>1442.7</ele>
        <time>2023-11-19T12:59:33Z</time>
      </trkpt>
      <trkpt lat="43.01677" lon="0.22467">
        <ele>1442.9</ele>
        <time>2023-11-19T12:59:34Z</time>
      </trkpt>
      <trkpt lat="43.01677" lon="0.22468">
        <ele>1443</ele>
        <time>2023-11-19T12:59:35Z</time>
      </trkpt>
      <trkpt lat="43.01677" lon="0.22468">
        <ele>1443.1</ele>
        <time>2023-11-19T12:59:36Z</time>
      </trkpt>
      <trkpt lat="43.01676" lon="0.22469">
        <ele>1443.3</ele>
        <time>2023-11-19T12:59:37Z</time>
      </trkpt>
      <trkpt lat="43.01676" lon="0.2247">
        <ele>1443.4</ele>
        <time>2023-11-19T12:59:38Z</time>
      </trkpt>
      <trkpt lat="43.01676" lon="0.2247">
        <ele>1443.5</ele>
        <time>2023-11-19T12:59:39Z</time>
      </trkpt>
      <trkpt lat="43.01676" lon="0.22471">
        <ele>1443.7</ele>
        <time>2023-11-19T12:59:40Z</time>
      </trkpt>
      <trkpt lat="43.01675" lon="0.22472">
        <ele>1443.9</ele>
        <time>2023-11-19T12:59:41Z</time>
      </trkpt>
      <trkpt lat="43.01675" lon="0.22473">
        <ele>1444.1</ele>
        <time>2023-11-19T12:59:42Z</time>
      </trkpt>
      <trkpt lat="43.01674" lon="0.22473">
        <ele>1444.2</ele>
        <time>2023-11-19T12:59:43Z</time>
      </trkpt>
      <trkpt lat="43.01673" lon="0.22475">
        <ele>1444.6</ele>
        <time>2023-11-19T12:59:44Z</time>
      </trkpt>
      <trkpt lat="43.01673" lon="0.22475">
        <ele>1444.8</ele>
        <time>2023-11-19T12:59:45Z</time>
      </trkpt>
      <trkpt lat="43.01673" lon="0.22476">
        <ele>1444.9</ele>
        <time>2023-11-19T12:59:46Z</time>
      </trkpt>
      <trkpt lat="43.01673" lon="0.22477">
        <ele>1445.1</ele>
        <time>2023-11-19T12:59:47Z</time>
      </trkpt>
      <trkpt lat="43.01673" lon="0.22477">
        <ele>1445.2</ele>
        <time>2023-11-19T12:59:48Z</time>
      </trkpt>
      <trkpt lat="43.01673" lon="0.22477">
        <ele>1445.2</ele>
        <time>2023-11-19T12:59:49Z</time>
      </trkpt>
      <trkpt lat="43.01673" lon="0.22477">
        <ele>1445.2</ele>
        <time>2023-11-19T12:59:50Z</time>
      </trkpt>
      <trkpt lat="43.01673" lon="0.22477">
        <ele>1445.2</ele>
        <time>2023-11-19T12:59:51Z</time>
      </trkpt>
      <trkpt lat="43.01673" lon="0.22477">
        <ele>1445.3</ele>
        <time>2023-11-19T12:59:52Z</time>
      </trkpt>
      <trkpt lat="43.01673" lon="0.22479">
        <ele>1445.6</ele>
        <time>2023-11-19T12:59:53Z</time>
      </trkpt>
      <trkpt lat="43.01674" lon="0.2248">
        <ele>1445.9</ele>
        <time>2023-11-19T12:59:54Z</time>
      </trkpt>
      <trkpt lat="43.01674" lon="0.22481">
        <ele>1446</ele>
        <time>2023-11-19T12:59:55Z</time>
      </trkpt>
      <trkpt lat="43.01674" lon="0.22482">
        <ele>1446.2</ele>
        <time>2023-11-19T12:59:56Z</time>
      </trkpt>
      <trkpt lat="43.01674" lon="0.22483">
        <ele>1446.4</ele>
        <time>2023-11-19T12:59:57Z</time>
      </trkpt>
      <trkpt lat="43.01674" lon="0.22484">
        <ele>1446.6</ele>
        <time>2023-11-19T12:59:58Z</time>
      </trkpt>
      <trkpt lat="43.01674" lon="0.22484">
        <ele>1446.6</ele>
        <time>2023-11-19T12:59:59Z</time>
      </trkpt>
      <trkpt lat="43.01674" lon="0.22484">
        <ele>1446.7</ele>
        <time>2023-11-19T13:00:00Z</time>
      </trkpt>
      <trkpt lat="43.01673" lon="0.22486">
        <ele>1446.9</ele>
        <time>2023-11-19T13:00:01Z</time>
      </trkpt>
      <trkpt lat="43.01674" lon="0.22486">
        <ele>1447.1</ele>
        <time>2023-11-19T13:00:02Z</time>
      </trkpt>
      <trkpt lat="43.01673" lon="0.22487">
        <ele>1447.2</ele>
        <time>2023-11-19T13:00:03Z</time>
      </trkpt>
      <trkpt lat="43.01673" lon="0.22488">
        <ele>1447.3</ele>
        <time>2023-11-19T13:00:04Z</time>
      </trkpt>
      <trkpt lat="43.01673" lon="0.22489">
        <ele>1447.5</ele>
        <time>2023-11-19T13:00:05Z</time>
      </trkpt>
      <trkpt lat="43.01673" lon="0.2249">
        <ele>1447.7</ele>
        <time>2023-11-19T13:00:06Z</time>
      </trkpt>
      <trkpt lat="43.01673" lon="0.22491">
        <ele>1447.9</ele>
        <time>2023-11-19T13:00:07Z</time>
      </trkpt>
      <trkpt lat="43.01673" lon="0.22491">
        <ele>1447.9</ele>
        <time>2023-11-19T13:00:08Z</time>
      </trkpt>
      <trkpt lat="43.01673" lon="0.22492">
        <ele>1448.2</ele>
        <time>2023-11-19T13:00:09Z</time>
      </trkpt>
      <trkpt lat="43.01673" lon="0.22493">
        <ele>1448.3</ele>
        <time>2023-11-19T13:00:10Z</time>
      </trkpt>
      <trkpt lat="43.01673" lon="0.22494">
        <ele>1448.4</ele>
        <time>2023-11-19T13:00:11Z</time>
      </trkpt>
      <trkpt lat="43.01672" lon="0.22494">
        <ele>1448.5</ele>
        <time>2023-11-19T13:00:12Z</time>
      </trkpt>
      <trkpt lat="43.01672" lon="0.22495">
        <ele>1448.8</ele>
        <time>2023-11-19T13:00:13Z</time>
      </trkpt>
      <trkpt lat="43.01672" lon="0.22496">
        <ele>1448.9</ele>
        <time>2023-11-19T13:00:14Z</time>
      </trkpt>
      <trkpt lat="43.01672" lon="0.22497">
        <ele>1449.1</ele>
        <time>2023-11-19T13:00:15Z</time>
      </trkpt>
      <trkpt lat="43.01672" lon="0.22498">
        <ele>1449.2</ele>
        <time>2023-11-19T13:00:16Z</time>
      </trkpt>
      <trkpt lat="43.01672" lon="0.22499">
        <ele>1449.4</ele>
        <time>2023-11-19T13:00:17Z</time>
      </trkpt>
      <trkpt lat="43.01671" lon="0.22499">
        <ele>1449.5</ele>
        <time>2023-11-19T13:00:18Z</time>
      </trkpt>
      <trkpt lat="43.01671" lon="0.225">
        <ele>1449.7</ele>
        <time>2023-11-19T13:00:19Z</time>
      </trkpt>
      <trkpt lat="43.01671" lon="0.22501">
        <ele>1449.8</ele>
        <time>2023-11-19T13:00:20Z</time>
      </trkpt>
      <trkpt lat="43.01671" lon="0.22502">
        <ele>1450</ele>
        <time>2023-11-19T13:00:21Z</time>
      </trkpt>
      <trkpt lat="43.01671" lon="0.22502">
        <ele>1450.1</ele>
        <time>2023-11-19T13:00:22Z</time>
      </trkpt>
      <trkpt lat="43.01672" lon="0.22503">
        <ele>1450.3</ele>
        <time>2023-11-19T13:00:23Z</time>
      </trkpt>
      <trkpt lat="43.01672" lon="0.22504">
        <ele>1450.4</ele>
        <time>2023-11-19T13:00:24Z</time>
      </trkpt>
      <trkpt lat="43.01672" lon="0.22505">
        <ele>1450.6</ele>
        <time>2023-11-19T13:00:25Z</time>
      </trkpt>
      <trkpt lat="43.01671" lon="0.22506">
        <ele>1450.7</ele>
        <time>2023-11-19T13:00:26Z</time>
      </trkpt>
      <trkpt lat="43.01671" lon="0.22506">
        <ele>1450.9</ele>
        <time>2023-11-19T13:00:27Z</time>
      </trkpt>
      <trkpt lat="43.0167" lon="0.22507">
        <ele>1451</ele>
        <time>2023-11-19T13:00:28Z</time>
      </trkpt>
      <trkpt lat="43.0167" lon="0.22507">
        <ele>1451.1</ele>
        <time>2023-11-19T13:00:29Z</time>
      </trkpt>
      <trkpt lat="43.0167" lon="0.22508">
        <ele>1451.3</ele>
        <time>2023-11-19T13:00:30Z</time>
      </trkpt>
      <trkpt lat="43.01669" lon="0.22508">
        <ele>1451.3</ele>
        <time>2023-11-19T13:00:31Z</time>
      </trkpt>
      <trkpt lat="43.0167" lon="0.22509">
        <ele>1451.5</ele>
        <time>2023-11-19T13:00:32Z</time>
      </trkpt>
      <trkpt lat="43.0167" lon="0.2251">
        <ele>1451.7</ele>
        <time>2023-11-19T13:00:33Z</time>
      </trkpt>
      <trkpt lat="43.01669" lon="0.22511">
        <ele>1451.9</ele>
        <time>2023-11-19T13:00:34Z</time>
      </trkpt>
      <trkpt lat="43.01669" lon="0.22512">
        <ele>1452</ele>
        <time>2023-11-19T13:00:35Z</time>
      </trkpt>
      <trkpt lat="43.01669" lon="0.22512">
        <ele>1452.1</ele>
        <time>2023-11-19T13:00:36Z</time>
      </trkpt>
      <trkpt lat="43.01668" lon="0.22513">
        <ele>1452.3</ele>
        <time>2023-11-19T13:00:37Z</time>
      </trkpt>
      <trkpt lat="43.01668" lon="0.22514">
        <ele>1452.5</ele>
        <time>2023-11-19T13:00:38Z</time>
      </trkpt>
      <trkpt lat="43.01668" lon="0.22515">
        <ele>1452.7</ele>
        <time>2023-11-19T13:00:39Z</time>
      </trkpt>
      <trkpt lat="43.01668" lon="0.22516">
        <ele>1452.8</ele>
        <time>2023-11-19T13:00:40Z</time>
      </trkpt>
      <trkpt lat="43.01668" lon="0.22516">
        <ele>1452.9</ele>
        <time>2023-11-19T13:00:41Z</time>
      </trkpt>
      <trkpt lat="43.01667" lon="0.22516">
        <ele>1453</ele>
        <time>2023-11-19T13:00:42Z</time>
      </trkpt>
      <trkpt lat="43.01667" lon="0.22518">
        <ele>1453.2</ele>
        <time>2023-11-19T13:00:43Z</time>
      </trkpt>
      <trkpt lat="43.01667" lon="0.22519">
        <ele>1453.4</ele>
        <time>2023-11-19T13:00:44Z</time>
      </trkpt>
      <trkpt lat="43.01667" lon="0.22519">
        <ele>1453.5</ele>
        <time>2023-11-19T13:00:45Z</time>
      </trkpt>
      <trkpt lat="43.01668" lon="0.2252">
        <ele>1453.8</ele>
        <time>2023-11-19T13:00:46Z</time>
      </trkpt>
      <trkpt lat="43.01668" lon="0.22521">
        <ele>1454</ele>
        <time>2023-11-19T13:00:47Z</time>
      </trkpt>
      <trkpt lat="43.01669" lon="0.22522">
        <ele>1454.2</ele>
        <time>2023-11-19T13:00:48Z</time>
      </trkpt>
      <trkpt lat="43.01669" lon="0.22523">
        <ele>1454.3</ele>
        <time>2023-11-19T13:00:49Z</time>
      </trkpt>
      <trkpt lat="43.01668" lon="0.22523">
        <ele>1454.4</ele>
        <time>2023-11-19T13:00:50Z</time>
      </trkpt>
      <trkpt lat="43.01668" lon="0.22525">
        <ele>1454.7</ele>
        <time>2023-11-19T13:00:51Z</time>
      </trkpt>
      <trkpt lat="43.01667" lon="0.22525">
        <ele>1454.8</ele>
        <time>2023-11-19T13:00:52Z</time>
      </trkpt>
      <trkpt lat="43.01667" lon="0.22526">
        <ele>1455</ele>
        <time>2023-11-19T13:00:53Z</time>
      </trkpt>
      <trkpt lat="43.01667" lon="0.22527">
        <ele>1455.1</ele>
        <time>2023-11-19T13:00:54Z</time>
      </trkpt>
      <trkpt lat="43.01667" lon="0.22526">
        <ele>1455.2</ele>
        <time>2023-11-19T13:00:55Z</time>
      </trkpt>
      <trkpt lat="43.01667" lon="0.22526">
        <ele>1455.2</ele>
        <time>2023-11-19T13:00:56Z</time>
      </trkpt>
      <trkpt lat="43.01667" lon="0.22526">
        <ele>1455.2</ele>
        <time>2023-11-19T13:00:57Z</time>
      </trkpt>
      <trkpt lat="43.01667" lon="0.22526">
        <ele>1455.3</ele>
        <time>2023-11-19T13:00:58Z</time>
      </trkpt>
      <trkpt lat="43.01667" lon="0.22526">
        <ele>1455.3</ele>
        <time>2023-11-19T13:00:59Z</time>
      </trkpt>
      <trkpt lat="43.01667" lon="0.22526">
        <ele>1455.3</ele>
        <time>2023-11-19T13:01:00Z</time>
      </trkpt>
      <trkpt lat="43.01667" lon="0.22527">
        <ele>1455.4</ele>
        <time>2023-11-19T13:01:01Z</time>
      </trkpt>
      <trkpt lat="43.01666" lon="0.22527">
        <ele>1455.7</ele>
        <time>2023-11-19T13:01:02Z</time>
      </trkpt>
      <trkpt lat="43.01666" lon="0.22528">
        <ele>1455.9</ele>
        <time>2023-11-19T13:01:03Z</time>
      </trkpt>
      <trkpt lat="43.01665" lon="0.22529">
        <ele>1456.1</ele>
        <time>2023-11-19T13:01:04Z</time>
      </trkpt>
      <trkpt lat="43.01665" lon="0.2253">
        <ele>1456.3</ele>
        <time>2023-11-19T13:01:05Z</time>
      </trkpt>
      <trkpt lat="43.01664" lon="0.22531">
        <ele>1456.5</ele>
        <time>2023-11-19T13:01:06Z</time>
      </trkpt>
      <trkpt lat="43.01664" lon="0.22532">
        <ele>1456.7</ele>
        <time>2023-11-19T13:01:07Z</time>
      </trkpt>
      <trkpt lat="43.01664" lon="0.22533">
        <ele>1456.9</ele>
        <time>2023-11-19T13:01:08Z</time>
      </trkpt>
      <trkpt lat="43.01664" lon="0.22534">
        <ele>1457.1</ele>
        <time>2023-11-19T13:01:09Z</time>
      </trkpt>
      <trkpt lat="43.01663" lon="0.22535">
        <ele>1457.3</ele>
        <time>2023-11-19T13:01:10Z</time>
      </trkpt>
      <trkpt lat="43.01663" lon="0.22535">
        <ele>1457.5</ele>
        <time>2023-11-19T13:01:11Z</time>
      </trkpt>
      <trkpt lat="43.01663" lon="0.22537">
        <ele>1457.7</ele>
        <time>2023-11-19T13:01:12Z</time>
      </trkpt>
      <trkpt lat="43.01662" lon="0.22538">
        <ele>1458</ele>
        <time>2023-11-19T13:01:13Z</time>
      </trkpt>
      <trkpt lat="43.01662" lon="0.22539">
        <ele>1458.3</ele>
        <time>2023-11-19T13:01:14Z</time>
      </trkpt>
      <trkpt lat="43.01662" lon="0.22539">
        <ele>1458.4</ele>
        <time>2023-11-19T13:01:15Z</time>
      </trkpt>
      <trkpt lat="43.01661" lon="0.2254">
        <ele>1458.6</ele>
        <time>2023-11-19T13:01:16Z</time>
      </trkpt>
      <trkpt lat="43.01661" lon="0.22541">
        <ele>1458.9</ele>
        <time>2023-11-19T13:01:17Z</time>
      </trkpt>
      <trkpt lat="43.01661" lon="0.22542">
        <ele>1459.1</ele>
        <time>2023-11-19T13:01:18Z</time>
      </trkpt>
      <trkpt lat="43.01661" lon="0.22543">
        <ele>1459.3</ele>
        <time>2023-11-19T13:01:19Z</time>
      </trkpt>
      <trkpt lat="43.01661" lon="0.22543">
        <ele>1459.4</ele>
        <time>2023-11-19T13:01:20Z</time>
      </trkpt>
      <trkpt lat="43.01661" lon="0.22544">
        <ele>1459.6</ele>
        <time>2023-11-19T13:01:21Z</time>
      </trkpt>
      <trkpt lat="43.01661" lon="0.22545">
        <ele>1459.8</ele>
        <time>2023-11-19T13:01:22Z</time>
      </trkpt>
      <trkpt lat="43.0166" lon="0.22546">
        <ele>1460</ele>
        <time>2023-11-19T13:01:23Z</time>
      </trkpt>
      <trkpt lat="43.01661" lon="0.22547">
        <ele>1460.2</ele>
        <time>2023-11-19T13:01:24Z</time>
      </trkpt>
      <trkpt lat="43.0166" lon="0.22546">
        <ele>1460.3</ele>
        <time>2023-11-19T13:01:25Z</time>
      </trkpt>
      <trkpt lat="43.01661" lon="0.22546">
        <ele>1460.3</ele>
        <time>2023-11-19T13:01:26Z</time>
      </trkpt>
      <trkpt lat="43.01661" lon="0.22546">
        <ele>1460.3</ele>
        <time>2023-11-19T13:01:27Z</time>
      </trkpt>
      <trkpt lat="43.01661" lon="0.22547">
        <ele>1460.4</ele>
        <time>2023-11-19T13:01:28Z</time>
      </trkpt>
      <trkpt lat="43.0166" lon="0.22549">
        <ele>1460.8</ele>
        <time>2023-11-19T13:01:29Z</time>
      </trkpt>
      <trkpt lat="43.0166" lon="0.22549">
        <ele>1460.9</ele>
        <time>2023-11-19T13:01:30Z</time>
      </trkpt>
      <trkpt lat="43.0166" lon="0.2255">
        <ele>1461.1</ele>
        <time>2023-11-19T13:01:31Z</time>
      </trkpt>
      <trkpt lat="43.01659" lon="0.22551">
        <ele>1461.3</ele>
        <time>2023-11-19T13:01:32Z</time>
      </trkpt>
      <trkpt lat="43.01659" lon="0.22551">
        <ele>1461.4</ele>
        <time>2023-11-19T13:01:33Z</time>
      </trkpt>
      <trkpt lat="43.01659" lon="0.22552">
        <ele>1461.6</ele>
        <time>2023-11-19T13:01:34Z</time>
      </trkpt>
      <trkpt lat="43.01659" lon="0.22553">
        <ele>1461.8</ele>
        <time>2023-11-19T13:01:35Z</time>
      </trkpt>
      <trkpt lat="43.01658" lon="0.22554">
        <ele>1462</ele>
        <time>2023-11-19T13:01:36Z</time>
      </trkpt>
      <trkpt lat="43.01658" lon="0.22554">
        <ele>1462.2</ele>
        <time>2023-11-19T13:01:37Z</time>
      </trkpt>
      <trkpt lat="43.01657" lon="0.22555">
        <ele>1462.4</ele>
        <time>2023-11-19T13:01:38Z</time>
      </trkpt>
      <trkpt lat="43.01657" lon="0.22555">
        <ele>1462.6</ele>
        <time>2023-11-19T13:01:39Z</time>
      </trkpt>
      <trkpt lat="43.01656" lon="0.22557">
        <ele>1463</ele>
        <time>2023-11-19T13:01:40Z</time>
      </trkpt>
      <trkpt lat="43.01656" lon="0.22558">
        <ele>1463.2</ele>
        <time>2023-11-19T13:01:41Z</time>
      </trkpt>
      <trkpt lat="43.01655" lon="0.22559">
        <ele>1463.5</ele>
        <time>2023-11-19T13:01:42Z</time>
      </trkpt>
      <trkpt lat="43.01655" lon="0.2256">
        <ele>1463.8</ele>
        <time>2023-11-19T13:01:43Z</time>
      </trkpt>
      <trkpt lat="43.01656" lon="0.22559">
        <ele>1464.3</ele>
        <time>2023-11-19T13:01:44Z</time>
      </trkpt>
      <trkpt lat="43.01657" lon="0.2256">
        <ele>1464.6</ele>
        <time>2023-11-19T13:01:45Z</time>
      </trkpt>
      <trkpt lat="43.01657" lon="0.2256">
        <ele>1464.8</ele>
        <time>2023-11-19T13:01:46Z</time>
      </trkpt>
      <trkpt lat="43.01657" lon="0.22561">
        <ele>1464.9</ele>
        <time>2023-11-19T13:01:47Z</time>
      </trkpt>
      <trkpt lat="43.01657" lon="0.22562">
        <ele>1465.2</ele>
        <time>2023-11-19T13:01:48Z</time>
      </trkpt>
      <trkpt lat="43.01657" lon="0.22561">
        <ele>1465.5</ele>
        <time>2023-11-19T13:01:49Z</time>
      </trkpt>
      <trkpt lat="43.01656" lon="0.22564">
        <ele>1466.1</ele>
        <time>2023-11-19T13:01:50Z</time>
      </trkpt>
      <trkpt lat="43.01656" lon="0.22565">
        <ele>1466.2</ele>
        <time>2023-11-19T13:01:51Z</time>
      </trkpt>
      <trkpt lat="43.01656" lon="0.22565">
        <ele>1466.4</ele>
        <time>2023-11-19T13:01:52Z</time>
      </trkpt>
      <trkpt lat="43.01656" lon="0.22566">
        <ele>1466.6</ele>
        <time>2023-11-19T13:01:53Z</time>
      </trkpt>
      <trkpt lat="43.01656" lon="0.22566">
        <ele>1466.7</ele>
        <time>2023-11-19T13:01:54Z</time>
      </trkpt>
      <trkpt lat="43.01656" lon="0.22567">
        <ele>1466.9</ele>
        <time>2023-11-19T13:01:55Z</time>
      </trkpt>
      <trkpt lat="43.01656" lon="0.22568">
        <ele>1467</ele>
        <time>2023-11-19T13:01:56Z</time>
      </trkpt>
      <trkpt lat="43.01656" lon="0.22569">
        <ele>1467.2</ele>
        <time>2023-11-19T13:01:57Z</time>
      </trkpt>
      <trkpt lat="43.01655" lon="0.22569">
        <ele>1467.3</ele>
        <time>2023-11-19T13:01:58Z</time>
      </trkpt>
      <trkpt lat="43.01655" lon="0.2257">
        <ele>1467.5</ele>
        <time>2023-11-19T13:01:59Z</time>
      </trkpt>
      <trkpt lat="43.01655" lon="0.2257">
        <ele>1467.6</ele>
        <time>2023-11-19T13:02:00Z</time>
      </trkpt>
      <trkpt lat="43.01655" lon="0.22571">
        <ele>1467.8</ele>
        <time>2023-11-19T13:02:01Z</time>
      </trkpt>
      <trkpt lat="43.01655" lon="0.22572">
        <ele>1468</ele>
        <time>2023-11-19T13:02:02Z</time>
      </trkpt>
      <trkpt lat="43.01655" lon="0.22573">
        <ele>1468.2</ele>
        <time>2023-11-19T13:02:03Z</time>
      </trkpt>
      <trkpt lat="43.01655" lon="0.22574">
        <ele>1468.4</ele>
        <time>2023-11-19T13:02:04Z</time>
      </trkpt>
      <trkpt lat="43.01655" lon="0.22575">
        <ele>1468.6</ele>
        <time>2023-11-19T13:02:05Z</time>
      </trkpt>
      <trkpt lat="43.01655" lon="0.22575">
        <ele>1468.7</ele>
        <time>2023-11-19T13:02:06Z</time>
      </trkpt>
      <trkpt lat="43.01655" lon="0.22576">
        <ele>1468.9</ele>
        <time>2023-11-19T13:02:07Z</time>
      </trkpt>
      <trkpt lat="43.01655" lon="0.22577">
        <ele>1469.1</ele>
        <time>2023-11-19T13:02:08Z</time>
      </trkpt>
      <trkpt lat="43.01655" lon="0.22578">
        <ele>1469.3</ele>
        <time>2023-11-19T13:02:09Z</time>
      </trkpt>
      <trkpt lat="43.01655" lon="0.22579">
        <ele>1469.4</ele>
        <time>2023-11-19T13:02:10Z</time>
      </trkpt>
      <trkpt lat="43.01654" lon="0.22579">
        <ele>1469.6</ele>
        <time>2023-11-19T13:02:11Z</time>
      </trkpt>
      <trkpt lat="43.01654" lon="0.2258">
        <ele>1469.8</ele>
        <time>2023-11-19T13:02:12Z</time>
      </trkpt>
      <trkpt lat="43.01654" lon="0.2258">
        <ele>1469.8</ele>
        <time>2023-11-19T13:02:13Z</time>
      </trkpt>
      <trkpt lat="43.01654" lon="0.22581">
        <ele>1470.1</ele>
        <time>2023-11-19T13:02:14Z</time>
      </trkpt>
      <trkpt lat="43.01654" lon="0.22582">
        <ele>1470.2</ele>
        <time>2023-11-19T13:02:15Z</time>
      </trkpt>
      <trkpt lat="43.01654" lon="0.22583">
        <ele>1470.3</ele>
        <time>2023-11-19T13:02:16Z</time>
      </trkpt>
      <trkpt lat="43.01654" lon="0.22584">
        <ele>1470.5</ele>
        <time>2023-11-19T13:02:17Z</time>
      </trkpt>
      <trkpt lat="43.01654" lon="0.22584">
        <ele>1470.7</ele>
        <time>2023-11-19T13:02:18Z</time>
      </trkpt>
      <trkpt lat="43.01653" lon="0.22585">
        <ele>1470.8</ele>
        <time>2023-11-19T13:02:19Z</time>
      </trkpt>
      <trkpt lat="43.01653" lon="0.22586">
        <ele>1471</ele>
        <time>2023-11-19T13:02:20Z</time>
      </trkpt>
      <trkpt lat="43.01653" lon="0.22586">
        <ele>1471.2</ele>
        <time>2023-11-19T13:02:21Z</time>
      </trkpt>
      <trkpt lat="43.01653" lon="0.22587">
        <ele>1471.4</ele>
        <time>2023-11-19T13:02:22Z</time>
      </trkpt>
      <trkpt lat="43.01653" lon="0.22588">
        <ele>1471.6</ele>
        <time>2023-11-19T13:02:23Z</time>
      </trkpt>
      <trkpt lat="43.01652" lon="0.22589">
        <ele>1471.8</ele>
        <time>2023-11-19T13:02:24Z</time>
      </trkpt>
      <trkpt lat="43.01652" lon="0.22589">
        <ele>1471.9</ele>
        <time>2023-11-19T13:02:25Z</time>
      </trkpt>
      <trkpt lat="43.01653" lon="0.2259">
        <ele>1472.2</ele>
        <time>2023-11-19T13:02:26Z</time>
      </trkpt>
      <trkpt lat="43.01653" lon="0.22592">
        <ele>1472.5</ele>
        <time>2023-11-19T13:02:27Z</time>
      </trkpt>
      <trkpt lat="43.01654" lon="0.22592">
        <ele>1472.7</ele>
        <time>2023-11-19T13:02:28Z</time>
      </trkpt>
      <trkpt lat="43.01655" lon="0.22592">
        <ele>1473</ele>
        <time>2023-11-19T13:02:29Z</time>
      </trkpt>
      <trkpt lat="43.01656" lon="0.22592">
        <ele>1473.2</ele>
        <time>2023-11-19T13:02:30Z</time>
      </trkpt>
      <trkpt lat="43.01656" lon="0.22592">
        <ele>1473.3</ele>
        <time>2023-11-19T13:02:31Z</time>
      </trkpt>
      <trkpt lat="43.01656" lon="0.22593">
        <ele>1473.4</ele>
        <time>2023-11-19T13:02:32Z</time>
      </trkpt>
      <trkpt lat="43.01656" lon="0.22593">
        <ele>1473.5</ele>
        <time>2023-11-19T13:02:33Z</time>
      </trkpt>
      <trkpt lat="43.01657" lon="0.22594">
        <ele>1473.7</ele>
        <time>2023-11-19T13:02:34Z</time>
      </trkpt>
      <trkpt lat="43.01657" lon="0.22594">
        <ele>1473.8</ele>
        <time>2023-11-19T13:02:35Z</time>
      </trkpt>
      <trkpt lat="43.01657" lon="0.22594">
        <ele>1473.9</ele>
        <time>2023-11-19T13:02:36Z</time>
      </trkpt>
      <trkpt lat="43.01658" lon="0.22595">
        <ele>1474.1</ele>
        <time>2023-11-19T13:02:37Z</time>
      </trkpt>
      <trkpt lat="43.01658" lon="0.22596">
        <ele>1474.3</ele>
        <time>2023-11-19T13:02:38Z</time>
      </trkpt>
      <trkpt lat="43.01657" lon="0.22596">
        <ele>1474.4</ele>
        <time>2023-11-19T13:02:39Z</time>
      </trkpt>
      <trkpt lat="43.01657" lon="0.22597">
        <ele>1474.6</ele>
        <time>2023-11-19T13:02:40Z</time>
      </trkpt>
      <trkpt lat="43.01657" lon="0.22598">
        <ele>1474.8</ele>
        <time>2023-11-19T13:02:41Z</time>
      </trkpt>
      <trkpt lat="43.01657" lon="0.22599">
        <ele>1475</ele>
        <time>2023-11-19T13:02:42Z</time>
      </trkpt>
      <trkpt lat="43.01657" lon="0.22598">
        <ele>1475.1</ele>
        <time>2023-11-19T13:02:43Z</time>
      </trkpt>
      <trkpt lat="43.01657" lon="0.22599">
        <ele>1475.3</ele>
        <time>2023-11-19T13:02:44Z</time>
      </trkpt>
      <trkpt lat="43.01657" lon="0.226">
        <ele>1475.5</ele>
        <time>2023-11-19T13:02:45Z</time>
      </trkpt>
      <trkpt lat="43.01657" lon="0.22601">
        <ele>1475.7</ele>
        <time>2023-11-19T13:02:46Z</time>
      </trkpt>
      <trkpt lat="43.01657" lon="0.22601">
        <ele>1475.8</ele>
        <time>2023-11-19T13:02:47Z</time>
      </trkpt>
      <trkpt lat="43.01657" lon="0.22602">
        <ele>1475.9</ele>
        <time>2023-11-19T13:02:48Z</time>
      </trkpt>
      <trkpt lat="43.01656" lon="0.22603">
        <ele>1476.1</ele>
        <time>2023-11-19T13:02:49Z</time>
      </trkpt>
      <trkpt lat="43.01656" lon="0.22603">
        <ele>1476.2</ele>
        <time>2023-11-19T13:02:50Z</time>
      </trkpt>
      <trkpt lat="43.01656" lon="0.22603">
        <ele>1476.3</ele>
        <time>2023-11-19T13:02:51Z</time>
      </trkpt>
      <trkpt lat="43.01656" lon="0.22604">
        <ele>1476.4</ele>
        <time>2023-11-19T13:02:52Z</time>
      </trkpt>
      <trkpt lat="43.01656" lon="0.22605">
        <ele>1476.7</ele>
        <time>2023-11-19T13:02:53Z</time>
      </trkpt>
      <trkpt lat="43.01656" lon="0.22606">
        <ele>1476.7</ele>
        <time>2023-11-19T13:02:54Z</time>
      </trkpt>
      <trkpt lat="43.01656" lon="0.22607">
        <ele>1476.9</ele>
        <time>2023-11-19T13:02:55Z</time>
      </trkpt>
      <trkpt lat="43.01656" lon="0.22607">
        <ele>1477</ele>
        <time>2023-11-19T13:02:56Z</time>
      </trkpt>
      <trkpt lat="43.01656" lon="0.22608">
        <ele>1477.1</ele>
        <time>2023-11-19T13:02:57Z</time>
      </trkpt>
      <trkpt lat="43.01656" lon="0.22609">
        <ele>1477.3</ele>
        <time>2023-11-19T13:02:58Z</time>
      </trkpt>
      <trkpt lat="43.01656" lon="0.2261">
        <ele>1477.5</ele>
        <time>2023-11-19T13:02:59Z</time>
      </trkpt>
      <trkpt lat="43.01655" lon="0.2261">
        <ele>1477.6</ele>
        <time>2023-11-19T13:03:00Z</time>
      </trkpt>
      <trkpt lat="43.01655" lon="0.22611">
        <ele>1477.7</ele>
        <time>2023-11-19T13:03:01Z</time>
      </trkpt>
      <trkpt lat="43.01655" lon="0.22611">
        <ele>1477.8</ele>
        <time>2023-11-19T13:03:02Z</time>
      </trkpt>
      <trkpt lat="43.01655" lon="0.22612">
        <ele>1477.9</ele>
        <time>2023-11-19T13:03:03Z</time>
      </trkpt>
      <trkpt lat="43.01655" lon="0.22613">
        <ele>1478.1</ele>
        <time>2023-11-19T13:03:04Z</time>
      </trkpt>
      <trkpt lat="43.01655" lon="0.22613">
        <ele>1478.2</ele>
        <time>2023-11-19T13:03:05Z</time>
      </trkpt>
      <trkpt lat="43.01655" lon="0.22614">
        <ele>1478.4</ele>
        <time>2023-11-19T13:03:06Z</time>
      </trkpt>
      <trkpt lat="43.01655" lon="0.22615">
        <ele>1478.5</ele>
        <time>2023-11-19T13:03:07Z</time>
      </trkpt>
      <trkpt lat="43.01656" lon="0.22615">
        <ele>1478.6</ele>
        <time>2023-11-19T13:03:08Z</time>
      </trkpt>
      <trkpt lat="43.01655" lon="0.22615">
        <ele>1478.7</ele>
        <time>2023-11-19T13:03:09Z</time>
      </trkpt>
      <trkpt lat="43.01655" lon="0.22616">
        <ele>1478.9</ele>
        <time>2023-11-19T13:03:10Z</time>
      </trkpt>
      <trkpt lat="43.01655" lon="0.22617">
        <ele>1479</ele>
        <time>2023-11-19T13:03:11Z</time>
      </trkpt>
      <trkpt lat="43.01656" lon="0.22618">
        <ele>1479.2</ele>
        <time>2023-11-19T13:03:12Z</time>
      </trkpt>
      <trkpt lat="43.01656" lon="0.22618">
        <ele>1479.3</ele>
        <time>2023-11-19T13:03:13Z</time>
      </trkpt>
      <trkpt lat="43.01656" lon="0.22619">
        <ele>1479.4</ele>
        <time>2023-11-19T13:03:14Z</time>
      </trkpt>
      <trkpt lat="43.01656" lon="0.2262">
        <ele>1479.6</ele>
        <time>2023-11-19T13:03:15Z</time>
      </trkpt>
      <trkpt lat="43.01656" lon="0.22621">
        <ele>1479.7</ele>
        <time>2023-11-19T13:03:16Z</time>
      </trkpt>
      <trkpt lat="43.01656" lon="0.22621">
        <ele>1479.8</ele>
        <time>2023-11-19T13:03:17Z</time>
      </trkpt>
      <trkpt lat="43.01656" lon="0.22622">
        <ele>1480</ele>
        <time>2023-11-19T13:03:18Z</time>
      </trkpt>
      <trkpt lat="43.01656" lon="0.22623">
        <ele>1480.1</ele>
        <time>2023-11-19T13:03:19Z</time>
      </trkpt>
      <trkpt lat="43.01656" lon="0.22623">
        <ele>1480.2</ele>
        <time>2023-11-19T13:03:20Z</time>
      </trkpt>
      <trkpt lat="43.01656" lon="0.22624">
        <ele>1480.3</ele>
        <time>2023-11-19T13:03:21Z</time>
      </trkpt>
      <trkpt lat="43.01655" lon="0.22624">
        <ele>1480.4</ele>
        <time>2023-11-19T13:03:22Z</time>
      </trkpt>
      <trkpt lat="43.01655" lon="0.22625">
        <ele>1480.5</ele>
        <time>2023-11-19T13:03:23Z</time>
      </trkpt>
      <trkpt lat="43.01655" lon="0.22626">
        <ele>1480.7</ele>
        <time>2023-11-19T13:03:24Z</time>
      </trkpt>
      <trkpt lat="43.01654" lon="0.22627">
        <ele>1480.9</ele>
        <time>2023-11-19T13:03:25Z</time>
      </trkpt>
      <trkpt lat="43.01654" lon="0.22627">
        <ele>1481</ele>
        <time>2023-11-19T13:03:26Z</time>
      </trkpt>
      <trkpt lat="43.01654" lon="0.22628">
        <ele>1481.1</ele>
        <time>2023-11-19T13:03:27Z</time>
      </trkpt>
      <trkpt lat="43.01654" lon="0.22629">
        <ele>1481.3</ele>
        <time>2023-11-19T13:03:28Z</time>
      </trkpt>
      <trkpt lat="43.01654" lon="0.22629">
        <ele>1481.4</ele>
        <time>2023-11-19T13:03:29Z</time>
      </trkpt>
      <trkpt lat="43.01654" lon="0.2263">
        <ele>1481.5</ele>
        <time>2023-11-19T13:03:30Z</time>
      </trkpt>
      <trkpt lat="43.01653" lon="0.2263">
        <ele>1481.6</ele>
        <time>2023-11-19T13:03:31Z</time>
      </trkpt>
      <trkpt lat="43.01654" lon="0.22631">
        <ele>1481.6</ele>
        <time>2023-11-19T13:03:32Z</time>
      </trkpt>
      <trkpt lat="43.01654" lon="0.22632">
        <ele>1481.9</ele>
        <time>2023-11-19T13:03:33Z</time>
      </trkpt>
      <trkpt lat="43.01654" lon="0.22633">
        <ele>1481.9</ele>
        <time>2023-11-19T13:03:34Z</time>
      </trkpt>
      <trkpt lat="43.01654" lon="0.22633">
        <ele>1482</ele>
        <time>2023-11-19T13:03:35Z</time>
      </trkpt>
      <trkpt lat="43.01654" lon="0.22634">
        <ele>1482.2</ele>
        <time>2023-11-19T13:03:36Z</time>
      </trkpt>
      <trkpt lat="43.01654" lon="0.22635">
        <ele>1482.3</ele>
        <time>2023-11-19T13:03:37Z</time>
      </trkpt>
      <trkpt lat="43.01654" lon="0.22636">
        <ele>1482.4</ele>
        <time>2023-11-19T13:03:38Z</time>
      </trkpt>
      <trkpt lat="43.01654" lon="0.22636">
        <ele>1482.5</ele>
        <time>2023-11-19T13:03:39Z</time>
      </trkpt>
      <trkpt lat="43.01654" lon="0.22637">
        <ele>1482.6</ele>
        <time>2023-11-19T13:03:40Z</time>
      </trkpt>
      <trkpt lat="43.01654" lon="0.22637">
        <ele>1482.7</ele>
        <time>2023-11-19T13:03:41Z</time>
      </trkpt>
      <trkpt lat="43.01654" lon="0.22639">
        <ele>1482.8</ele>
        <time>2023-11-19T13:03:42Z</time>
      </trkpt>
      <trkpt lat="43.01654" lon="0.22639">
        <ele>1482.9</ele>
        <time>2023-11-19T13:03:43Z</time>
      </trkpt>
      <trkpt lat="43.01654" lon="0.2264">
        <ele>1483</ele>
        <time>2023-11-19T13:03:44Z</time>
      </trkpt>
      <trkpt lat="43.01655" lon="0.2264">
        <ele>1483.2</ele>
        <time>2023-11-19T13:03:45Z</time>
      </trkpt>
      <trkpt lat="43.01655" lon="0.22641">
        <ele>1483.3</ele>
        <time>2023-11-19T13:03:46Z</time>
      </trkpt>
      <trkpt lat="43.01655" lon="0.22642">
        <ele>1483.4</ele>
        <time>2023-11-19T13:03:47Z</time>
      </trkpt>
      <trkpt lat="43.01655" lon="0.22642">
        <ele>1483.5</ele>
        <time>2023-11-19T13:03:48Z</time>
      </trkpt>
      <trkpt lat="43.01655" lon="0.22643">
        <ele>1483.7</ele>
        <time>2023-11-19T13:03:49Z</time>
      </trkpt>
      <trkpt lat="43.01654" lon="0.22644">
        <ele>1483.8</ele>
        <time>2023-11-19T13:03:50Z</time>
      </trkpt>
      <trkpt lat="43.01654" lon="0.22645">
        <ele>1483.9</ele>
        <time>2023-11-19T13:03:51Z</time>
      </trkpt>
      <trkpt lat="43.01654" lon="0.22645">
        <ele>1484</ele>
        <time>2023-11-19T13:03:52Z</time>
      </trkpt>
      <trkpt lat="43.01654" lon="0.22646">
        <ele>1484.1</ele>
        <time>2023-11-19T13:03:53Z</time>
      </trkpt>
      <trkpt lat="43.01654" lon="0.22646">
        <ele>1484.2</ele>
        <time>2023-11-19T13:03:54Z</time>
      </trkpt>
      <trkpt lat="43.01654" lon="0.22648">
        <ele>1484.5</ele>
        <time>2023-11-19T13:03:55Z</time>
      </trkpt>
      <trkpt lat="43.01654" lon="0.22649">
        <ele>1484.6</ele>
        <time>2023-11-19T13:03:56Z</time>
      </trkpt>
      <trkpt lat="43.01654" lon="0.22649">
        <ele>1484.6</ele>
        <time>2023-11-19T13:03:57Z</time>
      </trkpt>
      <trkpt lat="43.01653" lon="0.2265">
        <ele>1484.8</ele>
        <time>2023-11-19T13:03:58Z</time>
      </trkpt>
      <trkpt lat="43.01652" lon="0.2265">
        <ele>1485</ele>
        <time>2023-11-19T13:03:59Z</time>
      </trkpt>
      <trkpt lat="43.01653" lon="0.22651">
        <ele>1485.2</ele>
        <time>2023-11-19T13:04:00Z</time>
      </trkpt>
      <trkpt lat="43.01654" lon="0.22651">
        <ele>1485.3</ele>
        <time>2023-11-19T13:04:01Z</time>
      </trkpt>
      <trkpt lat="43.01654" lon="0.22652">
        <ele>1485.5</ele>
        <time>2023-11-19T13:04:02Z</time>
      </trkpt>
      <trkpt lat="43.01654" lon="0.22653">
        <ele>1485.6</ele>
        <time>2023-11-19T13:04:03Z</time>
      </trkpt>
      <trkpt lat="43.01654" lon="0.22654">
        <ele>1485.7</ele>
        <time>2023-11-19T13:04:04Z</time>
      </trkpt>
      <trkpt lat="43.01654" lon="0.22654">
        <ele>1485.8</ele>
        <time>2023-11-19T13:04:05Z</time>
      </trkpt>
      <trkpt lat="43.01654" lon="0.22656">
        <ele>1486</ele>
        <time>2023-11-19T13:04:06Z</time>
      </trkpt>
      <trkpt lat="43.01654" lon="0.22656">
        <ele>1486.1</ele>
        <time>2023-11-19T13:04:07Z</time>
      </trkpt>
      <trkpt lat="43.01653" lon="0.22657">
        <ele>1486.2</ele>
        <time>2023-11-19T13:04:08Z</time>
      </trkpt>
      <trkpt lat="43.01653" lon="0.22658">
        <ele>1486.3</ele>
        <time>2023-11-19T13:04:09Z</time>
      </trkpt>
      <trkpt lat="43.01653" lon="0.22659">
        <ele>1486.5</ele>
        <time>2023-11-19T13:04:10Z</time>
      </trkpt>
      <trkpt lat="43.01653" lon="0.2266">
        <ele>1486.6</ele>
        <time>2023-11-19T13:04:11Z</time>
      </trkpt>
      <trkpt lat="43.01652" lon="0.2266">
        <ele>1486.7</ele>
        <time>2023-11-19T13:04:12Z</time>
      </trkpt>
      <trkpt lat="43.01652" lon="0.22661">
        <ele>1486.9</ele>
        <time>2023-11-19T13:04:13Z</time>
      </trkpt>
      <trkpt lat="43.01651" lon="0.22662">
        <ele>1487</ele>
        <time>2023-11-19T13:04:14Z</time>
      </trkpt>
      <trkpt lat="43.0165" lon="0.22662">
        <ele>1487.2</ele>
        <time>2023-11-19T13:04:15Z</time>
      </trkpt>
      <trkpt lat="43.0165" lon="0.22663">
        <ele>1487.4</ele>
        <time>2023-11-19T13:04:16Z</time>
      </trkpt>
      <trkpt lat="43.01649" lon="0.22663">
        <ele>1487.5</ele>
        <time>2023-11-19T13:04:17Z</time>
      </trkpt>
      <trkpt lat="43.01649" lon="0.22664">
        <ele>1487.6</ele>
        <time>2023-11-19T13:04:18Z</time>
      </trkpt>
      <trkpt lat="43.01649" lon="0.22665">
        <ele>1487.7</ele>
        <time>2023-11-19T13:04:19Z</time>
      </trkpt>
      <trkpt lat="43.01649" lon="0.22666">
        <ele>1487.9</ele>
        <time>2023-11-19T13:04:20Z</time>
      </trkpt>
      <trkpt lat="43.01648" lon="0.22667">
        <ele>1488.1</ele>
        <time>2023-11-19T13:04:21Z</time>
      </trkpt>
      <trkpt lat="43.01648" lon="0.22668">
        <ele>1488.3</ele>
        <time>2023-11-19T13:04:22Z</time>
      </trkpt>
      <trkpt lat="43.01647" lon="0.22669">
        <ele>1488.4</ele>
        <time>2023-11-19T13:04:23Z</time>
      </trkpt>
      <trkpt lat="43.01647" lon="0.2267">
        <ele>1488.6</ele>
        <time>2023-11-19T13:04:24Z</time>
      </trkpt>
      <trkpt lat="43.01646" lon="0.2267">
        <ele>1488.7</ele>
        <time>2023-11-19T13:04:25Z</time>
      </trkpt>
      <trkpt lat="43.01645" lon="0.22672">
        <ele>1489</ele>
        <time>2023-11-19T13:04:26Z</time>
      </trkpt>
      <trkpt lat="43.01645" lon="0.22673">
        <ele>1489.2</ele>
        <time>2023-11-19T13:04:27Z</time>
      </trkpt>
      <trkpt lat="43.01644" lon="0.22673">
        <ele>1489.4</ele>
        <time>2023-11-19T13:04:28Z</time>
      </trkpt>
      <trkpt lat="43.01643" lon="0.22674">
        <ele>1489.6</ele>
        <time>2023-11-19T13:04:29Z</time>
      </trkpt>
      <trkpt lat="43.01643" lon="0.22675">
        <ele>1489.7</ele>
        <time>2023-11-19T13:04:30Z</time>
      </trkpt>
      <trkpt lat="43.01643" lon="0.22675">
        <ele>1489.8</ele>
        <time>2023-11-19T13:04:31Z</time>
      </trkpt>
      <trkpt lat="43.01642" lon="0.22676">
        <ele>1489.9</ele>
        <time>2023-11-19T13:04:32Z</time>
      </trkpt>
      <trkpt lat="43.01642" lon="0.22677">
        <ele>1490.1</ele>
        <time>2023-11-19T13:04:33Z</time>
      </trkpt>
      <trkpt lat="43.01642" lon="0.22678">
        <ele>1490.4</ele>
        <time>2023-11-19T13:04:34Z</time>
      </trkpt>
      <trkpt lat="43.01641" lon="0.22679">
        <ele>1490.6</ele>
        <time>2023-11-19T13:04:35Z</time>
      </trkpt>
      <trkpt lat="43.0164" lon="0.2268">
        <ele>1490.8</ele>
        <time>2023-11-19T13:04:36Z</time>
      </trkpt>
      <trkpt lat="43.0164" lon="0.22681">
        <ele>1490.9</ele>
        <time>2023-11-19T13:04:37Z</time>
      </trkpt>
      <trkpt lat="43.0164" lon="0.22682">
        <ele>1491.1</ele>
        <time>2023-11-19T13:04:38Z</time>
      </trkpt>
      <trkpt lat="43.01639" lon="0.22683">
        <ele>1491.3</ele>
        <time>2023-11-19T13:04:39Z</time>
      </trkpt>
      <trkpt lat="43.01639" lon="0.22683">
        <ele>1491.3</ele>
        <time>2023-11-19T13:04:40Z</time>
      </trkpt>
      <trkpt lat="43.01639" lon="0.22684">
        <ele>1491.6</ele>
        <time>2023-11-19T13:04:41Z</time>
      </trkpt>
      <trkpt lat="43.01638" lon="0.22685">
        <ele>1491.8</ele>
        <time>2023-11-19T13:04:42Z</time>
      </trkpt>
      <trkpt lat="43.01638" lon="0.22686">
        <ele>1491.9</ele>
        <time>2023-11-19T13:04:43Z</time>
      </trkpt>
      <trkpt lat="43.01638" lon="0.22687">
        <ele>1492.1</ele>
        <time>2023-11-19T13:04:44Z</time>
      </trkpt>
      <trkpt lat="43.01637" lon="0.22688">
        <ele>1492.4</ele>
        <time>2023-11-19T13:04:45Z</time>
      </trkpt>
      <trkpt lat="43.01637" lon="0.22689">
        <ele>1492.5</ele>
        <time>2023-11-19T13:04:46Z</time>
      </trkpt>
      <trkpt lat="43.01636" lon="0.2269">
        <ele>1492.8</ele>
        <time>2023-11-19T13:04:47Z</time>
      </trkpt>
      <trkpt lat="43.01636" lon="0.22691">
        <ele>1493</ele>
        <time>2023-11-19T13:04:48Z</time>
      </trkpt>
      <trkpt lat="43.01635" lon="0.22692">
        <ele>1493.3</ele>
        <time>2023-11-19T13:04:49Z</time>
      </trkpt>
      <trkpt lat="43.01634" lon="0.22692">
        <ele>1493.5</ele>
        <time>2023-11-19T13:04:50Z</time>
      </trkpt>
      <trkpt lat="43.01634" lon="0.22693">
        <ele>1493.8</ele>
        <time>2023-11-19T13:04:51Z</time>
      </trkpt>
      <trkpt lat="43.01633" lon="0.22695">
        <ele>1494.1</ele>
        <time>2023-11-19T13:04:52Z</time>
      </trkpt>
      <trkpt lat="43.01633" lon="0.22695">
        <ele>1494.2</ele>
        <time>2023-11-19T13:04:53Z</time>
      </trkpt>
      <trkpt lat="43.01632" lon="0.22696">
        <ele>1494.4</ele>
        <time>2023-11-19T13:04:54Z</time>
      </trkpt>
      <trkpt lat="43.01632" lon="0.22697">
        <ele>1494.6</ele>
        <time>2023-11-19T13:04:55Z</time>
      </trkpt>
      <trkpt lat="43.01631" lon="0.22698">
        <ele>1494.9</ele>
        <time>2023-11-19T13:04:56Z</time>
      </trkpt>
      <trkpt lat="43.01631" lon="0.22699">
        <ele>1495.1</ele>
        <time>2023-11-19T13:04:57Z</time>
      </trkpt>
      <trkpt lat="43.01631" lon="0.227">
        <ele>1495.3</ele>
        <time>2023-11-19T13:04:58Z</time>
      </trkpt>
      <trkpt lat="43.01631" lon="0.22701">
        <ele>1495.5</ele>
        <time>2023-11-19T13:04:59Z</time>
      </trkpt>
      <trkpt lat="43.01631" lon="0.22702">
        <ele>1495.6</ele>
        <time>2023-11-19T13:05:00Z</time>
      </trkpt>
      <trkpt lat="43.0163" lon="0.22702">
        <ele>1495.7</ele>
        <time>2023-11-19T13:05:01Z</time>
      </trkpt>
      <trkpt lat="43.0163" lon="0.22703">
        <ele>1495.9</ele>
        <time>2023-11-19T13:05:02Z</time>
      </trkpt>
      <trkpt lat="43.0163" lon="0.22704">
        <ele>1496</ele>
        <time>2023-11-19T13:05:03Z</time>
      </trkpt>
      <trkpt lat="43.0163" lon="0.22704">
        <ele>1496.2</ele>
        <time>2023-11-19T13:05:04Z</time>
      </trkpt>
      <trkpt lat="43.0163" lon="0.22705">
        <ele>1496.4</ele>
        <time>2023-11-19T13:05:05Z</time>
      </trkpt>
      <trkpt lat="43.01629" lon="0.22706">
        <ele>1496.5</ele>
        <time>2023-11-19T13:05:06Z</time>
      </trkpt>
      <trkpt lat="43.01629" lon="0.22706">
        <ele>1496.6</ele>
        <time>2023-11-19T13:05:07Z</time>
      </trkpt>
      <trkpt lat="43.0163" lon="0.22707">
        <ele>1496.7</ele>
        <time>2023-11-19T13:05:08Z</time>
      </trkpt>
      <trkpt lat="43.0163" lon="0.22708">
        <ele>1496.8</ele>
        <time>2023-11-19T13:05:09Z</time>
      </trkpt>
      <trkpt lat="43.0163" lon="0.22709">
        <ele>1497</ele>
        <time>2023-11-19T13:05:10Z</time>
      </trkpt>
      <trkpt lat="43.01631" lon="0.2271">
        <ele>1497.2</ele>
        <time>2023-11-19T13:05:11Z</time>
      </trkpt>
      <trkpt lat="43.01631" lon="0.2271">
        <ele>1497.4</ele>
        <time>2023-11-19T13:05:12Z</time>
      </trkpt>
      <trkpt lat="43.01632" lon="0.22711">
        <ele>1497.6</ele>
        <time>2023-11-19T13:05:13Z</time>
      </trkpt>
      <trkpt lat="43.01631" lon="0.22712">
        <ele>1497.8</ele>
        <time>2023-11-19T13:05:14Z</time>
      </trkpt>
      <trkpt lat="43.01632" lon="0.22713">
        <ele>1498</ele>
        <time>2023-11-19T13:05:15Z</time>
      </trkpt>
      <trkpt lat="43.01632" lon="0.22714">
        <ele>1498.1</ele>
        <time>2023-11-19T13:05:16Z</time>
      </trkpt>
      <trkpt lat="43.01632" lon="0.22715">
        <ele>1498.3</ele>
        <time>2023-11-19T13:05:17Z</time>
      </trkpt>
      <trkpt lat="43.01632" lon="0.22716">
        <ele>1498.5</ele>
        <time>2023-11-19T13:05:18Z</time>
      </trkpt>
      <trkpt lat="43.01632" lon="0.22717">
        <ele>1498.6</ele>
        <time>2023-11-19T13:05:19Z</time>
      </trkpt>
      <trkpt lat="43.01632" lon="0.22717">
        <ele>1498.7</ele>
        <time>2023-11-19T13:05:20Z</time>
      </trkpt>
      <trkpt lat="43.01633" lon="0.22718">
        <ele>1498.9</ele>
        <time>2023-11-19T13:05:21Z</time>
      </trkpt>
      <trkpt lat="43.01633" lon="0.22718">
        <ele>1499</ele>
        <time>2023-11-19T13:05:22Z</time>
      </trkpt>
      <trkpt lat="43.01633" lon="0.22719">
        <ele>1499.1</ele>
        <time>2023-11-19T13:05:23Z</time>
      </trkpt>
      <trkpt lat="43.01633" lon="0.2272">
        <ele>1499.3</ele>
        <time>2023-11-19T13:05:24Z</time>
      </trkpt>
      <trkpt lat="43.01633" lon="0.22721">
        <ele>1499.4</ele>
        <time>2023-11-19T13:05:25Z</time>
      </trkpt>
      <trkpt lat="43.01633" lon="0.22721">
        <ele>1499.5</ele>
        <time>2023-11-19T13:05:26Z</time>
      </trkpt>
      <trkpt lat="43.01633" lon="0.22722">
        <ele>1499.7</ele>
        <time>2023-11-19T13:05:27Z</time>
      </trkpt>
      <trkpt lat="43.01633" lon="0.22722">
        <ele>1499.7</ele>
        <time>2023-11-19T13:05:28Z</time>
      </trkpt>
      <trkpt lat="43.01634" lon="0.22723">
        <ele>1499.9</ele>
        <time>2023-11-19T13:05:29Z</time>
      </trkpt>
      <trkpt lat="43.01635" lon="0.22723">
        <ele>1500.1</ele>
        <time>2023-11-19T13:05:30Z</time>
      </trkpt>
      <trkpt lat="43.01636" lon="0.22724">
        <ele>1500.3</ele>
        <time>2023-11-19T13:05:31Z</time>
      </trkpt>
      <trkpt lat="43.01636" lon="0.22725">
        <ele>1500.5</ele>
        <time>2023-11-19T13:05:32Z</time>
      </trkpt>
      <trkpt lat="43.01636" lon="0.22725">
        <ele>1500.6</ele>
        <time>2023-11-19T13:05:33Z</time>
      </trkpt>
      <trkpt lat="43.01636" lon="0.22726">
        <ele>1500.7</ele>
        <time>2023-11-19T13:05:34Z</time>
      </trkpt>
      <trkpt lat="43.01636" lon="0.22727">
        <ele>1500.9</ele>
        <time>2023-11-19T13:05:35Z</time>
      </trkpt>
      <trkpt lat="43.01637" lon="0.22728">
        <ele>1501</ele>
        <time>2023-11-19T13:05:36Z</time>
      </trkpt>
      <trkpt lat="43.01637" lon="0.22728">
        <ele>1501.2</ele>
        <time>2023-11-19T13:05:37Z</time>
      </trkpt>
      <trkpt lat="43.01637" lon="0.22729">
        <ele>1501.3</ele>
        <time>2023-11-19T13:05:38Z</time>
      </trkpt>
      <trkpt lat="43.01638" lon="0.2273">
        <ele>1501.4</ele>
        <time>2023-11-19T13:05:39Z</time>
      </trkpt>
      <trkpt lat="43.01638" lon="0.22731">
        <ele>1501.6</ele>
        <time>2023-11-19T13:05:40Z</time>
      </trkpt>
      <trkpt lat="43.01638" lon="0.22731">
        <ele>1501.8</ele>
        <time>2023-11-19T13:05:41Z</time>
      </trkpt>
      <trkpt lat="43.01639" lon="0.22733">
        <ele>1502</ele>
        <time>2023-11-19T13:05:42Z</time>
      </trkpt>
      <trkpt lat="43.01639" lon="0.22733">
        <ele>1502.1</ele>
        <time>2023-11-19T13:05:43Z</time>
      </trkpt>
      <trkpt lat="43.01639" lon="0.22734">
        <ele>1502.2</ele>
        <time>2023-11-19T13:05:44Z</time>
      </trkpt>
      <trkpt lat="43.01639" lon="0.22735">
        <ele>1502.3</ele>
        <time>2023-11-19T13:05:45Z</time>
      </trkpt>
      <trkpt lat="43.01639" lon="0.22736">
        <ele>1502.5</ele>
        <time>2023-11-19T13:05:46Z</time>
      </trkpt>
      <trkpt lat="43.01639" lon="0.22737">
        <ele>1502.7</ele>
        <time>2023-11-19T13:05:47Z</time>
      </trkpt>
      <trkpt lat="43.0164" lon="0.22738">
        <ele>1502.9</ele>
        <time>2023-11-19T13:05:48Z</time>
      </trkpt>
      <trkpt lat="43.0164" lon="0.22738">
        <ele>1503</ele>
        <time>2023-11-19T13:05:49Z</time>
      </trkpt>
      <trkpt lat="43.0164" lon="0.2274">
        <ele>1503.3</ele>
        <time>2023-11-19T13:05:50Z</time>
      </trkpt>
      <trkpt lat="43.01641" lon="0.22741">
        <ele>1503.5</ele>
        <time>2023-11-19T13:05:51Z</time>
      </trkpt>
      <trkpt lat="43.01641" lon="0.22742">
        <ele>1503.7</ele>
        <time>2023-11-19T13:05:52Z</time>
      </trkpt>
      <trkpt lat="43.01641" lon="0.22744">
        <ele>1503.9</ele>
        <time>2023-11-19T13:05:53Z</time>
      </trkpt>
      <trkpt lat="43.01641" lon="0.22744">
        <ele>1504</ele>
        <time>2023-11-19T13:05:54Z</time>
      </trkpt>
      <trkpt lat="43.01642" lon="0.22745">
        <ele>1504.1</ele>
        <time>2023-11-19T13:05:55Z</time>
      </trkpt>
      <trkpt lat="43.01642" lon="0.22745">
        <ele>1504.2</ele>
        <time>2023-11-19T13:05:56Z</time>
      </trkpt>
      <trkpt lat="43.01642" lon="0.22746">
        <ele>1504.3</ele>
        <time>2023-11-19T13:05:57Z</time>
      </trkpt>
      <trkpt lat="43.01643" lon="0.22746">
        <ele>1504.4</ele>
        <time>2023-11-19T13:05:58Z</time>
      </trkpt>
      <trkpt lat="43.01643" lon="0.22745">
        <ele>1504.5</ele>
        <time>2023-11-19T13:05:59Z</time>
      </trkpt>
      <trkpt lat="43.01643" lon="0.22746">
        <ele>1504.6</ele>
        <time>2023-11-19T13:06:00Z</time>
      </trkpt>
      <trkpt lat="43.01643" lon="0.22746">
        <ele>1504.7</ele>
        <time>2023-11-19T13:06:01Z</time>
      </trkpt>
      <trkpt lat="43.01643" lon="0.22747">
        <ele>1504.9</ele>
        <time>2023-11-19T13:06:02Z</time>
      </trkpt>
      <trkpt lat="43.01644" lon="0.22748">
        <ele>1505</ele>
        <time>2023-11-19T13:06:03Z</time>
      </trkpt>
      <trkpt lat="43.01644" lon="0.22748">
        <ele>1505.1</ele>
        <time>2023-11-19T13:06:04Z</time>
      </trkpt>
      <trkpt lat="43.01644" lon="0.22748">
        <ele>1505.2</ele>
        <time>2023-11-19T13:06:05Z</time>
      </trkpt>
      <trkpt lat="43.01644" lon="0.22748">
        <ele>1505.2</ele>
        <time>2023-11-19T13:06:06Z</time>
      </trkpt>
      <trkpt lat="43.01644" lon="0.22748">
        <ele>1505.2</ele>
        <time>2023-11-19T13:06:07Z</time>
      </trkpt>
      <trkpt lat="43.01644" lon="0.22748">
        <ele>1505.3</ele>
        <time>2023-11-19T13:06:08Z</time>
      </trkpt>
      <trkpt lat="43.01645" lon="0.2275">
        <ele>1505.5</ele>
        <time>2023-11-19T13:06:09Z</time>
      </trkpt>
      <trkpt lat="43.01645" lon="0.22751">
        <ele>1505.7</ele>
        <time>2023-11-19T13:06:10Z</time>
      </trkpt>
      <trkpt lat="43.01645" lon="0.22752">
        <ele>1506</ele>
        <time>2023-11-19T13:06:11Z</time>
      </trkpt>
      <trkpt lat="43.01645" lon="0.22753">
        <ele>1506</ele>
        <time>2023-11-19T13:06:12Z</time>
      </trkpt>
      <trkpt lat="43.01645" lon="0.22753">
        <ele>1506.1</ele>
        <time>2023-11-19T13:06:13Z</time>
      </trkpt>
      <trkpt lat="43.01646" lon="0.22753">
        <ele>1506.2</ele>
        <time>2023-11-19T13:06:14Z</time>
      </trkpt>
      <trkpt lat="43.01646" lon="0.22754">
        <ele>1506.4</ele>
        <time>2023-11-19T13:06:15Z</time>
      </trkpt>
      <trkpt lat="43.01646" lon="0.22755">
        <ele>1506.5</ele>
        <time>2023-11-19T13:06:16Z</time>
      </trkpt>
      <trkpt lat="43.01646" lon="0.22756">
        <ele>1506.7</ele>
        <time>2023-11-19T13:06:17Z</time>
      </trkpt>
      <trkpt lat="43.01646" lon="0.22758">
        <ele>1506.9</ele>
        <time>2023-11-19T13:06:18Z</time>
      </trkpt>
      <trkpt lat="43.01646" lon="0.22759">
        <ele>1507.1</ele>
        <time>2023-11-19T13:06:19Z</time>
      </trkpt>
      <trkpt lat="43.01645" lon="0.22759">
        <ele>1507.2</ele>
        <time>2023-11-19T13:06:20Z</time>
      </trkpt>
      <trkpt lat="43.01646" lon="0.22761">
        <ele>1507.5</ele>
        <time>2023-11-19T13:06:21Z</time>
      </trkpt>
      <trkpt lat="43.01645" lon="0.22762">
        <ele>1507.6</ele>
        <time>2023-11-19T13:06:22Z</time>
      </trkpt>
      <trkpt lat="43.01645" lon="0.22763">
        <ele>1507.9</ele>
        <time>2023-11-19T13:06:23Z</time>
      </trkpt>
      <trkpt lat="43.01645" lon="0.22764">
        <ele>1508</ele>
        <time>2023-11-19T13:06:24Z</time>
      </trkpt>
      <trkpt lat="43.01644" lon="0.22764">
        <ele>1508.1</ele>
        <time>2023-11-19T13:06:25Z</time>
      </trkpt>
      <trkpt lat="43.01643" lon="0.22765">
        <ele>1508.4</ele>
        <time>2023-11-19T13:06:26Z</time>
      </trkpt>
      <trkpt lat="43.01643" lon="0.22766">
        <ele>1508.5</ele>
        <time>2023-11-19T13:06:27Z</time>
      </trkpt>
      <trkpt lat="43.01642" lon="0.22766">
        <ele>1508.7</ele>
        <time>2023-11-19T13:06:28Z</time>
      </trkpt>
      <trkpt lat="43.01642" lon="0.22766">
        <ele>1508.8</ele>
        <time>2023-11-19T13:06:29Z</time>
      </trkpt>
      <trkpt lat="43.01641" lon="0.22767">
        <ele>1509</ele>
        <time>2023-11-19T13:06:30Z</time>
      </trkpt>
      <trkpt lat="43.01641" lon="0.22768">
        <ele>1509.2</ele>
        <time>2023-11-19T13:06:31Z</time>
      </trkpt>
      <trkpt lat="43.0164" lon="0.22769">
        <ele>1509.4</ele>
        <time>2023-11-19T13:06:32Z</time>
      </trkpt>
      <trkpt lat="43.0164" lon="0.2277">
        <ele>1509.6</ele>
        <time>2023-11-19T13:06:33Z</time>
      </trkpt>
      <trkpt lat="43.0164" lon="0.22771">
        <ele>1509.8</ele>
        <time>2023-11-19T13:06:34Z</time>
      </trkpt>
      <trkpt lat="43.0164" lon="0.22772">
        <ele>1510</ele>
        <time>2023-11-19T13:06:35Z</time>
      </trkpt>
      <trkpt lat="43.0164" lon="0.22773">
        <ele>1510.1</ele>
        <time>2023-11-19T13:06:36Z</time>
      </trkpt>
      <trkpt lat="43.0164" lon="0.22774">
        <ele>1510.2</ele>
        <time>2023-11-19T13:06:37Z</time>
      </trkpt>
      <trkpt lat="43.0164" lon="0.22775">
        <ele>1510.4</ele>
        <time>2023-11-19T13:06:38Z</time>
      </trkpt>
      <trkpt lat="43.01639" lon="0.22775">
        <ele>1510.5</ele>
        <time>2023-11-19T13:06:39Z</time>
      </trkpt>
      <trkpt lat="43.01639" lon="0.22776">
        <ele>1510.7</ele>
        <time>2023-11-19T13:06:40Z</time>
      </trkpt>
      <trkpt lat="43.01638" lon="0.22776">
        <ele>1510.8</ele>
        <time>2023-11-19T13:06:41Z</time>
      </trkpt>
      <trkpt lat="43.01638" lon="0.22776">
        <ele>1510.9</ele>
        <time>2023-11-19T13:06:42Z</time>
      </trkpt>
      <trkpt lat="43.01637" lon="0.22776">
        <ele>1511</ele>
        <time>2023-11-19T13:06:43Z</time>
      </trkpt>
      <trkpt lat="43.01637" lon="0.22776">
        <ele>1511.2</ele>
        <time>2023-11-19T13:06:44Z</time>
      </trkpt>
      <trkpt lat="43.01636" lon="0.22777">
        <ele>1511.3</ele>
        <time>2023-11-19T13:06:45Z</time>
      </trkpt>
      <trkpt lat="43.01636" lon="0.22777">
        <ele>1511.5</ele>
        <time>2023-11-19T13:06:46Z</time>
      </trkpt>
      <trkpt lat="43.01635" lon="0.22777">
        <ele>1511.6</ele>
        <time>2023-11-19T13:06:47Z</time>
      </trkpt>
      <trkpt lat="43.01635" lon="0.22778">
        <ele>1511.7</ele>
        <time>2023-11-19T13:06:48Z</time>
      </trkpt>
      <trkpt lat="43.01633" lon="0.22778">
        <ele>1512.1</ele>
        <time>2023-11-19T13:06:49Z</time>
      </trkpt>
      <trkpt lat="43.01634" lon="0.22779">
        <ele>1512.3</ele>
        <time>2023-11-19T13:06:50Z</time>
      </trkpt>
      <trkpt lat="43.01634" lon="0.2278">
        <ele>1512.5</ele>
        <time>2023-11-19T13:06:51Z</time>
      </trkpt>
      <trkpt lat="43.01634" lon="0.22781">
        <ele>1512.7</ele>
        <time>2023-11-19T13:06:52Z</time>
      </trkpt>
      <trkpt lat="43.01634" lon="0.22782">
        <ele>1512.7</ele>
        <time>2023-11-19T13:06:53Z</time>
      </trkpt>
      <trkpt lat="43.01633" lon="0.22783">
        <ele>1512.9</ele>
        <time>2023-11-19T13:06:54Z</time>
      </trkpt>
      <trkpt lat="43.01633" lon="0.22783">
        <ele>1513</ele>
        <time>2023-11-19T13:06:55Z</time>
      </trkpt>
      <trkpt lat="43.01633" lon="0.22783">
        <ele>1513.1</ele>
        <time>2023-11-19T13:06:56Z</time>
      </trkpt>
      <trkpt lat="43.01633" lon="0.22785">
        <ele>1513.3</ele>
        <time>2023-11-19T13:06:57Z</time>
      </trkpt>
      <trkpt lat="43.01632" lon="0.22786">
        <ele>1513.4</ele>
        <time>2023-11-19T13:06:58Z</time>
      </trkpt>
      <trkpt lat="43.01632" lon="0.22786">
        <ele>1513.6</ele>
        <time>2023-11-19T13:06:59Z</time>
      </trkpt>
      <trkpt lat="43.01631" lon="0.22786">
        <ele>1513.8</ele>
        <time>2023-11-19T13:07:00Z</time>
      </trkpt>
      <trkpt lat="43.0163" lon="0.22786">
        <ele>1513.9</ele>
        <time>2023-11-19T13:07:01Z</time>
      </trkpt>
      <trkpt lat="43.0163" lon="0.22786">
        <ele>1514</ele>
        <time>2023-11-19T13:07:02Z</time>
      </trkpt>
      <trkpt lat="43.01629" lon="0.22786">
        <ele>1514.1</ele>
        <time>2023-11-19T13:07:03Z</time>
      </trkpt>
      <trkpt lat="43.01629" lon="0.22787">
        <ele>1514.2</ele>
        <time>2023-11-19T13:07:04Z</time>
      </trkpt>
      <trkpt lat="43.01629" lon="0.22788">
        <ele>1514.4</ele>
        <time>2023-11-19T13:07:05Z</time>
      </trkpt>
      <trkpt lat="43.01629" lon="0.22789">
        <ele>1514.6</ele>
        <time>2023-11-19T13:07:06Z</time>
      </trkpt>
      <trkpt lat="43.0163" lon="0.2279">
        <ele>1514.8</ele>
        <time>2023-11-19T13:07:07Z</time>
      </trkpt>
      <trkpt lat="43.01629" lon="0.22791">
        <ele>1514.9</ele>
        <time>2023-11-19T13:07:08Z</time>
      </trkpt>
      <trkpt lat="43.01629" lon="0.22792">
        <ele>1515</ele>
        <time>2023-11-19T13:07:09Z</time>
      </trkpt>
      <trkpt lat="43.01629" lon="0.22793">
        <ele>1515.2</ele>
        <time>2023-11-19T13:07:10Z</time>
      </trkpt>
      <trkpt lat="43.01629" lon="0.22793">
        <ele>1515.3</ele>
        <time>2023-11-19T13:07:11Z</time>
      </trkpt>
      <trkpt lat="43.01628" lon="0.22794">
        <ele>1515.4</ele>
        <time>2023-11-19T13:07:12Z</time>
      </trkpt>
      <trkpt lat="43.01628" lon="0.22795">
        <ele>1515.6</ele>
        <time>2023-11-19T13:07:13Z</time>
      </trkpt>
      <trkpt lat="43.01628" lon="0.22795">
        <ele>1515.7</ele>
        <time>2023-11-19T13:07:14Z</time>
      </trkpt>
      <trkpt lat="43.01628" lon="0.22796">
        <ele>1515.8</ele>
        <time>2023-11-19T13:07:15Z</time>
      </trkpt>
      <trkpt lat="43.01628" lon="0.22797">
        <ele>1516</ele>
        <time>2023-11-19T13:07:16Z</time>
      </trkpt>
      <trkpt lat="43.01627" lon="0.22798">
        <ele>1516.1</ele>
        <time>2023-11-19T13:07:17Z</time>
      </trkpt>
      <trkpt lat="43.01627" lon="0.22799">
        <ele>1516.3</ele>
        <time>2023-11-19T13:07:18Z</time>
      </trkpt>
      <trkpt lat="43.01626" lon="0.22799">
        <ele>1516.4</ele>
        <time>2023-11-19T13:07:19Z</time>
      </trkpt>
      <trkpt lat="43.01626" lon="0.228">
        <ele>1516.5</ele>
        <time>2023-11-19T13:07:20Z</time>
      </trkpt>
      <trkpt lat="43.01626" lon="0.228">
        <ele>1516.5</ele>
        <time>2023-11-19T13:07:21Z</time>
      </trkpt>
      <trkpt lat="43.01626" lon="0.22801">
        <ele>1516.7</ele>
        <time>2023-11-19T13:07:22Z</time>
      </trkpt>
      <trkpt lat="43.01626" lon="0.22802">
        <ele>1516.9</ele>
        <time>2023-11-19T13:07:23Z</time>
      </trkpt>
      <trkpt lat="43.01626" lon="0.22802">
        <ele>1516.9</ele>
        <time>2023-11-19T13:07:24Z</time>
      </trkpt>
      <trkpt lat="43.01625" lon="0.22803">
        <ele>1517</ele>
        <time>2023-11-19T13:07:25Z</time>
      </trkpt>
      <trkpt lat="43.01624" lon="0.22803">
        <ele>1517.2</ele>
        <time>2023-11-19T13:07:26Z</time>
      </trkpt>
      <trkpt lat="43.01624" lon="0.22803">
        <ele>1517.4</ele>
        <time>2023-11-19T13:07:27Z</time>
      </trkpt>
      <trkpt lat="43.01623" lon="0.22803">
        <ele>1517.6</ele>
        <time>2023-11-19T13:07:28Z</time>
      </trkpt>
      <trkpt lat="43.01622" lon="0.22804">
        <ele>1517.8</ele>
        <time>2023-11-19T13:07:29Z</time>
      </trkpt>
      <trkpt lat="43.01622" lon="0.22805">
        <ele>1517.9</ele>
        <time>2023-11-19T13:07:30Z</time>
      </trkpt>
      <trkpt lat="43.01621" lon="0.22806">
        <ele>1518</ele>
        <time>2023-11-19T13:07:31Z</time>
      </trkpt>
      <trkpt lat="43.01621" lon="0.22806">
        <ele>1518.2</ele>
        <time>2023-11-19T13:07:32Z</time>
      </trkpt>
      <trkpt lat="43.01621" lon="0.22807">
        <ele>1518.3</ele>
        <time>2023-11-19T13:07:33Z</time>
      </trkpt>
      <trkpt lat="43.0162" lon="0.22808">
        <ele>1518.5</ele>
        <time>2023-11-19T13:07:34Z</time>
      </trkpt>
      <trkpt lat="43.0162" lon="0.22808">
        <ele>1518.6</ele>
        <time>2023-11-19T13:07:35Z</time>
      </trkpt>
      <trkpt lat="43.0162" lon="0.22809">
        <ele>1518.7</ele>
        <time>2023-11-19T13:07:36Z</time>
      </trkpt>
      <trkpt lat="43.0162" lon="0.2281">
        <ele>1518.9</ele>
        <time>2023-11-19T13:07:37Z</time>
      </trkpt>
      <trkpt lat="43.01619" lon="0.22811">
        <ele>1519</ele>
        <time>2023-11-19T13:07:38Z</time>
      </trkpt>
      <trkpt lat="43.01619" lon="0.22812">
        <ele>1519.2</ele>
        <time>2023-11-19T13:07:39Z</time>
      </trkpt>
      <trkpt lat="43.01619" lon="0.22812">
        <ele>1519.2</ele>
        <time>2023-11-19T13:07:40Z</time>
      </trkpt>
      <trkpt lat="43.01619" lon="0.22813">
        <ele>1519.4</ele>
        <time>2023-11-19T13:07:41Z</time>
      </trkpt>
      <trkpt lat="43.01618" lon="0.22813">
        <ele>1519.4</ele>
        <time>2023-11-19T13:07:42Z</time>
      </trkpt>
      <trkpt lat="43.01618" lon="0.22814">
        <ele>1519.6</ele>
        <time>2023-11-19T13:07:43Z</time>
      </trkpt>
      <trkpt lat="43.01617" lon="0.22815">
        <ele>1519.7</ele>
        <time>2023-11-19T13:07:44Z</time>
      </trkpt>
      <trkpt lat="43.01617" lon="0.22815">
        <ele>1519.8</ele>
        <time>2023-11-19T13:07:45Z</time>
      </trkpt>
      <trkpt lat="43.01618" lon="0.22816">
        <ele>1519.9</ele>
        <time>2023-11-19T13:07:46Z</time>
      </trkpt>
      <trkpt lat="43.01617" lon="0.22818">
        <ele>1520.2</ele>
        <time>2023-11-19T13:07:47Z</time>
      </trkpt>
      <trkpt lat="43.01617" lon="0.22819">
        <ele>1520.3</ele>
        <time>2023-11-19T13:07:48Z</time>
      </trkpt>
      <trkpt lat="43.01616" lon="0.22819">
        <ele>1520.4</ele>
        <time>2023-11-19T13:07:49Z</time>
      </trkpt>
      <trkpt lat="43.01616" lon="0.2282">
        <ele>1520.5</ele>
        <time>2023-11-19T13:07:50Z</time>
      </trkpt>
      <trkpt lat="43.01617" lon="0.22821">
        <ele>1520.7</ele>
        <time>2023-11-19T13:07:51Z</time>
      </trkpt>
      <trkpt lat="43.01617" lon="0.22821">
        <ele>1520.8</ele>
        <time>2023-11-19T13:07:52Z</time>
      </trkpt>
      <trkpt lat="43.01616" lon="0.22822">
        <ele>1520.9</ele>
        <time>2023-11-19T13:07:53Z</time>
      </trkpt>
      <trkpt lat="43.01616" lon="0.22823">
        <ele>1521</ele>
        <time>2023-11-19T13:07:54Z</time>
      </trkpt>
      <trkpt lat="43.01615" lon="0.22823">
        <ele>1521.2</ele>
        <time>2023-11-19T13:07:55Z</time>
      </trkpt>
      <trkpt lat="43.01614" lon="0.22824">
        <ele>1521.3</ele>
        <time>2023-11-19T13:07:56Z</time>
      </trkpt>
      <trkpt lat="43.01613" lon="0.22824">
        <ele>1521.5</ele>
        <time>2023-11-19T13:07:57Z</time>
      </trkpt>
      <trkpt lat="43.01612" lon="0.22824">
        <ele>1521.6</ele>
        <time>2023-11-19T13:07:58Z</time>
      </trkpt>
      <trkpt lat="43.01612" lon="0.22824">
        <ele>1521.8</ele>
        <time>2023-11-19T13:07:59Z</time>
      </trkpt>
      <trkpt lat="43.01611" lon="0.22825">
        <ele>1521.9</ele>
        <time>2023-11-19T13:08:00Z</time>
      </trkpt>
      <trkpt lat="43.01611" lon="0.22826">
        <ele>1522</ele>
        <time>2023-11-19T13:08:01Z</time>
      </trkpt>
      <trkpt lat="43.01611" lon="0.22827">
        <ele>1522.2</ele>
        <time>2023-11-19T13:08:02Z</time>
      </trkpt>
      <trkpt lat="43.0161" lon="0.22828">
        <ele>1522.3</ele>
        <time>2023-11-19T13:08:03Z</time>
      </trkpt>
      <trkpt lat="43.0161" lon="0.22829">
        <ele>1522.4</ele>
        <time>2023-11-19T13:08:04Z</time>
      </trkpt>
      <trkpt lat="43.01609" lon="0.2283">
        <ele>1522.5</ele>
        <time>2023-11-19T13:08:05Z</time>
      </trkpt>
      <trkpt lat="43.01609" lon="0.2283">
        <ele>1522.7</ele>
        <time>2023-11-19T13:08:06Z</time>
      </trkpt>
      <trkpt lat="43.01608" lon="0.22831">
        <ele>1522.8</ele>
        <time>2023-11-19T13:08:07Z</time>
      </trkpt>
      <trkpt lat="43.01607" lon="0.22831">
        <ele>1522.9</ele>
        <time>2023-11-19T13:08:08Z</time>
      </trkpt>
      <trkpt lat="43.01607" lon="0.22832">
        <ele>1523</ele>
        <time>2023-11-19T13:08:09Z</time>
      </trkpt>
      <trkpt lat="43.01607" lon="0.22833">
        <ele>1523.1</ele>
        <time>2023-11-19T13:08:10Z</time>
      </trkpt>
      <trkpt lat="43.01607" lon="0.22834">
        <ele>1523.2</ele>
        <time>2023-11-19T13:08:11Z</time>
      </trkpt>
      <trkpt lat="43.01608" lon="0.22836">
        <ele>1523.4</ele>
        <time>2023-11-19T13:08:12Z</time>
      </trkpt>
      <trkpt lat="43.01607" lon="0.22835">
        <ele>1523.5</ele>
        <time>2023-11-19T13:08:13Z</time>
      </trkpt>
      <trkpt lat="43.01606" lon="0.22835">
        <ele>1523.7</ele>
        <time>2023-11-19T13:08:14Z</time>
      </trkpt>
      <trkpt lat="43.01605" lon="0.22836">
        <ele>1523.7</ele>
        <time>2023-11-19T13:08:15Z</time>
      </trkpt>
      <trkpt lat="43.01605" lon="0.22836">
        <ele>1523.8</ele>
        <time>2023-11-19T13:08:16Z</time>
      </trkpt>
      <trkpt lat="43.01604" lon="0.22836">
        <ele>1523.9</ele>
        <time>2023-11-19T13:08:17Z</time>
      </trkpt>
      <trkpt lat="43.01604" lon="0.22836">
        <ele>1524</ele>
        <time>2023-11-19T13:08:18Z</time>
      </trkpt>
      <trkpt lat="43.01604" lon="0.22837">
        <ele>1524</ele>
        <time>2023-11-19T13:08:19Z</time>
      </trkpt>
      <trkpt lat="43.01603" lon="0.22838">
        <ele>1524.1</ele>
        <time>2023-11-19T13:08:20Z</time>
      </trkpt>
      <trkpt lat="43.01603" lon="0.22838">
        <ele>1524.1</ele>
        <time>2023-11-19T13:08:21Z</time>
      </trkpt>
      <trkpt lat="43.01603" lon="0.22839">
        <ele>1524.2</ele>
        <time>2023-11-19T13:08:22Z</time>
      </trkpt>
      <trkpt lat="43.01603" lon="0.2284">
        <ele>1524.3</ele>
        <time>2023-11-19T13:08:23Z</time>
      </trkpt>
      <trkpt lat="43.01603" lon="0.2284">
        <ele>1524.4</ele>
        <time>2023-11-19T13:08:24Z</time>
      </trkpt>
      <trkpt lat="43.01603" lon="0.2284">
        <ele>1524.4</ele>
        <time>2023-11-19T13:08:25Z</time>
      </trkpt>
      <trkpt lat="43.01603" lon="0.2284">
        <ele>1524.4</ele>
        <time>2023-11-19T13:08:26Z</time>
      </trkpt>
      <trkpt lat="43.01603" lon="0.2284">
        <ele>1524.4</ele>
        <time>2023-11-19T13:08:27Z</time>
      </trkpt>
      <trkpt lat="43.01603" lon="0.2284">
        <ele>1524.4</ele>
        <time>2023-11-19T13:08:28Z</time>
      </trkpt>
      <trkpt lat="43.01603" lon="0.2284">
        <ele>1524.5</ele>
        <time>2023-11-19T13:08:29Z</time>
      </trkpt>
      <trkpt lat="43.01603" lon="0.2284">
        <ele>1524.5</ele>
        <time>2023-11-19T13:08:30Z</time>
      </trkpt>
      <trkpt lat="43.01603" lon="0.2284">
        <ele>1524.5</ele>
        <time>2023-11-19T13:08:31Z</time>
      </trkpt>
      <trkpt lat="43.01603" lon="0.2284">
        <ele>1524.5</ele>
        <time>2023-11-19T13:08:32Z</time>
      </trkpt>
      <trkpt lat="43.01603" lon="0.2284">
        <ele>1524.5</ele>
        <time>2023-11-19T13:08:33Z</time>
      </trkpt>
      <trkpt lat="43.01603" lon="0.2284">
        <ele>1524.5</ele>
        <time>2023-11-19T13:08:34Z</time>
      </trkpt>
      <trkpt lat="43.01603" lon="0.2284">
        <ele>1524.5</ele>
        <time>2023-11-19T13:08:35Z</time>
      </trkpt>
      <trkpt lat="43.01603" lon="0.2284">
        <ele>1524.5</ele>
        <time>2023-11-19T13:08:36Z</time>
      </trkpt>
      <trkpt lat="43.01603" lon="0.2284">
        <ele>1524.5</ele>
        <time>2023-11-19T13:08:37Z</time>
      </trkpt>
      <trkpt lat="43.01603" lon="0.2284">
        <ele>1524.5</ele>
        <time>2023-11-19T13:08:38Z</time>
      </trkpt>
      <trkpt lat="43.01603" lon="0.2284">
        <ele>1524.5</ele>
        <time>2023-11-19T13:08:39Z</time>
      </trkpt>
      <trkpt lat="43.01603" lon="0.22841">
        <ele>1524.5</ele>
        <time>2023-11-19T13:08:40Z</time>
      </trkpt>
      <trkpt lat="43.01603" lon="0.22841">
        <ele>1524.5</ele>
        <time>2023-11-19T13:08:41Z</time>
      </trkpt>
      <trkpt lat="43.01603" lon="0.22841">
        <ele>1524.6</ele>
        <time>2023-11-19T13:08:42Z</time>
      </trkpt>
      <trkpt lat="43.01603" lon="0.22841">
        <ele>1524.6</ele>
        <time>2023-11-19T13:08:43Z</time>
      </trkpt>
      <trkpt lat="43.01603" lon="0.22841">
        <ele>1524.6</ele>
        <time>2023-11-19T13:08:44Z</time>
      </trkpt>
      <trkpt lat="43.01603" lon="0.22841">
        <ele>1524.6</ele>
        <time>2023-11-19T13:08:45Z</time>
      </trkpt>
      <trkpt lat="43.01603" lon="0.22841">
        <ele>1524.6</ele>
        <time>2023-11-19T13:08:46Z</time>
      </trkpt>
      <trkpt lat="43.01604" lon="0.22842">
        <ele>1524.7</ele>
        <time>2023-11-19T13:08:47Z</time>
      </trkpt>
      <trkpt lat="43.01603" lon="0.22842">
        <ele>1524.8</ele>
        <time>2023-11-19T13:08:48Z</time>
      </trkpt>
      <trkpt lat="43.01603" lon="0.22844">
        <ele>1524.9</ele>
        <time>2023-11-19T13:08:49Z</time>
      </trkpt>
      <trkpt lat="43.01602" lon="0.22845">
        <ele>1525</ele>
        <time>2023-11-19T13:08:50Z</time>
      </trkpt>
      <trkpt lat="43.01602" lon="0.22846">
        <ele>1525.1</ele>
        <time>2023-11-19T13:08:51Z</time>
      </trkpt>
      <trkpt lat="43.01601" lon="0.22847">
        <ele>1525.2</ele>
        <time>2023-11-19T13:08:52Z</time>
      </trkpt>
      <trkpt lat="43.01601" lon="0.22848">
        <ele>1525.3</ele>
        <time>2023-11-19T13:08:53Z</time>
      </trkpt>
      <trkpt lat="43.01601" lon="0.22849">
        <ele>1525.3</ele>
        <time>2023-11-19T13:08:54Z</time>
      </trkpt>
      <trkpt lat="43.01601" lon="0.22849">
        <ele>1525.4</ele>
        <time>2023-11-19T13:08:55Z</time>
      </trkpt>
      <trkpt lat="43.016" lon="0.2285">
        <ele>1525.5</ele>
        <time>2023-11-19T13:08:56Z</time>
      </trkpt>
      <trkpt lat="43.016" lon="0.22851">
        <ele>1525.5</ele>
        <time>2023-11-19T13:08:57Z</time>
      </trkpt>
      <trkpt lat="43.01599" lon="0.22852">
        <ele>1525.6</ele>
        <time>2023-11-19T13:08:58Z</time>
      </trkpt>
      <trkpt lat="43.01599" lon="0.22853">
        <ele>1525.7</ele>
        <time>2023-11-19T13:08:59Z</time>
      </trkpt>
      <trkpt lat="43.01599" lon="0.22853">
        <ele>1525.8</ele>
        <time>2023-11-19T13:09:00Z</time>
      </trkpt>
      <trkpt lat="43.01599" lon="0.22855">
        <ele>1525.9</ele>
        <time>2023-11-19T13:09:01Z</time>
      </trkpt>
      <trkpt lat="43.01598" lon="0.22856">
        <ele>1526</ele>
        <time>2023-11-19T13:09:02Z</time>
      </trkpt>
      <trkpt lat="43.01598" lon="0.22857">
        <ele>1526.1</ele>
        <time>2023-11-19T13:09:03Z</time>
      </trkpt>
      <trkpt lat="43.01597" lon="0.22858">
        <ele>1526.2</ele>
        <time>2023-11-19T13:09:04Z</time>
      </trkpt>
      <trkpt lat="43.01596" lon="0.2286">
        <ele>1526.4</ele>
        <time>2023-11-19T13:09:05Z</time>
      </trkpt>
      <trkpt lat="43.01596" lon="0.22861">
        <ele>1526.5</ele>
        <time>2023-11-19T13:09:06Z</time>
      </trkpt>
      <trkpt lat="43.01596" lon="0.22862">
        <ele>1526.5</ele>
        <time>2023-11-19T13:09:07Z</time>
      </trkpt>
      <trkpt lat="43.01595" lon="0.22863">
        <ele>1526.6</ele>
        <time>2023-11-19T13:09:08Z</time>
      </trkpt>
      <trkpt lat="43.01595" lon="0.22863">
        <ele>1526.7</ele>
        <time>2023-11-19T13:09:09Z</time>
      </trkpt>
      <trkpt lat="43.01594" lon="0.22864">
        <ele>1526.8</ele>
        <time>2023-11-19T13:09:10Z</time>
      </trkpt>
      <trkpt lat="43.01593" lon="0.22865">
        <ele>1526.9</ele>
        <time>2023-11-19T13:09:11Z</time>
      </trkpt>
      <trkpt lat="43.01593" lon="0.22866">
        <ele>1527</ele>
        <time>2023-11-19T13:09:12Z</time>
      </trkpt>
      <trkpt lat="43.01593" lon="0.22867">
        <ele>1527</ele>
        <time>2023-11-19T13:09:13Z</time>
      </trkpt>
      <trkpt lat="43.01593" lon="0.22868">
        <ele>1527.1</ele>
        <time>2023-11-19T13:09:14Z</time>
      </trkpt>
      <trkpt lat="43.01592" lon="0.22869">
        <ele>1527.2</ele>
        <time>2023-11-19T13:09:15Z</time>
      </trkpt>
      <trkpt lat="43.01592" lon="0.2287">
        <ele>1527.3</ele>
        <time>2023-11-19T13:09:16Z</time>
      </trkpt>
      <trkpt lat="43.01591" lon="0.22871">
        <ele>1527.4</ele>
        <time>2023-11-19T13:09:17Z</time>
      </trkpt>
      <trkpt lat="43.01591" lon="0.22872">
        <ele>1527.4</ele>
        <time>2023-11-19T13:09:18Z</time>
      </trkpt>
      <trkpt lat="43.0159" lon="0.22873">
        <ele>1527.5</ele>
        <time>2023-11-19T13:09:19Z</time>
      </trkpt>
      <trkpt lat="43.01589" lon="0.22874">
        <ele>1527.6</ele>
        <time>2023-11-19T13:09:20Z</time>
      </trkpt>
      <trkpt lat="43.01589" lon="0.22874">
        <ele>1527.7</ele>
        <time>2023-11-19T13:09:21Z</time>
      </trkpt>
      <trkpt lat="43.01589" lon="0.22876">
        <ele>1527.8</ele>
        <time>2023-11-19T13:09:22Z</time>
      </trkpt>
      <trkpt lat="43.01588" lon="0.22877">
        <ele>1527.9</ele>
        <time>2023-11-19T13:09:23Z</time>
      </trkpt>
      <trkpt lat="43.01588" lon="0.22878">
        <ele>1528</ele>
        <time>2023-11-19T13:09:24Z</time>
      </trkpt>
      <trkpt lat="43.01587" lon="0.22878">
        <ele>1528.1</ele>
        <time>2023-11-19T13:09:25Z</time>
      </trkpt>
      <trkpt lat="43.01586" lon="0.22879">
        <ele>1528.2</ele>
        <time>2023-11-19T13:09:26Z</time>
      </trkpt>
      <trkpt lat="43.01586" lon="0.22881">
        <ele>1528.3</ele>
        <time>2023-11-19T13:09:27Z</time>
      </trkpt>
      <trkpt lat="43.01586" lon="0.22882">
        <ele>1528.4</ele>
        <time>2023-11-19T13:09:28Z</time>
      </trkpt>
      <trkpt lat="43.01585" lon="0.22884">
        <ele>1528.5</ele>
        <time>2023-11-19T13:09:29Z</time>
      </trkpt>
      <trkpt lat="43.01585" lon="0.22884">
        <ele>1528.6</ele>
        <time>2023-11-19T13:09:30Z</time>
      </trkpt>
      <trkpt lat="43.01585" lon="0.22886">
        <ele>1528.7</ele>
        <time>2023-11-19T13:09:31Z</time>
      </trkpt>
      <trkpt lat="43.01585" lon="0.22887">
        <ele>1528.8</ele>
        <time>2023-11-19T13:09:32Z</time>
      </trkpt>
      <trkpt lat="43.01584" lon="0.22888">
        <ele>1528.9</ele>
        <time>2023-11-19T13:09:33Z</time>
      </trkpt>
      <trkpt lat="43.01584" lon="0.22889">
        <ele>1529</ele>
        <time>2023-11-19T13:09:34Z</time>
      </trkpt>
      <trkpt lat="43.01584" lon="0.22891">
        <ele>1529.1</ele>
        <time>2023-11-19T13:09:35Z</time>
      </trkpt>
      <trkpt lat="43.01583" lon="0.22892">
        <ele>1529.2</ele>
        <time>2023-11-19T13:09:36Z</time>
      </trkpt>
      <trkpt lat="43.01583" lon="0.22893">
        <ele>1529.3</ele>
        <time>2023-11-19T13:09:37Z</time>
      </trkpt>
      <trkpt lat="43.01583" lon="0.22893">
        <ele>1529.4</ele>
        <time>2023-11-19T13:09:38Z</time>
      </trkpt>
      <trkpt lat="43.01582" lon="0.22894">
        <ele>1529.5</ele>
        <time>2023-11-19T13:09:39Z</time>
      </trkpt>
      <trkpt lat="43.01581" lon="0.22895">
        <ele>1529.6</ele>
        <time>2023-11-19T13:09:40Z</time>
      </trkpt>
      <trkpt lat="43.0158" lon="0.22896">
        <ele>1529.7</ele>
        <time>2023-11-19T13:09:41Z</time>
      </trkpt>
      <trkpt lat="43.0158" lon="0.22897">
        <ele>1529.8</ele>
        <time>2023-11-19T13:09:42Z</time>
      </trkpt>
      <trkpt lat="43.01579" lon="0.22898">
        <ele>1529.9</ele>
        <time>2023-11-19T13:09:43Z</time>
      </trkpt>
      <trkpt lat="43.01579" lon="0.22899">
        <ele>1530</ele>
        <time>2023-11-19T13:09:44Z</time>
      </trkpt>
      <trkpt lat="43.01578" lon="0.229">
        <ele>1530.2</ele>
        <time>2023-11-19T13:09:45Z</time>
      </trkpt>
      <trkpt lat="43.01577" lon="0.22901">
        <ele>1530.3</ele>
        <time>2023-11-19T13:09:46Z</time>
      </trkpt>
      <trkpt lat="43.01577" lon="0.22902">
        <ele>1530.5</ele>
        <time>2023-11-19T13:09:47Z</time>
      </trkpt>
      <trkpt lat="43.01576" lon="0.22903">
        <ele>1530.6</ele>
        <time>2023-11-19T13:09:48Z</time>
      </trkpt>
      <trkpt lat="43.01575" lon="0.22904">
        <ele>1530.7</ele>
        <time>2023-11-19T13:09:49Z</time>
      </trkpt>
      <trkpt lat="43.01574" lon="0.22907">
        <ele>1531</ele>
        <time>2023-11-19T13:09:50Z</time>
      </trkpt>
      <trkpt lat="43.01574" lon="0.22908">
        <ele>1531.1</ele>
        <time>2023-11-19T13:09:51Z</time>
      </trkpt>
      <trkpt lat="43.01574" lon="0.22909">
        <ele>1531.3</ele>
        <time>2023-11-19T13:09:52Z</time>
      </trkpt>
      <trkpt lat="43.01574" lon="0.2291">
        <ele>1531.4</ele>
        <time>2023-11-19T13:09:53Z</time>
      </trkpt>
      <trkpt lat="43.01573" lon="0.22912">
        <ele>1531.6</ele>
        <time>2023-11-19T13:09:54Z</time>
      </trkpt>
      <trkpt lat="43.01574" lon="0.22914">
        <ele>1531.8</ele>
        <time>2023-11-19T13:09:55Z</time>
      </trkpt>
      <trkpt lat="43.01574" lon="0.22915">
        <ele>1532</ele>
        <time>2023-11-19T13:09:56Z</time>
      </trkpt>
      <trkpt lat="43.01574" lon="0.22917">
        <ele>1532.2</ele>
        <time>2023-11-19T13:09:57Z</time>
      </trkpt>
      <trkpt lat="43.01574" lon="0.22918">
        <ele>1532.4</ele>
        <time>2023-11-19T13:09:58Z</time>
      </trkpt>
      <trkpt lat="43.01574" lon="0.22919">
        <ele>1532.5</ele>
        <time>2023-11-19T13:09:59Z</time>
      </trkpt>
      <trkpt lat="43.01574" lon="0.22921">
        <ele>1532.8</ele>
        <time>2023-11-19T13:10:00Z</time>
      </trkpt>
      <trkpt lat="43.01574" lon="0.22922">
        <ele>1532.9</ele>
        <time>2023-11-19T13:10:01Z</time>
      </trkpt>
      <trkpt lat="43.01574" lon="0.22923">
        <ele>1533</ele>
        <time>2023-11-19T13:10:02Z</time>
      </trkpt>
      <trkpt lat="43.01574" lon="0.22923">
        <ele>1533.1</ele>
        <time>2023-11-19T13:10:03Z</time>
      </trkpt>
      <trkpt lat="43.01574" lon="0.22924">
        <ele>1533.2</ele>
        <time>2023-11-19T13:10:04Z</time>
      </trkpt>
      <trkpt lat="43.01574" lon="0.22925">
        <ele>1533.3</ele>
        <time>2023-11-19T13:10:05Z</time>
      </trkpt>
      <trkpt lat="43.01573" lon="0.22926">
        <ele>1533.5</ele>
        <time>2023-11-19T13:10:06Z</time>
      </trkpt>
      <trkpt lat="43.01573" lon="0.22927">
        <ele>1533.7</ele>
        <time>2023-11-19T13:10:07Z</time>
      </trkpt>
      <trkpt lat="43.01573" lon="0.22928">
        <ele>1533.9</ele>
        <time>2023-11-19T13:10:08Z</time>
      </trkpt>
      <trkpt lat="43.01572" lon="0.2293">
        <ele>1534.1</ele>
        <time>2023-11-19T13:10:09Z</time>
      </trkpt>
      <trkpt lat="43.01572" lon="0.22931">
        <ele>1534.3</ele>
        <time>2023-11-19T13:10:10Z</time>
      </trkpt>
      <trkpt lat="43.01572" lon="0.22932">
        <ele>1534.6</ele>
        <time>2023-11-19T13:10:11Z</time>
      </trkpt>
      <trkpt lat="43.01572" lon="0.22933">
        <ele>1534.7</ele>
        <time>2023-11-19T13:10:12Z</time>
      </trkpt>
      <trkpt lat="43.01572" lon="0.22935">
        <ele>1534.9</ele>
        <time>2023-11-19T13:10:13Z</time>
      </trkpt>
      <trkpt lat="43.01571" lon="0.22936">
        <ele>1535.1</ele>
        <time>2023-11-19T13:10:14Z</time>
      </trkpt>
      <trkpt lat="43.0157" lon="0.22937">
        <ele>1535.3</ele>
        <time>2023-11-19T13:10:15Z</time>
      </trkpt>
      <trkpt lat="43.0157" lon="0.22938">
        <ele>1535.6</ele>
        <time>2023-11-19T13:10:16Z</time>
      </trkpt>
      <trkpt lat="43.01569" lon="0.22939">
        <ele>1535.8</ele>
        <time>2023-11-19T13:10:17Z</time>
      </trkpt>
      <trkpt lat="43.01569" lon="0.2294">
        <ele>1536</ele>
        <time>2023-11-19T13:10:18Z</time>
      </trkpt>
      <trkpt lat="43.01569" lon="0.22941">
        <ele>1536.2</ele>
        <time>2023-11-19T13:10:19Z</time>
      </trkpt>
      <trkpt lat="43.01568" lon="0.22943">
        <ele>1536.4</ele>
        <time>2023-11-19T13:10:20Z</time>
      </trkpt>
      <trkpt lat="43.01568" lon="0.22944">
        <ele>1536.6</ele>
        <time>2023-11-19T13:10:21Z</time>
      </trkpt>
      <trkpt lat="43.01568" lon="0.22945">
        <ele>1536.9</ele>
        <time>2023-11-19T13:10:22Z</time>
      </trkpt>
      <trkpt lat="43.01568" lon="0.22946">
        <ele>1537</ele>
        <time>2023-11-19T13:10:23Z</time>
      </trkpt>
      <trkpt lat="43.01568" lon="0.22947">
        <ele>1537.2</ele>
        <time>2023-11-19T13:10:24Z</time>
      </trkpt>
      <trkpt lat="43.01567" lon="0.22947">
        <ele>1537.3</ele>
        <time>2023-11-19T13:10:25Z</time>
      </trkpt>
      <trkpt lat="43.01566" lon="0.22948">
        <ele>1537.6</ele>
        <time>2023-11-19T13:10:26Z</time>
      </trkpt>
      <trkpt lat="43.01565" lon="0.2295">
        <ele>1537.8</ele>
        <time>2023-11-19T13:10:27Z</time>
      </trkpt>
      <trkpt lat="43.01565" lon="0.2295">
        <ele>1538</ele>
        <time>2023-11-19T13:10:28Z</time>
      </trkpt>
      <trkpt lat="43.01565" lon="0.22951">
        <ele>1538.2</ele>
        <time>2023-11-19T13:10:29Z</time>
      </trkpt>
      <trkpt lat="43.01565" lon="0.22952">
        <ele>1538.4</ele>
        <time>2023-11-19T13:10:30Z</time>
      </trkpt>
      <trkpt lat="43.01564" lon="0.22954">
        <ele>1538.8</ele>
        <time>2023-11-19T13:10:31Z</time>
      </trkpt>
      <trkpt lat="43.01564" lon="0.22955">
        <ele>1538.9</ele>
        <time>2023-11-19T13:10:32Z</time>
      </trkpt>
      <trkpt lat="43.01564" lon="0.22956">
        <ele>1539</ele>
        <time>2023-11-19T13:10:33Z</time>
      </trkpt>
      <trkpt lat="43.01563" lon="0.22956">
        <ele>1539.1</ele>
        <time>2023-11-19T13:10:34Z</time>
      </trkpt>
      <trkpt lat="43.01563" lon="0.22957">
        <ele>1539.3</ele>
        <time>2023-11-19T13:10:35Z</time>
      </trkpt>
      <trkpt lat="43.01562" lon="0.22958">
        <ele>1539.5</ele>
        <time>2023-11-19T13:10:36Z</time>
      </trkpt>
      <trkpt lat="43.01563" lon="0.22959">
        <ele>1539.8</ele>
        <time>2023-11-19T13:10:37Z</time>
      </trkpt>
      <trkpt lat="43.01563" lon="0.2296">
        <ele>1539.9</ele>
        <time>2023-11-19T13:10:38Z</time>
      </trkpt>
      <trkpt lat="43.01563" lon="0.2296">
        <ele>1540.1</ele>
        <time>2023-11-19T13:10:39Z</time>
      </trkpt>
      <trkpt lat="43.01563" lon="0.22961">
        <ele>1540.2</ele>
        <time>2023-11-19T13:10:40Z</time>
      </trkpt>
      <trkpt lat="43.01562" lon="0.22962">
        <ele>1540.5</ele>
        <time>2023-11-19T13:10:41Z</time>
      </trkpt>
      <trkpt lat="43.01562" lon="0.22963">
        <ele>1540.6</ele>
        <time>2023-11-19T13:10:42Z</time>
      </trkpt>
      <trkpt lat="43.01562" lon="0.22964">
        <ele>1540.8</ele>
        <time>2023-11-19T13:10:43Z</time>
      </trkpt>
      <trkpt lat="43.01561" lon="0.22965">
        <ele>1541</ele>
        <time>2023-11-19T13:10:44Z</time>
      </trkpt>
      <trkpt lat="43.01561" lon="0.22966">
        <ele>1541.3</ele>
        <time>2023-11-19T13:10:45Z</time>
      </trkpt>
      <trkpt lat="43.0156" lon="0.22967">
        <ele>1541.5</ele>
        <time>2023-11-19T13:10:46Z</time>
      </trkpt>
      <trkpt lat="43.0156" lon="0.22968">
        <ele>1541.7</ele>
        <time>2023-11-19T13:10:47Z</time>
      </trkpt>
      <trkpt lat="43.0156" lon="0.22969">
        <ele>1541.9</ele>
        <time>2023-11-19T13:10:48Z</time>
      </trkpt>
      <trkpt lat="43.01559" lon="0.2297">
        <ele>1542.1</ele>
        <time>2023-11-19T13:10:49Z</time>
      </trkpt>
      <trkpt lat="43.01559" lon="0.22971">
        <ele>1542.2</ele>
        <time>2023-11-19T13:10:50Z</time>
      </trkpt>
      <trkpt lat="43.01559" lon="0.22971">
        <ele>1542.4</ele>
        <time>2023-11-19T13:10:51Z</time>
      </trkpt>
      <trkpt lat="43.01559" lon="0.22972">
        <ele>1542.5</ele>
        <time>2023-11-19T13:10:52Z</time>
      </trkpt>
      <trkpt lat="43.01559" lon="0.22972">
        <ele>1542.6</ele>
        <time>2023-11-19T13:10:53Z</time>
      </trkpt>
      <trkpt lat="43.01559" lon="0.22973">
        <ele>1542.8</ele>
        <time>2023-11-19T13:10:54Z</time>
      </trkpt>
      <trkpt lat="43.01559" lon="0.22975">
        <ele>1543.1</ele>
        <time>2023-11-19T13:10:55Z</time>
      </trkpt>
      <trkpt lat="43.01559" lon="0.22976">
        <ele>1543.4</ele>
        <time>2023-11-19T13:10:56Z</time>
      </trkpt>
      <trkpt lat="43.01559" lon="0.22977">
        <ele>1543.5</ele>
        <time>2023-11-19T13:10:57Z</time>
      </trkpt>
      <trkpt lat="43.01558" lon="0.22977">
        <ele>1543.7</ele>
        <time>2023-11-19T13:10:58Z</time>
      </trkpt>
      <trkpt lat="43.01559" lon="0.22978">
        <ele>1543.8</ele>
        <time>2023-11-19T13:10:59Z</time>
      </trkpt>
      <trkpt lat="43.01558" lon="0.22979">
        <ele>1544.1</ele>
        <time>2023-11-19T13:11:00Z</time>
      </trkpt>
      <trkpt lat="43.01557" lon="0.22981">
        <ele>1544.6</ele>
        <time>2023-11-19T13:11:01Z</time>
      </trkpt>
      <trkpt lat="43.01557" lon="0.22983">
        <ele>1545</ele>
        <time>2023-11-19T13:11:02Z</time>
      </trkpt>
      <trkpt lat="43.01556" lon="0.22984">
        <ele>1545.3</ele>
        <time>2023-11-19T13:11:03Z</time>
      </trkpt>
      <trkpt lat="43.01556" lon="0.22983">
        <ele>1545.7</ele>
        <time>2023-11-19T13:11:04Z</time>
      </trkpt>
      <trkpt lat="43.01556" lon="0.22983">
        <ele>1545.9</ele>
        <time>2023-11-19T13:11:05Z</time>
      </trkpt>
      <trkpt lat="43.01556" lon="0.22984">
        <ele>1546</ele>
        <time>2023-11-19T13:11:06Z</time>
      </trkpt>
      <trkpt lat="43.01556" lon="0.22985">
        <ele>1546.2</ele>
        <time>2023-11-19T13:11:07Z</time>
      </trkpt>
      <trkpt lat="43.01556" lon="0.22986">
        <ele>1546.4</ele>
        <time>2023-11-19T13:11:08Z</time>
      </trkpt>
      <trkpt lat="43.01557" lon="0.22987">
        <ele>1546.6</ele>
        <time>2023-11-19T13:11:09Z</time>
      </trkpt>
      <trkpt lat="43.01556" lon="0.22988">
        <ele>1546.8</ele>
        <time>2023-11-19T13:11:10Z</time>
      </trkpt>
      <trkpt lat="43.01557" lon="0.22989">
        <ele>1547</ele>
        <time>2023-11-19T13:11:11Z</time>
      </trkpt>
      <trkpt lat="43.01557" lon="0.2299">
        <ele>1547.3</ele>
        <time>2023-11-19T13:11:12Z</time>
      </trkpt>
      <trkpt lat="43.01556" lon="0.22991">
        <ele>1547.5</ele>
        <time>2023-11-19T13:11:13Z</time>
      </trkpt>
      <trkpt lat="43.01556" lon="0.22992">
        <ele>1547.8</ele>
        <time>2023-11-19T13:11:14Z</time>
      </trkpt>
      <trkpt lat="43.01556" lon="0.22993">
        <ele>1548</ele>
        <time>2023-11-19T13:11:15Z</time>
      </trkpt>
      <trkpt lat="43.01555" lon="0.22994">
        <ele>1548.2</ele>
        <time>2023-11-19T13:11:16Z</time>
      </trkpt>
      <trkpt lat="43.01555" lon="0.22995">
        <ele>1548.4</ele>
        <time>2023-11-19T13:11:17Z</time>
      </trkpt>
      <trkpt lat="43.01555" lon="0.22996">
        <ele>1548.7</ele>
        <time>2023-11-19T13:11:18Z</time>
      </trkpt>
      <trkpt lat="43.01554" lon="0.22997">
        <ele>1548.8</ele>
        <time>2023-11-19T13:11:19Z</time>
      </trkpt>
      <trkpt lat="43.01554" lon="0.22998">
        <ele>1549.1</ele>
        <time>2023-11-19T13:11:20Z</time>
      </trkpt>
      <trkpt lat="43.01553" lon="0.22998">
        <ele>1549.3</ele>
        <time>2023-11-19T13:11:21Z</time>
      </trkpt>
      <trkpt lat="43.01552" lon="0.22999">
        <ele>1549.6</ele>
        <time>2023-11-19T13:11:22Z</time>
      </trkpt>
      <trkpt lat="43.01552" lon="0.23">
        <ele>1549.8</ele>
        <time>2023-11-19T13:11:23Z</time>
      </trkpt>
      <trkpt lat="43.01552" lon="0.23001">
        <ele>1550</ele>
        <time>2023-11-19T13:11:24Z</time>
      </trkpt>
      <trkpt lat="43.01552" lon="0.23002">
        <ele>1550.2</ele>
        <time>2023-11-19T13:11:25Z</time>
      </trkpt>
      <trkpt lat="43.01552" lon="0.23003">
        <ele>1550.4</ele>
        <time>2023-11-19T13:11:26Z</time>
      </trkpt>
      <trkpt lat="43.01551" lon="0.23004">
        <ele>1550.6</ele>
        <time>2023-11-19T13:11:27Z</time>
      </trkpt>
      <trkpt lat="43.01551" lon="0.23004">
        <ele>1550.8</ele>
        <time>2023-11-19T13:11:28Z</time>
      </trkpt>
      <trkpt lat="43.01551" lon="0.23005">
        <ele>1551</ele>
        <time>2023-11-19T13:11:29Z</time>
      </trkpt>
      <trkpt lat="43.01551" lon="0.23006">
        <ele>1551.1</ele>
        <time>2023-11-19T13:11:30Z</time>
      </trkpt>
      <trkpt lat="43.01551" lon="0.23006">
        <ele>1551.2</ele>
        <time>2023-11-19T13:11:31Z</time>
      </trkpt>
      <trkpt lat="43.0155" lon="0.23007">
        <ele>1551.4</ele>
        <time>2023-11-19T13:11:32Z</time>
      </trkpt>
      <trkpt lat="43.0155" lon="0.23008">
        <ele>1551.6</ele>
        <time>2023-11-19T13:11:33Z</time>
      </trkpt>
      <trkpt lat="43.0155" lon="0.23009">
        <ele>1551.9</ele>
        <time>2023-11-19T13:11:34Z</time>
      </trkpt>
      <trkpt lat="43.0155" lon="0.2301">
        <ele>1552.1</ele>
        <time>2023-11-19T13:11:35Z</time>
      </trkpt>
      <trkpt lat="43.0155" lon="0.23012">
        <ele>1552.3</ele>
        <time>2023-11-19T13:11:36Z</time>
      </trkpt>
      <trkpt lat="43.0155" lon="0.23013">
        <ele>1552.5</ele>
        <time>2023-11-19T13:11:37Z</time>
      </trkpt>
      <trkpt lat="43.0155" lon="0.23014">
        <ele>1552.8</ele>
        <time>2023-11-19T13:11:38Z</time>
      </trkpt>
      <trkpt lat="43.0155" lon="0.23015">
        <ele>1553</ele>
        <time>2023-11-19T13:11:39Z</time>
      </trkpt>
      <trkpt lat="43.01549" lon="0.23015">
        <ele>1553.1</ele>
        <time>2023-11-19T13:11:40Z</time>
      </trkpt>
      <trkpt lat="43.01549" lon="0.23016">
        <ele>1553.3</ele>
        <time>2023-11-19T13:11:41Z</time>
      </trkpt>
      <trkpt lat="43.01549" lon="0.23017">
        <ele>1553.5</ele>
        <time>2023-11-19T13:11:42Z</time>
      </trkpt>
      <trkpt lat="43.01548" lon="0.23017">
        <ele>1553.6</ele>
        <time>2023-11-19T13:11:43Z</time>
      </trkpt>
      <trkpt lat="43.01548" lon="0.23018">
        <ele>1553.8</ele>
        <time>2023-11-19T13:11:44Z</time>
      </trkpt>
      <trkpt lat="43.01548" lon="0.23018">
        <ele>1553.9</ele>
        <time>2023-11-19T13:11:45Z</time>
      </trkpt>
      <trkpt lat="43.01548" lon="0.23019">
        <ele>1554</ele>
        <time>2023-11-19T13:11:46Z</time>
      </trkpt>
      <trkpt lat="43.01548" lon="0.2302">
        <ele>1554.3</ele>
        <time>2023-11-19T13:11:47Z</time>
      </trkpt>
      <trkpt lat="43.01547" lon="0.23021">
        <ele>1554.5</ele>
        <time>2023-11-19T13:11:48Z</time>
      </trkpt>
      <trkpt lat="43.01547" lon="0.23022">
        <ele>1554.7</ele>
        <time>2023-11-19T13:11:49Z</time>
      </trkpt>
      <trkpt lat="43.01547" lon="0.23023">
        <ele>1554.7</ele>
        <time>2023-11-19T13:11:50Z</time>
      </trkpt>
      <trkpt lat="43.01547" lon="0.23023">
        <ele>1554.8</ele>
        <time>2023-11-19T13:11:51Z</time>
      </trkpt>
      <trkpt lat="43.01547" lon="0.23023">
        <ele>1554.9</ele>
        <time>2023-11-19T13:11:52Z</time>
      </trkpt>
      <trkpt lat="43.01547" lon="0.23023">
        <ele>1554.9</ele>
        <time>2023-11-19T13:11:53Z</time>
      </trkpt>
      <trkpt lat="43.01547" lon="0.23023">
        <ele>1554.9</ele>
        <time>2023-11-19T13:11:54Z</time>
      </trkpt>
      <trkpt lat="43.01546" lon="0.23024">
        <ele>1555.2</ele>
        <time>2023-11-19T13:11:55Z</time>
      </trkpt>
      <trkpt lat="43.01546" lon="0.23025">
        <ele>1555.3</ele>
        <time>2023-11-19T13:11:56Z</time>
      </trkpt>
      <trkpt lat="43.01546" lon="0.23025">
        <ele>1555.4</ele>
        <time>2023-11-19T13:11:57Z</time>
      </trkpt>
      <trkpt lat="43.01546" lon="0.23026">
        <ele>1555.5</ele>
        <time>2023-11-19T13:11:58Z</time>
      </trkpt>
      <trkpt lat="43.01546" lon="0.23027">
        <ele>1555.6</ele>
        <time>2023-11-19T13:11:59Z</time>
      </trkpt>
      <trkpt lat="43.01545" lon="0.23027">
        <ele>1555.8</ele>
        <time>2023-11-19T13:12:00Z</time>
      </trkpt>
      <trkpt lat="43.01545" lon="0.23027">
        <ele>1555.9</ele>
        <time>2023-11-19T13:12:01Z</time>
      </trkpt>
      <trkpt lat="43.01544" lon="0.23027">
        <ele>1556</ele>
        <time>2023-11-19T13:12:02Z</time>
      </trkpt>
      <trkpt lat="43.01544" lon="0.23028">
        <ele>1556.1</ele>
        <time>2023-11-19T13:12:03Z</time>
      </trkpt>
      <trkpt lat="43.01543" lon="0.23029">
        <ele>1556.3</ele>
        <time>2023-11-19T13:12:04Z</time>
      </trkpt>
      <trkpt lat="43.01543" lon="0.23029">
        <ele>1556.4</ele>
        <time>2023-11-19T13:12:05Z</time>
      </trkpt>
      <trkpt lat="43.01543" lon="0.23029">
        <ele>1556.4</ele>
        <time>2023-11-19T13:12:06Z</time>
      </trkpt>
      <trkpt lat="43.01542" lon="0.2303">
        <ele>1556.6</ele>
        <time>2023-11-19T13:12:07Z</time>
      </trkpt>
      <trkpt lat="43.01542" lon="0.2303">
        <ele>1556.7</ele>
        <time>2023-11-19T13:12:08Z</time>
      </trkpt>
      <trkpt lat="43.01542" lon="0.23031">
        <ele>1556.8</ele>
        <time>2023-11-19T13:12:09Z</time>
      </trkpt>
      <trkpt lat="43.01541" lon="0.23032">
        <ele>1557</ele>
        <time>2023-11-19T13:12:10Z</time>
      </trkpt>
      <trkpt lat="43.01541" lon="0.23032">
        <ele>1557.1</ele>
        <time>2023-11-19T13:12:11Z</time>
      </trkpt>
      <trkpt lat="43.0154" lon="0.23033">
        <ele>1557.3</ele>
        <time>2023-11-19T13:12:12Z</time>
      </trkpt>
      <trkpt lat="43.0154" lon="0.23033">
        <ele>1557.3</ele>
        <time>2023-11-19T13:12:13Z</time>
      </trkpt>
      <trkpt lat="43.0154" lon="0.23033">
        <ele>1557.4</ele>
        <time>2023-11-19T13:12:14Z</time>
      </trkpt>
      <trkpt lat="43.0154" lon="0.23033">
        <ele>1557.4</ele>
        <time>2023-11-19T13:12:15Z</time>
      </trkpt>
      <trkpt lat="43.0154" lon="0.23033">
        <ele>1557.5</ele>
        <time>2023-11-19T13:12:16Z</time>
      </trkpt>
      <trkpt lat="43.0154" lon="0.23034">
        <ele>1557.7</ele>
        <time>2023-11-19T13:12:17Z</time>
      </trkpt>
      <trkpt lat="43.01539" lon="0.23035">
        <ele>1557.9</ele>
        <time>2023-11-19T13:12:18Z</time>
      </trkpt>
      <trkpt lat="43.01538" lon="0.23035">
        <ele>1558</ele>
        <time>2023-11-19T13:12:19Z</time>
      </trkpt>
      <trkpt lat="43.01537" lon="0.23036">
        <ele>1558.2</ele>
        <time>2023-11-19T13:12:20Z</time>
      </trkpt>
      <trkpt lat="43.01537" lon="0.23036">
        <ele>1558.4</ele>
        <time>2023-11-19T13:12:21Z</time>
      </trkpt>
      <trkpt lat="43.01536" lon="0.23037">
        <ele>1558.5</ele>
        <time>2023-11-19T13:12:22Z</time>
      </trkpt>
      <trkpt lat="43.01536" lon="0.23037">
        <ele>1558.7</ele>
        <time>2023-11-19T13:12:23Z</time>
      </trkpt>
      <trkpt lat="43.01535" lon="0.23038">
        <ele>1558.8</ele>
        <time>2023-11-19T13:12:24Z</time>
      </trkpt>
      <trkpt lat="43.01535" lon="0.23038">
        <ele>1558.9</ele>
        <time>2023-11-19T13:12:25Z</time>
      </trkpt>
      <trkpt lat="43.01534" lon="0.23039">
        <ele>1559.1</ele>
        <time>2023-11-19T13:12:26Z</time>
      </trkpt>
      <trkpt lat="43.01533" lon="0.2304">
        <ele>1559.2</ele>
        <time>2023-11-19T13:12:27Z</time>
      </trkpt>
      <trkpt lat="43.01533" lon="0.2304">
        <ele>1559.4</ele>
        <time>2023-11-19T13:12:28Z</time>
      </trkpt>
      <trkpt lat="43.01532" lon="0.2304">
        <ele>1559.5</ele>
        <time>2023-11-19T13:12:29Z</time>
      </trkpt>
      <trkpt lat="43.01532" lon="0.23041">
        <ele>1559.6</ele>
        <time>2023-11-19T13:12:30Z</time>
      </trkpt>
      <trkpt lat="43.01531" lon="0.23041">
        <ele>1559.7</ele>
        <time>2023-11-19T13:12:31Z</time>
      </trkpt>
      <trkpt lat="43.01531" lon="0.23042">
        <ele>1559.9</ele>
        <time>2023-11-19T13:12:32Z</time>
      </trkpt>
      <trkpt lat="43.0153" lon="0.23042">
        <ele>1560</ele>
        <time>2023-11-19T13:12:33Z</time>
      </trkpt>
      <trkpt lat="43.01529" lon="0.23042">
        <ele>1560.2</ele>
        <time>2023-11-19T13:12:34Z</time>
      </trkpt>
      <trkpt lat="43.01529" lon="0.23043">
        <ele>1560.3</ele>
        <time>2023-11-19T13:12:35Z</time>
      </trkpt>
      <trkpt lat="43.01528" lon="0.23043">
        <ele>1560.4</ele>
        <time>2023-11-19T13:12:36Z</time>
      </trkpt>
      <trkpt lat="43.01528" lon="0.23044">
        <ele>1560.6</ele>
        <time>2023-11-19T13:12:37Z</time>
      </trkpt>
      <trkpt lat="43.01527" lon="0.23044">
        <ele>1560.7</ele>
        <time>2023-11-19T13:12:38Z</time>
      </trkpt>
      <trkpt lat="43.01527" lon="0.23044">
        <ele>1560.8</ele>
        <time>2023-11-19T13:12:39Z</time>
      </trkpt>
      <trkpt lat="43.01526" lon="0.23044">
        <ele>1561</ele>
        <time>2023-11-19T13:12:40Z</time>
      </trkpt>
      <trkpt lat="43.01526" lon="0.23045">
        <ele>1561.1</ele>
        <time>2023-11-19T13:12:41Z</time>
      </trkpt>
      <trkpt lat="43.01524" lon="0.23047">
        <ele>1561.5</ele>
        <time>2023-11-19T13:12:42Z</time>
      </trkpt>
      <trkpt lat="43.01525" lon="0.23047">
        <ele>1561.6</ele>
        <time>2023-11-19T13:12:43Z</time>
      </trkpt>
      <trkpt lat="43.01524" lon="0.23048">
        <ele>1561.7</ele>
        <time>2023-11-19T13:12:44Z</time>
      </trkpt>
      <trkpt lat="43.01524" lon="0.23048">
        <ele>1561.8</ele>
        <time>2023-11-19T13:12:45Z</time>
      </trkpt>
      <trkpt lat="43.01523" lon="0.23048">
        <ele>1561.9</ele>
        <time>2023-11-19T13:12:46Z</time>
      </trkpt>
      <trkpt lat="43.01523" lon="0.23049">
        <ele>1562.1</ele>
        <time>2023-11-19T13:12:47Z</time>
      </trkpt>
      <trkpt lat="43.01522" lon="0.23049">
        <ele>1562.3</ele>
        <time>2023-11-19T13:12:48Z</time>
      </trkpt>
      <trkpt lat="43.01521" lon="0.23049">
        <ele>1562.4</ele>
        <time>2023-11-19T13:12:49Z</time>
      </trkpt>
      <trkpt lat="43.01521" lon="0.23049">
        <ele>1562.5</ele>
        <time>2023-11-19T13:12:50Z</time>
      </trkpt>
      <trkpt lat="43.0152" lon="0.23049">
        <ele>1562.6</ele>
        <time>2023-11-19T13:12:51Z</time>
      </trkpt>
      <trkpt lat="43.0152" lon="0.2305">
        <ele>1562.7</ele>
        <time>2023-11-19T13:12:52Z</time>
      </trkpt>
      <trkpt lat="43.01519" lon="0.2305">
        <ele>1562.9</ele>
        <time>2023-11-19T13:12:53Z</time>
      </trkpt>
      <trkpt lat="43.01519" lon="0.23051">
        <ele>1563.1</ele>
        <time>2023-11-19T13:12:54Z</time>
      </trkpt>
      <trkpt lat="43.01519" lon="0.23052">
        <ele>1563.2</ele>
        <time>2023-11-19T13:12:55Z</time>
      </trkpt>
      <trkpt lat="43.01518" lon="0.23053">
        <ele>1563.4</ele>
        <time>2023-11-19T13:12:56Z</time>
      </trkpt>
      <trkpt lat="43.01518" lon="0.23054">
        <ele>1563.6</ele>
        <time>2023-11-19T13:12:57Z</time>
      </trkpt>
      <trkpt lat="43.01517" lon="0.23055">
        <ele>1563.8</ele>
        <time>2023-11-19T13:12:58Z</time>
      </trkpt>
      <trkpt lat="43.01517" lon="0.23056">
        <ele>1563.9</ele>
        <time>2023-11-19T13:12:59Z</time>
      </trkpt>
      <trkpt lat="43.01516" lon="0.23057">
        <ele>1564.1</ele>
        <time>2023-11-19T13:13:00Z</time>
      </trkpt>
      <trkpt lat="43.01516" lon="0.23058">
        <ele>1564.3</ele>
        <time>2023-11-19T13:13:01Z</time>
      </trkpt>
      <trkpt lat="43.01516" lon="0.23059">
        <ele>1564.4</ele>
        <time>2023-11-19T13:13:02Z</time>
      </trkpt>
      <trkpt lat="43.01516" lon="0.2306">
        <ele>1564.6</ele>
        <time>2023-11-19T13:13:03Z</time>
      </trkpt>
      <trkpt lat="43.01516" lon="0.2306">
        <ele>1564.7</ele>
        <time>2023-11-19T13:13:04Z</time>
      </trkpt>
      <trkpt lat="43.01516" lon="0.23061">
        <ele>1564.9</ele>
        <time>2023-11-19T13:13:05Z</time>
      </trkpt>
      <trkpt lat="43.01515" lon="0.23062">
        <ele>1565</ele>
        <time>2023-11-19T13:13:06Z</time>
      </trkpt>
      <trkpt lat="43.01515" lon="0.23063">
        <ele>1565.2</ele>
        <time>2023-11-19T13:13:07Z</time>
      </trkpt>
      <trkpt lat="43.01514" lon="0.23064">
        <ele>1565.3</ele>
        <time>2023-11-19T13:13:08Z</time>
      </trkpt>
      <trkpt lat="43.01514" lon="0.23065">
        <ele>1565.6</ele>
        <time>2023-11-19T13:13:09Z</time>
      </trkpt>
      <trkpt lat="43.01514" lon="0.23066">
        <ele>1565.7</ele>
        <time>2023-11-19T13:13:10Z</time>
      </trkpt>
      <trkpt lat="43.01513" lon="0.23067">
        <ele>1566</ele>
        <time>2023-11-19T13:13:11Z</time>
      </trkpt>
      <trkpt lat="43.01513" lon="0.23068">
        <ele>1566.1</ele>
        <time>2023-11-19T13:13:12Z</time>
      </trkpt>
      <trkpt lat="43.01512" lon="0.23069">
        <ele>1566.3</ele>
        <time>2023-11-19T13:13:13Z</time>
      </trkpt>
      <trkpt lat="43.01512" lon="0.2307">
        <ele>1566.5</ele>
        <time>2023-11-19T13:13:14Z</time>
      </trkpt>
      <trkpt lat="43.01512" lon="0.23071">
        <ele>1566.7</ele>
        <time>2023-11-19T13:13:15Z</time>
      </trkpt>
      <trkpt lat="43.01512" lon="0.23072">
        <ele>1566.8</ele>
        <time>2023-11-19T13:13:16Z</time>
      </trkpt>
      <trkpt lat="43.01511" lon="0.23073">
        <ele>1567</ele>
        <time>2023-11-19T13:13:17Z</time>
      </trkpt>
      <trkpt lat="43.01511" lon="0.23074">
        <ele>1567.2</ele>
        <time>2023-11-19T13:13:18Z</time>
      </trkpt>
      <trkpt lat="43.0151" lon="0.23075">
        <ele>1567.4</ele>
        <time>2023-11-19T13:13:19Z</time>
      </trkpt>
      <trkpt lat="43.0151" lon="0.23076">
        <ele>1567.6</ele>
        <time>2023-11-19T13:13:20Z</time>
      </trkpt>
      <trkpt lat="43.0151" lon="0.23077">
        <ele>1567.7</ele>
        <time>2023-11-19T13:13:21Z</time>
      </trkpt>
      <trkpt lat="43.0151" lon="0.23078">
        <ele>1567.9</ele>
        <time>2023-11-19T13:13:22Z</time>
      </trkpt>
      <trkpt lat="43.01509" lon="0.23079">
        <ele>1568</ele>
        <time>2023-11-19T13:13:23Z</time>
      </trkpt>
      <trkpt lat="43.01509" lon="0.2308">
        <ele>1568.2</ele>
        <time>2023-11-19T13:13:24Z</time>
      </trkpt>
      <trkpt lat="43.01508" lon="0.23081">
        <ele>1568.3</ele>
        <time>2023-11-19T13:13:25Z</time>
      </trkpt>
      <trkpt lat="43.01508" lon="0.23081">
        <ele>1568.4</ele>
        <time>2023-11-19T13:13:26Z</time>
      </trkpt>
      <trkpt lat="43.01507" lon="0.23081">
        <ele>1568.5</ele>
        <time>2023-11-19T13:13:27Z</time>
      </trkpt>
      <trkpt lat="43.01507" lon="0.23082">
        <ele>1568.7</ele>
        <time>2023-11-19T13:13:28Z</time>
      </trkpt>
      <trkpt lat="43.01506" lon="0.23082">
        <ele>1568.7</ele>
        <time>2023-11-19T13:13:29Z</time>
      </trkpt>
      <trkpt lat="43.01506" lon="0.23083">
        <ele>1568.8</ele>
        <time>2023-11-19T13:13:30Z</time>
      </trkpt>
      <trkpt lat="43.01506" lon="0.23084">
        <ele>1568.9</ele>
        <time>2023-11-19T13:13:31Z</time>
      </trkpt>
      <trkpt lat="43.01506" lon="0.23085">
        <ele>1569.1</ele>
        <time>2023-11-19T13:13:32Z</time>
      </trkpt>
      <trkpt lat="43.01505" lon="0.23086">
        <ele>1569.3</ele>
        <time>2023-11-19T13:13:33Z</time>
      </trkpt>
      <trkpt lat="43.01505" lon="0.23087">
        <ele>1569.4</ele>
        <time>2023-11-19T13:13:34Z</time>
      </trkpt>
      <trkpt lat="43.01505" lon="0.23088">
        <ele>1569.6</ele>
        <time>2023-11-19T13:13:35Z</time>
      </trkpt>
      <trkpt lat="43.01504" lon="0.23089">
        <ele>1569.7</ele>
        <time>2023-11-19T13:13:36Z</time>
      </trkpt>
      <trkpt lat="43.01504" lon="0.23089">
        <ele>1569.8</ele>
        <time>2023-11-19T13:13:37Z</time>
      </trkpt>
      <trkpt lat="43.01503" lon="0.2309">
        <ele>1569.9</ele>
        <time>2023-11-19T13:13:38Z</time>
      </trkpt>
      <trkpt lat="43.01502" lon="0.23091">
        <ele>1570</ele>
        <time>2023-11-19T13:13:39Z</time>
      </trkpt>
      <trkpt lat="43.01503" lon="0.23091">
        <ele>1570.1</ele>
        <time>2023-11-19T13:13:40Z</time>
      </trkpt>
      <trkpt lat="43.01503" lon="0.2309">
        <ele>1570.1</ele>
        <time>2023-11-19T13:13:41Z</time>
      </trkpt>
      <trkpt lat="43.01503" lon="0.2309">
        <ele>1570.1</ele>
        <time>2023-11-19T13:13:42Z</time>
      </trkpt>
      <trkpt lat="43.01503" lon="0.2309">
        <ele>1570.1</ele>
        <time>2023-11-19T13:13:43Z</time>
      </trkpt>
      <trkpt lat="43.01502" lon="0.2309">
        <ele>1570.2</ele>
        <time>2023-11-19T13:13:44Z</time>
      </trkpt>
      <trkpt lat="43.01501" lon="0.23091">
        <ele>1570.4</ele>
        <time>2023-11-19T13:13:45Z</time>
      </trkpt>
      <trkpt lat="43.015" lon="0.23091">
        <ele>1570.5</ele>
        <time>2023-11-19T13:13:46Z</time>
      </trkpt>
      <trkpt lat="43.01499" lon="0.23092">
        <ele>1570.6</ele>
        <time>2023-11-19T13:13:47Z</time>
      </trkpt>
      <trkpt lat="43.01498" lon="0.23093">
        <ele>1570.8</ele>
        <time>2023-11-19T13:13:48Z</time>
      </trkpt>
      <trkpt lat="43.01498" lon="0.23094">
        <ele>1570.9</ele>
        <time>2023-11-19T13:13:49Z</time>
      </trkpt>
      <trkpt lat="43.01497" lon="0.23095">
        <ele>1571</ele>
        <time>2023-11-19T13:13:50Z</time>
      </trkpt>
      <trkpt lat="43.01496" lon="0.23095">
        <ele>1571.1</ele>
        <time>2023-11-19T13:13:51Z</time>
      </trkpt>
      <trkpt lat="43.01495" lon="0.23095">
        <ele>1571.2</ele>
        <time>2023-11-19T13:13:52Z</time>
      </trkpt>
      <trkpt lat="43.01495" lon="0.23096">
        <ele>1571.3</ele>
        <time>2023-11-19T13:13:53Z</time>
      </trkpt>
      <trkpt lat="43.01494" lon="0.23096">
        <ele>1571.4</ele>
        <time>2023-11-19T13:13:54Z</time>
      </trkpt>
      <trkpt lat="43.01492" lon="0.23097">
        <ele>1571.6</ele>
        <time>2023-11-19T13:13:55Z</time>
      </trkpt>
      <trkpt lat="43.01491" lon="0.23097">
        <ele>1571.7</ele>
        <time>2023-11-19T13:13:56Z</time>
      </trkpt>
      <trkpt lat="43.0149" lon="0.23098">
        <ele>1571.8</ele>
        <time>2023-11-19T13:13:57Z</time>
      </trkpt>
      <trkpt lat="43.01489" lon="0.23098">
        <ele>1571.9</ele>
        <time>2023-11-19T13:13:58Z</time>
      </trkpt>
      <trkpt lat="43.01488" lon="0.23098">
        <ele>1572</ele>
        <time>2023-11-19T13:13:59Z</time>
      </trkpt>
      <trkpt lat="43.01488" lon="0.231">
        <ele>1572.1</ele>
        <time>2023-11-19T13:14:00Z</time>
      </trkpt>
      <trkpt lat="43.01487" lon="0.23101">
        <ele>1572.2</ele>
        <time>2023-11-19T13:14:01Z</time>
      </trkpt>
      <trkpt lat="43.01486" lon="0.23102">
        <ele>1572.3</ele>
        <time>2023-11-19T13:14:02Z</time>
      </trkpt>
      <trkpt lat="43.01485" lon="0.23103">
        <ele>1572.4</ele>
        <time>2023-11-19T13:14:03Z</time>
      </trkpt>
      <trkpt lat="43.01485" lon="0.23104">
        <ele>1572.5</ele>
        <time>2023-11-19T13:14:04Z</time>
      </trkpt>
      <trkpt lat="43.01484" lon="0.23104">
        <ele>1572.6</ele>
        <time>2023-11-19T13:14:05Z</time>
      </trkpt>
      <trkpt lat="43.01484" lon="0.23105">
        <ele>1572.7</ele>
        <time>2023-11-19T13:14:06Z</time>
      </trkpt>
      <trkpt lat="43.01483" lon="0.23106">
        <ele>1572.9</ele>
        <time>2023-11-19T13:14:07Z</time>
      </trkpt>
      <trkpt lat="43.01482" lon="0.23108">
        <ele>1573</ele>
        <time>2023-11-19T13:14:08Z</time>
      </trkpt>
      <trkpt lat="43.01482" lon="0.23108">
        <ele>1573.1</ele>
        <time>2023-11-19T13:14:09Z</time>
      </trkpt>
      <trkpt lat="43.01481" lon="0.23109">
        <ele>1573.2</ele>
        <time>2023-11-19T13:14:10Z</time>
      </trkpt>
      <trkpt lat="43.0148" lon="0.23109">
        <ele>1573.3</ele>
        <time>2023-11-19T13:14:11Z</time>
      </trkpt>
      <trkpt lat="43.01479" lon="0.2311">
        <ele>1573.4</ele>
        <time>2023-11-19T13:14:12Z</time>
      </trkpt>
      <trkpt lat="43.01478" lon="0.2311">
        <ele>1573.5</ele>
        <time>2023-11-19T13:14:13Z</time>
      </trkpt>
      <trkpt lat="43.01477" lon="0.23111">
        <ele>1573.7</ele>
        <time>2023-11-19T13:14:14Z</time>
      </trkpt>
      <trkpt lat="43.01476" lon="0.23111">
        <ele>1573.8</ele>
        <time>2023-11-19T13:14:15Z</time>
      </trkpt>
      <trkpt lat="43.01475" lon="0.23111">
        <ele>1573.9</ele>
        <time>2023-11-19T13:14:16Z</time>
      </trkpt>
      <trkpt lat="43.01474" lon="0.23111">
        <ele>1574.1</ele>
        <time>2023-11-19T13:14:17Z</time>
      </trkpt>
      <trkpt lat="43.01473" lon="0.23112">
        <ele>1574.2</ele>
        <time>2023-11-19T13:14:18Z</time>
      </trkpt>
      <trkpt lat="43.01473" lon="0.23113">
        <ele>1574.3</ele>
        <time>2023-11-19T13:14:19Z</time>
      </trkpt>
      <trkpt lat="43.01472" lon="0.23114">
        <ele>1574.5</ele>
        <time>2023-11-19T13:14:20Z</time>
      </trkpt>
      <trkpt lat="43.01471" lon="0.23115">
        <ele>1574.6</ele>
        <time>2023-11-19T13:14:21Z</time>
      </trkpt>
      <trkpt lat="43.01471" lon="0.23116">
        <ele>1574.7</ele>
        <time>2023-11-19T13:14:22Z</time>
      </trkpt>
      <trkpt lat="43.0147" lon="0.23116">
        <ele>1574.9</ele>
        <time>2023-11-19T13:14:23Z</time>
      </trkpt>
      <trkpt lat="43.01469" lon="0.23117">
        <ele>1575</ele>
        <time>2023-11-19T13:14:24Z</time>
      </trkpt>
      <trkpt lat="43.01469" lon="0.23117">
        <ele>1575.1</ele>
        <time>2023-11-19T13:14:25Z</time>
      </trkpt>
      <trkpt lat="43.01468" lon="0.23118">
        <ele>1575.3</ele>
        <time>2023-11-19T13:14:26Z</time>
      </trkpt>
      <trkpt lat="43.01467" lon="0.23119">
        <ele>1575.4</ele>
        <time>2023-11-19T13:14:27Z</time>
      </trkpt>
      <trkpt lat="43.01466" lon="0.2312">
        <ele>1575.5</ele>
        <time>2023-11-19T13:14:28Z</time>
      </trkpt>
      <trkpt lat="43.01465" lon="0.23121">
        <ele>1575.7</ele>
        <time>2023-11-19T13:14:29Z</time>
      </trkpt>
      <trkpt lat="43.01464" lon="0.23122">
        <ele>1575.8</ele>
        <time>2023-11-19T13:14:30Z</time>
      </trkpt>
      <trkpt lat="43.01464" lon="0.23122">
        <ele>1576</ele>
        <time>2023-11-19T13:14:31Z</time>
      </trkpt>
      <trkpt lat="43.01463" lon="0.23123">
        <ele>1576.2</ele>
        <time>2023-11-19T13:14:32Z</time>
      </trkpt>
      <trkpt lat="43.01462" lon="0.23123">
        <ele>1576.3</ele>
        <time>2023-11-19T13:14:33Z</time>
      </trkpt>
      <trkpt lat="43.01461" lon="0.23124">
        <ele>1576.5</ele>
        <time>2023-11-19T13:14:34Z</time>
      </trkpt>
      <trkpt lat="43.0146" lon="0.23125">
        <ele>1576.6</ele>
        <time>2023-11-19T13:14:35Z</time>
      </trkpt>
      <trkpt lat="43.01459" lon="0.23125">
        <ele>1576.7</ele>
        <time>2023-11-19T13:14:36Z</time>
      </trkpt>
      <trkpt lat="43.01458" lon="0.23125">
        <ele>1576.9</ele>
        <time>2023-11-19T13:14:37Z</time>
      </trkpt>
      <trkpt lat="43.01457" lon="0.23126">
        <ele>1577.1</ele>
        <time>2023-11-19T13:14:38Z</time>
      </trkpt>
      <trkpt lat="43.01457" lon="0.23127">
        <ele>1577.2</ele>
        <time>2023-11-19T13:14:39Z</time>
      </trkpt>
      <trkpt lat="43.01456" lon="0.23127">
        <ele>1577.3</ele>
        <time>2023-11-19T13:14:40Z</time>
      </trkpt>
      <trkpt lat="43.01455" lon="0.23127">
        <ele>1577.5</ele>
        <time>2023-11-19T13:14:41Z</time>
      </trkpt>
      <trkpt lat="43.01454" lon="0.23128">
        <ele>1577.6</ele>
        <time>2023-11-19T13:14:42Z</time>
      </trkpt>
      <trkpt lat="43.01453" lon="0.23128">
        <ele>1577.8</ele>
        <time>2023-11-19T13:14:43Z</time>
      </trkpt>
      <trkpt lat="43.01452" lon="0.23129">
        <ele>1577.9</ele>
        <time>2023-11-19T13:14:44Z</time>
      </trkpt>
      <trkpt lat="43.01452" lon="0.23129">
        <ele>1578.1</ele>
        <time>2023-11-19T13:14:45Z</time>
      </trkpt>
      <trkpt lat="43.01451" lon="0.2313">
        <ele>1578.2</ele>
        <time>2023-11-19T13:14:46Z</time>
      </trkpt>
      <trkpt lat="43.0145" lon="0.23131">
        <ele>1578.3</ele>
        <time>2023-11-19T13:14:47Z</time>
      </trkpt>
      <trkpt lat="43.0145" lon="0.23131">
        <ele>1578.5</ele>
        <time>2023-11-19T13:14:48Z</time>
      </trkpt>
      <trkpt lat="43.01449" lon="0.23132">
        <ele>1578.6</ele>
        <time>2023-11-19T13:14:49Z</time>
      </trkpt>
      <trkpt lat="43.01448" lon="0.23132">
        <ele>1578.8</ele>
        <time>2023-11-19T13:14:50Z</time>
      </trkpt>
      <trkpt lat="43.01447" lon="0.23133">
        <ele>1579</ele>
        <time>2023-11-19T13:14:51Z</time>
      </trkpt>
      <trkpt lat="43.01446" lon="0.23133">
        <ele>1579.1</ele>
        <time>2023-11-19T13:14:52Z</time>
      </trkpt>
      <trkpt lat="43.01445" lon="0.23133">
        <ele>1579.3</ele>
        <time>2023-11-19T13:14:53Z</time>
      </trkpt>
      <trkpt lat="43.01444" lon="0.23134">
        <ele>1579.5</ele>
        <time>2023-11-19T13:14:54Z</time>
      </trkpt>
      <trkpt lat="43.01443" lon="0.23134">
        <ele>1579.6</ele>
        <time>2023-11-19T13:14:55Z</time>
      </trkpt>
      <trkpt lat="43.01442" lon="0.23134">
        <ele>1579.8</ele>
        <time>2023-11-19T13:14:56Z</time>
      </trkpt>
      <trkpt lat="43.01441" lon="0.23134">
        <ele>1580</ele>
        <time>2023-11-19T13:14:57Z</time>
      </trkpt>
      <trkpt lat="43.0144" lon="0.23134">
        <ele>1580.2</ele>
        <time>2023-11-19T13:14:58Z</time>
      </trkpt>
      <trkpt lat="43.01439" lon="0.23133">
        <ele>1580.4</ele>
        <time>2023-11-19T13:14:59Z</time>
      </trkpt>
      <trkpt lat="43.01438" lon="0.23133">
        <ele>1580.6</ele>
        <time>2023-11-19T13:15:00Z</time>
      </trkpt>
      <trkpt lat="43.01437" lon="0.23133">
        <ele>1580.7</ele>
        <time>2023-11-19T13:15:01Z</time>
      </trkpt>
      <trkpt lat="43.01436" lon="0.23133">
        <ele>1580.9</ele>
        <time>2023-11-19T13:15:02Z</time>
      </trkpt>
      <trkpt lat="43.01436" lon="0.23133">
        <ele>1581</ele>
        <time>2023-11-19T13:15:03Z</time>
      </trkpt>
      <trkpt lat="43.01435" lon="0.23134">
        <ele>1581.1</ele>
        <time>2023-11-19T13:15:04Z</time>
      </trkpt>
      <trkpt lat="43.01434" lon="0.23135">
        <ele>1581.3</ele>
        <time>2023-11-19T13:15:05Z</time>
      </trkpt>
      <trkpt lat="43.01434" lon="0.23135">
        <ele>1581.4</ele>
        <time>2023-11-19T13:15:06Z</time>
      </trkpt>
      <trkpt lat="43.01433" lon="0.23136">
        <ele>1581.6</ele>
        <time>2023-11-19T13:15:07Z</time>
      </trkpt>
      <trkpt lat="43.01432" lon="0.23136">
        <ele>1581.7</ele>
        <time>2023-11-19T13:15:08Z</time>
      </trkpt>
      <trkpt lat="43.01432" lon="0.23137">
        <ele>1581.8</ele>
        <time>2023-11-19T13:15:09Z</time>
      </trkpt>
      <trkpt lat="43.0143" lon="0.23137">
        <ele>1582</ele>
        <time>2023-11-19T13:15:10Z</time>
      </trkpt>
      <trkpt lat="43.01429" lon="0.23137">
        <ele>1582.2</ele>
        <time>2023-11-19T13:15:11Z</time>
      </trkpt>
      <trkpt lat="43.01429" lon="0.23137">
        <ele>1582.3</ele>
        <time>2023-11-19T13:15:12Z</time>
      </trkpt>
      <trkpt lat="43.01428" lon="0.23137">
        <ele>1582.5</ele>
        <time>2023-11-19T13:15:13Z</time>
      </trkpt>
      <trkpt lat="43.01427" lon="0.23137">
        <ele>1582.7</ele>
        <time>2023-11-19T13:15:14Z</time>
      </trkpt>
      <trkpt lat="43.01426" lon="0.23137">
        <ele>1582.8</ele>
        <time>2023-11-19T13:15:15Z</time>
      </trkpt>
      <trkpt lat="43.01425" lon="0.23138">
        <ele>1583</ele>
        <time>2023-11-19T13:15:16Z</time>
      </trkpt>
      <trkpt lat="43.01424" lon="0.23138">
        <ele>1583.1</ele>
        <time>2023-11-19T13:15:17Z</time>
      </trkpt>
      <trkpt lat="43.01424" lon="0.23138">
        <ele>1583.3</ele>
        <time>2023-11-19T13:15:18Z</time>
      </trkpt>
      <trkpt lat="43.01423" lon="0.23139">
        <ele>1583.4</ele>
        <time>2023-11-19T13:15:19Z</time>
      </trkpt>
      <trkpt lat="43.01423" lon="0.23139">
        <ele>1583.5</ele>
        <time>2023-11-19T13:15:20Z</time>
      </trkpt>
      <trkpt lat="43.01422" lon="0.2314">
        <ele>1583.7</ele>
        <time>2023-11-19T13:15:21Z</time>
      </trkpt>
      <trkpt lat="43.01422" lon="0.23141">
        <ele>1583.8</ele>
        <time>2023-11-19T13:15:22Z</time>
      </trkpt>
      <trkpt lat="43.01421" lon="0.23141">
        <ele>1583.9</ele>
        <time>2023-11-19T13:15:23Z</time>
      </trkpt>
      <trkpt lat="43.0142" lon="0.23142">
        <ele>1584</ele>
        <time>2023-11-19T13:15:24Z</time>
      </trkpt>
      <trkpt lat="43.0142" lon="0.23142">
        <ele>1584.2</ele>
        <time>2023-11-19T13:15:25Z</time>
      </trkpt>
      <trkpt lat="43.01419" lon="0.23143">
        <ele>1584.3</ele>
        <time>2023-11-19T13:15:26Z</time>
      </trkpt>
      <trkpt lat="43.01419" lon="0.23144">
        <ele>1584.4</ele>
        <time>2023-11-19T13:15:27Z</time>
      </trkpt>
      <trkpt lat="43.01418" lon="0.23145">
        <ele>1584.6</ele>
        <time>2023-11-19T13:15:28Z</time>
      </trkpt>
      <trkpt lat="43.01418" lon="0.23146">
        <ele>1584.8</ele>
        <time>2023-11-19T13:15:29Z</time>
      </trkpt>
      <trkpt lat="43.01417" lon="0.23147">
        <ele>1585</ele>
        <time>2023-11-19T13:15:30Z</time>
      </trkpt>
      <trkpt lat="43.01416" lon="0.23146">
        <ele>1585.1</ele>
        <time>2023-11-19T13:15:31Z</time>
      </trkpt>
      <trkpt lat="43.01416" lon="0.23146">
        <ele>1585.1</ele>
        <time>2023-11-19T13:15:32Z</time>
      </trkpt>
      <trkpt lat="43.01415" lon="0.23147">
        <ele>1585.3</ele>
        <time>2023-11-19T13:15:33Z</time>
      </trkpt>
      <trkpt lat="43.01416" lon="0.23146">
        <ele>1585.3</ele>
        <time>2023-11-19T13:15:34Z</time>
      </trkpt>
      <trkpt lat="43.01416" lon="0.23146">
        <ele>1585.4</ele>
        <time>2023-11-19T13:15:35Z</time>
      </trkpt>
      <trkpt lat="43.01416" lon="0.23145">
        <ele>1585.5</ele>
        <time>2023-11-19T13:15:36Z</time>
      </trkpt>
      <trkpt lat="43.01416" lon="0.23146">
        <ele>1585.5</ele>
        <time>2023-11-19T13:15:37Z</time>
      </trkpt>
      <trkpt lat="43.01416" lon="0.23145">
        <ele>1585.5</ele>
        <time>2023-11-19T13:15:38Z</time>
      </trkpt>
      <trkpt lat="43.01416" lon="0.23145">
        <ele>1585.6</ele>
        <time>2023-11-19T13:15:39Z</time>
      </trkpt>
      <trkpt lat="43.01416" lon="0.23144">
        <ele>1585.6</ele>
        <time>2023-11-19T13:15:40Z</time>
      </trkpt>
      <trkpt lat="43.01416" lon="0.23144">
        <ele>1585.7</ele>
        <time>2023-11-19T13:15:41Z</time>
      </trkpt>
      <trkpt lat="43.01416" lon="0.23143">
        <ele>1585.8</ele>
        <time>2023-11-19T13:15:42Z</time>
      </trkpt>
      <trkpt lat="43.01415" lon="0.23143">
        <ele>1585.9</ele>
        <time>2023-11-19T13:15:43Z</time>
      </trkpt>
      <trkpt lat="43.01415" lon="0.23142">
        <ele>1585.9</ele>
        <time>2023-11-19T13:15:44Z</time>
      </trkpt>
      <trkpt lat="43.01416" lon="0.23141">
        <ele>1586</ele>
        <time>2023-11-19T13:15:45Z</time>
      </trkpt>
      <trkpt lat="43.01416" lon="0.23141">
        <ele>1586</ele>
        <time>2023-11-19T13:15:46Z</time>
      </trkpt>
      <trkpt lat="43.01416" lon="0.23142">
        <ele>1586.1</ele>
        <time>2023-11-19T13:15:47Z</time>
      </trkpt>
      <trkpt lat="43.01415" lon="0.23139">
        <ele>1586.4</ele>
        <time>2023-11-19T13:15:49Z</time>
      </trkpt>
      <trkpt lat="43.01416" lon="0.2314">
        <ele>1586.5</ele>
        <time>2023-11-19T13:15:50Z</time>
      </trkpt>
      <trkpt lat="43.01415" lon="0.2314">
        <ele>1586.5</ele>
        <time>2023-11-19T13:15:51Z</time>
      </trkpt>
      <trkpt lat="43.01415" lon="0.23139">
        <ele>1586.6</ele>
        <time>2023-11-19T13:15:52Z</time>
      </trkpt>
      <trkpt lat="43.01415" lon="0.23139">
        <ele>1586.6</ele>
        <time>2023-11-19T13:15:53Z</time>
      </trkpt>
      <trkpt lat="43.01415" lon="0.23139">
        <ele>1586.6</ele>
        <time>2023-11-19T13:15:54Z</time>
      </trkpt>
      <trkpt lat="43.01415" lon="0.23139">
        <ele>1586.6</ele>
        <time>2023-11-19T13:15:55Z</time>
      </trkpt>
      <trkpt lat="43.01415" lon="0.23139">
        <ele>1586.6</ele>
        <time>2023-11-19T13:15:56Z</time>
      </trkpt>
      <trkpt lat="43.01415" lon="0.23139">
        <ele>1586.6</ele>
        <time>2023-11-19T13:15:57Z</time>
      </trkpt>
      <trkpt lat="43.01415" lon="0.23139">
        <ele>1586.7</ele>
        <time>2023-11-19T13:15:58Z</time>
      </trkpt>
      <trkpt lat="43.01415" lon="0.23139">
        <ele>1586.7</ele>
        <time>2023-11-19T13:15:59Z</time>
      </trkpt>
      <trkpt lat="43.01415" lon="0.23139">
        <ele>1586.7</ele>
        <time>2023-11-19T13:16:00Z</time>
      </trkpt>
      <trkpt lat="43.01415" lon="0.23139">
        <ele>1586.7</ele>
        <time>2023-11-19T13:16:01Z</time>
      </trkpt>
      <trkpt lat="43.01415" lon="0.23139">
        <ele>1586.8</ele>
        <time>2023-11-19T13:16:02Z</time>
      </trkpt>
      <trkpt lat="43.01415" lon="0.23139">
        <ele>1586.8</ele>
        <time>2023-11-19T13:16:03Z</time>
      </trkpt>
      <trkpt lat="43.01415" lon="0.23139">
        <ele>1586.8</ele>
        <time>2023-11-19T13:16:04Z</time>
      </trkpt>
      <trkpt lat="43.01415" lon="0.23139">
        <ele>1586.8</ele>
        <time>2023-11-19T13:16:05Z</time>
      </trkpt>
      <trkpt lat="43.01415" lon="0.2314">
        <ele>1586.8</ele>
        <time>2023-11-19T13:16:06Z</time>
      </trkpt>
      <trkpt lat="43.01415" lon="0.2314">
        <ele>1586.8</ele>
        <time>2023-11-19T13:16:07Z</time>
      </trkpt>
      <trkpt lat="43.01415" lon="0.2314">
        <ele>1586.9</ele>
        <time>2023-11-19T13:16:08Z</time>
      </trkpt>
      <trkpt lat="43.01415" lon="0.2314">
        <ele>1586.9</ele>
        <time>2023-11-19T13:16:09Z</time>
      </trkpt>
      <trkpt lat="43.01415" lon="0.2314">
        <ele>1586.9</ele>
        <time>2023-11-19T13:16:10Z</time>
      </trkpt>
      <trkpt lat="43.01415" lon="0.2314">
        <ele>1586.9</ele>
        <time>2023-11-19T13:16:11Z</time>
      </trkpt>
      <trkpt lat="43.01415" lon="0.2314">
        <ele>1586.9</ele>
        <time>2023-11-19T13:16:12Z</time>
      </trkpt>
      <trkpt lat="43.01415" lon="0.2314">
        <ele>1587</ele>
        <time>2023-11-19T13:16:13Z</time>
      </trkpt>
      <trkpt lat="43.01415" lon="0.2314">
        <ele>1587</ele>
        <time>2023-11-19T13:16:14Z</time>
      </trkpt>
      <trkpt lat="43.01415" lon="0.23139">
        <ele>1587</ele>
        <time>2023-11-19T13:16:15Z</time>
      </trkpt>
      <trkpt lat="43.01415" lon="0.2314">
        <ele>1587</ele>
        <time>2023-11-19T13:16:16Z</time>
      </trkpt>
      <trkpt lat="43.01415" lon="0.2314">
        <ele>1587</ele>
        <time>2023-11-19T13:16:17Z</time>
      </trkpt>
      <trkpt lat="43.01416" lon="0.2314">
        <ele>1587.1</ele>
        <time>2023-11-19T13:16:18Z</time>
      </trkpt>
      <trkpt lat="43.01415" lon="0.2314">
        <ele>1587.1</ele>
        <time>2023-11-19T13:16:19Z</time>
      </trkpt>
      <trkpt lat="43.01415" lon="0.23139">
        <ele>1587.2</ele>
        <time>2023-11-19T13:16:20Z</time>
      </trkpt>
      <trkpt lat="43.01413" lon="0.23138">
        <ele>1587.3</ele>
        <time>2023-11-19T13:16:21Z</time>
      </trkpt>
      <trkpt lat="43.01413" lon="0.23138">
        <ele>1587.3</ele>
        <time>2023-11-19T13:16:22Z</time>
      </trkpt>
      <trkpt lat="43.01413" lon="0.23138">
        <ele>1587.3</ele>
        <time>2023-11-19T13:16:23Z</time>
      </trkpt>
      <trkpt lat="43.01413" lon="0.23137">
        <ele>1587.4</ele>
        <time>2023-11-19T13:16:24Z</time>
      </trkpt>
      <trkpt lat="43.01413" lon="0.23136">
        <ele>1587.4</ele>
        <time>2023-11-19T13:16:25Z</time>
      </trkpt>
      <trkpt lat="43.01413" lon="0.23136">
        <ele>1587.4</ele>
        <time>2023-11-19T13:16:26Z</time>
      </trkpt>
      <trkpt lat="43.01413" lon="0.23137">
        <ele>1587.4</ele>
        <time>2023-11-19T13:16:27Z</time>
      </trkpt>
      <trkpt lat="43.01413" lon="0.23137">
        <ele>1587.4</ele>
        <time>2023-11-19T13:16:28Z</time>
      </trkpt>
      <trkpt lat="43.01412" lon="0.23137">
        <ele>1587.4</ele>
        <time>2023-11-19T13:16:29Z</time>
      </trkpt>
      <trkpt lat="43.01412" lon="0.23137">
        <ele>1587.4</ele>
        <time>2023-11-19T13:16:30Z</time>
      </trkpt>
      <trkpt lat="43.01412" lon="0.23137">
        <ele>1587.4</ele>
        <time>2023-11-19T13:16:31Z</time>
      </trkpt>
      <trkpt lat="43.01412" lon="0.23137">
        <ele>1587.5</ele>
        <time>2023-11-19T13:16:32Z</time>
      </trkpt>
      <trkpt lat="43.01412" lon="0.23137">
        <ele>1587.5</ele>
        <time>2023-11-19T13:16:33Z</time>
      </trkpt>
      <trkpt lat="43.01412" lon="0.23137">
        <ele>1587.5</ele>
        <time>2023-11-19T13:16:34Z</time>
      </trkpt>
      <trkpt lat="43.01412" lon="0.23137">
        <ele>1587.5</ele>
        <time>2023-11-19T13:16:35Z</time>
      </trkpt>
      <trkpt lat="43.01411" lon="0.23137">
        <ele>1587.5</ele>
        <time>2023-11-19T13:16:36Z</time>
      </trkpt>
      <trkpt lat="43.01411" lon="0.23137">
        <ele>1587.5</ele>
        <time>2023-11-19T13:16:37Z</time>
      </trkpt>
      <trkpt lat="43.01411" lon="0.23137">
        <ele>1587.5</ele>
        <time>2023-11-19T13:16:38Z</time>
      </trkpt>
      <trkpt lat="43.01411" lon="0.23137">
        <ele>1587.5</ele>
        <time>2023-11-19T13:16:39Z</time>
      </trkpt>
      <trkpt lat="43.01411" lon="0.23137">
        <ele>1587.5</ele>
        <time>2023-11-19T13:16:40Z</time>
      </trkpt>
      <trkpt lat="43.01411" lon="0.23137">
        <ele>1587.5</ele>
        <time>2023-11-19T13:16:41Z</time>
      </trkpt>
      <trkpt lat="43.0141" lon="0.23137">
        <ele>1587.5</ele>
        <time>2023-11-19T13:16:42Z</time>
      </trkpt>
      <trkpt lat="43.0141" lon="0.23137">
        <ele>1587.5</ele>
        <time>2023-11-19T13:16:43Z</time>
      </trkpt>
      <trkpt lat="43.0141" lon="0.23137">
        <ele>1587.5</ele>
        <time>2023-11-19T13:16:44Z</time>
      </trkpt>
      <trkpt lat="43.0141" lon="0.23137">
        <ele>1587.5</ele>
        <time>2023-11-19T13:16:45Z</time>
      </trkpt>
      <trkpt lat="43.0141" lon="0.23137">
        <ele>1587.5</ele>
        <time>2023-11-19T13:16:46Z</time>
      </trkpt>
      <trkpt lat="43.0141" lon="0.23137">
        <ele>1587.5</ele>
        <time>2023-11-19T13:16:47Z</time>
      </trkpt>
      <trkpt lat="43.0141" lon="0.23137">
        <ele>1587.5</ele>
        <time>2023-11-19T13:16:48Z</time>
      </trkpt>
      <trkpt lat="43.01409" lon="0.23137">
        <ele>1587.5</ele>
        <time>2023-11-19T13:16:49Z</time>
      </trkpt>
      <trkpt lat="43.01409" lon="0.23137">
        <ele>1587.6</ele>
        <time>2023-11-19T13:16:50Z</time>
      </trkpt>
      <trkpt lat="43.01409" lon="0.23137">
        <ele>1587.6</ele>
        <time>2023-11-19T13:16:51Z</time>
      </trkpt>
      <trkpt lat="43.01409" lon="0.23138">
        <ele>1587.6</ele>
        <time>2023-11-19T13:16:52Z</time>
      </trkpt>
      <trkpt lat="43.01409" lon="0.23138">
        <ele>1587.6</ele>
        <time>2023-11-19T13:16:53Z</time>
      </trkpt>
      <trkpt lat="43.01409" lon="0.23138">
        <ele>1587.6</ele>
        <time>2023-11-19T13:16:54Z</time>
      </trkpt>
      <trkpt lat="43.01409" lon="0.23138">
        <ele>1587.6</ele>
        <time>2023-11-19T13:16:55Z</time>
      </trkpt>
      <trkpt lat="43.01408" lon="0.23138">
        <ele>1587.6</ele>
        <time>2023-11-19T13:16:56Z</time>
      </trkpt>
      <trkpt lat="43.01408" lon="0.23138">
        <ele>1587.6</ele>
        <time>2023-11-19T13:16:57Z</time>
      </trkpt>
      <trkpt lat="43.01408" lon="0.23138">
        <ele>1587.6</ele>
        <time>2023-11-19T13:16:58Z</time>
      </trkpt>
      <trkpt lat="43.01408" lon="0.23138">
        <ele>1587.6</ele>
        <time>2023-11-19T13:16:59Z</time>
      </trkpt>
      <trkpt lat="43.01408" lon="0.23138">
        <ele>1587.6</ele>
        <time>2023-11-19T13:17:00Z</time>
      </trkpt>
      <trkpt lat="43.01408" lon="0.23138">
        <ele>1587.6</ele>
        <time>2023-11-19T13:17:01Z</time>
      </trkpt>
      <trkpt lat="43.01407" lon="0.23138">
        <ele>1587.6</ele>
        <time>2023-11-19T13:17:02Z</time>
      </trkpt>
      <trkpt lat="43.01407" lon="0.23138">
        <ele>1587.6</ele>
        <time>2023-11-19T13:17:03Z</time>
      </trkpt>
      <trkpt lat="43.01407" lon="0.23138">
        <ele>1587.6</ele>
        <time>2023-11-19T13:17:04Z</time>
      </trkpt>
      <trkpt lat="43.01407" lon="0.23138">
        <ele>1587.6</ele>
        <time>2023-11-19T13:26:44Z</time>
      </trkpt>
      <trkpt lat="43.01407" lon="0.23138">
        <ele>1587.6</ele>
        <time>2023-11-19T13:26:45Z</time>
      </trkpt>
      <trkpt lat="43.01407" lon="0.23138">
        <ele>1587.6</ele>
        <time>2023-11-19T13:26:46Z</time>
      </trkpt>
      <trkpt lat="43.01407" lon="0.23138">
        <ele>1587.6</ele>
        <time>2023-11-19T13:26:47Z</time>
      </trkpt>
      <trkpt lat="43.01406" lon="0.23138">
        <ele>1587.6</ele>
        <time>2023-11-19T13:26:48Z</time>
      </trkpt>
      <trkpt lat="43.01406" lon="0.23138">
        <ele>1587.6</ele>
        <time>2023-11-19T13:26:49Z</time>
      </trkpt>
      <trkpt lat="43.01404" lon="0.23139">
        <ele>1587.7</ele>
        <time>2023-11-19T13:26:50Z</time>
      </trkpt>
      <trkpt lat="43.01403" lon="0.2314">
        <ele>1587.7</ele>
        <time>2023-11-19T13:26:51Z</time>
      </trkpt>
      <trkpt lat="43.01402" lon="0.2314">
        <ele>1587.7</ele>
        <time>2023-11-19T13:26:52Z</time>
      </trkpt>
      <trkpt lat="43.01401" lon="0.23138">
        <ele>1587.7</ele>
        <time>2023-11-19T13:26:53Z</time>
      </trkpt>
      <trkpt lat="43.014" lon="0.23139">
        <ele>1587.8</ele>
        <time>2023-11-19T13:26:54Z</time>
      </trkpt>
      <trkpt lat="43.01398" lon="0.23139">
        <ele>1587.8</ele>
        <time>2023-11-19T13:26:55Z</time>
      </trkpt>
      <trkpt lat="43.01396" lon="0.23139">
        <ele>1587.8</ele>
        <time>2023-11-19T13:26:56Z</time>
      </trkpt>
      <trkpt lat="43.01395" lon="0.23139">
        <ele>1587.8</ele>
        <time>2023-11-19T13:26:57Z</time>
      </trkpt>
      <trkpt lat="43.01394" lon="0.23139">
        <ele>1587.9</ele>
        <time>2023-11-19T13:26:58Z</time>
      </trkpt>
      <trkpt lat="43.01393" lon="0.23138">
        <ele>1587.9</ele>
        <time>2023-11-19T13:26:59Z</time>
      </trkpt>
      <trkpt lat="43.01392" lon="0.23138">
        <ele>1587.9</ele>
        <time>2023-11-19T13:27:00Z</time>
      </trkpt>
      <trkpt lat="43.01391" lon="0.23138">
        <ele>1588</ele>
        <time>2023-11-19T13:27:01Z</time>
      </trkpt>
      <trkpt lat="43.0139" lon="0.23138">
        <ele>1588</ele>
        <time>2023-11-19T13:27:02Z</time>
      </trkpt>
      <trkpt lat="43.01388" lon="0.23137">
        <ele>1588.1</ele>
        <time>2023-11-19T13:27:03Z</time>
      </trkpt>
      <trkpt lat="43.01388" lon="0.23136">
        <ele>1588.1</ele>
        <time>2023-11-19T13:27:04Z</time>
      </trkpt>
      <trkpt lat="43.01386" lon="0.23135">
        <ele>1588.2</ele>
        <time>2023-11-19T13:27:05Z</time>
      </trkpt>
      <trkpt lat="43.01385" lon="0.23134">
        <ele>1588.3</ele>
        <time>2023-11-19T13:27:06Z</time>
      </trkpt>
      <trkpt lat="43.01384" lon="0.23134">
        <ele>1588.3</ele>
        <time>2023-11-19T13:27:07Z</time>
      </trkpt>
      <trkpt lat="43.01384" lon="0.23133">
        <ele>1588.3</ele>
        <time>2023-11-19T13:27:08Z</time>
      </trkpt>
      <trkpt lat="43.01384" lon="0.23132">
        <ele>1588.4</ele>
        <time>2023-11-19T13:27:09Z</time>
      </trkpt>
      <trkpt lat="43.01383" lon="0.23131">
        <ele>1588.4</ele>
        <time>2023-11-19T13:27:10Z</time>
      </trkpt>
      <trkpt lat="43.01382" lon="0.2313">
        <ele>1588.5</ele>
        <time>2023-11-19T13:27:11Z</time>
      </trkpt>
      <trkpt lat="43.01381" lon="0.2313">
        <ele>1588.5</ele>
        <time>2023-11-19T13:27:12Z</time>
      </trkpt>
      <trkpt lat="43.01381" lon="0.23129">
        <ele>1588.6</ele>
        <time>2023-11-19T13:27:13Z</time>
      </trkpt>
      <trkpt lat="43.0138" lon="0.23129">
        <ele>1588.6</ele>
        <time>2023-11-19T13:27:14Z</time>
      </trkpt>
      <trkpt lat="43.0138" lon="0.23128">
        <ele>1588.6</ele>
        <time>2023-11-19T13:27:15Z</time>
      </trkpt>
      <trkpt lat="43.0138" lon="0.23128">
        <ele>1588.6</ele>
        <time>2023-11-19T13:27:16Z</time>
      </trkpt>
      <trkpt lat="43.01379" lon="0.23128">
        <ele>1588.6</ele>
        <time>2023-11-19T13:27:17Z</time>
      </trkpt>
      <trkpt lat="43.01379" lon="0.23129">
        <ele>1588.6</ele>
        <time>2023-11-19T13:27:18Z</time>
      </trkpt>
      <trkpt lat="43.01378" lon="0.23129">
        <ele>1588.6</ele>
        <time>2023-11-19T13:27:19Z</time>
      </trkpt>
      <trkpt lat="43.01376" lon="0.23129">
        <ele>1588.5</ele>
        <time>2023-11-19T13:27:20Z</time>
      </trkpt>
      <trkpt lat="43.01375" lon="0.23129">
        <ele>1588.5</ele>
        <time>2023-11-19T13:27:21Z</time>
      </trkpt>
      <trkpt lat="43.01376" lon="0.23129">
        <ele>1588.5</ele>
        <time>2023-11-19T13:27:22Z</time>
      </trkpt>
      <trkpt lat="43.01377" lon="0.23129">
        <ele>1588.4</ele>
        <time>2023-11-19T13:27:23Z</time>
      </trkpt>
      <trkpt lat="43.01377" lon="0.23129">
        <ele>1588.4</ele>
        <time>2023-11-19T13:27:24Z</time>
      </trkpt>
      <trkpt lat="43.01378" lon="0.23131">
        <ele>1588.4</ele>
        <time>2023-11-19T13:27:25Z</time>
      </trkpt>
      <trkpt lat="43.01378" lon="0.23131">
        <ele>1588.4</ele>
        <time>2023-11-19T13:27:26Z</time>
      </trkpt>
      <trkpt lat="43.01378" lon="0.2313">
        <ele>1588.4</ele>
        <time>2023-11-19T13:27:27Z</time>
      </trkpt>
      <trkpt lat="43.01378" lon="0.2313">
        <ele>1588.4</ele>
        <time>2023-11-19T13:27:28Z</time>
      </trkpt>
      <trkpt lat="43.01378" lon="0.2313">
        <ele>1588.4</ele>
        <time>2023-11-19T13:27:29Z</time>
      </trkpt>
      <trkpt lat="43.01378" lon="0.2313">
        <ele>1588.4</ele>
        <time>2023-11-19T13:27:30Z</time>
      </trkpt>
      <trkpt lat="43.01379" lon="0.2313">
        <ele>1588.4</ele>
        <time>2023-11-19T13:27:31Z</time>
      </trkpt>
      <trkpt lat="43.01379" lon="0.2313">
        <ele>1588.4</ele>
        <time>2023-11-19T13:27:32Z</time>
      </trkpt>
      <trkpt lat="43.01379" lon="0.2313">
        <ele>1588.3</ele>
        <time>2023-11-19T13:27:33Z</time>
      </trkpt>
      <trkpt lat="43.01379" lon="0.2313">
        <ele>1588.3</ele>
        <time>2023-11-19T13:27:34Z</time>
      </trkpt>
      <trkpt lat="43.01379" lon="0.2313">
        <ele>1588.3</ele>
        <time>2023-11-19T13:27:35Z</time>
      </trkpt>
      <trkpt lat="43.01379" lon="0.2313">
        <ele>1588.3</ele>
        <time>2023-11-19T13:27:36Z</time>
      </trkpt>
      <trkpt lat="43.01378" lon="0.23129">
        <ele>1588.3</ele>
        <time>2023-11-19T13:27:37Z</time>
      </trkpt>
      <trkpt lat="43.01378" lon="0.2313">
        <ele>1588.3</ele>
        <time>2023-11-19T13:27:38Z</time>
      </trkpt>
      <trkpt lat="43.01378" lon="0.2313">
        <ele>1588.3</ele>
        <time>2023-11-19T13:27:39Z</time>
      </trkpt>
      <trkpt lat="43.01378" lon="0.2313">
        <ele>1588.3</ele>
        <time>2023-11-19T13:27:40Z</time>
      </trkpt>
      <trkpt lat="43.01378" lon="0.2313">
        <ele>1588.3</ele>
        <time>2023-11-19T13:27:41Z</time>
      </trkpt>
      <trkpt lat="43.01378" lon="0.2313">
        <ele>1588.3</ele>
        <time>2023-11-19T13:27:42Z</time>
      </trkpt>
      <trkpt lat="43.01378" lon="0.2313">
        <ele>1588.3</ele>
        <time>2023-11-19T13:27:43Z</time>
      </trkpt>
      <trkpt lat="43.01378" lon="0.23129">
        <ele>1588.3</ele>
        <time>2023-11-19T13:27:44Z</time>
      </trkpt>
      <trkpt lat="43.01378" lon="0.23129">
        <ele>1588.3</ele>
        <time>2023-11-19T13:27:45Z</time>
      </trkpt>
      <trkpt lat="43.01378" lon="0.2313">
        <ele>1588.3</ele>
        <time>2023-11-19T13:27:46Z</time>
      </trkpt>
      <trkpt lat="43.01378" lon="0.2313">
        <ele>1588.3</ele>
        <time>2023-11-19T13:27:47Z</time>
      </trkpt>
      <trkpt lat="43.01377" lon="0.23129">
        <ele>1588.3</ele>
        <time>2023-11-19T13:27:48Z</time>
      </trkpt>
      <trkpt lat="43.01377" lon="0.2313">
        <ele>1588.2</ele>
        <time>2023-11-19T13:27:49Z</time>
      </trkpt>
      <trkpt lat="43.01377" lon="0.23129">
        <ele>1588.2</ele>
        <time>2023-11-19T13:27:50Z</time>
      </trkpt>
      <trkpt lat="43.01377" lon="0.23129">
        <ele>1588.2</ele>
        <time>2023-11-19T13:27:51Z</time>
      </trkpt>
      <trkpt lat="43.01378" lon="0.23129">
        <ele>1588.2</ele>
        <time>2023-11-19T13:27:52Z</time>
      </trkpt>
      <trkpt lat="43.01378" lon="0.23129">
        <ele>1588.2</ele>
        <time>2023-11-19T13:27:53Z</time>
      </trkpt>
      <trkpt lat="43.01378" lon="0.23129">
        <ele>1588.2</ele>
        <time>2023-11-19T13:27:54Z</time>
      </trkpt>
      <trkpt lat="43.01378" lon="0.23129">
        <ele>1588.2</ele>
        <time>2023-11-19T13:27:55Z</time>
      </trkpt>
      <trkpt lat="43.01378" lon="0.23129">
        <ele>1588.2</ele>
        <time>2023-11-19T13:27:56Z</time>
      </trkpt>
      <trkpt lat="43.01378" lon="0.23129">
        <ele>1588.2</ele>
        <time>2023-11-19T13:27:57Z</time>
      </trkpt>
      <trkpt lat="43.01378" lon="0.23129">
        <ele>1588.2</ele>
        <time>2023-11-19T13:27:58Z</time>
      </trkpt>
      <trkpt lat="43.01378" lon="0.23129">
        <ele>1588.2</ele>
        <time>2023-11-19T13:27:59Z</time>
      </trkpt>
      <trkpt lat="43.01378" lon="0.23129">
        <ele>1588.2</ele>
        <time>2023-11-19T13:28:00Z</time>
      </trkpt>
      <trkpt lat="43.01379" lon="0.23129">
        <ele>1588.2</ele>
        <time>2023-11-19T13:28:01Z</time>
      </trkpt>
      <trkpt lat="43.01378" lon="0.23129">
        <ele>1588.2</ele>
        <time>2023-11-19T13:28:02Z</time>
      </trkpt>
      <trkpt lat="43.01378" lon="0.23129">
        <ele>1588.2</ele>
        <time>2023-11-19T13:28:03Z</time>
      </trkpt>
      <trkpt lat="43.01379" lon="0.2313">
        <ele>1588.2</ele>
        <time>2023-11-19T13:28:04Z</time>
      </trkpt>
      <trkpt lat="43.01379" lon="0.23129">
        <ele>1588.2</ele>
        <time>2023-11-19T13:28:05Z</time>
      </trkpt>
      <trkpt lat="43.01379" lon="0.2313">
        <ele>1588.2</ele>
        <time>2023-11-19T13:28:06Z</time>
      </trkpt>
      <trkpt lat="43.0138" lon="0.23132">
        <ele>1588.2</ele>
        <time>2023-11-19T13:28:07Z</time>
      </trkpt>
      <trkpt lat="43.0138" lon="0.2313">
        <ele>1588.1</ele>
        <time>2023-11-19T13:28:08Z</time>
      </trkpt>
      <trkpt lat="43.01379" lon="0.23131">
        <ele>1588.1</ele>
        <time>2023-11-19T13:28:09Z</time>
      </trkpt>
      <trkpt lat="43.01379" lon="0.23131">
        <ele>1588.1</ele>
        <time>2023-11-19T13:28:10Z</time>
      </trkpt>
      <trkpt lat="43.01379" lon="0.23131">
        <ele>1588.1</ele>
        <time>2023-11-19T13:28:11Z</time>
      </trkpt>
      <trkpt lat="43.01379" lon="0.23131">
        <ele>1588.1</ele>
        <time>2023-11-19T13:28:12Z</time>
      </trkpt>
      <trkpt lat="43.01379" lon="0.23131">
        <ele>1588.1</ele>
        <time>2023-11-19T13:28:13Z</time>
      </trkpt>
      <trkpt lat="43.01379" lon="0.23131">
        <ele>1588.1</ele>
        <time>2023-11-19T13:28:14Z</time>
      </trkpt>
      <trkpt lat="43.01379" lon="0.23131">
        <ele>1588.1</ele>
        <time>2023-11-19T13:28:15Z</time>
      </trkpt>
      <trkpt lat="43.01378" lon="0.23131">
        <ele>1588.1</ele>
        <time>2023-11-19T13:28:16Z</time>
      </trkpt>
      <trkpt lat="43.01379" lon="0.2313">
        <ele>1588.1</ele>
        <time>2023-11-19T13:28:17Z</time>
      </trkpt>
      <trkpt lat="43.01379" lon="0.23131">
        <ele>1588.1</ele>
        <time>2023-11-19T13:28:18Z</time>
      </trkpt>
      <trkpt lat="43.01378" lon="0.2313">
        <ele>1588.1</ele>
        <time>2023-11-19T13:28:19Z</time>
      </trkpt>
      <trkpt lat="43.01378" lon="0.23131">
        <ele>1588</ele>
        <time>2023-11-19T13:28:20Z</time>
      </trkpt>
      <trkpt lat="43.01378" lon="0.23131">
        <ele>1588</ele>
        <time>2023-11-19T13:28:21Z</time>
      </trkpt>
      <trkpt lat="43.01377" lon="0.23132">
        <ele>1588</ele>
        <time>2023-11-19T13:28:22Z</time>
      </trkpt>
      <trkpt lat="43.01377" lon="0.23132">
        <ele>1588</ele>
        <time>2023-11-19T13:28:23Z</time>
      </trkpt>
      <trkpt lat="43.01378" lon="0.23132">
        <ele>1588</ele>
        <time>2023-11-19T13:28:25Z</time>
      </trkpt>
      <trkpt lat="43.01378" lon="0.23132">
        <ele>1588</ele>
        <time>2023-11-19T13:28:26Z</time>
      </trkpt>
      <trkpt lat="43.01378" lon="0.23133">
        <ele>1588</ele>
        <time>2023-11-19T13:28:27Z</time>
      </trkpt>
      <trkpt lat="43.01379" lon="0.23132">
        <ele>1588</ele>
        <time>2023-11-19T13:28:28Z</time>
      </trkpt>
      <trkpt lat="43.01378" lon="0.23132">
        <ele>1588</ele>
        <time>2023-11-19T13:28:29Z</time>
      </trkpt>
      <trkpt lat="43.01378" lon="0.23132">
        <ele>1588</ele>
        <time>2023-11-19T13:28:30Z</time>
      </trkpt>
      <trkpt lat="43.01379" lon="0.23132">
        <ele>1588</ele>
        <time>2023-11-19T13:28:31Z</time>
      </trkpt>
      <trkpt lat="43.01378" lon="0.23132">
        <ele>1588</ele>
        <time>2023-11-19T13:28:32Z</time>
      </trkpt>
      <trkpt lat="43.01378" lon="0.23132">
        <ele>1588</ele>
        <time>2023-11-19T13:28:33Z</time>
      </trkpt>
      <trkpt lat="43.01378" lon="0.23132">
        <ele>1588</ele>
        <time>2023-11-19T13:28:34Z</time>
      </trkpt>
      <trkpt lat="43.01378" lon="0.23132">
        <ele>1588</ele>
        <time>2023-11-19T13:28:35Z</time>
      </trkpt>
      <trkpt lat="43.01378" lon="0.23132">
        <ele>1588</ele>
        <time>2023-11-19T13:28:36Z</time>
      </trkpt>
      <trkpt lat="43.01378" lon="0.23132">
        <ele>1587.9</ele>
        <time>2023-11-19T13:28:37Z</time>
      </trkpt>
      <trkpt lat="43.01378" lon="0.23131">
        <ele>1587.9</ele>
        <time>2023-11-19T13:28:38Z</time>
      </trkpt>
      <trkpt lat="43.01378" lon="0.23131">
        <ele>1587.9</ele>
        <time>2023-11-19T13:28:39Z</time>
      </trkpt>
      <trkpt lat="43.01378" lon="0.23131">
        <ele>1587.9</ele>
        <time>2023-11-19T13:28:40Z</time>
      </trkpt>
      <trkpt lat="43.01378" lon="0.23131">
        <ele>1587.9</ele>
        <time>2023-11-19T13:28:41Z</time>
      </trkpt>
      <trkpt lat="43.01378" lon="0.23131">
        <ele>1587.9</ele>
        <time>2023-11-19T13:28:42Z</time>
      </trkpt>
      <trkpt lat="43.01378" lon="0.23131">
        <ele>1587.9</ele>
        <time>2023-11-19T13:28:43Z</time>
      </trkpt>
      <trkpt lat="43.01378" lon="0.23132">
        <ele>1587.9</ele>
        <time>2023-11-19T13:28:44Z</time>
      </trkpt>
      <trkpt lat="43.01378" lon="0.23131">
        <ele>1587.9</ele>
        <time>2023-11-19T13:28:45Z</time>
      </trkpt>
      <trkpt lat="43.01378" lon="0.23131">
        <ele>1587.9</ele>
        <time>2023-11-19T13:28:46Z</time>
      </trkpt>
      <trkpt lat="43.01377" lon="0.23131">
        <ele>1587.9</ele>
        <time>2023-11-19T13:28:47Z</time>
      </trkpt>
      <trkpt lat="43.01377" lon="0.23131">
        <ele>1587.9</ele>
        <time>2023-11-19T13:28:48Z</time>
      </trkpt>
      <trkpt lat="43.01377" lon="0.23131">
        <ele>1587.9</ele>
        <time>2023-11-19T13:28:49Z</time>
      </trkpt>
      <trkpt lat="43.01377" lon="0.23131">
        <ele>1587.9</ele>
        <time>2023-11-19T13:28:50Z</time>
      </trkpt>
      <trkpt lat="43.01377" lon="0.23131">
        <ele>1587.9</ele>
        <time>2023-11-19T13:28:51Z</time>
      </trkpt>
      <trkpt lat="43.01377" lon="0.23131">
        <ele>1587.9</ele>
        <time>2023-11-19T13:28:52Z</time>
      </trkpt>
      <trkpt lat="43.01377" lon="0.23131">
        <ele>1587.9</ele>
        <time>2023-11-19T13:28:53Z</time>
      </trkpt>
      <trkpt lat="43.01377" lon="0.23131">
        <ele>1587.9</ele>
        <time>2023-11-19T13:28:54Z</time>
      </trkpt>
      <trkpt lat="43.01377" lon="0.23131">
        <ele>1587.9</ele>
        <time>2023-11-19T13:28:55Z</time>
      </trkpt>
      <trkpt lat="43.01377" lon="0.23131">
        <ele>1587.9</ele>
        <time>2023-11-19T13:28:56Z</time>
      </trkpt>
      <trkpt lat="43.01377" lon="0.23131">
        <ele>1587.9</ele>
        <time>2023-11-19T13:28:57Z</time>
      </trkpt>
      <trkpt lat="43.01377" lon="0.2313">
        <ele>1587.9</ele>
        <time>2023-11-19T13:28:58Z</time>
      </trkpt>
      <trkpt lat="43.01377" lon="0.2313">
        <ele>1587.9</ele>
        <time>2023-11-19T13:28:59Z</time>
      </trkpt>
      <trkpt lat="43.01377" lon="0.2313">
        <ele>1587.9</ele>
        <time>2023-11-19T13:29:00Z</time>
      </trkpt>
      <trkpt lat="43.01377" lon="0.2313">
        <ele>1587.9</ele>
        <time>2023-11-19T13:29:01Z</time>
      </trkpt>
      <trkpt lat="43.01378" lon="0.2313">
        <ele>1587.9</ele>
        <time>2023-11-19T13:29:02Z</time>
      </trkpt>
      <trkpt lat="43.01378" lon="0.23129">
        <ele>1587.9</ele>
        <time>2023-11-19T13:29:03Z</time>
      </trkpt>
      <trkpt lat="43.01378" lon="0.2313">
        <ele>1587.9</ele>
        <time>2023-11-19T13:29:04Z</time>
      </trkpt>
      <trkpt lat="43.01378" lon="0.2313">
        <ele>1587.9</ele>
        <time>2023-11-19T13:29:05Z</time>
      </trkpt>
      <trkpt lat="43.01378" lon="0.2313">
        <ele>1587.9</ele>
        <time>2023-11-19T13:29:06Z</time>
      </trkpt>
      <trkpt lat="43.01378" lon="0.2313">
        <ele>1587.9</ele>
        <time>2023-11-19T13:29:07Z</time>
      </trkpt>
      <trkpt lat="43.01377" lon="0.2313">
        <ele>1587.9</ele>
        <time>2023-11-19T13:29:08Z</time>
      </trkpt>
      <trkpt lat="43.01377" lon="0.2313">
        <ele>1587.9</ele>
        <time>2023-11-19T13:29:09Z</time>
      </trkpt>
      <trkpt lat="43.01378" lon="0.2313">
        <ele>1587.9</ele>
        <time>2023-11-19T13:29:10Z</time>
      </trkpt>
      <trkpt lat="43.01377" lon="0.23131">
        <ele>1587.9</ele>
        <time>2023-11-19T13:29:11Z</time>
      </trkpt>
      <trkpt lat="43.01377" lon="0.2313">
        <ele>1587.9</ele>
        <time>2023-11-19T13:29:12Z</time>
      </trkpt>
      <trkpt lat="43.01377" lon="0.2313">
        <ele>1587.9</ele>
        <time>2023-11-19T13:29:13Z</time>
      </trkpt>
      <trkpt lat="43.01377" lon="0.23131">
        <ele>1587.9</ele>
        <time>2023-11-19T13:29:14Z</time>
      </trkpt>
      <trkpt lat="43.01377" lon="0.2313">
        <ele>1587.9</ele>
        <time>2023-11-19T13:29:15Z</time>
      </trkpt>
      <trkpt lat="43.01377" lon="0.2313">
        <ele>1587.9</ele>
        <time>2023-11-19T13:29:16Z</time>
      </trkpt>
      <trkpt lat="43.01377" lon="0.2313">
        <ele>1587.9</ele>
        <time>2023-11-19T13:29:17Z</time>
      </trkpt>
      <trkpt lat="43.01377" lon="0.2313">
        <ele>1587.9</ele>
        <time>2023-11-19T13:29:18Z</time>
      </trkpt>
      <trkpt lat="43.01377" lon="0.2313">
        <ele>1587.9</ele>
        <time>2023-11-19T13:29:19Z</time>
      </trkpt>
      <trkpt lat="43.01377" lon="0.2313">
        <ele>1587.9</ele>
        <time>2023-11-19T13:29:20Z</time>
      </trkpt>
      <trkpt lat="43.01377" lon="0.2313">
        <ele>1587.9</ele>
        <time>2023-11-19T13:29:21Z</time>
      </trkpt>
      <trkpt lat="43.01377" lon="0.2313">
        <ele>1587.9</ele>
        <time>2023-11-19T13:29:22Z</time>
      </trkpt>
      <trkpt lat="43.01377" lon="0.2313">
        <ele>1587.8</ele>
        <time>2023-11-19T13:29:23Z</time>
      </trkpt>
      <trkpt lat="43.01377" lon="0.2313">
        <ele>1587.8</ele>
        <time>2023-11-19T13:29:24Z</time>
      </trkpt>
      <trkpt lat="43.01377" lon="0.2313">
        <ele>1587.8</ele>
        <time>2023-11-19T13:29:25Z</time>
      </trkpt>
      <trkpt lat="43.01377" lon="0.2313">
        <ele>1587.8</ele>
        <time>2023-11-19T13:29:26Z</time>
      </trkpt>
      <trkpt lat="43.01377" lon="0.23129">
        <ele>1587.8</ele>
        <time>2023-11-19T13:29:27Z</time>
      </trkpt>
      <trkpt lat="43.01377" lon="0.23129">
        <ele>1587.8</ele>
        <time>2023-11-19T13:29:28Z</time>
      </trkpt>
      <trkpt lat="43.01377" lon="0.23129">
        <ele>1587.8</ele>
        <time>2023-11-19T13:29:29Z</time>
      </trkpt>
      <trkpt lat="43.01377" lon="0.23129">
        <ele>1587.8</ele>
        <time>2023-11-19T13:29:30Z</time>
      </trkpt>
      <trkpt lat="43.01377" lon="0.23129">
        <ele>1587.8</ele>
        <time>2023-11-19T13:29:31Z</time>
      </trkpt>
      <trkpt lat="43.01377" lon="0.23129">
        <ele>1587.8</ele>
        <time>2023-11-19T13:29:32Z</time>
      </trkpt>
      <trkpt lat="43.01377" lon="0.23129">
        <ele>1587.8</ele>
        <time>2023-11-19T13:29:33Z</time>
      </trkpt>
      <trkpt lat="43.01377" lon="0.23129">
        <ele>1587.8</ele>
        <time>2023-11-19T13:29:34Z</time>
      </trkpt>
      <trkpt lat="43.01377" lon="0.23129">
        <ele>1587.8</ele>
        <time>2023-11-19T13:29:35Z</time>
      </trkpt>
      <trkpt lat="43.01377" lon="0.23129">
        <ele>1587.8</ele>
        <time>2023-11-19T13:29:36Z</time>
      </trkpt>
      <trkpt lat="43.01377" lon="0.23129">
        <ele>1587.8</ele>
        <time>2023-11-19T13:29:37Z</time>
      </trkpt>
      <trkpt lat="43.01377" lon="0.23129">
        <ele>1587.8</ele>
        <time>2023-11-19T13:29:38Z</time>
      </trkpt>
      <trkpt lat="43.01377" lon="0.23129">
        <ele>1587.8</ele>
        <time>2023-11-19T13:29:39Z</time>
      </trkpt>
      <trkpt lat="43.01377" lon="0.23129">
        <ele>1587.8</ele>
        <time>2023-11-19T13:29:40Z</time>
      </trkpt>
      <trkpt lat="43.01377" lon="0.23129">
        <ele>1587.8</ele>
        <time>2023-11-19T13:29:41Z</time>
      </trkpt>
      <trkpt lat="43.01377" lon="0.23129">
        <ele>1587.8</ele>
        <time>2023-11-19T13:29:42Z</time>
      </trkpt>
      <trkpt lat="43.01377" lon="0.23129">
        <ele>1587.8</ele>
        <time>2023-11-19T13:29:43Z</time>
      </trkpt>
      <trkpt lat="43.01377" lon="0.23129">
        <ele>1587.8</ele>
        <time>2023-11-19T13:29:44Z</time>
      </trkpt>
      <trkpt lat="43.01378" lon="0.23128">
        <ele>1587.8</ele>
        <time>2023-11-19T13:29:45Z</time>
      </trkpt>
      <trkpt lat="43.01377" lon="0.23128">
        <ele>1587.8</ele>
        <time>2023-11-19T13:29:46Z</time>
      </trkpt>
      <trkpt lat="43.01378" lon="0.23127">
        <ele>1587.8</ele>
        <time>2023-11-19T13:29:47Z</time>
      </trkpt>
      <trkpt lat="43.01379" lon="0.23128">
        <ele>1587.8</ele>
        <time>2023-11-19T13:29:48Z</time>
      </trkpt>
      <trkpt lat="43.01379" lon="0.23127">
        <ele>1587.8</ele>
        <time>2023-11-19T13:29:49Z</time>
      </trkpt>
      <trkpt lat="43.01379" lon="0.23127">
        <ele>1587.8</ele>
        <time>2023-11-19T13:29:50Z</time>
      </trkpt>
      <trkpt lat="43.01379" lon="0.23127">
        <ele>1587.8</ele>
        <time>2023-11-19T13:29:51Z</time>
      </trkpt>
      <trkpt lat="43.01379" lon="0.23127">
        <ele>1587.8</ele>
        <time>2023-11-19T13:29:52Z</time>
      </trkpt>
      <trkpt lat="43.01379" lon="0.23128">
        <ele>1587.8</ele>
        <time>2023-11-19T13:29:53Z</time>
      </trkpt>
      <trkpt lat="43.01379" lon="0.23128">
        <ele>1587.8</ele>
        <time>2023-11-19T13:29:54Z</time>
      </trkpt>
      <trkpt lat="43.01379" lon="0.23128">
        <ele>1587.8</ele>
        <time>2023-11-19T13:29:55Z</time>
      </trkpt>
      <trkpt lat="43.01379" lon="0.23128">
        <ele>1587.8</ele>
        <time>2023-11-19T13:29:56Z</time>
      </trkpt>
      <trkpt lat="43.01379" lon="0.23128">
        <ele>1587.8</ele>
        <time>2023-11-19T13:29:57Z</time>
      </trkpt>
      <trkpt lat="43.01379" lon="0.23128">
        <ele>1587.8</ele>
        <time>2023-11-19T13:29:58Z</time>
      </trkpt>
      <trkpt lat="43.01379" lon="0.23128">
        <ele>1587.8</ele>
        <time>2023-11-19T13:29:59Z</time>
      </trkpt>
      <trkpt lat="43.01379" lon="0.23128">
        <ele>1587.8</ele>
        <time>2023-11-19T13:30:00Z</time>
      </trkpt>
      <trkpt lat="43.01379" lon="0.23128">
        <ele>1587.8</ele>
        <time>2023-11-19T13:30:01Z</time>
      </trkpt>
      <trkpt lat="43.01379" lon="0.23128">
        <ele>1587.8</ele>
        <time>2023-11-19T13:30:02Z</time>
      </trkpt>
      <trkpt lat="43.01379" lon="0.23128">
        <ele>1587.8</ele>
        <time>2023-11-19T13:30:03Z</time>
      </trkpt>
      <trkpt lat="43.01379" lon="0.23128">
        <ele>1587.8</ele>
        <time>2023-11-19T13:30:04Z</time>
      </trkpt>
      <trkpt lat="43.01379" lon="0.23128">
        <ele>1587.8</ele>
        <time>2023-11-19T13:30:05Z</time>
      </trkpt>
      <trkpt lat="43.01379" lon="0.23128">
        <ele>1587.8</ele>
        <time>2023-11-19T13:30:06Z</time>
      </trkpt>
      <trkpt lat="43.01379" lon="0.23128">
        <ele>1587.8</ele>
        <time>2023-11-19T13:30:07Z</time>
      </trkpt>
      <trkpt lat="43.01379" lon="0.23128">
        <ele>1587.8</ele>
        <time>2023-11-19T13:30:08Z</time>
      </trkpt>
      <trkpt lat="43.01379" lon="0.23127">
        <ele>1587.8</ele>
        <time>2023-11-19T13:30:09Z</time>
      </trkpt>
      <trkpt lat="43.01379" lon="0.23127">
        <ele>1587.8</ele>
        <time>2023-11-19T13:30:10Z</time>
      </trkpt>
      <trkpt lat="43.01379" lon="0.23127">
        <ele>1587.8</ele>
        <time>2023-11-19T13:30:11Z</time>
      </trkpt>
      <trkpt lat="43.01379" lon="0.23127">
        <ele>1587.8</ele>
        <time>2023-11-19T13:30:12Z</time>
      </trkpt>
      <trkpt lat="43.01379" lon="0.23127">
        <ele>1587.8</ele>
        <time>2023-11-19T13:30:13Z</time>
      </trkpt>
      <trkpt lat="43.01379" lon="0.23127">
        <ele>1587.8</ele>
        <time>2023-11-19T13:30:14Z</time>
      </trkpt>
      <trkpt lat="43.01379" lon="0.23127">
        <ele>1587.8</ele>
        <time>2023-11-19T13:30:15Z</time>
      </trkpt>
      <trkpt lat="43.01379" lon="0.23127">
        <ele>1587.8</ele>
        <time>2023-11-19T13:30:16Z</time>
      </trkpt>
      <trkpt lat="43.01379" lon="0.23127">
        <ele>1587.8</ele>
        <time>2023-11-19T13:30:17Z</time>
      </trkpt>
      <trkpt lat="43.01379" lon="0.23127">
        <ele>1587.8</ele>
        <time>2023-11-19T13:30:18Z</time>
      </trkpt>
      <trkpt lat="43.01379" lon="0.23127">
        <ele>1587.8</ele>
        <time>2023-11-19T13:30:19Z</time>
      </trkpt>
      <trkpt lat="43.01379" lon="0.23127">
        <ele>1587.8</ele>
        <time>2023-11-19T13:30:20Z</time>
      </trkpt>
      <trkpt lat="43.01379" lon="0.23127">
        <ele>1587.8</ele>
        <time>2023-11-19T13:30:21Z</time>
      </trkpt>
      <trkpt lat="43.01379" lon="0.23127">
        <ele>1587.8</ele>
        <time>2023-11-19T13:30:22Z</time>
      </trkpt>
      <trkpt lat="43.01379" lon="0.23127">
        <ele>1587.8</ele>
        <time>2023-11-19T13:30:23Z</time>
      </trkpt>
      <trkpt lat="43.0138" lon="0.23128">
        <ele>1587.8</ele>
        <time>2023-11-19T13:30:24Z</time>
      </trkpt>
      <trkpt lat="43.01381" lon="0.23128">
        <ele>1587.8</ele>
        <time>2023-11-19T13:30:25Z</time>
      </trkpt>
      <trkpt lat="43.0138" lon="0.23128">
        <ele>1587.8</ele>
        <time>2023-11-19T13:30:26Z</time>
      </trkpt>
      <trkpt lat="43.0138" lon="0.23128">
        <ele>1587.8</ele>
        <time>2023-11-19T13:30:27Z</time>
      </trkpt>
      <trkpt lat="43.0138" lon="0.23128">
        <ele>1587.8</ele>
        <time>2023-11-19T13:30:28Z</time>
      </trkpt>
      <trkpt lat="43.0138" lon="0.23128">
        <ele>1587.8</ele>
        <time>2023-11-19T13:30:29Z</time>
      </trkpt>
      <trkpt lat="43.0138" lon="0.23128">
        <ele>1587.8</ele>
        <time>2023-11-19T13:30:30Z</time>
      </trkpt>
      <trkpt lat="43.0138" lon="0.23128">
        <ele>1587.8</ele>
        <time>2023-11-19T13:30:31Z</time>
      </trkpt>
      <trkpt lat="43.0138" lon="0.23128">
        <ele>1587.8</ele>
        <time>2023-11-19T13:30:32Z</time>
      </trkpt>
      <trkpt lat="43.0138" lon="0.23128">
        <ele>1587.8</ele>
        <time>2023-11-19T13:30:33Z</time>
      </trkpt>
      <trkpt lat="43.0138" lon="0.23128">
        <ele>1587.8</ele>
        <time>2023-11-19T13:30:34Z</time>
      </trkpt>
      <trkpt lat="43.0138" lon="0.23127">
        <ele>1587.8</ele>
        <time>2023-11-19T13:30:35Z</time>
      </trkpt>
      <trkpt lat="43.01381" lon="0.23128">
        <ele>1587.8</ele>
        <time>2023-11-19T13:30:36Z</time>
      </trkpt>
      <trkpt lat="43.0138" lon="0.23129">
        <ele>1587.8</ele>
        <time>2023-11-19T13:30:37Z</time>
      </trkpt>
      <trkpt lat="43.0138" lon="0.23129">
        <ele>1587.8</ele>
        <time>2023-11-19T13:30:38Z</time>
      </trkpt>
      <trkpt lat="43.0138" lon="0.23129">
        <ele>1587.8</ele>
        <time>2023-11-19T13:30:39Z</time>
      </trkpt>
      <trkpt lat="43.0138" lon="0.23129">
        <ele>1587.8</ele>
        <time>2023-11-19T13:30:40Z</time>
      </trkpt>
      <trkpt lat="43.0138" lon="0.23129">
        <ele>1587.8</ele>
        <time>2023-11-19T13:30:41Z</time>
      </trkpt>
      <trkpt lat="43.0138" lon="0.23129">
        <ele>1587.7</ele>
        <time>2023-11-19T13:30:42Z</time>
      </trkpt>
      <trkpt lat="43.01381" lon="0.2313">
        <ele>1587.7</ele>
        <time>2023-11-19T13:30:43Z</time>
      </trkpt>
      <trkpt lat="43.01381" lon="0.23129">
        <ele>1587.7</ele>
        <time>2023-11-19T13:30:44Z</time>
      </trkpt>
      <trkpt lat="43.01381" lon="0.23129">
        <ele>1587.7</ele>
        <time>2023-11-19T13:30:45Z</time>
      </trkpt>
      <trkpt lat="43.01381" lon="0.23128">
        <ele>1587.7</ele>
        <time>2023-11-19T13:30:46Z</time>
      </trkpt>
      <trkpt lat="43.01381" lon="0.23129">
        <ele>1587.7</ele>
        <time>2023-11-19T13:30:47Z</time>
      </trkpt>
      <trkpt lat="43.01381" lon="0.23128">
        <ele>1587.7</ele>
        <time>2023-11-19T13:30:48Z</time>
      </trkpt>
      <trkpt lat="43.01381" lon="0.23128">
        <ele>1587.7</ele>
        <time>2023-11-19T13:30:49Z</time>
      </trkpt>
      <trkpt lat="43.0138" lon="0.23128">
        <ele>1587.7</ele>
        <time>2023-11-19T13:30:50Z</time>
      </trkpt>
      <trkpt lat="43.0138" lon="0.23129">
        <ele>1587.7</ele>
        <time>2023-11-19T13:30:51Z</time>
      </trkpt>
      <trkpt lat="43.0138" lon="0.23128">
        <ele>1587.7</ele>
        <time>2023-11-19T13:30:52Z</time>
      </trkpt>
      <trkpt lat="43.0138" lon="0.23129">
        <ele>1587.7</ele>
        <time>2023-11-19T13:30:53Z</time>
      </trkpt>
      <trkpt lat="43.0138" lon="0.23129">
        <ele>1587.7</ele>
        <time>2023-11-19T13:30:54Z</time>
      </trkpt>
      <trkpt lat="43.0138" lon="0.2313">
        <ele>1587.7</ele>
        <time>2023-11-19T13:30:55Z</time>
      </trkpt>
      <trkpt lat="43.01381" lon="0.23129">
        <ele>1587.7</ele>
        <time>2023-11-19T13:30:56Z</time>
      </trkpt>
      <trkpt lat="43.01381" lon="0.23129">
        <ele>1587.7</ele>
        <time>2023-11-19T13:30:57Z</time>
      </trkpt>
      <trkpt lat="43.01381" lon="0.23128">
        <ele>1587.7</ele>
        <time>2023-11-19T13:30:58Z</time>
      </trkpt>
      <trkpt lat="43.01381" lon="0.2313">
        <ele>1587.7</ele>
        <time>2023-11-19T13:30:59Z</time>
      </trkpt>
      <trkpt lat="43.01382" lon="0.23131">
        <ele>1587.7</ele>
        <time>2023-11-19T13:31:00Z</time>
      </trkpt>
      <trkpt lat="43.01382" lon="0.23132">
        <ele>1587.7</ele>
        <time>2023-11-19T13:31:01Z</time>
      </trkpt>
      <trkpt lat="43.01383" lon="0.23133">
        <ele>1587.7</ele>
        <time>2023-11-19T13:31:02Z</time>
      </trkpt>
      <trkpt lat="43.01383" lon="0.23133">
        <ele>1587.7</ele>
        <time>2023-11-19T13:31:03Z</time>
      </trkpt>
      <trkpt lat="43.01384" lon="0.23133">
        <ele>1587.7</ele>
        <time>2023-11-19T13:31:04Z</time>
      </trkpt>
      <trkpt lat="43.01386" lon="0.23135">
        <ele>1587.6</ele>
        <time>2023-11-19T13:31:05Z</time>
      </trkpt>
      <trkpt lat="43.01387" lon="0.23135">
        <ele>1587.6</ele>
        <time>2023-11-19T13:31:06Z</time>
      </trkpt>
      <trkpt lat="43.01388" lon="0.23136">
        <ele>1587.6</ele>
        <time>2023-11-19T13:31:07Z</time>
      </trkpt>
      <trkpt lat="43.01388" lon="0.23136">
        <ele>1587.6</ele>
        <time>2023-11-19T13:31:08Z</time>
      </trkpt>
      <trkpt lat="43.0139" lon="0.23137">
        <ele>1587.6</ele>
        <time>2023-11-19T13:31:09Z</time>
      </trkpt>
      <trkpt lat="43.01391" lon="0.23138">
        <ele>1587.6</ele>
        <time>2023-11-19T13:31:10Z</time>
      </trkpt>
      <trkpt lat="43.01392" lon="0.23139">
        <ele>1587.6</ele>
        <time>2023-11-19T13:31:11Z</time>
      </trkpt>
      <trkpt lat="43.01393" lon="0.2314">
        <ele>1587.5</ele>
        <time>2023-11-19T13:31:12Z</time>
      </trkpt>
      <trkpt lat="43.01394" lon="0.23139">
        <ele>1587.5</ele>
        <time>2023-11-19T13:31:13Z</time>
      </trkpt>
      <trkpt lat="43.01395" lon="0.2314">
        <ele>1587.5</ele>
        <time>2023-11-19T13:31:14Z</time>
      </trkpt>
      <trkpt lat="43.01396" lon="0.2314">
        <ele>1587.5</ele>
        <time>2023-11-19T13:31:15Z</time>
      </trkpt>
      <trkpt lat="43.01397" lon="0.2314">
        <ele>1587.5</ele>
        <time>2023-11-19T13:31:16Z</time>
      </trkpt>
      <trkpt lat="43.01398" lon="0.2314">
        <ele>1587.5</ele>
        <time>2023-11-19T13:31:17Z</time>
      </trkpt>
      <trkpt lat="43.01399" lon="0.23141">
        <ele>1587.4</ele>
        <time>2023-11-19T13:31:18Z</time>
      </trkpt>
      <trkpt lat="43.014" lon="0.23141">
        <ele>1587.4</ele>
        <time>2023-11-19T13:31:19Z</time>
      </trkpt>
      <trkpt lat="43.01401" lon="0.23141">
        <ele>1587.4</ele>
        <time>2023-11-19T13:31:20Z</time>
      </trkpt>
      <trkpt lat="43.01403" lon="0.2314">
        <ele>1587.3</ele>
        <time>2023-11-19T13:31:21Z</time>
      </trkpt>
      <trkpt lat="43.01404" lon="0.23141">
        <ele>1587.3</ele>
        <time>2023-11-19T13:31:22Z</time>
      </trkpt>
      <trkpt lat="43.01405" lon="0.23141">
        <ele>1587.2</ele>
        <time>2023-11-19T13:31:23Z</time>
      </trkpt>
      <trkpt lat="43.01404" lon="0.23142">
        <ele>1587.2</ele>
        <time>2023-11-19T13:31:24Z</time>
      </trkpt>
      <trkpt lat="43.01404" lon="0.23141">
        <ele>1587.2</ele>
        <time>2023-11-19T13:31:25Z</time>
      </trkpt>
      <trkpt lat="43.01404" lon="0.23141">
        <ele>1587.2</ele>
        <time>2023-11-19T13:31:26Z</time>
      </trkpt>
      <trkpt lat="43.01404" lon="0.23141">
        <ele>1587.2</ele>
        <time>2023-11-19T13:31:27Z</time>
      </trkpt>
      <trkpt lat="43.01404" lon="0.23141">
        <ele>1587.2</ele>
        <time>2023-11-19T13:31:28Z</time>
      </trkpt>
      <trkpt lat="43.01406" lon="0.23141">
        <ele>1587.1</ele>
        <time>2023-11-19T13:31:29Z</time>
      </trkpt>
      <trkpt lat="43.01405" lon="0.23141">
        <ele>1587.1</ele>
        <time>2023-11-19T13:31:30Z</time>
      </trkpt>
      <trkpt lat="43.01406" lon="0.23141">
        <ele>1587.1</ele>
        <time>2023-11-19T13:31:31Z</time>
      </trkpt>
      <trkpt lat="43.01407" lon="0.23142">
        <ele>1587.1</ele>
        <time>2023-11-19T13:31:32Z</time>
      </trkpt>
      <trkpt lat="43.01407" lon="0.23143">
        <ele>1587</ele>
        <time>2023-11-19T13:31:33Z</time>
      </trkpt>
      <trkpt lat="43.01408" lon="0.23143">
        <ele>1587</ele>
        <time>2023-11-19T13:31:34Z</time>
      </trkpt>
      <trkpt lat="43.01409" lon="0.23143">
        <ele>1587</ele>
        <time>2023-11-19T13:31:35Z</time>
      </trkpt>
      <trkpt lat="43.01409" lon="0.23144">
        <ele>1586.9</ele>
        <time>2023-11-19T13:31:36Z</time>
      </trkpt>
      <trkpt lat="43.0141" lon="0.23145">
        <ele>1586.9</ele>
        <time>2023-11-19T13:31:37Z</time>
      </trkpt>
      <trkpt lat="43.0141" lon="0.23145">
        <ele>1586.8</ele>
        <time>2023-11-19T13:31:38Z</time>
      </trkpt>
      <trkpt lat="43.01412" lon="0.23146">
        <ele>1586.8</ele>
        <time>2023-11-19T13:31:39Z</time>
      </trkpt>
      <trkpt lat="43.01413" lon="0.23146">
        <ele>1586.7</ele>
        <time>2023-11-19T13:31:40Z</time>
      </trkpt>
      <trkpt lat="43.01413" lon="0.23146">
        <ele>1586.7</ele>
        <time>2023-11-19T13:31:41Z</time>
      </trkpt>
      <trkpt lat="43.01414" lon="0.23146">
        <ele>1586.7</ele>
        <time>2023-11-19T13:31:42Z</time>
      </trkpt>
      <trkpt lat="43.01415" lon="0.23145">
        <ele>1586.6</ele>
        <time>2023-11-19T13:31:43Z</time>
      </trkpt>
      <trkpt lat="43.01415" lon="0.23145">
        <ele>1586.6</ele>
        <time>2023-11-19T13:31:44Z</time>
      </trkpt>
      <trkpt lat="43.01416" lon="0.23145">
        <ele>1586.6</ele>
        <time>2023-11-19T13:31:45Z</time>
      </trkpt>
      <trkpt lat="43.01418" lon="0.23145">
        <ele>1586.5</ele>
        <time>2023-11-19T13:31:46Z</time>
      </trkpt>
      <trkpt lat="43.01418" lon="0.23146">
        <ele>1586.4</ele>
        <time>2023-11-19T13:31:47Z</time>
      </trkpt>
      <trkpt lat="43.01419" lon="0.23146">
        <ele>1586.4</ele>
        <time>2023-11-19T13:31:48Z</time>
      </trkpt>
      <trkpt lat="43.01419" lon="0.23145">
        <ele>1586.4</ele>
        <time>2023-11-19T13:31:49Z</time>
      </trkpt>
      <trkpt lat="43.0142" lon="0.23145">
        <ele>1586.3</ele>
        <time>2023-11-19T13:31:50Z</time>
      </trkpt>
      <trkpt lat="43.01421" lon="0.23144">
        <ele>1586.3</ele>
        <time>2023-11-19T13:31:51Z</time>
      </trkpt>
      <trkpt lat="43.01421" lon="0.23143">
        <ele>1585.8</ele>
        <time>2023-11-19T13:31:52Z</time>
      </trkpt>
      <trkpt lat="43.01421" lon="0.23143">
        <ele>1585.8</ele>
        <time>2023-11-19T13:31:53Z</time>
      </trkpt>
      <trkpt lat="43.01421" lon="0.23142">
        <ele>1585.8</ele>
        <time>2023-11-19T13:31:54Z</time>
      </trkpt>
      <trkpt lat="43.01421" lon="0.23141">
        <ele>1585.8</ele>
        <time>2023-11-19T13:31:55Z</time>
      </trkpt>
      <trkpt lat="43.0142" lon="0.23141">
        <ele>1585.8</ele>
        <time>2023-11-19T13:31:56Z</time>
      </trkpt>
      <trkpt lat="43.01419" lon="0.23141">
        <ele>1585.8</ele>
        <time>2023-11-19T13:31:57Z</time>
      </trkpt>
      <trkpt lat="43.01418" lon="0.2314">
        <ele>1584.3</ele>
        <time>2023-11-19T13:31:58Z</time>
      </trkpt>
      <trkpt lat="43.01418" lon="0.2314">
        <ele>1584.3</ele>
        <time>2023-11-19T13:31:59Z</time>
      </trkpt>
      <trkpt lat="43.01417" lon="0.2314">
        <ele>1584.3</ele>
        <time>2023-11-19T13:32:00Z</time>
      </trkpt>
      <trkpt lat="43.01416" lon="0.2314">
        <ele>1583.5</ele>
        <time>2023-11-19T13:32:01Z</time>
      </trkpt>
      <trkpt lat="43.01416" lon="0.23139">
        <ele>1583.5</ele>
        <time>2023-11-19T13:32:02Z</time>
      </trkpt>
      <trkpt lat="43.01415" lon="0.23139">
        <ele>1581.9</ele>
        <time>2023-11-19T13:32:03Z</time>
      </trkpt>
      <trkpt lat="43.01415" lon="0.23139">
        <ele>1581.9</ele>
        <time>2023-11-19T13:32:04Z</time>
      </trkpt>
      <trkpt lat="43.01414" lon="0.23139">
        <ele>1581.9</ele>
        <time>2023-11-19T13:32:05Z</time>
      </trkpt>
      <trkpt lat="43.01414" lon="0.23138">
        <ele>1581.9</ele>
        <time>2023-11-19T13:32:06Z</time>
      </trkpt>
      <trkpt lat="43.01413" lon="0.23138">
        <ele>1581.9</ele>
        <time>2023-11-19T13:32:07Z</time>
      </trkpt>
      <trkpt lat="43.01413" lon="0.23137">
        <ele>1581.9</ele>
        <time>2023-11-19T13:32:08Z</time>
      </trkpt>
      <trkpt lat="43.01413" lon="0.23136">
        <ele>1581.9</ele>
        <time>2023-11-19T13:32:09Z</time>
      </trkpt>
      <trkpt lat="43.01413" lon="0.23135">
        <ele>1581</ele>
        <time>2023-11-19T13:32:10Z</time>
      </trkpt>
      <trkpt lat="43.01413" lon="0.23135">
        <ele>1581</ele>
        <time>2023-11-19T13:32:11Z</time>
      </trkpt>
      <trkpt lat="43.01413" lon="0.23136">
        <ele>1581</ele>
        <time>2023-11-19T13:32:12Z</time>
      </trkpt>
      <trkpt lat="43.01413" lon="0.23136">
        <ele>1582</ele>
        <time>2023-11-19T13:32:13Z</time>
      </trkpt>
      <trkpt lat="43.01413" lon="0.23136">
        <ele>1581</ele>
        <time>2023-11-19T13:32:14Z</time>
      </trkpt>
      <trkpt lat="43.01414" lon="0.23135">
        <ele>1581</ele>
        <time>2023-11-19T13:32:15Z</time>
      </trkpt>
      <trkpt lat="43.01414" lon="0.23134">
        <ele>1581</ele>
        <time>2023-11-19T13:32:16Z</time>
      </trkpt>
      <trkpt lat="43.01414" lon="0.23135">
        <ele>1581</ele>
        <time>2023-11-19T13:32:17Z</time>
      </trkpt>
      <trkpt lat="43.01413" lon="0.23135">
        <ele>1581</ele>
        <time>2023-11-19T13:32:18Z</time>
      </trkpt>
      <trkpt lat="43.01413" lon="0.23135">
        <ele>1581</ele>
        <time>2023-11-19T13:32:19Z</time>
      </trkpt>
      <trkpt lat="43.01414" lon="0.23135">
        <ele>1581</ele>
        <time>2023-11-19T13:32:20Z</time>
      </trkpt>
      <trkpt lat="43.01414" lon="0.23135">
        <ele>1581</ele>
        <time>2023-11-19T13:32:21Z</time>
      </trkpt>
      <trkpt lat="43.01414" lon="0.23134">
        <ele>1581</ele>
        <time>2023-11-19T13:32:22Z</time>
      </trkpt>
      <trkpt lat="43.01414" lon="0.23134">
        <ele>1581</ele>
        <time>2023-11-19T13:32:23Z</time>
      </trkpt>
      <trkpt lat="43.01414" lon="0.23134">
        <ele>1581</ele>
        <time>2023-11-19T13:32:24Z</time>
      </trkpt>
      <trkpt lat="43.01414" lon="0.23134">
        <ele>1581</ele>
        <time>2023-11-19T13:32:25Z</time>
      </trkpt>
      <trkpt lat="43.01414" lon="0.23134">
        <ele>1581</ele>
        <time>2023-11-19T13:32:26Z</time>
      </trkpt>
      <trkpt lat="43.01414" lon="0.23134">
        <ele>1581</ele>
        <time>2023-11-19T13:32:27Z</time>
      </trkpt>
      <trkpt lat="43.01414" lon="0.23134">
        <ele>1581</ele>
        <time>2023-11-19T13:32:28Z</time>
      </trkpt>
      <trkpt lat="43.01414" lon="0.23134">
        <ele>1581</ele>
        <time>2023-11-19T13:32:29Z</time>
      </trkpt>
      <trkpt lat="43.01414" lon="0.23134">
        <ele>1581</ele>
        <time>2023-11-19T13:32:30Z</time>
      </trkpt>
      <trkpt lat="43.01414" lon="0.23134">
        <ele>1581</ele>
        <time>2023-11-19T13:32:31Z</time>
      </trkpt>
      <trkpt lat="43.01414" lon="0.23134">
        <ele>1581</ele>
        <time>2023-11-19T13:32:32Z</time>
      </trkpt>
      <trkpt lat="43.01414" lon="0.23134">
        <ele>1581</ele>
        <time>2023-11-19T13:32:33Z</time>
      </trkpt>
      <trkpt lat="43.01414" lon="0.23134">
        <ele>1581</ele>
        <time>2023-11-19T13:32:34Z</time>
      </trkpt>
      <trkpt lat="43.01414" lon="0.23134">
        <ele>1581</ele>
        <time>2023-11-19T13:32:35Z</time>
      </trkpt>
      <trkpt lat="43.01414" lon="0.23134">
        <ele>1581</ele>
        <time>2023-11-19T13:32:37Z</time>
      </trkpt>
      <trkpt lat="43.01414" lon="0.23134">
        <ele>1581</ele>
        <time>2023-11-19T13:32:38Z</time>
      </trkpt>
      <trkpt lat="43.01414" lon="0.23134">
        <ele>1581</ele>
        <time>2023-11-19T13:32:39Z</time>
      </trkpt>
      <trkpt lat="43.01414" lon="0.23134">
        <ele>1581</ele>
        <time>2023-11-19T13:32:40Z</time>
      </trkpt>
      <trkpt lat="43.01414" lon="0.23134">
        <ele>1581</ele>
        <time>2023-11-19T13:32:41Z</time>
      </trkpt>
      <trkpt lat="43.01414" lon="0.23134">
        <ele>1581</ele>
        <time>2023-11-19T13:32:42Z</time>
      </trkpt>
      <trkpt lat="43.01414" lon="0.23134">
        <ele>1581</ele>
        <time>2023-11-19T13:32:43Z</time>
      </trkpt>
      <trkpt lat="43.01414" lon="0.23134">
        <ele>1581</ele>
        <time>2023-11-19T13:32:44Z</time>
      </trkpt>
      <trkpt lat="43.01414" lon="0.23134">
        <ele>1581</ele>
        <time>2023-11-19T13:32:45Z</time>
      </trkpt>
      <trkpt lat="43.01414" lon="0.23134">
        <ele>1581</ele>
        <time>2023-11-19T13:32:46Z</time>
      </trkpt>
      <trkpt lat="43.01414" lon="0.23134">
        <ele>1581</ele>
        <time>2023-11-19T13:32:47Z</time>
      </trkpt>
      <trkpt lat="43.01414" lon="0.23134">
        <ele>1581</ele>
        <time>2023-11-19T13:32:48Z</time>
      </trkpt>
      <trkpt lat="43.01414" lon="0.23134">
        <ele>1581</ele>
        <time>2023-11-19T13:32:49Z</time>
      </trkpt>
      <trkpt lat="43.01414" lon="0.23134">
        <ele>1581</ele>
        <time>2023-11-19T13:32:50Z</time>
      </trkpt>
      <trkpt lat="43.01414" lon="0.23134">
        <ele>1581</ele>
        <time>2023-11-19T13:32:51Z</time>
      </trkpt>
      <trkpt lat="43.01414" lon="0.23134">
        <ele>1581</ele>
        <time>2023-11-19T13:32:52Z</time>
      </trkpt>
      <trkpt lat="43.01414" lon="0.23134">
        <ele>1581</ele>
        <time>2023-11-19T13:32:53Z</time>
      </trkpt>
      <trkpt lat="43.01414" lon="0.23134">
        <ele>1581</ele>
        <time>2023-11-19T13:32:54Z</time>
      </trkpt>
      <trkpt lat="43.01414" lon="0.23134">
        <ele>1581</ele>
        <time>2023-11-19T13:32:55Z</time>
      </trkpt>
      <trkpt lat="43.01414" lon="0.23134">
        <ele>1581</ele>
        <time>2023-11-19T13:32:56Z</time>
      </trkpt>
      <trkpt lat="43.01414" lon="0.23134">
        <ele>1581</ele>
        <time>2023-11-19T13:32:57Z</time>
      </trkpt>
      <trkpt lat="43.01414" lon="0.23134">
        <ele>1581</ele>
        <time>2023-11-19T13:32:58Z</time>
      </trkpt>
      <trkpt lat="43.01414" lon="0.23134">
        <ele>1581</ele>
        <time>2023-11-19T13:32:59Z</time>
      </trkpt>
      <trkpt lat="43.01414" lon="0.23134">
        <ele>1581</ele>
        <time>2023-11-19T13:33:00Z</time>
      </trkpt>
      <trkpt lat="43.01414" lon="0.23134">
        <ele>1581</ele>
        <time>2023-11-19T13:33:01Z</time>
      </trkpt>
      <trkpt lat="43.01414" lon="0.23134">
        <ele>1581</ele>
        <time>2023-11-19T13:33:02Z</time>
      </trkpt>
      <trkpt lat="43.01414" lon="0.23134">
        <ele>1581</ele>
        <time>2023-11-19T13:33:03Z</time>
      </trkpt>
      <trkpt lat="43.01414" lon="0.23134">
        <ele>1581</ele>
        <time>2023-11-19T13:33:04Z</time>
      </trkpt>
      <trkpt lat="43.01414" lon="0.23134">
        <ele>1581</ele>
        <time>2023-11-19T13:33:05Z</time>
      </trkpt>
      <trkpt lat="43.01414" lon="0.23134">
        <ele>1581</ele>
        <time>2023-11-19T13:33:06Z</time>
      </trkpt>
      <trkpt lat="43.01414" lon="0.23134">
        <ele>1581</ele>
        <time>2023-11-19T13:33:07Z</time>
      </trkpt>
      <trkpt lat="43.01414" lon="0.23134">
        <ele>1581</ele>
        <time>2023-11-19T13:33:08Z</time>
      </trkpt>
      <trkpt lat="43.01414" lon="0.23134">
        <ele>1581</ele>
        <time>2023-11-19T13:33:09Z</time>
      </trkpt>
      <trkpt lat="43.01414" lon="0.23134">
        <ele>1581</ele>
        <time>2023-11-19T13:33:10Z</time>
      </trkpt>
      <trkpt lat="43.01414" lon="0.23134">
        <ele>1581</ele>
        <time>2023-11-19T13:33:11Z</time>
      </trkpt>
      <trkpt lat="43.01414" lon="0.23134">
        <ele>1581</ele>
        <time>2023-11-19T13:33:12Z</time>
      </trkpt>
      <trkpt lat="43.01414" lon="0.23134">
        <ele>1581</ele>
        <time>2023-11-19T13:33:13Z</time>
      </trkpt>
      <trkpt lat="43.01414" lon="0.23134">
        <ele>1581</ele>
        <time>2023-11-19T13:33:14Z</time>
      </trkpt>
      <trkpt lat="43.01414" lon="0.23134">
        <ele>1581</ele>
        <time>2023-11-19T13:33:15Z</time>
      </trkpt>
      <trkpt lat="43.01414" lon="0.23134">
        <ele>1581</ele>
        <time>2023-11-19T13:33:16Z</time>
      </trkpt>
      <trkpt lat="43.01414" lon="0.23134">
        <ele>1581</ele>
        <time>2023-11-19T13:33:17Z</time>
      </trkpt>
      <trkpt lat="43.01414" lon="0.23134">
        <ele>1581</ele>
        <time>2023-11-19T13:33:18Z</time>
      </trkpt>
      <trkpt lat="43.01414" lon="0.23134">
        <ele>1581</ele>
        <time>2023-11-19T13:33:19Z</time>
      </trkpt>
      <trkpt lat="43.01414" lon="0.23134">
        <ele>1581</ele>
        <time>2023-11-19T13:33:20Z</time>
      </trkpt>
      <trkpt lat="43.01414" lon="0.23134">
        <ele>1581</ele>
        <time>2023-11-19T13:33:21Z</time>
      </trkpt>
      <trkpt lat="43.01414" lon="0.23134">
        <ele>1581</ele>
        <time>2023-11-19T13:33:22Z</time>
      </trkpt>
      <trkpt lat="43.01414" lon="0.23134">
        <ele>1581</ele>
        <time>2023-11-19T13:33:23Z</time>
      </trkpt>
      <trkpt lat="43.01414" lon="0.23134">
        <ele>1581</ele>
        <time>2023-11-19T13:33:24Z</time>
      </trkpt>
      <trkpt lat="43.01414" lon="0.23134">
        <ele>1581</ele>
        <time>2023-11-19T13:33:25Z</time>
      </trkpt>
      <trkpt lat="43.01414" lon="0.23134">
        <ele>1581</ele>
        <time>2023-11-19T13:33:26Z</time>
      </trkpt>
      <trkpt lat="43.01414" lon="0.23134">
        <ele>1581</ele>
        <time>2023-11-19T13:33:27Z</time>
      </trkpt>
      <trkpt lat="43.01414" lon="0.23134">
        <ele>1581</ele>
        <time>2023-11-19T13:33:28Z</time>
      </trkpt>
      <trkpt lat="43.01414" lon="0.23134">
        <ele>1581</ele>
        <time>2023-11-19T13:33:29Z</time>
      </trkpt>
      <trkpt lat="43.01414" lon="0.23134">
        <ele>1581</ele>
        <time>2023-11-19T13:33:30Z</time>
      </trkpt>
      <trkpt lat="43.01414" lon="0.23134">
        <ele>1581</ele>
        <time>2023-11-19T13:33:31Z</time>
      </trkpt>
      <trkpt lat="43.01414" lon="0.23134">
        <ele>1581</ele>
        <time>2023-11-19T13:33:32Z</time>
      </trkpt>
      <trkpt lat="43.01414" lon="0.23134">
        <ele>1581</ele>
        <time>2023-11-19T13:33:33Z</time>
      </trkpt>
      <trkpt lat="43.01414" lon="0.23134">
        <ele>1581</ele>
        <time>2023-11-19T13:33:34Z</time>
      </trkpt>
      <trkpt lat="43.01414" lon="0.23134">
        <ele>1581</ele>
        <time>2023-11-19T13:33:35Z</time>
      </trkpt>
      <trkpt lat="43.01414" lon="0.23134">
        <ele>1581</ele>
        <time>2023-11-19T13:33:36Z</time>
      </trkpt>
      <trkpt lat="43.01414" lon="0.23134">
        <ele>1581</ele>
        <time>2023-11-19T13:33:37Z</time>
      </trkpt>
      <trkpt lat="43.01414" lon="0.23134">
        <ele>1581</ele>
        <time>2023-11-19T13:33:38Z</time>
      </trkpt>
      <trkpt lat="43.01414" lon="0.23134">
        <ele>1581</ele>
        <time>2023-11-19T13:33:39Z</time>
      </trkpt>
      <trkpt lat="43.01414" lon="0.23134">
        <ele>1581</ele>
        <time>2023-11-19T13:33:40Z</time>
      </trkpt>
      <trkpt lat="43.01414" lon="0.23134">
        <ele>1581</ele>
        <time>2023-11-19T13:33:41Z</time>
      </trkpt>
      <trkpt lat="43.01414" lon="0.23134">
        <ele>1581</ele>
        <time>2023-11-19T13:33:42Z</time>
      </trkpt>
      <trkpt lat="43.01414" lon="0.23134">
        <ele>1581</ele>
        <time>2023-11-19T13:33:43Z</time>
      </trkpt>
      <trkpt lat="43.01414" lon="0.23134">
        <ele>1581</ele>
        <time>2023-11-19T13:33:44Z</time>
      </trkpt>
      <trkpt lat="43.01414" lon="0.23134">
        <ele>1581.1</ele>
        <time>2023-11-19T13:33:45Z</time>
      </trkpt>
      <trkpt lat="43.01414" lon="0.23134">
        <ele>1581.1</ele>
        <time>2023-11-19T13:33:46Z</time>
      </trkpt>
      <trkpt lat="43.01414" lon="0.23134">
        <ele>1581.1</ele>
        <time>2023-11-19T13:33:47Z</time>
      </trkpt>
      <trkpt lat="43.01414" lon="0.23134">
        <ele>1581.1</ele>
        <time>2023-11-19T13:33:48Z</time>
      </trkpt>
      <trkpt lat="43.01414" lon="0.23134">
        <ele>1581.1</ele>
        <time>2023-11-19T13:33:49Z</time>
      </trkpt>
      <trkpt lat="43.01414" lon="0.23134">
        <ele>1581.1</ele>
        <time>2023-11-19T13:33:50Z</time>
      </trkpt>
      <trkpt lat="43.01414" lon="0.23134">
        <ele>1581.1</ele>
        <time>2023-11-19T13:33:51Z</time>
      </trkpt>
      <trkpt lat="43.01414" lon="0.23134">
        <ele>1581.1</ele>
        <time>2023-11-19T13:33:52Z</time>
      </trkpt>
      <trkpt lat="43.01414" lon="0.23134">
        <ele>1581.1</ele>
        <time>2023-11-19T13:33:53Z</time>
      </trkpt>
      <trkpt lat="43.01414" lon="0.23134">
        <ele>1581.1</ele>
        <time>2023-11-19T13:33:54Z</time>
      </trkpt>
      <trkpt lat="43.01414" lon="0.23134">
        <ele>1581.1</ele>
        <time>2023-11-19T13:33:55Z</time>
      </trkpt>
      <trkpt lat="43.01414" lon="0.23134">
        <ele>1581.1</ele>
        <time>2023-11-19T13:33:56Z</time>
      </trkpt>
      <trkpt lat="43.01414" lon="0.23134">
        <ele>1581.1</ele>
        <time>2023-11-19T13:33:57Z</time>
      </trkpt>
      <trkpt lat="43.01414" lon="0.23134">
        <ele>1581.1</ele>
        <time>2023-11-19T13:33:58Z</time>
      </trkpt>
      <trkpt lat="43.01414" lon="0.23134">
        <ele>1581.1</ele>
        <time>2023-11-19T13:33:59Z</time>
      </trkpt>
      <trkpt lat="43.01414" lon="0.23134">
        <ele>1581.1</ele>
        <time>2023-11-19T13:34:00Z</time>
      </trkpt>
      <trkpt lat="43.01414" lon="0.23134">
        <ele>1581.1</ele>
        <time>2023-11-19T13:34:01Z</time>
      </trkpt>
      <trkpt lat="43.01414" lon="0.23134">
        <ele>1581.1</ele>
        <time>2023-11-19T13:34:02Z</time>
      </trkpt>
      <trkpt lat="43.01414" lon="0.23134">
        <ele>1581.1</ele>
        <time>2023-11-19T13:34:03Z</time>
      </trkpt>
      <trkpt lat="43.01414" lon="0.23134">
        <ele>1581.1</ele>
        <time>2023-11-19T13:34:04Z</time>
      </trkpt>
      <trkpt lat="43.01414" lon="0.23134">
        <ele>1581.1</ele>
        <time>2023-11-19T13:34:05Z</time>
      </trkpt>
      <trkpt lat="43.01414" lon="0.23134">
        <ele>1581.1</ele>
        <time>2023-11-19T13:34:06Z</time>
      </trkpt>
      <trkpt lat="43.01414" lon="0.23134">
        <ele>1581.1</ele>
        <time>2023-11-19T13:34:07Z</time>
      </trkpt>
      <trkpt lat="43.01414" lon="0.23134">
        <ele>1581.1</ele>
        <time>2023-11-19T13:34:08Z</time>
      </trkpt>
      <trkpt lat="43.01414" lon="0.23134">
        <ele>1581.1</ele>
        <time>2023-11-19T13:34:09Z</time>
      </trkpt>
      <trkpt lat="43.01414" lon="0.23134">
        <ele>1581.1</ele>
        <time>2023-11-19T13:34:10Z</time>
      </trkpt>
      <trkpt lat="43.01414" lon="0.23134">
        <ele>1581.1</ele>
        <time>2023-11-19T13:34:11Z</time>
      </trkpt>
      <trkpt lat="43.01414" lon="0.23134">
        <ele>1581.1</ele>
        <time>2023-11-19T13:34:12Z</time>
      </trkpt>
      <trkpt lat="43.01414" lon="0.23134">
        <ele>1581.1</ele>
        <time>2023-11-19T13:34:13Z</time>
      </trkpt>
      <trkpt lat="43.01414" lon="0.23134">
        <ele>1581.1</ele>
        <time>2023-11-19T13:34:14Z</time>
      </trkpt>
      <trkpt lat="43.01414" lon="0.23134">
        <ele>1581.1</ele>
        <time>2023-11-19T13:34:15Z</time>
      </trkpt>
      <trkpt lat="43.01414" lon="0.23134">
        <ele>1581.1</ele>
        <time>2023-11-19T13:34:16Z</time>
      </trkpt>
      <trkpt lat="43.01414" lon="0.23134">
        <ele>1581.1</ele>
        <time>2023-11-19T13:34:17Z</time>
      </trkpt>
      <trkpt lat="43.01414" lon="0.23134">
        <ele>1581.1</ele>
        <time>2023-11-19T13:34:18Z</time>
      </trkpt>
      <trkpt lat="43.01414" lon="0.23134">
        <ele>1581.1</ele>
        <time>2023-11-19T13:34:19Z</time>
      </trkpt>
      <trkpt lat="43.01414" lon="0.23134">
        <ele>1581.1</ele>
        <time>2023-11-19T13:34:20Z</time>
      </trkpt>
      <trkpt lat="43.01414" lon="0.23134">
        <ele>1581.1</ele>
        <time>2023-11-19T13:34:21Z</time>
      </trkpt>
      <trkpt lat="43.01414" lon="0.23134">
        <ele>1581.1</ele>
        <time>2023-11-19T13:34:22Z</time>
      </trkpt>
      <trkpt lat="43.01414" lon="0.23134">
        <ele>1581.1</ele>
        <time>2023-11-19T13:34:23Z</time>
      </trkpt>
      <trkpt lat="43.01414" lon="0.23134">
        <ele>1581.1</ele>
        <time>2023-11-19T13:34:24Z</time>
      </trkpt>
      <trkpt lat="43.01414" lon="0.23134">
        <ele>1581.1</ele>
        <time>2023-11-19T13:34:25Z</time>
      </trkpt>
      <trkpt lat="43.01414" lon="0.23134">
        <ele>1581.1</ele>
        <time>2023-11-19T13:34:26Z</time>
      </trkpt>
      <trkpt lat="43.01414" lon="0.23134">
        <ele>1581.1</ele>
        <time>2023-11-19T13:34:27Z</time>
      </trkpt>
      <trkpt lat="43.01414" lon="0.23134">
        <ele>1581.1</ele>
        <time>2023-11-19T13:34:28Z</time>
      </trkpt>
      <trkpt lat="43.01414" lon="0.23134">
        <ele>1581.1</ele>
        <time>2023-11-19T13:34:29Z</time>
      </trkpt>
      <trkpt lat="43.01414" lon="0.23134">
        <ele>1581.1</ele>
        <time>2023-11-19T13:34:30Z</time>
      </trkpt>
      <trkpt lat="43.01414" lon="0.23134">
        <ele>1581.1</ele>
        <time>2023-11-19T13:34:31Z</time>
      </trkpt>
      <trkpt lat="43.01414" lon="0.23134">
        <ele>1581.1</ele>
        <time>2023-11-19T13:34:32Z</time>
      </trkpt>
      <trkpt lat="43.01414" lon="0.23134">
        <ele>1581.1</ele>
        <time>2023-11-19T13:34:33Z</time>
      </trkpt>
      <trkpt lat="43.01414" lon="0.23134">
        <ele>1581.1</ele>
        <time>2023-11-19T13:34:34Z</time>
      </trkpt>
      <trkpt lat="43.01414" lon="0.23134">
        <ele>1581.1</ele>
        <time>2023-11-19T13:34:35Z</time>
      </trkpt>
      <trkpt lat="43.01414" lon="0.23134">
        <ele>1581.1</ele>
        <time>2023-11-19T13:34:36Z</time>
      </trkpt>
      <trkpt lat="43.01414" lon="0.23134">
        <ele>1581.1</ele>
        <time>2023-11-19T13:34:37Z</time>
      </trkpt>
      <trkpt lat="43.01414" lon="0.23134">
        <ele>1581.1</ele>
        <time>2023-11-19T13:34:38Z</time>
      </trkpt>
      <trkpt lat="43.01414" lon="0.23134">
        <ele>1581.1</ele>
        <time>2023-11-19T13:34:39Z</time>
      </trkpt>
      <trkpt lat="43.01414" lon="0.23134">
        <ele>1581.1</ele>
        <time>2023-11-19T13:34:40Z</time>
      </trkpt>
      <trkpt lat="43.01414" lon="0.23134">
        <ele>1581.1</ele>
        <time>2023-11-19T13:34:41Z</time>
      </trkpt>
      <trkpt lat="43.01414" lon="0.23134">
        <ele>1581.1</ele>
        <time>2023-11-19T13:34:43Z</time>
      </trkpt>
      <trkpt lat="43.01414" lon="0.23134">
        <ele>1581.1</ele>
        <time>2023-11-19T13:34:44Z</time>
      </trkpt>
      <trkpt lat="43.01414" lon="0.23134">
        <ele>1581.1</ele>
        <time>2023-11-19T13:34:45Z</time>
      </trkpt>
      <trkpt lat="43.01414" lon="0.23134">
        <ele>1581.1</ele>
        <time>2023-11-19T13:34:46Z</time>
      </trkpt>
      <trkpt lat="43.01414" lon="0.23134">
        <ele>1581.1</ele>
        <time>2023-11-19T13:34:47Z</time>
      </trkpt>
      <trkpt lat="43.01414" lon="0.23134">
        <ele>1581.1</ele>
        <time>2023-11-19T13:34:48Z</time>
      </trkpt>
      <trkpt lat="43.01414" lon="0.23134">
        <ele>1581.1</ele>
        <time>2023-11-19T13:34:49Z</time>
      </trkpt>
      <trkpt lat="43.01414" lon="0.23134">
        <ele>1581.1</ele>
        <time>2023-11-19T13:34:50Z</time>
      </trkpt>
      <trkpt lat="43.01414" lon="0.23134">
        <ele>1581.1</ele>
        <time>2023-11-19T13:34:51Z</time>
      </trkpt>
      <trkpt lat="43.01414" lon="0.23134">
        <ele>1581.1</ele>
        <time>2023-11-19T13:34:52Z</time>
      </trkpt>
      <trkpt lat="43.01414" lon="0.23134">
        <ele>1581.1</ele>
        <time>2023-11-19T13:34:53Z</time>
      </trkpt>
      <trkpt lat="43.01414" lon="0.23134">
        <ele>1581.1</ele>
        <time>2023-11-19T13:34:54Z</time>
      </trkpt>
      <trkpt lat="43.01414" lon="0.23134">
        <ele>1581.1</ele>
        <time>2023-11-19T13:34:55Z</time>
      </trkpt>
      <trkpt lat="43.01414" lon="0.23134">
        <ele>1581.1</ele>
        <time>2023-11-19T13:34:56Z</time>
      </trkpt>
      <trkpt lat="43.01414" lon="0.23134">
        <ele>1581.1</ele>
        <time>2023-11-19T13:34:57Z</time>
      </trkpt>
      <trkpt lat="43.01414" lon="0.23134">
        <ele>1581.1</ele>
        <time>2023-11-19T13:34:58Z</time>
      </trkpt>
      <trkpt lat="43.01414" lon="0.23134">
        <ele>1581.1</ele>
        <time>2023-11-19T13:34:59Z</time>
      </trkpt>
      <trkpt lat="43.01414" lon="0.23134">
        <ele>1581.1</ele>
        <time>2023-11-19T13:35:00Z</time>
      </trkpt>
      <trkpt lat="43.01414" lon="0.23134">
        <ele>1581.1</ele>
        <time>2023-11-19T13:35:01Z</time>
      </trkpt>
      <trkpt lat="43.01414" lon="0.23134">
        <ele>1581.1</ele>
        <time>2023-11-19T13:35:02Z</time>
      </trkpt>
      <trkpt lat="43.01414" lon="0.23134">
        <ele>1581.1</ele>
        <time>2023-11-19T13:35:03Z</time>
      </trkpt>
      <trkpt lat="43.01414" lon="0.23134">
        <ele>1581.1</ele>
        <time>2023-11-19T13:35:04Z</time>
      </trkpt>
      <trkpt lat="43.01414" lon="0.23134">
        <ele>1581.1</ele>
        <time>2023-11-19T13:35:05Z</time>
      </trkpt>
      <trkpt lat="43.01414" lon="0.23134">
        <ele>1581.1</ele>
        <time>2023-11-19T13:35:06Z</time>
      </trkpt>
      <trkpt lat="43.01414" lon="0.23134">
        <ele>1581.1</ele>
        <time>2023-11-19T13:35:07Z</time>
      </trkpt>
      <trkpt lat="43.01414" lon="0.23134">
        <ele>1581.1</ele>
        <time>2023-11-19T13:35:08Z</time>
      </trkpt>
      <trkpt lat="43.01414" lon="0.23134">
        <ele>1581.1</ele>
        <time>2023-11-19T13:35:09Z</time>
      </trkpt>
      <trkpt lat="43.01414" lon="0.23134">
        <ele>1581.1</ele>
        <time>2023-11-19T13:35:10Z</time>
      </trkpt>
      <trkpt lat="43.01414" lon="0.23134">
        <ele>1581.1</ele>
        <time>2023-11-19T13:35:11Z</time>
      </trkpt>
      <trkpt lat="43.01414" lon="0.23134">
        <ele>1581.1</ele>
        <time>2023-11-19T13:35:12Z</time>
      </trkpt>
      <trkpt lat="43.01414" lon="0.23134">
        <ele>1581.1</ele>
        <time>2023-11-19T13:35:13Z</time>
      </trkpt>
      <trkpt lat="43.01414" lon="0.23134">
        <ele>1581.1</ele>
        <time>2023-11-19T13:35:14Z</time>
      </trkpt>
      <trkpt lat="43.01414" lon="0.23134">
        <ele>1581.1</ele>
        <time>2023-11-19T13:35:15Z</time>
      </trkpt>
      <trkpt lat="43.01414" lon="0.23134">
        <ele>1581.1</ele>
        <time>2023-11-19T13:35:16Z</time>
      </trkpt>
      <trkpt lat="43.01414" lon="0.23134">
        <ele>1581.1</ele>
        <time>2023-11-19T13:35:17Z</time>
      </trkpt>
      <trkpt lat="43.01414" lon="0.23134">
        <ele>1581.1</ele>
        <time>2023-11-19T13:35:18Z</time>
      </trkpt>
      <trkpt lat="43.01414" lon="0.23134">
        <ele>1581.1</ele>
        <time>2023-11-19T13:35:19Z</time>
      </trkpt>
      <trkpt lat="43.01414" lon="0.23134">
        <ele>1581.1</ele>
        <time>2023-11-19T13:35:20Z</time>
      </trkpt>
      <trkpt lat="43.01414" lon="0.23134">
        <ele>1581.1</ele>
        <time>2023-11-19T13:35:21Z</time>
      </trkpt>
      <trkpt lat="43.01414" lon="0.23134">
        <ele>1581.1</ele>
        <time>2023-11-19T13:35:22Z</time>
      </trkpt>
      <trkpt lat="43.01414" lon="0.23134">
        <ele>1581.1</ele>
        <time>2023-11-19T13:35:23Z</time>
      </trkpt>
      <trkpt lat="43.01414" lon="0.23134">
        <ele>1581.1</ele>
        <time>2023-11-19T13:35:24Z</time>
      </trkpt>
      <trkpt lat="43.01414" lon="0.23134">
        <ele>1581.1</ele>
        <time>2023-11-19T13:35:25Z</time>
      </trkpt>
      <trkpt lat="43.01414" lon="0.23134">
        <ele>1581.1</ele>
        <time>2023-11-19T13:35:26Z</time>
      </trkpt>
      <trkpt lat="43.01414" lon="0.23134">
        <ele>1581.1</ele>
        <time>2023-11-19T13:35:27Z</time>
      </trkpt>
      <trkpt lat="43.01414" lon="0.23134">
        <ele>1581.1</ele>
        <time>2023-11-19T13:35:28Z</time>
      </trkpt>
      <trkpt lat="43.01414" lon="0.23134">
        <ele>1581.1</ele>
        <time>2023-11-19T13:35:29Z</time>
      </trkpt>
      <trkpt lat="43.01414" lon="0.23134">
        <ele>1581.1</ele>
        <time>2023-11-19T13:35:30Z</time>
      </trkpt>
      <trkpt lat="43.01414" lon="0.23134">
        <ele>1581.1</ele>
        <time>2023-11-19T13:35:31Z</time>
      </trkpt>
      <trkpt lat="43.01414" lon="0.23134">
        <ele>1581.1</ele>
        <time>2023-11-19T13:35:32Z</time>
      </trkpt>
      <trkpt lat="43.01414" lon="0.23134">
        <ele>1581.1</ele>
        <time>2023-11-19T13:35:33Z</time>
      </trkpt>
      <trkpt lat="43.01414" lon="0.23134">
        <ele>1581.1</ele>
        <time>2023-11-19T13:35:34Z</time>
      </trkpt>
      <trkpt lat="43.01414" lon="0.23134">
        <ele>1581.1</ele>
        <time>2023-11-19T13:35:35Z</time>
      </trkpt>
      <trkpt lat="43.01414" lon="0.23134">
        <ele>1581.1</ele>
        <time>2023-11-19T13:35:36Z</time>
      </trkpt>
      <trkpt lat="43.01414" lon="0.23134">
        <ele>1581.1</ele>
        <time>2023-11-19T13:35:37Z</time>
      </trkpt>
      <trkpt lat="43.01414" lon="0.23134">
        <ele>1581.1</ele>
        <time>2023-11-19T13:35:38Z</time>
      </trkpt>
      <trkpt lat="43.01414" lon="0.23134">
        <ele>1581.1</ele>
        <time>2023-11-19T13:35:39Z</time>
      </trkpt>
      <trkpt lat="43.01414" lon="0.23134">
        <ele>1581.1</ele>
        <time>2023-11-19T13:35:40Z</time>
      </trkpt>
      <trkpt lat="43.01414" lon="0.23134">
        <ele>1581.1</ele>
        <time>2023-11-19T13:35:41Z</time>
      </trkpt>
      <trkpt lat="43.01414" lon="0.23134">
        <ele>1581.1</ele>
        <time>2023-11-19T13:35:42Z</time>
      </trkpt>
      <trkpt lat="43.01414" lon="0.23134">
        <ele>1581.1</ele>
        <time>2023-11-19T13:35:43Z</time>
      </trkpt>
      <trkpt lat="43.01414" lon="0.23134">
        <ele>1581.1</ele>
        <time>2023-11-19T13:35:44Z</time>
      </trkpt>
      <trkpt lat="43.01414" lon="0.23134">
        <ele>1581.1</ele>
        <time>2023-11-19T13:35:45Z</time>
      </trkpt>
      <trkpt lat="43.01414" lon="0.23134">
        <ele>1581.1</ele>
        <time>2023-11-19T13:35:46Z</time>
      </trkpt>
      <trkpt lat="43.01414" lon="0.23134">
        <ele>1581.1</ele>
        <time>2023-11-19T13:35:47Z</time>
      </trkpt>
      <trkpt lat="43.01414" lon="0.23134">
        <ele>1581.1</ele>
        <time>2023-11-19T13:35:48Z</time>
      </trkpt>
      <trkpt lat="43.01414" lon="0.23134">
        <ele>1581.1</ele>
        <time>2023-11-19T13:35:49Z</time>
      </trkpt>
      <trkpt lat="43.01414" lon="0.23134">
        <ele>1581.1</ele>
        <time>2023-11-19T13:35:50Z</time>
      </trkpt>
      <trkpt lat="43.01414" lon="0.23134">
        <ele>1581.1</ele>
        <time>2023-11-19T13:35:51Z</time>
      </trkpt>
      <trkpt lat="43.01414" lon="0.23134">
        <ele>1581.1</ele>
        <time>2023-11-19T13:35:52Z</time>
      </trkpt>
      <trkpt lat="43.01414" lon="0.23134">
        <ele>1581.1</ele>
        <time>2023-11-19T13:35:53Z</time>
      </trkpt>
      <trkpt lat="43.01414" lon="0.23134">
        <ele>1581.1</ele>
        <time>2023-11-19T13:35:54Z</time>
      </trkpt>
      <trkpt lat="43.01414" lon="0.23134">
        <ele>1581.2</ele>
        <time>2023-11-19T13:35:55Z</time>
      </trkpt>
      <trkpt lat="43.01414" lon="0.23134">
        <ele>1581.2</ele>
        <time>2023-11-19T13:35:56Z</time>
      </trkpt>
      <trkpt lat="43.01414" lon="0.23134">
        <ele>1581.2</ele>
        <time>2023-11-19T13:35:57Z</time>
      </trkpt>
      <trkpt lat="43.01414" lon="0.23134">
        <ele>1581.2</ele>
        <time>2023-11-19T13:35:58Z</time>
      </trkpt>
      <trkpt lat="43.01414" lon="0.23134">
        <ele>1581.2</ele>
        <time>2023-11-19T13:35:59Z</time>
      </trkpt>
      <trkpt lat="43.01414" lon="0.23134">
        <ele>1581.2</ele>
        <time>2023-11-19T13:36:00Z</time>
      </trkpt>
      <trkpt lat="43.01414" lon="0.23134">
        <ele>1581.2</ele>
        <time>2023-11-19T13:36:01Z</time>
      </trkpt>
      <trkpt lat="43.01414" lon="0.23134">
        <ele>1581.2</ele>
        <time>2023-11-19T13:36:02Z</time>
      </trkpt>
      <trkpt lat="43.01414" lon="0.23134">
        <ele>1581.2</ele>
        <time>2023-11-19T13:36:03Z</time>
      </trkpt>
      <trkpt lat="43.01414" lon="0.23134">
        <ele>1581.2</ele>
        <time>2023-11-19T13:36:04Z</time>
      </trkpt>
      <trkpt lat="43.01414" lon="0.23134">
        <ele>1581.2</ele>
        <time>2023-11-19T13:36:05Z</time>
      </trkpt>
      <trkpt lat="43.01414" lon="0.23134">
        <ele>1581.2</ele>
        <time>2023-11-19T13:36:06Z</time>
      </trkpt>
      <trkpt lat="43.01414" lon="0.23134">
        <ele>1581.2</ele>
        <time>2023-11-19T13:36:07Z</time>
      </trkpt>
      <trkpt lat="43.01414" lon="0.23134">
        <ele>1581.2</ele>
        <time>2023-11-19T13:36:08Z</time>
      </trkpt>
      <trkpt lat="43.01414" lon="0.23134">
        <ele>1581.2</ele>
        <time>2023-11-19T13:36:09Z</time>
      </trkpt>
      <trkpt lat="43.01411" lon="0.23135">
        <ele>1579.6</ele>
        <time>2023-11-19T13:36:10Z</time>
      </trkpt>
      <trkpt lat="43.0141" lon="0.23137">
        <ele>1580.6</ele>
        <time>2023-11-19T13:36:11Z</time>
      </trkpt>
      <trkpt lat="43.01412" lon="0.23135">
        <ele>1579.6</ele>
        <time>2023-11-19T13:36:12Z</time>
      </trkpt>
      <trkpt lat="43.01413" lon="0.23136">
        <ele>1581.2</ele>
        <time>2023-11-19T13:36:13Z</time>
      </trkpt>
      <trkpt lat="43.01412" lon="0.23134">
        <ele>1579.6</ele>
        <time>2023-11-19T13:36:14Z</time>
      </trkpt>
      <trkpt lat="43.01413" lon="0.23136">
        <ele>1581.2</ele>
        <time>2023-11-19T13:36:15Z</time>
      </trkpt>
      <trkpt lat="43.01413" lon="0.23135">
        <ele>1581.2</ele>
        <time>2023-11-19T13:36:16Z</time>
      </trkpt>
      <trkpt lat="43.01413" lon="0.23136">
        <ele>1582.1</ele>
        <time>2023-11-19T13:36:17Z</time>
      </trkpt>
      <trkpt lat="43.01413" lon="0.23136">
        <ele>1582.1</ele>
        <time>2023-11-19T13:36:18Z</time>
      </trkpt>
      <trkpt lat="43.01413" lon="0.23136">
        <ele>1582.1</ele>
        <time>2023-11-19T13:36:19Z</time>
      </trkpt>
      <trkpt lat="43.01414" lon="0.23136">
        <ele>1582.1</ele>
        <time>2023-11-19T13:36:20Z</time>
      </trkpt>
      <trkpt lat="43.01412" lon="0.23137">
        <ele>1580.6</ele>
        <time>2023-11-19T13:36:21Z</time>
      </trkpt>
      <trkpt lat="43.01414" lon="0.23137">
        <ele>1582.1</ele>
        <time>2023-11-19T13:36:22Z</time>
      </trkpt>
      <trkpt lat="43.01415" lon="0.23137">
        <ele>1582.1</ele>
        <time>2023-11-19T13:36:23Z</time>
      </trkpt>
      <trkpt lat="43.01414" lon="0.23137">
        <ele>1582.1</ele>
        <time>2023-11-19T13:36:24Z</time>
      </trkpt>
      <trkpt lat="43.01414" lon="0.23136">
        <ele>1582.1</ele>
        <time>2023-11-19T13:36:25Z</time>
      </trkpt>
      <trkpt lat="43.01414" lon="0.23137">
        <ele>1582.1</ele>
        <time>2023-11-19T13:36:26Z</time>
      </trkpt>
      <trkpt lat="43.01415" lon="0.23136">
        <ele>1582.1</ele>
        <time>2023-11-19T13:36:27Z</time>
      </trkpt>
      <trkpt lat="43.01415" lon="0.23136">
        <ele>1582.1</ele>
        <time>2023-11-19T13:36:28Z</time>
      </trkpt>
      <trkpt lat="43.01416" lon="0.23137">
        <ele>1582.1</ele>
        <time>2023-11-19T13:36:29Z</time>
      </trkpt>
      <trkpt lat="43.01416" lon="0.23137">
        <ele>1582.2</ele>
        <time>2023-11-19T13:36:30Z</time>
      </trkpt>
      <trkpt lat="43.01416" lon="0.23137">
        <ele>1582.2</ele>
        <time>2023-11-19T13:36:31Z</time>
      </trkpt>
      <trkpt lat="43.01416" lon="0.23137">
        <ele>1582.2</ele>
        <time>2023-11-19T13:36:32Z</time>
      </trkpt>
      <trkpt lat="43.01416" lon="0.23137">
        <ele>1582.2</ele>
        <time>2023-11-19T13:36:33Z</time>
      </trkpt>
      <trkpt lat="43.01416" lon="0.23137">
        <ele>1582.2</ele>
        <time>2023-11-19T13:36:34Z</time>
      </trkpt>
      <trkpt lat="43.01416" lon="0.23137">
        <ele>1583.7</ele>
        <time>2023-11-19T13:36:35Z</time>
      </trkpt>
      <trkpt lat="43.01416" lon="0.23137">
        <ele>1583.7</ele>
        <time>2023-11-19T13:36:36Z</time>
      </trkpt>
      <trkpt lat="43.01416" lon="0.23136">
        <ele>1583.7</ele>
        <time>2023-11-19T13:36:37Z</time>
      </trkpt>
      <trkpt lat="43.01415" lon="0.23135">
        <ele>1581.2</ele>
        <time>2023-11-19T13:36:38Z</time>
      </trkpt>
      <trkpt lat="43.01415" lon="0.23135">
        <ele>1581.2</ele>
        <time>2023-11-19T13:36:39Z</time>
      </trkpt>
      <trkpt lat="43.01415" lon="0.23134">
        <ele>1581.2</ele>
        <time>2023-11-19T13:36:40Z</time>
      </trkpt>
      <trkpt lat="43.01415" lon="0.23133">
        <ele>1581.2</ele>
        <time>2023-11-19T13:36:41Z</time>
      </trkpt>
      <trkpt lat="43.01414" lon="0.23133">
        <ele>1581.2</ele>
        <time>2023-11-19T13:36:42Z</time>
      </trkpt>
      <trkpt lat="43.01414" lon="0.23132">
        <ele>1581.2</ele>
        <time>2023-11-19T13:36:43Z</time>
      </trkpt>
      <trkpt lat="43.01414" lon="0.23132">
        <ele>1581.2</ele>
        <time>2023-11-19T13:36:44Z</time>
      </trkpt>
      <trkpt lat="43.01414" lon="0.23131">
        <ele>1580</ele>
        <time>2023-11-19T13:36:45Z</time>
      </trkpt>
      <trkpt lat="43.01413" lon="0.2313">
        <ele>1580</ele>
        <time>2023-11-19T13:36:46Z</time>
      </trkpt>
      <trkpt lat="43.01413" lon="0.2313">
        <ele>1580</ele>
        <time>2023-11-19T13:36:47Z</time>
      </trkpt>
      <trkpt lat="43.01413" lon="0.23129">
        <ele>1580</ele>
        <time>2023-11-19T13:36:48Z</time>
      </trkpt>
      <trkpt lat="43.01413" lon="0.23129">
        <ele>1580</ele>
        <time>2023-11-19T13:36:49Z</time>
      </trkpt>
      <trkpt lat="43.01413" lon="0.23128">
        <ele>1580</ele>
        <time>2023-11-19T13:36:50Z</time>
      </trkpt>
      <trkpt lat="43.01412" lon="0.23127">
        <ele>1578.4</ele>
        <time>2023-11-19T13:36:51Z</time>
      </trkpt>
      <trkpt lat="43.01412" lon="0.23127">
        <ele>1577</ele>
        <time>2023-11-19T13:36:52Z</time>
      </trkpt>
      <trkpt lat="43.01412" lon="0.23126">
        <ele>1577</ele>
        <time>2023-11-19T13:36:53Z</time>
      </trkpt>
      <trkpt lat="43.01412" lon="0.23126">
        <ele>1577</ele>
        <time>2023-11-19T13:36:54Z</time>
      </trkpt>
      <trkpt lat="43.01411" lon="0.23125">
        <ele>1577</ele>
        <time>2023-11-19T13:36:55Z</time>
      </trkpt>
      <trkpt lat="43.01411" lon="0.23124">
        <ele>1577</ele>
        <time>2023-11-19T13:36:56Z</time>
      </trkpt>
      <trkpt lat="43.0141" lon="0.23125">
        <ele>1577</ele>
        <time>2023-11-19T13:36:57Z</time>
      </trkpt>
      <trkpt lat="43.0141" lon="0.23125">
        <ele>1577</ele>
        <time>2023-11-19T13:36:58Z</time>
      </trkpt>
      <trkpt lat="43.0141" lon="0.23126">
        <ele>1577</ele>
        <time>2023-11-19T13:36:59Z</time>
      </trkpt>
      <trkpt lat="43.0141" lon="0.23126">
        <ele>1577</ele>
        <time>2023-11-19T13:37:00Z</time>
      </trkpt>
      <trkpt lat="43.01411" lon="0.23126">
        <ele>1577</ele>
        <time>2023-11-19T13:37:01Z</time>
      </trkpt>
      <trkpt lat="43.01411" lon="0.23127">
        <ele>1577</ele>
        <time>2023-11-19T13:37:02Z</time>
      </trkpt>
      <trkpt lat="43.01411" lon="0.23127">
        <ele>1577</ele>
        <time>2023-11-19T13:37:03Z</time>
      </trkpt>
      <trkpt lat="43.01411" lon="0.23127">
        <ele>1578.4</ele>
        <time>2023-11-19T13:37:04Z</time>
      </trkpt>
      <trkpt lat="43.01411" lon="0.23128">
        <ele>1578.4</ele>
        <time>2023-11-19T13:37:05Z</time>
      </trkpt>
      <trkpt lat="43.01412" lon="0.23128">
        <ele>1578.4</ele>
        <time>2023-11-19T13:37:06Z</time>
      </trkpt>
      <trkpt lat="43.01412" lon="0.23129">
        <ele>1578.4</ele>
        <time>2023-11-19T13:37:07Z</time>
      </trkpt>
      <trkpt lat="43.01412" lon="0.23129">
        <ele>1578.4</ele>
        <time>2023-11-19T13:37:08Z</time>
      </trkpt>
      <trkpt lat="43.01412" lon="0.23129">
        <ele>1578.4</ele>
        <time>2023-11-19T13:37:09Z</time>
      </trkpt>
      <trkpt lat="43.01412" lon="0.2313">
        <ele>1578.4</ele>
        <time>2023-11-19T13:37:10Z</time>
      </trkpt>
      <trkpt lat="43.01412" lon="0.2313">
        <ele>1578.4</ele>
        <time>2023-11-19T13:37:11Z</time>
      </trkpt>
      <trkpt lat="43.01413" lon="0.2313">
        <ele>1580.1</ele>
        <time>2023-11-19T13:37:12Z</time>
      </trkpt>
      <trkpt lat="43.01413" lon="0.23131">
        <ele>1580.1</ele>
        <time>2023-11-19T13:37:13Z</time>
      </trkpt>
      <trkpt lat="43.01413" lon="0.23131">
        <ele>1580.1</ele>
        <time>2023-11-19T13:37:14Z</time>
      </trkpt>
      <trkpt lat="43.01413" lon="0.23131">
        <ele>1581.2</ele>
        <time>2023-11-19T13:37:15Z</time>
      </trkpt>
      <trkpt lat="43.01413" lon="0.23132">
        <ele>1581.2</ele>
        <time>2023-11-19T13:37:16Z</time>
      </trkpt>
      <trkpt lat="43.01414" lon="0.23132">
        <ele>1581.2</ele>
        <time>2023-11-19T13:37:17Z</time>
      </trkpt>
      <trkpt lat="43.01414" lon="0.23133">
        <ele>1581.2</ele>
        <time>2023-11-19T13:37:18Z</time>
      </trkpt>
      <trkpt lat="43.01414" lon="0.23133">
        <ele>1581.2</ele>
        <time>2023-11-19T13:37:19Z</time>
      </trkpt>
      <trkpt lat="43.01414" lon="0.23133">
        <ele>1581.2</ele>
        <time>2023-11-19T13:37:20Z</time>
      </trkpt>
      <trkpt lat="43.01414" lon="0.23133">
        <ele>1581.2</ele>
        <time>2023-11-19T13:37:21Z</time>
      </trkpt>
      <trkpt lat="43.01414" lon="0.23133">
        <ele>1581.2</ele>
        <time>2023-11-19T13:37:22Z</time>
      </trkpt>
      <trkpt lat="43.01414" lon="0.23133">
        <ele>1581.2</ele>
        <time>2023-11-19T13:37:23Z</time>
      </trkpt>
      <trkpt lat="43.01414" lon="0.23133">
        <ele>1581.2</ele>
        <time>2023-11-19T13:37:24Z</time>
      </trkpt>
      <trkpt lat="43.01414" lon="0.23133">
        <ele>1581.2</ele>
        <time>2023-11-19T13:37:25Z</time>
      </trkpt>
      <trkpt lat="43.01415" lon="0.23131">
        <ele>1580.1</ele>
        <time>2023-11-19T13:37:26Z</time>
      </trkpt>
      <trkpt lat="43.01414" lon="0.23133">
        <ele>1581.2</ele>
        <time>2023-11-19T13:37:27Z</time>
      </trkpt>
      <trkpt lat="43.01414" lon="0.23133">
        <ele>1581.2</ele>
        <time>2023-11-19T13:37:28Z</time>
      </trkpt>
      <trkpt lat="43.01414" lon="0.23134">
        <ele>1581.2</ele>
        <time>2023-11-19T13:37:29Z</time>
      </trkpt>
      <trkpt lat="43.01414" lon="0.23134">
        <ele>1581.2</ele>
        <time>2023-11-19T13:37:30Z</time>
      </trkpt>
      <trkpt lat="43.01414" lon="0.23135">
        <ele>1581.2</ele>
        <time>2023-11-19T13:37:31Z</time>
      </trkpt>
      <trkpt lat="43.01414" lon="0.23134">
        <ele>1581.2</ele>
        <time>2023-11-19T13:37:32Z</time>
      </trkpt>
      <trkpt lat="43.01414" lon="0.23135">
        <ele>1581.2</ele>
        <time>2023-11-19T13:37:33Z</time>
      </trkpt>
      <trkpt lat="43.01414" lon="0.23135">
        <ele>1581.2</ele>
        <time>2023-11-19T13:37:34Z</time>
      </trkpt>
      <trkpt lat="43.01414" lon="0.23135">
        <ele>1581.2</ele>
        <time>2023-11-19T13:37:35Z</time>
      </trkpt>
      <trkpt lat="43.01414" lon="0.23135">
        <ele>1581.2</ele>
        <time>2023-11-19T13:37:36Z</time>
      </trkpt>
      <trkpt lat="43.01414" lon="0.23135">
        <ele>1581.2</ele>
        <time>2023-11-19T13:37:37Z</time>
      </trkpt>
      <trkpt lat="43.01414" lon="0.23135">
        <ele>1581.2</ele>
        <time>2023-11-19T13:37:38Z</time>
      </trkpt>
      <trkpt lat="43.01414" lon="0.23135">
        <ele>1581.2</ele>
        <time>2023-11-19T13:37:39Z</time>
      </trkpt>
      <trkpt lat="43.01414" lon="0.23135">
        <ele>1581.2</ele>
        <time>2023-11-19T13:37:40Z</time>
      </trkpt>
      <trkpt lat="43.01414" lon="0.23135">
        <ele>1581.2</ele>
        <time>2023-11-19T13:37:41Z</time>
      </trkpt>
      <trkpt lat="43.01414" lon="0.23135">
        <ele>1581.2</ele>
        <time>2023-11-19T13:37:42Z</time>
      </trkpt>
      <trkpt lat="43.01414" lon="0.23135">
        <ele>1581.2</ele>
        <time>2023-11-19T13:37:43Z</time>
      </trkpt>
      <trkpt lat="43.01414" lon="0.23135">
        <ele>1581.2</ele>
        <time>2023-11-19T13:37:44Z</time>
      </trkpt>
      <trkpt lat="43.01414" lon="0.23135">
        <ele>1581.2</ele>
        <time>2023-11-19T13:37:45Z</time>
      </trkpt>
      <trkpt lat="43.01414" lon="0.23135">
        <ele>1581.2</ele>
        <time>2023-11-19T13:37:46Z</time>
      </trkpt>
      <trkpt lat="43.01414" lon="0.23135">
        <ele>1581.2</ele>
        <time>2023-11-19T13:37:47Z</time>
      </trkpt>
      <trkpt lat="43.01414" lon="0.23136">
        <ele>1582.2</ele>
        <time>2023-11-19T13:37:48Z</time>
      </trkpt>
      <trkpt lat="43.01414" lon="0.23136">
        <ele>1582.2</ele>
        <time>2023-11-19T13:37:49Z</time>
      </trkpt>
      <trkpt lat="43.01414" lon="0.23136">
        <ele>1582.2</ele>
        <time>2023-11-19T13:37:50Z</time>
      </trkpt>
      <trkpt lat="43.01414" lon="0.23136">
        <ele>1582.2</ele>
        <time>2023-11-19T13:37:51Z</time>
      </trkpt>
      <trkpt lat="43.01414" lon="0.23136">
        <ele>1581.2</ele>
        <time>2023-11-19T13:37:52Z</time>
      </trkpt>
      <trkpt lat="43.01414" lon="0.23136">
        <ele>1581.2</ele>
        <time>2023-11-19T13:37:53Z</time>
      </trkpt>
      <trkpt lat="43.01414" lon="0.23136">
        <ele>1581.2</ele>
        <time>2023-11-19T13:37:54Z</time>
      </trkpt>
      <trkpt lat="43.01414" lon="0.23136">
        <ele>1581.2</ele>
        <time>2023-11-19T13:37:55Z</time>
      </trkpt>
      <trkpt lat="43.01414" lon="0.23136">
        <ele>1582.2</ele>
        <time>2023-11-19T13:37:56Z</time>
      </trkpt>
      <trkpt lat="43.01414" lon="0.23135">
        <ele>1581.2</ele>
        <time>2023-11-19T13:37:57Z</time>
      </trkpt>
      <trkpt lat="43.01414" lon="0.23135">
        <ele>1581.2</ele>
        <time>2023-11-19T13:37:58Z</time>
      </trkpt>
      <trkpt lat="43.01414" lon="0.23135">
        <ele>1581.2</ele>
        <time>2023-11-19T13:37:59Z</time>
      </trkpt>
      <trkpt lat="43.01414" lon="0.23135">
        <ele>1581.2</ele>
        <time>2023-11-19T13:38:00Z</time>
      </trkpt>
      <trkpt lat="43.01414" lon="0.23135">
        <ele>1581.2</ele>
        <time>2023-11-19T13:38:01Z</time>
      </trkpt>
      <trkpt lat="43.01414" lon="0.23135">
        <ele>1581.2</ele>
        <time>2023-11-19T13:38:02Z</time>
      </trkpt>
      <trkpt lat="43.01414" lon="0.23135">
        <ele>1581.2</ele>
        <time>2023-11-19T13:38:03Z</time>
      </trkpt>
      <trkpt lat="43.01414" lon="0.23135">
        <ele>1581.3</ele>
        <time>2023-11-19T13:38:04Z</time>
      </trkpt>
      <trkpt lat="43.01414" lon="0.23135">
        <ele>1581.3</ele>
        <time>2023-11-19T13:38:05Z</time>
      </trkpt>
      <trkpt lat="43.01414" lon="0.23135">
        <ele>1581.3</ele>
        <time>2023-11-19T13:38:06Z</time>
      </trkpt>
      <trkpt lat="43.01414" lon="0.23135">
        <ele>1581.3</ele>
        <time>2023-11-19T13:38:07Z</time>
      </trkpt>
      <trkpt lat="43.01414" lon="0.23135">
        <ele>1581.3</ele>
        <time>2023-11-19T13:38:08Z</time>
      </trkpt>
      <trkpt lat="43.01414" lon="0.23134">
        <ele>1581.3</ele>
        <time>2023-11-19T13:38:09Z</time>
      </trkpt>
      <trkpt lat="43.01414" lon="0.23134">
        <ele>1581.3</ele>
        <time>2023-11-19T13:38:10Z</time>
      </trkpt>
      <trkpt lat="43.01414" lon="0.23134">
        <ele>1581.3</ele>
        <time>2023-11-19T13:38:11Z</time>
      </trkpt>
      <trkpt lat="43.01414" lon="0.23134">
        <ele>1581.3</ele>
        <time>2023-11-19T13:38:12Z</time>
      </trkpt>
      <trkpt lat="43.01415" lon="0.23135">
        <ele>1581.3</ele>
        <time>2023-11-19T13:38:13Z</time>
      </trkpt>
      <trkpt lat="43.01415" lon="0.23135">
        <ele>1581.3</ele>
        <time>2023-11-19T13:38:14Z</time>
      </trkpt>
      <trkpt lat="43.01415" lon="0.23135">
        <ele>1581.3</ele>
        <time>2023-11-19T13:38:15Z</time>
      </trkpt>
      <trkpt lat="43.01415" lon="0.23136">
        <ele>1582.2</ele>
        <time>2023-11-19T13:38:16Z</time>
      </trkpt>
      <trkpt lat="43.01415" lon="0.23136">
        <ele>1582.2</ele>
        <time>2023-11-19T13:38:17Z</time>
      </trkpt>
      <trkpt lat="43.01415" lon="0.23136">
        <ele>1582.2</ele>
        <time>2023-11-19T13:38:18Z</time>
      </trkpt>
      <trkpt lat="43.01415" lon="0.23136">
        <ele>1582.2</ele>
        <time>2023-11-19T13:38:19Z</time>
      </trkpt>
      <trkpt lat="43.01415" lon="0.23136">
        <ele>1582.2</ele>
        <time>2023-11-19T13:38:20Z</time>
      </trkpt>
      <trkpt lat="43.01415" lon="0.23136">
        <ele>1582.2</ele>
        <time>2023-11-19T13:38:21Z</time>
      </trkpt>
      <trkpt lat="43.01415" lon="0.23136">
        <ele>1582.2</ele>
        <time>2023-11-19T13:38:22Z</time>
      </trkpt>
      <trkpt lat="43.01415" lon="0.23136">
        <ele>1582.2</ele>
        <time>2023-11-19T13:38:23Z</time>
      </trkpt>
      <trkpt lat="43.01415" lon="0.23136">
        <ele>1582.2</ele>
        <time>2023-11-19T13:38:24Z</time>
      </trkpt>
      <trkpt lat="43.01415" lon="0.23136">
        <ele>1582.2</ele>
        <time>2023-11-19T13:38:25Z</time>
      </trkpt>
      <trkpt lat="43.01415" lon="0.23136">
        <ele>1582.2</ele>
        <time>2023-11-19T13:38:26Z</time>
      </trkpt>
      <trkpt lat="43.01415" lon="0.23136">
        <ele>1582.2</ele>
        <time>2023-11-19T13:38:27Z</time>
      </trkpt>
      <trkpt lat="43.01415" lon="0.23136">
        <ele>1582.2</ele>
        <time>2023-11-19T13:38:28Z</time>
      </trkpt>
      <trkpt lat="43.01415" lon="0.23136">
        <ele>1582.2</ele>
        <time>2023-11-19T13:38:29Z</time>
      </trkpt>
      <trkpt lat="43.01415" lon="0.23136">
        <ele>1582.2</ele>
        <time>2023-11-19T13:38:30Z</time>
      </trkpt>
      <trkpt lat="43.01415" lon="0.23136">
        <ele>1582.2</ele>
        <time>2023-11-19T13:38:31Z</time>
      </trkpt>
      <trkpt lat="43.01415" lon="0.23136">
        <ele>1582.2</ele>
        <time>2023-11-19T13:38:32Z</time>
      </trkpt>
      <trkpt lat="43.01415" lon="0.23136">
        <ele>1582.2</ele>
        <time>2023-11-19T13:38:33Z</time>
      </trkpt>
      <trkpt lat="43.01415" lon="0.23136">
        <ele>1582.2</ele>
        <time>2023-11-19T13:38:34Z</time>
      </trkpt>
      <trkpt lat="43.01415" lon="0.23136">
        <ele>1582.2</ele>
        <time>2023-11-19T13:38:35Z</time>
      </trkpt>
      <trkpt lat="43.01415" lon="0.23136">
        <ele>1582.2</ele>
        <time>2023-11-19T13:38:36Z</time>
      </trkpt>
      <trkpt lat="43.01415" lon="0.23136">
        <ele>1582.2</ele>
        <time>2023-11-19T13:38:37Z</time>
      </trkpt>
      <trkpt lat="43.01415" lon="0.23136">
        <ele>1582.2</ele>
        <time>2023-11-19T13:38:38Z</time>
      </trkpt>
      <trkpt lat="43.01415" lon="0.23136">
        <ele>1582.3</ele>
        <time>2023-11-19T13:38:39Z</time>
      </trkpt>
      <trkpt lat="43.01415" lon="0.23136">
        <ele>1582.3</ele>
        <time>2023-11-19T13:38:40Z</time>
      </trkpt>
      <trkpt lat="43.01415" lon="0.23136">
        <ele>1582.3</ele>
        <time>2023-11-19T13:38:41Z</time>
      </trkpt>
      <trkpt lat="43.01415" lon="0.23136">
        <ele>1582.3</ele>
        <time>2023-11-19T13:38:42Z</time>
      </trkpt>
      <trkpt lat="43.01415" lon="0.23136">
        <ele>1582.3</ele>
        <time>2023-11-19T13:38:43Z</time>
      </trkpt>
      <trkpt lat="43.01415" lon="0.23136">
        <ele>1582.3</ele>
        <time>2023-11-19T13:38:44Z</time>
      </trkpt>
      <trkpt lat="43.01415" lon="0.23136">
        <ele>1582.3</ele>
        <time>2023-11-19T13:38:45Z</time>
      </trkpt>
      <trkpt lat="43.01415" lon="0.23136">
        <ele>1582.3</ele>
        <time>2023-11-19T13:38:46Z</time>
      </trkpt>
      <trkpt lat="43.01415" lon="0.23136">
        <ele>1582.3</ele>
        <time>2023-11-19T13:38:47Z</time>
      </trkpt>
      <trkpt lat="43.01415" lon="0.23136">
        <ele>1582.3</ele>
        <time>2023-11-19T13:38:48Z</time>
      </trkpt>
      <trkpt lat="43.01415" lon="0.23136">
        <ele>1582.3</ele>
        <time>2023-11-19T13:38:49Z</time>
      </trkpt>
      <trkpt lat="43.01415" lon="0.23136">
        <ele>1582.3</ele>
        <time>2023-11-19T13:38:50Z</time>
      </trkpt>
      <trkpt lat="43.01415" lon="0.23136">
        <ele>1582.3</ele>
        <time>2023-11-19T13:38:51Z</time>
      </trkpt>
      <trkpt lat="43.01415" lon="0.23136">
        <ele>1582.3</ele>
        <time>2023-11-19T13:38:52Z</time>
      </trkpt>
      <trkpt lat="43.01415" lon="0.23136">
        <ele>1582.3</ele>
        <time>2023-11-19T13:38:53Z</time>
      </trkpt>
      <trkpt lat="43.01415" lon="0.23136">
        <ele>1582.3</ele>
        <time>2023-11-19T13:38:55Z</time>
      </trkpt>
      <trkpt lat="43.01415" lon="0.23136">
        <ele>1582.3</ele>
        <time>2023-11-19T13:38:56Z</time>
      </trkpt>
      <trkpt lat="43.01415" lon="0.23136">
        <ele>1582.3</ele>
        <time>2023-11-19T13:38:57Z</time>
      </trkpt>
      <trkpt lat="43.01415" lon="0.23136">
        <ele>1582.3</ele>
        <time>2023-11-19T13:38:58Z</time>
      </trkpt>
      <trkpt lat="43.01414" lon="0.23136">
        <ele>1582.3</ele>
        <time>2023-11-19T13:38:59Z</time>
      </trkpt>
      <trkpt lat="43.01414" lon="0.23136">
        <ele>1582.3</ele>
        <time>2023-11-19T13:39:00Z</time>
      </trkpt>
      <trkpt lat="43.01414" lon="0.23136">
        <ele>1582.3</ele>
        <time>2023-11-19T13:39:01Z</time>
      </trkpt>
      <trkpt lat="43.01414" lon="0.23136">
        <ele>1582.3</ele>
        <time>2023-11-19T13:39:02Z</time>
      </trkpt>
      <trkpt lat="43.01414" lon="0.23136">
        <ele>1582.3</ele>
        <time>2023-11-19T13:39:03Z</time>
      </trkpt>
      <trkpt lat="43.01413" lon="0.23136">
        <ele>1581.3</ele>
        <time>2023-11-19T13:39:04Z</time>
      </trkpt>
      <trkpt lat="43.01413" lon="0.23136">
        <ele>1582.3</ele>
        <time>2023-11-19T13:39:05Z</time>
      </trkpt>
      <trkpt lat="43.01413" lon="0.23136">
        <ele>1582.3</ele>
        <time>2023-11-19T13:39:06Z</time>
      </trkpt>
      <trkpt lat="43.01413" lon="0.23136">
        <ele>1582.3</ele>
        <time>2023-11-19T13:39:07Z</time>
      </trkpt>
      <trkpt lat="43.01413" lon="0.23136">
        <ele>1581.3</ele>
        <time>2023-11-19T13:39:08Z</time>
      </trkpt>
      <trkpt lat="43.01413" lon="0.23136">
        <ele>1581.3</ele>
        <time>2023-11-19T13:39:09Z</time>
      </trkpt>
      <trkpt lat="43.01413" lon="0.23136">
        <ele>1582.3</ele>
        <time>2023-11-19T13:39:10Z</time>
      </trkpt>
      <trkpt lat="43.01413" lon="0.23136">
        <ele>1582.3</ele>
        <time>2023-11-19T13:39:11Z</time>
      </trkpt>
      <trkpt lat="43.01413" lon="0.23136">
        <ele>1582.3</ele>
        <time>2023-11-19T13:39:12Z</time>
      </trkpt>
      <trkpt lat="43.01413" lon="0.23136">
        <ele>1582.3</ele>
        <time>2023-11-19T13:39:13Z</time>
      </trkpt>
      <trkpt lat="43.01413" lon="0.23136">
        <ele>1582.3</ele>
        <time>2023-11-19T13:39:14Z</time>
      </trkpt>
      <trkpt lat="43.01413" lon="0.23136">
        <ele>1582.3</ele>
        <time>2023-11-19T13:39:15Z</time>
      </trkpt>
      <trkpt lat="43.01413" lon="0.23136">
        <ele>1582.3</ele>
        <time>2023-11-19T13:39:16Z</time>
      </trkpt>
      <trkpt lat="43.01413" lon="0.23136">
        <ele>1582.3</ele>
        <time>2023-11-19T13:39:17Z</time>
      </trkpt>
      <trkpt lat="43.01413" lon="0.23136">
        <ele>1582.3</ele>
        <time>2023-11-19T13:39:18Z</time>
      </trkpt>
      <trkpt lat="43.01412" lon="0.23136">
        <ele>1579.7</ele>
        <time>2023-11-19T13:39:19Z</time>
      </trkpt>
      <trkpt lat="43.01412" lon="0.23136">
        <ele>1579.7</ele>
        <time>2023-11-19T13:39:20Z</time>
      </trkpt>
      <trkpt lat="43.01413" lon="0.23135">
        <ele>1581.3</ele>
        <time>2023-11-19T13:39:21Z</time>
      </trkpt>
      <trkpt lat="43.01413" lon="0.23135">
        <ele>1581.3</ele>
        <time>2023-11-19T13:39:22Z</time>
      </trkpt>
      <trkpt lat="43.01413" lon="0.23135">
        <ele>1581.3</ele>
        <time>2023-11-19T13:39:23Z</time>
      </trkpt>
      <trkpt lat="43.01413" lon="0.23134">
        <ele>1581.3</ele>
        <time>2023-11-19T13:39:24Z</time>
      </trkpt>
      <trkpt lat="43.01413" lon="0.23135">
        <ele>1581.3</ele>
        <time>2023-11-19T13:39:25Z</time>
      </trkpt>
      <trkpt lat="43.01414" lon="0.23136">
        <ele>1581.3</ele>
        <time>2023-11-19T13:39:26Z</time>
      </trkpt>
      <trkpt lat="43.01414" lon="0.23135">
        <ele>1581.3</ele>
        <time>2023-11-19T13:39:27Z</time>
      </trkpt>
      <trkpt lat="43.01413" lon="0.23135">
        <ele>1581.3</ele>
        <time>2023-11-19T13:39:28Z</time>
      </trkpt>
      <trkpt lat="43.01412" lon="0.23136">
        <ele>1580.7</ele>
        <time>2023-11-19T13:39:29Z</time>
      </trkpt>
      <trkpt lat="43.01412" lon="0.23136">
        <ele>1580.7</ele>
        <time>2023-11-19T13:39:30Z</time>
      </trkpt>
      <trkpt lat="43.01412" lon="0.23136">
        <ele>1580.7</ele>
        <time>2023-11-19T13:39:31Z</time>
      </trkpt>
      <trkpt lat="43.01412" lon="0.23136">
        <ele>1580.7</ele>
        <time>2023-11-19T13:39:32Z</time>
      </trkpt>
      <trkpt lat="43.01412" lon="0.23136">
        <ele>1580.7</ele>
        <time>2023-11-19T13:39:33Z</time>
      </trkpt>
      <trkpt lat="43.01412" lon="0.23136">
        <ele>1580.7</ele>
        <time>2023-11-19T13:39:34Z</time>
      </trkpt>
      <trkpt lat="43.01413" lon="0.23137">
        <ele>1582.3</ele>
        <time>2023-11-19T13:39:35Z</time>
      </trkpt>
      <trkpt lat="43.01413" lon="0.23137">
        <ele>1582.3</ele>
        <time>2023-11-19T13:39:36Z</time>
      </trkpt>
      <trkpt lat="43.01413" lon="0.23137">
        <ele>1582.3</ele>
        <time>2023-11-19T13:39:37Z</time>
      </trkpt>
      <trkpt lat="43.01413" lon="0.23137">
        <ele>1582.3</ele>
        <time>2023-11-19T13:39:38Z</time>
      </trkpt>
      <trkpt lat="43.01413" lon="0.23137">
        <ele>1582.3</ele>
        <time>2023-11-19T13:39:39Z</time>
      </trkpt>
      <trkpt lat="43.01413" lon="0.23137">
        <ele>1582.3</ele>
        <time>2023-11-19T13:39:40Z</time>
      </trkpt>
      <trkpt lat="43.01414" lon="0.23137">
        <ele>1582.3</ele>
        <time>2023-11-19T13:39:41Z</time>
      </trkpt>
      <trkpt lat="43.01414" lon="0.23137">
        <ele>1582.3</ele>
        <time>2023-11-19T13:39:42Z</time>
      </trkpt>
      <trkpt lat="43.01414" lon="0.23137">
        <ele>1582.3</ele>
        <time>2023-11-19T13:39:43Z</time>
      </trkpt>
      <trkpt lat="43.01414" lon="0.23137">
        <ele>1582.3</ele>
        <time>2023-11-19T13:39:44Z</time>
      </trkpt>
      <trkpt lat="43.01414" lon="0.23138">
        <ele>1582.3</ele>
        <time>2023-11-19T13:39:45Z</time>
      </trkpt>
      <trkpt lat="43.01414" lon="0.23138">
        <ele>1582.3</ele>
        <time>2023-11-19T13:39:46Z</time>
      </trkpt>
      <trkpt lat="43.01414" lon="0.23138">
        <ele>1582.3</ele>
        <time>2023-11-19T13:39:47Z</time>
      </trkpt>
      <trkpt lat="43.01414" lon="0.23138">
        <ele>1582.3</ele>
        <time>2023-11-19T13:39:48Z</time>
      </trkpt>
      <trkpt lat="43.01414" lon="0.23138">
        <ele>1582.3</ele>
        <time>2023-11-19T13:39:49Z</time>
      </trkpt>
      <trkpt lat="43.01414" lon="0.23138">
        <ele>1582.3</ele>
        <time>2023-11-19T13:39:50Z</time>
      </trkpt>
      <trkpt lat="43.01413" lon="0.23137">
        <ele>1582.3</ele>
        <time>2023-11-19T13:39:51Z</time>
      </trkpt>
      <trkpt lat="43.01413" lon="0.23137">
        <ele>1582.3</ele>
        <time>2023-11-19T13:39:52Z</time>
      </trkpt>
      <trkpt lat="43.01413" lon="0.23137">
        <ele>1582.3</ele>
        <time>2023-11-19T13:39:53Z</time>
      </trkpt>
      <trkpt lat="43.01413" lon="0.23137">
        <ele>1582.3</ele>
        <time>2023-11-19T13:39:54Z</time>
      </trkpt>
      <trkpt lat="43.01413" lon="0.23137">
        <ele>1582.3</ele>
        <time>2023-11-19T13:39:55Z</time>
      </trkpt>
      <trkpt lat="43.01413" lon="0.23137">
        <ele>1582.3</ele>
        <time>2023-11-19T13:39:56Z</time>
      </trkpt>
      <trkpt lat="43.01413" lon="0.23137">
        <ele>1582.3</ele>
        <time>2023-11-19T13:39:57Z</time>
      </trkpt>
      <trkpt lat="43.01413" lon="0.23137">
        <ele>1582.3</ele>
        <time>2023-11-19T13:39:58Z</time>
      </trkpt>
      <trkpt lat="43.01414" lon="0.23136">
        <ele>1582.3</ele>
        <time>2023-11-19T13:39:59Z</time>
      </trkpt>
      <trkpt lat="43.01414" lon="0.23137">
        <ele>1582.3</ele>
        <time>2023-11-19T13:40:00Z</time>
      </trkpt>
      <trkpt lat="43.01414" lon="0.23136">
        <ele>1582.3</ele>
        <time>2023-11-19T13:40:01Z</time>
      </trkpt>
      <trkpt lat="43.01415" lon="0.23137">
        <ele>1582.3</ele>
        <time>2023-11-19T13:40:02Z</time>
      </trkpt>
      <trkpt lat="43.01415" lon="0.23137">
        <ele>1582.3</ele>
        <time>2023-11-19T13:40:03Z</time>
      </trkpt>
      <trkpt lat="43.01415" lon="0.23137">
        <ele>1582.3</ele>
        <time>2023-11-19T13:40:04Z</time>
      </trkpt>
      <trkpt lat="43.01415" lon="0.23137">
        <ele>1582.3</ele>
        <time>2023-11-19T13:40:05Z</time>
      </trkpt>
      <trkpt lat="43.01415" lon="0.23137">
        <ele>1582.3</ele>
        <time>2023-11-19T13:40:06Z</time>
      </trkpt>
      <trkpt lat="43.01416" lon="0.23137">
        <ele>1582.3</ele>
        <time>2023-11-19T13:40:07Z</time>
      </trkpt>
      <trkpt lat="43.01416" lon="0.23137">
        <ele>1582.3</ele>
        <time>2023-11-19T13:40:08Z</time>
      </trkpt>
      <trkpt lat="43.01416" lon="0.23137">
        <ele>1582.3</ele>
        <time>2023-11-19T13:40:09Z</time>
      </trkpt>
      <trkpt lat="43.01415" lon="0.23137">
        <ele>1582.3</ele>
        <time>2023-11-19T13:40:10Z</time>
      </trkpt>
      <trkpt lat="43.01416" lon="0.23136">
        <ele>1582.3</ele>
        <time>2023-11-19T13:40:11Z</time>
      </trkpt>
      <trkpt lat="43.01416" lon="0.23136">
        <ele>1582.3</ele>
        <time>2023-11-19T13:40:12Z</time>
      </trkpt>
      <trkpt lat="43.01416" lon="0.23137">
        <ele>1583.9</ele>
        <time>2023-11-19T13:40:13Z</time>
      </trkpt>
      <trkpt lat="43.01416" lon="0.23137">
        <ele>1583.9</ele>
        <time>2023-11-19T13:40:14Z</time>
      </trkpt>
      <trkpt lat="43.01416" lon="0.23137">
        <ele>1583.9</ele>
        <time>2023-11-19T13:40:15Z</time>
      </trkpt>
      <trkpt lat="43.01416" lon="0.23137">
        <ele>1583.9</ele>
        <time>2023-11-19T13:40:16Z</time>
      </trkpt>
      <trkpt lat="43.01416" lon="0.23137">
        <ele>1583.9</ele>
        <time>2023-11-19T13:40:17Z</time>
      </trkpt>
      <trkpt lat="43.01416" lon="0.23136">
        <ele>1583.9</ele>
        <time>2023-11-19T13:40:18Z</time>
      </trkpt>
      <trkpt lat="43.01416" lon="0.23136">
        <ele>1583.9</ele>
        <time>2023-11-19T13:40:19Z</time>
      </trkpt>
      <trkpt lat="43.01416" lon="0.23139">
        <ele>1583.9</ele>
        <time>2023-11-19T13:40:20Z</time>
      </trkpt>
      <trkpt lat="43.01416" lon="0.23138">
        <ele>1583.9</ele>
        <time>2023-11-19T13:40:21Z</time>
      </trkpt>
      <trkpt lat="43.01415" lon="0.23138">
        <ele>1582.3</ele>
        <time>2023-11-19T13:40:22Z</time>
      </trkpt>
      <trkpt lat="43.01415" lon="0.23137">
        <ele>1582.3</ele>
        <time>2023-11-19T13:40:23Z</time>
      </trkpt>
      <trkpt lat="43.01415" lon="0.23138">
        <ele>1582.3</ele>
        <time>2023-11-19T13:40:24Z</time>
      </trkpt>
      <trkpt lat="43.01415" lon="0.23138">
        <ele>1582.3</ele>
        <time>2023-11-19T13:40:25Z</time>
      </trkpt>
      <trkpt lat="43.01415" lon="0.23138">
        <ele>1582.3</ele>
        <time>2023-11-19T13:40:26Z</time>
      </trkpt>
      <trkpt lat="43.01414" lon="0.23138">
        <ele>1582.3</ele>
        <time>2023-11-19T13:40:27Z</time>
      </trkpt>
      <trkpt lat="43.01414" lon="0.23138">
        <ele>1582.3</ele>
        <time>2023-11-19T13:40:28Z</time>
      </trkpt>
      <trkpt lat="43.01414" lon="0.23138">
        <ele>1582.3</ele>
        <time>2023-11-19T13:40:29Z</time>
      </trkpt>
      <trkpt lat="43.01414" lon="0.23138">
        <ele>1582.3</ele>
        <time>2023-11-19T13:40:30Z</time>
      </trkpt>
      <trkpt lat="43.01414" lon="0.23137">
        <ele>1582.3</ele>
        <time>2023-11-19T13:40:31Z</time>
      </trkpt>
      <trkpt lat="43.01413" lon="0.23137">
        <ele>1582.3</ele>
        <time>2023-11-19T13:40:32Z</time>
      </trkpt>
      <trkpt lat="43.01414" lon="0.23138">
        <ele>1582.3</ele>
        <time>2023-11-19T13:40:33Z</time>
      </trkpt>
      <trkpt lat="43.01414" lon="0.23138">
        <ele>1582.3</ele>
        <time>2023-11-19T13:40:34Z</time>
      </trkpt>
      <trkpt lat="43.01412" lon="0.23138">
        <ele>1580.8</ele>
        <time>2023-11-19T13:40:35Z</time>
      </trkpt>
      <trkpt lat="43.01412" lon="0.23138">
        <ele>1580.8</ele>
        <time>2023-11-19T13:40:36Z</time>
      </trkpt>
      <trkpt lat="43.01413" lon="0.23138">
        <ele>1582.3</ele>
        <time>2023-11-19T13:40:37Z</time>
      </trkpt>
      <trkpt lat="43.01413" lon="0.23138">
        <ele>1582.3</ele>
        <time>2023-11-19T13:40:38Z</time>
      </trkpt>
      <trkpt lat="43.01413" lon="0.23138">
        <ele>1582.3</ele>
        <time>2023-11-19T13:40:39Z</time>
      </trkpt>
      <trkpt lat="43.01413" lon="0.23138">
        <ele>1582.3</ele>
        <time>2023-11-19T13:40:40Z</time>
      </trkpt>
      <trkpt lat="43.01412" lon="0.23137">
        <ele>1580.8</ele>
        <time>2023-11-19T13:40:41Z</time>
      </trkpt>
      <trkpt lat="43.01412" lon="0.23137">
        <ele>1580.8</ele>
        <time>2023-11-19T13:40:42Z</time>
      </trkpt>
      <trkpt lat="43.01411" lon="0.23135">
        <ele>1579.8</ele>
        <time>2023-11-19T13:40:43Z</time>
      </trkpt>
      <trkpt lat="43.01412" lon="0.23137">
        <ele>1580.8</ele>
        <time>2023-11-19T13:40:44Z</time>
      </trkpt>
      <trkpt lat="43.01412" lon="0.23137">
        <ele>1580.8</ele>
        <time>2023-11-19T13:40:45Z</time>
      </trkpt>
      <trkpt lat="43.01412" lon="0.23136">
        <ele>1580.8</ele>
        <time>2023-11-19T13:40:46Z</time>
      </trkpt>
      <trkpt lat="43.01412" lon="0.23136">
        <ele>1580.8</ele>
        <time>2023-11-19T13:40:47Z</time>
      </trkpt>
      <trkpt lat="43.01412" lon="0.23137">
        <ele>1580.8</ele>
        <time>2023-11-19T13:40:48Z</time>
      </trkpt>
      <trkpt lat="43.01412" lon="0.23137">
        <ele>1580.8</ele>
        <time>2023-11-19T13:40:49Z</time>
      </trkpt>
      <trkpt lat="43.01412" lon="0.23137">
        <ele>1580.8</ele>
        <time>2023-11-19T13:40:50Z</time>
      </trkpt>
      <trkpt lat="43.01412" lon="0.23137">
        <ele>1580.8</ele>
        <time>2023-11-19T13:40:51Z</time>
      </trkpt>
      <trkpt lat="43.01412" lon="0.23137">
        <ele>1580.8</ele>
        <time>2023-11-19T13:40:52Z</time>
      </trkpt>
      <trkpt lat="43.01413" lon="0.23136">
        <ele>1582.4</ele>
        <time>2023-11-19T13:40:53Z</time>
      </trkpt>
      <trkpt lat="43.01413" lon="0.23136">
        <ele>1582.4</ele>
        <time>2023-11-19T13:40:54Z</time>
      </trkpt>
      <trkpt lat="43.01413" lon="0.23136">
        <ele>1582.4</ele>
        <time>2023-11-19T13:40:55Z</time>
      </trkpt>
      <trkpt lat="43.01412" lon="0.23137">
        <ele>1580.8</ele>
        <time>2023-11-19T13:40:56Z</time>
      </trkpt>
      <trkpt lat="43.01412" lon="0.23136">
        <ele>1580.8</ele>
        <time>2023-11-19T13:40:57Z</time>
      </trkpt>
      <trkpt lat="43.01412" lon="0.23137">
        <ele>1580.8</ele>
        <time>2023-11-19T13:40:58Z</time>
      </trkpt>
      <trkpt lat="43.01412" lon="0.23137">
        <ele>1580.8</ele>
        <time>2023-11-19T13:40:59Z</time>
      </trkpt>
      <trkpt lat="43.01412" lon="0.23137">
        <ele>1580.8</ele>
        <time>2023-11-19T13:41:01Z</time>
      </trkpt>
      <trkpt lat="43.01412" lon="0.23137">
        <ele>1580.8</ele>
        <time>2023-11-19T13:41:02Z</time>
      </trkpt>
      <trkpt lat="43.01412" lon="0.23137">
        <ele>1580.8</ele>
        <time>2023-11-19T13:41:03Z</time>
      </trkpt>
      <trkpt lat="43.01412" lon="0.23137">
        <ele>1580.8</ele>
        <time>2023-11-19T13:41:04Z</time>
      </trkpt>
      <trkpt lat="43.01412" lon="0.23137">
        <ele>1580.8</ele>
        <time>2023-11-19T13:41:05Z</time>
      </trkpt>
      <trkpt lat="43.01412" lon="0.23137">
        <ele>1580.8</ele>
        <time>2023-11-19T13:41:06Z</time>
      </trkpt>
      <trkpt lat="43.01412" lon="0.23137">
        <ele>1580.8</ele>
        <time>2023-11-19T13:41:07Z</time>
      </trkpt>
      <trkpt lat="43.01411" lon="0.23137">
        <ele>1580.8</ele>
        <time>2023-11-19T13:41:08Z</time>
      </trkpt>
      <trkpt lat="43.01411" lon="0.23137">
        <ele>1580.8</ele>
        <time>2023-11-19T13:41:09Z</time>
      </trkpt>
      <trkpt lat="43.01411" lon="0.23137">
        <ele>1580.8</ele>
        <time>2023-11-19T13:41:10Z</time>
      </trkpt>
      <trkpt lat="43.01412" lon="0.23137">
        <ele>1580.8</ele>
        <time>2023-11-19T13:41:11Z</time>
      </trkpt>
      <trkpt lat="43.01412" lon="0.23137">
        <ele>1580.8</ele>
        <time>2023-11-19T13:41:12Z</time>
      </trkpt>
      <trkpt lat="43.01412" lon="0.23137">
        <ele>1580.8</ele>
        <time>2023-11-19T13:41:13Z</time>
      </trkpt>
      <trkpt lat="43.01411" lon="0.23136">
        <ele>1580.8</ele>
        <time>2023-11-19T13:41:14Z</time>
      </trkpt>
      <trkpt lat="43.01411" lon="0.23137">
        <ele>1580.8</ele>
        <time>2023-11-19T13:41:15Z</time>
      </trkpt>
      <trkpt lat="43.01411" lon="0.23137">
        <ele>1580.8</ele>
        <time>2023-11-19T13:41:16Z</time>
      </trkpt>
      <trkpt lat="43.01411" lon="0.23137">
        <ele>1580.8</ele>
        <time>2023-11-19T13:41:17Z</time>
      </trkpt>
      <trkpt lat="43.01411" lon="0.23137">
        <ele>1580.8</ele>
        <time>2023-11-19T13:41:18Z</time>
      </trkpt>
      <trkpt lat="43.01411" lon="0.23138">
        <ele>1580.8</ele>
        <time>2023-11-19T13:41:19Z</time>
      </trkpt>
      <trkpt lat="43.01411" lon="0.23137">
        <ele>1580.8</ele>
        <time>2023-11-19T13:41:20Z</time>
      </trkpt>
      <trkpt lat="43.01412" lon="0.23137">
        <ele>1580.8</ele>
        <time>2023-11-19T13:41:21Z</time>
      </trkpt>
      <trkpt lat="43.01412" lon="0.23137">
        <ele>1580.8</ele>
        <time>2023-11-19T13:41:22Z</time>
      </trkpt>
      <trkpt lat="43.01412" lon="0.23137">
        <ele>1580.8</ele>
        <time>2023-11-19T13:41:23Z</time>
      </trkpt>
      <trkpt lat="43.01412" lon="0.23137">
        <ele>1580.8</ele>
        <time>2023-11-19T13:41:24Z</time>
      </trkpt>
      <trkpt lat="43.01412" lon="0.23137">
        <ele>1580.8</ele>
        <time>2023-11-19T13:41:25Z</time>
      </trkpt>
      <trkpt lat="43.01412" lon="0.23137">
        <ele>1580.8</ele>
        <time>2023-11-19T13:41:26Z</time>
      </trkpt>
      <trkpt lat="43.01412" lon="0.23137">
        <ele>1580.8</ele>
        <time>2023-11-19T13:41:27Z</time>
      </trkpt>
      <trkpt lat="43.01412" lon="0.23137">
        <ele>1580.8</ele>
        <time>2023-11-19T13:41:28Z</time>
      </trkpt>
      <trkpt lat="43.01413" lon="0.23136">
        <ele>1582.4</ele>
        <time>2023-11-19T13:41:29Z</time>
      </trkpt>
      <trkpt lat="43.01413" lon="0.23135">
        <ele>1581.4</ele>
        <time>2023-11-19T13:41:30Z</time>
      </trkpt>
      <trkpt lat="43.01414" lon="0.23134">
        <ele>1581.4</ele>
        <time>2023-11-19T13:41:31Z</time>
      </trkpt>
      <trkpt lat="43.01414" lon="0.23133">
        <ele>1581.4</ele>
        <time>2023-11-19T13:41:32Z</time>
      </trkpt>
      <trkpt lat="43.01414" lon="0.23132">
        <ele>1581.4</ele>
        <time>2023-11-19T13:41:33Z</time>
      </trkpt>
      <trkpt lat="43.01414" lon="0.2313">
        <ele>1580.3</ele>
        <time>2023-11-19T13:41:34Z</time>
      </trkpt>
      <trkpt lat="43.01414" lon="0.2313">
        <ele>1580.3</ele>
        <time>2023-11-19T13:41:35Z</time>
      </trkpt>
      <trkpt lat="43.01413" lon="0.23129">
        <ele>1580.3</ele>
        <time>2023-11-19T13:41:36Z</time>
      </trkpt>
      <trkpt lat="43.01413" lon="0.23128">
        <ele>1580.3</ele>
        <time>2023-11-19T13:41:37Z</time>
      </trkpt>
      <trkpt lat="43.01413" lon="0.23127">
        <ele>1580.3</ele>
        <time>2023-11-19T13:41:38Z</time>
      </trkpt>
      <trkpt lat="43.01413" lon="0.23128">
        <ele>1580.3</ele>
        <time>2023-11-19T13:41:39Z</time>
      </trkpt>
      <trkpt lat="43.01413" lon="0.23128">
        <ele>1580.3</ele>
        <time>2023-11-19T13:41:40Z</time>
      </trkpt>
      <trkpt lat="43.01411" lon="0.23127">
        <ele>1577.2</ele>
        <time>2023-11-19T13:41:41Z</time>
      </trkpt>
      <trkpt lat="43.01412" lon="0.23127">
        <ele>1578.6</ele>
        <time>2023-11-19T13:41:42Z</time>
      </trkpt>
      <trkpt lat="43.01412" lon="0.23127">
        <ele>1578.6</ele>
        <time>2023-11-19T13:41:43Z</time>
      </trkpt>
      <trkpt lat="43.01412" lon="0.23127">
        <ele>1577.2</ele>
        <time>2023-11-19T13:41:44Z</time>
      </trkpt>
      <trkpt lat="43.01412" lon="0.23127">
        <ele>1577.2</ele>
        <time>2023-11-19T13:41:45Z</time>
      </trkpt>
      <trkpt lat="43.01412" lon="0.23126">
        <ele>1577.2</ele>
        <time>2023-11-19T13:41:46Z</time>
      </trkpt>
      <trkpt lat="43.01412" lon="0.23126">
        <ele>1577.2</ele>
        <time>2023-11-19T13:41:47Z</time>
      </trkpt>
      <trkpt lat="43.01412" lon="0.23126">
        <ele>1577.2</ele>
        <time>2023-11-19T13:41:48Z</time>
      </trkpt>
      <trkpt lat="43.01412" lon="0.23125">
        <ele>1577.2</ele>
        <time>2023-11-19T13:41:49Z</time>
      </trkpt>
      <trkpt lat="43.01412" lon="0.23125">
        <ele>1577.2</ele>
        <time>2023-11-19T13:41:50Z</time>
      </trkpt>
      <trkpt lat="43.01412" lon="0.23125">
        <ele>1577.2</ele>
        <time>2023-11-19T13:41:51Z</time>
      </trkpt>
      <trkpt lat="43.01412" lon="0.23125">
        <ele>1577.2</ele>
        <time>2023-11-19T13:41:52Z</time>
      </trkpt>
      <trkpt lat="43.01412" lon="0.23124">
        <ele>1577.2</ele>
        <time>2023-11-19T13:41:53Z</time>
      </trkpt>
      <trkpt lat="43.01411" lon="0.23124">
        <ele>1577.2</ele>
        <time>2023-11-19T13:41:54Z</time>
      </trkpt>
      <trkpt lat="43.01411" lon="0.23124">
        <ele>1577.2</ele>
        <time>2023-11-19T13:41:55Z</time>
      </trkpt>
      <trkpt lat="43.01411" lon="0.23123">
        <ele>1577.2</ele>
        <time>2023-11-19T13:41:56Z</time>
      </trkpt>
      <trkpt lat="43.01411" lon="0.23123">
        <ele>1577.2</ele>
        <time>2023-11-19T13:41:57Z</time>
      </trkpt>
      <trkpt lat="43.01411" lon="0.23123">
        <ele>1577.2</ele>
        <time>2023-11-19T13:41:58Z</time>
      </trkpt>
      <trkpt lat="43.01411" lon="0.23123">
        <ele>1575.7</ele>
        <time>2023-11-19T13:41:59Z</time>
      </trkpt>
      <trkpt lat="43.01411" lon="0.23122">
        <ele>1575.7</ele>
        <time>2023-11-19T13:42:00Z</time>
      </trkpt>
      <trkpt lat="43.01411" lon="0.23122">
        <ele>1575.7</ele>
        <time>2023-11-19T13:42:01Z</time>
      </trkpt>
      <trkpt lat="43.01411" lon="0.23122">
        <ele>1575.7</ele>
        <time>2023-11-19T13:42:02Z</time>
      </trkpt>
      <trkpt lat="43.01411" lon="0.23122">
        <ele>1575.7</ele>
        <time>2023-11-19T13:42:03Z</time>
      </trkpt>
      <trkpt lat="43.01411" lon="0.2312">
        <ele>1575.7</ele>
        <time>2023-11-19T13:42:04Z</time>
      </trkpt>
      <trkpt lat="43.01411" lon="0.2312">
        <ele>1575.7</ele>
        <time>2023-11-19T13:42:05Z</time>
      </trkpt>
      <trkpt lat="43.01411" lon="0.23119">
        <ele>1575.7</ele>
        <time>2023-11-19T13:42:06Z</time>
      </trkpt>
      <trkpt lat="43.0141" lon="0.23118">
        <ele>1573.9</ele>
        <time>2023-11-19T13:42:07Z</time>
      </trkpt>
      <trkpt lat="43.01409" lon="0.23117">
        <ele>1572.2</ele>
        <time>2023-11-19T13:42:08Z</time>
      </trkpt>
      <trkpt lat="43.01409" lon="0.23117">
        <ele>1572.2</ele>
        <time>2023-11-19T13:42:09Z</time>
      </trkpt>
      <trkpt lat="43.01408" lon="0.23116">
        <ele>1572.2</ele>
        <time>2023-11-19T13:42:10Z</time>
      </trkpt>
      <trkpt lat="43.01408" lon="0.23114">
        <ele>1572.2</ele>
        <time>2023-11-19T13:42:11Z</time>
      </trkpt>
      <trkpt lat="43.01407" lon="0.23114">
        <ele>1570.2</ele>
        <time>2023-11-19T13:42:12Z</time>
      </trkpt>
      <trkpt lat="43.01407" lon="0.23114">
        <ele>1570.2</ele>
        <time>2023-11-19T13:42:13Z</time>
      </trkpt>
      <trkpt lat="43.01406" lon="0.23113">
        <ele>1568.4</ele>
        <time>2023-11-19T13:42:14Z</time>
      </trkpt>
      <trkpt lat="43.01406" lon="0.23112">
        <ele>1568.4</ele>
        <time>2023-11-19T13:42:15Z</time>
      </trkpt>
      <trkpt lat="43.01406" lon="0.23111">
        <ele>1568.4</ele>
        <time>2023-11-19T13:42:16Z</time>
      </trkpt>
      <trkpt lat="43.01407" lon="0.2311">
        <ele>1570.2</ele>
        <time>2023-11-19T13:42:17Z</time>
      </trkpt>
      <trkpt lat="43.01406" lon="0.23109">
        <ele>1568</ele>
        <time>2023-11-19T13:42:18Z</time>
      </trkpt>
      <trkpt lat="43.01406" lon="0.23109">
        <ele>1566.1</ele>
        <time>2023-11-19T13:42:19Z</time>
      </trkpt>
      <trkpt lat="43.01406" lon="0.23108">
        <ele>1566.1</ele>
        <time>2023-11-19T13:42:20Z</time>
      </trkpt>
      <trkpt lat="43.01406" lon="0.23107">
        <ele>1566.1</ele>
        <time>2023-11-19T13:42:21Z</time>
      </trkpt>
      <trkpt lat="43.01406" lon="0.23107">
        <ele>1568</ele>
        <time>2023-11-19T13:42:22Z</time>
      </trkpt>
      <trkpt lat="43.01406" lon="0.23106">
        <ele>1566.1</ele>
        <time>2023-11-19T13:42:23Z</time>
      </trkpt>
      <trkpt lat="43.01406" lon="0.23106">
        <ele>1566.1</ele>
        <time>2023-11-19T13:42:24Z</time>
      </trkpt>
      <trkpt lat="43.01406" lon="0.23106">
        <ele>1566.1</ele>
        <time>2023-11-19T13:42:25Z</time>
      </trkpt>
      <trkpt lat="43.01405" lon="0.23107">
        <ele>1566.1</ele>
        <time>2023-11-19T13:42:26Z</time>
      </trkpt>
      <trkpt lat="43.01405" lon="0.23106">
        <ele>1566.1</ele>
        <time>2023-11-19T13:42:27Z</time>
      </trkpt>
      <trkpt lat="43.01405" lon="0.23106">
        <ele>1566.1</ele>
        <time>2023-11-19T13:42:28Z</time>
      </trkpt>
      <trkpt lat="43.01405" lon="0.23106">
        <ele>1566.1</ele>
        <time>2023-11-19T13:42:29Z</time>
      </trkpt>
      <trkpt lat="43.01405" lon="0.23106">
        <ele>1566.1</ele>
        <time>2023-11-19T13:42:30Z</time>
      </trkpt>
      <trkpt lat="43.01405" lon="0.23106">
        <ele>1566.1</ele>
        <time>2023-11-19T13:42:31Z</time>
      </trkpt>
      <trkpt lat="43.01405" lon="0.23106">
        <ele>1566.1</ele>
        <time>2023-11-19T13:42:32Z</time>
      </trkpt>
      <trkpt lat="43.01405" lon="0.23106">
        <ele>1566.1</ele>
        <time>2023-11-19T13:42:33Z</time>
      </trkpt>
      <trkpt lat="43.01405" lon="0.23106">
        <ele>1566.1</ele>
        <time>2023-11-19T13:42:34Z</time>
      </trkpt>
      <trkpt lat="43.01405" lon="0.23106">
        <ele>1566.1</ele>
        <time>2023-11-19T13:42:35Z</time>
      </trkpt>
      <trkpt lat="43.01405" lon="0.23106">
        <ele>1566.1</ele>
        <time>2023-11-19T13:42:36Z</time>
      </trkpt>
      <trkpt lat="43.01405" lon="0.23106">
        <ele>1566.1</ele>
        <time>2023-11-19T13:42:37Z</time>
      </trkpt>
      <trkpt lat="43.01405" lon="0.23107">
        <ele>1566.1</ele>
        <time>2023-11-19T13:42:38Z</time>
      </trkpt>
      <trkpt lat="43.01405" lon="0.23107">
        <ele>1566.1</ele>
        <time>2023-11-19T13:42:39Z</time>
      </trkpt>
      <trkpt lat="43.01404" lon="0.23107">
        <ele>1566.1</ele>
        <time>2023-11-19T13:42:40Z</time>
      </trkpt>
      <trkpt lat="43.01405" lon="0.23106">
        <ele>1566.1</ele>
        <time>2023-11-19T13:42:41Z</time>
      </trkpt>
      <trkpt lat="43.01405" lon="0.23106">
        <ele>1566.1</ele>
        <time>2023-11-19T13:42:42Z</time>
      </trkpt>
      <trkpt lat="43.01405" lon="0.23106">
        <ele>1566.1</ele>
        <time>2023-11-19T13:42:43Z</time>
      </trkpt>
      <trkpt lat="43.01405" lon="0.23106">
        <ele>1566.1</ele>
        <time>2023-11-19T13:42:44Z</time>
      </trkpt>
      <trkpt lat="43.01405" lon="0.23106">
        <ele>1566.1</ele>
        <time>2023-11-19T13:42:45Z</time>
      </trkpt>
      <trkpt lat="43.01405" lon="0.23106">
        <ele>1566.1</ele>
        <time>2023-11-19T13:42:46Z</time>
      </trkpt>
      <trkpt lat="43.01405" lon="0.23106">
        <ele>1566.1</ele>
        <time>2023-11-19T13:42:47Z</time>
      </trkpt>
      <trkpt lat="43.01405" lon="0.23106">
        <ele>1566.1</ele>
        <time>2023-11-19T13:42:48Z</time>
      </trkpt>
      <trkpt lat="43.01405" lon="0.23106">
        <ele>1566.1</ele>
        <time>2023-11-19T13:42:49Z</time>
      </trkpt>
      <trkpt lat="43.01405" lon="0.23106">
        <ele>1566.1</ele>
        <time>2023-11-19T13:42:50Z</time>
      </trkpt>
      <trkpt lat="43.01405" lon="0.23106">
        <ele>1566.1</ele>
        <time>2023-11-19T13:42:51Z</time>
      </trkpt>
      <trkpt lat="43.01405" lon="0.23106">
        <ele>1566.1</ele>
        <time>2023-11-19T13:42:52Z</time>
      </trkpt>
      <trkpt lat="43.01405" lon="0.23106">
        <ele>1566.1</ele>
        <time>2023-11-19T13:42:53Z</time>
      </trkpt>
      <trkpt lat="43.01405" lon="0.23106">
        <ele>1566.1</ele>
        <time>2023-11-19T13:42:54Z</time>
      </trkpt>
      <trkpt lat="43.01405" lon="0.23106">
        <ele>1566.1</ele>
        <time>2023-11-19T13:42:55Z</time>
      </trkpt>
      <trkpt lat="43.01405" lon="0.23106">
        <ele>1566.1</ele>
        <time>2023-11-19T13:42:56Z</time>
      </trkpt>
      <trkpt lat="43.01405" lon="0.23106">
        <ele>1566.1</ele>
        <time>2023-11-19T13:42:57Z</time>
      </trkpt>
      <trkpt lat="43.01405" lon="0.23107">
        <ele>1566.1</ele>
        <time>2023-11-19T13:42:58Z</time>
      </trkpt>
      <trkpt lat="43.01405" lon="0.23107">
        <ele>1566.1</ele>
        <time>2023-11-19T13:42:59Z</time>
      </trkpt>
      <trkpt lat="43.01405" lon="0.23107">
        <ele>1566.1</ele>
        <time>2023-11-19T13:43:00Z</time>
      </trkpt>
      <trkpt lat="43.01406" lon="0.23106">
        <ele>1566.1</ele>
        <time>2023-11-19T13:43:01Z</time>
      </trkpt>
      <trkpt lat="43.01406" lon="0.23106">
        <ele>1566.1</ele>
        <time>2023-11-19T13:43:02Z</time>
      </trkpt>
      <trkpt lat="43.01406" lon="0.23106">
        <ele>1566.1</ele>
        <time>2023-11-19T13:43:03Z</time>
      </trkpt>
      <trkpt lat="43.01406" lon="0.23106">
        <ele>1566.1</ele>
        <time>2023-11-19T13:43:04Z</time>
      </trkpt>
      <trkpt lat="43.01406" lon="0.23106">
        <ele>1566.1</ele>
        <time>2023-11-19T13:43:05Z</time>
      </trkpt>
      <trkpt lat="43.01406" lon="0.23106">
        <ele>1566.1</ele>
        <time>2023-11-19T13:43:07Z</time>
      </trkpt>
      <trkpt lat="43.01406" lon="0.23106">
        <ele>1566.1</ele>
        <time>2023-11-19T13:43:08Z</time>
      </trkpt>
      <trkpt lat="43.01406" lon="0.23106">
        <ele>1566.1</ele>
        <time>2023-11-19T13:43:09Z</time>
      </trkpt>
      <trkpt lat="43.01406" lon="0.23106">
        <ele>1566.1</ele>
        <time>2023-11-19T13:43:10Z</time>
      </trkpt>
      <trkpt lat="43.01406" lon="0.23106">
        <ele>1566.1</ele>
        <time>2023-11-19T13:43:11Z</time>
      </trkpt>
      <trkpt lat="43.01406" lon="0.23106">
        <ele>1566.1</ele>
        <time>2023-11-19T13:43:12Z</time>
      </trkpt>
      <trkpt lat="43.01406" lon="0.23106">
        <ele>1566.1</ele>
        <time>2023-11-19T13:43:13Z</time>
      </trkpt>
      <trkpt lat="43.01407" lon="0.23106">
        <ele>1568</ele>
        <time>2023-11-19T13:43:14Z</time>
      </trkpt>
      <trkpt lat="43.01407" lon="0.23106">
        <ele>1568</ele>
        <time>2023-11-19T13:43:15Z</time>
      </trkpt>
      <trkpt lat="43.01406" lon="0.23106">
        <ele>1568</ele>
        <time>2023-11-19T13:43:16Z</time>
      </trkpt>
      <trkpt lat="43.01406" lon="0.23106">
        <ele>1563.8</ele>
        <time>2023-11-19T13:43:17Z</time>
      </trkpt>
      <trkpt lat="43.01406" lon="0.23105">
        <ele>1563.8</ele>
        <time>2023-11-19T13:43:18Z</time>
      </trkpt>
      <trkpt lat="43.01406" lon="0.23105">
        <ele>1563.8</ele>
        <time>2023-11-19T13:43:19Z</time>
      </trkpt>
      <trkpt lat="43.01406" lon="0.23106">
        <ele>1563.8</ele>
        <time>2023-11-19T13:43:20Z</time>
      </trkpt>
      <trkpt lat="43.01406" lon="0.23105">
        <ele>1563.8</ele>
        <time>2023-11-19T13:43:21Z</time>
      </trkpt>
      <trkpt lat="43.01406" lon="0.23105">
        <ele>1563.8</ele>
        <time>2023-11-19T13:43:22Z</time>
      </trkpt>
      <trkpt lat="43.01406" lon="0.23105">
        <ele>1563.8</ele>
        <time>2023-11-19T13:43:23Z</time>
      </trkpt>
      <trkpt lat="43.01406" lon="0.23105">
        <ele>1563.8</ele>
        <time>2023-11-19T13:43:24Z</time>
      </trkpt>
      <trkpt lat="43.01406" lon="0.23105">
        <ele>1563.8</ele>
        <time>2023-11-19T13:43:25Z</time>
      </trkpt>
      <trkpt lat="43.01406" lon="0.23105">
        <ele>1563.8</ele>
        <time>2023-11-19T13:43:26Z</time>
      </trkpt>
      <trkpt lat="43.01406" lon="0.23105">
        <ele>1563.8</ele>
        <time>2023-11-19T13:43:27Z</time>
      </trkpt>
      <trkpt lat="43.01406" lon="0.23105">
        <ele>1563.8</ele>
        <time>2023-11-19T13:43:28Z</time>
      </trkpt>
      <trkpt lat="43.01406" lon="0.23105">
        <ele>1563.8</ele>
        <time>2023-11-19T13:43:29Z</time>
      </trkpt>
      <trkpt lat="43.01406" lon="0.23105">
        <ele>1563.8</ele>
        <time>2023-11-19T13:43:30Z</time>
      </trkpt>
      <trkpt lat="43.01406" lon="0.23105">
        <ele>1563.8</ele>
        <time>2023-11-19T13:43:31Z</time>
      </trkpt>
      <trkpt lat="43.01406" lon="0.23105">
        <ele>1563.8</ele>
        <time>2023-11-19T13:43:32Z</time>
      </trkpt>
      <trkpt lat="43.01406" lon="0.23105">
        <ele>1563.8</ele>
        <time>2023-11-19T13:43:33Z</time>
      </trkpt>
      <trkpt lat="43.01407" lon="0.23105">
        <ele>1565.7</ele>
        <time>2023-11-19T13:43:34Z</time>
      </trkpt>
      <trkpt lat="43.01407" lon="0.23105">
        <ele>1565.7</ele>
        <time>2023-11-19T13:43:35Z</time>
      </trkpt>
      <trkpt lat="43.01407" lon="0.23105">
        <ele>1565.7</ele>
        <time>2023-11-19T13:43:36Z</time>
      </trkpt>
      <trkpt lat="43.01407" lon="0.23105">
        <ele>1565.7</ele>
        <time>2023-11-19T13:43:37Z</time>
      </trkpt>
      <trkpt lat="43.01407" lon="0.23105">
        <ele>1565.7</ele>
        <time>2023-11-19T13:43:38Z</time>
      </trkpt>
      <trkpt lat="43.01407" lon="0.23105">
        <ele>1565.7</ele>
        <time>2023-11-19T13:43:39Z</time>
      </trkpt>
      <trkpt lat="43.01407" lon="0.23105">
        <ele>1565.7</ele>
        <time>2023-11-19T13:43:40Z</time>
      </trkpt>
      <trkpt lat="43.01407" lon="0.23105">
        <ele>1565.7</ele>
        <time>2023-11-19T13:43:41Z</time>
      </trkpt>
      <trkpt lat="43.01407" lon="0.23105">
        <ele>1565.7</ele>
        <time>2023-11-19T13:43:42Z</time>
      </trkpt>
      <trkpt lat="43.01407" lon="0.23105">
        <ele>1565.7</ele>
        <time>2023-11-19T13:43:43Z</time>
      </trkpt>
      <trkpt lat="43.01407" lon="0.23105">
        <ele>1565.7</ele>
        <time>2023-11-19T13:43:44Z</time>
      </trkpt>
      <trkpt lat="43.01407" lon="0.23105">
        <ele>1565.7</ele>
        <time>2023-11-19T13:43:45Z</time>
      </trkpt>
      <trkpt lat="43.01407" lon="0.23105">
        <ele>1565.7</ele>
        <time>2023-11-19T13:43:46Z</time>
      </trkpt>
      <trkpt lat="43.01407" lon="0.23106">
        <ele>1568</ele>
        <time>2023-11-19T13:43:47Z</time>
      </trkpt>
      <trkpt lat="43.01408" lon="0.23106">
        <ele>1568</ele>
        <time>2023-11-19T13:43:48Z</time>
      </trkpt>
      <trkpt lat="43.01408" lon="0.23106">
        <ele>1568</ele>
        <time>2023-11-19T13:43:49Z</time>
      </trkpt>
      <trkpt lat="43.01408" lon="0.23106">
        <ele>1568</ele>
        <time>2023-11-19T13:43:50Z</time>
      </trkpt>
      <trkpt lat="43.01408" lon="0.23106">
        <ele>1568</ele>
        <time>2023-11-19T13:43:51Z</time>
      </trkpt>
      <trkpt lat="43.01408" lon="0.23106">
        <ele>1568</ele>
        <time>2023-11-19T13:43:52Z</time>
      </trkpt>
      <trkpt lat="43.01408" lon="0.23106">
        <ele>1568</ele>
        <time>2023-11-19T13:43:53Z</time>
      </trkpt>
      <trkpt lat="43.01408" lon="0.23106">
        <ele>1568</ele>
        <time>2023-11-19T13:43:54Z</time>
      </trkpt>
      <trkpt lat="43.01408" lon="0.23106">
        <ele>1568</ele>
        <time>2023-11-19T13:43:55Z</time>
      </trkpt>
      <trkpt lat="43.01408" lon="0.23106">
        <ele>1568</ele>
        <time>2023-11-19T13:43:56Z</time>
      </trkpt>
      <trkpt lat="43.01409" lon="0.23106">
        <ele>1568</ele>
        <time>2023-11-19T13:43:57Z</time>
      </trkpt>
      <trkpt lat="43.01409" lon="0.23106">
        <ele>1568</ele>
        <time>2023-11-19T13:43:58Z</time>
      </trkpt>
      <trkpt lat="43.01409" lon="0.23106">
        <ele>1568</ele>
        <time>2023-11-19T13:43:59Z</time>
      </trkpt>
      <trkpt lat="43.01408" lon="0.23105">
        <ele>1565.7</ele>
        <time>2023-11-19T13:44:00Z</time>
      </trkpt>
      <trkpt lat="43.01408" lon="0.23105">
        <ele>1565.7</ele>
        <time>2023-11-19T13:44:01Z</time>
      </trkpt>
      <trkpt lat="43.01407" lon="0.23105">
        <ele>1565.7</ele>
        <time>2023-11-19T13:44:02Z</time>
      </trkpt>
      <trkpt lat="43.01407" lon="0.23105">
        <ele>1565.7</ele>
        <time>2023-11-19T13:44:03Z</time>
      </trkpt>
      <trkpt lat="43.01407" lon="0.23105">
        <ele>1565.7</ele>
        <time>2023-11-19T13:44:04Z</time>
      </trkpt>
      <trkpt lat="43.01406" lon="0.23105">
        <ele>1563.8</ele>
        <time>2023-11-19T13:44:05Z</time>
      </trkpt>
      <trkpt lat="43.01406" lon="0.23105">
        <ele>1563.8</ele>
        <time>2023-11-19T13:44:06Z</time>
      </trkpt>
      <trkpt lat="43.01406" lon="0.23106">
        <ele>1563.8</ele>
        <time>2023-11-19T13:44:07Z</time>
      </trkpt>
      <trkpt lat="43.01406" lon="0.23106">
        <ele>1563.8</ele>
        <time>2023-11-19T13:44:08Z</time>
      </trkpt>
      <trkpt lat="43.01406" lon="0.23106">
        <ele>1563.8</ele>
        <time>2023-11-19T13:44:09Z</time>
      </trkpt>
      <trkpt lat="43.01406" lon="0.23106">
        <ele>1563.8</ele>
        <time>2023-11-19T13:44:10Z</time>
      </trkpt>
      <trkpt lat="43.01406" lon="0.23106">
        <ele>1563.8</ele>
        <time>2023-11-19T13:44:11Z</time>
      </trkpt>
      <trkpt lat="43.01406" lon="0.23106">
        <ele>1563.8</ele>
        <time>2023-11-19T13:44:12Z</time>
      </trkpt>
      <trkpt lat="43.01406" lon="0.23106">
        <ele>1563.8</ele>
        <time>2023-11-19T13:44:13Z</time>
      </trkpt>
      <trkpt lat="43.01405" lon="0.23106">
        <ele>1566.2</ele>
        <time>2023-11-19T13:44:14Z</time>
      </trkpt>
      <trkpt lat="43.01405" lon="0.23106">
        <ele>1566.2</ele>
        <time>2023-11-19T13:44:15Z</time>
      </trkpt>
      <trkpt lat="43.01405" lon="0.23106">
        <ele>1566.2</ele>
        <time>2023-11-19T13:44:16Z</time>
      </trkpt>
      <trkpt lat="43.01405" lon="0.23108">
        <ele>1566.2</ele>
        <time>2023-11-19T13:44:17Z</time>
      </trkpt>
      <trkpt lat="43.01405" lon="0.23108">
        <ele>1566.2</ele>
        <time>2023-11-19T13:44:18Z</time>
      </trkpt>
      <trkpt lat="43.01405" lon="0.23108">
        <ele>1566.2</ele>
        <time>2023-11-19T13:44:19Z</time>
      </trkpt>
      <trkpt lat="43.01405" lon="0.23107">
        <ele>1566.2</ele>
        <time>2023-11-19T13:44:20Z</time>
      </trkpt>
      <trkpt lat="43.01405" lon="0.23107">
        <ele>1566.2</ele>
        <time>2023-11-19T13:44:21Z</time>
      </trkpt>
      <trkpt lat="43.01405" lon="0.23107">
        <ele>1566.2</ele>
        <time>2023-11-19T13:44:22Z</time>
      </trkpt>
      <trkpt lat="43.01405" lon="0.23106">
        <ele>1566.2</ele>
        <time>2023-11-19T13:44:23Z</time>
      </trkpt>
      <trkpt lat="43.01405" lon="0.23106">
        <ele>1566.2</ele>
        <time>2023-11-19T13:44:24Z</time>
      </trkpt>
      <trkpt lat="43.01405" lon="0.23106">
        <ele>1566.2</ele>
        <time>2023-11-19T13:44:25Z</time>
      </trkpt>
      <trkpt lat="43.01405" lon="0.23106">
        <ele>1566.2</ele>
        <time>2023-11-19T13:44:26Z</time>
      </trkpt>
      <trkpt lat="43.01405" lon="0.23106">
        <ele>1566.2</ele>
        <time>2023-11-19T13:44:27Z</time>
      </trkpt>
      <trkpt lat="43.01405" lon="0.23106">
        <ele>1566.2</ele>
        <time>2023-11-19T13:44:28Z</time>
      </trkpt>
      <trkpt lat="43.01405" lon="0.23106">
        <ele>1566.2</ele>
        <time>2023-11-19T13:44:29Z</time>
      </trkpt>
      <trkpt lat="43.01405" lon="0.23106">
        <ele>1566.2</ele>
        <time>2023-11-19T13:44:30Z</time>
      </trkpt>
      <trkpt lat="43.01405" lon="0.23106">
        <ele>1566.2</ele>
        <time>2023-11-19T13:44:31Z</time>
      </trkpt>
      <trkpt lat="43.01405" lon="0.23105">
        <ele>1563.8</ele>
        <time>2023-11-19T13:44:32Z</time>
      </trkpt>
      <trkpt lat="43.01405" lon="0.23105">
        <ele>1563.8</ele>
        <time>2023-11-19T13:44:33Z</time>
      </trkpt>
      <trkpt lat="43.01405" lon="0.23105">
        <ele>1563.8</ele>
        <time>2023-11-19T13:44:34Z</time>
      </trkpt>
      <trkpt lat="43.01405" lon="0.23105">
        <ele>1563.8</ele>
        <time>2023-11-19T13:44:35Z</time>
      </trkpt>
      <trkpt lat="43.01405" lon="0.23105">
        <ele>1563.8</ele>
        <time>2023-11-19T13:44:36Z</time>
      </trkpt>
      <trkpt lat="43.01405" lon="0.23105">
        <ele>1563.8</ele>
        <time>2023-11-19T13:44:37Z</time>
      </trkpt>
      <trkpt lat="43.01405" lon="0.23105">
        <ele>1563.8</ele>
        <time>2023-11-19T13:44:38Z</time>
      </trkpt>
      <trkpt lat="43.01405" lon="0.23105">
        <ele>1563.8</ele>
        <time>2023-11-19T13:44:39Z</time>
      </trkpt>
      <trkpt lat="43.01405" lon="0.23105">
        <ele>1563.8</ele>
        <time>2023-11-19T13:44:40Z</time>
      </trkpt>
      <trkpt lat="43.01405" lon="0.23105">
        <ele>1563.8</ele>
        <time>2023-11-19T13:44:41Z</time>
      </trkpt>
      <trkpt lat="43.01405" lon="0.23105">
        <ele>1563.8</ele>
        <time>2023-11-19T13:44:42Z</time>
      </trkpt>
      <trkpt lat="43.01405" lon="0.23105">
        <ele>1563.8</ele>
        <time>2023-11-19T13:44:43Z</time>
      </trkpt>
      <trkpt lat="43.01405" lon="0.23104">
        <ele>1563.8</ele>
        <time>2023-11-19T13:44:44Z</time>
      </trkpt>
      <trkpt lat="43.01405" lon="0.23104">
        <ele>1563.8</ele>
        <time>2023-11-19T13:44:45Z</time>
      </trkpt>
      <trkpt lat="43.01405" lon="0.23104">
        <ele>1563.8</ele>
        <time>2023-11-19T13:44:46Z</time>
      </trkpt>
      <trkpt lat="43.01405" lon="0.23105">
        <ele>1563.8</ele>
        <time>2023-11-19T13:44:47Z</time>
      </trkpt>
      <trkpt lat="43.01405" lon="0.23105">
        <ele>1563.8</ele>
        <time>2023-11-19T13:44:48Z</time>
      </trkpt>
      <trkpt lat="43.01405" lon="0.23105">
        <ele>1563.8</ele>
        <time>2023-11-19T13:44:49Z</time>
      </trkpt>
      <trkpt lat="43.01405" lon="0.23105">
        <ele>1563.8</ele>
        <time>2023-11-19T13:44:50Z</time>
      </trkpt>
      <trkpt lat="43.01405" lon="0.23105">
        <ele>1563.8</ele>
        <time>2023-11-19T13:44:51Z</time>
      </trkpt>
      <trkpt lat="43.01405" lon="0.23105">
        <ele>1563.8</ele>
        <time>2023-11-19T13:44:52Z</time>
      </trkpt>
      <trkpt lat="43.01405" lon="0.23105">
        <ele>1563.8</ele>
        <time>2023-11-19T13:44:53Z</time>
      </trkpt>
      <trkpt lat="43.01405" lon="0.23104">
        <ele>1563.8</ele>
        <time>2023-11-19T13:44:54Z</time>
      </trkpt>
      <trkpt lat="43.01405" lon="0.23104">
        <ele>1563.8</ele>
        <time>2023-11-19T13:44:55Z</time>
      </trkpt>
      <trkpt lat="43.01405" lon="0.23104">
        <ele>1563.8</ele>
        <time>2023-11-19T13:44:56Z</time>
      </trkpt>
      <trkpt lat="43.01405" lon="0.23105">
        <ele>1563.8</ele>
        <time>2023-11-19T13:44:57Z</time>
      </trkpt>
      <trkpt lat="43.01404" lon="0.23105">
        <ele>1563.8</ele>
        <time>2023-11-19T13:44:58Z</time>
      </trkpt>
      <trkpt lat="43.01404" lon="0.23105">
        <ele>1563.8</ele>
        <time>2023-11-19T13:44:59Z</time>
      </trkpt>
      <trkpt lat="43.01404" lon="0.23105">
        <ele>1563.8</ele>
        <time>2023-11-19T13:45:00Z</time>
      </trkpt>
      <trkpt lat="43.01405" lon="0.23104">
        <ele>1563.8</ele>
        <time>2023-11-19T13:45:01Z</time>
      </trkpt>
      <trkpt lat="43.01405" lon="0.23104">
        <ele>1563.8</ele>
        <time>2023-11-19T13:45:02Z</time>
      </trkpt>
      <trkpt lat="43.01405" lon="0.23104">
        <ele>1563.8</ele>
        <time>2023-11-19T13:45:03Z</time>
      </trkpt>
      <trkpt lat="43.01405" lon="0.23104">
        <ele>1563.8</ele>
        <time>2023-11-19T13:45:04Z</time>
      </trkpt>
      <trkpt lat="43.01405" lon="0.23105">
        <ele>1563.8</ele>
        <time>2023-11-19T13:45:05Z</time>
      </trkpt>
      <trkpt lat="43.01405" lon="0.23105">
        <ele>1563.8</ele>
        <time>2023-11-19T13:45:06Z</time>
      </trkpt>
      <trkpt lat="43.01405" lon="0.23105">
        <ele>1563.8</ele>
        <time>2023-11-19T13:45:07Z</time>
      </trkpt>
      <trkpt lat="43.01405" lon="0.23105">
        <ele>1563.8</ele>
        <time>2023-11-19T13:45:08Z</time>
      </trkpt>
      <trkpt lat="43.01405" lon="0.23105">
        <ele>1563.8</ele>
        <time>2023-11-19T13:45:09Z</time>
      </trkpt>
      <trkpt lat="43.01405" lon="0.23105">
        <ele>1563.8</ele>
        <time>2023-11-19T13:45:10Z</time>
      </trkpt>
      <trkpt lat="43.01405" lon="0.23104">
        <ele>1563.8</ele>
        <time>2023-11-19T13:45:11Z</time>
      </trkpt>
      <trkpt lat="43.01405" lon="0.23104">
        <ele>1563.8</ele>
        <time>2023-11-19T13:45:13Z</time>
      </trkpt>
      <trkpt lat="43.01406" lon="0.23105">
        <ele>1563.8</ele>
        <time>2023-11-19T13:45:14Z</time>
      </trkpt>
      <trkpt lat="43.01406" lon="0.23105">
        <ele>1563.8</ele>
        <time>2023-11-19T13:45:15Z</time>
      </trkpt>
      <trkpt lat="43.01406" lon="0.23105">
        <ele>1563.8</ele>
        <time>2023-11-19T13:45:16Z</time>
      </trkpt>
      <trkpt lat="43.01406" lon="0.23105">
        <ele>1563.8</ele>
        <time>2023-11-19T13:45:17Z</time>
      </trkpt>
      <trkpt lat="43.01406" lon="0.23105">
        <ele>1563.8</ele>
        <time>2023-11-19T13:45:18Z</time>
      </trkpt>
      <trkpt lat="43.01406" lon="0.23105">
        <ele>1563.8</ele>
        <time>2023-11-19T13:45:19Z</time>
      </trkpt>
      <trkpt lat="43.01406" lon="0.23105">
        <ele>1563.8</ele>
        <time>2023-11-19T13:45:20Z</time>
      </trkpt>
      <trkpt lat="43.01406" lon="0.23105">
        <ele>1563.8</ele>
        <time>2023-11-19T13:45:21Z</time>
      </trkpt>
      <trkpt lat="43.01406" lon="0.23105">
        <ele>1563.8</ele>
        <time>2023-11-19T13:45:22Z</time>
      </trkpt>
      <trkpt lat="43.01406" lon="0.23105">
        <ele>1563.8</ele>
        <time>2023-11-19T13:45:23Z</time>
      </trkpt>
      <trkpt lat="43.01406" lon="0.23105">
        <ele>1563.9</ele>
        <time>2023-11-19T13:45:24Z</time>
      </trkpt>
      <trkpt lat="43.01406" lon="0.23105">
        <ele>1563.9</ele>
        <time>2023-11-19T13:45:25Z</time>
      </trkpt>
      <trkpt lat="43.01406" lon="0.23105">
        <ele>1563.9</ele>
        <time>2023-11-19T13:45:26Z</time>
      </trkpt>
      <trkpt lat="43.01406" lon="0.23105">
        <ele>1563.9</ele>
        <time>2023-11-19T13:45:27Z</time>
      </trkpt>
      <trkpt lat="43.01407" lon="0.23106">
        <ele>1568.1</ele>
        <time>2023-11-19T13:45:28Z</time>
      </trkpt>
      <trkpt lat="43.01407" lon="0.23106">
        <ele>1568.1</ele>
        <time>2023-11-19T13:45:29Z</time>
      </trkpt>
      <trkpt lat="43.01407" lon="0.23106">
        <ele>1568.1</ele>
        <time>2023-11-19T13:45:30Z</time>
      </trkpt>
      <trkpt lat="43.01407" lon="0.23106">
        <ele>1568.1</ele>
        <time>2023-11-19T13:45:31Z</time>
      </trkpt>
      <trkpt lat="43.01407" lon="0.23106">
        <ele>1568.1</ele>
        <time>2023-11-19T13:45:32Z</time>
      </trkpt>
      <trkpt lat="43.01407" lon="0.23106">
        <ele>1568.1</ele>
        <time>2023-11-19T13:45:33Z</time>
      </trkpt>
      <trkpt lat="43.01407" lon="0.23106">
        <ele>1568.1</ele>
        <time>2023-11-19T13:45:34Z</time>
      </trkpt>
      <trkpt lat="43.01407" lon="0.23106">
        <ele>1568.1</ele>
        <time>2023-11-19T13:45:35Z</time>
      </trkpt>
      <trkpt lat="43.01407" lon="0.23106">
        <ele>1568.1</ele>
        <time>2023-11-19T13:45:36Z</time>
      </trkpt>
      <trkpt lat="43.01407" lon="0.23106">
        <ele>1568.1</ele>
        <time>2023-11-19T13:45:37Z</time>
      </trkpt>
      <trkpt lat="43.01407" lon="0.23106">
        <ele>1568.1</ele>
        <time>2023-11-19T13:45:38Z</time>
      </trkpt>
      <trkpt lat="43.01407" lon="0.23106">
        <ele>1568.1</ele>
        <time>2023-11-19T13:45:39Z</time>
      </trkpt>
      <trkpt lat="43.01407" lon="0.23106">
        <ele>1568.1</ele>
        <time>2023-11-19T13:45:40Z</time>
      </trkpt>
      <trkpt lat="43.01407" lon="0.23106">
        <ele>1568.1</ele>
        <time>2023-11-19T13:45:41Z</time>
      </trkpt>
      <trkpt lat="43.01407" lon="0.23106">
        <ele>1568.1</ele>
        <time>2023-11-19T13:45:42Z</time>
      </trkpt>
      <trkpt lat="43.01407" lon="0.23106">
        <ele>1568.1</ele>
        <time>2023-11-19T13:45:43Z</time>
      </trkpt>
      <trkpt lat="43.01407" lon="0.23106">
        <ele>1568.1</ele>
        <time>2023-11-19T13:45:44Z</time>
      </trkpt>
      <trkpt lat="43.01407" lon="0.23106">
        <ele>1568.1</ele>
        <time>2023-11-19T13:45:45Z</time>
      </trkpt>
      <trkpt lat="43.01408" lon="0.23106">
        <ele>1568.1</ele>
        <time>2023-11-19T13:45:46Z</time>
      </trkpt>
      <trkpt lat="43.01408" lon="0.23106">
        <ele>1568.1</ele>
        <time>2023-11-19T13:45:47Z</time>
      </trkpt>
      <trkpt lat="43.01408" lon="0.23106">
        <ele>1568.1</ele>
        <time>2023-11-19T13:45:48Z</time>
      </trkpt>
      <trkpt lat="43.01408" lon="0.23106">
        <ele>1568.1</ele>
        <time>2023-11-19T13:45:49Z</time>
      </trkpt>
      <trkpt lat="43.01408" lon="0.23106">
        <ele>1568.1</ele>
        <time>2023-11-19T13:45:50Z</time>
      </trkpt>
      <trkpt lat="43.01408" lon="0.23106">
        <ele>1568.1</ele>
        <time>2023-11-19T13:45:51Z</time>
      </trkpt>
      <trkpt lat="43.01408" lon="0.23106">
        <ele>1568.1</ele>
        <time>2023-11-19T13:45:52Z</time>
      </trkpt>
      <trkpt lat="43.01408" lon="0.23106">
        <ele>1568.1</ele>
        <time>2023-11-19T13:45:53Z</time>
      </trkpt>
      <trkpt lat="43.01408" lon="0.23106">
        <ele>1568.1</ele>
        <time>2023-11-19T13:45:54Z</time>
      </trkpt>
      <trkpt lat="43.01408" lon="0.23106">
        <ele>1568.1</ele>
        <time>2023-11-19T13:45:55Z</time>
      </trkpt>
      <trkpt lat="43.01408" lon="0.23106">
        <ele>1568.1</ele>
        <time>2023-11-19T13:45:56Z</time>
      </trkpt>
      <trkpt lat="43.01408" lon="0.23106">
        <ele>1568.1</ele>
        <time>2023-11-19T13:45:57Z</time>
      </trkpt>
      <trkpt lat="43.01408" lon="0.23106">
        <ele>1568.1</ele>
        <time>2023-11-19T13:45:58Z</time>
      </trkpt>
      <trkpt lat="43.01408" lon="0.23106">
        <ele>1568.1</ele>
        <time>2023-11-19T13:45:59Z</time>
      </trkpt>
      <trkpt lat="43.01408" lon="0.23106">
        <ele>1568.1</ele>
        <time>2023-11-19T13:46:00Z</time>
      </trkpt>
      <trkpt lat="43.01408" lon="0.23106">
        <ele>1568.1</ele>
        <time>2023-11-19T13:46:01Z</time>
      </trkpt>
      <trkpt lat="43.01408" lon="0.23106">
        <ele>1568.1</ele>
        <time>2023-11-19T13:46:02Z</time>
      </trkpt>
      <trkpt lat="43.01408" lon="0.23106">
        <ele>1568.1</ele>
        <time>2023-11-19T13:46:03Z</time>
      </trkpt>
      <trkpt lat="43.01408" lon="0.23106">
        <ele>1568.1</ele>
        <time>2023-11-19T13:46:04Z</time>
      </trkpt>
      <trkpt lat="43.01408" lon="0.23106">
        <ele>1568.1</ele>
        <time>2023-11-19T13:46:05Z</time>
      </trkpt>
      <trkpt lat="43.01408" lon="0.23106">
        <ele>1568.1</ele>
        <time>2023-11-19T13:46:06Z</time>
      </trkpt>
      <trkpt lat="43.01408" lon="0.23106">
        <ele>1568.1</ele>
        <time>2023-11-19T13:46:07Z</time>
      </trkpt>
      <trkpt lat="43.01408" lon="0.23106">
        <ele>1568.1</ele>
        <time>2023-11-19T13:46:08Z</time>
      </trkpt>
      <trkpt lat="43.01408" lon="0.23106">
        <ele>1568.1</ele>
        <time>2023-11-19T13:46:09Z</time>
      </trkpt>
      <trkpt lat="43.01408" lon="0.23106">
        <ele>1568.1</ele>
        <time>2023-11-19T13:46:10Z</time>
      </trkpt>
      <trkpt lat="43.01408" lon="0.23106">
        <ele>1568.1</ele>
        <time>2023-11-19T13:46:11Z</time>
      </trkpt>
      <trkpt lat="43.01408" lon="0.23106">
        <ele>1568.1</ele>
        <time>2023-11-19T13:46:12Z</time>
      </trkpt>
      <trkpt lat="43.01408" lon="0.23106">
        <ele>1568.1</ele>
        <time>2023-11-19T13:46:13Z</time>
      </trkpt>
      <trkpt lat="43.01408" lon="0.23106">
        <ele>1568.1</ele>
        <time>2023-11-19T13:46:14Z</time>
      </trkpt>
      <trkpt lat="43.01407" lon="0.23106">
        <ele>1568.1</ele>
        <time>2023-11-19T13:46:15Z</time>
      </trkpt>
      <trkpt lat="43.01406" lon="0.23106">
        <ele>1568.1</ele>
        <time>2023-11-19T13:46:16Z</time>
      </trkpt>
      <trkpt lat="43.01406" lon="0.23106">
        <ele>1566.3</ele>
        <time>2023-11-19T13:46:17Z</time>
      </trkpt>
      <trkpt lat="43.01406" lon="0.23106">
        <ele>1566.3</ele>
        <time>2023-11-19T13:46:18Z</time>
      </trkpt>
      <trkpt lat="43.01406" lon="0.23106">
        <ele>1566.3</ele>
        <time>2023-11-19T13:46:19Z</time>
      </trkpt>
      <trkpt lat="43.01406" lon="0.23106">
        <ele>1566.3</ele>
        <time>2023-11-19T13:46:20Z</time>
      </trkpt>
      <trkpt lat="43.01406" lon="0.23106">
        <ele>1566.3</ele>
        <time>2023-11-19T13:46:21Z</time>
      </trkpt>
      <trkpt lat="43.01406" lon="0.23106">
        <ele>1566.3</ele>
        <time>2023-11-19T13:46:22Z</time>
      </trkpt>
      <trkpt lat="43.01406" lon="0.23106">
        <ele>1566.3</ele>
        <time>2023-11-19T13:46:23Z</time>
      </trkpt>
      <trkpt lat="43.01406" lon="0.23106">
        <ele>1566.3</ele>
        <time>2023-11-19T13:46:24Z</time>
      </trkpt>
      <trkpt lat="43.01406" lon="0.23106">
        <ele>1566.3</ele>
        <time>2023-11-19T13:46:25Z</time>
      </trkpt>
      <trkpt lat="43.01406" lon="0.23106">
        <ele>1566.3</ele>
        <time>2023-11-19T13:46:26Z</time>
      </trkpt>
      <trkpt lat="43.01406" lon="0.23106">
        <ele>1566.3</ele>
        <time>2023-11-19T13:46:27Z</time>
      </trkpt>
      <trkpt lat="43.01406" lon="0.23106">
        <ele>1566.3</ele>
        <time>2023-11-19T13:46:28Z</time>
      </trkpt>
      <trkpt lat="43.01406" lon="0.23106">
        <ele>1566.3</ele>
        <time>2023-11-19T13:46:29Z</time>
      </trkpt>
      <trkpt lat="43.01406" lon="0.23106">
        <ele>1566.3</ele>
        <time>2023-11-19T13:46:30Z</time>
      </trkpt>
      <trkpt lat="43.01406" lon="0.23106">
        <ele>1566.3</ele>
        <time>2023-11-19T13:46:31Z</time>
      </trkpt>
      <trkpt lat="43.01406" lon="0.23106">
        <ele>1566.3</ele>
        <time>2023-11-19T13:46:32Z</time>
      </trkpt>
      <trkpt lat="43.01406" lon="0.23106">
        <ele>1566.3</ele>
        <time>2023-11-19T13:46:33Z</time>
      </trkpt>
      <trkpt lat="43.01406" lon="0.23106">
        <ele>1566.3</ele>
        <time>2023-11-19T13:46:34Z</time>
      </trkpt>
      <trkpt lat="43.01406" lon="0.23106">
        <ele>1566.3</ele>
        <time>2023-11-19T13:46:35Z</time>
      </trkpt>
      <trkpt lat="43.01408" lon="0.23107">
        <ele>1568.2</ele>
        <time>2023-11-19T13:46:36Z</time>
      </trkpt>
      <trkpt lat="43.01409" lon="0.23105">
        <ele>1565.8</ele>
        <time>2023-11-19T13:46:37Z</time>
      </trkpt>
      <trkpt lat="43.01408" lon="0.23105">
        <ele>1565.8</ele>
        <time>2023-11-19T13:46:38Z</time>
      </trkpt>
      <trkpt lat="43.01408" lon="0.23105">
        <ele>1565.8</ele>
        <time>2023-11-19T13:46:39Z</time>
      </trkpt>
      <trkpt lat="43.01408" lon="0.23105">
        <ele>1565.8</ele>
        <time>2023-11-19T13:46:40Z</time>
      </trkpt>
      <trkpt lat="43.01408" lon="0.23105">
        <ele>1565.8</ele>
        <time>2023-11-19T13:46:41Z</time>
      </trkpt>
      <trkpt lat="43.01408" lon="0.23105">
        <ele>1565.8</ele>
        <time>2023-11-19T13:46:42Z</time>
      </trkpt>
      <trkpt lat="43.01408" lon="0.23105">
        <ele>1565.8</ele>
        <time>2023-11-19T13:46:43Z</time>
      </trkpt>
      <trkpt lat="43.01408" lon="0.23105">
        <ele>1565.8</ele>
        <time>2023-11-19T13:46:44Z</time>
      </trkpt>
      <trkpt lat="43.01408" lon="0.23105">
        <ele>1565.8</ele>
        <time>2023-11-19T13:46:45Z</time>
      </trkpt>
      <trkpt lat="43.01407" lon="0.23105">
        <ele>1565.8</ele>
        <time>2023-11-19T13:46:46Z</time>
      </trkpt>
      <trkpt lat="43.01407" lon="0.23105">
        <ele>1565.8</ele>
        <time>2023-11-19T13:46:47Z</time>
      </trkpt>
      <trkpt lat="43.01407" lon="0.23105">
        <ele>1565.8</ele>
        <time>2023-11-19T13:46:48Z</time>
      </trkpt>
      <trkpt lat="43.01407" lon="0.23105">
        <ele>1565.8</ele>
        <time>2023-11-19T13:46:49Z</time>
      </trkpt>
      <trkpt lat="43.01407" lon="0.23105">
        <ele>1565.8</ele>
        <time>2023-11-19T13:46:50Z</time>
      </trkpt>
      <trkpt lat="43.01407" lon="0.23105">
        <ele>1565.8</ele>
        <time>2023-11-19T13:46:51Z</time>
      </trkpt>
      <trkpt lat="43.01407" lon="0.23105">
        <ele>1565.8</ele>
        <time>2023-11-19T13:46:52Z</time>
      </trkpt>
      <trkpt lat="43.01407" lon="0.23106">
        <ele>1568.2</ele>
        <time>2023-11-19T13:46:53Z</time>
      </trkpt>
      <trkpt lat="43.01406" lon="0.23106">
        <ele>1568.2</ele>
        <time>2023-11-19T13:46:54Z</time>
      </trkpt>
      <trkpt lat="43.01406" lon="0.23106">
        <ele>1563.9</ele>
        <time>2023-11-19T13:46:55Z</time>
      </trkpt>
      <trkpt lat="43.01406" lon="0.23105">
        <ele>1563.9</ele>
        <time>2023-11-19T13:46:56Z</time>
      </trkpt>
      <trkpt lat="43.01406" lon="0.23105">
        <ele>1563.9</ele>
        <time>2023-11-19T13:46:57Z</time>
      </trkpt>
      <trkpt lat="43.01406" lon="0.23105">
        <ele>1563.9</ele>
        <time>2023-11-19T13:46:58Z</time>
      </trkpt>
      <trkpt lat="43.01406" lon="0.23105">
        <ele>1563.9</ele>
        <time>2023-11-19T13:46:59Z</time>
      </trkpt>
      <trkpt lat="43.01406" lon="0.23105">
        <ele>1563.9</ele>
        <time>2023-11-19T13:47:00Z</time>
      </trkpt>
      <trkpt lat="43.01406" lon="0.23105">
        <ele>1563.9</ele>
        <time>2023-11-19T13:47:01Z</time>
      </trkpt>
      <trkpt lat="43.01406" lon="0.23105">
        <ele>1563.9</ele>
        <time>2023-11-19T13:47:02Z</time>
      </trkpt>
      <trkpt lat="43.01406" lon="0.23105">
        <ele>1563.9</ele>
        <time>2023-11-19T13:47:03Z</time>
      </trkpt>
      <trkpt lat="43.01406" lon="0.23105">
        <ele>1563.9</ele>
        <time>2023-11-19T13:47:04Z</time>
      </trkpt>
      <trkpt lat="43.01406" lon="0.23105">
        <ele>1563.9</ele>
        <time>2023-11-19T13:47:05Z</time>
      </trkpt>
      <trkpt lat="43.01406" lon="0.23105">
        <ele>1563.9</ele>
        <time>2023-11-19T13:47:06Z</time>
      </trkpt>
      <trkpt lat="43.01406" lon="0.23105">
        <ele>1563.9</ele>
        <time>2023-11-19T13:47:07Z</time>
      </trkpt>
      <trkpt lat="43.01406" lon="0.23105">
        <ele>1563.9</ele>
        <time>2023-11-19T13:47:08Z</time>
      </trkpt>
      <trkpt lat="43.01406" lon="0.23105">
        <ele>1563.9</ele>
        <time>2023-11-19T13:47:09Z</time>
      </trkpt>
      <trkpt lat="43.01406" lon="0.23105">
        <ele>1563.9</ele>
        <time>2023-11-19T13:47:10Z</time>
      </trkpt>
      <trkpt lat="43.01406" lon="0.23105">
        <ele>1563.9</ele>
        <time>2023-11-19T13:47:11Z</time>
      </trkpt>
      <trkpt lat="43.01406" lon="0.23105">
        <ele>1563.9</ele>
        <time>2023-11-19T13:47:12Z</time>
      </trkpt>
      <trkpt lat="43.01406" lon="0.23105">
        <ele>1563.9</ele>
        <time>2023-11-19T13:47:13Z</time>
      </trkpt>
      <trkpt lat="43.01406" lon="0.23105">
        <ele>1563.9</ele>
        <time>2023-11-19T13:47:14Z</time>
      </trkpt>
      <trkpt lat="43.01406" lon="0.23105">
        <ele>1563.9</ele>
        <time>2023-11-19T13:47:15Z</time>
      </trkpt>
      <trkpt lat="43.01406" lon="0.23105">
        <ele>1563.9</ele>
        <time>2023-11-19T13:47:16Z</time>
      </trkpt>
      <trkpt lat="43.01406" lon="0.23105">
        <ele>1563.9</ele>
        <time>2023-11-19T13:47:17Z</time>
      </trkpt>
      <trkpt lat="43.01406" lon="0.23105">
        <ele>1563.9</ele>
        <time>2023-11-19T13:47:19Z</time>
      </trkpt>
      <trkpt lat="43.01406" lon="0.23105">
        <ele>1563.9</ele>
        <time>2023-11-19T13:47:20Z</time>
      </trkpt>
      <trkpt lat="43.01406" lon="0.23105">
        <ele>1563.9</ele>
        <time>2023-11-19T13:47:21Z</time>
      </trkpt>
      <trkpt lat="43.01406" lon="0.23105">
        <ele>1563.9</ele>
        <time>2023-11-19T13:47:22Z</time>
      </trkpt>
      <trkpt lat="43.01406" lon="0.23105">
        <ele>1563.9</ele>
        <time>2023-11-19T13:47:23Z</time>
      </trkpt>
      <trkpt lat="43.01406" lon="0.23105">
        <ele>1563.9</ele>
        <time>2023-11-19T13:47:24Z</time>
      </trkpt>
      <trkpt lat="43.01406" lon="0.23105">
        <ele>1563.9</ele>
        <time>2023-11-19T13:47:25Z</time>
      </trkpt>
      <trkpt lat="43.01406" lon="0.23105">
        <ele>1563.9</ele>
        <time>2023-11-19T13:47:26Z</time>
      </trkpt>
      <trkpt lat="43.01406" lon="0.23105">
        <ele>1563.9</ele>
        <time>2023-11-19T13:47:27Z</time>
      </trkpt>
      <trkpt lat="43.01406" lon="0.23105">
        <ele>1563.9</ele>
        <time>2023-11-19T13:47:28Z</time>
      </trkpt>
      <trkpt lat="43.01406" lon="0.23105">
        <ele>1563.9</ele>
        <time>2023-11-19T13:47:29Z</time>
      </trkpt>
      <trkpt lat="43.01406" lon="0.23105">
        <ele>1563.9</ele>
        <time>2023-11-19T13:47:30Z</time>
      </trkpt>
      <trkpt lat="43.01406" lon="0.23105">
        <ele>1563.9</ele>
        <time>2023-11-19T13:47:31Z</time>
      </trkpt>
      <trkpt lat="43.01406" lon="0.23105">
        <ele>1563.9</ele>
        <time>2023-11-19T13:47:32Z</time>
      </trkpt>
      <trkpt lat="43.01406" lon="0.23105">
        <ele>1563.9</ele>
        <time>2023-11-19T13:47:33Z</time>
      </trkpt>
      <trkpt lat="43.01406" lon="0.23105">
        <ele>1564</ele>
        <time>2023-11-19T13:47:34Z</time>
      </trkpt>
      <trkpt lat="43.01406" lon="0.23105">
        <ele>1564</ele>
        <time>2023-11-19T13:47:35Z</time>
      </trkpt>
      <trkpt lat="43.01406" lon="0.23105">
        <ele>1564</ele>
        <time>2023-11-19T13:47:36Z</time>
      </trkpt>
      <trkpt lat="43.01406" lon="0.23105">
        <ele>1564</ele>
        <time>2023-11-19T13:47:37Z</time>
      </trkpt>
      <trkpt lat="43.01406" lon="0.23105">
        <ele>1564</ele>
        <time>2023-11-19T13:47:38Z</time>
      </trkpt>
      <trkpt lat="43.01406" lon="0.23105">
        <ele>1564</ele>
        <time>2023-11-19T13:47:39Z</time>
      </trkpt>
      <trkpt lat="43.01406" lon="0.23105">
        <ele>1564</ele>
        <time>2023-11-19T13:47:40Z</time>
      </trkpt>
      <trkpt lat="43.01406" lon="0.23105">
        <ele>1564</ele>
        <time>2023-11-19T13:47:41Z</time>
      </trkpt>
      <trkpt lat="43.01406" lon="0.23105">
        <ele>1564</ele>
        <time>2023-11-19T13:47:42Z</time>
      </trkpt>
      <trkpt lat="43.01406" lon="0.23105">
        <ele>1564</ele>
        <time>2023-11-19T13:47:43Z</time>
      </trkpt>
      <trkpt lat="43.01406" lon="0.23105">
        <ele>1564</ele>
        <time>2023-11-19T13:47:44Z</time>
      </trkpt>
      <trkpt lat="43.01406" lon="0.23105">
        <ele>1564</ele>
        <time>2023-11-19T13:47:45Z</time>
      </trkpt>
      <trkpt lat="43.01406" lon="0.23105">
        <ele>1564</ele>
        <time>2023-11-19T13:47:46Z</time>
      </trkpt>
      <trkpt lat="43.01406" lon="0.23105">
        <ele>1564</ele>
        <time>2023-11-19T13:47:47Z</time>
      </trkpt>
      <trkpt lat="43.01406" lon="0.23105">
        <ele>1564</ele>
        <time>2023-11-19T13:47:48Z</time>
      </trkpt>
      <trkpt lat="43.01406" lon="0.23105">
        <ele>1564</ele>
        <time>2023-11-19T13:47:49Z</time>
      </trkpt>
      <trkpt lat="43.01406" lon="0.23105">
        <ele>1564</ele>
        <time>2023-11-19T13:47:50Z</time>
      </trkpt>
      <trkpt lat="43.01406" lon="0.23105">
        <ele>1564</ele>
        <time>2023-11-19T13:47:51Z</time>
      </trkpt>
      <trkpt lat="43.01406" lon="0.23105">
        <ele>1564</ele>
        <time>2023-11-19T13:47:52Z</time>
      </trkpt>
      <trkpt lat="43.01406" lon="0.23105">
        <ele>1564</ele>
        <time>2023-11-19T13:47:53Z</time>
      </trkpt>
      <trkpt lat="43.01406" lon="0.23105">
        <ele>1564</ele>
        <time>2023-11-19T13:47:54Z</time>
      </trkpt>
      <trkpt lat="43.01406" lon="0.23105">
        <ele>1564</ele>
        <time>2023-11-19T13:47:55Z</time>
      </trkpt>
      <trkpt lat="43.01404" lon="0.23106">
        <ele>1564</ele>
        <time>2023-11-19T13:47:56Z</time>
      </trkpt>
      <trkpt lat="43.01404" lon="0.23105">
        <ele>1564</ele>
        <time>2023-11-19T13:47:57Z</time>
      </trkpt>
      <trkpt lat="43.01404" lon="0.23106">
        <ele>1564</ele>
        <time>2023-11-19T13:47:58Z</time>
      </trkpt>
      <trkpt lat="43.01404" lon="0.23106">
        <ele>1564</ele>
        <time>2023-11-19T13:47:59Z</time>
      </trkpt>
      <trkpt lat="43.01404" lon="0.23106">
        <ele>1564</ele>
        <time>2023-11-19T13:48:00Z</time>
      </trkpt>
      <trkpt lat="43.01404" lon="0.23106">
        <ele>1564</ele>
        <time>2023-11-19T13:48:01Z</time>
      </trkpt>
      <trkpt lat="43.01404" lon="0.23106">
        <ele>1564</ele>
        <time>2023-11-19T13:48:02Z</time>
      </trkpt>
      <trkpt lat="43.01404" lon="0.23106">
        <ele>1564</ele>
        <time>2023-11-19T13:48:03Z</time>
      </trkpt>
      <trkpt lat="43.01405" lon="0.23105">
        <ele>1564</ele>
        <time>2023-11-19T13:48:04Z</time>
      </trkpt>
      <trkpt lat="43.01405" lon="0.23105">
        <ele>1564</ele>
        <time>2023-11-19T13:48:05Z</time>
      </trkpt>
      <trkpt lat="43.01405" lon="0.23105">
        <ele>1564</ele>
        <time>2023-11-19T13:48:06Z</time>
      </trkpt>
      <trkpt lat="43.01405" lon="0.23105">
        <ele>1564</ele>
        <time>2023-11-19T13:48:07Z</time>
      </trkpt>
      <trkpt lat="43.01405" lon="0.23105">
        <ele>1564</ele>
        <time>2023-11-19T13:48:08Z</time>
      </trkpt>
      <trkpt lat="43.01405" lon="0.23105">
        <ele>1564</ele>
        <time>2023-11-19T13:48:09Z</time>
      </trkpt>
      <trkpt lat="43.01405" lon="0.23105">
        <ele>1564</ele>
        <time>2023-11-19T13:48:10Z</time>
      </trkpt>
      <trkpt lat="43.01405" lon="0.23105">
        <ele>1564</ele>
        <time>2023-11-19T13:48:11Z</time>
      </trkpt>
      <trkpt lat="43.01404" lon="0.23106">
        <ele>1566.4</ele>
        <time>2023-11-19T13:48:12Z</time>
      </trkpt>
      <trkpt lat="43.01405" lon="0.23106">
        <ele>1566.4</ele>
        <time>2023-11-19T13:48:13Z</time>
      </trkpt>
      <trkpt lat="43.01405" lon="0.23107">
        <ele>1566.4</ele>
        <time>2023-11-19T13:48:14Z</time>
      </trkpt>
      <trkpt lat="43.01405" lon="0.23107">
        <ele>1566.4</ele>
        <time>2023-11-19T13:48:15Z</time>
      </trkpt>
      <trkpt lat="43.01405" lon="0.23107">
        <ele>1566.4</ele>
        <time>2023-11-19T13:48:16Z</time>
      </trkpt>
      <trkpt lat="43.01405" lon="0.23108">
        <ele>1566.4</ele>
        <time>2023-11-19T13:48:17Z</time>
      </trkpt>
      <trkpt lat="43.01405" lon="0.23107">
        <ele>1566.4</ele>
        <time>2023-11-19T13:48:18Z</time>
      </trkpt>
      <trkpt lat="43.01405" lon="0.23107">
        <ele>1566.4</ele>
        <time>2023-11-19T13:48:19Z</time>
      </trkpt>
      <trkpt lat="43.01405" lon="0.23107">
        <ele>1566.4</ele>
        <time>2023-11-19T13:48:20Z</time>
      </trkpt>
      <trkpt lat="43.01406" lon="0.23107">
        <ele>1566.4</ele>
        <time>2023-11-19T13:48:21Z</time>
      </trkpt>
      <trkpt lat="43.01405" lon="0.23107">
        <ele>1566.4</ele>
        <time>2023-11-19T13:48:22Z</time>
      </trkpt>
      <trkpt lat="43.01406" lon="0.23107">
        <ele>1566.4</ele>
        <time>2023-11-19T13:48:23Z</time>
      </trkpt>
      <trkpt lat="43.01406" lon="0.23107">
        <ele>1566.4</ele>
        <time>2023-11-19T13:48:24Z</time>
      </trkpt>
      <trkpt lat="43.01405" lon="0.23107">
        <ele>1566.4</ele>
        <time>2023-11-19T13:48:25Z</time>
      </trkpt>
      <trkpt lat="43.01405" lon="0.23107">
        <ele>1566.4</ele>
        <time>2023-11-19T13:48:26Z</time>
      </trkpt>
      <trkpt lat="43.01405" lon="0.23108">
        <ele>1566.4</ele>
        <time>2023-11-19T13:48:27Z</time>
      </trkpt>
      <trkpt lat="43.01405" lon="0.23109">
        <ele>1566.4</ele>
        <time>2023-11-19T13:48:28Z</time>
      </trkpt>
      <trkpt lat="43.01406" lon="0.23111">
        <ele>1570.5</ele>
        <time>2023-11-19T13:48:29Z</time>
      </trkpt>
      <trkpt lat="43.01407" lon="0.23112">
        <ele>1570.5</ele>
        <time>2023-11-19T13:48:30Z</time>
      </trkpt>
      <trkpt lat="43.01408" lon="0.23114">
        <ele>1570.5</ele>
        <time>2023-11-19T13:48:31Z</time>
      </trkpt>
      <trkpt lat="43.01407" lon="0.23112">
        <ele>1570.5</ele>
        <time>2023-11-19T13:48:32Z</time>
      </trkpt>
      <trkpt lat="43.01407" lon="0.23114">
        <ele>1570.5</ele>
        <time>2023-11-19T13:48:33Z</time>
      </trkpt>
      <trkpt lat="43.01408" lon="0.23114">
        <ele>1570.5</ele>
        <time>2023-11-19T13:48:34Z</time>
      </trkpt>
      <trkpt lat="43.01409" lon="0.23116">
        <ele>1572.5</ele>
        <time>2023-11-19T13:48:35Z</time>
      </trkpt>
      <trkpt lat="43.01409" lon="0.23116">
        <ele>1572.5</ele>
        <time>2023-11-19T13:48:36Z</time>
      </trkpt>
      <trkpt lat="43.0141" lon="0.23116">
        <ele>1574.2</ele>
        <time>2023-11-19T13:48:37Z</time>
      </trkpt>
      <trkpt lat="43.0141" lon="0.23118">
        <ele>1574.2</ele>
        <time>2023-11-19T13:48:38Z</time>
      </trkpt>
      <trkpt lat="43.0141" lon="0.23118">
        <ele>1574.2</ele>
        <time>2023-11-19T13:48:39Z</time>
      </trkpt>
      <trkpt lat="43.01411" lon="0.23118">
        <ele>1574.2</ele>
        <time>2023-11-19T13:48:40Z</time>
      </trkpt>
      <trkpt lat="43.01412" lon="0.23119">
        <ele>1576</ele>
        <time>2023-11-19T13:48:41Z</time>
      </trkpt>
      <trkpt lat="43.01412" lon="0.23119">
        <ele>1576</ele>
        <time>2023-11-19T13:48:42Z</time>
      </trkpt>
      <trkpt lat="43.01412" lon="0.2312">
        <ele>1576</ele>
        <time>2023-11-19T13:48:43Z</time>
      </trkpt>
      <trkpt lat="43.01412" lon="0.23121">
        <ele>1576</ele>
        <time>2023-11-19T13:48:44Z</time>
      </trkpt>
      <trkpt lat="43.01412" lon="0.23122">
        <ele>1576</ele>
        <time>2023-11-19T13:48:45Z</time>
      </trkpt>
      <trkpt lat="43.01412" lon="0.23123">
        <ele>1577.6</ele>
        <time>2023-11-19T13:48:46Z</time>
      </trkpt>
      <trkpt lat="43.01413" lon="0.23124">
        <ele>1579.3</ele>
        <time>2023-11-19T13:48:47Z</time>
      </trkpt>
      <trkpt lat="43.01413" lon="0.23124">
        <ele>1579.3</ele>
        <time>2023-11-19T13:48:48Z</time>
      </trkpt>
      <trkpt lat="43.01414" lon="0.23125">
        <ele>1579.3</ele>
        <time>2023-11-19T13:48:49Z</time>
      </trkpt>
      <trkpt lat="43.01415" lon="0.23125">
        <ele>1579.3</ele>
        <time>2023-11-19T13:48:50Z</time>
      </trkpt>
      <trkpt lat="43.01415" lon="0.23126">
        <ele>1579.3</ele>
        <time>2023-11-19T13:48:51Z</time>
      </trkpt>
      <trkpt lat="43.01416" lon="0.23127">
        <ele>1580.6</ele>
        <time>2023-11-19T13:48:52Z</time>
      </trkpt>
      <trkpt lat="43.01416" lon="0.23128">
        <ele>1582.3</ele>
        <time>2023-11-19T13:48:53Z</time>
      </trkpt>
      <trkpt lat="43.01416" lon="0.23129">
        <ele>1582.3</ele>
        <time>2023-11-19T13:48:54Z</time>
      </trkpt>
      <trkpt lat="43.01416" lon="0.2313">
        <ele>1582.3</ele>
        <time>2023-11-19T13:48:55Z</time>
      </trkpt>
      <trkpt lat="43.01417" lon="0.23131">
        <ele>1582.3</ele>
        <time>2023-11-19T13:48:56Z</time>
      </trkpt>
      <trkpt lat="43.01417" lon="0.23133">
        <ele>1583.4</ele>
        <time>2023-11-19T13:48:57Z</time>
      </trkpt>
      <trkpt lat="43.01418" lon="0.23133">
        <ele>1583.4</ele>
        <time>2023-11-19T13:48:58Z</time>
      </trkpt>
      <trkpt lat="43.01418" lon="0.23134">
        <ele>1583.4</ele>
        <time>2023-11-19T13:48:59Z</time>
      </trkpt>
      <trkpt lat="43.01419" lon="0.23135">
        <ele>1583.4</ele>
        <time>2023-11-19T13:49:00Z</time>
      </trkpt>
      <trkpt lat="43.01419" lon="0.23136">
        <ele>1585.8</ele>
        <time>2023-11-19T13:49:01Z</time>
      </trkpt>
      <trkpt lat="43.01419" lon="0.23136">
        <ele>1585.8</ele>
        <time>2023-11-19T13:49:02Z</time>
      </trkpt>
      <trkpt lat="43.0142" lon="0.23137">
        <ele>1585.8</ele>
        <time>2023-11-19T13:49:03Z</time>
      </trkpt>
      <trkpt lat="43.0142" lon="0.23137">
        <ele>1585.8</ele>
        <time>2023-11-19T13:49:04Z</time>
      </trkpt>
      <trkpt lat="43.0142" lon="0.23137">
        <ele>1585.8</ele>
        <time>2023-11-19T13:49:05Z</time>
      </trkpt>
      <trkpt lat="43.0142" lon="0.23139">
        <ele>1585.8</ele>
        <time>2023-11-19T13:49:06Z</time>
      </trkpt>
      <trkpt lat="43.01422" lon="0.23139">
        <ele>1585.4</ele>
        <time>2023-11-19T13:49:07Z</time>
      </trkpt>
      <trkpt lat="43.01422" lon="0.23139">
        <ele>1585.4</ele>
        <time>2023-11-19T13:49:08Z</time>
      </trkpt>
      <trkpt lat="43.01423" lon="0.23139">
        <ele>1585.2</ele>
        <time>2023-11-19T13:49:09Z</time>
      </trkpt>
      <trkpt lat="43.01425" lon="0.23139">
        <ele>1584.9</ele>
        <time>2023-11-19T13:49:10Z</time>
      </trkpt>
      <trkpt lat="43.01425" lon="0.23138">
        <ele>1584.8</ele>
        <time>2023-11-19T13:49:11Z</time>
      </trkpt>
      <trkpt lat="43.01427" lon="0.23138">
        <ele>1584.3</ele>
        <time>2023-11-19T13:49:12Z</time>
      </trkpt>
      <trkpt lat="43.01428" lon="0.23138">
        <ele>1584.2</ele>
        <time>2023-11-19T13:49:13Z</time>
      </trkpt>
      <trkpt lat="43.01429" lon="0.23138">
        <ele>1584</ele>
        <time>2023-11-19T13:49:14Z</time>
      </trkpt>
      <trkpt lat="43.0143" lon="0.23136">
        <ele>1583.7</ele>
        <time>2023-11-19T13:49:15Z</time>
      </trkpt>
      <trkpt lat="43.0143" lon="0.23137">
        <ele>1583.6</ele>
        <time>2023-11-19T13:49:16Z</time>
      </trkpt>
      <trkpt lat="43.01431" lon="0.23136">
        <ele>1583.3</ele>
        <time>2023-11-19T13:49:17Z</time>
      </trkpt>
      <trkpt lat="43.01432" lon="0.23135">
        <ele>1583.2</ele>
        <time>2023-11-19T13:49:18Z</time>
      </trkpt>
      <trkpt lat="43.01433" lon="0.23135">
        <ele>1582.9</ele>
        <time>2023-11-19T13:49:19Z</time>
      </trkpt>
      <trkpt lat="43.01435" lon="0.23135">
        <ele>1582.6</ele>
        <time>2023-11-19T13:49:20Z</time>
      </trkpt>
      <trkpt lat="43.01437" lon="0.23134">
        <ele>1582.2</ele>
        <time>2023-11-19T13:49:21Z</time>
      </trkpt>
      <trkpt lat="43.01437" lon="0.23133">
        <ele>1582</ele>
        <time>2023-11-19T13:49:22Z</time>
      </trkpt>
      <trkpt lat="43.01438" lon="0.23133">
        <ele>1581.8</ele>
        <time>2023-11-19T13:49:23Z</time>
      </trkpt>
      <trkpt lat="43.0144" lon="0.23132">
        <ele>1581.4</ele>
        <time>2023-11-19T13:49:25Z</time>
      </trkpt>
      <trkpt lat="43.01441" lon="0.23132">
        <ele>1581.2</ele>
        <time>2023-11-19T13:49:26Z</time>
      </trkpt>
      <trkpt lat="43.01442" lon="0.23132">
        <ele>1581</ele>
        <time>2023-11-19T13:49:27Z</time>
      </trkpt>
      <trkpt lat="43.01445" lon="0.23132">
        <ele>1580.5</ele>
        <time>2023-11-19T13:49:28Z</time>
      </trkpt>
      <trkpt lat="43.01446" lon="0.23132">
        <ele>1580.3</ele>
        <time>2023-11-19T13:49:29Z</time>
      </trkpt>
      <trkpt lat="43.01448" lon="0.23131">
        <ele>1579.8</ele>
        <time>2023-11-19T13:49:30Z</time>
      </trkpt>
      <trkpt lat="43.01449" lon="0.23131">
        <ele>1579.6</ele>
        <time>2023-11-19T13:49:31Z</time>
      </trkpt>
      <trkpt lat="43.0145" lon="0.2313">
        <ele>1579.5</ele>
        <time>2023-11-19T13:49:32Z</time>
      </trkpt>
      <trkpt lat="43.01451" lon="0.2313">
        <ele>1579.2</ele>
        <time>2023-11-19T13:49:33Z</time>
      </trkpt>
      <trkpt lat="43.01452" lon="0.23129">
        <ele>1579</ele>
        <time>2023-11-19T13:49:34Z</time>
      </trkpt>
      <trkpt lat="43.01453" lon="0.23129">
        <ele>1578.8</ele>
        <time>2023-11-19T13:49:35Z</time>
      </trkpt>
      <trkpt lat="43.01454" lon="0.23128">
        <ele>1578.5</ele>
        <time>2023-11-19T13:49:36Z</time>
      </trkpt>
      <trkpt lat="43.01455" lon="0.23129">
        <ele>1578.4</ele>
        <time>2023-11-19T13:49:37Z</time>
      </trkpt>
      <trkpt lat="43.01456" lon="0.23128">
        <ele>1578.2</ele>
        <time>2023-11-19T13:49:38Z</time>
      </trkpt>
      <trkpt lat="43.01457" lon="0.23127">
        <ele>1577.9</ele>
        <time>2023-11-19T13:49:39Z</time>
      </trkpt>
      <trkpt lat="43.01459" lon="0.23125">
        <ele>1577.5</ele>
        <time>2023-11-19T13:49:40Z</time>
      </trkpt>
      <trkpt lat="43.01461" lon="0.23123">
        <ele>1577</ele>
        <time>2023-11-19T13:49:41Z</time>
      </trkpt>
      <trkpt lat="43.01462" lon="0.23122">
        <ele>1576.9</ele>
        <time>2023-11-19T13:49:42Z</time>
      </trkpt>
      <trkpt lat="43.01464" lon="0.23122">
        <ele>1576.5</ele>
        <time>2023-11-19T13:49:43Z</time>
      </trkpt>
      <trkpt lat="43.01465" lon="0.23122">
        <ele>1576.3</ele>
        <time>2023-11-19T13:49:44Z</time>
      </trkpt>
      <trkpt lat="43.01466" lon="0.23122">
        <ele>1576.1</ele>
        <time>2023-11-19T13:49:45Z</time>
      </trkpt>
      <trkpt lat="43.01467" lon="0.23121">
        <ele>1575.9</ele>
        <time>2023-11-19T13:49:46Z</time>
      </trkpt>
      <trkpt lat="43.01469" lon="0.23118">
        <ele>1575.4</ele>
        <time>2023-11-19T13:49:47Z</time>
      </trkpt>
      <trkpt lat="43.01471" lon="0.23118">
        <ele>1575.1</ele>
        <time>2023-11-19T13:49:48Z</time>
      </trkpt>
      <trkpt lat="43.01471" lon="0.23117">
        <ele>1575.1</ele>
        <time>2023-11-19T13:49:49Z</time>
      </trkpt>
      <trkpt lat="43.01472" lon="0.23115">
        <ele>1574.8</ele>
        <time>2023-11-19T13:49:50Z</time>
      </trkpt>
      <trkpt lat="43.01473" lon="0.23114">
        <ele>1574.6</ele>
        <time>2023-11-19T13:49:51Z</time>
      </trkpt>
      <trkpt lat="43.01474" lon="0.23113">
        <ele>1574.3</ele>
        <time>2023-11-19T13:49:52Z</time>
      </trkpt>
      <trkpt lat="43.01476" lon="0.23111">
        <ele>1574.1</ele>
        <time>2023-11-19T13:49:53Z</time>
      </trkpt>
      <trkpt lat="43.01478" lon="0.2311">
        <ele>1573.7</ele>
        <time>2023-11-19T13:49:54Z</time>
      </trkpt>
      <trkpt lat="43.01479" lon="0.2311">
        <ele>1573.6</ele>
        <time>2023-11-19T13:49:55Z</time>
      </trkpt>
      <trkpt lat="43.0148" lon="0.23109">
        <ele>1573.5</ele>
        <time>2023-11-19T13:49:56Z</time>
      </trkpt>
      <trkpt lat="43.01481" lon="0.23108">
        <ele>1573.2</ele>
        <time>2023-11-19T13:49:57Z</time>
      </trkpt>
      <trkpt lat="43.01483" lon="0.23107">
        <ele>1573</ele>
        <time>2023-11-19T13:49:58Z</time>
      </trkpt>
      <trkpt lat="43.01484" lon="0.23106">
        <ele>1572.8</ele>
        <time>2023-11-19T13:49:59Z</time>
      </trkpt>
      <trkpt lat="43.01485" lon="0.23105">
        <ele>1572.6</ele>
        <time>2023-11-19T13:50:00Z</time>
      </trkpt>
      <trkpt lat="43.01486" lon="0.23104">
        <ele>1572.5</ele>
        <time>2023-11-19T13:50:01Z</time>
      </trkpt>
      <trkpt lat="43.01487" lon="0.23104">
        <ele>1572.4</ele>
        <time>2023-11-19T13:50:02Z</time>
      </trkpt>
      <trkpt lat="43.01488" lon="0.23103">
        <ele>1572.3</ele>
        <time>2023-11-19T13:50:03Z</time>
      </trkpt>
      <trkpt lat="43.01489" lon="0.23102">
        <ele>1572.1</ele>
        <time>2023-11-19T13:50:04Z</time>
      </trkpt>
      <trkpt lat="43.0149" lon="0.23101">
        <ele>1572</ele>
        <time>2023-11-19T13:50:05Z</time>
      </trkpt>
      <trkpt lat="43.01491" lon="0.231">
        <ele>1571.8</ele>
        <time>2023-11-19T13:50:06Z</time>
      </trkpt>
      <trkpt lat="43.01492" lon="0.23098">
        <ele>1571.7</ele>
        <time>2023-11-19T13:50:07Z</time>
      </trkpt>
      <trkpt lat="43.01494" lon="0.23098">
        <ele>1571.5</ele>
        <time>2023-11-19T13:50:08Z</time>
      </trkpt>
      <trkpt lat="43.01495" lon="0.23095">
        <ele>1571.3</ele>
        <time>2023-11-19T13:50:09Z</time>
      </trkpt>
      <trkpt lat="43.01497" lon="0.23095">
        <ele>1571.1</ele>
        <time>2023-11-19T13:50:10Z</time>
      </trkpt>
      <trkpt lat="43.01498" lon="0.23096">
        <ele>1571</ele>
        <time>2023-11-19T13:50:11Z</time>
      </trkpt>
      <trkpt lat="43.01499" lon="0.23096">
        <ele>1570.8</ele>
        <time>2023-11-19T13:50:12Z</time>
      </trkpt>
      <trkpt lat="43.015" lon="0.23095">
        <ele>1570.7</ele>
        <time>2023-11-19T13:50:13Z</time>
      </trkpt>
      <trkpt lat="43.01501" lon="0.23094">
        <ele>1570.6</ele>
        <time>2023-11-19T13:50:14Z</time>
      </trkpt>
      <trkpt lat="43.01501" lon="0.23093">
        <ele>1570.4</ele>
        <time>2023-11-19T13:50:15Z</time>
      </trkpt>
      <trkpt lat="43.01504" lon="0.23091">
        <ele>1570</ele>
        <time>2023-11-19T13:50:16Z</time>
      </trkpt>
      <trkpt lat="43.01505" lon="0.23091">
        <ele>1569.8</ele>
        <time>2023-11-19T13:50:17Z</time>
      </trkpt>
      <trkpt lat="43.01506" lon="0.23089">
        <ele>1569.6</ele>
        <time>2023-11-19T13:50:18Z</time>
      </trkpt>
      <trkpt lat="43.01507" lon="0.23088">
        <ele>1569.3</ele>
        <time>2023-11-19T13:50:19Z</time>
      </trkpt>
      <trkpt lat="43.01508" lon="0.23086">
        <ele>1569.1</ele>
        <time>2023-11-19T13:50:20Z</time>
      </trkpt>
      <trkpt lat="43.01508" lon="0.23085">
        <ele>1568.9</ele>
        <time>2023-11-19T13:50:21Z</time>
      </trkpt>
      <trkpt lat="43.01508" lon="0.23083">
        <ele>1568.7</ele>
        <time>2023-11-19T13:50:22Z</time>
      </trkpt>
      <trkpt lat="43.01508" lon="0.23081">
        <ele>1568.4</ele>
        <time>2023-11-19T13:50:23Z</time>
      </trkpt>
      <trkpt lat="43.01508" lon="0.2308">
        <ele>1568.2</ele>
        <time>2023-11-19T13:50:24Z</time>
      </trkpt>
      <trkpt lat="43.01509" lon="0.23079">
        <ele>1568</ele>
        <time>2023-11-19T13:50:25Z</time>
      </trkpt>
      <trkpt lat="43.01509" lon="0.23076">
        <ele>1567.6</ele>
        <time>2023-11-19T13:50:26Z</time>
      </trkpt>
      <trkpt lat="43.01509" lon="0.23075">
        <ele>1567.4</ele>
        <time>2023-11-19T13:50:27Z</time>
      </trkpt>
      <trkpt lat="43.01509" lon="0.23074">
        <ele>1567.2</ele>
        <time>2023-11-19T13:50:28Z</time>
      </trkpt>
      <trkpt lat="43.01511" lon="0.23073">
        <ele>1566.7</ele>
        <time>2023-11-19T13:50:29Z</time>
      </trkpt>
      <trkpt lat="43.01513" lon="0.23072">
        <ele>1566.4</ele>
        <time>2023-11-19T13:50:30Z</time>
      </trkpt>
      <trkpt lat="43.01513" lon="0.2307">
        <ele>1566.1</ele>
        <time>2023-11-19T13:50:31Z</time>
      </trkpt>
      <trkpt lat="43.01513" lon="0.23069">
        <ele>1565.9</ele>
        <time>2023-11-19T13:50:32Z</time>
      </trkpt>
      <trkpt lat="43.01514" lon="0.23067">
        <ele>1565.6</ele>
        <time>2023-11-19T13:50:33Z</time>
      </trkpt>
      <trkpt lat="43.01514" lon="0.23066">
        <ele>1565.4</ele>
        <time>2023-11-19T13:50:34Z</time>
      </trkpt>
      <trkpt lat="43.01514" lon="0.23064">
        <ele>1565</ele>
        <time>2023-11-19T13:50:35Z</time>
      </trkpt>
      <trkpt lat="43.01515" lon="0.23063">
        <ele>1564.8</ele>
        <time>2023-11-19T13:50:36Z</time>
      </trkpt>
      <trkpt lat="43.01515" lon="0.23061">
        <ele>1564.6</ele>
        <time>2023-11-19T13:50:37Z</time>
      </trkpt>
      <trkpt lat="43.01515" lon="0.2306">
        <ele>1564.3</ele>
        <time>2023-11-19T13:50:38Z</time>
      </trkpt>
      <trkpt lat="43.01515" lon="0.23058">
        <ele>1564</ele>
        <time>2023-11-19T13:50:39Z</time>
      </trkpt>
      <trkpt lat="43.01515" lon="0.23056">
        <ele>1563.8</ele>
        <time>2023-11-19T13:50:40Z</time>
      </trkpt>
      <trkpt lat="43.01516" lon="0.23055">
        <ele>1563.4</ele>
        <time>2023-11-19T13:50:41Z</time>
      </trkpt>
      <trkpt lat="43.01517" lon="0.23054">
        <ele>1563.2</ele>
        <time>2023-11-19T13:50:42Z</time>
      </trkpt>
      <trkpt lat="43.01518" lon="0.23053">
        <ele>1563</ele>
        <time>2023-11-19T13:50:43Z</time>
      </trkpt>
      <trkpt lat="43.01519" lon="0.23052">
        <ele>1562.7</ele>
        <time>2023-11-19T13:50:44Z</time>
      </trkpt>
      <trkpt lat="43.01519" lon="0.2305">
        <ele>1562.4</ele>
        <time>2023-11-19T13:50:45Z</time>
      </trkpt>
      <trkpt lat="43.01518" lon="0.23049">
        <ele>1562.2</ele>
        <time>2023-11-19T13:50:46Z</time>
      </trkpt>
      <trkpt lat="43.01518" lon="0.23047">
        <ele>1561.9</ele>
        <time>2023-11-19T13:50:47Z</time>
      </trkpt>
      <trkpt lat="43.01519" lon="0.23046">
        <ele>1561.6</ele>
        <time>2023-11-19T13:50:48Z</time>
      </trkpt>
      <trkpt lat="43.0152" lon="0.23045">
        <ele>1561.3</ele>
        <time>2023-11-19T13:50:49Z</time>
      </trkpt>
      <trkpt lat="43.01521" lon="0.23044">
        <ele>1561.1</ele>
        <time>2023-11-19T13:50:50Z</time>
      </trkpt>
      <trkpt lat="43.01521" lon="0.23042">
        <ele>1560.8</ele>
        <time>2023-11-19T13:50:51Z</time>
      </trkpt>
      <trkpt lat="43.0152" lon="0.23041">
        <ele>1560.5</ele>
        <time>2023-11-19T13:50:52Z</time>
      </trkpt>
      <trkpt lat="43.01519" lon="0.2304">
        <ele>1560.4</ele>
        <time>2023-11-19T13:50:53Z</time>
      </trkpt>
      <trkpt lat="43.01519" lon="0.2304">
        <ele>1560.3</ele>
        <time>2023-11-19T13:50:54Z</time>
      </trkpt>
      <trkpt lat="43.0152" lon="0.23042">
        <ele>1560</ele>
        <time>2023-11-19T13:50:55Z</time>
      </trkpt>
      <trkpt lat="43.01521" lon="0.23042">
        <ele>1559.9</ele>
        <time>2023-11-19T13:50:56Z</time>
      </trkpt>
      <trkpt lat="43.01521" lon="0.23041">
        <ele>1559.7</ele>
        <time>2023-11-19T13:50:57Z</time>
      </trkpt>
      <trkpt lat="43.01522" lon="0.23039">
        <ele>1559.3</ele>
        <time>2023-11-19T13:50:58Z</time>
      </trkpt>
      <trkpt lat="43.01522" lon="0.23037">
        <ele>1559</ele>
        <time>2023-11-19T13:50:59Z</time>
      </trkpt>
      <trkpt lat="43.01522" lon="0.23036">
        <ele>1558.8</ele>
        <time>2023-11-19T13:51:00Z</time>
      </trkpt>
      <trkpt lat="43.01523" lon="0.23035">
        <ele>1558.7</ele>
        <time>2023-11-19T13:51:01Z</time>
      </trkpt>
      <trkpt lat="43.01523" lon="0.23034">
        <ele>1558.5</ele>
        <time>2023-11-19T13:51:02Z</time>
      </trkpt>
      <trkpt lat="43.01523" lon="0.2303">
        <ele>1558</ele>
        <time>2023-11-19T13:51:03Z</time>
      </trkpt>
      <trkpt lat="43.01523" lon="0.23029">
        <ele>1557.9</ele>
        <time>2023-11-19T13:51:04Z</time>
      </trkpt>
      <trkpt lat="43.01523" lon="0.23028">
        <ele>1557.7</ele>
        <time>2023-11-19T13:51:05Z</time>
      </trkpt>
      <trkpt lat="43.01523" lon="0.23026">
        <ele>1557.4</ele>
        <time>2023-11-19T13:51:06Z</time>
      </trkpt>
      <trkpt lat="43.01523" lon="0.23025">
        <ele>1557.1</ele>
        <time>2023-11-19T13:51:07Z</time>
      </trkpt>
      <trkpt lat="43.01523" lon="0.23023">
        <ele>1556.9</ele>
        <time>2023-11-19T13:51:08Z</time>
      </trkpt>
      <trkpt lat="43.01524" lon="0.23021">
        <ele>1556.6</ele>
        <time>2023-11-19T13:51:09Z</time>
      </trkpt>
      <trkpt lat="43.01524" lon="0.23021">
        <ele>1556.5</ele>
        <time>2023-11-19T13:51:10Z</time>
      </trkpt>
      <trkpt lat="43.01523" lon="0.2302">
        <ele>1556.4</ele>
        <time>2023-11-19T13:51:11Z</time>
      </trkpt>
      <trkpt lat="43.01524" lon="0.23019">
        <ele>1556.2</ele>
        <time>2023-11-19T13:51:12Z</time>
      </trkpt>
      <trkpt lat="43.01524" lon="0.23019">
        <ele>1556.1</ele>
        <time>2023-11-19T13:51:13Z</time>
      </trkpt>
      <trkpt lat="43.01524" lon="0.23017">
        <ele>1555.8</ele>
        <time>2023-11-19T13:51:14Z</time>
      </trkpt>
      <trkpt lat="43.01524" lon="0.23016">
        <ele>1555.6</ele>
        <time>2023-11-19T13:51:15Z</time>
      </trkpt>
      <trkpt lat="43.01525" lon="0.23015">
        <ele>1555.4</ele>
        <time>2023-11-19T13:51:16Z</time>
      </trkpt>
      <trkpt lat="43.01525" lon="0.23014">
        <ele>1555.2</ele>
        <time>2023-11-19T13:51:17Z</time>
      </trkpt>
      <trkpt lat="43.01525" lon="0.23014">
        <ele>1555</ele>
        <time>2023-11-19T13:51:18Z</time>
      </trkpt>
      <trkpt lat="43.01525" lon="0.23015">
        <ele>1555</ele>
        <time>2023-11-19T13:51:19Z</time>
      </trkpt>
      <trkpt lat="43.01525" lon="0.23015">
        <ele>1554.9</ele>
        <time>2023-11-19T13:51:20Z</time>
      </trkpt>
      <trkpt lat="43.01524" lon="0.23015">
        <ele>1554.8</ele>
        <time>2023-11-19T13:51:21Z</time>
      </trkpt>
      <trkpt lat="43.01524" lon="0.23015">
        <ele>1554.8</ele>
        <time>2023-11-19T13:51:22Z</time>
      </trkpt>
      <trkpt lat="43.01527" lon="0.23015">
        <ele>1554.2</ele>
        <time>2023-11-19T13:51:23Z</time>
      </trkpt>
      <trkpt lat="43.01527" lon="0.23014">
        <ele>1553.9</ele>
        <time>2023-11-19T13:51:24Z</time>
      </trkpt>
      <trkpt lat="43.01529" lon="0.23016">
        <ele>1553.4</ele>
        <time>2023-11-19T13:51:25Z</time>
      </trkpt>
      <trkpt lat="43.01529" lon="0.23017">
        <ele>1553.2</ele>
        <time>2023-11-19T13:51:26Z</time>
      </trkpt>
      <trkpt lat="43.0153" lon="0.23018">
        <ele>1552.9</ele>
        <time>2023-11-19T13:51:27Z</time>
      </trkpt>
      <trkpt lat="43.01531" lon="0.23018">
        <ele>1552.7</ele>
        <time>2023-11-19T13:51:28Z</time>
      </trkpt>
      <trkpt lat="43.01532" lon="0.23017">
        <ele>1552.3</ele>
        <time>2023-11-19T13:51:29Z</time>
      </trkpt>
      <trkpt lat="43.01533" lon="0.23015">
        <ele>1551.8</ele>
        <time>2023-11-19T13:51:31Z</time>
      </trkpt>
      <trkpt lat="43.01534" lon="0.23014">
        <ele>1551.5</ele>
        <time>2023-11-19T13:51:32Z</time>
      </trkpt>
      <trkpt lat="43.01535" lon="0.23014">
        <ele>1551.3</ele>
        <time>2023-11-19T13:51:33Z</time>
      </trkpt>
      <trkpt lat="43.01536" lon="0.23014">
        <ele>1550.9</ele>
        <time>2023-11-19T13:51:34Z</time>
      </trkpt>
      <trkpt lat="43.01537" lon="0.23013">
        <ele>1550.7</ele>
        <time>2023-11-19T13:51:35Z</time>
      </trkpt>
      <trkpt lat="43.01537" lon="0.23012">
        <ele>1550.5</ele>
        <time>2023-11-19T13:51:36Z</time>
      </trkpt>
      <trkpt lat="43.01537" lon="0.23011">
        <ele>1550.4</ele>
        <time>2023-11-19T13:51:37Z</time>
      </trkpt>
      <trkpt lat="43.01537" lon="0.23011">
        <ele>1550.1</ele>
        <time>2023-11-19T13:51:38Z</time>
      </trkpt>
      <trkpt lat="43.01538" lon="0.23011">
        <ele>1549.9</ele>
        <time>2023-11-19T13:51:39Z</time>
      </trkpt>
      <trkpt lat="43.0154" lon="0.23011">
        <ele>1549.3</ele>
        <time>2023-11-19T13:51:40Z</time>
      </trkpt>
      <trkpt lat="43.01541" lon="0.23011">
        <ele>1549</ele>
        <time>2023-11-19T13:51:41Z</time>
      </trkpt>
      <trkpt lat="43.01542" lon="0.23011">
        <ele>1548.7</ele>
        <time>2023-11-19T13:51:42Z</time>
      </trkpt>
      <trkpt lat="43.01543" lon="0.23011">
        <ele>1548.5</ele>
        <time>2023-11-19T13:51:43Z</time>
      </trkpt>
      <trkpt lat="43.01544" lon="0.23012">
        <ele>1548.3</ele>
        <time>2023-11-19T13:51:44Z</time>
      </trkpt>
      <trkpt lat="43.01541" lon="0.23013">
        <ele>1547.6</ele>
        <time>2023-11-19T13:51:45Z</time>
      </trkpt>
      <trkpt lat="43.01544" lon="0.23014">
        <ele>1546.7</ele>
        <time>2023-11-19T13:51:46Z</time>
      </trkpt>
      <trkpt lat="43.01545" lon="0.23014">
        <ele>1546.5</ele>
        <time>2023-11-19T13:51:47Z</time>
      </trkpt>
      <trkpt lat="43.01545" lon="0.23014">
        <ele>1546.3</ele>
        <time>2023-11-19T13:51:48Z</time>
      </trkpt>
      <trkpt lat="43.01546" lon="0.23014">
        <ele>1546</ele>
        <time>2023-11-19T13:51:49Z</time>
      </trkpt>
      <trkpt lat="43.01547" lon="0.23015">
        <ele>1545.7</ele>
        <time>2023-11-19T13:51:50Z</time>
      </trkpt>
      <trkpt lat="43.01548" lon="0.23016">
        <ele>1545.4</ele>
        <time>2023-11-19T13:51:51Z</time>
      </trkpt>
      <trkpt lat="43.01548" lon="0.23016">
        <ele>1545.3</ele>
        <time>2023-11-19T13:51:52Z</time>
      </trkpt>
      <trkpt lat="43.01549" lon="0.23017">
        <ele>1545.2</ele>
        <time>2023-11-19T13:51:53Z</time>
      </trkpt>
      <trkpt lat="43.01549" lon="0.23016">
        <ele>1545</ele>
        <time>2023-11-19T13:51:54Z</time>
      </trkpt>
      <trkpt lat="43.0155" lon="0.23014">
        <ele>1544.6</ele>
        <time>2023-11-19T13:51:55Z</time>
      </trkpt>
      <trkpt lat="43.01551" lon="0.23013">
        <ele>1544.3</ele>
        <time>2023-11-19T13:51:56Z</time>
      </trkpt>
      <trkpt lat="43.01551" lon="0.23012">
        <ele>1544</ele>
        <time>2023-11-19T13:51:57Z</time>
      </trkpt>
      <trkpt lat="43.01551" lon="0.2301">
        <ele>1543.6</ele>
        <time>2023-11-19T13:51:58Z</time>
      </trkpt>
      <trkpt lat="43.01551" lon="0.23008">
        <ele>1543.3</ele>
        <time>2023-11-19T13:51:59Z</time>
      </trkpt>
      <trkpt lat="43.01551" lon="0.23007">
        <ele>1543</ele>
        <time>2023-11-19T13:52:00Z</time>
      </trkpt>
      <trkpt lat="43.01551" lon="0.23005">
        <ele>1542.7</ele>
        <time>2023-11-19T13:52:01Z</time>
      </trkpt>
      <trkpt lat="43.01551" lon="0.23004">
        <ele>1542.4</ele>
        <time>2023-11-19T13:52:02Z</time>
      </trkpt>
      <trkpt lat="43.01552" lon="0.23003">
        <ele>1542.2</ele>
        <time>2023-11-19T13:52:03Z</time>
      </trkpt>
      <trkpt lat="43.01552" lon="0.23002">
        <ele>1541.9</ele>
        <time>2023-11-19T13:52:04Z</time>
      </trkpt>
      <trkpt lat="43.01553" lon="0.23001">
        <ele>1541.7</ele>
        <time>2023-11-19T13:52:05Z</time>
      </trkpt>
      <trkpt lat="43.01553" lon="0.23">
        <ele>1541.5</ele>
        <time>2023-11-19T13:52:06Z</time>
      </trkpt>
      <trkpt lat="43.01553" lon="0.22999">
        <ele>1541.3</ele>
        <time>2023-11-19T13:52:07Z</time>
      </trkpt>
      <trkpt lat="43.01553" lon="0.22997">
        <ele>1541</ele>
        <time>2023-11-19T13:52:08Z</time>
      </trkpt>
      <trkpt lat="43.01554" lon="0.22996">
        <ele>1540.8</ele>
        <time>2023-11-19T13:52:09Z</time>
      </trkpt>
      <trkpt lat="43.01554" lon="0.22995">
        <ele>1540.5</ele>
        <time>2023-11-19T13:52:10Z</time>
      </trkpt>
      <trkpt lat="43.01554" lon="0.22994">
        <ele>1540.3</ele>
        <time>2023-11-19T13:52:11Z</time>
      </trkpt>
      <trkpt lat="43.01554" lon="0.22993">
        <ele>1540.2</ele>
        <time>2023-11-19T13:52:12Z</time>
      </trkpt>
      <trkpt lat="43.01555" lon="0.22992">
        <ele>1539.9</ele>
        <time>2023-11-19T13:52:13Z</time>
      </trkpt>
      <trkpt lat="43.01555" lon="0.22991">
        <ele>1539.7</ele>
        <time>2023-11-19T13:52:14Z</time>
      </trkpt>
      <trkpt lat="43.01555" lon="0.22989">
        <ele>1539.3</ele>
        <time>2023-11-19T13:52:15Z</time>
      </trkpt>
      <trkpt lat="43.01556" lon="0.22988">
        <ele>1539.2</ele>
        <time>2023-11-19T13:52:16Z</time>
      </trkpt>
      <trkpt lat="43.01556" lon="0.22988">
        <ele>1539.1</ele>
        <time>2023-11-19T13:52:17Z</time>
      </trkpt>
      <trkpt lat="43.01556" lon="0.22987">
        <ele>1538.9</ele>
        <time>2023-11-19T13:52:18Z</time>
      </trkpt>
      <trkpt lat="43.01556" lon="0.22986">
        <ele>1538.7</ele>
        <time>2023-11-19T13:52:19Z</time>
      </trkpt>
      <trkpt lat="43.01556" lon="0.22984">
        <ele>1538.4</ele>
        <time>2023-11-19T13:52:20Z</time>
      </trkpt>
      <trkpt lat="43.01556" lon="0.22983">
        <ele>1538.2</ele>
        <time>2023-11-19T13:52:21Z</time>
      </trkpt>
      <trkpt lat="43.01557" lon="0.22982">
        <ele>1538</ele>
        <time>2023-11-19T13:52:22Z</time>
      </trkpt>
      <trkpt lat="43.01556" lon="0.22982">
        <ele>1537.9</ele>
        <time>2023-11-19T13:52:23Z</time>
      </trkpt>
      <trkpt lat="43.01557" lon="0.22979">
        <ele>1537.5</ele>
        <time>2023-11-19T13:52:24Z</time>
      </trkpt>
      <trkpt lat="43.01557" lon="0.22979">
        <ele>1537.4</ele>
        <time>2023-11-19T13:52:25Z</time>
      </trkpt>
      <trkpt lat="43.01557" lon="0.22978">
        <ele>1537.2</ele>
        <time>2023-11-19T13:52:26Z</time>
      </trkpt>
      <trkpt lat="43.01558" lon="0.22977">
        <ele>1537</ele>
        <time>2023-11-19T13:52:27Z</time>
      </trkpt>
      <trkpt lat="43.01559" lon="0.22976">
        <ele>1536.7</ele>
        <time>2023-11-19T13:52:28Z</time>
      </trkpt>
      <trkpt lat="43.0156" lon="0.22975">
        <ele>1536.4</ele>
        <time>2023-11-19T13:52:29Z</time>
      </trkpt>
      <trkpt lat="43.0156" lon="0.22974">
        <ele>1536.2</ele>
        <time>2023-11-19T13:52:30Z</time>
      </trkpt>
      <trkpt lat="43.01561" lon="0.22973">
        <ele>1535.9</ele>
        <time>2023-11-19T13:52:31Z</time>
      </trkpt>
      <trkpt lat="43.01561" lon="0.22971">
        <ele>1535.7</ele>
        <time>2023-11-19T13:52:32Z</time>
      </trkpt>
      <trkpt lat="43.01561" lon="0.2297">
        <ele>1535.4</ele>
        <time>2023-11-19T13:52:33Z</time>
      </trkpt>
      <trkpt lat="43.01562" lon="0.22968">
        <ele>1535.2</ele>
        <time>2023-11-19T13:52:34Z</time>
      </trkpt>
      <trkpt lat="43.01562" lon="0.22966">
        <ele>1534.8</ele>
        <time>2023-11-19T13:52:35Z</time>
      </trkpt>
      <trkpt lat="43.01562" lon="0.22965">
        <ele>1534.6</ele>
        <time>2023-11-19T13:52:36Z</time>
      </trkpt>
      <trkpt lat="43.01563" lon="0.22964">
        <ele>1534.4</ele>
        <time>2023-11-19T13:52:37Z</time>
      </trkpt>
      <trkpt lat="43.01563" lon="0.22962">
        <ele>1534.2</ele>
        <time>2023-11-19T13:52:38Z</time>
      </trkpt>
      <trkpt lat="43.01563" lon="0.22961">
        <ele>1533.9</ele>
        <time>2023-11-19T13:52:39Z</time>
      </trkpt>
      <trkpt lat="43.01563" lon="0.22959">
        <ele>1533.7</ele>
        <time>2023-11-19T13:52:40Z</time>
      </trkpt>
      <trkpt lat="43.01563" lon="0.22957">
        <ele>1533.4</ele>
        <time>2023-11-19T13:52:41Z</time>
      </trkpt>
      <trkpt lat="43.01563" lon="0.22955">
        <ele>1533.2</ele>
        <time>2023-11-19T13:52:42Z</time>
      </trkpt>
      <trkpt lat="43.01564" lon="0.22954">
        <ele>1533</ele>
        <time>2023-11-19T13:52:43Z</time>
      </trkpt>
      <trkpt lat="43.01564" lon="0.22952">
        <ele>1532.7</ele>
        <time>2023-11-19T13:52:44Z</time>
      </trkpt>
      <trkpt lat="43.01564" lon="0.22951">
        <ele>1532.5</ele>
        <time>2023-11-19T13:52:45Z</time>
      </trkpt>
      <trkpt lat="43.01564" lon="0.2295">
        <ele>1532.3</ele>
        <time>2023-11-19T13:52:46Z</time>
      </trkpt>
      <trkpt lat="43.01565" lon="0.22948">
        <ele>1532.1</ele>
        <time>2023-11-19T13:52:47Z</time>
      </trkpt>
      <trkpt lat="43.01565" lon="0.22947">
        <ele>1532</ele>
        <time>2023-11-19T13:52:48Z</time>
      </trkpt>
      <trkpt lat="43.01566" lon="0.22946">
        <ele>1531.8</ele>
        <time>2023-11-19T13:52:49Z</time>
      </trkpt>
      <trkpt lat="43.01567" lon="0.22945">
        <ele>1531.6</ele>
        <time>2023-11-19T13:52:50Z</time>
      </trkpt>
      <trkpt lat="43.01568" lon="0.22944">
        <ele>1531.4</ele>
        <time>2023-11-19T13:52:51Z</time>
      </trkpt>
      <trkpt lat="43.01568" lon="0.22942">
        <ele>1531.2</ele>
        <time>2023-11-19T13:52:52Z</time>
      </trkpt>
      <trkpt lat="43.01569" lon="0.2294">
        <ele>1530.9</ele>
        <time>2023-11-19T13:52:53Z</time>
      </trkpt>
      <trkpt lat="43.01569" lon="0.22939">
        <ele>1530.8</ele>
        <time>2023-11-19T13:52:54Z</time>
      </trkpt>
      <trkpt lat="43.01569" lon="0.22938">
        <ele>1530.7</ele>
        <time>2023-11-19T13:52:55Z</time>
      </trkpt>
      <trkpt lat="43.0157" lon="0.22936">
        <ele>1530.5</ele>
        <time>2023-11-19T13:52:56Z</time>
      </trkpt>
      <trkpt lat="43.01571" lon="0.22935">
        <ele>1530.4</ele>
        <time>2023-11-19T13:52:57Z</time>
      </trkpt>
      <trkpt lat="43.01571" lon="0.22934">
        <ele>1530.2</ele>
        <time>2023-11-19T13:52:58Z</time>
      </trkpt>
      <trkpt lat="43.01572" lon="0.22931">
        <ele>1530</ele>
        <time>2023-11-19T13:52:59Z</time>
      </trkpt>
      <trkpt lat="43.01572" lon="0.2293">
        <ele>1529.9</ele>
        <time>2023-11-19T13:53:00Z</time>
      </trkpt>
      <trkpt lat="43.01572" lon="0.22929">
        <ele>1529.8</ele>
        <time>2023-11-19T13:53:01Z</time>
      </trkpt>
      <trkpt lat="43.01573" lon="0.22927">
        <ele>1529.6</ele>
        <time>2023-11-19T13:53:02Z</time>
      </trkpt>
      <trkpt lat="43.01573" lon="0.22925">
        <ele>1529.5</ele>
        <time>2023-11-19T13:53:03Z</time>
      </trkpt>
      <trkpt lat="43.01574" lon="0.22924">
        <ele>1529.3</ele>
        <time>2023-11-19T13:53:04Z</time>
      </trkpt>
      <trkpt lat="43.01574" lon="0.22922">
        <ele>1529.2</ele>
        <time>2023-11-19T13:53:05Z</time>
      </trkpt>
      <trkpt lat="43.01574" lon="0.22919">
        <ele>1528.9</ele>
        <time>2023-11-19T13:53:06Z</time>
      </trkpt>
      <trkpt lat="43.01575" lon="0.22918">
        <ele>1528.8</ele>
        <time>2023-11-19T13:53:07Z</time>
      </trkpt>
      <trkpt lat="43.01575" lon="0.22917">
        <ele>1528.8</ele>
        <time>2023-11-19T13:53:08Z</time>
      </trkpt>
      <trkpt lat="43.01576" lon="0.22914">
        <ele>1528.5</ele>
        <time>2023-11-19T13:53:09Z</time>
      </trkpt>
      <trkpt lat="43.01576" lon="0.22913">
        <ele>1528.4</ele>
        <time>2023-11-19T13:53:10Z</time>
      </trkpt>
      <trkpt lat="43.01576" lon="0.22912">
        <ele>1528.3</ele>
        <time>2023-11-19T13:53:11Z</time>
      </trkpt>
      <trkpt lat="43.01577" lon="0.2291">
        <ele>1528.2</ele>
        <time>2023-11-19T13:53:12Z</time>
      </trkpt>
      <trkpt lat="43.01578" lon="0.22909">
        <ele>1528.1</ele>
        <time>2023-11-19T13:53:13Z</time>
      </trkpt>
      <trkpt lat="43.01578" lon="0.22908">
        <ele>1527.9</ele>
        <time>2023-11-19T13:53:14Z</time>
      </trkpt>
      <trkpt lat="43.01579" lon="0.22907">
        <ele>1527.8</ele>
        <time>2023-11-19T13:53:15Z</time>
      </trkpt>
      <trkpt lat="43.01579" lon="0.22905">
        <ele>1527.7</ele>
        <time>2023-11-19T13:53:16Z</time>
      </trkpt>
      <trkpt lat="43.0158" lon="0.22903">
        <ele>1527.6</ele>
        <time>2023-11-19T13:53:17Z</time>
      </trkpt>
      <trkpt lat="43.0158" lon="0.22901">
        <ele>1527.4</ele>
        <time>2023-11-19T13:53:18Z</time>
      </trkpt>
      <trkpt lat="43.0158" lon="0.229">
        <ele>1527.3</ele>
        <time>2023-11-19T13:53:19Z</time>
      </trkpt>
      <trkpt lat="43.01581" lon="0.22898">
        <ele>1527.2</ele>
        <time>2023-11-19T13:53:20Z</time>
      </trkpt>
      <trkpt lat="43.01581" lon="0.22896">
        <ele>1527</ele>
        <time>2023-11-19T13:53:21Z</time>
      </trkpt>
      <trkpt lat="43.01581" lon="0.22895">
        <ele>1526.9</ele>
        <time>2023-11-19T13:53:22Z</time>
      </trkpt>
      <trkpt lat="43.01582" lon="0.22893">
        <ele>1526.8</ele>
        <time>2023-11-19T13:53:23Z</time>
      </trkpt>
      <trkpt lat="43.01583" lon="0.22891">
        <ele>1526.6</ele>
        <time>2023-11-19T13:53:24Z</time>
      </trkpt>
      <trkpt lat="43.01583" lon="0.2289">
        <ele>1526.5</ele>
        <time>2023-11-19T13:53:25Z</time>
      </trkpt>
      <trkpt lat="43.01584" lon="0.22889">
        <ele>1526.4</ele>
        <time>2023-11-19T13:53:26Z</time>
      </trkpt>
      <trkpt lat="43.01584" lon="0.22888">
        <ele>1526.3</ele>
        <time>2023-11-19T13:53:27Z</time>
      </trkpt>
      <trkpt lat="43.01585" lon="0.22886">
        <ele>1526.2</ele>
        <time>2023-11-19T13:53:28Z</time>
      </trkpt>
      <trkpt lat="43.01585" lon="0.22885">
        <ele>1526</ele>
        <time>2023-11-19T13:53:29Z</time>
      </trkpt>
      <trkpt lat="43.01585" lon="0.22882">
        <ele>1525.8</ele>
        <time>2023-11-19T13:53:30Z</time>
      </trkpt>
      <trkpt lat="43.01586" lon="0.2288">
        <ele>1525.7</ele>
        <time>2023-11-19T13:53:31Z</time>
      </trkpt>
      <trkpt lat="43.01586" lon="0.22879">
        <ele>1525.6</ele>
        <time>2023-11-19T13:53:32Z</time>
      </trkpt>
      <trkpt lat="43.01587" lon="0.22876">
        <ele>1525.4</ele>
        <time>2023-11-19T13:53:33Z</time>
      </trkpt>
      <trkpt lat="43.01588" lon="0.22875">
        <ele>1525.2</ele>
        <time>2023-11-19T13:53:34Z</time>
      </trkpt>
      <trkpt lat="43.01588" lon="0.22874">
        <ele>1525.1</ele>
        <time>2023-11-19T13:53:35Z</time>
      </trkpt>
      <trkpt lat="43.01588" lon="0.22873">
        <ele>1525.1</ele>
        <time>2023-11-19T13:53:37Z</time>
      </trkpt>
      <trkpt lat="43.01589" lon="0.22872">
        <ele>1524.9</ele>
        <time>2023-11-19T13:53:38Z</time>
      </trkpt>
      <trkpt lat="43.0159" lon="0.22871">
        <ele>1524.8</ele>
        <time>2023-11-19T13:53:39Z</time>
      </trkpt>
      <trkpt lat="43.0159" lon="0.22869">
        <ele>1524.7</ele>
        <time>2023-11-19T13:53:40Z</time>
      </trkpt>
      <trkpt lat="43.01591" lon="0.22869">
        <ele>1524.6</ele>
        <time>2023-11-19T13:53:41Z</time>
      </trkpt>
      <trkpt lat="43.01592" lon="0.22868">
        <ele>1524.5</ele>
        <time>2023-11-19T13:53:42Z</time>
      </trkpt>
      <trkpt lat="43.01592" lon="0.22867">
        <ele>1524.4</ele>
        <time>2023-11-19T13:53:43Z</time>
      </trkpt>
      <trkpt lat="43.01593" lon="0.22866">
        <ele>1524.2</ele>
        <time>2023-11-19T13:53:44Z</time>
      </trkpt>
      <trkpt lat="43.01593" lon="0.22865">
        <ele>1524.1</ele>
        <time>2023-11-19T13:53:45Z</time>
      </trkpt>
      <trkpt lat="43.01593" lon="0.22863">
        <ele>1524</ele>
        <time>2023-11-19T13:53:46Z</time>
      </trkpt>
      <trkpt lat="43.01593" lon="0.22862">
        <ele>1523.8</ele>
        <time>2023-11-19T13:53:47Z</time>
      </trkpt>
      <trkpt lat="43.01594" lon="0.22861">
        <ele>1523.7</ele>
        <time>2023-11-19T13:53:48Z</time>
      </trkpt>
      <trkpt lat="43.01595" lon="0.22859">
        <ele>1523.5</ele>
        <time>2023-11-19T13:53:49Z</time>
      </trkpt>
      <trkpt lat="43.01595" lon="0.22858">
        <ele>1523.4</ele>
        <time>2023-11-19T13:53:50Z</time>
      </trkpt>
      <trkpt lat="43.01595" lon="0.22856">
        <ele>1523.2</ele>
        <time>2023-11-19T13:53:51Z</time>
      </trkpt>
      <trkpt lat="43.01596" lon="0.22854">
        <ele>1523</ele>
        <time>2023-11-19T13:53:52Z</time>
      </trkpt>
      <trkpt lat="43.01597" lon="0.22853">
        <ele>1522.9</ele>
        <time>2023-11-19T13:53:53Z</time>
      </trkpt>
      <trkpt lat="43.01597" lon="0.22852">
        <ele>1522.7</ele>
        <time>2023-11-19T13:53:54Z</time>
      </trkpt>
      <trkpt lat="43.01597" lon="0.22851">
        <ele>1522.6</ele>
        <time>2023-11-19T13:53:55Z</time>
      </trkpt>
      <trkpt lat="43.01599" lon="0.22848">
        <ele>1522.2</ele>
        <time>2023-11-19T13:53:56Z</time>
      </trkpt>
      <trkpt lat="43.016" lon="0.22847">
        <ele>1522.1</ele>
        <time>2023-11-19T13:53:57Z</time>
      </trkpt>
      <trkpt lat="43.01602" lon="0.22846">
        <ele>1521.7</ele>
        <time>2023-11-19T13:53:58Z</time>
      </trkpt>
      <trkpt lat="43.01602" lon="0.22846">
        <ele>1521.6</ele>
        <time>2023-11-19T13:53:59Z</time>
      </trkpt>
      <trkpt lat="43.01602" lon="0.22846">
        <ele>1521.5</ele>
        <time>2023-11-19T13:54:00Z</time>
      </trkpt>
      <trkpt lat="43.01602" lon="0.22845">
        <ele>1521.4</ele>
        <time>2023-11-19T13:54:01Z</time>
      </trkpt>
      <trkpt lat="43.01602" lon="0.22843">
        <ele>1521.2</ele>
        <time>2023-11-19T13:54:02Z</time>
      </trkpt>
      <trkpt lat="43.01603" lon="0.22842">
        <ele>1521</ele>
        <time>2023-11-19T13:54:03Z</time>
      </trkpt>
      <trkpt lat="43.01603" lon="0.22841">
        <ele>1520.8</ele>
        <time>2023-11-19T13:54:04Z</time>
      </trkpt>
      <trkpt lat="43.01603" lon="0.22839">
        <ele>1520.6</ele>
        <time>2023-11-19T13:54:05Z</time>
      </trkpt>
      <trkpt lat="43.01603" lon="0.22838">
        <ele>1520.4</ele>
        <time>2023-11-19T13:54:06Z</time>
      </trkpt>
      <trkpt lat="43.01603" lon="0.22837">
        <ele>1520.3</ele>
        <time>2023-11-19T13:54:07Z</time>
      </trkpt>
      <trkpt lat="43.01604" lon="0.22837">
        <ele>1520.2</ele>
        <time>2023-11-19T13:54:08Z</time>
      </trkpt>
      <trkpt lat="43.01604" lon="0.22836">
        <ele>1520.1</ele>
        <time>2023-11-19T13:54:09Z</time>
      </trkpt>
      <trkpt lat="43.01604" lon="0.22835">
        <ele>1520</ele>
        <time>2023-11-19T13:54:10Z</time>
      </trkpt>
      <trkpt lat="43.01605" lon="0.22835">
        <ele>1519.9</ele>
        <time>2023-11-19T13:54:11Z</time>
      </trkpt>
      <trkpt lat="43.01605" lon="0.22835">
        <ele>1519.8</ele>
        <time>2023-11-19T13:54:12Z</time>
      </trkpt>
      <trkpt lat="43.01605" lon="0.22834">
        <ele>1519.6</ele>
        <time>2023-11-19T13:54:13Z</time>
      </trkpt>
      <trkpt lat="43.01606" lon="0.22834">
        <ele>1519.5</ele>
        <time>2023-11-19T13:54:14Z</time>
      </trkpt>
      <trkpt lat="43.01606" lon="0.22833">
        <ele>1519.3</ele>
        <time>2023-11-19T13:54:15Z</time>
      </trkpt>
      <trkpt lat="43.01607" lon="0.22833">
        <ele>1519.3</ele>
        <time>2023-11-19T13:54:16Z</time>
      </trkpt>
      <trkpt lat="43.01606" lon="0.22833">
        <ele>1519.2</ele>
        <time>2023-11-19T13:54:17Z</time>
      </trkpt>
      <trkpt lat="43.01607" lon="0.22832">
        <ele>1519.1</ele>
        <time>2023-11-19T13:54:18Z</time>
      </trkpt>
      <trkpt lat="43.01607" lon="0.22831">
        <ele>1518.9</ele>
        <time>2023-11-19T13:54:19Z</time>
      </trkpt>
      <trkpt lat="43.01608" lon="0.22828">
        <ele>1518.3</ele>
        <time>2023-11-19T13:54:20Z</time>
      </trkpt>
      <trkpt lat="43.01608" lon="0.22828">
        <ele>1518.2</ele>
        <time>2023-11-19T13:54:21Z</time>
      </trkpt>
      <trkpt lat="43.01607" lon="0.22828">
        <ele>1518.1</ele>
        <time>2023-11-19T13:54:22Z</time>
      </trkpt>
      <trkpt lat="43.01607" lon="0.22827">
        <ele>1518</ele>
        <time>2023-11-19T13:54:23Z</time>
      </trkpt>
      <trkpt lat="43.01607" lon="0.22825">
        <ele>1517.7</ele>
        <time>2023-11-19T13:54:24Z</time>
      </trkpt>
      <trkpt lat="43.01608" lon="0.22824">
        <ele>1517.5</ele>
        <time>2023-11-19T13:54:25Z</time>
      </trkpt>
      <trkpt lat="43.01608" lon="0.22822">
        <ele>1517.2</ele>
        <time>2023-11-19T13:54:26Z</time>
      </trkpt>
      <trkpt lat="43.01608" lon="0.22821">
        <ele>1517</ele>
        <time>2023-11-19T13:54:27Z</time>
      </trkpt>
      <trkpt lat="43.01608" lon="0.22819">
        <ele>1516.8</ele>
        <time>2023-11-19T13:54:28Z</time>
      </trkpt>
      <trkpt lat="43.01609" lon="0.22819">
        <ele>1516.7</ele>
        <time>2023-11-19T13:54:29Z</time>
      </trkpt>
      <trkpt lat="43.01609" lon="0.22817">
        <ele>1516.5</ele>
        <time>2023-11-19T13:54:30Z</time>
      </trkpt>
      <trkpt lat="43.01609" lon="0.22817">
        <ele>1516.4</ele>
        <time>2023-11-19T13:54:31Z</time>
      </trkpt>
      <trkpt lat="43.01609" lon="0.22815">
        <ele>1516.1</ele>
        <time>2023-11-19T13:54:32Z</time>
      </trkpt>
      <trkpt lat="43.01609" lon="0.22813">
        <ele>1515.8</ele>
        <time>2023-11-19T13:54:33Z</time>
      </trkpt>
      <trkpt lat="43.01609" lon="0.22811">
        <ele>1515.5</ele>
        <time>2023-11-19T13:54:34Z</time>
      </trkpt>
      <trkpt lat="43.0161" lon="0.2281">
        <ele>1515.3</ele>
        <time>2023-11-19T13:54:35Z</time>
      </trkpt>
      <trkpt lat="43.0161" lon="0.2281">
        <ele>1515.2</ele>
        <time>2023-11-19T13:54:36Z</time>
      </trkpt>
      <trkpt lat="43.0161" lon="0.22809">
        <ele>1515</ele>
        <time>2023-11-19T13:54:37Z</time>
      </trkpt>
      <trkpt lat="43.01611" lon="0.22809">
        <ele>1514.8</ele>
        <time>2023-11-19T13:54:38Z</time>
      </trkpt>
      <trkpt lat="43.01612" lon="0.22807">
        <ele>1514.6</ele>
        <time>2023-11-19T13:54:39Z</time>
      </trkpt>
      <trkpt lat="43.01612" lon="0.22806">
        <ele>1514.4</ele>
        <time>2023-11-19T13:54:40Z</time>
      </trkpt>
      <trkpt lat="43.01611" lon="0.22805">
        <ele>1514.1</ele>
        <time>2023-11-19T13:54:41Z</time>
      </trkpt>
      <trkpt lat="43.01611" lon="0.22803">
        <ele>1513.8</ele>
        <time>2023-11-19T13:54:42Z</time>
      </trkpt>
      <trkpt lat="43.0161" lon="0.22802">
        <ele>1513.6</ele>
        <time>2023-11-19T13:54:43Z</time>
      </trkpt>
      <trkpt lat="43.0161" lon="0.22801">
        <ele>1513.4</ele>
        <time>2023-11-19T13:54:44Z</time>
      </trkpt>
      <trkpt lat="43.0161" lon="0.22799">
        <ele>1513.2</ele>
        <time>2023-11-19T13:54:45Z</time>
      </trkpt>
      <trkpt lat="43.0161" lon="0.22798">
        <ele>1512.9</ele>
        <time>2023-11-19T13:54:46Z</time>
      </trkpt>
      <trkpt lat="43.01609" lon="0.22797">
        <ele>1512.7</ele>
        <time>2023-11-19T13:54:47Z</time>
      </trkpt>
      <trkpt lat="43.01609" lon="0.22797">
        <ele>1512.5</ele>
        <time>2023-11-19T13:54:48Z</time>
      </trkpt>
      <trkpt lat="43.01609" lon="0.22798">
        <ele>1512.3</ele>
        <time>2023-11-19T13:54:49Z</time>
      </trkpt>
      <trkpt lat="43.01608" lon="0.22795">
        <ele>1511.7</ele>
        <time>2023-11-19T13:54:50Z</time>
      </trkpt>
      <trkpt lat="43.01607" lon="0.22794">
        <ele>1511.5</ele>
        <time>2023-11-19T13:54:51Z</time>
      </trkpt>
      <trkpt lat="43.01607" lon="0.22793">
        <ele>1511.3</ele>
        <time>2023-11-19T13:54:52Z</time>
      </trkpt>
      <trkpt lat="43.01608" lon="0.22792">
        <ele>1511.1</ele>
        <time>2023-11-19T13:54:53Z</time>
      </trkpt>
      <trkpt lat="43.01608" lon="0.22791">
        <ele>1510.9</ele>
        <time>2023-11-19T13:54:54Z</time>
      </trkpt>
      <trkpt lat="43.01608" lon="0.2279">
        <ele>1510.8</ele>
        <time>2023-11-19T13:54:55Z</time>
      </trkpt>
      <trkpt lat="43.01608" lon="0.22789">
        <ele>1510.6</ele>
        <time>2023-11-19T13:54:56Z</time>
      </trkpt>
      <trkpt lat="43.01608" lon="0.22788">
        <ele>1510.4</ele>
        <time>2023-11-19T13:54:57Z</time>
      </trkpt>
      <trkpt lat="43.01608" lon="0.22787">
        <ele>1510.3</ele>
        <time>2023-11-19T13:54:58Z</time>
      </trkpt>
      <trkpt lat="43.01608" lon="0.22787">
        <ele>1510.2</ele>
        <time>2023-11-19T13:54:59Z</time>
      </trkpt>
      <trkpt lat="43.01609" lon="0.22786">
        <ele>1510.1</ele>
        <time>2023-11-19T13:55:00Z</time>
      </trkpt>
      <trkpt lat="43.01609" lon="0.22785">
        <ele>1509.9</ele>
        <time>2023-11-19T13:55:01Z</time>
      </trkpt>
      <trkpt lat="43.01609" lon="0.22784">
        <ele>1509.7</ele>
        <time>2023-11-19T13:55:02Z</time>
      </trkpt>
      <trkpt lat="43.01609" lon="0.22783">
        <ele>1509.6</ele>
        <time>2023-11-19T13:55:03Z</time>
      </trkpt>
      <trkpt lat="43.01609" lon="0.22783">
        <ele>1509.6</ele>
        <time>2023-11-19T13:55:04Z</time>
      </trkpt>
      <trkpt lat="43.01608" lon="0.22782">
        <ele>1509.4</ele>
        <time>2023-11-19T13:55:05Z</time>
      </trkpt>
      <trkpt lat="43.01608" lon="0.2278">
        <ele>1509</ele>
        <time>2023-11-19T13:55:06Z</time>
      </trkpt>
      <trkpt lat="43.01608" lon="0.22779">
        <ele>1508.8</ele>
        <time>2023-11-19T13:55:07Z</time>
      </trkpt>
      <trkpt lat="43.01608" lon="0.22778">
        <ele>1508.7</ele>
        <time>2023-11-19T13:55:08Z</time>
      </trkpt>
      <trkpt lat="43.01609" lon="0.22777">
        <ele>1508.5</ele>
        <time>2023-11-19T13:55:09Z</time>
      </trkpt>
      <trkpt lat="43.01609" lon="0.22776">
        <ele>1508.3</ele>
        <time>2023-11-19T13:55:10Z</time>
      </trkpt>
      <trkpt lat="43.01609" lon="0.22775">
        <ele>1508.1</ele>
        <time>2023-11-19T13:55:11Z</time>
      </trkpt>
      <trkpt lat="43.0161" lon="0.22773">
        <ele>1507.8</ele>
        <time>2023-11-19T13:55:12Z</time>
      </trkpt>
      <trkpt lat="43.0161" lon="0.22772">
        <ele>1507.5</ele>
        <time>2023-11-19T13:55:13Z</time>
      </trkpt>
      <trkpt lat="43.01611" lon="0.22771">
        <ele>1507.3</ele>
        <time>2023-11-19T13:55:14Z</time>
      </trkpt>
      <trkpt lat="43.01612" lon="0.2277">
        <ele>1507.1</ele>
        <time>2023-11-19T13:55:15Z</time>
      </trkpt>
      <trkpt lat="43.01613" lon="0.22769">
        <ele>1506.8</ele>
        <time>2023-11-19T13:55:16Z</time>
      </trkpt>
      <trkpt lat="43.01613" lon="0.22768">
        <ele>1506.6</ele>
        <time>2023-11-19T13:55:17Z</time>
      </trkpt>
      <trkpt lat="43.01614" lon="0.22767">
        <ele>1506.5</ele>
        <time>2023-11-19T13:55:18Z</time>
      </trkpt>
      <trkpt lat="43.01613" lon="0.22767">
        <ele>1506.4</ele>
        <time>2023-11-19T13:55:19Z</time>
      </trkpt>
      <trkpt lat="43.01614" lon="0.22765">
        <ele>1506</ele>
        <time>2023-11-19T13:55:20Z</time>
      </trkpt>
      <trkpt lat="43.01614" lon="0.22763">
        <ele>1505.8</ele>
        <time>2023-11-19T13:55:21Z</time>
      </trkpt>
      <trkpt lat="43.01613" lon="0.22762">
        <ele>1505.6</ele>
        <time>2023-11-19T13:55:22Z</time>
      </trkpt>
      <trkpt lat="43.01613" lon="0.22761">
        <ele>1505.4</ele>
        <time>2023-11-19T13:55:23Z</time>
      </trkpt>
      <trkpt lat="43.01614" lon="0.22759">
        <ele>1505.1</ele>
        <time>2023-11-19T13:55:24Z</time>
      </trkpt>
      <trkpt lat="43.01614" lon="0.22758">
        <ele>1505</ele>
        <time>2023-11-19T13:55:25Z</time>
      </trkpt>
      <trkpt lat="43.01615" lon="0.22757">
        <ele>1504.8</ele>
        <time>2023-11-19T13:55:26Z</time>
      </trkpt>
      <trkpt lat="43.01615" lon="0.22756">
        <ele>1504.5</ele>
        <time>2023-11-19T13:55:27Z</time>
      </trkpt>
      <trkpt lat="43.01616" lon="0.22754">
        <ele>1504.2</ele>
        <time>2023-11-19T13:55:28Z</time>
      </trkpt>
      <trkpt lat="43.01616" lon="0.22753">
        <ele>1504</ele>
        <time>2023-11-19T13:55:29Z</time>
      </trkpt>
      <trkpt lat="43.01616" lon="0.22752">
        <ele>1503.9</ele>
        <time>2023-11-19T13:55:30Z</time>
      </trkpt>
      <trkpt lat="43.01617" lon="0.22751">
        <ele>1503.7</ele>
        <time>2023-11-19T13:55:31Z</time>
      </trkpt>
      <trkpt lat="43.01617" lon="0.2275">
        <ele>1503.4</ele>
        <time>2023-11-19T13:55:32Z</time>
      </trkpt>
      <trkpt lat="43.01618" lon="0.22749">
        <ele>1503.2</ele>
        <time>2023-11-19T13:55:33Z</time>
      </trkpt>
      <trkpt lat="43.01619" lon="0.22748">
        <ele>1503</ele>
        <time>2023-11-19T13:55:34Z</time>
      </trkpt>
      <trkpt lat="43.01619" lon="0.22747">
        <ele>1502.8</ele>
        <time>2023-11-19T13:55:35Z</time>
      </trkpt>
      <trkpt lat="43.0162" lon="0.22746">
        <ele>1502.6</ele>
        <time>2023-11-19T13:55:36Z</time>
      </trkpt>
      <trkpt lat="43.0162" lon="0.22745">
        <ele>1502.3</ele>
        <time>2023-11-19T13:55:37Z</time>
      </trkpt>
      <trkpt lat="43.01621" lon="0.22743">
        <ele>1502</ele>
        <time>2023-11-19T13:55:38Z</time>
      </trkpt>
      <trkpt lat="43.01621" lon="0.22742">
        <ele>1501.9</ele>
        <time>2023-11-19T13:55:39Z</time>
      </trkpt>
      <trkpt lat="43.01622" lon="0.22741">
        <ele>1501.7</ele>
        <time>2023-11-19T13:55:40Z</time>
      </trkpt>
      <trkpt lat="43.01622" lon="0.22741">
        <ele>1501.6</ele>
        <time>2023-11-19T13:55:41Z</time>
      </trkpt>
      <trkpt lat="43.01622" lon="0.2274">
        <ele>1501.5</ele>
        <time>2023-11-19T13:55:43Z</time>
      </trkpt>
      <trkpt lat="43.01623" lon="0.22739">
        <ele>1501.2</ele>
        <time>2023-11-19T13:55:44Z</time>
      </trkpt>
      <trkpt lat="43.01623" lon="0.22738">
        <ele>1501</ele>
        <time>2023-11-19T13:55:45Z</time>
      </trkpt>
      <trkpt lat="43.01623" lon="0.22737">
        <ele>1500.9</ele>
        <time>2023-11-19T13:55:46Z</time>
      </trkpt>
      <trkpt lat="43.01622" lon="0.22736">
        <ele>1500.6</ele>
        <time>2023-11-19T13:55:47Z</time>
      </trkpt>
      <trkpt lat="43.01622" lon="0.22734">
        <ele>1500.3</ele>
        <time>2023-11-19T13:55:48Z</time>
      </trkpt>
      <trkpt lat="43.01622" lon="0.22733">
        <ele>1500.2</ele>
        <time>2023-11-19T13:55:49Z</time>
      </trkpt>
      <trkpt lat="43.01622" lon="0.22731">
        <ele>1499.9</ele>
        <time>2023-11-19T13:55:50Z</time>
      </trkpt>
      <trkpt lat="43.01622" lon="0.22731">
        <ele>1499.8</ele>
        <time>2023-11-19T13:55:51Z</time>
      </trkpt>
      <trkpt lat="43.01623" lon="0.2273">
        <ele>1499.6</ele>
        <time>2023-11-19T13:55:52Z</time>
      </trkpt>
      <trkpt lat="43.01622" lon="0.22729">
        <ele>1499.5</ele>
        <time>2023-11-19T13:55:53Z</time>
      </trkpt>
      <trkpt lat="43.01622" lon="0.22727">
        <ele>1499.1</ele>
        <time>2023-11-19T13:55:54Z</time>
      </trkpt>
      <trkpt lat="43.01623" lon="0.22726">
        <ele>1498.9</ele>
        <time>2023-11-19T13:55:55Z</time>
      </trkpt>
      <trkpt lat="43.01623" lon="0.22726">
        <ele>1498.8</ele>
        <time>2023-11-19T13:55:56Z</time>
      </trkpt>
      <trkpt lat="43.01623" lon="0.22723">
        <ele>1498.3</ele>
        <time>2023-11-19T13:55:57Z</time>
      </trkpt>
      <trkpt lat="43.01624" lon="0.22722">
        <ele>1498.1</ele>
        <time>2023-11-19T13:55:58Z</time>
      </trkpt>
      <trkpt lat="43.01624" lon="0.22721">
        <ele>1497.9</ele>
        <time>2023-11-19T13:55:59Z</time>
      </trkpt>
      <trkpt lat="43.01624" lon="0.22719">
        <ele>1497.6</ele>
        <time>2023-11-19T13:56:00Z</time>
      </trkpt>
      <trkpt lat="43.01624" lon="0.22718">
        <ele>1497.3</ele>
        <time>2023-11-19T13:56:01Z</time>
      </trkpt>
      <trkpt lat="43.01625" lon="0.22717">
        <ele>1497.1</ele>
        <time>2023-11-19T13:56:02Z</time>
      </trkpt>
      <trkpt lat="43.01625" lon="0.22716">
        <ele>1496.9</ele>
        <time>2023-11-19T13:56:03Z</time>
      </trkpt>
      <trkpt lat="43.01626" lon="0.22715">
        <ele>1496.6</ele>
        <time>2023-11-19T13:56:04Z</time>
      </trkpt>
      <trkpt lat="43.01627" lon="0.22714">
        <ele>1496.4</ele>
        <time>2023-11-19T13:56:05Z</time>
      </trkpt>
      <trkpt lat="43.01628" lon="0.22712">
        <ele>1495.8</ele>
        <time>2023-11-19T13:56:06Z</time>
      </trkpt>
      <trkpt lat="43.01629" lon="0.2271">
        <ele>1495.5</ele>
        <time>2023-11-19T13:56:07Z</time>
      </trkpt>
      <trkpt lat="43.01629" lon="0.22709">
        <ele>1495.3</ele>
        <time>2023-11-19T13:56:08Z</time>
      </trkpt>
      <trkpt lat="43.0163" lon="0.22708">
        <ele>1494.9</ele>
        <time>2023-11-19T13:56:09Z</time>
      </trkpt>
      <trkpt lat="43.0163" lon="0.22706">
        <ele>1494.6</ele>
        <time>2023-11-19T13:56:10Z</time>
      </trkpt>
      <trkpt lat="43.01631" lon="0.22703">
        <ele>1494</ele>
        <time>2023-11-19T13:56:11Z</time>
      </trkpt>
      <trkpt lat="43.01631" lon="0.22702">
        <ele>1493.8</ele>
        <time>2023-11-19T13:56:12Z</time>
      </trkpt>
      <trkpt lat="43.01631" lon="0.22701">
        <ele>1493.5</ele>
        <time>2023-11-19T13:56:13Z</time>
      </trkpt>
      <trkpt lat="43.01632" lon="0.22699">
        <ele>1493.1</ele>
        <time>2023-11-19T13:56:14Z</time>
      </trkpt>
      <trkpt lat="43.01632" lon="0.22697">
        <ele>1492.8</ele>
        <time>2023-11-19T13:56:15Z</time>
      </trkpt>
      <trkpt lat="43.01633" lon="0.22695">
        <ele>1492.3</ele>
        <time>2023-11-19T13:56:16Z</time>
      </trkpt>
      <trkpt lat="43.01634" lon="0.22694">
        <ele>1492</ele>
        <time>2023-11-19T13:56:17Z</time>
      </trkpt>
      <trkpt lat="43.01634" lon="0.22692">
        <ele>1491.8</ele>
        <time>2023-11-19T13:56:18Z</time>
      </trkpt>
      <trkpt lat="43.01634" lon="0.22691">
        <ele>1491.6</ele>
        <time>2023-11-19T13:56:19Z</time>
      </trkpt>
      <trkpt lat="43.01634" lon="0.22689">
        <ele>1491.2</ele>
        <time>2023-11-19T13:56:20Z</time>
      </trkpt>
      <trkpt lat="43.01635" lon="0.22688">
        <ele>1491</ele>
        <time>2023-11-19T13:56:21Z</time>
      </trkpt>
      <trkpt lat="43.01635" lon="0.22687">
        <ele>1490.8</ele>
        <time>2023-11-19T13:56:22Z</time>
      </trkpt>
      <trkpt lat="43.01635" lon="0.22685">
        <ele>1490.5</ele>
        <time>2023-11-19T13:56:23Z</time>
      </trkpt>
      <trkpt lat="43.01636" lon="0.22684">
        <ele>1490.2</ele>
        <time>2023-11-19T13:56:24Z</time>
      </trkpt>
      <trkpt lat="43.01637" lon="0.22683">
        <ele>1489.8</ele>
        <time>2023-11-19T13:56:25Z</time>
      </trkpt>
      <trkpt lat="43.01639" lon="0.22682">
        <ele>1489.5</ele>
        <time>2023-11-19T13:56:26Z</time>
      </trkpt>
      <trkpt lat="43.01641" lon="0.2268">
        <ele>1489</ele>
        <time>2023-11-19T13:56:27Z</time>
      </trkpt>
      <trkpt lat="43.01641" lon="0.22679">
        <ele>1488.8</ele>
        <time>2023-11-19T13:56:28Z</time>
      </trkpt>
      <trkpt lat="43.01642" lon="0.22678">
        <ele>1488.6</ele>
        <time>2023-11-19T13:56:29Z</time>
      </trkpt>
      <trkpt lat="43.01643" lon="0.22676">
        <ele>1488.3</ele>
        <time>2023-11-19T13:56:30Z</time>
      </trkpt>
      <trkpt lat="43.01643" lon="0.22675">
        <ele>1488</ele>
        <time>2023-11-19T13:56:31Z</time>
      </trkpt>
      <trkpt lat="43.01644" lon="0.22673">
        <ele>1487.7</ele>
        <time>2023-11-19T13:56:32Z</time>
      </trkpt>
      <trkpt lat="43.01645" lon="0.22671">
        <ele>1487.4</ele>
        <time>2023-11-19T13:56:33Z</time>
      </trkpt>
      <trkpt lat="43.01645" lon="0.22669">
        <ele>1487.1</ele>
        <time>2023-11-19T13:56:34Z</time>
      </trkpt>
      <trkpt lat="43.01646" lon="0.22668">
        <ele>1486.8</ele>
        <time>2023-11-19T13:56:35Z</time>
      </trkpt>
      <trkpt lat="43.01648" lon="0.22667">
        <ele>1486.5</ele>
        <time>2023-11-19T13:56:36Z</time>
      </trkpt>
      <trkpt lat="43.01649" lon="0.22665">
        <ele>1486.3</ele>
        <time>2023-11-19T13:56:37Z</time>
      </trkpt>
      <trkpt lat="43.0165" lon="0.22663">
        <ele>1485.9</ele>
        <time>2023-11-19T13:56:38Z</time>
      </trkpt>
      <trkpt lat="43.0165" lon="0.22662">
        <ele>1485.7</ele>
        <time>2023-11-19T13:56:39Z</time>
      </trkpt>
      <trkpt lat="43.0165" lon="0.22661">
        <ele>1485.6</ele>
        <time>2023-11-19T13:56:40Z</time>
      </trkpt>
      <trkpt lat="43.01652" lon="0.22659">
        <ele>1485.3</ele>
        <time>2023-11-19T13:56:41Z</time>
      </trkpt>
      <trkpt lat="43.01653" lon="0.22658">
        <ele>1484.9</ele>
        <time>2023-11-19T13:56:42Z</time>
      </trkpt>
      <trkpt lat="43.01654" lon="0.22655">
        <ele>1484.6</ele>
        <time>2023-11-19T13:56:43Z</time>
      </trkpt>
      <trkpt lat="43.01654" lon="0.22654">
        <ele>1484.4</ele>
        <time>2023-11-19T13:56:44Z</time>
      </trkpt>
      <trkpt lat="43.01654" lon="0.22653">
        <ele>1484.2</ele>
        <time>2023-11-19T13:56:45Z</time>
      </trkpt>
      <trkpt lat="43.01655" lon="0.22651">
        <ele>1484</ele>
        <time>2023-11-19T13:56:46Z</time>
      </trkpt>
      <trkpt lat="43.01654" lon="0.2265">
        <ele>1483.8</ele>
        <time>2023-11-19T13:56:47Z</time>
      </trkpt>
      <trkpt lat="43.01654" lon="0.22649">
        <ele>1483.6</ele>
        <time>2023-11-19T13:56:48Z</time>
      </trkpt>
      <trkpt lat="43.01653" lon="0.22647">
        <ele>1483.4</ele>
        <time>2023-11-19T13:56:49Z</time>
      </trkpt>
      <trkpt lat="43.01653" lon="0.22646">
        <ele>1483.1</ele>
        <time>2023-11-19T13:56:50Z</time>
      </trkpt>
      <trkpt lat="43.01653" lon="0.22644">
        <ele>1482.9</ele>
        <time>2023-11-19T13:56:51Z</time>
      </trkpt>
      <trkpt lat="43.01654" lon="0.22643">
        <ele>1482.6</ele>
        <time>2023-11-19T13:56:52Z</time>
      </trkpt>
      <trkpt lat="43.01654" lon="0.22641">
        <ele>1482.4</ele>
        <time>2023-11-19T13:56:53Z</time>
      </trkpt>
      <trkpt lat="43.01655" lon="0.22641">
        <ele>1482.1</ele>
        <time>2023-11-19T13:56:54Z</time>
      </trkpt>
      <trkpt lat="43.01656" lon="0.2264">
        <ele>1482</ele>
        <time>2023-11-19T13:56:55Z</time>
      </trkpt>
      <trkpt lat="43.01655" lon="0.22639">
        <ele>1481.8</ele>
        <time>2023-11-19T13:56:56Z</time>
      </trkpt>
      <trkpt lat="43.01655" lon="0.22638">
        <ele>1481.6</ele>
        <time>2023-11-19T13:56:57Z</time>
      </trkpt>
      <trkpt lat="43.01655" lon="0.22637">
        <ele>1481.4</ele>
        <time>2023-11-19T13:56:58Z</time>
      </trkpt>
      <trkpt lat="43.01655" lon="0.22636">
        <ele>1481.1</ele>
        <time>2023-11-19T13:56:59Z</time>
      </trkpt>
      <trkpt lat="43.01656" lon="0.22635">
        <ele>1480.9</ele>
        <time>2023-11-19T13:57:00Z</time>
      </trkpt>
      <trkpt lat="43.01657" lon="0.22632">
        <ele>1480.5</ele>
        <time>2023-11-19T13:57:01Z</time>
      </trkpt>
      <trkpt lat="43.01657" lon="0.2263">
        <ele>1480.1</ele>
        <time>2023-11-19T13:57:02Z</time>
      </trkpt>
      <trkpt lat="43.01657" lon="0.22629">
        <ele>1479.9</ele>
        <time>2023-11-19T13:57:03Z</time>
      </trkpt>
      <trkpt lat="43.01658" lon="0.22627">
        <ele>1479.6</ele>
        <time>2023-11-19T13:57:04Z</time>
      </trkpt>
      <trkpt lat="43.01656" lon="0.22627">
        <ele>1479.3</ele>
        <time>2023-11-19T13:57:05Z</time>
      </trkpt>
      <trkpt lat="43.01655" lon="0.22627">
        <ele>1479.1</ele>
        <time>2023-11-19T13:57:06Z</time>
      </trkpt>
      <trkpt lat="43.01656" lon="0.22624">
        <ele>1478.5</ele>
        <time>2023-11-19T13:57:07Z</time>
      </trkpt>
      <trkpt lat="43.01656" lon="0.22622">
        <ele>1478.2</ele>
        <time>2023-11-19T13:57:08Z</time>
      </trkpt>
      <trkpt lat="43.01657" lon="0.22623">
        <ele>1478</ele>
        <time>2023-11-19T13:57:09Z</time>
      </trkpt>
      <trkpt lat="43.01656" lon="0.2262">
        <ele>1477.5</ele>
        <time>2023-11-19T13:57:10Z</time>
      </trkpt>
      <trkpt lat="43.01656" lon="0.22619">
        <ele>1477.3</ele>
        <time>2023-11-19T13:57:11Z</time>
      </trkpt>
      <trkpt lat="43.01656" lon="0.22618">
        <ele>1477</ele>
        <time>2023-11-19T13:57:12Z</time>
      </trkpt>
      <trkpt lat="43.01655" lon="0.22617">
        <ele>1476.7</ele>
        <time>2023-11-19T13:57:13Z</time>
      </trkpt>
      <trkpt lat="43.01656" lon="0.22616">
        <ele>1476.5</ele>
        <time>2023-11-19T13:57:14Z</time>
      </trkpt>
      <trkpt lat="43.01655" lon="0.22616">
        <ele>1476.4</ele>
        <time>2023-11-19T13:57:15Z</time>
      </trkpt>
      <trkpt lat="43.01655" lon="0.22614">
        <ele>1476.1</ele>
        <time>2023-11-19T13:57:16Z</time>
      </trkpt>
      <trkpt lat="43.01654" lon="0.22614">
        <ele>1475.9</ele>
        <time>2023-11-19T13:57:17Z</time>
      </trkpt>
      <trkpt lat="43.01654" lon="0.22613">
        <ele>1475.7</ele>
        <time>2023-11-19T13:57:18Z</time>
      </trkpt>
      <trkpt lat="43.01654" lon="0.22613">
        <ele>1475.6</ele>
        <time>2023-11-19T13:57:19Z</time>
      </trkpt>
      <trkpt lat="43.01654" lon="0.22612">
        <ele>1475.4</ele>
        <time>2023-11-19T13:57:20Z</time>
      </trkpt>
      <trkpt lat="43.01654" lon="0.2261">
        <ele>1475</ele>
        <time>2023-11-19T13:57:21Z</time>
      </trkpt>
      <trkpt lat="43.01655" lon="0.22609">
        <ele>1474.7</ele>
        <time>2023-11-19T13:57:22Z</time>
      </trkpt>
      <trkpt lat="43.01655" lon="0.22608">
        <ele>1474.5</ele>
        <time>2023-11-19T13:57:23Z</time>
      </trkpt>
      <trkpt lat="43.01656" lon="0.22608">
        <ele>1474.3</ele>
        <time>2023-11-19T13:57:24Z</time>
      </trkpt>
      <trkpt lat="43.01656" lon="0.22607">
        <ele>1474.2</ele>
        <time>2023-11-19T13:57:25Z</time>
      </trkpt>
      <trkpt lat="43.01656" lon="0.22606">
        <ele>1474</ele>
        <time>2023-11-19T13:57:26Z</time>
      </trkpt>
      <trkpt lat="43.01656" lon="0.22605">
        <ele>1473.8</ele>
        <time>2023-11-19T13:57:27Z</time>
      </trkpt>
      <trkpt lat="43.01656" lon="0.22605">
        <ele>1473.6</ele>
        <time>2023-11-19T13:57:28Z</time>
      </trkpt>
      <trkpt lat="43.01655" lon="0.22604">
        <ele>1473.4</ele>
        <time>2023-11-19T13:57:29Z</time>
      </trkpt>
      <trkpt lat="43.01655" lon="0.22602">
        <ele>1473.1</ele>
        <time>2023-11-19T13:57:30Z</time>
      </trkpt>
      <trkpt lat="43.01655" lon="0.22601">
        <ele>1472.8</ele>
        <time>2023-11-19T13:57:31Z</time>
      </trkpt>
      <trkpt lat="43.01656" lon="0.22601">
        <ele>1472.6</ele>
        <time>2023-11-19T13:57:32Z</time>
      </trkpt>
      <trkpt lat="43.01656" lon="0.226">
        <ele>1472.4</ele>
        <time>2023-11-19T13:57:33Z</time>
      </trkpt>
      <trkpt lat="43.01656" lon="0.226">
        <ele>1472.3</ele>
        <time>2023-11-19T13:57:34Z</time>
      </trkpt>
      <trkpt lat="43.01656" lon="0.22598">
        <ele>1471.9</ele>
        <time>2023-11-19T13:57:35Z</time>
      </trkpt>
      <trkpt lat="43.01656" lon="0.22597">
        <ele>1471.7</ele>
        <time>2023-11-19T13:57:36Z</time>
      </trkpt>
      <trkpt lat="43.01657" lon="0.22596">
        <ele>1471.5</ele>
        <time>2023-11-19T13:57:37Z</time>
      </trkpt>
      <trkpt lat="43.01657" lon="0.22595">
        <ele>1471.3</ele>
        <time>2023-11-19T13:57:38Z</time>
      </trkpt>
      <trkpt lat="43.01657" lon="0.22594">
        <ele>1471.1</ele>
        <time>2023-11-19T13:57:39Z</time>
      </trkpt>
      <trkpt lat="43.01658" lon="0.22594">
        <ele>1470.9</ele>
        <time>2023-11-19T13:57:40Z</time>
      </trkpt>
      <trkpt lat="43.01658" lon="0.22593">
        <ele>1470.8</ele>
        <time>2023-11-19T13:57:41Z</time>
      </trkpt>
      <trkpt lat="43.01658" lon="0.22592">
        <ele>1470.6</ele>
        <time>2023-11-19T13:57:42Z</time>
      </trkpt>
      <trkpt lat="43.01657" lon="0.22593">
        <ele>1470.3</ele>
        <time>2023-11-19T13:57:43Z</time>
      </trkpt>
      <trkpt lat="43.01658" lon="0.2259">
        <ele>1469.6</ele>
        <time>2023-11-19T13:57:44Z</time>
      </trkpt>
      <trkpt lat="43.01658" lon="0.22589">
        <ele>1469.4</ele>
        <time>2023-11-19T13:57:45Z</time>
      </trkpt>
      <trkpt lat="43.01659" lon="0.22589">
        <ele>1469.2</ele>
        <time>2023-11-19T13:57:46Z</time>
      </trkpt>
      <trkpt lat="43.01659" lon="0.22588">
        <ele>1469</ele>
        <time>2023-11-19T13:57:47Z</time>
      </trkpt>
      <trkpt lat="43.01659" lon="0.22587">
        <ele>1468.9</ele>
        <time>2023-11-19T13:57:48Z</time>
      </trkpt>
      <trkpt lat="43.01658" lon="0.22585">
        <ele>1468.4</ele>
        <time>2023-11-19T13:57:50Z</time>
      </trkpt>
      <trkpt lat="43.01658" lon="0.22584">
        <ele>1468.2</ele>
        <time>2023-11-19T13:57:51Z</time>
      </trkpt>
      <trkpt lat="43.01657" lon="0.22583">
        <ele>1467.9</ele>
        <time>2023-11-19T13:57:52Z</time>
      </trkpt>
      <trkpt lat="43.01658" lon="0.22582">
        <ele>1467.7</ele>
        <time>2023-11-19T13:57:53Z</time>
      </trkpt>
      <trkpt lat="43.01658" lon="0.22581">
        <ele>1467.4</ele>
        <time>2023-11-19T13:57:54Z</time>
      </trkpt>
      <trkpt lat="43.01658" lon="0.2258">
        <ele>1467.1</ele>
        <time>2023-11-19T13:57:55Z</time>
      </trkpt>
      <trkpt lat="43.01659" lon="0.22578">
        <ele>1466.7</ele>
        <time>2023-11-19T13:57:56Z</time>
      </trkpt>
      <trkpt lat="43.01659" lon="0.22577">
        <ele>1466.5</ele>
        <time>2023-11-19T13:57:57Z</time>
      </trkpt>
      <trkpt lat="43.01659" lon="0.22576">
        <ele>1466.2</ele>
        <time>2023-11-19T13:57:58Z</time>
      </trkpt>
      <trkpt lat="43.0166" lon="0.22576">
        <ele>1466</ele>
        <time>2023-11-19T13:57:59Z</time>
      </trkpt>
      <trkpt lat="43.0166" lon="0.22575">
        <ele>1465.8</ele>
        <time>2023-11-19T13:58:00Z</time>
      </trkpt>
      <trkpt lat="43.0166" lon="0.22574">
        <ele>1465.7</ele>
        <time>2023-11-19T13:58:01Z</time>
      </trkpt>
      <trkpt lat="43.0166" lon="0.22573">
        <ele>1465.5</ele>
        <time>2023-11-19T13:58:02Z</time>
      </trkpt>
      <trkpt lat="43.0166" lon="0.22572">
        <ele>1465.3</ele>
        <time>2023-11-19T13:58:03Z</time>
      </trkpt>
      <trkpt lat="43.01659" lon="0.22572">
        <ele>1464.9</ele>
        <time>2023-11-19T13:58:04Z</time>
      </trkpt>
      <trkpt lat="43.01658" lon="0.2257">
        <ele>1464.6</ele>
        <time>2023-11-19T13:58:05Z</time>
      </trkpt>
      <trkpt lat="43.01659" lon="0.22569">
        <ele>1464.3</ele>
        <time>2023-11-19T13:58:06Z</time>
      </trkpt>
      <trkpt lat="43.01659" lon="0.22568">
        <ele>1464</ele>
        <time>2023-11-19T13:58:07Z</time>
      </trkpt>
      <trkpt lat="43.01659" lon="0.22567">
        <ele>1464</ele>
        <time>2023-11-19T13:58:08Z</time>
      </trkpt>
      <trkpt lat="43.01659" lon="0.22567">
        <ele>1463.8</ele>
        <time>2023-11-19T13:58:09Z</time>
      </trkpt>
      <trkpt lat="43.01659" lon="0.22566">
        <ele>1463.5</ele>
        <time>2023-11-19T13:58:10Z</time>
      </trkpt>
      <trkpt lat="43.01658" lon="0.22565">
        <ele>1463.3</ele>
        <time>2023-11-19T13:58:11Z</time>
      </trkpt>
      <trkpt lat="43.01658" lon="0.22564">
        <ele>1463.1</ele>
        <time>2023-11-19T13:58:12Z</time>
      </trkpt>
      <trkpt lat="43.01658" lon="0.22563">
        <ele>1462.8</ele>
        <time>2023-11-19T13:58:13Z</time>
      </trkpt>
      <trkpt lat="43.01657" lon="0.22563">
        <ele>1462.7</ele>
        <time>2023-11-19T13:58:14Z</time>
      </trkpt>
      <trkpt lat="43.01657" lon="0.22562">
        <ele>1462.5</ele>
        <time>2023-11-19T13:58:15Z</time>
      </trkpt>
      <trkpt lat="43.01657" lon="0.22561">
        <ele>1462.2</ele>
        <time>2023-11-19T13:58:16Z</time>
      </trkpt>
      <trkpt lat="43.01656" lon="0.2256">
        <ele>1462</ele>
        <time>2023-11-19T13:58:17Z</time>
      </trkpt>
      <trkpt lat="43.01657" lon="0.22559">
        <ele>1461.9</ele>
        <time>2023-11-19T13:58:18Z</time>
      </trkpt>
      <trkpt lat="43.01657" lon="0.22559">
        <ele>1461.7</ele>
        <time>2023-11-19T13:58:19Z</time>
      </trkpt>
      <trkpt lat="43.01657" lon="0.22558">
        <ele>1461.5</ele>
        <time>2023-11-19T13:58:20Z</time>
      </trkpt>
      <trkpt lat="43.01657" lon="0.22557">
        <ele>1461.4</ele>
        <time>2023-11-19T13:58:21Z</time>
      </trkpt>
      <trkpt lat="43.01657" lon="0.22556">
        <ele>1461.2</ele>
        <time>2023-11-19T13:58:22Z</time>
      </trkpt>
      <trkpt lat="43.01657" lon="0.22555">
        <ele>1461</ele>
        <time>2023-11-19T13:58:23Z</time>
      </trkpt>
      <trkpt lat="43.01657" lon="0.22554">
        <ele>1460.7</ele>
        <time>2023-11-19T13:58:24Z</time>
      </trkpt>
      <trkpt lat="43.01658" lon="0.22553">
        <ele>1460.4</ele>
        <time>2023-11-19T13:58:25Z</time>
      </trkpt>
      <trkpt lat="43.01658" lon="0.22553">
        <ele>1460.2</ele>
        <time>2023-11-19T13:58:26Z</time>
      </trkpt>
      <trkpt lat="43.01659" lon="0.22552">
        <ele>1460</ele>
        <time>2023-11-19T13:58:27Z</time>
      </trkpt>
      <trkpt lat="43.0166" lon="0.22551">
        <ele>1459.7</ele>
        <time>2023-11-19T13:58:28Z</time>
      </trkpt>
      <trkpt lat="43.0166" lon="0.22549">
        <ele>1459.3</ele>
        <time>2023-11-19T13:58:29Z</time>
      </trkpt>
      <trkpt lat="43.0166" lon="0.22548">
        <ele>1459.1</ele>
        <time>2023-11-19T13:58:30Z</time>
      </trkpt>
      <trkpt lat="43.0166" lon="0.22547">
        <ele>1458.9</ele>
        <time>2023-11-19T13:58:31Z</time>
      </trkpt>
      <trkpt lat="43.0166" lon="0.22546">
        <ele>1458.7</ele>
        <time>2023-11-19T13:58:32Z</time>
      </trkpt>
      <trkpt lat="43.01661" lon="0.22545">
        <ele>1458.5</ele>
        <time>2023-11-19T13:58:33Z</time>
      </trkpt>
      <trkpt lat="43.01661" lon="0.22545">
        <ele>1458.4</ele>
        <time>2023-11-19T13:58:34Z</time>
      </trkpt>
      <trkpt lat="43.01661" lon="0.22544">
        <ele>1458.1</ele>
        <time>2023-11-19T13:58:35Z</time>
      </trkpt>
      <trkpt lat="43.01661" lon="0.22542">
        <ele>1457.8</ele>
        <time>2023-11-19T13:58:36Z</time>
      </trkpt>
      <trkpt lat="43.01661" lon="0.22542">
        <ele>1457.7</ele>
        <time>2023-11-19T13:58:37Z</time>
      </trkpt>
      <trkpt lat="43.01661" lon="0.22541">
        <ele>1457.6</ele>
        <time>2023-11-19T13:58:38Z</time>
      </trkpt>
      <trkpt lat="43.01661" lon="0.2254">
        <ele>1457.3</ele>
        <time>2023-11-19T13:58:39Z</time>
      </trkpt>
      <trkpt lat="43.01662" lon="0.22539">
        <ele>1457.2</ele>
        <time>2023-11-19T13:58:40Z</time>
      </trkpt>
      <trkpt lat="43.01662" lon="0.22538">
        <ele>1457</ele>
        <time>2023-11-19T13:58:41Z</time>
      </trkpt>
      <trkpt lat="43.01662" lon="0.22537">
        <ele>1456.7</ele>
        <time>2023-11-19T13:58:42Z</time>
      </trkpt>
      <trkpt lat="43.01663" lon="0.22535">
        <ele>1456.3</ele>
        <time>2023-11-19T13:58:43Z</time>
      </trkpt>
      <trkpt lat="43.01663" lon="0.22535">
        <ele>1456.1</ele>
        <time>2023-11-19T13:58:44Z</time>
      </trkpt>
      <trkpt lat="43.01664" lon="0.22534">
        <ele>1455.9</ele>
        <time>2023-11-19T13:58:45Z</time>
      </trkpt>
      <trkpt lat="43.01664" lon="0.22533">
        <ele>1455.7</ele>
        <time>2023-11-19T13:58:46Z</time>
      </trkpt>
      <trkpt lat="43.01665" lon="0.22532">
        <ele>1455.5</ele>
        <time>2023-11-19T13:58:47Z</time>
      </trkpt>
      <trkpt lat="43.01666" lon="0.22531">
        <ele>1455.3</ele>
        <time>2023-11-19T13:58:48Z</time>
      </trkpt>
      <trkpt lat="43.01666" lon="0.22531">
        <ele>1455.1</ele>
        <time>2023-11-19T13:58:49Z</time>
      </trkpt>
      <trkpt lat="43.01667" lon="0.2253">
        <ele>1454.8</ele>
        <time>2023-11-19T13:58:50Z</time>
      </trkpt>
      <trkpt lat="43.01667" lon="0.22528">
        <ele>1454.6</ele>
        <time>2023-11-19T13:58:51Z</time>
      </trkpt>
      <trkpt lat="43.01667" lon="0.22528">
        <ele>1454.5</ele>
        <time>2023-11-19T13:58:52Z</time>
      </trkpt>
      <trkpt lat="43.01667" lon="0.22527">
        <ele>1454.3</ele>
        <time>2023-11-19T13:58:53Z</time>
      </trkpt>
      <trkpt lat="43.01668" lon="0.22526">
        <ele>1454</ele>
        <time>2023-11-19T13:58:54Z</time>
      </trkpt>
      <trkpt lat="43.01669" lon="0.22525">
        <ele>1453.7</ele>
        <time>2023-11-19T13:58:55Z</time>
      </trkpt>
      <trkpt lat="43.01669" lon="0.22524">
        <ele>1453.6</ele>
        <time>2023-11-19T13:58:56Z</time>
      </trkpt>
      <trkpt lat="43.01669" lon="0.22523">
        <ele>1453.4</ele>
        <time>2023-11-19T13:58:57Z</time>
      </trkpt>
      <trkpt lat="43.01669" lon="0.22522">
        <ele>1453.2</ele>
        <time>2023-11-19T13:58:58Z</time>
      </trkpt>
      <trkpt lat="43.0167" lon="0.22522">
        <ele>1453.1</ele>
        <time>2023-11-19T13:58:59Z</time>
      </trkpt>
      <trkpt lat="43.0167" lon="0.22521">
        <ele>1453</ele>
        <time>2023-11-19T13:59:00Z</time>
      </trkpt>
      <trkpt lat="43.0167" lon="0.2252">
        <ele>1452.9</ele>
        <time>2023-11-19T13:59:01Z</time>
      </trkpt>
      <trkpt lat="43.0167" lon="0.22519">
        <ele>1452.7</ele>
        <time>2023-11-19T13:59:02Z</time>
      </trkpt>
      <trkpt lat="43.0167" lon="0.22519">
        <ele>1452.6</ele>
        <time>2023-11-19T13:59:03Z</time>
      </trkpt>
      <trkpt lat="43.0167" lon="0.22517">
        <ele>1452.3</ele>
        <time>2023-11-19T13:59:04Z</time>
      </trkpt>
      <trkpt lat="43.0167" lon="0.22516">
        <ele>1452.2</ele>
        <time>2023-11-19T13:59:05Z</time>
      </trkpt>
      <trkpt lat="43.0167" lon="0.22515">
        <ele>1452</ele>
        <time>2023-11-19T13:59:06Z</time>
      </trkpt>
      <trkpt lat="43.0167" lon="0.22514">
        <ele>1451.8</ele>
        <time>2023-11-19T13:59:07Z</time>
      </trkpt>
      <trkpt lat="43.0167" lon="0.22513">
        <ele>1451.6</ele>
        <time>2023-11-19T13:59:08Z</time>
      </trkpt>
      <trkpt lat="43.0167" lon="0.22512">
        <ele>1451.4</ele>
        <time>2023-11-19T13:59:09Z</time>
      </trkpt>
      <trkpt lat="43.0167" lon="0.22511">
        <ele>1451.2</ele>
        <time>2023-11-19T13:59:10Z</time>
      </trkpt>
      <trkpt lat="43.01669" lon="0.2251">
        <ele>1451.1</ele>
        <time>2023-11-19T13:59:11Z</time>
      </trkpt>
      <trkpt lat="43.0167" lon="0.22509">
        <ele>1450.9</ele>
        <time>2023-11-19T13:59:12Z</time>
      </trkpt>
      <trkpt lat="43.0167" lon="0.22508">
        <ele>1450.7</ele>
        <time>2023-11-19T13:59:13Z</time>
      </trkpt>
      <trkpt lat="43.0167" lon="0.22507">
        <ele>1450.6</ele>
        <time>2023-11-19T13:59:14Z</time>
      </trkpt>
      <trkpt lat="43.01671" lon="0.22506">
        <ele>1450.3</ele>
        <time>2023-11-19T13:59:15Z</time>
      </trkpt>
      <trkpt lat="43.01671" lon="0.22505">
        <ele>1450.1</ele>
        <time>2023-11-19T13:59:16Z</time>
      </trkpt>
      <trkpt lat="43.01671" lon="0.22504">
        <ele>1450</ele>
        <time>2023-11-19T13:59:17Z</time>
      </trkpt>
      <trkpt lat="43.01672" lon="0.22504">
        <ele>1449.8</ele>
        <time>2023-11-19T13:59:18Z</time>
      </trkpt>
      <trkpt lat="43.01672" lon="0.22504">
        <ele>1449.7</ele>
        <time>2023-11-19T13:59:19Z</time>
      </trkpt>
      <trkpt lat="43.01672" lon="0.22503">
        <ele>1449.6</ele>
        <time>2023-11-19T13:59:20Z</time>
      </trkpt>
      <trkpt lat="43.01672" lon="0.22502">
        <ele>1449.4</ele>
        <time>2023-11-19T13:59:21Z</time>
      </trkpt>
      <trkpt lat="43.01672" lon="0.22501">
        <ele>1449.2</ele>
        <time>2023-11-19T13:59:22Z</time>
      </trkpt>
      <trkpt lat="43.01672" lon="0.225">
        <ele>1449.1</ele>
        <time>2023-11-19T13:59:23Z</time>
      </trkpt>
      <trkpt lat="43.01671" lon="0.22499">
        <ele>1448.9</ele>
        <time>2023-11-19T13:59:24Z</time>
      </trkpt>
      <trkpt lat="43.01672" lon="0.22498">
        <ele>1448.8</ele>
        <time>2023-11-19T13:59:25Z</time>
      </trkpt>
      <trkpt lat="43.01672" lon="0.22497">
        <ele>1448.5</ele>
        <time>2023-11-19T13:59:26Z</time>
      </trkpt>
      <trkpt lat="43.01673" lon="0.22497">
        <ele>1448.3</ele>
        <time>2023-11-19T13:59:27Z</time>
      </trkpt>
      <trkpt lat="43.01673" lon="0.22496">
        <ele>1448.2</ele>
        <time>2023-11-19T13:59:28Z</time>
      </trkpt>
      <trkpt lat="43.01673" lon="0.22495">
        <ele>1447.9</ele>
        <time>2023-11-19T13:59:29Z</time>
      </trkpt>
      <trkpt lat="43.01673" lon="0.22493">
        <ele>1447.7</ele>
        <time>2023-11-19T13:59:30Z</time>
      </trkpt>
      <trkpt lat="43.01673" lon="0.22492">
        <ele>1447.5</ele>
        <time>2023-11-19T13:59:31Z</time>
      </trkpt>
      <trkpt lat="43.01674" lon="0.22491">
        <ele>1447.3</ele>
        <time>2023-11-19T13:59:32Z</time>
      </trkpt>
      <trkpt lat="43.01674" lon="0.2249">
        <ele>1447.1</ele>
        <time>2023-11-19T13:59:33Z</time>
      </trkpt>
      <trkpt lat="43.01674" lon="0.2249">
        <ele>1447</ele>
        <time>2023-11-19T13:59:34Z</time>
      </trkpt>
      <trkpt lat="43.01674" lon="0.22488">
        <ele>1446.8</ele>
        <time>2023-11-19T13:59:35Z</time>
      </trkpt>
      <trkpt lat="43.01674" lon="0.22488">
        <ele>1446.6</ele>
        <time>2023-11-19T13:59:36Z</time>
      </trkpt>
      <trkpt lat="43.01674" lon="0.22486">
        <ele>1446.4</ele>
        <time>2023-11-19T13:59:37Z</time>
      </trkpt>
      <trkpt lat="43.01674" lon="0.22485">
        <ele>1446.2</ele>
        <time>2023-11-19T13:59:38Z</time>
      </trkpt>
      <trkpt lat="43.01674" lon="0.22485">
        <ele>1446</ele>
        <time>2023-11-19T13:59:39Z</time>
      </trkpt>
      <trkpt lat="43.01674" lon="0.22484">
        <ele>1445.9</ele>
        <time>2023-11-19T13:59:40Z</time>
      </trkpt>
      <trkpt lat="43.01673" lon="0.22482">
        <ele>1445.6</ele>
        <time>2023-11-19T13:59:41Z</time>
      </trkpt>
      <trkpt lat="43.01674" lon="0.22481">
        <ele>1445.4</ele>
        <time>2023-11-19T13:59:42Z</time>
      </trkpt>
      <trkpt lat="43.01674" lon="0.22479">
        <ele>1445.1</ele>
        <time>2023-11-19T13:59:43Z</time>
      </trkpt>
      <trkpt lat="43.01673" lon="0.22478">
        <ele>1444.9</ele>
        <time>2023-11-19T13:59:44Z</time>
      </trkpt>
      <trkpt lat="43.01673" lon="0.22478">
        <ele>1444.8</ele>
        <time>2023-11-19T13:59:45Z</time>
      </trkpt>
      <trkpt lat="43.01673" lon="0.22477">
        <ele>1444.6</ele>
        <time>2023-11-19T13:59:46Z</time>
      </trkpt>
      <trkpt lat="43.01673" lon="0.22476">
        <ele>1444.4</ele>
        <time>2023-11-19T13:59:47Z</time>
      </trkpt>
      <trkpt lat="43.01674" lon="0.22475">
        <ele>1444.2</ele>
        <time>2023-11-19T13:59:48Z</time>
      </trkpt>
      <trkpt lat="43.01674" lon="0.22474">
        <ele>1443.9</ele>
        <time>2023-11-19T13:59:49Z</time>
      </trkpt>
      <trkpt lat="43.01675" lon="0.22474">
        <ele>1443.8</ele>
        <time>2023-11-19T13:59:50Z</time>
      </trkpt>
      <trkpt lat="43.01676" lon="0.22473">
        <ele>1443.5</ele>
        <time>2023-11-19T13:59:51Z</time>
      </trkpt>
      <trkpt lat="43.01676" lon="0.22471">
        <ele>1443.3</ele>
        <time>2023-11-19T13:59:52Z</time>
      </trkpt>
      <trkpt lat="43.01676" lon="0.2247">
        <ele>1443</ele>
        <time>2023-11-19T13:59:53Z</time>
      </trkpt>
      <trkpt lat="43.01677" lon="0.22469">
        <ele>1442.8</ele>
        <time>2023-11-19T13:59:54Z</time>
      </trkpt>
      <trkpt lat="43.01677" lon="0.22468">
        <ele>1442.6</ele>
        <time>2023-11-19T13:59:55Z</time>
      </trkpt>
      <trkpt lat="43.01677" lon="0.22467">
        <ele>1442.5</ele>
        <time>2023-11-19T13:59:56Z</time>
      </trkpt>
      <trkpt lat="43.01677" lon="0.22467">
        <ele>1442.4</ele>
        <time>2023-11-19T13:59:57Z</time>
      </trkpt>
      <trkpt lat="43.01678" lon="0.22466">
        <ele>1442.2</ele>
        <time>2023-11-19T13:59:58Z</time>
      </trkpt>
      <trkpt lat="43.01677" lon="0.22465">
        <ele>1442.1</ele>
        <time>2023-11-19T13:59:59Z</time>
      </trkpt>
      <trkpt lat="43.01677" lon="0.22464">
        <ele>1441.7</ele>
        <time>2023-11-19T14:00:00Z</time>
      </trkpt>
      <trkpt lat="43.01677" lon="0.22463">
        <ele>1441.6</ele>
        <time>2023-11-19T14:00:01Z</time>
      </trkpt>
      <trkpt lat="43.01676" lon="0.22462">
        <ele>1441.4</ele>
        <time>2023-11-19T14:00:02Z</time>
      </trkpt>
      <trkpt lat="43.01676" lon="0.22461">
        <ele>1441.2</ele>
        <time>2023-11-19T14:00:03Z</time>
      </trkpt>
      <trkpt lat="43.01676" lon="0.2246">
        <ele>1441</ele>
        <time>2023-11-19T14:00:04Z</time>
      </trkpt>
      <trkpt lat="43.01676" lon="0.22458">
        <ele>1440.7</ele>
        <time>2023-11-19T14:00:05Z</time>
      </trkpt>
      <trkpt lat="43.01676" lon="0.22457">
        <ele>1440.4</ele>
        <time>2023-11-19T14:00:06Z</time>
      </trkpt>
      <trkpt lat="43.01678" lon="0.22456">
        <ele>1440.1</ele>
        <time>2023-11-19T14:00:07Z</time>
      </trkpt>
      <trkpt lat="43.01678" lon="0.22455">
        <ele>1440</ele>
        <time>2023-11-19T14:00:08Z</time>
      </trkpt>
      <trkpt lat="43.01679" lon="0.22454">
        <ele>1439.7</ele>
        <time>2023-11-19T14:00:09Z</time>
      </trkpt>
      <trkpt lat="43.01679" lon="0.22453">
        <ele>1439.5</ele>
        <time>2023-11-19T14:00:10Z</time>
      </trkpt>
      <trkpt lat="43.01679" lon="0.22452">
        <ele>1439.3</ele>
        <time>2023-11-19T14:00:11Z</time>
      </trkpt>
      <trkpt lat="43.01679" lon="0.22451">
        <ele>1439.2</ele>
        <time>2023-11-19T14:00:12Z</time>
      </trkpt>
      <trkpt lat="43.0168" lon="0.2245">
        <ele>1439.1</ele>
        <time>2023-11-19T14:00:13Z</time>
      </trkpt>
      <trkpt lat="43.0168" lon="0.22449">
        <ele>1438.9</ele>
        <time>2023-11-19T14:00:14Z</time>
      </trkpt>
      <trkpt lat="43.0168" lon="0.22449">
        <ele>1438.8</ele>
        <time>2023-11-19T14:00:15Z</time>
      </trkpt>
      <trkpt lat="43.0168" lon="0.22448">
        <ele>1438.6</ele>
        <time>2023-11-19T14:00:16Z</time>
      </trkpt>
      <trkpt lat="43.0168" lon="0.22447">
        <ele>1438.5</ele>
        <time>2023-11-19T14:00:17Z</time>
      </trkpt>
      <trkpt lat="43.0168" lon="0.22446">
        <ele>1438.4</ele>
        <time>2023-11-19T14:00:18Z</time>
      </trkpt>
      <trkpt lat="43.0168" lon="0.22445">
        <ele>1438.2</ele>
        <time>2023-11-19T14:00:19Z</time>
      </trkpt>
      <trkpt lat="43.01679" lon="0.2244">
        <ele>1437.4</ele>
        <time>2023-11-19T14:00:20Z</time>
      </trkpt>
      <trkpt lat="43.0168" lon="0.2244">
        <ele>1437.3</ele>
        <time>2023-11-19T14:00:21Z</time>
      </trkpt>
      <trkpt lat="43.01679" lon="0.22439">
        <ele>1437.2</ele>
        <time>2023-11-19T14:00:22Z</time>
      </trkpt>
      <trkpt lat="43.01679" lon="0.22438">
        <ele>1437</ele>
        <time>2023-11-19T14:00:23Z</time>
      </trkpt>
      <trkpt lat="43.0168" lon="0.22438">
        <ele>1436.9</ele>
        <time>2023-11-19T14:00:24Z</time>
      </trkpt>
      <trkpt lat="43.0168" lon="0.22437">
        <ele>1436.8</ele>
        <time>2023-11-19T14:00:25Z</time>
      </trkpt>
      <trkpt lat="43.0168" lon="0.22436">
        <ele>1436.6</ele>
        <time>2023-11-19T14:00:26Z</time>
      </trkpt>
      <trkpt lat="43.0168" lon="0.22435">
        <ele>1436.4</ele>
        <time>2023-11-19T14:00:27Z</time>
      </trkpt>
      <trkpt lat="43.0168" lon="0.22434">
        <ele>1436.2</ele>
        <time>2023-11-19T14:00:28Z</time>
      </trkpt>
      <trkpt lat="43.0168" lon="0.22433">
        <ele>1436.1</ele>
        <time>2023-11-19T14:00:29Z</time>
      </trkpt>
      <trkpt lat="43.0168" lon="0.22433">
        <ele>1436</ele>
        <time>2023-11-19T14:00:30Z</time>
      </trkpt>
      <trkpt lat="43.0168" lon="0.22432">
        <ele>1435.9</ele>
        <time>2023-11-19T14:00:31Z</time>
      </trkpt>
      <trkpt lat="43.0168" lon="0.22431">
        <ele>1435.7</ele>
        <time>2023-11-19T14:00:32Z</time>
      </trkpt>
      <trkpt lat="43.01679" lon="0.2243">
        <ele>1435.5</ele>
        <time>2023-11-19T14:00:33Z</time>
      </trkpt>
      <trkpt lat="43.01679" lon="0.2243">
        <ele>1435.4</ele>
        <time>2023-11-19T14:00:34Z</time>
      </trkpt>
      <trkpt lat="43.01679" lon="0.2243">
        <ele>1435.3</ele>
        <time>2023-11-19T14:00:35Z</time>
      </trkpt>
      <trkpt lat="43.01678" lon="0.22429">
        <ele>1435.2</ele>
        <time>2023-11-19T14:00:36Z</time>
      </trkpt>
      <trkpt lat="43.01678" lon="0.2243">
        <ele>1435.2</ele>
        <time>2023-11-19T14:00:37Z</time>
      </trkpt>
      <trkpt lat="43.01678" lon="0.2243">
        <ele>1435.1</ele>
        <time>2023-11-19T14:00:38Z</time>
      </trkpt>
      <trkpt lat="43.01678" lon="0.2243">
        <ele>1435.1</ele>
        <time>2023-11-19T14:00:39Z</time>
      </trkpt>
      <trkpt lat="43.01678" lon="0.2243">
        <ele>1435</ele>
        <time>2023-11-19T14:00:40Z</time>
      </trkpt>
      <trkpt lat="43.01678" lon="0.2243">
        <ele>1435</ele>
        <time>2023-11-19T14:00:41Z</time>
      </trkpt>
      <trkpt lat="43.01678" lon="0.2243">
        <ele>1434.9</ele>
        <time>2023-11-19T14:00:42Z</time>
      </trkpt>
      <trkpt lat="43.01678" lon="0.2243">
        <ele>1434.9</ele>
        <time>2023-11-19T14:00:43Z</time>
      </trkpt>
      <trkpt lat="43.01678" lon="0.2243">
        <ele>1434.9</ele>
        <time>2023-11-19T14:00:44Z</time>
      </trkpt>
      <trkpt lat="43.01678" lon="0.2243">
        <ele>1434.9</ele>
        <time>2023-11-19T14:00:45Z</time>
      </trkpt>
      <trkpt lat="43.01678" lon="0.2243">
        <ele>1434.9</ele>
        <time>2023-11-19T14:00:46Z</time>
      </trkpt>
      <trkpt lat="43.01678" lon="0.2243">
        <ele>1434.9</ele>
        <time>2023-11-19T14:00:47Z</time>
      </trkpt>
      <trkpt lat="43.01678" lon="0.2243">
        <ele>1434.9</ele>
        <time>2023-11-19T14:00:48Z</time>
      </trkpt>
      <trkpt lat="43.01678" lon="0.2243">
        <ele>1434.9</ele>
        <time>2023-11-19T14:00:49Z</time>
      </trkpt>
      <trkpt lat="43.01678" lon="0.2243">
        <ele>1434.9</ele>
        <time>2023-11-19T14:00:50Z</time>
      </trkpt>
      <trkpt lat="43.01678" lon="0.2243">
        <ele>1434.9</ele>
        <time>2023-11-19T14:00:51Z</time>
      </trkpt>
      <trkpt lat="43.01678" lon="0.2243">
        <ele>1434.9</ele>
        <time>2023-11-19T14:00:52Z</time>
      </trkpt>
      <trkpt lat="43.01678" lon="0.2243">
        <ele>1434.9</ele>
        <time>2023-11-19T14:00:53Z</time>
      </trkpt>
      <trkpt lat="43.01678" lon="0.2243">
        <ele>1434.9</ele>
        <time>2023-11-19T14:00:54Z</time>
      </trkpt>
      <trkpt lat="43.01678" lon="0.2243">
        <ele>1434.9</ele>
        <time>2023-11-19T14:00:55Z</time>
      </trkpt>
      <trkpt lat="43.01678" lon="0.2243">
        <ele>1434.9</ele>
        <time>2023-11-19T14:00:56Z</time>
      </trkpt>
      <trkpt lat="43.01677" lon="0.2243">
        <ele>1434.6</ele>
        <time>2023-11-19T14:00:57Z</time>
      </trkpt>
      <trkpt lat="43.01677" lon="0.2243">
        <ele>1434.6</ele>
        <time>2023-11-19T14:00:58Z</time>
      </trkpt>
      <trkpt lat="43.01677" lon="0.2243">
        <ele>1434.6</ele>
        <time>2023-11-19T14:00:59Z</time>
      </trkpt>
      <trkpt lat="43.01677" lon="0.22431">
        <ele>1434.6</ele>
        <time>2023-11-19T14:01:00Z</time>
      </trkpt>
      <trkpt lat="43.01677" lon="0.22431">
        <ele>1434.6</ele>
        <time>2023-11-19T14:01:01Z</time>
      </trkpt>
      <trkpt lat="43.01677" lon="0.22431">
        <ele>1434.6</ele>
        <time>2023-11-19T14:01:02Z</time>
      </trkpt>
      <trkpt lat="43.01677" lon="0.22431">
        <ele>1434.6</ele>
        <time>2023-11-19T14:01:03Z</time>
      </trkpt>
      <trkpt lat="43.01677" lon="0.2243">
        <ele>1434.5</ele>
        <time>2023-11-19T14:01:04Z</time>
      </trkpt>
      <trkpt lat="43.01677" lon="0.2243">
        <ele>1434.5</ele>
        <time>2023-11-19T14:01:05Z</time>
      </trkpt>
      <trkpt lat="43.01677" lon="0.2243">
        <ele>1434.5</ele>
        <time>2023-11-19T14:01:06Z</time>
      </trkpt>
      <trkpt lat="43.01677" lon="0.2243">
        <ele>1434.5</ele>
        <time>2023-11-19T14:01:07Z</time>
      </trkpt>
      <trkpt lat="43.01677" lon="0.2243">
        <ele>1434.5</ele>
        <time>2023-11-19T14:01:08Z</time>
      </trkpt>
      <trkpt lat="43.01677" lon="0.2243">
        <ele>1434.5</ele>
        <time>2023-11-19T14:01:09Z</time>
      </trkpt>
      <trkpt lat="43.01677" lon="0.2243">
        <ele>1434.5</ele>
        <time>2023-11-19T14:01:10Z</time>
      </trkpt>
      <trkpt lat="43.01677" lon="0.22431">
        <ele>1434.3</ele>
        <time>2023-11-19T14:01:11Z</time>
      </trkpt>
      <trkpt lat="43.01677" lon="0.22431">
        <ele>1434.3</ele>
        <time>2023-11-19T14:01:12Z</time>
      </trkpt>
      <trkpt lat="43.01677" lon="0.22431">
        <ele>1434.3</ele>
        <time>2023-11-19T14:01:13Z</time>
      </trkpt>
      <trkpt lat="43.01677" lon="0.22431">
        <ele>1434.3</ele>
        <time>2023-11-19T14:01:14Z</time>
      </trkpt>
      <trkpt lat="43.01677" lon="0.22431">
        <ele>1434.3</ele>
        <time>2023-11-19T14:01:15Z</time>
      </trkpt>
      <trkpt lat="43.01677" lon="0.22431">
        <ele>1434.3</ele>
        <time>2023-11-19T14:01:16Z</time>
      </trkpt>
      <trkpt lat="43.01677" lon="0.22431">
        <ele>1434.3</ele>
        <time>2023-11-19T14:01:17Z</time>
      </trkpt>
      <trkpt lat="43.01677" lon="0.2243">
        <ele>1434.2</ele>
        <time>2023-11-19T14:01:18Z</time>
      </trkpt>
      <trkpt lat="43.01677" lon="0.2243">
        <ele>1434.2</ele>
        <time>2023-11-19T14:01:19Z</time>
      </trkpt>
      <trkpt lat="43.01677" lon="0.2243">
        <ele>1434.2</ele>
        <time>2023-11-19T14:01:20Z</time>
      </trkpt>
      <trkpt lat="43.01677" lon="0.2243">
        <ele>1434.1</ele>
        <time>2023-11-19T14:01:21Z</time>
      </trkpt>
      <trkpt lat="43.01678" lon="0.22431">
        <ele>1434</ele>
        <time>2023-11-19T14:01:22Z</time>
      </trkpt>
      <trkpt lat="43.01678" lon="0.22431">
        <ele>1434</ele>
        <time>2023-11-19T14:01:23Z</time>
      </trkpt>
      <trkpt lat="43.01678" lon="0.22431">
        <ele>1433.9</ele>
        <time>2023-11-19T14:01:24Z</time>
      </trkpt>
      <trkpt lat="43.01677" lon="0.2243">
        <ele>1433.8</ele>
        <time>2023-11-19T14:01:25Z</time>
      </trkpt>
      <trkpt lat="43.01677" lon="0.2243">
        <ele>1433.8</ele>
        <time>2023-11-19T14:01:26Z</time>
      </trkpt>
      <trkpt lat="43.01677" lon="0.2243">
        <ele>1433.8</ele>
        <time>2023-11-19T14:01:27Z</time>
      </trkpt>
      <trkpt lat="43.01677" lon="0.2243">
        <ele>1433.8</ele>
        <time>2023-11-19T14:01:28Z</time>
      </trkpt>
      <trkpt lat="43.01677" lon="0.2243">
        <ele>1433.8</ele>
        <time>2023-11-19T14:01:29Z</time>
      </trkpt>
      <trkpt lat="43.01677" lon="0.2243">
        <ele>1433.8</ele>
        <time>2023-11-19T14:01:30Z</time>
      </trkpt>
      <trkpt lat="43.01677" lon="0.2243">
        <ele>1433.8</ele>
        <time>2023-11-19T14:01:31Z</time>
      </trkpt>
      <trkpt lat="43.01677" lon="0.2243">
        <ele>1433.8</ele>
        <time>2023-11-19T14:01:32Z</time>
      </trkpt>
      <trkpt lat="43.01677" lon="0.2243">
        <ele>1433.8</ele>
        <time>2023-11-19T14:01:33Z</time>
      </trkpt>
      <trkpt lat="43.01677" lon="0.2243">
        <ele>1433.8</ele>
        <time>2023-11-19T14:01:34Z</time>
      </trkpt>
      <trkpt lat="43.01678" lon="0.22429">
        <ele>1433.6</ele>
        <time>2023-11-19T14:01:35Z</time>
      </trkpt>
      <trkpt lat="43.01678" lon="0.22429">
        <ele>1433.5</ele>
        <time>2023-11-19T14:01:36Z</time>
      </trkpt>
      <trkpt lat="43.01678" lon="0.22429">
        <ele>1433.5</ele>
        <time>2023-11-19T14:01:37Z</time>
      </trkpt>
      <trkpt lat="43.01678" lon="0.22429">
        <ele>1433.5</ele>
        <time>2023-11-19T14:01:38Z</time>
      </trkpt>
      <trkpt lat="43.01678" lon="0.22429">
        <ele>1433.5</ele>
        <time>2023-11-19T14:01:39Z</time>
      </trkpt>
      <trkpt lat="43.01677" lon="0.2243">
        <ele>1433.3</ele>
        <time>2023-11-19T14:01:40Z</time>
      </trkpt>
      <trkpt lat="43.01676" lon="0.2243">
        <ele>1433</ele>
        <time>2023-11-19T14:01:41Z</time>
      </trkpt>
      <trkpt lat="43.01676" lon="0.2243">
        <ele>1432.8</ele>
        <time>2023-11-19T14:01:42Z</time>
      </trkpt>
      <trkpt lat="43.01676" lon="0.2243">
        <ele>1432.8</ele>
        <time>2023-11-19T14:01:43Z</time>
      </trkpt>
      <trkpt lat="43.01676" lon="0.22431">
        <ele>1432.7</ele>
        <time>2023-11-19T14:01:44Z</time>
      </trkpt>
      <trkpt lat="43.01675" lon="0.22431">
        <ele>1432.6</ele>
        <time>2023-11-19T14:01:45Z</time>
      </trkpt>
      <trkpt lat="43.01675" lon="0.22431">
        <ele>1432.5</ele>
        <time>2023-11-19T14:01:46Z</time>
      </trkpt>
      <trkpt lat="43.01674" lon="0.22432">
        <ele>1432.2</ele>
        <time>2023-11-19T14:01:47Z</time>
      </trkpt>
      <trkpt lat="43.01673" lon="0.22432">
        <ele>1431.9</ele>
        <time>2023-11-19T14:01:48Z</time>
      </trkpt>
      <trkpt lat="43.01673" lon="0.22433">
        <ele>1431.8</ele>
        <time>2023-11-19T14:01:49Z</time>
      </trkpt>
      <trkpt lat="43.01672" lon="0.22433">
        <ele>1431.5</ele>
        <time>2023-11-19T14:01:50Z</time>
      </trkpt>
      <trkpt lat="43.01672" lon="0.22433">
        <ele>1431.3</ele>
        <time>2023-11-19T14:01:51Z</time>
      </trkpt>
      <trkpt lat="43.01671" lon="0.22433">
        <ele>1431.2</ele>
        <time>2023-11-19T14:01:52Z</time>
      </trkpt>
      <trkpt lat="43.01671" lon="0.22433">
        <ele>1431.1</ele>
        <time>2023-11-19T14:01:53Z</time>
      </trkpt>
      <trkpt lat="43.01671" lon="0.22432">
        <ele>1431</ele>
        <time>2023-11-19T14:01:54Z</time>
      </trkpt>
      <trkpt lat="43.0167" lon="0.22432">
        <ele>1430.9</ele>
        <time>2023-11-19T14:01:55Z</time>
      </trkpt>
      <trkpt lat="43.0167" lon="0.22432">
        <ele>1430.7</ele>
        <time>2023-11-19T14:01:56Z</time>
      </trkpt>
      <trkpt lat="43.01669" lon="0.22433">
        <ele>1430.3</ele>
        <time>2023-11-19T14:01:57Z</time>
      </trkpt>
      <trkpt lat="43.01668" lon="0.22433">
        <ele>1430.1</ele>
        <time>2023-11-19T14:01:58Z</time>
      </trkpt>
      <trkpt lat="43.01668" lon="0.22433">
        <ele>1430</ele>
        <time>2023-11-19T14:01:59Z</time>
      </trkpt>
      <trkpt lat="43.01667" lon="0.22433">
        <ele>1429.8</ele>
        <time>2023-11-19T14:02:00Z</time>
      </trkpt>
      <trkpt lat="43.01667" lon="0.22434">
        <ele>1429.6</ele>
        <time>2023-11-19T14:02:01Z</time>
      </trkpt>
      <trkpt lat="43.01666" lon="0.22434">
        <ele>1429.5</ele>
        <time>2023-11-19T14:02:02Z</time>
      </trkpt>
      <trkpt lat="43.01665" lon="0.22434">
        <ele>1429.2</ele>
        <time>2023-11-19T14:02:03Z</time>
      </trkpt>
      <trkpt lat="43.01665" lon="0.22433">
        <ele>1429</ele>
        <time>2023-11-19T14:02:04Z</time>
      </trkpt>
      <trkpt lat="43.01664" lon="0.22433">
        <ele>1428.8</ele>
        <time>2023-11-19T14:02:05Z</time>
      </trkpt>
      <trkpt lat="43.01663" lon="0.22434">
        <ele>1428.5</ele>
        <time>2023-11-19T14:02:06Z</time>
      </trkpt>
      <trkpt lat="43.01663" lon="0.22434">
        <ele>1428.4</ele>
        <time>2023-11-19T14:02:07Z</time>
      </trkpt>
      <trkpt lat="43.01662" lon="0.22434">
        <ele>1428.2</ele>
        <time>2023-11-19T14:02:08Z</time>
      </trkpt>
      <trkpt lat="43.01662" lon="0.22435">
        <ele>1428</ele>
        <time>2023-11-19T14:02:09Z</time>
      </trkpt>
      <trkpt lat="43.01661" lon="0.22435">
        <ele>1427.7</ele>
        <time>2023-11-19T14:02:10Z</time>
      </trkpt>
      <trkpt lat="43.0166" lon="0.22436">
        <ele>1427.5</ele>
        <time>2023-11-19T14:02:11Z</time>
      </trkpt>
      <trkpt lat="43.0166" lon="0.22435">
        <ele>1427.3</ele>
        <time>2023-11-19T14:02:12Z</time>
      </trkpt>
      <trkpt lat="43.0166" lon="0.22434">
        <ele>1427</ele>
        <time>2023-11-19T14:02:13Z</time>
      </trkpt>
      <trkpt lat="43.0166" lon="0.22433">
        <ele>1426.8</ele>
        <time>2023-11-19T14:02:14Z</time>
      </trkpt>
      <trkpt lat="43.0166" lon="0.22433">
        <ele>1426.7</ele>
        <time>2023-11-19T14:02:15Z</time>
      </trkpt>
      <trkpt lat="43.0166" lon="0.22433">
        <ele>1426.6</ele>
        <time>2023-11-19T14:02:16Z</time>
      </trkpt>
      <trkpt lat="43.0166" lon="0.22433">
        <ele>1426.6</ele>
        <time>2023-11-19T14:02:17Z</time>
      </trkpt>
      <trkpt lat="43.0166" lon="0.22432">
        <ele>1426.5</ele>
        <time>2023-11-19T14:02:18Z</time>
      </trkpt>
      <trkpt lat="43.0166" lon="0.22432">
        <ele>1426.3</ele>
        <time>2023-11-19T14:02:19Z</time>
      </trkpt>
      <trkpt lat="43.0166" lon="0.22431">
        <ele>1426.2</ele>
        <time>2023-11-19T14:02:20Z</time>
      </trkpt>
      <trkpt lat="43.0166" lon="0.22431">
        <ele>1426.2</ele>
        <time>2023-11-19T14:02:21Z</time>
      </trkpt>
      <trkpt lat="43.0166" lon="0.2243">
        <ele>1426</ele>
        <time>2023-11-19T14:02:22Z</time>
      </trkpt>
      <trkpt lat="43.0166" lon="0.2243">
        <ele>1425.9</ele>
        <time>2023-11-19T14:02:23Z</time>
      </trkpt>
      <trkpt lat="43.01659" lon="0.2243">
        <ele>1425.8</ele>
        <time>2023-11-19T14:02:24Z</time>
      </trkpt>
      <trkpt lat="43.01659" lon="0.22429">
        <ele>1425.6</ele>
        <time>2023-11-19T14:02:25Z</time>
      </trkpt>
      <trkpt lat="43.01658" lon="0.2243">
        <ele>1425.5</ele>
        <time>2023-11-19T14:02:26Z</time>
      </trkpt>
      <trkpt lat="43.01658" lon="0.2243">
        <ele>1425.3</ele>
        <time>2023-11-19T14:02:27Z</time>
      </trkpt>
      <trkpt lat="43.01657" lon="0.2243">
        <ele>1425.2</ele>
        <time>2023-11-19T14:02:28Z</time>
      </trkpt>
      <trkpt lat="43.01656" lon="0.2243">
        <ele>1424.8</ele>
        <time>2023-11-19T14:02:29Z</time>
      </trkpt>
      <trkpt lat="43.01655" lon="0.22429">
        <ele>1424.6</ele>
        <time>2023-11-19T14:02:30Z</time>
      </trkpt>
      <trkpt lat="43.01655" lon="0.2243">
        <ele>1424.4</ele>
        <time>2023-11-19T14:02:31Z</time>
      </trkpt>
      <trkpt lat="43.01654" lon="0.2243">
        <ele>1424.3</ele>
        <time>2023-11-19T14:02:32Z</time>
      </trkpt>
      <trkpt lat="43.01654" lon="0.2243">
        <ele>1424.3</ele>
        <time>2023-11-19T14:02:33Z</time>
      </trkpt>
      <trkpt lat="43.01654" lon="0.2243">
        <ele>1424.2</ele>
        <time>2023-11-19T14:02:34Z</time>
      </trkpt>
      <trkpt lat="43.01654" lon="0.22431">
        <ele>1424</ele>
        <time>2023-11-19T14:02:35Z</time>
      </trkpt>
      <trkpt lat="43.01654" lon="0.22431">
        <ele>1423.9</ele>
        <time>2023-11-19T14:02:36Z</time>
      </trkpt>
      <trkpt lat="43.01653" lon="0.22431">
        <ele>1423.8</ele>
        <time>2023-11-19T14:02:37Z</time>
      </trkpt>
      <trkpt lat="43.01652" lon="0.22431">
        <ele>1423.6</ele>
        <time>2023-11-19T14:02:38Z</time>
      </trkpt>
      <trkpt lat="43.01652" lon="0.2243">
        <ele>1423.3</ele>
        <time>2023-11-19T14:02:39Z</time>
      </trkpt>
      <trkpt lat="43.01652" lon="0.22429">
        <ele>1423.2</ele>
        <time>2023-11-19T14:02:40Z</time>
      </trkpt>
      <trkpt lat="43.01652" lon="0.22429">
        <ele>1423.1</ele>
        <time>2023-11-19T14:02:41Z</time>
      </trkpt>
      <trkpt lat="43.01653" lon="0.22429">
        <ele>1423.1</ele>
        <time>2023-11-19T14:02:42Z</time>
      </trkpt>
      <trkpt lat="43.01653" lon="0.22428">
        <ele>1422.9</ele>
        <time>2023-11-19T14:02:43Z</time>
      </trkpt>
      <trkpt lat="43.01653" lon="0.22428">
        <ele>1422.9</ele>
        <time>2023-11-19T14:02:44Z</time>
      </trkpt>
      <trkpt lat="43.01653" lon="0.22428">
        <ele>1422.8</ele>
        <time>2023-11-19T14:02:45Z</time>
      </trkpt>
      <trkpt lat="43.01653" lon="0.22427">
        <ele>1422.7</ele>
        <time>2023-11-19T14:02:46Z</time>
      </trkpt>
      <trkpt lat="43.01652" lon="0.22425">
        <ele>1422.2</ele>
        <time>2023-11-19T14:02:47Z</time>
      </trkpt>
      <trkpt lat="43.01652" lon="0.22425">
        <ele>1422.1</ele>
        <time>2023-11-19T14:02:48Z</time>
      </trkpt>
      <trkpt lat="43.01651" lon="0.22424">
        <ele>1421.9</ele>
        <time>2023-11-19T14:02:49Z</time>
      </trkpt>
      <trkpt lat="43.01651" lon="0.22423">
        <ele>1421.6</ele>
        <time>2023-11-19T14:02:50Z</time>
      </trkpt>
      <trkpt lat="43.01652" lon="0.22423">
        <ele>1421.5</ele>
        <time>2023-11-19T14:02:51Z</time>
      </trkpt>
      <trkpt lat="43.01651" lon="0.22422">
        <ele>1421.4</ele>
        <time>2023-11-19T14:02:52Z</time>
      </trkpt>
      <trkpt lat="43.01652" lon="0.22423">
        <ele>1421.2</ele>
        <time>2023-11-19T14:02:53Z</time>
      </trkpt>
      <trkpt lat="43.01651" lon="0.22424">
        <ele>1421.2</ele>
        <time>2023-11-19T14:02:54Z</time>
      </trkpt>
      <trkpt lat="43.01651" lon="0.22424">
        <ele>1420.9</ele>
        <time>2023-11-19T14:02:55Z</time>
      </trkpt>
      <trkpt lat="43.0165" lon="0.22425">
        <ele>1420.7</ele>
        <time>2023-11-19T14:02:56Z</time>
      </trkpt>
      <trkpt lat="43.0165" lon="0.22425">
        <ele>1420.5</ele>
        <time>2023-11-19T14:02:57Z</time>
      </trkpt>
      <trkpt lat="43.01649" lon="0.22425">
        <ele>1420.3</ele>
        <time>2023-11-19T14:02:58Z</time>
      </trkpt>
      <trkpt lat="43.01649" lon="0.22425">
        <ele>1420.1</ele>
        <time>2023-11-19T14:02:59Z</time>
      </trkpt>
      <trkpt lat="43.01648" lon="0.22425">
        <ele>1419.9</ele>
        <time>2023-11-19T14:03:00Z</time>
      </trkpt>
      <trkpt lat="43.01648" lon="0.22425">
        <ele>1419.6</ele>
        <time>2023-11-19T14:03:01Z</time>
      </trkpt>
      <trkpt lat="43.01648" lon="0.22424">
        <ele>1418.6</ele>
        <time>2023-11-19T14:03:02Z</time>
      </trkpt>
      <trkpt lat="43.01648" lon="0.22423">
        <ele>1418.3</ele>
        <time>2023-11-19T14:03:03Z</time>
      </trkpt>
      <trkpt lat="43.01648" lon="0.22423">
        <ele>1418.1</ele>
        <time>2023-11-19T14:03:04Z</time>
      </trkpt>
      <trkpt lat="43.01648" lon="0.22423">
        <ele>1417.8</ele>
        <time>2023-11-19T14:03:05Z</time>
      </trkpt>
      <trkpt lat="43.01647" lon="0.22423">
        <ele>1417.7</ele>
        <time>2023-11-19T14:03:06Z</time>
      </trkpt>
      <trkpt lat="43.01647" lon="0.22424">
        <ele>1417.5</ele>
        <time>2023-11-19T14:03:07Z</time>
      </trkpt>
      <trkpt lat="43.01647" lon="0.22424">
        <ele>1417.3</ele>
        <time>2023-11-19T14:03:08Z</time>
      </trkpt>
      <trkpt lat="43.01646" lon="0.22424">
        <ele>1417.1</ele>
        <time>2023-11-19T14:03:09Z</time>
      </trkpt>
      <trkpt lat="43.01646" lon="0.22425">
        <ele>1416.9</ele>
        <time>2023-11-19T14:03:10Z</time>
      </trkpt>
      <trkpt lat="43.01645" lon="0.22425">
        <ele>1416.6</ele>
        <time>2023-11-19T14:03:11Z</time>
      </trkpt>
      <trkpt lat="43.01644" lon="0.22425">
        <ele>1415.5</ele>
        <time>2023-11-19T14:03:12Z</time>
      </trkpt>
      <trkpt lat="43.01644" lon="0.22425">
        <ele>1415.3</ele>
        <time>2023-11-19T14:03:13Z</time>
      </trkpt>
      <trkpt lat="43.01644" lon="0.22425">
        <ele>1415.1</ele>
        <time>2023-11-19T14:03:14Z</time>
      </trkpt>
      <trkpt lat="43.01643" lon="0.22425">
        <ele>1414.9</ele>
        <time>2023-11-19T14:03:15Z</time>
      </trkpt>
      <trkpt lat="43.01643" lon="0.22426">
        <ele>1414.7</ele>
        <time>2023-11-19T14:03:16Z</time>
      </trkpt>
      <trkpt lat="43.01642" lon="0.22425">
        <ele>1414.5</ele>
        <time>2023-11-19T14:03:17Z</time>
      </trkpt>
      <trkpt lat="43.01642" lon="0.22424">
        <ele>1414.2</ele>
        <time>2023-11-19T14:03:18Z</time>
      </trkpt>
      <trkpt lat="43.01642" lon="0.22423">
        <ele>1413.1</ele>
        <time>2023-11-19T14:03:19Z</time>
      </trkpt>
      <trkpt lat="43.01642" lon="0.22424">
        <ele>1413.8</ele>
        <time>2023-11-19T14:03:20Z</time>
      </trkpt>
      <trkpt lat="43.01642" lon="0.22422">
        <ele>1412.6</ele>
        <time>2023-11-19T14:03:21Z</time>
      </trkpt>
      <trkpt lat="43.01643" lon="0.22422">
        <ele>1412.4</ele>
        <time>2023-11-19T14:03:22Z</time>
      </trkpt>
      <trkpt lat="43.01644" lon="0.22421">
        <ele>1412.2</ele>
        <time>2023-11-19T14:03:23Z</time>
      </trkpt>
      <trkpt lat="43.01644" lon="0.2242">
        <ele>1412</ele>
        <time>2023-11-19T14:03:24Z</time>
      </trkpt>
      <trkpt lat="43.01643" lon="0.22419">
        <ele>1410.8</ele>
        <time>2023-11-19T14:03:25Z</time>
      </trkpt>
      <trkpt lat="43.01643" lon="0.22417">
        <ele>1410.6</ele>
        <time>2023-11-19T14:03:26Z</time>
      </trkpt>
      <trkpt lat="43.01643" lon="0.22416">
        <ele>1410.4</ele>
        <time>2023-11-19T14:03:27Z</time>
      </trkpt>
      <trkpt lat="43.01642" lon="0.22415">
        <ele>1410.2</ele>
        <time>2023-11-19T14:03:28Z</time>
      </trkpt>
      <trkpt lat="43.01643" lon="0.22415">
        <ele>1410</ele>
        <time>2023-11-19T14:03:29Z</time>
      </trkpt>
      <trkpt lat="43.01643" lon="0.22415">
        <ele>1409.7</ele>
        <time>2023-11-19T14:03:30Z</time>
      </trkpt>
      <trkpt lat="43.01643" lon="0.22414">
        <ele>1408.6</ele>
        <time>2023-11-19T14:03:31Z</time>
      </trkpt>
      <trkpt lat="43.01643" lon="0.22412">
        <ele>1408.4</ele>
        <time>2023-11-19T14:03:32Z</time>
      </trkpt>
      <trkpt lat="43.01642" lon="0.22411">
        <ele>1408.2</ele>
        <time>2023-11-19T14:03:33Z</time>
      </trkpt>
      <trkpt lat="43.01642" lon="0.2241">
        <ele>1407.1</ele>
        <time>2023-11-19T14:03:34Z</time>
      </trkpt>
      <trkpt lat="43.01641" lon="0.22409">
        <ele>1405.9</ele>
        <time>2023-11-19T14:03:35Z</time>
      </trkpt>
      <trkpt lat="43.0164" lon="0.22408">
        <ele>1405.7</ele>
        <time>2023-11-19T14:03:36Z</time>
      </trkpt>
      <trkpt lat="43.0164" lon="0.22407">
        <ele>1405.5</ele>
        <time>2023-11-19T14:03:37Z</time>
      </trkpt>
      <trkpt lat="43.0164" lon="0.22407">
        <ele>1405.3</ele>
        <time>2023-11-19T14:03:38Z</time>
      </trkpt>
      <trkpt lat="43.01639" lon="0.22407">
        <ele>1405.1</ele>
        <time>2023-11-19T14:03:39Z</time>
      </trkpt>
      <trkpt lat="43.01639" lon="0.22407">
        <ele>1404.8</ele>
        <time>2023-11-19T14:03:40Z</time>
      </trkpt>
      <trkpt lat="43.01639" lon="0.22407">
        <ele>1404.6</ele>
        <time>2023-11-19T14:03:41Z</time>
      </trkpt>
      <trkpt lat="43.01638" lon="0.22408">
        <ele>1403.5</ele>
        <time>2023-11-19T14:03:42Z</time>
      </trkpt>
      <trkpt lat="43.01638" lon="0.22408">
        <ele>1403.2</ele>
        <time>2023-11-19T14:03:43Z</time>
      </trkpt>
      <trkpt lat="43.01638" lon="0.22408">
        <ele>1403</ele>
        <time>2023-11-19T14:03:44Z</time>
      </trkpt>
      <trkpt lat="43.01637" lon="0.22408">
        <ele>1402.8</ele>
        <time>2023-11-19T14:03:45Z</time>
      </trkpt>
      <trkpt lat="43.01637" lon="0.22409">
        <ele>1402.6</ele>
        <time>2023-11-19T14:03:46Z</time>
      </trkpt>
      <trkpt lat="43.01636" lon="0.22409">
        <ele>1402.4</ele>
        <time>2023-11-19T14:03:47Z</time>
      </trkpt>
      <trkpt lat="43.01636" lon="0.22409">
        <ele>1402.2</ele>
        <time>2023-11-19T14:03:48Z</time>
      </trkpt>
      <trkpt lat="43.01635" lon="0.22408">
        <ele>1401</ele>
        <time>2023-11-19T14:03:49Z</time>
      </trkpt>
      <trkpt lat="43.01635" lon="0.22408">
        <ele>1400.7</ele>
        <time>2023-11-19T14:03:50Z</time>
      </trkpt>
      <trkpt lat="43.01635" lon="0.22407">
        <ele>1400.5</ele>
        <time>2023-11-19T14:03:51Z</time>
      </trkpt>
      <trkpt lat="43.01635" lon="0.22406">
        <ele>1401.3</ele>
        <time>2023-11-19T14:03:52Z</time>
      </trkpt>
      <trkpt lat="43.01636" lon="0.22406">
        <ele>1400.2</ele>
        <time>2023-11-19T14:03:53Z</time>
      </trkpt>
      <trkpt lat="43.01635" lon="0.22405">
        <ele>1400</ele>
        <time>2023-11-19T14:03:54Z</time>
      </trkpt>
      <trkpt lat="43.01635" lon="0.22404">
        <ele>1399.8</ele>
        <time>2023-11-19T14:03:55Z</time>
      </trkpt>
      <trkpt lat="43.01636" lon="0.22403">
        <ele>1399.6</ele>
        <time>2023-11-19T14:03:56Z</time>
      </trkpt>
      <trkpt lat="43.01636" lon="0.22402">
        <ele>1399.4</ele>
        <time>2023-11-19T14:03:57Z</time>
      </trkpt>
      <trkpt lat="43.01635" lon="0.22402">
        <ele>1398.2</ele>
        <time>2023-11-19T14:03:58Z</time>
      </trkpt>
      <trkpt lat="43.01634" lon="0.22401">
        <ele>1397.1</ele>
        <time>2023-11-19T14:03:59Z</time>
      </trkpt>
      <trkpt lat="43.01633" lon="0.224">
        <ele>1396.9</ele>
        <time>2023-11-19T14:04:00Z</time>
      </trkpt>
      <trkpt lat="43.01632" lon="0.22401">
        <ele>1396.7</ele>
        <time>2023-11-19T14:04:01Z</time>
      </trkpt>
      <trkpt lat="43.01631" lon="0.224">
        <ele>1395.4</ele>
        <time>2023-11-19T14:04:02Z</time>
      </trkpt>
      <trkpt lat="43.01631" lon="0.224">
        <ele>1395.2</ele>
        <time>2023-11-19T14:04:03Z</time>
      </trkpt>
      <trkpt lat="43.0163" lon="0.22398">
        <ele>1395</ele>
        <time>2023-11-19T14:04:04Z</time>
      </trkpt>
      <trkpt lat="43.01629" lon="0.22398">
        <ele>1392.8</ele>
        <time>2023-11-19T14:04:05Z</time>
      </trkpt>
      <trkpt lat="43.01629" lon="0.22397">
        <ele>1392.6</ele>
        <time>2023-11-19T14:04:06Z</time>
      </trkpt>
      <trkpt lat="43.01628" lon="0.22397">
        <ele>1392.4</ele>
        <time>2023-11-19T14:04:07Z</time>
      </trkpt>
      <trkpt lat="43.01627" lon="0.22396">
        <ele>1392.2</ele>
        <time>2023-11-19T14:04:08Z</time>
      </trkpt>
      <trkpt lat="43.01627" lon="0.22395">
        <ele>1392</ele>
        <time>2023-11-19T14:04:09Z</time>
      </trkpt>
      <trkpt lat="43.01626" lon="0.22395">
        <ele>1390.7</ele>
        <time>2023-11-19T14:04:10Z</time>
      </trkpt>
      <trkpt lat="43.01625" lon="0.22395">
        <ele>1390.5</ele>
        <time>2023-11-19T14:04:11Z</time>
      </trkpt>
      <trkpt lat="43.01625" lon="0.22394">
        <ele>1390.2</ele>
        <time>2023-11-19T14:04:12Z</time>
      </trkpt>
      <trkpt lat="43.01624" lon="0.22393">
        <ele>1389.1</ele>
        <time>2023-11-19T14:04:13Z</time>
      </trkpt>
      <trkpt lat="43.01623" lon="0.22393">
        <ele>1388.9</ele>
        <time>2023-11-19T14:04:14Z</time>
      </trkpt>
      <trkpt lat="43.01623" lon="0.22392">
        <ele>1387.5</ele>
        <time>2023-11-19T14:04:15Z</time>
      </trkpt>
      <trkpt lat="43.01621" lon="0.22392">
        <ele>1387.3</ele>
        <time>2023-11-19T14:04:16Z</time>
      </trkpt>
      <trkpt lat="43.01621" lon="0.22392">
        <ele>1387.1</ele>
        <time>2023-11-19T14:04:17Z</time>
      </trkpt>
      <trkpt lat="43.01622" lon="0.2239">
        <ele>1386.9</ele>
        <time>2023-11-19T14:04:18Z</time>
      </trkpt>
      <trkpt lat="43.01622" lon="0.22388">
        <ele>1385.6</ele>
        <time>2023-11-19T14:04:19Z</time>
      </trkpt>
      <trkpt lat="43.01622" lon="0.22387">
        <ele>1385.4</ele>
        <time>2023-11-19T14:04:20Z</time>
      </trkpt>
      <trkpt lat="43.01622" lon="0.22386">
        <ele>1385.2</ele>
        <time>2023-11-19T14:04:21Z</time>
      </trkpt>
      <trkpt lat="43.01621" lon="0.22386">
        <ele>1385</ele>
        <time>2023-11-19T14:04:22Z</time>
      </trkpt>
      <trkpt lat="43.0162" lon="0.22386">
        <ele>1384.8</ele>
        <time>2023-11-19T14:04:23Z</time>
      </trkpt>
      <trkpt lat="43.0162" lon="0.22385">
        <ele>1384.5</ele>
        <time>2023-11-19T14:04:24Z</time>
      </trkpt>
      <trkpt lat="43.01618" lon="0.22387">
        <ele>1383.2</ele>
        <time>2023-11-19T14:04:25Z</time>
      </trkpt>
      <trkpt lat="43.01617" lon="0.22387">
        <ele>1383</ele>
        <time>2023-11-19T14:04:26Z</time>
      </trkpt>
      <trkpt lat="43.01617" lon="0.22384">
        <ele>1382.6</ele>
        <time>2023-11-19T14:04:27Z</time>
      </trkpt>
      <trkpt lat="43.01617" lon="0.22383">
        <ele>1382.4</ele>
        <time>2023-11-19T14:04:28Z</time>
      </trkpt>
      <trkpt lat="43.01617" lon="0.22382">
        <ele>1382.3</ele>
        <time>2023-11-19T14:04:29Z</time>
      </trkpt>
      <trkpt lat="43.01618" lon="0.22379">
        <ele>1381.9</ele>
        <time>2023-11-19T14:04:30Z</time>
      </trkpt>
      <trkpt lat="43.01618" lon="0.22378">
        <ele>1381.7</ele>
        <time>2023-11-19T14:04:31Z</time>
      </trkpt>
      <trkpt lat="43.01619" lon="0.22377">
        <ele>1381.6</ele>
        <time>2023-11-19T14:04:32Z</time>
      </trkpt>
      <trkpt lat="43.01619" lon="0.22375">
        <ele>1381.3</ele>
        <time>2023-11-19T14:04:33Z</time>
      </trkpt>
      <trkpt lat="43.01619" lon="0.22374">
        <ele>1381.1</ele>
        <time>2023-11-19T14:04:34Z</time>
      </trkpt>
      <trkpt lat="43.01619" lon="0.22373">
        <ele>1380.9</ele>
        <time>2023-11-19T14:04:35Z</time>
      </trkpt>
      <trkpt lat="43.01619" lon="0.22372">
        <ele>1380.9</ele>
        <time>2023-11-19T14:04:36Z</time>
      </trkpt>
      <trkpt lat="43.01618" lon="0.22372">
        <ele>1380.7</ele>
        <time>2023-11-19T14:04:37Z</time>
      </trkpt>
      <trkpt lat="43.01618" lon="0.22371">
        <ele>1380.5</ele>
        <time>2023-11-19T14:04:38Z</time>
      </trkpt>
      <trkpt lat="43.01617" lon="0.22371">
        <ele>1380.4</ele>
        <time>2023-11-19T14:04:39Z</time>
      </trkpt>
      <trkpt lat="43.01616" lon="0.22372">
        <ele>1380.2</ele>
        <time>2023-11-19T14:04:40Z</time>
      </trkpt>
      <trkpt lat="43.01614" lon="0.22372">
        <ele>1379.8</ele>
        <time>2023-11-19T14:04:41Z</time>
      </trkpt>
      <trkpt lat="43.01613" lon="0.22372">
        <ele>1379.6</ele>
        <time>2023-11-19T14:04:42Z</time>
      </trkpt>
      <trkpt lat="43.01613" lon="0.22372">
        <ele>1379.4</ele>
        <time>2023-11-19T14:04:43Z</time>
      </trkpt>
      <trkpt lat="43.01613" lon="0.2237">
        <ele>1379.2</ele>
        <time>2023-11-19T14:04:44Z</time>
      </trkpt>
      <trkpt lat="43.01613" lon="0.22369">
        <ele>1379</ele>
        <time>2023-11-19T14:04:45Z</time>
      </trkpt>
      <trkpt lat="43.01612" lon="0.22368">
        <ele>1378.8</ele>
        <time>2023-11-19T14:04:46Z</time>
      </trkpt>
      <trkpt lat="43.01612" lon="0.22367">
        <ele>1378.6</ele>
        <time>2023-11-19T14:04:47Z</time>
      </trkpt>
      <trkpt lat="43.01613" lon="0.22366">
        <ele>1378.5</ele>
        <time>2023-11-19T14:04:48Z</time>
      </trkpt>
      <trkpt lat="43.01613" lon="0.22365">
        <ele>1378.3</ele>
        <time>2023-11-19T14:04:49Z</time>
      </trkpt>
      <trkpt lat="43.01613" lon="0.22364">
        <ele>1378.1</ele>
        <time>2023-11-19T14:04:50Z</time>
      </trkpt>
      <trkpt lat="43.01613" lon="0.22363">
        <ele>1378</ele>
        <time>2023-11-19T14:04:51Z</time>
      </trkpt>
      <trkpt lat="43.01613" lon="0.22362">
        <ele>1377.8</ele>
        <time>2023-11-19T14:04:52Z</time>
      </trkpt>
      <trkpt lat="43.01613" lon="0.22362">
        <ele>1377.7</ele>
        <time>2023-11-19T14:04:53Z</time>
      </trkpt>
      <trkpt lat="43.01613" lon="0.22362">
        <ele>1377.6</ele>
        <time>2023-11-19T14:04:54Z</time>
      </trkpt>
      <trkpt lat="43.01613" lon="0.22362">
        <ele>1377.5</ele>
        <time>2023-11-19T14:04:55Z</time>
      </trkpt>
      <trkpt lat="43.01613" lon="0.22363">
        <ele>1377.4</ele>
        <time>2023-11-19T14:04:56Z</time>
      </trkpt>
      <trkpt lat="43.01613" lon="0.22362">
        <ele>1377.2</ele>
        <time>2023-11-19T14:04:57Z</time>
      </trkpt>
      <trkpt lat="43.01613" lon="0.22362">
        <ele>1377.1</ele>
        <time>2023-11-19T14:04:58Z</time>
      </trkpt>
      <trkpt lat="43.01614" lon="0.22362">
        <ele>1377</ele>
        <time>2023-11-19T14:04:59Z</time>
      </trkpt>
      <trkpt lat="43.01614" lon="0.22361">
        <ele>1377</ele>
        <time>2023-11-19T14:05:00Z</time>
      </trkpt>
      <trkpt lat="43.01613" lon="0.22361">
        <ele>1376.9</ele>
        <time>2023-11-19T14:05:01Z</time>
      </trkpt>
      <trkpt lat="43.01613" lon="0.22359">
        <ele>1376.6</ele>
        <time>2023-11-19T14:05:02Z</time>
      </trkpt>
      <trkpt lat="43.01614" lon="0.22358">
        <ele>1376.4</ele>
        <time>2023-11-19T14:05:03Z</time>
      </trkpt>
      <trkpt lat="43.01614" lon="0.22357">
        <ele>1376.3</ele>
        <time>2023-11-19T14:05:04Z</time>
      </trkpt>
      <trkpt lat="43.01614" lon="0.22356">
        <ele>1376.1</ele>
        <time>2023-11-19T14:05:05Z</time>
      </trkpt>
      <trkpt lat="43.01614" lon="0.22355">
        <ele>1375.8</ele>
        <time>2023-11-19T14:05:06Z</time>
      </trkpt>
      <trkpt lat="43.01614" lon="0.22354">
        <ele>1375.6</ele>
        <time>2023-11-19T14:05:07Z</time>
      </trkpt>
      <trkpt lat="43.01615" lon="0.22353">
        <ele>1375.4</ele>
        <time>2023-11-19T14:05:08Z</time>
      </trkpt>
      <trkpt lat="43.01614" lon="0.22352">
        <ele>1375.3</ele>
        <time>2023-11-19T14:05:09Z</time>
      </trkpt>
      <trkpt lat="43.01614" lon="0.22351">
        <ele>1375.2</ele>
        <time>2023-11-19T14:05:10Z</time>
      </trkpt>
      <trkpt lat="43.01614" lon="0.22351">
        <ele>1375.1</ele>
        <time>2023-11-19T14:05:11Z</time>
      </trkpt>
      <trkpt lat="43.01614" lon="0.2235">
        <ele>1375</ele>
        <time>2023-11-19T14:05:12Z</time>
      </trkpt>
      <trkpt lat="43.01615" lon="0.22349">
        <ele>1374.8</ele>
        <time>2023-11-19T14:05:13Z</time>
      </trkpt>
      <trkpt lat="43.01615" lon="0.22349">
        <ele>1374.7</ele>
        <time>2023-11-19T14:05:14Z</time>
      </trkpt>
      <trkpt lat="43.01615" lon="0.22347">
        <ele>1374.4</ele>
        <time>2023-11-19T14:05:15Z</time>
      </trkpt>
      <trkpt lat="43.01615" lon="0.22346">
        <ele>1374.2</ele>
        <time>2023-11-19T14:05:16Z</time>
      </trkpt>
      <trkpt lat="43.01616" lon="0.22345">
        <ele>1374.1</ele>
        <time>2023-11-19T14:05:17Z</time>
      </trkpt>
      <trkpt lat="43.01615" lon="0.22344">
        <ele>1373.9</ele>
        <time>2023-11-19T14:05:18Z</time>
      </trkpt>
      <trkpt lat="43.01615" lon="0.22344">
        <ele>1373.7</ele>
        <time>2023-11-19T14:05:19Z</time>
      </trkpt>
      <trkpt lat="43.01615" lon="0.22342">
        <ele>1373.5</ele>
        <time>2023-11-19T14:05:20Z</time>
      </trkpt>
      <trkpt lat="43.01616" lon="0.22342">
        <ele>1373.4</ele>
        <time>2023-11-19T14:05:21Z</time>
      </trkpt>
      <trkpt lat="43.01615" lon="0.22341">
        <ele>1373.1</ele>
        <time>2023-11-19T14:05:22Z</time>
      </trkpt>
      <trkpt lat="43.01615" lon="0.22339">
        <ele>1372.9</ele>
        <time>2023-11-19T14:05:23Z</time>
      </trkpt>
      <trkpt lat="43.01615" lon="0.22338">
        <ele>1372.7</ele>
        <time>2023-11-19T14:05:24Z</time>
      </trkpt>
      <trkpt lat="43.01615" lon="0.22337">
        <ele>1372.5</ele>
        <time>2023-11-19T14:05:25Z</time>
      </trkpt>
      <trkpt lat="43.01615" lon="0.22336">
        <ele>1372.4</ele>
        <time>2023-11-19T14:05:26Z</time>
      </trkpt>
      <trkpt lat="43.01615" lon="0.22335">
        <ele>1372.2</ele>
        <time>2023-11-19T14:05:27Z</time>
      </trkpt>
      <trkpt lat="43.01616" lon="0.22334">
        <ele>1372</ele>
        <time>2023-11-19T14:05:28Z</time>
      </trkpt>
      <trkpt lat="43.01616" lon="0.22332">
        <ele>1371.7</ele>
        <time>2023-11-19T14:05:29Z</time>
      </trkpt>
      <trkpt lat="43.01617" lon="0.22332">
        <ele>1371.6</ele>
        <time>2023-11-19T14:05:30Z</time>
      </trkpt>
      <trkpt lat="43.01617" lon="0.22331">
        <ele>1371.5</ele>
        <time>2023-11-19T14:05:31Z</time>
      </trkpt>
      <trkpt lat="43.01617" lon="0.2233">
        <ele>1371.3</ele>
        <time>2023-11-19T14:05:32Z</time>
      </trkpt>
      <trkpt lat="43.01617" lon="0.2233">
        <ele>1371.2</ele>
        <time>2023-11-19T14:05:33Z</time>
      </trkpt>
      <trkpt lat="43.01617" lon="0.22329">
        <ele>1371.1</ele>
        <time>2023-11-19T14:05:34Z</time>
      </trkpt>
      <trkpt lat="43.01618" lon="0.22329">
        <ele>1371</ele>
        <time>2023-11-19T14:05:35Z</time>
      </trkpt>
      <trkpt lat="43.01617" lon="0.22328">
        <ele>1370.8</ele>
        <time>2023-11-19T14:05:36Z</time>
      </trkpt>
      <trkpt lat="43.01617" lon="0.22325">
        <ele>1370.5</ele>
        <time>2023-11-19T14:05:37Z</time>
      </trkpt>
      <trkpt lat="43.01617" lon="0.22324">
        <ele>1370.3</ele>
        <time>2023-11-19T14:05:38Z</time>
      </trkpt>
      <trkpt lat="43.01617" lon="0.22323">
        <ele>1370.2</ele>
        <time>2023-11-19T14:05:39Z</time>
      </trkpt>
      <trkpt lat="43.01617" lon="0.22322">
        <ele>1370</ele>
        <time>2023-11-19T14:05:40Z</time>
      </trkpt>
      <trkpt lat="43.01617" lon="0.22321">
        <ele>1369.9</ele>
        <time>2023-11-19T14:05:41Z</time>
      </trkpt>
      <trkpt lat="43.01617" lon="0.2232">
        <ele>1369.8</ele>
        <time>2023-11-19T14:05:42Z</time>
      </trkpt>
      <trkpt lat="43.01617" lon="0.2232">
        <ele>1369.6</ele>
        <time>2023-11-19T14:05:43Z</time>
      </trkpt>
      <trkpt lat="43.01617" lon="0.22318">
        <ele>1369.4</ele>
        <time>2023-11-19T14:05:44Z</time>
      </trkpt>
      <trkpt lat="43.01618" lon="0.22316">
        <ele>1369.2</ele>
        <time>2023-11-19T14:05:45Z</time>
      </trkpt>
      <trkpt lat="43.01618" lon="0.22316">
        <ele>1369.1</ele>
        <time>2023-11-19T14:05:46Z</time>
      </trkpt>
      <trkpt lat="43.01618" lon="0.22314">
        <ele>1368.9</ele>
        <time>2023-11-19T14:05:47Z</time>
      </trkpt>
      <trkpt lat="43.01618" lon="0.22314">
        <ele>1368.8</ele>
        <time>2023-11-19T14:05:48Z</time>
      </trkpt>
      <trkpt lat="43.01618" lon="0.22312">
        <ele>1368.5</ele>
        <time>2023-11-19T14:05:49Z</time>
      </trkpt>
      <trkpt lat="43.01618" lon="0.22309">
        <ele>1368.2</ele>
        <time>2023-11-19T14:05:50Z</time>
      </trkpt>
      <trkpt lat="43.01619" lon="0.22308">
        <ele>1368.1</ele>
        <time>2023-11-19T14:05:51Z</time>
      </trkpt>
      <trkpt lat="43.01619" lon="0.22308">
        <ele>1367.9</ele>
        <time>2023-11-19T14:05:52Z</time>
      </trkpt>
      <trkpt lat="43.0162" lon="0.22307">
        <ele>1367.8</ele>
        <time>2023-11-19T14:05:53Z</time>
      </trkpt>
      <trkpt lat="43.0162" lon="0.22305">
        <ele>1367.6</ele>
        <time>2023-11-19T14:05:54Z</time>
      </trkpt>
      <trkpt lat="43.0162" lon="0.22304">
        <ele>1367.4</ele>
        <time>2023-11-19T14:05:55Z</time>
      </trkpt>
      <trkpt lat="43.0162" lon="0.22302">
        <ele>1367.3</ele>
        <time>2023-11-19T14:05:56Z</time>
      </trkpt>
      <trkpt lat="43.0162" lon="0.22301">
        <ele>1367.1</ele>
        <time>2023-11-19T14:05:57Z</time>
      </trkpt>
      <trkpt lat="43.0162" lon="0.22299">
        <ele>1366.9</ele>
        <time>2023-11-19T14:05:58Z</time>
      </trkpt>
      <trkpt lat="43.0162" lon="0.22298">
        <ele>1366.7</ele>
        <time>2023-11-19T14:05:59Z</time>
      </trkpt>
      <trkpt lat="43.01621" lon="0.22297">
        <ele>1366.6</ele>
        <time>2023-11-19T14:06:00Z</time>
      </trkpt>
      <trkpt lat="43.01622" lon="0.22294">
        <ele>1366.2</ele>
        <time>2023-11-19T14:06:01Z</time>
      </trkpt>
      <trkpt lat="43.01622" lon="0.22294">
        <ele>1366.2</ele>
        <time>2023-11-19T14:06:02Z</time>
      </trkpt>
      <trkpt lat="43.01622" lon="0.22293">
        <ele>1366.1</ele>
        <time>2023-11-19T14:06:03Z</time>
      </trkpt>
      <trkpt lat="43.01623" lon="0.22292">
        <ele>1366</ele>
        <time>2023-11-19T14:06:04Z</time>
      </trkpt>
      <trkpt lat="43.01623" lon="0.2229">
        <ele>1365.7</ele>
        <time>2023-11-19T14:06:05Z</time>
      </trkpt>
      <trkpt lat="43.01623" lon="0.22289">
        <ele>1365.5</ele>
        <time>2023-11-19T14:06:06Z</time>
      </trkpt>
      <trkpt lat="43.01623" lon="0.22287">
        <ele>1365.4</ele>
        <time>2023-11-19T14:06:07Z</time>
      </trkpt>
      <trkpt lat="43.01624" lon="0.22285">
        <ele>1365</ele>
        <time>2023-11-19T14:06:08Z</time>
      </trkpt>
      <trkpt lat="43.01624" lon="0.22284">
        <ele>1364.9</ele>
        <time>2023-11-19T14:06:09Z</time>
      </trkpt>
      <trkpt lat="43.01625" lon="0.22283">
        <ele>1364.7</ele>
        <time>2023-11-19T14:06:10Z</time>
      </trkpt>
      <trkpt lat="43.01625" lon="0.2228">
        <ele>1364.4</ele>
        <time>2023-11-19T14:06:11Z</time>
      </trkpt>
      <trkpt lat="43.01626" lon="0.22279">
        <ele>1364.2</ele>
        <time>2023-11-19T14:06:12Z</time>
      </trkpt>
      <trkpt lat="43.01627" lon="0.22278">
        <ele>1364</ele>
        <time>2023-11-19T14:06:13Z</time>
      </trkpt>
      <trkpt lat="43.01628" lon="0.22277">
        <ele>1363.8</ele>
        <time>2023-11-19T14:06:14Z</time>
      </trkpt>
      <trkpt lat="43.01628" lon="0.22275">
        <ele>1363.6</ele>
        <time>2023-11-19T14:06:15Z</time>
      </trkpt>
      <trkpt lat="43.0163" lon="0.22272">
        <ele>1363</ele>
        <time>2023-11-19T14:06:16Z</time>
      </trkpt>
      <trkpt lat="43.0163" lon="0.22271">
        <ele>1362.9</ele>
        <time>2023-11-19T14:06:17Z</time>
      </trkpt>
      <trkpt lat="43.01629" lon="0.2227">
        <ele>1362.7</ele>
        <time>2023-11-19T14:06:18Z</time>
      </trkpt>
      <trkpt lat="43.01629" lon="0.22268">
        <ele>1362.4</ele>
        <time>2023-11-19T14:06:19Z</time>
      </trkpt>
      <trkpt lat="43.01629" lon="0.22267">
        <ele>1362.2</ele>
        <time>2023-11-19T14:06:20Z</time>
      </trkpt>
      <trkpt lat="43.01629" lon="0.22265">
        <ele>1361.9</ele>
        <time>2023-11-19T14:06:21Z</time>
      </trkpt>
      <trkpt lat="43.01629" lon="0.22261">
        <ele>1361.4</ele>
        <time>2023-11-19T14:06:22Z</time>
      </trkpt>
      <trkpt lat="43.01629" lon="0.2226">
        <ele>1361.2</ele>
        <time>2023-11-19T14:06:23Z</time>
      </trkpt>
      <trkpt lat="43.01629" lon="0.22259">
        <ele>1361</ele>
        <time>2023-11-19T14:06:24Z</time>
      </trkpt>
      <trkpt lat="43.0163" lon="0.22259">
        <ele>1360.9</ele>
        <time>2023-11-19T14:06:25Z</time>
      </trkpt>
      <trkpt lat="43.01631" lon="0.22258">
        <ele>1360.7</ele>
        <time>2023-11-19T14:06:26Z</time>
      </trkpt>
      <trkpt lat="43.0163" lon="0.22258">
        <ele>1360.6</ele>
        <time>2023-11-19T14:06:27Z</time>
      </trkpt>
      <trkpt lat="43.0163" lon="0.22257">
        <ele>1360.3</ele>
        <time>2023-11-19T14:06:28Z</time>
      </trkpt>
      <trkpt lat="43.0163" lon="0.22256">
        <ele>1360.1</ele>
        <time>2023-11-19T14:06:29Z</time>
      </trkpt>
      <trkpt lat="43.0163" lon="0.22254">
        <ele>1359.9</ele>
        <time>2023-11-19T14:06:30Z</time>
      </trkpt>
      <trkpt lat="43.01629" lon="0.22253">
        <ele>1359.7</ele>
        <time>2023-11-19T14:06:31Z</time>
      </trkpt>
      <trkpt lat="43.01629" lon="0.22252">
        <ele>1359.5</ele>
        <time>2023-11-19T14:06:32Z</time>
      </trkpt>
      <trkpt lat="43.0163" lon="0.22251">
        <ele>1359.3</ele>
        <time>2023-11-19T14:06:33Z</time>
      </trkpt>
      <trkpt lat="43.0163" lon="0.22249">
        <ele>1359</ele>
        <time>2023-11-19T14:06:34Z</time>
      </trkpt>
      <trkpt lat="43.0163" lon="0.22249">
        <ele>1358.9</ele>
        <time>2023-11-19T14:06:35Z</time>
      </trkpt>
      <trkpt lat="43.01631" lon="0.22247">
        <ele>1358.7</ele>
        <time>2023-11-19T14:06:36Z</time>
      </trkpt>
      <trkpt lat="43.01631" lon="0.22248">
        <ele>1358.6</ele>
        <time>2023-11-19T14:06:37Z</time>
      </trkpt>
      <trkpt lat="43.01631" lon="0.22248">
        <ele>1358.5</ele>
        <time>2023-11-19T14:06:38Z</time>
      </trkpt>
      <trkpt lat="43.0163" lon="0.22246">
        <ele>1358.3</ele>
        <time>2023-11-19T14:06:39Z</time>
      </trkpt>
      <trkpt lat="43.0163" lon="0.22245">
        <ele>1358</ele>
        <time>2023-11-19T14:06:40Z</time>
      </trkpt>
      <trkpt lat="43.0163" lon="0.22244">
        <ele>1357.8</ele>
        <time>2023-11-19T14:06:41Z</time>
      </trkpt>
      <trkpt lat="43.01629" lon="0.22242">
        <ele>1357.5</ele>
        <time>2023-11-19T14:06:42Z</time>
      </trkpt>
      <trkpt lat="43.0163" lon="0.22241">
        <ele>1357.2</ele>
        <time>2023-11-19T14:06:43Z</time>
      </trkpt>
      <trkpt lat="43.0163" lon="0.22239">
        <ele>1356.9</ele>
        <time>2023-11-19T14:06:44Z</time>
      </trkpt>
      <trkpt lat="43.0163" lon="0.22238">
        <ele>1356.7</ele>
        <time>2023-11-19T14:06:45Z</time>
      </trkpt>
      <trkpt lat="43.0163" lon="0.22237">
        <ele>1356.6</ele>
        <time>2023-11-19T14:06:46Z</time>
      </trkpt>
      <trkpt lat="43.0163" lon="0.22235">
        <ele>1356.3</ele>
        <time>2023-11-19T14:06:47Z</time>
      </trkpt>
      <trkpt lat="43.0163" lon="0.22235">
        <ele>1356.2</ele>
        <time>2023-11-19T14:06:48Z</time>
      </trkpt>
      <trkpt lat="43.01631" lon="0.22234">
        <ele>1356</ele>
        <time>2023-11-19T14:06:49Z</time>
      </trkpt>
      <trkpt lat="43.01631" lon="0.22233">
        <ele>1355.9</ele>
        <time>2023-11-19T14:06:50Z</time>
      </trkpt>
      <trkpt lat="43.01631" lon="0.22232">
        <ele>1355.7</ele>
        <time>2023-11-19T14:06:51Z</time>
      </trkpt>
      <trkpt lat="43.01631" lon="0.22231">
        <ele>1355.4</ele>
        <time>2023-11-19T14:06:52Z</time>
      </trkpt>
      <trkpt lat="43.01631" lon="0.22229">
        <ele>1355.1</ele>
        <time>2023-11-19T14:06:53Z</time>
      </trkpt>
      <trkpt lat="43.01631" lon="0.22227">
        <ele>1354.9</ele>
        <time>2023-11-19T14:06:54Z</time>
      </trkpt>
      <trkpt lat="43.01631" lon="0.22225">
        <ele>1354.6</ele>
        <time>2023-11-19T14:06:55Z</time>
      </trkpt>
      <trkpt lat="43.0163" lon="0.22224">
        <ele>1354.3</ele>
        <time>2023-11-19T14:06:56Z</time>
      </trkpt>
      <trkpt lat="43.0163" lon="0.22223">
        <ele>1354.1</ele>
        <time>2023-11-19T14:06:57Z</time>
      </trkpt>
      <trkpt lat="43.0163" lon="0.22222">
        <ele>1354</ele>
        <time>2023-11-19T14:06:58Z</time>
      </trkpt>
      <trkpt lat="43.0163" lon="0.22221">
        <ele>1353.8</ele>
        <time>2023-11-19T14:06:59Z</time>
      </trkpt>
      <trkpt lat="43.01631" lon="0.2222">
        <ele>1353.4</ele>
        <time>2023-11-19T14:07:00Z</time>
      </trkpt>
      <trkpt lat="43.01631" lon="0.22219">
        <ele>1353.3</ele>
        <time>2023-11-19T14:07:01Z</time>
      </trkpt>
      <trkpt lat="43.01631" lon="0.22218">
        <ele>1353.1</ele>
        <time>2023-11-19T14:07:02Z</time>
      </trkpt>
      <trkpt lat="43.01631" lon="0.22217">
        <ele>1353</ele>
        <time>2023-11-19T14:07:03Z</time>
      </trkpt>
      <trkpt lat="43.01631" lon="0.22218">
        <ele>1352.8</ele>
        <time>2023-11-19T14:07:04Z</time>
      </trkpt>
      <trkpt lat="43.01629" lon="0.22217">
        <ele>1352.5</ele>
        <time>2023-11-19T14:07:05Z</time>
      </trkpt>
      <trkpt lat="43.01629" lon="0.22216">
        <ele>1352.3</ele>
        <time>2023-11-19T14:07:06Z</time>
      </trkpt>
      <trkpt lat="43.01629" lon="0.22214">
        <ele>1352</ele>
        <time>2023-11-19T14:07:07Z</time>
      </trkpt>
      <trkpt lat="43.0163" lon="0.22213">
        <ele>1351.8</ele>
        <time>2023-11-19T14:07:08Z</time>
      </trkpt>
      <trkpt lat="43.0163" lon="0.22212">
        <ele>1351.6</ele>
        <time>2023-11-19T14:07:09Z</time>
      </trkpt>
      <trkpt lat="43.0163" lon="0.22211">
        <ele>1351.5</ele>
        <time>2023-11-19T14:07:10Z</time>
      </trkpt>
      <trkpt lat="43.01631" lon="0.22211">
        <ele>1351.4</ele>
        <time>2023-11-19T14:07:11Z</time>
      </trkpt>
      <trkpt lat="43.01631" lon="0.2221">
        <ele>1351.2</ele>
        <time>2023-11-19T14:07:12Z</time>
      </trkpt>
      <trkpt lat="43.01632" lon="0.22209">
        <ele>1351.1</ele>
        <time>2023-11-19T14:07:13Z</time>
      </trkpt>
      <trkpt lat="43.01631" lon="0.22207">
        <ele>1350.9</ele>
        <time>2023-11-19T14:07:14Z</time>
      </trkpt>
      <trkpt lat="43.01631" lon="0.22206">
        <ele>1350.7</ele>
        <time>2023-11-19T14:07:15Z</time>
      </trkpt>
      <trkpt lat="43.01631" lon="0.22205">
        <ele>1350.6</ele>
        <time>2023-11-19T14:07:16Z</time>
      </trkpt>
      <trkpt lat="43.01631" lon="0.22204">
        <ele>1350.4</ele>
        <time>2023-11-19T14:07:17Z</time>
      </trkpt>
      <trkpt lat="43.0163" lon="0.22202">
        <ele>1350.2</ele>
        <time>2023-11-19T14:07:18Z</time>
      </trkpt>
      <trkpt lat="43.0163" lon="0.22201">
        <ele>1350</ele>
        <time>2023-11-19T14:07:19Z</time>
      </trkpt>
      <trkpt lat="43.0163" lon="0.22199">
        <ele>1349.9</ele>
        <time>2023-11-19T14:07:20Z</time>
      </trkpt>
      <trkpt lat="43.01631" lon="0.22196">
        <ele>1349.6</ele>
        <time>2023-11-19T14:07:21Z</time>
      </trkpt>
      <trkpt lat="43.01632" lon="0.22195">
        <ele>1349.4</ele>
        <time>2023-11-19T14:07:22Z</time>
      </trkpt>
      <trkpt lat="43.01632" lon="0.22196">
        <ele>1349.3</ele>
        <time>2023-11-19T14:07:23Z</time>
      </trkpt>
      <trkpt lat="43.01632" lon="0.22195">
        <ele>1349.3</ele>
        <time>2023-11-19T14:07:24Z</time>
      </trkpt>
      <trkpt lat="43.01633" lon="0.22194">
        <ele>1349.2</ele>
        <time>2023-11-19T14:07:25Z</time>
      </trkpt>
      <trkpt lat="43.01633" lon="0.22193">
        <ele>1349.1</ele>
        <time>2023-11-19T14:07:26Z</time>
      </trkpt>
      <trkpt lat="43.01633" lon="0.22192">
        <ele>1348.9</ele>
        <time>2023-11-19T14:07:27Z</time>
      </trkpt>
      <trkpt lat="43.01634" lon="0.22192">
        <ele>1348.9</ele>
        <time>2023-11-19T14:07:28Z</time>
      </trkpt>
      <trkpt lat="43.01634" lon="0.22191">
        <ele>1348.8</ele>
        <time>2023-11-19T14:07:29Z</time>
      </trkpt>
      <trkpt lat="43.01634" lon="0.22191">
        <ele>1348.8</ele>
        <time>2023-11-19T14:07:30Z</time>
      </trkpt>
      <trkpt lat="43.01635" lon="0.22189">
        <ele>1348.6</ele>
        <time>2023-11-19T14:07:31Z</time>
      </trkpt>
      <trkpt lat="43.01635" lon="0.22189">
        <ele>1348.5</ele>
        <time>2023-11-19T14:07:32Z</time>
      </trkpt>
      <trkpt lat="43.01636" lon="0.22188">
        <ele>1348.4</ele>
        <time>2023-11-19T14:07:33Z</time>
      </trkpt>
      <trkpt lat="43.01636" lon="0.22187">
        <ele>1348.3</ele>
        <time>2023-11-19T14:07:34Z</time>
      </trkpt>
      <trkpt lat="43.01637" lon="0.22186">
        <ele>1348.1</ele>
        <time>2023-11-19T14:07:35Z</time>
      </trkpt>
      <trkpt lat="43.01637" lon="0.22184">
        <ele>1348</ele>
        <time>2023-11-19T14:07:36Z</time>
      </trkpt>
      <trkpt lat="43.01638" lon="0.22184">
        <ele>1347.9</ele>
        <time>2023-11-19T14:07:37Z</time>
      </trkpt>
      <trkpt lat="43.01639" lon="0.22183">
        <ele>1347.7</ele>
        <time>2023-11-19T14:07:38Z</time>
      </trkpt>
      <trkpt lat="43.01639" lon="0.22182">
        <ele>1347.6</ele>
        <time>2023-11-19T14:07:39Z</time>
      </trkpt>
      <trkpt lat="43.01639" lon="0.22181">
        <ele>1347.5</ele>
        <time>2023-11-19T14:07:40Z</time>
      </trkpt>
      <trkpt lat="43.0164" lon="0.22179">
        <ele>1347.3</ele>
        <time>2023-11-19T14:07:41Z</time>
      </trkpt>
      <trkpt lat="43.0164" lon="0.22178">
        <ele>1347.2</ele>
        <time>2023-11-19T14:07:42Z</time>
      </trkpt>
      <trkpt lat="43.0164" lon="0.22177">
        <ele>1347.1</ele>
        <time>2023-11-19T14:07:43Z</time>
      </trkpt>
      <trkpt lat="43.01641" lon="0.22176">
        <ele>1346.9</ele>
        <time>2023-11-19T14:07:44Z</time>
      </trkpt>
      <trkpt lat="43.01641" lon="0.22176">
        <ele>1346.9</ele>
        <time>2023-11-19T14:07:45Z</time>
      </trkpt>
      <trkpt lat="43.01642" lon="0.22175">
        <ele>1346.7</ele>
        <time>2023-11-19T14:07:46Z</time>
      </trkpt>
      <trkpt lat="43.01643" lon="0.22173">
        <ele>1346.6</ele>
        <time>2023-11-19T14:07:47Z</time>
      </trkpt>
      <trkpt lat="43.01643" lon="0.22172">
        <ele>1346.4</ele>
        <time>2023-11-19T14:07:48Z</time>
      </trkpt>
      <trkpt lat="43.01644" lon="0.22171">
        <ele>1346.2</ele>
        <time>2023-11-19T14:07:49Z</time>
      </trkpt>
      <trkpt lat="43.01644" lon="0.22169">
        <ele>1346.1</ele>
        <time>2023-11-19T14:07:50Z</time>
      </trkpt>
      <trkpt lat="43.01645" lon="0.22169">
        <ele>1346</ele>
        <time>2023-11-19T14:07:51Z</time>
      </trkpt>
      <trkpt lat="43.01645" lon="0.22169">
        <ele>1346</ele>
        <time>2023-11-19T14:07:52Z</time>
      </trkpt>
      <trkpt lat="43.01644" lon="0.22169">
        <ele>1344.6</ele>
        <time>2023-11-19T14:07:53Z</time>
      </trkpt>
      <trkpt lat="43.01644" lon="0.22167">
        <ele>1344.6</ele>
        <time>2023-11-19T14:07:54Z</time>
      </trkpt>
      <trkpt lat="43.01643" lon="0.22165">
        <ele>1343.7</ele>
        <time>2023-11-19T14:07:55Z</time>
      </trkpt>
      <trkpt lat="43.01643" lon="0.22165">
        <ele>1343.7</ele>
        <time>2023-11-19T14:07:56Z</time>
      </trkpt>
      <trkpt lat="43.01642" lon="0.22164">
        <ele>1343.8</ele>
        <time>2023-11-19T14:07:57Z</time>
      </trkpt>
      <trkpt lat="43.01642" lon="0.22164">
        <ele>1343.8</ele>
        <time>2023-11-19T14:07:58Z</time>
      </trkpt>
      <trkpt lat="43.01641" lon="0.22162">
        <ele>1342.4</ele>
        <time>2023-11-19T14:07:59Z</time>
      </trkpt>
      <trkpt lat="43.01641" lon="0.22161">
        <ele>1341.4</ele>
        <time>2023-11-19T14:08:00Z</time>
      </trkpt>
      <trkpt lat="43.01641" lon="0.2216">
        <ele>1341.4</ele>
        <time>2023-11-19T14:08:01Z</time>
      </trkpt>
      <trkpt lat="43.0164" lon="0.2216">
        <ele>1341.5</ele>
        <time>2023-11-19T14:08:02Z</time>
      </trkpt>
      <trkpt lat="43.0164" lon="0.22159">
        <ele>1341.5</ele>
        <time>2023-11-19T14:08:03Z</time>
      </trkpt>
      <trkpt lat="43.01639" lon="0.22159">
        <ele>1341.5</ele>
        <time>2023-11-19T14:08:04Z</time>
      </trkpt>
      <trkpt lat="43.01637" lon="0.22159">
        <ele>1340.1</ele>
        <time>2023-11-19T14:08:05Z</time>
      </trkpt>
      <trkpt lat="43.01637" lon="0.22159">
        <ele>1340.1</ele>
        <time>2023-11-19T14:08:06Z</time>
      </trkpt>
      <trkpt lat="43.01636" lon="0.22159">
        <ele>1340.2</ele>
        <time>2023-11-19T14:08:07Z</time>
      </trkpt>
      <trkpt lat="43.01636" lon="0.22158">
        <ele>1340.2</ele>
        <time>2023-11-19T14:08:08Z</time>
      </trkpt>
      <trkpt lat="43.01635" lon="0.22157">
        <ele>1338.8</ele>
        <time>2023-11-19T14:08:09Z</time>
      </trkpt>
      <trkpt lat="43.01634" lon="0.22156">
        <ele>1337.8</ele>
        <time>2023-11-19T14:08:10Z</time>
      </trkpt>
      <trkpt lat="43.01634" lon="0.22155">
        <ele>1337.8</ele>
        <time>2023-11-19T14:08:11Z</time>
      </trkpt>
      <trkpt lat="43.01633" lon="0.22154">
        <ele>1337.9</ele>
        <time>2023-11-19T14:08:12Z</time>
      </trkpt>
      <trkpt lat="43.01633" lon="0.22154">
        <ele>1337.9</ele>
        <time>2023-11-19T14:08:13Z</time>
      </trkpt>
      <trkpt lat="43.01632" lon="0.22153">
        <ele>1336.5</ele>
        <time>2023-11-19T14:08:14Z</time>
      </trkpt>
      <trkpt lat="43.01632" lon="0.22153">
        <ele>1335.5</ele>
        <time>2023-11-19T14:08:15Z</time>
      </trkpt>
      <trkpt lat="43.01631" lon="0.22152">
        <ele>1335.5</ele>
        <time>2023-11-19T14:08:16Z</time>
      </trkpt>
      <trkpt lat="43.0163" lon="0.2215">
        <ele>1335.5</ele>
        <time>2023-11-19T14:08:17Z</time>
      </trkpt>
      <trkpt lat="43.01631" lon="0.22149">
        <ele>1334.5</ele>
        <time>2023-11-19T14:08:18Z</time>
      </trkpt>
      <trkpt lat="43.01631" lon="0.22147">
        <ele>1334.5</ele>
        <time>2023-11-19T14:08:19Z</time>
      </trkpt>
      <trkpt lat="43.01631" lon="0.22146">
        <ele>1334.6</ele>
        <time>2023-11-19T14:08:20Z</time>
      </trkpt>
      <trkpt lat="43.01631" lon="0.22145">
        <ele>1334.6</ele>
        <time>2023-11-19T14:08:21Z</time>
      </trkpt>
      <trkpt lat="43.0163" lon="0.22144">
        <ele>1333.6</ele>
        <time>2023-11-19T14:08:22Z</time>
      </trkpt>
      <trkpt lat="43.01631" lon="0.22145">
        <ele>1334.6</ele>
        <time>2023-11-19T14:08:23Z</time>
      </trkpt>
      <trkpt lat="43.01631" lon="0.22145">
        <ele>1334.7</ele>
        <time>2023-11-19T14:08:24Z</time>
      </trkpt>
      <trkpt lat="43.01631" lon="0.22145">
        <ele>1334.7</ele>
        <time>2023-11-19T14:08:25Z</time>
      </trkpt>
      <trkpt lat="43.0163" lon="0.22145">
        <ele>1334.7</ele>
        <time>2023-11-19T14:08:26Z</time>
      </trkpt>
      <trkpt lat="43.0163" lon="0.22145">
        <ele>1334.7</ele>
        <time>2023-11-19T14:08:27Z</time>
      </trkpt>
      <trkpt lat="43.0163" lon="0.22145">
        <ele>1334.8</ele>
        <time>2023-11-19T14:08:28Z</time>
      </trkpt>
      <trkpt lat="43.0163" lon="0.22145">
        <ele>1334.8</ele>
        <time>2023-11-19T14:08:29Z</time>
      </trkpt>
      <trkpt lat="43.01631" lon="0.22145">
        <ele>1334.8</ele>
        <time>2023-11-19T14:08:30Z</time>
      </trkpt>
      <trkpt lat="43.01631" lon="0.22145">
        <ele>1334.8</ele>
        <time>2023-11-19T14:08:31Z</time>
      </trkpt>
      <trkpt lat="43.01631" lon="0.22145">
        <ele>1334.9</ele>
        <time>2023-11-19T14:08:32Z</time>
      </trkpt>
      <trkpt lat="43.01632" lon="0.22147">
        <ele>1334.9</ele>
        <time>2023-11-19T14:08:33Z</time>
      </trkpt>
      <trkpt lat="43.01632" lon="0.22147">
        <ele>1334.9</ele>
        <time>2023-11-19T14:08:34Z</time>
      </trkpt>
      <trkpt lat="43.01632" lon="0.22147">
        <ele>1334.9</ele>
        <time>2023-11-19T14:08:35Z</time>
      </trkpt>
      <trkpt lat="43.01632" lon="0.22147">
        <ele>1335</ele>
        <time>2023-11-19T14:08:36Z</time>
      </trkpt>
      <trkpt lat="43.01631" lon="0.22146">
        <ele>1335</ele>
        <time>2023-11-19T14:08:37Z</time>
      </trkpt>
      <trkpt lat="43.01631" lon="0.22146">
        <ele>1335</ele>
        <time>2023-11-19T14:08:38Z</time>
      </trkpt>
      <trkpt lat="43.01631" lon="0.22146">
        <ele>1335</ele>
        <time>2023-11-19T14:08:39Z</time>
      </trkpt>
      <trkpt lat="43.01631" lon="0.22146">
        <ele>1335.1</ele>
        <time>2023-11-19T14:08:40Z</time>
      </trkpt>
      <trkpt lat="43.01631" lon="0.22146">
        <ele>1335.1</ele>
        <time>2023-11-19T14:08:41Z</time>
      </trkpt>
      <trkpt lat="43.01631" lon="0.22146">
        <ele>1335.1</ele>
        <time>2023-11-19T14:08:42Z</time>
      </trkpt>
      <trkpt lat="43.01631" lon="0.22146">
        <ele>1335.1</ele>
        <time>2023-11-19T14:08:43Z</time>
      </trkpt>
      <trkpt lat="43.01631" lon="0.22146">
        <ele>1335.2</ele>
        <time>2023-11-19T14:08:44Z</time>
      </trkpt>
      <trkpt lat="43.01631" lon="0.22146">
        <ele>1335.2</ele>
        <time>2023-11-19T14:08:45Z</time>
      </trkpt>
      <trkpt lat="43.01631" lon="0.22146">
        <ele>1335.2</ele>
        <time>2023-11-19T14:08:46Z</time>
      </trkpt>
      <trkpt lat="43.01631" lon="0.22146">
        <ele>1335.2</ele>
        <time>2023-11-19T14:08:47Z</time>
      </trkpt>
      <trkpt lat="43.01631" lon="0.22147">
        <ele>1335.3</ele>
        <time>2023-11-19T14:08:48Z</time>
      </trkpt>
      <trkpt lat="43.01631" lon="0.22146">
        <ele>1335.3</ele>
        <time>2023-11-19T14:08:49Z</time>
      </trkpt>
      <trkpt lat="43.01631" lon="0.22146">
        <ele>1335.3</ele>
        <time>2023-11-19T14:08:50Z</time>
      </trkpt>
      <trkpt lat="43.01631" lon="0.22146">
        <ele>1335.3</ele>
        <time>2023-11-19T14:08:51Z</time>
      </trkpt>
      <trkpt lat="43.01631" lon="0.22145">
        <ele>1335.3</ele>
        <time>2023-11-19T14:08:52Z</time>
      </trkpt>
      <trkpt lat="43.01631" lon="0.22145">
        <ele>1335.4</ele>
        <time>2023-11-19T14:08:53Z</time>
      </trkpt>
      <trkpt lat="43.01631" lon="0.22144">
        <ele>1334.4</ele>
        <time>2023-11-19T14:08:54Z</time>
      </trkpt>
      <trkpt lat="43.01631" lon="0.22144">
        <ele>1335.4</ele>
        <time>2023-11-19T14:08:55Z</time>
      </trkpt>
      <trkpt lat="43.01631" lon="0.22143">
        <ele>1334.4</ele>
        <time>2023-11-19T14:08:56Z</time>
      </trkpt>
      <trkpt lat="43.0163" lon="0.22142">
        <ele>1334.4</ele>
        <time>2023-11-19T14:08:57Z</time>
      </trkpt>
      <trkpt lat="43.0163" lon="0.22141">
        <ele>1334.4</ele>
        <time>2023-11-19T14:08:58Z</time>
      </trkpt>
      <trkpt lat="43.01629" lon="0.22139">
        <ele>1333.5</ele>
        <time>2023-11-19T14:08:59Z</time>
      </trkpt>
      <trkpt lat="43.01629" lon="0.22137">
        <ele>1333.5</ele>
        <time>2023-11-19T14:09:00Z</time>
      </trkpt>
      <trkpt lat="43.01629" lon="0.22136">
        <ele>1331.2</ele>
        <time>2023-11-19T14:09:01Z</time>
      </trkpt>
      <trkpt lat="43.01629" lon="0.22135">
        <ele>1331.2</ele>
        <time>2023-11-19T14:09:02Z</time>
      </trkpt>
      <trkpt lat="43.01629" lon="0.22134">
        <ele>1331.3</ele>
        <time>2023-11-19T14:09:03Z</time>
      </trkpt>
      <trkpt lat="43.01629" lon="0.22133">
        <ele>1331.3</ele>
        <time>2023-11-19T14:09:04Z</time>
      </trkpt>
      <trkpt lat="43.01628" lon="0.22132">
        <ele>1331.3</ele>
        <time>2023-11-19T14:09:05Z</time>
      </trkpt>
      <trkpt lat="43.01628" lon="0.22131">
        <ele>1330.4</ele>
        <time>2023-11-19T14:09:06Z</time>
      </trkpt>
      <trkpt lat="43.01628" lon="0.2213">
        <ele>1330.5</ele>
        <time>2023-11-19T14:09:07Z</time>
      </trkpt>
      <trkpt lat="43.01627" lon="0.22129">
        <ele>1330.5</ele>
        <time>2023-11-19T14:09:08Z</time>
      </trkpt>
      <trkpt lat="43.01627" lon="0.22129">
        <ele>1330.5</ele>
        <time>2023-11-19T14:09:09Z</time>
      </trkpt>
      <trkpt lat="43.01626" lon="0.22128">
        <ele>1330.5</ele>
        <time>2023-11-19T14:09:10Z</time>
      </trkpt>
      <trkpt lat="43.01625" lon="0.22127">
        <ele>1329.3</ele>
        <time>2023-11-19T14:09:11Z</time>
      </trkpt>
      <trkpt lat="43.01624" lon="0.22127">
        <ele>1329.3</ele>
        <time>2023-11-19T14:09:12Z</time>
      </trkpt>
      <trkpt lat="43.01623" lon="0.22127">
        <ele>1329.3</ele>
        <time>2023-11-19T14:09:13Z</time>
      </trkpt>
      <trkpt lat="43.01623" lon="0.22127">
        <ele>1329.4</ele>
        <time>2023-11-19T14:09:14Z</time>
      </trkpt>
      <trkpt lat="43.01622" lon="0.22127">
        <ele>1328.2</ele>
        <time>2023-11-19T14:09:15Z</time>
      </trkpt>
      <trkpt lat="43.01621" lon="0.22128">
        <ele>1328.2</ele>
        <time>2023-11-19T14:09:16Z</time>
      </trkpt>
      <trkpt lat="43.0162" lon="0.22127">
        <ele>1328.2</ele>
        <time>2023-11-19T14:09:17Z</time>
      </trkpt>
      <trkpt lat="43.01619" lon="0.22127">
        <ele>1326.2</ele>
        <time>2023-11-19T14:09:18Z</time>
      </trkpt>
      <trkpt lat="43.01618" lon="0.22127">
        <ele>1326.2</ele>
        <time>2023-11-19T14:09:19Z</time>
      </trkpt>
      <trkpt lat="43.01618" lon="0.22127">
        <ele>1326.2</ele>
        <time>2023-11-19T14:09:20Z</time>
      </trkpt>
      <trkpt lat="43.01618" lon="0.22127">
        <ele>1327.1</ele>
        <time>2023-11-19T14:09:21Z</time>
      </trkpt>
      <trkpt lat="43.01617" lon="0.22126">
        <ele>1326.3</ele>
        <time>2023-11-19T14:09:22Z</time>
      </trkpt>
      <trkpt lat="43.01617" lon="0.22125">
        <ele>1326.3</ele>
        <time>2023-11-19T14:09:23Z</time>
      </trkpt>
      <trkpt lat="43.01617" lon="0.22124">
        <ele>1326.3</ele>
        <time>2023-11-19T14:09:24Z</time>
      </trkpt>
      <trkpt lat="43.01618" lon="0.22122">
        <ele>1325.5</ele>
        <time>2023-11-19T14:09:25Z</time>
      </trkpt>
      <trkpt lat="43.01618" lon="0.22122">
        <ele>1325.5</ele>
        <time>2023-11-19T14:09:26Z</time>
      </trkpt>
      <trkpt lat="43.01618" lon="0.22121">
        <ele>1325.6</ele>
        <time>2023-11-19T14:09:27Z</time>
      </trkpt>
      <trkpt lat="43.01618" lon="0.22121">
        <ele>1325.6</ele>
        <time>2023-11-19T14:09:28Z</time>
      </trkpt>
      <trkpt lat="43.01618" lon="0.22121">
        <ele>1325.6</ele>
        <time>2023-11-19T14:09:29Z</time>
      </trkpt>
      <trkpt lat="43.01618" lon="0.22121">
        <ele>1325.6</ele>
        <time>2023-11-19T14:09:30Z</time>
      </trkpt>
      <trkpt lat="43.01618" lon="0.22121">
        <ele>1325.7</ele>
        <time>2023-11-19T14:09:31Z</time>
      </trkpt>
      <trkpt lat="43.01618" lon="0.22121">
        <ele>1325.7</ele>
        <time>2023-11-19T14:09:32Z</time>
      </trkpt>
      <trkpt lat="43.01618" lon="0.22121">
        <ele>1325.7</ele>
        <time>2023-11-19T14:09:33Z</time>
      </trkpt>
      <trkpt lat="43.01618" lon="0.22121">
        <ele>1325.7</ele>
        <time>2023-11-19T14:09:34Z</time>
      </trkpt>
      <trkpt lat="43.01618" lon="0.22121">
        <ele>1325.8</ele>
        <time>2023-11-19T14:09:35Z</time>
      </trkpt>
      <trkpt lat="43.01618" lon="0.22122">
        <ele>1325.8</ele>
        <time>2023-11-19T14:09:36Z</time>
      </trkpt>
      <trkpt lat="43.01618" lon="0.22122">
        <ele>1325.8</ele>
        <time>2023-11-19T14:09:37Z</time>
      </trkpt>
      <trkpt lat="43.01618" lon="0.2212">
        <ele>1325.8</ele>
        <time>2023-11-19T14:09:38Z</time>
      </trkpt>
      <trkpt lat="43.01618" lon="0.22119">
        <ele>1325.9</ele>
        <time>2023-11-19T14:09:39Z</time>
      </trkpt>
      <trkpt lat="43.01618" lon="0.22117">
        <ele>1325</ele>
        <time>2023-11-19T14:09:40Z</time>
      </trkpt>
      <trkpt lat="43.01618" lon="0.22116">
        <ele>1325</ele>
        <time>2023-11-19T14:09:41Z</time>
      </trkpt>
      <trkpt lat="43.01618" lon="0.22114">
        <ele>1324.1</ele>
        <time>2023-11-19T14:09:42Z</time>
      </trkpt>
      <trkpt lat="43.01618" lon="0.22114">
        <ele>1324.2</ele>
        <time>2023-11-19T14:09:43Z</time>
      </trkpt>
      <trkpt lat="43.01618" lon="0.22113">
        <ele>1324.2</ele>
        <time>2023-11-19T14:09:44Z</time>
      </trkpt>
      <trkpt lat="43.01618" lon="0.22113">
        <ele>1324.2</ele>
        <time>2023-11-19T14:09:45Z</time>
      </trkpt>
      <trkpt lat="43.01618" lon="0.22113">
        <ele>1324.2</ele>
        <time>2023-11-19T14:09:46Z</time>
      </trkpt>
      <trkpt lat="43.01617" lon="0.22112">
        <ele>1324.3</ele>
        <time>2023-11-19T14:09:47Z</time>
      </trkpt>
      <trkpt lat="43.01617" lon="0.22112">
        <ele>1324.3</ele>
        <time>2023-11-19T14:09:48Z</time>
      </trkpt>
      <trkpt lat="43.01617" lon="0.22112">
        <ele>1324.3</ele>
        <time>2023-11-19T14:09:49Z</time>
      </trkpt>
      <trkpt lat="43.01617" lon="0.22112">
        <ele>1324.3</ele>
        <time>2023-11-19T14:09:50Z</time>
      </trkpt>
      <trkpt lat="43.01617" lon="0.22111">
        <ele>1324.4</ele>
        <time>2023-11-19T14:09:51Z</time>
      </trkpt>
      <trkpt lat="43.01617" lon="0.22111">
        <ele>1324.4</ele>
        <time>2023-11-19T14:09:52Z</time>
      </trkpt>
      <trkpt lat="43.01617" lon="0.22111">
        <ele>1324.4</ele>
        <time>2023-11-19T14:09:53Z</time>
      </trkpt>
      <trkpt lat="43.01617" lon="0.2211">
        <ele>1324.4</ele>
        <time>2023-11-19T14:09:54Z</time>
      </trkpt>
      <trkpt lat="43.01617" lon="0.2211">
        <ele>1324.5</ele>
        <time>2023-11-19T14:09:55Z</time>
      </trkpt>
      <trkpt lat="43.01618" lon="0.22109">
        <ele>1323.6</ele>
        <time>2023-11-19T14:09:56Z</time>
      </trkpt>
      <trkpt lat="43.01618" lon="0.22108">
        <ele>1323.6</ele>
        <time>2023-11-19T14:09:57Z</time>
      </trkpt>
      <trkpt lat="43.01618" lon="0.22107">
        <ele>1323.6</ele>
        <time>2023-11-19T14:09:58Z</time>
      </trkpt>
      <trkpt lat="43.01618" lon="0.22108">
        <ele>1323.6</ele>
        <time>2023-11-19T14:09:59Z</time>
      </trkpt>
      <trkpt lat="43.01618" lon="0.22108">
        <ele>1323.7</ele>
        <time>2023-11-19T14:10:00Z</time>
      </trkpt>
      <trkpt lat="43.01618" lon="0.22108">
        <ele>1323.7</ele>
        <time>2023-11-19T14:10:01Z</time>
      </trkpt>
      <trkpt lat="43.01618" lon="0.22108">
        <ele>1323.7</ele>
        <time>2023-11-19T14:10:02Z</time>
      </trkpt>
      <trkpt lat="43.01618" lon="0.22108">
        <ele>1323.7</ele>
        <time>2023-11-19T14:10:03Z</time>
      </trkpt>
      <trkpt lat="43.01618" lon="0.22108">
        <ele>1323.8</ele>
        <time>2023-11-19T14:10:04Z</time>
      </trkpt>
      <trkpt lat="43.01617" lon="0.22108">
        <ele>1323.8</ele>
        <time>2023-11-19T14:10:05Z</time>
      </trkpt>
      <trkpt lat="43.01616" lon="0.22107">
        <ele>1322.6</ele>
        <time>2023-11-19T14:10:06Z</time>
      </trkpt>
      <trkpt lat="43.01615" lon="0.22106">
        <ele>1322.7</ele>
        <time>2023-11-19T14:10:07Z</time>
      </trkpt>
      <trkpt lat="43.01614" lon="0.22106">
        <ele>1322.7</ele>
        <time>2023-11-19T14:10:08Z</time>
      </trkpt>
      <trkpt lat="43.01614" lon="0.22106">
        <ele>1322.7</ele>
        <time>2023-11-19T14:10:09Z</time>
      </trkpt>
      <trkpt lat="43.01613" lon="0.22106">
        <ele>1321.5</ele>
        <time>2023-11-19T14:10:10Z</time>
      </trkpt>
      <trkpt lat="43.01612" lon="0.22106">
        <ele>1321.5</ele>
        <time>2023-11-19T14:10:11Z</time>
      </trkpt>
      <trkpt lat="43.01612" lon="0.22106">
        <ele>1321.6</ele>
        <time>2023-11-19T14:10:12Z</time>
      </trkpt>
      <trkpt lat="43.01611" lon="0.22106">
        <ele>1321.6</ele>
        <time>2023-11-19T14:10:13Z</time>
      </trkpt>
      <trkpt lat="43.01612" lon="0.22105">
        <ele>1320.7</ele>
        <time>2023-11-19T14:10:14Z</time>
      </trkpt>
      <trkpt lat="43.01611" lon="0.22105">
        <ele>1320.7</ele>
        <time>2023-11-19T14:10:15Z</time>
      </trkpt>
      <trkpt lat="43.0161" lon="0.22104">
        <ele>1320.8</ele>
        <time>2023-11-19T14:10:16Z</time>
      </trkpt>
      <trkpt lat="43.0161" lon="0.22103">
        <ele>1319.5</ele>
        <time>2023-11-19T14:10:17Z</time>
      </trkpt>
      <trkpt lat="43.01609" lon="0.22103">
        <ele>1319.6</ele>
        <time>2023-11-19T14:10:18Z</time>
      </trkpt>
      <trkpt lat="43.01608" lon="0.22102">
        <ele>1319.6</ele>
        <time>2023-11-19T14:10:19Z</time>
      </trkpt>
      <trkpt lat="43.01608" lon="0.22101">
        <ele>1318.7</ele>
        <time>2023-11-19T14:10:20Z</time>
      </trkpt>
      <trkpt lat="43.01607" lon="0.22101">
        <ele>1318.7</ele>
        <time>2023-11-19T14:10:21Z</time>
      </trkpt>
      <trkpt lat="43.01606" lon="0.221">
        <ele>1317.6</ele>
        <time>2023-11-19T14:10:22Z</time>
      </trkpt>
      <trkpt lat="43.01605" lon="0.221">
        <ele>1317.6</ele>
        <time>2023-11-19T14:10:23Z</time>
      </trkpt>
      <trkpt lat="43.01605" lon="0.22099">
        <ele>1317.6</ele>
        <time>2023-11-19T14:10:25Z</time>
      </trkpt>
      <trkpt lat="43.01604" lon="0.22096">
        <ele>1316.8</ele>
        <time>2023-11-19T14:10:26Z</time>
      </trkpt>
      <trkpt lat="43.01603" lon="0.22096">
        <ele>1315.6</ele>
        <time>2023-11-19T14:10:28Z</time>
      </trkpt>
      <trkpt lat="43.01601" lon="0.22094">
        <ele>1315.7</ele>
        <time>2023-11-19T14:10:29Z</time>
      </trkpt>
      <trkpt lat="43.01601" lon="0.22093">
        <ele>1315.7</ele>
        <time>2023-11-19T14:10:31Z</time>
      </trkpt>
      <trkpt lat="43.01599" lon="0.22093">
        <ele>1313.8</ele>
        <time>2023-11-19T14:10:32Z</time>
      </trkpt>
      <trkpt lat="43.01598" lon="0.22092">
        <ele>1313.8</ele>
        <time>2023-11-19T14:10:33Z</time>
      </trkpt>
      <trkpt lat="43.01597" lon="0.22092">
        <ele>1312.9</ele>
        <time>2023-11-19T14:10:34Z</time>
      </trkpt>
      <trkpt lat="43.01596" lon="0.22092">
        <ele>1312.9</ele>
        <time>2023-11-19T14:10:35Z</time>
      </trkpt>
      <trkpt lat="43.01596" lon="0.22092">
        <ele>1312.9</ele>
        <time>2023-11-19T14:10:36Z</time>
      </trkpt>
      <trkpt lat="43.01595" lon="0.22092">
        <ele>1313</ele>
        <time>2023-11-19T14:10:38Z</time>
      </trkpt>
      <trkpt lat="43.01593" lon="0.22092">
        <ele>1312.1</ele>
        <time>2023-11-19T14:10:39Z</time>
      </trkpt>
      <trkpt lat="43.01592" lon="0.22091">
        <ele>1312.1</ele>
        <time>2023-11-19T14:10:40Z</time>
      </trkpt>
      <trkpt lat="43.01592" lon="0.22089">
        <ele>1312.1</ele>
        <time>2023-11-19T14:10:41Z</time>
      </trkpt>
      <trkpt lat="43.01592" lon="0.22088">
        <ele>1311.3</ele>
        <time>2023-11-19T14:10:42Z</time>
      </trkpt>
      <trkpt lat="43.01592" lon="0.22087">
        <ele>1311.3</ele>
        <time>2023-11-19T14:10:43Z</time>
      </trkpt>
      <trkpt lat="43.01592" lon="0.22086">
        <ele>1311.4</ele>
        <time>2023-11-19T14:10:44Z</time>
      </trkpt>
      <trkpt lat="43.01591" lon="0.22085">
        <ele>1310.5</ele>
        <time>2023-11-19T14:10:45Z</time>
      </trkpt>
      <trkpt lat="43.0159" lon="0.22084">
        <ele>1309.7</ele>
        <time>2023-11-19T14:10:46Z</time>
      </trkpt>
      <trkpt lat="43.01591" lon="0.22082">
        <ele>1309.7</ele>
        <time>2023-11-19T14:10:47Z</time>
      </trkpt>
      <trkpt lat="43.0159" lon="0.22079">
        <ele>1308.9</ele>
        <time>2023-11-19T14:10:48Z</time>
      </trkpt>
      <trkpt lat="43.0159" lon="0.22078">
        <ele>1308.9</ele>
        <time>2023-11-19T14:10:49Z</time>
      </trkpt>
      <trkpt lat="43.01591" lon="0.22077">
        <ele>1308.9</ele>
        <time>2023-11-19T14:10:50Z</time>
      </trkpt>
      <trkpt lat="43.0159" lon="0.22074">
        <ele>1308.1</ele>
        <time>2023-11-19T14:10:51Z</time>
      </trkpt>
      <trkpt lat="43.01589" lon="0.22073">
        <ele>1308.1</ele>
        <time>2023-11-19T14:10:52Z</time>
      </trkpt>
      <trkpt lat="43.01588" lon="0.22072">
        <ele>1307.2</ele>
        <time>2023-11-19T14:10:53Z</time>
      </trkpt>
      <trkpt lat="43.01587" lon="0.22071">
        <ele>1306.4</ele>
        <time>2023-11-19T14:10:54Z</time>
      </trkpt>
      <trkpt lat="43.01588" lon="0.2207">
        <ele>1306.4</ele>
        <time>2023-11-19T14:10:55Z</time>
      </trkpt>
      <trkpt lat="43.01588" lon="0.22068">
        <ele>1307.3</ele>
        <time>2023-11-19T14:10:56Z</time>
      </trkpt>
      <trkpt lat="43.01589" lon="0.22066">
        <ele>1306.4</ele>
        <time>2023-11-19T14:10:57Z</time>
      </trkpt>
      <trkpt lat="43.01589" lon="0.22066">
        <ele>1306.4</ele>
        <time>2023-11-19T14:10:58Z</time>
      </trkpt>
      <trkpt lat="43.01589" lon="0.22066">
        <ele>1306.5</ele>
        <time>2023-11-19T14:10:59Z</time>
      </trkpt>
      <trkpt lat="43.01589" lon="0.22064">
        <ele>1306.5</ele>
        <time>2023-11-19T14:11:00Z</time>
      </trkpt>
      <trkpt lat="43.01589" lon="0.22063">
        <ele>1306.5</ele>
        <time>2023-11-19T14:11:01Z</time>
      </trkpt>
      <trkpt lat="43.0159" lon="0.22063">
        <ele>1306.5</ele>
        <time>2023-11-19T14:11:02Z</time>
      </trkpt>
      <trkpt lat="43.01589" lon="0.22062">
        <ele>1305.6</ele>
        <time>2023-11-19T14:11:03Z</time>
      </trkpt>
      <trkpt lat="43.0159" lon="0.22062">
        <ele>1305.7</ele>
        <time>2023-11-19T14:11:04Z</time>
      </trkpt>
      <trkpt lat="43.0159" lon="0.22062">
        <ele>1305.7</ele>
        <time>2023-11-19T14:11:05Z</time>
      </trkpt>
      <trkpt lat="43.0159" lon="0.22062">
        <ele>1305.7</ele>
        <time>2023-11-19T14:11:06Z</time>
      </trkpt>
      <trkpt lat="43.0159" lon="0.22062">
        <ele>1305.7</ele>
        <time>2023-11-19T14:11:07Z</time>
      </trkpt>
      <trkpt lat="43.0159" lon="0.22062">
        <ele>1305.8</ele>
        <time>2023-11-19T14:11:08Z</time>
      </trkpt>
      <trkpt lat="43.0159" lon="0.22062">
        <ele>1305.8</ele>
        <time>2023-11-19T14:11:09Z</time>
      </trkpt>
      <trkpt lat="43.0159" lon="0.22062">
        <ele>1305.8</ele>
        <time>2023-11-19T14:11:10Z</time>
      </trkpt>
      <trkpt lat="43.0159" lon="0.22062">
        <ele>1305.8</ele>
        <time>2023-11-19T14:11:11Z</time>
      </trkpt>
      <trkpt lat="43.0159" lon="0.22062">
        <ele>1305.9</ele>
        <time>2023-11-19T14:11:12Z</time>
      </trkpt>
      <trkpt lat="43.0159" lon="0.22062">
        <ele>1305.9</ele>
        <time>2023-11-19T14:11:13Z</time>
      </trkpt>
      <trkpt lat="43.0159" lon="0.22061">
        <ele>1305.9</ele>
        <time>2023-11-19T14:11:14Z</time>
      </trkpt>
      <trkpt lat="43.0159" lon="0.22061">
        <ele>1305.9</ele>
        <time>2023-11-19T14:11:15Z</time>
      </trkpt>
      <trkpt lat="43.0159" lon="0.22061">
        <ele>1306</ele>
        <time>2023-11-19T14:11:16Z</time>
      </trkpt>
      <trkpt lat="43.0159" lon="0.2206">
        <ele>1306</ele>
        <time>2023-11-19T14:11:17Z</time>
      </trkpt>
      <trkpt lat="43.01589" lon="0.22057">
        <ele>1305.1</ele>
        <time>2023-11-19T14:11:18Z</time>
      </trkpt>
      <trkpt lat="43.01589" lon="0.22056">
        <ele>1305.1</ele>
        <time>2023-11-19T14:11:19Z</time>
      </trkpt>
      <trkpt lat="43.01589" lon="0.22054">
        <ele>1304.2</ele>
        <time>2023-11-19T14:11:20Z</time>
      </trkpt>
      <trkpt lat="43.01588" lon="0.22052">
        <ele>1303.4</ele>
        <time>2023-11-19T14:11:21Z</time>
      </trkpt>
      <trkpt lat="43.01588" lon="0.22051">
        <ele>1303.4</ele>
        <time>2023-11-19T14:11:22Z</time>
      </trkpt>
      <trkpt lat="43.01587" lon="0.22049">
        <ele>1302.6</ele>
        <time>2023-11-19T14:11:23Z</time>
      </trkpt>
      <trkpt lat="43.01587" lon="0.22048">
        <ele>1302.6</ele>
        <time>2023-11-19T14:11:24Z</time>
      </trkpt>
      <trkpt lat="43.01587" lon="0.22047">
        <ele>1302.7</ele>
        <time>2023-11-19T14:11:25Z</time>
      </trkpt>
      <trkpt lat="43.01587" lon="0.22046">
        <ele>1302.7</ele>
        <time>2023-11-19T14:11:26Z</time>
      </trkpt>
      <trkpt lat="43.01587" lon="0.22044">
        <ele>1301.9</ele>
        <time>2023-11-19T14:11:27Z</time>
      </trkpt>
      <trkpt lat="43.01587" lon="0.22042">
        <ele>1301.9</ele>
        <time>2023-11-19T14:11:28Z</time>
      </trkpt>
      <trkpt lat="43.01586" lon="0.22042">
        <ele>1302</ele>
        <time>2023-11-19T14:11:29Z</time>
      </trkpt>
      <trkpt lat="43.01585" lon="0.22041">
        <ele>1301.2</ele>
        <time>2023-11-19T14:11:30Z</time>
      </trkpt>
      <trkpt lat="43.01585" lon="0.2204">
        <ele>1300.4</ele>
        <time>2023-11-19T14:11:31Z</time>
      </trkpt>
      <trkpt lat="43.01584" lon="0.22039">
        <ele>1300.4</ele>
        <time>2023-11-19T14:11:32Z</time>
      </trkpt>
      <trkpt lat="43.01584" lon="0.22038">
        <ele>1300.5</ele>
        <time>2023-11-19T14:11:33Z</time>
      </trkpt>
      <trkpt lat="43.01583" lon="0.22038">
        <ele>1300.5</ele>
        <time>2023-11-19T14:11:34Z</time>
      </trkpt>
      <trkpt lat="43.01582" lon="0.22038">
        <ele>1299.7</ele>
        <time>2023-11-19T14:11:35Z</time>
      </trkpt>
      <trkpt lat="43.01581" lon="0.22038">
        <ele>1299.8</ele>
        <time>2023-11-19T14:11:36Z</time>
      </trkpt>
      <trkpt lat="43.01579" lon="0.22038">
        <ele>1299.8</ele>
        <time>2023-11-19T14:11:37Z</time>
      </trkpt>
      <trkpt lat="43.01579" lon="0.22037">
        <ele>1299.1</ele>
        <time>2023-11-19T14:11:38Z</time>
      </trkpt>
      <trkpt lat="43.01578" lon="0.22036">
        <ele>1298.4</ele>
        <time>2023-11-19T14:11:39Z</time>
      </trkpt>
      <trkpt lat="43.01578" lon="0.22034">
        <ele>1298.4</ele>
        <time>2023-11-19T14:11:40Z</time>
      </trkpt>
      <trkpt lat="43.01579" lon="0.22033">
        <ele>1299.1</ele>
        <time>2023-11-19T14:11:41Z</time>
      </trkpt>
      <trkpt lat="43.01579" lon="0.22031">
        <ele>1297.7</ele>
        <time>2023-11-19T14:11:42Z</time>
      </trkpt>
      <trkpt lat="43.01579" lon="0.2203">
        <ele>1298.5</ele>
        <time>2023-11-19T14:11:43Z</time>
      </trkpt>
      <trkpt lat="43.01579" lon="0.22028">
        <ele>1297</ele>
        <time>2023-11-19T14:11:44Z</time>
      </trkpt>
      <trkpt lat="43.01578" lon="0.22025">
        <ele>1297.1</ele>
        <time>2023-11-19T14:11:45Z</time>
      </trkpt>
      <trkpt lat="43.01578" lon="0.22024">
        <ele>1296.3</ele>
        <time>2023-11-19T14:11:46Z</time>
      </trkpt>
      <trkpt lat="43.01579" lon="0.22023">
        <ele>1296.4</ele>
        <time>2023-11-19T14:11:47Z</time>
      </trkpt>
      <trkpt lat="43.01579" lon="0.22021">
        <ele>1297.1</ele>
        <time>2023-11-19T14:11:48Z</time>
      </trkpt>
      <trkpt lat="43.01579" lon="0.2202">
        <ele>1296.4</ele>
        <time>2023-11-19T14:11:49Z</time>
      </trkpt>
      <trkpt lat="43.01578" lon="0.2202">
        <ele>1296.4</ele>
        <time>2023-11-19T14:11:50Z</time>
      </trkpt>
      <trkpt lat="43.01578" lon="0.2202">
        <ele>1295.7</ele>
        <time>2023-11-19T14:11:51Z</time>
      </trkpt>
      <trkpt lat="43.01577" lon="0.22019">
        <ele>1295.8</ele>
        <time>2023-11-19T14:11:52Z</time>
      </trkpt>
      <trkpt lat="43.01577" lon="0.2202">
        <ele>1295.8</ele>
        <time>2023-11-19T14:11:53Z</time>
      </trkpt>
      <trkpt lat="43.01577" lon="0.2202">
        <ele>1295.8</ele>
        <time>2023-11-19T14:11:54Z</time>
      </trkpt>
      <trkpt lat="43.01577" lon="0.2202">
        <ele>1296.6</ele>
        <time>2023-11-19T14:11:55Z</time>
      </trkpt>
      <trkpt lat="43.01577" lon="0.22021">
        <ele>1296.6</ele>
        <time>2023-11-19T14:11:56Z</time>
      </trkpt>
      <trkpt lat="43.01576" lon="0.2202">
        <ele>1296.6</ele>
        <time>2023-11-19T14:11:57Z</time>
      </trkpt>
      <trkpt lat="43.01575" lon="0.22021">
        <ele>1296.1</ele>
        <time>2023-11-19T14:11:58Z</time>
      </trkpt>
      <trkpt lat="43.01574" lon="0.22019">
        <ele>1295.4</ele>
        <time>2023-11-19T14:11:59Z</time>
      </trkpt>
      <trkpt lat="43.01574" lon="0.22019">
        <ele>1295.4</ele>
        <time>2023-11-19T14:12:00Z</time>
      </trkpt>
      <trkpt lat="43.01574" lon="0.22018">
        <ele>1295.5</ele>
        <time>2023-11-19T14:12:01Z</time>
      </trkpt>
      <trkpt lat="43.01574" lon="0.22018">
        <ele>1295.5</ele>
        <time>2023-11-19T14:12:02Z</time>
      </trkpt>
      <trkpt lat="43.01574" lon="0.22018">
        <ele>1295.5</ele>
        <time>2023-11-19T14:12:03Z</time>
      </trkpt>
      <trkpt lat="43.01574" lon="0.22018">
        <ele>1295.5</ele>
        <time>2023-11-19T14:12:04Z</time>
      </trkpt>
      <trkpt lat="43.01574" lon="0.22017">
        <ele>1295.5</ele>
        <time>2023-11-19T14:12:05Z</time>
      </trkpt>
      <trkpt lat="43.01573" lon="0.22017">
        <ele>1295.6</ele>
        <time>2023-11-19T14:12:06Z</time>
      </trkpt>
      <trkpt lat="43.01573" lon="0.22017">
        <ele>1295.6</ele>
        <time>2023-11-19T14:12:07Z</time>
      </trkpt>
      <trkpt lat="43.01573" lon="0.22017">
        <ele>1295.6</ele>
        <time>2023-11-19T14:12:08Z</time>
      </trkpt>
      <trkpt lat="43.01573" lon="0.22016">
        <ele>1295.6</ele>
        <time>2023-11-19T14:12:09Z</time>
      </trkpt>
      <trkpt lat="43.01573" lon="0.22016">
        <ele>1295.7</ele>
        <time>2023-11-19T14:12:10Z</time>
      </trkpt>
      <trkpt lat="43.01573" lon="0.22016">
        <ele>1295.7</ele>
        <time>2023-11-19T14:12:11Z</time>
      </trkpt>
      <trkpt lat="43.01572" lon="0.22016">
        <ele>1295.3</ele>
        <time>2023-11-19T14:12:12Z</time>
      </trkpt>
      <trkpt lat="43.01572" lon="0.22016">
        <ele>1294.7</ele>
        <time>2023-11-19T14:12:13Z</time>
      </trkpt>
      <trkpt lat="43.01572" lon="0.22015">
        <ele>1294.7</ele>
        <time>2023-11-19T14:12:14Z</time>
      </trkpt>
      <trkpt lat="43.01572" lon="0.22015">
        <ele>1294.7</ele>
        <time>2023-11-19T14:12:15Z</time>
      </trkpt>
      <trkpt lat="43.01572" lon="0.22015">
        <ele>1294.7</ele>
        <time>2023-11-19T14:12:16Z</time>
      </trkpt>
      <trkpt lat="43.01572" lon="0.22015">
        <ele>1294.8</ele>
        <time>2023-11-19T14:12:17Z</time>
      </trkpt>
      <trkpt lat="43.01571" lon="0.22014">
        <ele>1294.8</ele>
        <time>2023-11-19T14:12:18Z</time>
      </trkpt>
      <trkpt lat="43.01571" lon="0.22014">
        <ele>1294.8</ele>
        <time>2023-11-19T14:12:19Z</time>
      </trkpt>
      <trkpt lat="43.01571" lon="0.22014">
        <ele>1294.8</ele>
        <time>2023-11-19T14:12:20Z</time>
      </trkpt>
      <trkpt lat="43.01571" lon="0.22014">
        <ele>1294.9</ele>
        <time>2023-11-19T14:12:21Z</time>
      </trkpt>
      <trkpt lat="43.01571" lon="0.22013">
        <ele>1294.9</ele>
        <time>2023-11-19T14:12:22Z</time>
      </trkpt>
      <trkpt lat="43.01571" lon="0.22013">
        <ele>1294.9</ele>
        <time>2023-11-19T14:12:23Z</time>
      </trkpt>
      <trkpt lat="43.01571" lon="0.22013">
        <ele>1294.9</ele>
        <time>2023-11-19T14:12:24Z</time>
      </trkpt>
      <trkpt lat="43.0157" lon="0.22013">
        <ele>1295</ele>
        <time>2023-11-19T14:12:25Z</time>
      </trkpt>
      <trkpt lat="43.0157" lon="0.22012">
        <ele>1295</ele>
        <time>2023-11-19T14:12:26Z</time>
      </trkpt>
      <trkpt lat="43.0157" lon="0.22012">
        <ele>1295</ele>
        <time>2023-11-19T14:12:27Z</time>
      </trkpt>
      <trkpt lat="43.0157" lon="0.22012">
        <ele>1295</ele>
        <time>2023-11-19T14:12:28Z</time>
      </trkpt>
      <trkpt lat="43.0157" lon="0.22012">
        <ele>1295.1</ele>
        <time>2023-11-19T14:12:29Z</time>
      </trkpt>
      <trkpt lat="43.0157" lon="0.22011">
        <ele>1295.1</ele>
        <time>2023-11-19T14:12:31Z</time>
      </trkpt>
      <trkpt lat="43.01569" lon="0.22011">
        <ele>1294.5</ele>
        <time>2023-11-19T14:12:32Z</time>
      </trkpt>
      <trkpt lat="43.01569" lon="0.22011">
        <ele>1294.2</ele>
        <time>2023-11-19T14:12:33Z</time>
      </trkpt>
      <trkpt lat="43.01569" lon="0.22011">
        <ele>1294.2</ele>
        <time>2023-11-19T14:12:34Z</time>
      </trkpt>
      <trkpt lat="43.01569" lon="0.2201">
        <ele>1294.3</ele>
        <time>2023-11-19T14:12:35Z</time>
      </trkpt>
      <trkpt lat="43.01569" lon="0.2201">
        <ele>1294.3</ele>
        <time>2023-11-19T14:12:37Z</time>
      </trkpt>
      <trkpt lat="43.01569" lon="0.2201">
        <ele>1294.3</ele>
        <time>2023-11-19T14:12:38Z</time>
      </trkpt>
      <trkpt lat="43.01568" lon="0.2201">
        <ele>1294.3</ele>
        <time>2023-11-19T14:12:39Z</time>
      </trkpt>
      <trkpt lat="43.01568" lon="0.22009">
        <ele>1294.4</ele>
        <time>2023-11-19T14:12:40Z</time>
      </trkpt>
      <trkpt lat="43.01568" lon="0.22009">
        <ele>1294.4</ele>
        <time>2023-11-19T14:12:41Z</time>
      </trkpt>
      <trkpt lat="43.01567" lon="0.22008">
        <ele>1294.4</ele>
        <time>2023-11-19T14:12:42Z</time>
      </trkpt>
      <trkpt lat="43.01567" lon="0.22007">
        <ele>1294.4</ele>
        <time>2023-11-19T14:12:43Z</time>
      </trkpt>
      <trkpt lat="43.01566" lon="0.22006">
        <ele>1293.6</ele>
        <time>2023-11-19T14:12:44Z</time>
      </trkpt>
      <trkpt lat="43.01565" lon="0.22005">
        <ele>1293.7</ele>
        <time>2023-11-19T14:12:45Z</time>
      </trkpt>
      <trkpt lat="43.01565" lon="0.22005">
        <ele>1293.7</ele>
        <time>2023-11-19T14:12:46Z</time>
      </trkpt>
      <trkpt lat="43.01565" lon="0.22003">
        <ele>1293.7</ele>
        <time>2023-11-19T14:12:47Z</time>
      </trkpt>
      <trkpt lat="43.01565" lon="0.22002">
        <ele>1293.3</ele>
        <time>2023-11-19T14:12:48Z</time>
      </trkpt>
      <trkpt lat="43.01565" lon="0.22001">
        <ele>1293.3</ele>
        <time>2023-11-19T14:12:49Z</time>
      </trkpt>
      <trkpt lat="43.01565" lon="0.22">
        <ele>1293.3</ele>
        <time>2023-11-19T14:12:50Z</time>
      </trkpt>
      <trkpt lat="43.01566" lon="0.21998">
        <ele>1292.9</ele>
        <time>2023-11-19T14:12:51Z</time>
      </trkpt>
      <trkpt lat="43.01565" lon="0.21997">
        <ele>1292.9</ele>
        <time>2023-11-19T14:12:52Z</time>
      </trkpt>
      <trkpt lat="43.01565" lon="0.21995">
        <ele>1292.9</ele>
        <time>2023-11-19T14:12:53Z</time>
      </trkpt>
      <trkpt lat="43.01564" lon="0.21995">
        <ele>1292.9</ele>
        <time>2023-11-19T14:12:54Z</time>
      </trkpt>
      <trkpt lat="43.01564" lon="0.21995">
        <ele>1293</ele>
        <time>2023-11-19T14:12:55Z</time>
      </trkpt>
      <trkpt lat="43.01563" lon="0.21994">
        <ele>1292.6</ele>
        <time>2023-11-19T14:12:56Z</time>
      </trkpt>
      <trkpt lat="43.01563" lon="0.21993">
        <ele>1292.4</ele>
        <time>2023-11-19T14:12:57Z</time>
      </trkpt>
      <trkpt lat="43.01563" lon="0.21991">
        <ele>1292.4</ele>
        <time>2023-11-19T14:12:58Z</time>
      </trkpt>
      <trkpt lat="43.01562" lon="0.21991">
        <ele>1292.5</ele>
        <time>2023-11-19T14:12:59Z</time>
      </trkpt>
      <trkpt lat="43.01562" lon="0.2199">
        <ele>1292.1</ele>
        <time>2023-11-19T14:13:00Z</time>
      </trkpt>
      <trkpt lat="43.01561" lon="0.2199">
        <ele>1292.5</ele>
        <time>2023-11-19T14:13:01Z</time>
      </trkpt>
      <trkpt lat="43.0156" lon="0.21989">
        <ele>1291.9</ele>
        <time>2023-11-19T14:13:02Z</time>
      </trkpt>
      <trkpt lat="43.01559" lon="0.21988">
        <ele>1292</ele>
        <time>2023-11-19T14:13:03Z</time>
      </trkpt>
      <trkpt lat="43.01559" lon="0.21985">
        <ele>1291.6</ele>
        <time>2023-11-19T14:13:04Z</time>
      </trkpt>
      <trkpt lat="43.01559" lon="0.21985">
        <ele>1291.6</ele>
        <time>2023-11-19T14:13:05Z</time>
      </trkpt>
      <trkpt lat="43.0156" lon="0.21984">
        <ele>1291.7</ele>
        <time>2023-11-19T14:13:06Z</time>
      </trkpt>
      <trkpt lat="43.01559" lon="0.21983">
        <ele>1291.7</ele>
        <time>2023-11-19T14:13:07Z</time>
      </trkpt>
      <trkpt lat="43.01559" lon="0.21981">
        <ele>1291.7</ele>
        <time>2023-11-19T14:13:08Z</time>
      </trkpt>
      <trkpt lat="43.01558" lon="0.21979">
        <ele>1291.4</ele>
        <time>2023-11-19T14:13:09Z</time>
      </trkpt>
      <trkpt lat="43.01558" lon="0.21978">
        <ele>1291.4</ele>
        <time>2023-11-19T14:13:10Z</time>
      </trkpt>
      <trkpt lat="43.01557" lon="0.21978">
        <ele>1291.4</ele>
        <time>2023-11-19T14:13:11Z</time>
      </trkpt>
      <trkpt lat="43.01557" lon="0.21977">
        <ele>1291</ele>
        <time>2023-11-19T14:13:12Z</time>
      </trkpt>
      <trkpt lat="43.01557" lon="0.21975">
        <ele>1290.8</ele>
        <time>2023-11-19T14:13:13Z</time>
      </trkpt>
      <trkpt lat="43.01556" lon="0.21974">
        <ele>1290.9</ele>
        <time>2023-11-19T14:13:14Z</time>
      </trkpt>
      <trkpt lat="43.01556" lon="0.21973">
        <ele>1290.9</ele>
        <time>2023-11-19T14:13:15Z</time>
      </trkpt>
      <trkpt lat="43.01556" lon="0.21972">
        <ele>1290.3</ele>
        <time>2023-11-19T14:13:16Z</time>
      </trkpt>
      <trkpt lat="43.01556" lon="0.2197">
        <ele>1290.3</ele>
        <time>2023-11-19T14:13:17Z</time>
      </trkpt>
      <trkpt lat="43.01556" lon="0.21969">
        <ele>1290.3</ele>
        <time>2023-11-19T14:13:18Z</time>
      </trkpt>
      <trkpt lat="43.01556" lon="0.21968">
        <ele>1289.9</ele>
        <time>2023-11-19T14:13:19Z</time>
      </trkpt>
      <trkpt lat="43.01556" lon="0.21966">
        <ele>1290</ele>
        <time>2023-11-19T14:13:20Z</time>
      </trkpt>
      <trkpt lat="43.01556" lon="0.21965">
        <ele>1290</ele>
        <time>2023-11-19T14:13:21Z</time>
      </trkpt>
      <trkpt lat="43.01557" lon="0.21964">
        <ele>1290.3</ele>
        <time>2023-11-19T14:13:22Z</time>
      </trkpt>
      <trkpt lat="43.01557" lon="0.21964">
        <ele>1289.9</ele>
        <time>2023-11-19T14:13:23Z</time>
      </trkpt>
      <trkpt lat="43.01557" lon="0.21963">
        <ele>1289.7</ele>
        <time>2023-11-19T14:13:24Z</time>
      </trkpt>
      <trkpt lat="43.01556" lon="0.21964">
        <ele>1289.7</ele>
        <time>2023-11-19T14:13:25Z</time>
      </trkpt>
      <trkpt lat="43.01555" lon="0.21962">
        <ele>1289.7</ele>
        <time>2023-11-19T14:13:26Z</time>
      </trkpt>
      <trkpt lat="43.01556" lon="0.21961">
        <ele>1289.8</ele>
        <time>2023-11-19T14:13:27Z</time>
      </trkpt>
      <trkpt lat="43.01556" lon="0.2196">
        <ele>1289.8</ele>
        <time>2023-11-19T14:13:28Z</time>
      </trkpt>
      <trkpt lat="43.01556" lon="0.2196">
        <ele>1289.8</ele>
        <time>2023-11-19T14:13:29Z</time>
      </trkpt>
      <trkpt lat="43.01557" lon="0.21959">
        <ele>1289.5</ele>
        <time>2023-11-19T14:13:30Z</time>
      </trkpt>
      <trkpt lat="43.01557" lon="0.21959">
        <ele>1289.8</ele>
        <time>2023-11-19T14:13:31Z</time>
      </trkpt>
      <trkpt lat="43.01558" lon="0.21958">
        <ele>1289.8</ele>
        <time>2023-11-19T14:13:32Z</time>
      </trkpt>
      <trkpt lat="43.01558" lon="0.21957">
        <ele>1289.9</ele>
        <time>2023-11-19T14:13:33Z</time>
      </trkpt>
      <trkpt lat="43.01558" lon="0.21956">
        <ele>1289.9</ele>
        <time>2023-11-19T14:13:34Z</time>
      </trkpt>
      <trkpt lat="43.01559" lon="0.21954">
        <ele>1289.6</ele>
        <time>2023-11-19T14:13:35Z</time>
      </trkpt>
      <trkpt lat="43.01559" lon="0.21952">
        <ele>1289.6</ele>
        <time>2023-11-19T14:13:36Z</time>
      </trkpt>
      <trkpt lat="43.01559" lon="0.21951">
        <ele>1289.6</ele>
        <time>2023-11-19T14:13:37Z</time>
      </trkpt>
      <trkpt lat="43.01559" lon="0.2195">
        <ele>1289.3</ele>
        <time>2023-11-19T14:13:38Z</time>
      </trkpt>
      <trkpt lat="43.01559" lon="0.21949">
        <ele>1289.4</ele>
        <time>2023-11-19T14:13:39Z</time>
      </trkpt>
      <trkpt lat="43.01559" lon="0.21949">
        <ele>1289.4</ele>
        <time>2023-11-19T14:13:40Z</time>
      </trkpt>
      <trkpt lat="43.01559" lon="0.21948">
        <ele>1289.4</ele>
        <time>2023-11-19T14:13:41Z</time>
      </trkpt>
      <trkpt lat="43.01559" lon="0.21947">
        <ele>1289.1</ele>
        <time>2023-11-19T14:13:42Z</time>
      </trkpt>
      <trkpt lat="43.0156" lon="0.21946">
        <ele>1289.1</ele>
        <time>2023-11-19T14:13:43Z</time>
      </trkpt>
      <trkpt lat="43.0156" lon="0.21944">
        <ele>1289.2</ele>
        <time>2023-11-19T14:13:44Z</time>
      </trkpt>
      <trkpt lat="43.0156" lon="0.21943">
        <ele>1288.8</ele>
        <time>2023-11-19T14:13:45Z</time>
      </trkpt>
      <trkpt lat="43.0156" lon="0.21942">
        <ele>1288.9</ele>
        <time>2023-11-19T14:13:46Z</time>
      </trkpt>
      <trkpt lat="43.0156" lon="0.2194">
        <ele>1288.9</ele>
        <time>2023-11-19T14:13:47Z</time>
      </trkpt>
      <trkpt lat="43.0156" lon="0.2194">
        <ele>1288.9</ele>
        <time>2023-11-19T14:13:48Z</time>
      </trkpt>
      <trkpt lat="43.0156" lon="0.21939">
        <ele>1288.9</ele>
        <time>2023-11-19T14:13:49Z</time>
      </trkpt>
      <trkpt lat="43.01559" lon="0.2194">
        <ele>1289</ele>
        <time>2023-11-19T14:13:50Z</time>
      </trkpt>
      <trkpt lat="43.01559" lon="0.2194">
        <ele>1289</ele>
        <time>2023-11-19T14:13:51Z</time>
      </trkpt>
      <trkpt lat="43.01558" lon="0.21941">
        <ele>1289</ele>
        <time>2023-11-19T14:13:52Z</time>
      </trkpt>
      <trkpt lat="43.01558" lon="0.21941">
        <ele>1289</ele>
        <time>2023-11-19T14:13:53Z</time>
      </trkpt>
      <trkpt lat="43.01557" lon="0.21942">
        <ele>1289.1</ele>
        <time>2023-11-19T14:13:54Z</time>
      </trkpt>
      <trkpt lat="43.01557" lon="0.21942">
        <ele>1289.1</ele>
        <time>2023-11-19T14:13:55Z</time>
      </trkpt>
      <trkpt lat="43.01556" lon="0.21942">
        <ele>1288.7</ele>
        <time>2023-11-19T14:13:56Z</time>
      </trkpt>
      <trkpt lat="43.01556" lon="0.21943">
        <ele>1289.1</ele>
        <time>2023-11-19T14:13:57Z</time>
      </trkpt>
      <trkpt lat="43.01555" lon="0.21943">
        <ele>1289.1</ele>
        <time>2023-11-19T14:13:58Z</time>
      </trkpt>
      <trkpt lat="43.01554" lon="0.21943">
        <ele>1289.1</ele>
        <time>2023-11-19T14:13:59Z</time>
      </trkpt>
      <trkpt lat="43.01553" lon="0.21944">
        <ele>1288.7</ele>
        <time>2023-11-19T14:14:00Z</time>
      </trkpt>
      <trkpt lat="43.01553" lon="0.21946">
        <ele>1288.7</ele>
        <time>2023-11-19T14:14:01Z</time>
      </trkpt>
      <trkpt lat="43.01552" lon="0.21946">
        <ele>1288.8</ele>
        <time>2023-11-19T14:14:02Z</time>
      </trkpt>
      <trkpt lat="43.0155" lon="0.21944">
        <ele>1288.4</ele>
        <time>2023-11-19T14:14:03Z</time>
      </trkpt>
      <trkpt lat="43.01549" lon="0.21943">
        <ele>1288.4</ele>
        <time>2023-11-19T14:14:04Z</time>
      </trkpt>
      <trkpt lat="43.01549" lon="0.21942">
        <ele>1288</ele>
        <time>2023-11-19T14:14:05Z</time>
      </trkpt>
      <trkpt lat="43.01549" lon="0.21942">
        <ele>1288</ele>
        <time>2023-11-19T14:14:06Z</time>
      </trkpt>
      <trkpt lat="43.01549" lon="0.21942">
        <ele>1288.1</ele>
        <time>2023-11-19T14:14:07Z</time>
      </trkpt>
      <trkpt lat="43.01549" lon="0.21942">
        <ele>1288.1</ele>
        <time>2023-11-19T14:14:08Z</time>
      </trkpt>
      <trkpt lat="43.01549" lon="0.21941">
        <ele>1288.1</ele>
        <time>2023-11-19T14:14:09Z</time>
      </trkpt>
      <trkpt lat="43.0155" lon="0.21941">
        <ele>1288.1</ele>
        <time>2023-11-19T14:14:10Z</time>
      </trkpt>
      <trkpt lat="43.0155" lon="0.2194">
        <ele>1288.2</ele>
        <time>2023-11-19T14:14:11Z</time>
      </trkpt>
      <trkpt lat="43.01549" lon="0.21939">
        <ele>1288.2</ele>
        <time>2023-11-19T14:14:12Z</time>
      </trkpt>
      <trkpt lat="43.0155" lon="0.21938">
        <ele>1287.8</ele>
        <time>2023-11-19T14:14:13Z</time>
      </trkpt>
      <trkpt lat="43.01549" lon="0.21938">
        <ele>1287.8</ele>
        <time>2023-11-19T14:14:14Z</time>
      </trkpt>
      <trkpt lat="43.01549" lon="0.21938">
        <ele>1287.9</ele>
        <time>2023-11-19T14:14:15Z</time>
      </trkpt>
      <trkpt lat="43.01549" lon="0.21937">
        <ele>1287.9</ele>
        <time>2023-11-19T14:14:16Z</time>
      </trkpt>
      <trkpt lat="43.01549" lon="0.21936">
        <ele>1287.9</ele>
        <time>2023-11-19T14:14:17Z</time>
      </trkpt>
      <trkpt lat="43.01549" lon="0.21936">
        <ele>1287.9</ele>
        <time>2023-11-19T14:14:18Z</time>
      </trkpt>
      <trkpt lat="43.01549" lon="0.21936">
        <ele>1288</ele>
        <time>2023-11-19T14:14:19Z</time>
      </trkpt>
      <trkpt lat="43.01549" lon="0.21935">
        <ele>1288</ele>
        <time>2023-11-19T14:14:20Z</time>
      </trkpt>
      <trkpt lat="43.0155" lon="0.21935">
        <ele>1288</ele>
        <time>2023-11-19T14:14:21Z</time>
      </trkpt>
      <trkpt lat="43.01549" lon="0.21935">
        <ele>1288</ele>
        <time>2023-11-19T14:14:22Z</time>
      </trkpt>
      <trkpt lat="43.01549" lon="0.21936">
        <ele>1288.1</ele>
        <time>2023-11-19T14:14:23Z</time>
      </trkpt>
      <trkpt lat="43.01548" lon="0.21936">
        <ele>1288.1</ele>
        <time>2023-11-19T14:14:24Z</time>
      </trkpt>
      <trkpt lat="43.01548" lon="0.21935">
        <ele>1288.1</ele>
        <time>2023-11-19T14:14:25Z</time>
      </trkpt>
      <trkpt lat="43.01547" lon="0.21934">
        <ele>1287.8</ele>
        <time>2023-11-19T14:14:26Z</time>
      </trkpt>
      <trkpt lat="43.01547" lon="0.21935">
        <ele>1287.8</ele>
        <time>2023-11-19T14:14:27Z</time>
      </trkpt>
      <trkpt lat="43.01547" lon="0.21935">
        <ele>1287.8</ele>
        <time>2023-11-19T14:14:28Z</time>
      </trkpt>
      <trkpt lat="43.01546" lon="0.21935">
        <ele>1287.8</ele>
        <time>2023-11-19T14:14:29Z</time>
      </trkpt>
      <trkpt lat="43.01546" lon="0.21934">
        <ele>1287.9</ele>
        <time>2023-11-19T14:14:30Z</time>
      </trkpt>
      <trkpt lat="43.01546" lon="0.21933">
        <ele>1287.5</ele>
        <time>2023-11-19T14:14:31Z</time>
      </trkpt>
      <trkpt lat="43.01546" lon="0.21934">
        <ele>1287.6</ele>
        <time>2023-11-19T14:14:32Z</time>
      </trkpt>
      <trkpt lat="43.01546" lon="0.21933">
        <ele>1287.6</ele>
        <time>2023-11-19T14:14:33Z</time>
      </trkpt>
      <trkpt lat="43.01545" lon="0.21932">
        <ele>1287.6</ele>
        <time>2023-11-19T14:14:34Z</time>
      </trkpt>
      <trkpt lat="43.01545" lon="0.21932">
        <ele>1287.6</ele>
        <time>2023-11-19T14:14:35Z</time>
      </trkpt>
      <trkpt lat="43.01545" lon="0.21931">
        <ele>1287.7</ele>
        <time>2023-11-19T14:14:36Z</time>
      </trkpt>
      <trkpt lat="43.01545" lon="0.21929">
        <ele>1287.4</ele>
        <time>2023-11-19T14:14:37Z</time>
      </trkpt>
      <trkpt lat="43.01545" lon="0.21929">
        <ele>1287.4</ele>
        <time>2023-11-19T14:14:38Z</time>
      </trkpt>
      <trkpt lat="43.01544" lon="0.21929">
        <ele>1287.5</ele>
        <time>2023-11-19T14:14:39Z</time>
      </trkpt>
      <trkpt lat="43.01544" lon="0.21928">
        <ele>1287.5</ele>
        <time>2023-11-19T14:14:40Z</time>
      </trkpt>
      <trkpt lat="43.01544" lon="0.21928">
        <ele>1287.3</ele>
        <time>2023-11-19T14:14:41Z</time>
      </trkpt>
      <trkpt lat="43.01544" lon="0.21927">
        <ele>1287.3</ele>
        <time>2023-11-19T14:14:42Z</time>
      </trkpt>
      <trkpt lat="43.01544" lon="0.21927">
        <ele>1287.3</ele>
        <time>2023-11-19T14:14:43Z</time>
      </trkpt>
      <trkpt lat="43.01544" lon="0.21925">
        <ele>1287.1</ele>
        <time>2023-11-19T14:14:44Z</time>
      </trkpt>
      <trkpt lat="43.01544" lon="0.21925">
        <ele>1287.2</ele>
        <time>2023-11-19T14:14:45Z</time>
      </trkpt>
      <trkpt lat="43.01544" lon="0.21924">
        <ele>1287.2</ele>
        <time>2023-11-19T14:14:46Z</time>
      </trkpt>
      <trkpt lat="43.01543" lon="0.21925">
        <ele>1287.2</ele>
        <time>2023-11-19T14:14:47Z</time>
      </trkpt>
      <trkpt lat="43.01542" lon="0.21924">
        <ele>1287.2</ele>
        <time>2023-11-19T14:14:48Z</time>
      </trkpt>
      <trkpt lat="43.01542" lon="0.21924">
        <ele>1287.3</ele>
        <time>2023-11-19T14:14:49Z</time>
      </trkpt>
      <trkpt lat="43.01541" lon="0.21926">
        <ele>1287.3</ele>
        <time>2023-11-19T14:14:50Z</time>
      </trkpt>
      <trkpt lat="43.0154" lon="0.21926">
        <ele>1287.3</ele>
        <time>2023-11-19T14:14:51Z</time>
      </trkpt>
      <trkpt lat="43.0154" lon="0.21926">
        <ele>1287.4</ele>
        <time>2023-11-19T14:14:52Z</time>
      </trkpt>
      <trkpt lat="43.0154" lon="0.21925">
        <ele>1287.2</ele>
        <time>2023-11-19T14:14:53Z</time>
      </trkpt>
      <trkpt lat="43.01539" lon="0.21924">
        <ele>1287.2</ele>
        <time>2023-11-19T14:14:54Z</time>
      </trkpt>
      <trkpt lat="43.01539" lon="0.21923">
        <ele>1287.3</ele>
        <time>2023-11-19T14:14:55Z</time>
      </trkpt>
      <trkpt lat="43.01539" lon="0.21923">
        <ele>1287.3</ele>
        <time>2023-11-19T14:14:56Z</time>
      </trkpt>
      <trkpt lat="43.01539" lon="0.21923">
        <ele>1287.3</ele>
        <time>2023-11-19T14:14:57Z</time>
      </trkpt>
      <trkpt lat="43.0154" lon="0.21923">
        <ele>1287.3</ele>
        <time>2023-11-19T14:14:58Z</time>
      </trkpt>
      <trkpt lat="43.0154" lon="0.21923">
        <ele>1287.4</ele>
        <time>2023-11-19T14:14:59Z</time>
      </trkpt>
      <trkpt lat="43.0154" lon="0.21923">
        <ele>1287.4</ele>
        <time>2023-11-19T14:15:00Z</time>
      </trkpt>
      <trkpt lat="43.0154" lon="0.21923">
        <ele>1287.4</ele>
        <time>2023-11-19T14:15:01Z</time>
      </trkpt>
      <trkpt lat="43.0154" lon="0.21922">
        <ele>1287.4</ele>
        <time>2023-11-19T14:15:02Z</time>
      </trkpt>
      <trkpt lat="43.0154" lon="0.21922">
        <ele>1287.5</ele>
        <time>2023-11-19T14:15:03Z</time>
      </trkpt>
      <trkpt lat="43.0154" lon="0.21922">
        <ele>1287.5</ele>
        <time>2023-11-19T14:15:04Z</time>
      </trkpt>
      <trkpt lat="43.0154" lon="0.21922">
        <ele>1287.5</ele>
        <time>2023-11-19T14:15:05Z</time>
      </trkpt>
      <trkpt lat="43.01541" lon="0.21922">
        <ele>1287.5</ele>
        <time>2023-11-19T14:15:06Z</time>
      </trkpt>
      <trkpt lat="43.01541" lon="0.21922">
        <ele>1287.6</ele>
        <time>2023-11-19T14:15:07Z</time>
      </trkpt>
      <trkpt lat="43.01541" lon="0.21922">
        <ele>1287.6</ele>
        <time>2023-11-19T14:15:08Z</time>
      </trkpt>
      <trkpt lat="43.01541" lon="0.21922">
        <ele>1287.6</ele>
        <time>2023-11-19T14:15:09Z</time>
      </trkpt>
      <trkpt lat="43.01541" lon="0.21922">
        <ele>1287.6</ele>
        <time>2023-11-19T14:15:10Z</time>
      </trkpt>
      <trkpt lat="43.01541" lon="0.21922">
        <ele>1287.8</ele>
        <time>2023-11-19T14:15:11Z</time>
      </trkpt>
      <trkpt lat="43.01541" lon="0.21922">
        <ele>1287.8</ele>
        <time>2023-11-19T14:15:12Z</time>
      </trkpt>
      <trkpt lat="43.01541" lon="0.21922">
        <ele>1287.8</ele>
        <time>2023-11-19T14:15:13Z</time>
      </trkpt>
      <trkpt lat="43.01542" lon="0.21922">
        <ele>1287.9</ele>
        <time>2023-11-19T14:15:14Z</time>
      </trkpt>
      <trkpt lat="43.01542" lon="0.21922">
        <ele>1287.9</ele>
        <time>2023-11-19T14:15:15Z</time>
      </trkpt>
      <trkpt lat="43.01542" lon="0.21922">
        <ele>1287.9</ele>
        <time>2023-11-19T14:15:16Z</time>
      </trkpt>
      <trkpt lat="43.01542" lon="0.21922">
        <ele>1287.9</ele>
        <time>2023-11-19T14:15:17Z</time>
      </trkpt>
      <trkpt lat="43.01542" lon="0.21921">
        <ele>1288</ele>
        <time>2023-11-19T14:15:18Z</time>
      </trkpt>
      <trkpt lat="43.01542" lon="0.21921">
        <ele>1287.9</ele>
        <time>2023-11-19T14:15:19Z</time>
      </trkpt>
      <trkpt lat="43.01542" lon="0.2192">
        <ele>1287.9</ele>
        <time>2023-11-19T14:15:20Z</time>
      </trkpt>
      <trkpt lat="43.01542" lon="0.21919">
        <ele>1287.9</ele>
        <time>2023-11-19T14:15:21Z</time>
      </trkpt>
      <trkpt lat="43.01542" lon="0.21918">
        <ele>1287.9</ele>
        <time>2023-11-19T14:15:22Z</time>
      </trkpt>
      <trkpt lat="43.01542" lon="0.21917">
        <ele>1287.9</ele>
        <time>2023-11-19T14:15:23Z</time>
      </trkpt>
      <trkpt lat="43.01542" lon="0.21916">
        <ele>1287.9</ele>
        <time>2023-11-19T14:15:24Z</time>
      </trkpt>
      <trkpt lat="43.01543" lon="0.21916">
        <ele>1287.9</ele>
        <time>2023-11-19T14:15:25Z</time>
      </trkpt>
      <trkpt lat="43.01542" lon="0.21916">
        <ele>1288</ele>
        <time>2023-11-19T14:15:26Z</time>
      </trkpt>
      <trkpt lat="43.01542" lon="0.21916">
        <ele>1288</ele>
        <time>2023-11-19T14:15:27Z</time>
      </trkpt>
      <trkpt lat="43.01542" lon="0.21916">
        <ele>1288</ele>
        <time>2023-11-19T14:15:28Z</time>
      </trkpt>
      <trkpt lat="43.01542" lon="0.21916">
        <ele>1288</ele>
        <time>2023-11-19T14:15:29Z</time>
      </trkpt>
      <trkpt lat="43.01542" lon="0.21916">
        <ele>1288.1</ele>
        <time>2023-11-19T14:15:30Z</time>
      </trkpt>
      <trkpt lat="43.01542" lon="0.21916">
        <ele>1288.1</ele>
        <time>2023-11-19T14:15:31Z</time>
      </trkpt>
      <trkpt lat="43.01542" lon="0.21916">
        <ele>1288.1</ele>
        <time>2023-11-19T14:15:32Z</time>
      </trkpt>
      <trkpt lat="43.01542" lon="0.21916">
        <ele>1288.1</ele>
        <time>2023-11-19T14:15:33Z</time>
      </trkpt>
      <trkpt lat="43.01542" lon="0.21916">
        <ele>1288.2</ele>
        <time>2023-11-19T14:15:34Z</time>
      </trkpt>
      <trkpt lat="43.01542" lon="0.21916">
        <ele>1288.2</ele>
        <time>2023-11-19T14:15:35Z</time>
      </trkpt>
      <trkpt lat="43.01542" lon="0.21916">
        <ele>1288.2</ele>
        <time>2023-11-19T14:15:36Z</time>
      </trkpt>
      <trkpt lat="43.01542" lon="0.21916">
        <ele>1288.2</ele>
        <time>2023-11-19T14:15:37Z</time>
      </trkpt>
      <trkpt lat="43.01542" lon="0.21916">
        <ele>1288.3</ele>
        <time>2023-11-19T14:15:38Z</time>
      </trkpt>
      <trkpt lat="43.01542" lon="0.21916">
        <ele>1288.3</ele>
        <time>2023-11-19T14:15:39Z</time>
      </trkpt>
      <trkpt lat="43.01542" lon="0.21916">
        <ele>1288.3</ele>
        <time>2023-11-19T14:15:40Z</time>
      </trkpt>
      <trkpt lat="43.01541" lon="0.21918">
        <ele>1288.3</ele>
        <time>2023-11-19T14:15:41Z</time>
      </trkpt>
      <trkpt lat="43.01541" lon="0.21918">
        <ele>1288.3</ele>
        <time>2023-11-19T14:15:42Z</time>
      </trkpt>
      <trkpt lat="43.01541" lon="0.21918">
        <ele>1288.4</ele>
        <time>2023-11-19T14:15:43Z</time>
      </trkpt>
      <trkpt lat="43.01541" lon="0.21918">
        <ele>1288.4</ele>
        <time>2023-11-19T14:15:44Z</time>
      </trkpt>
      <trkpt lat="43.01541" lon="0.21918">
        <ele>1288.4</ele>
        <time>2023-11-19T14:15:45Z</time>
      </trkpt>
      <trkpt lat="43.01541" lon="0.21918">
        <ele>1288.5</ele>
        <time>2023-11-19T14:15:46Z</time>
      </trkpt>
      <trkpt lat="43.01541" lon="0.21918">
        <ele>1288.6</ele>
        <time>2023-11-19T14:15:47Z</time>
      </trkpt>
      <trkpt lat="43.01541" lon="0.21917">
        <ele>1288.6</ele>
        <time>2023-11-19T14:15:48Z</time>
      </trkpt>
      <trkpt lat="43.01541" lon="0.21916">
        <ele>1288.5</ele>
        <time>2023-11-19T14:15:49Z</time>
      </trkpt>
      <trkpt lat="43.01541" lon="0.21915">
        <ele>1288.5</ele>
        <time>2023-11-19T14:15:50Z</time>
      </trkpt>
      <trkpt lat="43.01541" lon="0.21913">
        <ele>1288.5</ele>
        <time>2023-11-19T14:15:51Z</time>
      </trkpt>
      <trkpt lat="43.01541" lon="0.21912">
        <ele>1288.5</ele>
        <time>2023-11-19T14:15:52Z</time>
      </trkpt>
      <trkpt lat="43.0154" lon="0.21911">
        <ele>1288.6</ele>
        <time>2023-11-19T14:15:53Z</time>
      </trkpt>
      <trkpt lat="43.01539" lon="0.2191">
        <ele>1288.6</ele>
        <time>2023-11-19T14:15:54Z</time>
      </trkpt>
      <trkpt lat="43.01538" lon="0.21908">
        <ele>1288.6</ele>
        <time>2023-11-19T14:15:55Z</time>
      </trkpt>
      <trkpt lat="43.01537" lon="0.21907">
        <ele>1288.7</ele>
        <time>2023-11-19T14:15:56Z</time>
      </trkpt>
      <trkpt lat="43.01537" lon="0.21906">
        <ele>1288.8</ele>
        <time>2023-11-19T14:15:57Z</time>
      </trkpt>
      <trkpt lat="43.01537" lon="0.21906">
        <ele>1288.8</ele>
        <time>2023-11-19T14:15:58Z</time>
      </trkpt>
      <trkpt lat="43.01537" lon="0.21906">
        <ele>1288.8</ele>
        <time>2023-11-19T14:15:59Z</time>
      </trkpt>
      <trkpt lat="43.01537" lon="0.21906">
        <ele>1288.8</ele>
        <time>2023-11-19T14:16:00Z</time>
      </trkpt>
      <trkpt lat="43.01536" lon="0.21906">
        <ele>1288.9</ele>
        <time>2023-11-19T14:16:01Z</time>
      </trkpt>
      <trkpt lat="43.01536" lon="0.21905">
        <ele>1288.9</ele>
        <time>2023-11-19T14:16:02Z</time>
      </trkpt>
      <trkpt lat="43.01535" lon="0.21904">
        <ele>1288.9</ele>
        <time>2023-11-19T14:16:03Z</time>
      </trkpt>
      <trkpt lat="43.01535" lon="0.21903">
        <ele>1289.1</ele>
        <time>2023-11-19T14:16:04Z</time>
      </trkpt>
      <trkpt lat="43.01534" lon="0.21903">
        <ele>1289.1</ele>
        <time>2023-11-19T14:16:05Z</time>
      </trkpt>
      <trkpt lat="43.01533" lon="0.21902">
        <ele>1289.2</ele>
        <time>2023-11-19T14:16:06Z</time>
      </trkpt>
      <trkpt lat="43.01532" lon="0.21902">
        <ele>1289.2</ele>
        <time>2023-11-19T14:16:07Z</time>
      </trkpt>
      <trkpt lat="43.01531" lon="0.21901">
        <ele>1289.3</ele>
        <time>2023-11-19T14:16:08Z</time>
      </trkpt>
      <trkpt lat="43.0153" lon="0.219">
        <ele>1289.3</ele>
        <time>2023-11-19T14:16:09Z</time>
      </trkpt>
      <trkpt lat="43.01529" lon="0.219">
        <ele>1289.4</ele>
        <time>2023-11-19T14:16:10Z</time>
      </trkpt>
      <trkpt lat="43.01528" lon="0.21899">
        <ele>1289.6</ele>
        <time>2023-11-19T14:16:11Z</time>
      </trkpt>
      <trkpt lat="43.01527" lon="0.21898">
        <ele>1289.6</ele>
        <time>2023-11-19T14:16:12Z</time>
      </trkpt>
      <trkpt lat="43.01527" lon="0.21898">
        <ele>1289.7</ele>
        <time>2023-11-19T14:16:13Z</time>
      </trkpt>
      <trkpt lat="43.01526" lon="0.21899">
        <ele>1289.7</ele>
        <time>2023-11-19T14:16:14Z</time>
      </trkpt>
      <trkpt lat="43.01525" lon="0.21898">
        <ele>1289.9</ele>
        <time>2023-11-19T14:16:15Z</time>
      </trkpt>
      <trkpt lat="43.01524" lon="0.21897">
        <ele>1289.9</ele>
        <time>2023-11-19T14:16:16Z</time>
      </trkpt>
      <trkpt lat="43.01523" lon="0.21896">
        <ele>1289.9</ele>
        <time>2023-11-19T14:16:17Z</time>
      </trkpt>
      <trkpt lat="43.01522" lon="0.21896">
        <ele>1289.9</ele>
        <time>2023-11-19T14:16:18Z</time>
      </trkpt>
      <trkpt lat="43.01521" lon="0.21895">
        <ele>1290.2</ele>
        <time>2023-11-19T14:16:19Z</time>
      </trkpt>
      <trkpt lat="43.01521" lon="0.21894">
        <ele>1290.2</ele>
        <time>2023-11-19T14:16:20Z</time>
      </trkpt>
      <trkpt lat="43.0152" lon="0.21894">
        <ele>1290.2</ele>
        <time>2023-11-19T14:16:21Z</time>
      </trkpt>
      <trkpt lat="43.01519" lon="0.21893">
        <ele>1290.3</ele>
        <time>2023-11-19T14:16:22Z</time>
      </trkpt>
      <trkpt lat="43.01518" lon="0.21892">
        <ele>1290.4</ele>
        <time>2023-11-19T14:16:23Z</time>
      </trkpt>
      <trkpt lat="43.01517" lon="0.21892">
        <ele>1290.5</ele>
        <time>2023-11-19T14:16:24Z</time>
      </trkpt>
      <trkpt lat="43.01516" lon="0.21891">
        <ele>1290.5</ele>
        <time>2023-11-19T14:16:25Z</time>
      </trkpt>
      <trkpt lat="43.01516" lon="0.2189">
        <ele>1290.7</ele>
        <time>2023-11-19T14:16:26Z</time>
      </trkpt>
      <trkpt lat="43.01515" lon="0.21889">
        <ele>1290.7</ele>
        <time>2023-11-19T14:16:27Z</time>
      </trkpt>
      <trkpt lat="43.01515" lon="0.21889">
        <ele>1290.8</ele>
        <time>2023-11-19T14:16:28Z</time>
      </trkpt>
      <trkpt lat="43.01514" lon="0.21888">
        <ele>1290.8</ele>
        <time>2023-11-19T14:16:29Z</time>
      </trkpt>
      <trkpt lat="43.01513" lon="0.21888">
        <ele>1291</ele>
        <time>2023-11-19T14:16:30Z</time>
      </trkpt>
      <trkpt lat="43.01512" lon="0.21887">
        <ele>1291</ele>
        <time>2023-11-19T14:16:31Z</time>
      </trkpt>
      <trkpt lat="43.01511" lon="0.21887">
        <ele>1291.1</ele>
        <time>2023-11-19T14:16:32Z</time>
      </trkpt>
      <trkpt lat="43.0151" lon="0.21887">
        <ele>1291.1</ele>
        <time>2023-11-19T14:16:33Z</time>
      </trkpt>
      <trkpt lat="43.0151" lon="0.21886">
        <ele>1291.3</ele>
        <time>2023-11-19T14:16:34Z</time>
      </trkpt>
      <trkpt lat="43.01509" lon="0.21885">
        <ele>1291.3</ele>
        <time>2023-11-19T14:16:35Z</time>
      </trkpt>
      <trkpt lat="43.01508" lon="0.21885">
        <ele>1291.3</ele>
        <time>2023-11-19T14:16:36Z</time>
      </trkpt>
      <trkpt lat="43.01508" lon="0.21885">
        <ele>1291.4</ele>
        <time>2023-11-19T14:16:37Z</time>
      </trkpt>
      <trkpt lat="43.01508" lon="0.21885">
        <ele>1291.4</ele>
        <time>2023-11-19T14:16:38Z</time>
      </trkpt>
      <trkpt lat="43.01508" lon="0.21885">
        <ele>1291.4</ele>
        <time>2023-11-19T14:16:39Z</time>
      </trkpt>
      <trkpt lat="43.01508" lon="0.21886">
        <ele>1291.4</ele>
        <time>2023-11-19T14:16:40Z</time>
      </trkpt>
      <trkpt lat="43.01508" lon="0.21886">
        <ele>1291.5</ele>
        <time>2023-11-19T14:16:41Z</time>
      </trkpt>
      <trkpt lat="43.01508" lon="0.21886">
        <ele>1291.5</ele>
        <time>2023-11-19T14:16:42Z</time>
      </trkpt>
      <trkpt lat="43.01507" lon="0.21886">
        <ele>1291.5</ele>
        <time>2023-11-19T14:16:43Z</time>
      </trkpt>
      <trkpt lat="43.01506" lon="0.21886">
        <ele>1291.7</ele>
        <time>2023-11-19T14:16:44Z</time>
      </trkpt>
      <trkpt lat="43.01506" lon="0.21886">
        <ele>1291.8</ele>
        <time>2023-11-19T14:16:45Z</time>
      </trkpt>
      <trkpt lat="43.01505" lon="0.21886">
        <ele>1291.8</ele>
        <time>2023-11-19T14:16:46Z</time>
      </trkpt>
      <trkpt lat="43.01505" lon="0.21886">
        <ele>1291.8</ele>
        <time>2023-11-19T14:16:47Z</time>
      </trkpt>
      <trkpt lat="43.01504" lon="0.21886">
        <ele>1291.8</ele>
        <time>2023-11-19T14:16:48Z</time>
      </trkpt>
      <trkpt lat="43.01503" lon="0.21886">
        <ele>1292.1</ele>
        <time>2023-11-19T14:16:49Z</time>
      </trkpt>
      <trkpt lat="43.01502" lon="0.21886">
        <ele>1292.1</ele>
        <time>2023-11-19T14:16:50Z</time>
      </trkpt>
      <trkpt lat="43.01501" lon="0.21885">
        <ele>1292.1</ele>
        <time>2023-11-19T14:16:51Z</time>
      </trkpt>
      <trkpt lat="43.015" lon="0.21885">
        <ele>1292.4</ele>
        <time>2023-11-19T14:16:52Z</time>
      </trkpt>
      <trkpt lat="43.01499" lon="0.21885">
        <ele>1292.4</ele>
        <time>2023-11-19T14:16:53Z</time>
      </trkpt>
      <trkpt lat="43.01498" lon="0.21886">
        <ele>1292.5</ele>
        <time>2023-11-19T14:16:54Z</time>
      </trkpt>
      <trkpt lat="43.01497" lon="0.21886">
        <ele>1292.8</ele>
        <time>2023-11-19T14:16:55Z</time>
      </trkpt>
      <trkpt lat="43.01496" lon="0.21886">
        <ele>1292.8</ele>
        <time>2023-11-19T14:16:56Z</time>
      </trkpt>
      <trkpt lat="43.01496" lon="0.21886">
        <ele>1292.8</ele>
        <time>2023-11-19T14:16:57Z</time>
      </trkpt>
      <trkpt lat="43.01495" lon="0.21885">
        <ele>1292.9</ele>
        <time>2023-11-19T14:16:58Z</time>
      </trkpt>
      <trkpt lat="43.01494" lon="0.21885">
        <ele>1293.2</ele>
        <time>2023-11-19T14:16:59Z</time>
      </trkpt>
      <trkpt lat="43.01493" lon="0.21884">
        <ele>1293.2</ele>
        <time>2023-11-19T14:17:00Z</time>
      </trkpt>
      <trkpt lat="43.01493" lon="0.21883">
        <ele>1293.3</ele>
        <time>2023-11-19T14:17:01Z</time>
      </trkpt>
      <trkpt lat="43.01492" lon="0.21883">
        <ele>1293.3</ele>
        <time>2023-11-19T14:17:02Z</time>
      </trkpt>
      <trkpt lat="43.01492" lon="0.21881">
        <ele>1293.4</ele>
        <time>2023-11-19T14:17:03Z</time>
      </trkpt>
      <trkpt lat="43.01492" lon="0.21881">
        <ele>1293.4</ele>
        <time>2023-11-19T14:17:04Z</time>
      </trkpt>
      <trkpt lat="43.01491" lon="0.2188">
        <ele>1293.4</ele>
        <time>2023-11-19T14:17:05Z</time>
      </trkpt>
      <trkpt lat="43.0149" lon="0.2188">
        <ele>1293.8</ele>
        <time>2023-11-19T14:17:06Z</time>
      </trkpt>
      <trkpt lat="43.01489" lon="0.21879">
        <ele>1293.8</ele>
        <time>2023-11-19T14:17:07Z</time>
      </trkpt>
      <trkpt lat="43.01489" lon="0.21877">
        <ele>1293.9</ele>
        <time>2023-11-19T14:17:08Z</time>
      </trkpt>
      <trkpt lat="43.01489" lon="0.21876">
        <ele>1294</ele>
        <time>2023-11-19T14:17:09Z</time>
      </trkpt>
      <trkpt lat="43.01489" lon="0.21874">
        <ele>1294</ele>
        <time>2023-11-19T14:17:10Z</time>
      </trkpt>
      <trkpt lat="43.01489" lon="0.21873">
        <ele>1294.1</ele>
        <time>2023-11-19T14:17:11Z</time>
      </trkpt>
      <trkpt lat="43.01488" lon="0.21871">
        <ele>1294.1</ele>
        <time>2023-11-19T14:17:12Z</time>
      </trkpt>
      <trkpt lat="43.01489" lon="0.21871">
        <ele>1294.1</ele>
        <time>2023-11-19T14:17:13Z</time>
      </trkpt>
      <trkpt lat="43.01488" lon="0.21869">
        <ele>1294.2</ele>
        <time>2023-11-19T14:17:14Z</time>
      </trkpt>
      <trkpt lat="43.01488" lon="0.21868">
        <ele>1294.2</ele>
        <time>2023-11-19T14:17:15Z</time>
      </trkpt>
      <trkpt lat="43.01488" lon="0.21867">
        <ele>1294.3</ele>
        <time>2023-11-19T14:17:16Z</time>
      </trkpt>
      <trkpt lat="43.01488" lon="0.21865">
        <ele>1294.3</ele>
        <time>2023-11-19T14:17:17Z</time>
      </trkpt>
      <trkpt lat="43.01488" lon="0.21863">
        <ele>1294.4</ele>
        <time>2023-11-19T14:17:18Z</time>
      </trkpt>
      <trkpt lat="43.01488" lon="0.21862">
        <ele>1294.4</ele>
        <time>2023-11-19T14:17:19Z</time>
      </trkpt>
      <trkpt lat="43.01487" lon="0.21861">
        <ele>1294.8</ele>
        <time>2023-11-19T14:17:20Z</time>
      </trkpt>
      <trkpt lat="43.01487" lon="0.21861">
        <ele>1294.9</ele>
        <time>2023-11-19T14:17:21Z</time>
      </trkpt>
      <trkpt lat="43.01487" lon="0.21859">
        <ele>1294.9</ele>
        <time>2023-11-19T14:17:22Z</time>
      </trkpt>
      <trkpt lat="43.01486" lon="0.21858">
        <ele>1294.9</ele>
        <time>2023-11-19T14:17:23Z</time>
      </trkpt>
      <trkpt lat="43.01485" lon="0.21857">
        <ele>1295</ele>
        <time>2023-11-19T14:17:24Z</time>
      </trkpt>
      <trkpt lat="43.01484" lon="0.21854">
        <ele>1295.4</ele>
        <time>2023-11-19T14:17:25Z</time>
      </trkpt>
      <trkpt lat="43.01484" lon="0.21853">
        <ele>1295.4</ele>
        <time>2023-11-19T14:17:26Z</time>
      </trkpt>
      <trkpt lat="43.01484" lon="0.21852">
        <ele>1295.4</ele>
        <time>2023-11-19T14:17:27Z</time>
      </trkpt>
      <trkpt lat="43.01483" lon="0.2185">
        <ele>1295.5</ele>
        <time>2023-11-19T14:17:28Z</time>
      </trkpt>
      <trkpt lat="43.01482" lon="0.2185">
        <ele>1295.5</ele>
        <time>2023-11-19T14:17:29Z</time>
      </trkpt>
      <trkpt lat="43.01482" lon="0.21849">
        <ele>1295.5</ele>
        <time>2023-11-19T14:17:30Z</time>
      </trkpt>
      <trkpt lat="43.01482" lon="0.21848">
        <ele>1295.5</ele>
        <time>2023-11-19T14:17:31Z</time>
      </trkpt>
      <trkpt lat="43.01482" lon="0.21847">
        <ele>1295.5</ele>
        <time>2023-11-19T14:17:32Z</time>
      </trkpt>
      <trkpt lat="43.01482" lon="0.21847">
        <ele>1295.5</ele>
        <time>2023-11-19T14:17:33Z</time>
      </trkpt>
      <trkpt lat="43.01482" lon="0.21846">
        <ele>1295.5</ele>
        <time>2023-11-19T14:17:34Z</time>
      </trkpt>
      <trkpt lat="43.01482" lon="0.21845">
        <ele>1295.5</ele>
        <time>2023-11-19T14:17:35Z</time>
      </trkpt>
      <trkpt lat="43.01482" lon="0.21844">
        <ele>1295.5</ele>
        <time>2023-11-19T14:17:36Z</time>
      </trkpt>
      <trkpt lat="43.01482" lon="0.21844">
        <ele>1295.5</ele>
        <time>2023-11-19T14:17:37Z</time>
      </trkpt>
      <trkpt lat="43.01481" lon="0.21842">
        <ele>1295.4</ele>
        <time>2023-11-19T14:17:38Z</time>
      </trkpt>
      <trkpt lat="43.01481" lon="0.2184">
        <ele>1295.4</ele>
        <time>2023-11-19T14:17:39Z</time>
      </trkpt>
      <trkpt lat="43.01481" lon="0.21839">
        <ele>1295.4</ele>
        <time>2023-11-19T14:17:40Z</time>
      </trkpt>
      <trkpt lat="43.01481" lon="0.21837">
        <ele>1295.4</ele>
        <time>2023-11-19T14:17:41Z</time>
      </trkpt>
      <trkpt lat="43.01481" lon="0.21836">
        <ele>1295.4</ele>
        <time>2023-11-19T14:17:42Z</time>
      </trkpt>
      <trkpt lat="43.0148" lon="0.21833">
        <ele>1295.3</ele>
        <time>2023-11-19T14:17:43Z</time>
      </trkpt>
      <trkpt lat="43.01481" lon="0.21832">
        <ele>1295.3</ele>
        <time>2023-11-19T14:17:44Z</time>
      </trkpt>
      <trkpt lat="43.01481" lon="0.21832">
        <ele>1295.3</ele>
        <time>2023-11-19T14:17:45Z</time>
      </trkpt>
      <trkpt lat="43.01481" lon="0.21831">
        <ele>1295.2</ele>
        <time>2023-11-19T14:17:46Z</time>
      </trkpt>
      <trkpt lat="43.01481" lon="0.21829">
        <ele>1295.2</ele>
        <time>2023-11-19T14:17:47Z</time>
      </trkpt>
      <trkpt lat="43.01482" lon="0.21827">
        <ele>1295.2</ele>
        <time>2023-11-19T14:17:48Z</time>
      </trkpt>
      <trkpt lat="43.01481" lon="0.21825">
        <ele>1295.1</ele>
        <time>2023-11-19T14:17:49Z</time>
      </trkpt>
      <trkpt lat="43.01482" lon="0.21825">
        <ele>1295.1</ele>
        <time>2023-11-19T14:17:50Z</time>
      </trkpt>
      <trkpt lat="43.01482" lon="0.21823">
        <ele>1295.1</ele>
        <time>2023-11-19T14:17:51Z</time>
      </trkpt>
      <trkpt lat="43.01483" lon="0.21822">
        <ele>1295</ele>
        <time>2023-11-19T14:17:52Z</time>
      </trkpt>
      <trkpt lat="43.01483" lon="0.21821">
        <ele>1295</ele>
        <time>2023-11-19T14:17:53Z</time>
      </trkpt>
      <trkpt lat="43.01483" lon="0.21819">
        <ele>1294.9</ele>
        <time>2023-11-19T14:17:54Z</time>
      </trkpt>
      <trkpt lat="43.01483" lon="0.21817">
        <ele>1294.9</ele>
        <time>2023-11-19T14:17:55Z</time>
      </trkpt>
      <trkpt lat="43.01482" lon="0.21816">
        <ele>1294.8</ele>
        <time>2023-11-19T14:17:56Z</time>
      </trkpt>
      <trkpt lat="43.01482" lon="0.21815">
        <ele>1294.8</ele>
        <time>2023-11-19T14:17:57Z</time>
      </trkpt>
      <trkpt lat="43.01482" lon="0.21814">
        <ele>1294.8</ele>
        <time>2023-11-19T14:17:58Z</time>
      </trkpt>
      <trkpt lat="43.01482" lon="0.21813">
        <ele>1294.8</ele>
        <time>2023-11-19T14:17:59Z</time>
      </trkpt>
      <trkpt lat="43.01482" lon="0.21812">
        <ele>1294.7</ele>
        <time>2023-11-19T14:18:00Z</time>
      </trkpt>
      <trkpt lat="43.01482" lon="0.2181">
        <ele>1294.7</ele>
        <time>2023-11-19T14:18:01Z</time>
      </trkpt>
      <trkpt lat="43.01481" lon="0.21808">
        <ele>1294.6</ele>
        <time>2023-11-19T14:18:02Z</time>
      </trkpt>
      <trkpt lat="43.01481" lon="0.21806">
        <ele>1294.5</ele>
        <time>2023-11-19T14:18:03Z</time>
      </trkpt>
      <trkpt lat="43.0148" lon="0.21805">
        <ele>1294.5</ele>
        <time>2023-11-19T14:18:04Z</time>
      </trkpt>
      <trkpt lat="43.01481" lon="0.21804">
        <ele>1294.4</ele>
        <time>2023-11-19T14:18:05Z</time>
      </trkpt>
      <trkpt lat="43.0148" lon="0.21803">
        <ele>1294.4</ele>
        <time>2023-11-19T14:18:06Z</time>
      </trkpt>
      <trkpt lat="43.0148" lon="0.21802">
        <ele>1294.3</ele>
        <time>2023-11-19T14:18:07Z</time>
      </trkpt>
      <trkpt lat="43.0148" lon="0.218">
        <ele>1294.3</ele>
        <time>2023-11-19T14:18:08Z</time>
      </trkpt>
      <trkpt lat="43.0148" lon="0.21799">
        <ele>1294.2</ele>
        <time>2023-11-19T14:18:09Z</time>
      </trkpt>
      <trkpt lat="43.01479" lon="0.21797">
        <ele>1294.2</ele>
        <time>2023-11-19T14:18:10Z</time>
      </trkpt>
      <trkpt lat="43.01479" lon="0.21795">
        <ele>1294.1</ele>
        <time>2023-11-19T14:18:11Z</time>
      </trkpt>
      <trkpt lat="43.01479" lon="0.21794">
        <ele>1294</ele>
        <time>2023-11-19T14:18:12Z</time>
      </trkpt>
      <trkpt lat="43.01479" lon="0.21792">
        <ele>1294</ele>
        <time>2023-11-19T14:18:13Z</time>
      </trkpt>
      <trkpt lat="43.01479" lon="0.21791">
        <ele>1293.9</ele>
        <time>2023-11-19T14:18:14Z</time>
      </trkpt>
      <trkpt lat="43.01478" lon="0.21788">
        <ele>1293.8</ele>
        <time>2023-11-19T14:18:15Z</time>
      </trkpt>
      <trkpt lat="43.01478" lon="0.21788">
        <ele>1293.7</ele>
        <time>2023-11-19T14:18:16Z</time>
      </trkpt>
      <trkpt lat="43.01478" lon="0.21785">
        <ele>1293.6</ele>
        <time>2023-11-19T14:18:17Z</time>
      </trkpt>
      <trkpt lat="43.01478" lon="0.21784">
        <ele>1293.6</ele>
        <time>2023-11-19T14:18:18Z</time>
      </trkpt>
      <trkpt lat="43.01477" lon="0.21783">
        <ele>1293.5</ele>
        <time>2023-11-19T14:18:19Z</time>
      </trkpt>
      <trkpt lat="43.01477" lon="0.21781">
        <ele>1293.4</ele>
        <time>2023-11-19T14:18:20Z</time>
      </trkpt>
      <trkpt lat="43.01477" lon="0.2178">
        <ele>1293.4</ele>
        <time>2023-11-19T14:18:21Z</time>
      </trkpt>
      <trkpt lat="43.01477" lon="0.21778">
        <ele>1293.3</ele>
        <time>2023-11-19T14:18:22Z</time>
      </trkpt>
      <trkpt lat="43.01477" lon="0.21777">
        <ele>1293.2</ele>
        <time>2023-11-19T14:18:23Z</time>
      </trkpt>
      <trkpt lat="43.01476" lon="0.21776">
        <ele>1293.1</ele>
        <time>2023-11-19T14:18:24Z</time>
      </trkpt>
      <trkpt lat="43.01476" lon="0.21773">
        <ele>1293</ele>
        <time>2023-11-19T14:18:25Z</time>
      </trkpt>
      <trkpt lat="43.01475" lon="0.21772">
        <ele>1292.9</ele>
        <time>2023-11-19T14:18:26Z</time>
      </trkpt>
      <trkpt lat="43.01475" lon="0.21771">
        <ele>1292.9</ele>
        <time>2023-11-19T14:18:27Z</time>
      </trkpt>
      <trkpt lat="43.01475" lon="0.21769">
        <ele>1292.8</ele>
        <time>2023-11-19T14:18:28Z</time>
      </trkpt>
      <trkpt lat="43.01475" lon="0.21768">
        <ele>1292.7</ele>
        <time>2023-11-19T14:18:29Z</time>
      </trkpt>
      <trkpt lat="43.01474" lon="0.21766">
        <ele>1292.6</ele>
        <time>2023-11-19T14:18:30Z</time>
      </trkpt>
      <trkpt lat="43.01473" lon="0.21765">
        <ele>1292.5</ele>
        <time>2023-11-19T14:18:31Z</time>
      </trkpt>
      <trkpt lat="43.01473" lon="0.21763">
        <ele>1292.4</ele>
        <time>2023-11-19T14:18:32Z</time>
      </trkpt>
      <trkpt lat="43.01473" lon="0.21762">
        <ele>1292.4</ele>
        <time>2023-11-19T14:18:33Z</time>
      </trkpt>
      <trkpt lat="43.01473" lon="0.21761">
        <ele>1292.3</ele>
        <time>2023-11-19T14:18:34Z</time>
      </trkpt>
      <trkpt lat="43.01472" lon="0.2176">
        <ele>1292.2</ele>
        <time>2023-11-19T14:18:35Z</time>
      </trkpt>
      <trkpt lat="43.01472" lon="0.21758">
        <ele>1292.1</ele>
        <time>2023-11-19T14:18:36Z</time>
      </trkpt>
      <trkpt lat="43.01472" lon="0.21757">
        <ele>1292</ele>
        <time>2023-11-19T14:18:37Z</time>
      </trkpt>
      <trkpt lat="43.01471" lon="0.21756">
        <ele>1291.9</ele>
        <time>2023-11-19T14:18:38Z</time>
      </trkpt>
      <trkpt lat="43.0147" lon="0.21754">
        <ele>1291.8</ele>
        <time>2023-11-19T14:18:39Z</time>
      </trkpt>
      <trkpt lat="43.0147" lon="0.21753">
        <ele>1291.7</ele>
        <time>2023-11-19T14:18:40Z</time>
      </trkpt>
      <trkpt lat="43.01469" lon="0.21751">
        <ele>1291.6</ele>
        <time>2023-11-19T14:18:41Z</time>
      </trkpt>
      <trkpt lat="43.01469" lon="0.2175">
        <ele>1291.4</ele>
        <time>2023-11-19T14:18:42Z</time>
      </trkpt>
      <trkpt lat="43.01469" lon="0.21748">
        <ele>1291.3</ele>
        <time>2023-11-19T14:18:43Z</time>
      </trkpt>
      <trkpt lat="43.01469" lon="0.21746">
        <ele>1291.2</ele>
        <time>2023-11-19T14:18:44Z</time>
      </trkpt>
      <trkpt lat="43.01469" lon="0.21745">
        <ele>1291.1</ele>
        <time>2023-11-19T14:18:45Z</time>
      </trkpt>
      <trkpt lat="43.01469" lon="0.21743">
        <ele>1291</ele>
        <time>2023-11-19T14:18:46Z</time>
      </trkpt>
      <trkpt lat="43.01468" lon="0.21741">
        <ele>1290.8</ele>
        <time>2023-11-19T14:18:47Z</time>
      </trkpt>
      <trkpt lat="43.01469" lon="0.21738">
        <ele>1290.6</ele>
        <time>2023-11-19T14:18:48Z</time>
      </trkpt>
      <trkpt lat="43.01469" lon="0.21737">
        <ele>1290.5</ele>
        <time>2023-11-19T14:18:49Z</time>
      </trkpt>
      <trkpt lat="43.01469" lon="0.21736">
        <ele>1290.4</ele>
        <time>2023-11-19T14:18:50Z</time>
      </trkpt>
      <trkpt lat="43.01469" lon="0.21735">
        <ele>1290.3</ele>
        <time>2023-11-19T14:18:51Z</time>
      </trkpt>
      <trkpt lat="43.01469" lon="0.21733">
        <ele>1290.2</ele>
        <time>2023-11-19T14:18:52Z</time>
      </trkpt>
      <trkpt lat="43.01469" lon="0.21731">
        <ele>1290.1</ele>
        <time>2023-11-19T14:18:53Z</time>
      </trkpt>
      <trkpt lat="43.01468" lon="0.21729">
        <ele>1289.9</ele>
        <time>2023-11-19T14:18:54Z</time>
      </trkpt>
      <trkpt lat="43.01468" lon="0.21727">
        <ele>1289.8</ele>
        <time>2023-11-19T14:18:55Z</time>
      </trkpt>
      <trkpt lat="43.01467" lon="0.21726">
        <ele>1289.7</ele>
        <time>2023-11-19T14:18:56Z</time>
      </trkpt>
      <trkpt lat="43.01466" lon="0.21726">
        <ele>1289.6</ele>
        <time>2023-11-19T14:18:57Z</time>
      </trkpt>
      <trkpt lat="43.01465" lon="0.21726">
        <ele>1289.5</ele>
        <time>2023-11-19T14:18:58Z</time>
      </trkpt>
      <trkpt lat="43.01465" lon="0.21725">
        <ele>1289.4</ele>
        <time>2023-11-19T14:18:59Z</time>
      </trkpt>
      <trkpt lat="43.01464" lon="0.21724">
        <ele>1289.3</ele>
        <time>2023-11-19T14:19:00Z</time>
      </trkpt>
      <trkpt lat="43.01464" lon="0.21722">
        <ele>1289.2</ele>
        <time>2023-11-19T14:19:01Z</time>
      </trkpt>
      <trkpt lat="43.01463" lon="0.21721">
        <ele>1289.1</ele>
        <time>2023-11-19T14:19:02Z</time>
      </trkpt>
      <trkpt lat="43.01463" lon="0.21719">
        <ele>1288.9</ele>
        <time>2023-11-19T14:19:03Z</time>
      </trkpt>
      <trkpt lat="43.01463" lon="0.21717">
        <ele>1288.8</ele>
        <time>2023-11-19T14:19:04Z</time>
      </trkpt>
      <trkpt lat="43.01461" lon="0.21717">
        <ele>1288.7</ele>
        <time>2023-11-19T14:19:05Z</time>
      </trkpt>
      <trkpt lat="43.01462" lon="0.21715">
        <ele>1288.6</ele>
        <time>2023-11-19T14:19:06Z</time>
      </trkpt>
      <trkpt lat="43.01462" lon="0.21714">
        <ele>1288.5</ele>
        <time>2023-11-19T14:19:07Z</time>
      </trkpt>
      <trkpt lat="43.01462" lon="0.21712">
        <ele>1288.4</ele>
        <time>2023-11-19T14:19:08Z</time>
      </trkpt>
      <trkpt lat="43.01461" lon="0.21711">
        <ele>1288.3</ele>
        <time>2023-11-19T14:19:09Z</time>
      </trkpt>
      <trkpt lat="43.01461" lon="0.2171">
        <ele>1288.2</ele>
        <time>2023-11-19T14:19:10Z</time>
      </trkpt>
      <trkpt lat="43.01462" lon="0.21709">
        <ele>1288.1</ele>
        <time>2023-11-19T14:19:11Z</time>
      </trkpt>
      <trkpt lat="43.01463" lon="0.21708">
        <ele>1288</ele>
        <time>2023-11-19T14:19:12Z</time>
      </trkpt>
      <trkpt lat="43.01463" lon="0.21709">
        <ele>1287.9</ele>
        <time>2023-11-19T14:19:13Z</time>
      </trkpt>
      <trkpt lat="43.01463" lon="0.2171">
        <ele>1287.9</ele>
        <time>2023-11-19T14:19:14Z</time>
      </trkpt>
      <trkpt lat="43.01463" lon="0.21709">
        <ele>1287.9</ele>
        <time>2023-11-19T14:19:15Z</time>
      </trkpt>
      <trkpt lat="43.01463" lon="0.21707">
        <ele>1287.8</ele>
        <time>2023-11-19T14:19:16Z</time>
      </trkpt>
      <trkpt lat="43.01463" lon="0.21706">
        <ele>1287.7</ele>
        <time>2023-11-19T14:19:17Z</time>
      </trkpt>
      <trkpt lat="43.01463" lon="0.21704">
        <ele>1287.6</ele>
        <time>2023-11-19T14:19:18Z</time>
      </trkpt>
      <trkpt lat="43.01463" lon="0.21702">
        <ele>1287.5</ele>
        <time>2023-11-19T14:19:19Z</time>
      </trkpt>
      <trkpt lat="43.01464" lon="0.21701">
        <ele>1287.4</ele>
        <time>2023-11-19T14:19:20Z</time>
      </trkpt>
      <trkpt lat="43.01464" lon="0.217">
        <ele>1287.4</ele>
        <time>2023-11-19T14:19:21Z</time>
      </trkpt>
      <trkpt lat="43.01464" lon="0.21698">
        <ele>1287.3</ele>
        <time>2023-11-19T14:19:22Z</time>
      </trkpt>
      <trkpt lat="43.01465" lon="0.21695">
        <ele>1287.2</ele>
        <time>2023-11-19T14:19:23Z</time>
      </trkpt>
      <trkpt lat="43.01465" lon="0.21694">
        <ele>1287.1</ele>
        <time>2023-11-19T14:19:24Z</time>
      </trkpt>
      <trkpt lat="43.01465" lon="0.21693">
        <ele>1287.1</ele>
        <time>2023-11-19T14:19:25Z</time>
      </trkpt>
      <trkpt lat="43.01466" lon="0.21691">
        <ele>1287</ele>
        <time>2023-11-19T14:19:26Z</time>
      </trkpt>
      <trkpt lat="43.01465" lon="0.21689">
        <ele>1286.9</ele>
        <time>2023-11-19T14:19:27Z</time>
      </trkpt>
      <trkpt lat="43.01464" lon="0.21686">
        <ele>1286.9</ele>
        <time>2023-11-19T14:19:28Z</time>
      </trkpt>
      <trkpt lat="43.01464" lon="0.21685">
        <ele>1286.9</ele>
        <time>2023-11-19T14:19:29Z</time>
      </trkpt>
      <trkpt lat="43.01464" lon="0.21682">
        <ele>1286.8</ele>
        <time>2023-11-19T14:19:30Z</time>
      </trkpt>
      <trkpt lat="43.01464" lon="0.21681">
        <ele>1286.8</ele>
        <time>2023-11-19T14:19:31Z</time>
      </trkpt>
      <trkpt lat="43.01464" lon="0.2168">
        <ele>1286.8</ele>
        <time>2023-11-19T14:19:32Z</time>
      </trkpt>
      <trkpt lat="43.01463" lon="0.21677">
        <ele>1286.8</ele>
        <time>2023-11-19T14:19:33Z</time>
      </trkpt>
      <trkpt lat="43.01463" lon="0.21676">
        <ele>1286.8</ele>
        <time>2023-11-19T14:19:34Z</time>
      </trkpt>
      <trkpt lat="43.01463" lon="0.21675">
        <ele>1286.8</ele>
        <time>2023-11-19T14:19:35Z</time>
      </trkpt>
      <trkpt lat="43.01463" lon="0.21674">
        <ele>1286.8</ele>
        <time>2023-11-19T14:19:36Z</time>
      </trkpt>
      <trkpt lat="43.01462" lon="0.21673">
        <ele>1286.8</ele>
        <time>2023-11-19T14:19:37Z</time>
      </trkpt>
      <trkpt lat="43.01462" lon="0.21671">
        <ele>1286.8</ele>
        <time>2023-11-19T14:19:38Z</time>
      </trkpt>
      <trkpt lat="43.01462" lon="0.2167">
        <ele>1286.9</ele>
        <time>2023-11-19T14:19:39Z</time>
      </trkpt>
      <trkpt lat="43.01463" lon="0.21669">
        <ele>1286.9</ele>
        <time>2023-11-19T14:19:40Z</time>
      </trkpt>
      <trkpt lat="43.01463" lon="0.21668">
        <ele>1286.9</ele>
        <time>2023-11-19T14:19:41Z</time>
      </trkpt>
      <trkpt lat="43.01463" lon="0.21666">
        <ele>1286.9</ele>
        <time>2023-11-19T14:19:42Z</time>
      </trkpt>
      <trkpt lat="43.01462" lon="0.21665">
        <ele>1287</ele>
        <time>2023-11-19T14:19:43Z</time>
      </trkpt>
      <trkpt lat="43.01462" lon="0.21664">
        <ele>1287</ele>
        <time>2023-11-19T14:19:44Z</time>
      </trkpt>
      <trkpt lat="43.01462" lon="0.21663">
        <ele>1287</ele>
        <time>2023-11-19T14:19:45Z</time>
      </trkpt>
      <trkpt lat="43.01462" lon="0.21662">
        <ele>1287</ele>
        <time>2023-11-19T14:19:46Z</time>
      </trkpt>
      <trkpt lat="43.01462" lon="0.21662">
        <ele>1287</ele>
        <time>2023-11-19T14:19:47Z</time>
      </trkpt>
      <trkpt lat="43.01463" lon="0.2166">
        <ele>1287.1</ele>
        <time>2023-11-19T14:19:48Z</time>
      </trkpt>
      <trkpt lat="43.01462" lon="0.21659">
        <ele>1287.1</ele>
        <time>2023-11-19T14:19:49Z</time>
      </trkpt>
      <trkpt lat="43.01463" lon="0.21658">
        <ele>1287.1</ele>
        <time>2023-11-19T14:19:50Z</time>
      </trkpt>
      <trkpt lat="43.01463" lon="0.21658">
        <ele>1287.2</ele>
        <time>2023-11-19T14:19:51Z</time>
      </trkpt>
      <trkpt lat="43.01463" lon="0.21656">
        <ele>1287.2</ele>
        <time>2023-11-19T14:19:52Z</time>
      </trkpt>
      <trkpt lat="43.01463" lon="0.21655">
        <ele>1287.2</ele>
        <time>2023-11-19T14:19:53Z</time>
      </trkpt>
      <trkpt lat="43.01464" lon="0.21654">
        <ele>1287.3</ele>
        <time>2023-11-19T14:19:54Z</time>
      </trkpt>
      <trkpt lat="43.01464" lon="0.21653">
        <ele>1287.3</ele>
        <time>2023-11-19T14:19:55Z</time>
      </trkpt>
      <trkpt lat="43.01464" lon="0.21652">
        <ele>1287.4</ele>
        <time>2023-11-19T14:19:56Z</time>
      </trkpt>
      <trkpt lat="43.01465" lon="0.21651">
        <ele>1287.4</ele>
        <time>2023-11-19T14:19:57Z</time>
      </trkpt>
      <trkpt lat="43.01465" lon="0.2165">
        <ele>1287.5</ele>
        <time>2023-11-19T14:19:58Z</time>
      </trkpt>
      <trkpt lat="43.01466" lon="0.21649">
        <ele>1287.6</ele>
        <time>2023-11-19T14:19:59Z</time>
      </trkpt>
      <trkpt lat="43.01467" lon="0.21648">
        <ele>1287.6</ele>
        <time>2023-11-19T14:20:00Z</time>
      </trkpt>
      <trkpt lat="43.01467" lon="0.21647">
        <ele>1287.7</ele>
        <time>2023-11-19T14:20:01Z</time>
      </trkpt>
      <trkpt lat="43.01468" lon="0.21647">
        <ele>1287.8</ele>
        <time>2023-11-19T14:20:02Z</time>
      </trkpt>
      <trkpt lat="43.01469" lon="0.21646">
        <ele>1287.9</ele>
        <time>2023-11-19T14:20:03Z</time>
      </trkpt>
      <trkpt lat="43.0147" lon="0.21646">
        <ele>1288</ele>
        <time>2023-11-19T14:20:04Z</time>
      </trkpt>
      <trkpt lat="43.01471" lon="0.21645">
        <ele>1288.1</ele>
        <time>2023-11-19T14:20:05Z</time>
      </trkpt>
      <trkpt lat="43.01472" lon="0.21644">
        <ele>1288.2</ele>
        <time>2023-11-19T14:20:06Z</time>
      </trkpt>
      <trkpt lat="43.01473" lon="0.21643">
        <ele>1288.3</ele>
        <time>2023-11-19T14:20:07Z</time>
      </trkpt>
      <trkpt lat="43.01474" lon="0.21643">
        <ele>1288.3</ele>
        <time>2023-11-19T14:20:08Z</time>
      </trkpt>
      <trkpt lat="43.01474" lon="0.21643">
        <ele>1288.4</ele>
        <time>2023-11-19T14:20:09Z</time>
      </trkpt>
      <trkpt lat="43.01475" lon="0.21642">
        <ele>1288.5</ele>
        <time>2023-11-19T14:20:10Z</time>
      </trkpt>
      <trkpt lat="43.01476" lon="0.21642">
        <ele>1288.6</ele>
        <time>2023-11-19T14:20:11Z</time>
      </trkpt>
      <trkpt lat="43.01477" lon="0.21641">
        <ele>1288.8</ele>
        <time>2023-11-19T14:20:12Z</time>
      </trkpt>
      <trkpt lat="43.01477" lon="0.2164">
        <ele>1288.9</ele>
        <time>2023-11-19T14:20:13Z</time>
      </trkpt>
      <trkpt lat="43.01479" lon="0.2164">
        <ele>1289</ele>
        <time>2023-11-19T14:20:14Z</time>
      </trkpt>
      <trkpt lat="43.0148" lon="0.2164">
        <ele>1289.2</ele>
        <time>2023-11-19T14:20:15Z</time>
      </trkpt>
      <trkpt lat="43.01481" lon="0.2164">
        <ele>1289.3</ele>
        <time>2023-11-19T14:20:16Z</time>
      </trkpt>
      <trkpt lat="43.01482" lon="0.21639">
        <ele>1289.3</ele>
        <time>2023-11-19T14:20:17Z</time>
      </trkpt>
      <trkpt lat="43.01482" lon="0.21639">
        <ele>1289.4</ele>
        <time>2023-11-19T14:20:18Z</time>
      </trkpt>
      <trkpt lat="43.01483" lon="0.21638">
        <ele>1289.5</ele>
        <time>2023-11-19T14:20:19Z</time>
      </trkpt>
      <trkpt lat="43.01484" lon="0.21637">
        <ele>1289.6</ele>
        <time>2023-11-19T14:20:20Z</time>
      </trkpt>
      <trkpt lat="43.01484" lon="0.21636">
        <ele>1289.8</ele>
        <time>2023-11-19T14:20:21Z</time>
      </trkpt>
      <trkpt lat="43.01485" lon="0.21635">
        <ele>1289.9</ele>
        <time>2023-11-19T14:20:22Z</time>
      </trkpt>
      <trkpt lat="43.01486" lon="0.21635">
        <ele>1290</ele>
        <time>2023-11-19T14:20:23Z</time>
      </trkpt>
      <trkpt lat="43.01487" lon="0.21634">
        <ele>1290.1</ele>
        <time>2023-11-19T14:20:24Z</time>
      </trkpt>
      <trkpt lat="43.01488" lon="0.21634">
        <ele>1290.2</ele>
        <time>2023-11-19T14:20:25Z</time>
      </trkpt>
      <trkpt lat="43.01489" lon="0.21633">
        <ele>1290.3</ele>
        <time>2023-11-19T14:20:26Z</time>
      </trkpt>
      <trkpt lat="43.01489" lon="0.21633">
        <ele>1290.4</ele>
        <time>2023-11-19T14:20:27Z</time>
      </trkpt>
      <trkpt lat="43.0149" lon="0.21632">
        <ele>1290.4</ele>
        <time>2023-11-19T14:20:28Z</time>
      </trkpt>
      <trkpt lat="43.01491" lon="0.21631">
        <ele>1290.6</ele>
        <time>2023-11-19T14:20:29Z</time>
      </trkpt>
      <trkpt lat="43.01491" lon="0.21631">
        <ele>1290.6</ele>
        <time>2023-11-19T14:20:30Z</time>
      </trkpt>
      <trkpt lat="43.01492" lon="0.2163">
        <ele>1290.7</ele>
        <time>2023-11-19T14:20:31Z</time>
      </trkpt>
      <trkpt lat="43.01493" lon="0.2163">
        <ele>1290.9</ele>
        <time>2023-11-19T14:20:32Z</time>
      </trkpt>
      <trkpt lat="43.01493" lon="0.21628">
        <ele>1291</ele>
        <time>2023-11-19T14:20:33Z</time>
      </trkpt>
      <trkpt lat="43.01493" lon="0.21627">
        <ele>1291</ele>
        <time>2023-11-19T14:20:34Z</time>
      </trkpt>
      <trkpt lat="43.01492" lon="0.21625">
        <ele>1291.1</ele>
        <time>2023-11-19T14:20:35Z</time>
      </trkpt>
      <trkpt lat="43.01492" lon="0.21624">
        <ele>1291.1</ele>
        <time>2023-11-19T14:20:36Z</time>
      </trkpt>
      <trkpt lat="43.01493" lon="0.21624">
        <ele>1291.2</ele>
        <time>2023-11-19T14:20:37Z</time>
      </trkpt>
      <trkpt lat="43.01492" lon="0.21622">
        <ele>1291.2</ele>
        <time>2023-11-19T14:20:38Z</time>
      </trkpt>
      <trkpt lat="43.01493" lon="0.21621">
        <ele>1291.2</ele>
        <time>2023-11-19T14:20:39Z</time>
      </trkpt>
      <trkpt lat="43.01493" lon="0.2162">
        <ele>1291.3</ele>
        <time>2023-11-19T14:20:40Z</time>
      </trkpt>
      <trkpt lat="43.01493" lon="0.21619">
        <ele>1291.3</ele>
        <time>2023-11-19T14:20:41Z</time>
      </trkpt>
      <trkpt lat="43.01494" lon="0.21619">
        <ele>1291.3</ele>
        <time>2023-11-19T14:20:42Z</time>
      </trkpt>
      <trkpt lat="43.01494" lon="0.21618">
        <ele>1291.4</ele>
        <time>2023-11-19T14:20:43Z</time>
      </trkpt>
      <trkpt lat="43.01493" lon="0.21616">
        <ele>1291.4</ele>
        <time>2023-11-19T14:20:44Z</time>
      </trkpt>
      <trkpt lat="43.01494" lon="0.21614">
        <ele>1291.5</ele>
        <time>2023-11-19T14:20:45Z</time>
      </trkpt>
      <trkpt lat="43.01494" lon="0.21613">
        <ele>1291.5</ele>
        <time>2023-11-19T14:20:46Z</time>
      </trkpt>
      <trkpt lat="43.01494" lon="0.21612">
        <ele>1291.6</ele>
        <time>2023-11-19T14:20:47Z</time>
      </trkpt>
      <trkpt lat="43.01494" lon="0.21611">
        <ele>1291.6</ele>
        <time>2023-11-19T14:20:48Z</time>
      </trkpt>
      <trkpt lat="43.01494" lon="0.21609">
        <ele>1291.7</ele>
        <time>2023-11-19T14:20:49Z</time>
      </trkpt>
      <trkpt lat="43.01494" lon="0.21608">
        <ele>1291.8</ele>
        <time>2023-11-19T14:20:50Z</time>
      </trkpt>
      <trkpt lat="43.01493" lon="0.21606">
        <ele>1291.8</ele>
        <time>2023-11-19T14:20:51Z</time>
      </trkpt>
      <trkpt lat="43.01493" lon="0.21605">
        <ele>1291.9</ele>
        <time>2023-11-19T14:20:52Z</time>
      </trkpt>
      <trkpt lat="43.01493" lon="0.21604">
        <ele>1291.9</ele>
        <time>2023-11-19T14:20:53Z</time>
      </trkpt>
      <trkpt lat="43.01493" lon="0.21603">
        <ele>1292</ele>
        <time>2023-11-19T14:20:55Z</time>
      </trkpt>
      <trkpt lat="43.01494" lon="0.21602">
        <ele>1292</ele>
        <time>2023-11-19T14:20:56Z</time>
      </trkpt>
      <trkpt lat="43.01494" lon="0.21601">
        <ele>1292.1</ele>
        <time>2023-11-19T14:20:57Z</time>
      </trkpt>
      <trkpt lat="43.01494" lon="0.21599">
        <ele>1292.1</ele>
        <time>2023-11-19T14:20:58Z</time>
      </trkpt>
      <trkpt lat="43.01493" lon="0.21598">
        <ele>1292.2</ele>
        <time>2023-11-19T14:20:59Z</time>
      </trkpt>
      <trkpt lat="43.01493" lon="0.21596">
        <ele>1292.3</ele>
        <time>2023-11-19T14:21:00Z</time>
      </trkpt>
      <trkpt lat="43.01493" lon="0.21595">
        <ele>1292.3</ele>
        <time>2023-11-19T14:21:01Z</time>
      </trkpt>
      <trkpt lat="43.01492" lon="0.21594">
        <ele>1292.4</ele>
        <time>2023-11-19T14:21:02Z</time>
      </trkpt>
      <trkpt lat="43.01492" lon="0.21592">
        <ele>1292.4</ele>
        <time>2023-11-19T14:21:03Z</time>
      </trkpt>
      <trkpt lat="43.01492" lon="0.21591">
        <ele>1292.5</ele>
        <time>2023-11-19T14:21:04Z</time>
      </trkpt>
      <trkpt lat="43.01493" lon="0.21592">
        <ele>1292.6</ele>
        <time>2023-11-19T14:21:05Z</time>
      </trkpt>
      <trkpt lat="43.01493" lon="0.2159">
        <ele>1292.6</ele>
        <time>2023-11-19T14:21:06Z</time>
      </trkpt>
      <trkpt lat="43.01493" lon="0.21589">
        <ele>1292.7</ele>
        <time>2023-11-19T14:21:07Z</time>
      </trkpt>
      <trkpt lat="43.01493" lon="0.21588">
        <ele>1292.7</ele>
        <time>2023-11-19T14:21:08Z</time>
      </trkpt>
      <trkpt lat="43.01494" lon="0.21587">
        <ele>1292.7</ele>
        <time>2023-11-19T14:21:09Z</time>
      </trkpt>
      <trkpt lat="43.01493" lon="0.21585">
        <ele>1292.8</ele>
        <time>2023-11-19T14:21:10Z</time>
      </trkpt>
      <trkpt lat="43.01494" lon="0.21583">
        <ele>1292.9</ele>
        <time>2023-11-19T14:21:11Z</time>
      </trkpt>
      <trkpt lat="43.01494" lon="0.21582">
        <ele>1292.9</ele>
        <time>2023-11-19T14:21:12Z</time>
      </trkpt>
      <trkpt lat="43.01494" lon="0.21581">
        <ele>1292.9</ele>
        <time>2023-11-19T14:21:13Z</time>
      </trkpt>
      <trkpt lat="43.01493" lon="0.21579">
        <ele>1293</ele>
        <time>2023-11-19T14:21:14Z</time>
      </trkpt>
      <trkpt lat="43.01494" lon="0.21578">
        <ele>1293</ele>
        <time>2023-11-19T14:21:15Z</time>
      </trkpt>
      <trkpt lat="43.01495" lon="0.21578">
        <ele>1293</ele>
        <time>2023-11-19T14:21:16Z</time>
      </trkpt>
      <trkpt lat="43.01495" lon="0.21577">
        <ele>1293.1</ele>
        <time>2023-11-19T14:21:17Z</time>
      </trkpt>
      <trkpt lat="43.01496" lon="0.21576">
        <ele>1293.1</ele>
        <time>2023-11-19T14:21:18Z</time>
      </trkpt>
      <trkpt lat="43.01496" lon="0.21574">
        <ele>1293.1</ele>
        <time>2023-11-19T14:21:19Z</time>
      </trkpt>
      <trkpt lat="43.01497" lon="0.21572">
        <ele>1293.1</ele>
        <time>2023-11-19T14:21:20Z</time>
      </trkpt>
      <trkpt lat="43.01498" lon="0.21572">
        <ele>1293.2</ele>
        <time>2023-11-19T14:21:21Z</time>
      </trkpt>
      <trkpt lat="43.01499" lon="0.2157">
        <ele>1293.2</ele>
        <time>2023-11-19T14:21:22Z</time>
      </trkpt>
      <trkpt lat="43.01499" lon="0.21568">
        <ele>1293.2</ele>
        <time>2023-11-19T14:21:23Z</time>
      </trkpt>
      <trkpt lat="43.01498" lon="0.21566">
        <ele>1293.3</ele>
        <time>2023-11-19T14:21:24Z</time>
      </trkpt>
      <trkpt lat="43.01498" lon="0.21564">
        <ele>1293.3</ele>
        <time>2023-11-19T14:21:25Z</time>
      </trkpt>
      <trkpt lat="43.01499" lon="0.21564">
        <ele>1293.3</ele>
        <time>2023-11-19T14:21:26Z</time>
      </trkpt>
      <trkpt lat="43.01499" lon="0.21563">
        <ele>1293.3</ele>
        <time>2023-11-19T14:21:27Z</time>
      </trkpt>
      <trkpt lat="43.015" lon="0.21561">
        <ele>1293.3</ele>
        <time>2023-11-19T14:21:28Z</time>
      </trkpt>
      <trkpt lat="43.015" lon="0.2156">
        <ele>1293.4</ele>
        <time>2023-11-19T14:21:29Z</time>
      </trkpt>
      <trkpt lat="43.01501" lon="0.2156">
        <ele>1293.4</ele>
        <time>2023-11-19T14:21:30Z</time>
      </trkpt>
      <trkpt lat="43.01501" lon="0.21557">
        <ele>1293.4</ele>
        <time>2023-11-19T14:21:31Z</time>
      </trkpt>
      <trkpt lat="43.01501" lon="0.21554">
        <ele>1293.4</ele>
        <time>2023-11-19T14:21:32Z</time>
      </trkpt>
      <trkpt lat="43.01502" lon="0.21554">
        <ele>1293.4</ele>
        <time>2023-11-19T14:21:33Z</time>
      </trkpt>
      <trkpt lat="43.01501" lon="0.21553">
        <ele>1293.5</ele>
        <time>2023-11-19T14:21:34Z</time>
      </trkpt>
      <trkpt lat="43.01502" lon="0.21552">
        <ele>1293.5</ele>
        <time>2023-11-19T14:21:35Z</time>
      </trkpt>
      <trkpt lat="43.01504" lon="0.21553">
        <ele>1293.5</ele>
        <time>2023-11-19T14:21:36Z</time>
      </trkpt>
      <trkpt lat="43.01504" lon="0.21553">
        <ele>1293.5</ele>
        <time>2023-11-19T14:21:37Z</time>
      </trkpt>
      <trkpt lat="43.01505" lon="0.21551">
        <ele>1293.6</ele>
        <time>2023-11-19T14:21:38Z</time>
      </trkpt>
      <trkpt lat="43.01505" lon="0.21549">
        <ele>1293.6</ele>
        <time>2023-11-19T14:21:39Z</time>
      </trkpt>
      <trkpt lat="43.01505" lon="0.21548">
        <ele>1293.6</ele>
        <time>2023-11-19T14:21:40Z</time>
      </trkpt>
      <trkpt lat="43.01507" lon="0.21545">
        <ele>1293.6</ele>
        <time>2023-11-19T14:21:41Z</time>
      </trkpt>
      <trkpt lat="43.01507" lon="0.21544">
        <ele>1293.6</ele>
        <time>2023-11-19T14:21:42Z</time>
      </trkpt>
      <trkpt lat="43.01508" lon="0.21543">
        <ele>1293.6</ele>
        <time>2023-11-19T14:21:43Z</time>
      </trkpt>
      <trkpt lat="43.01507" lon="0.21541">
        <ele>1293.6</ele>
        <time>2023-11-19T14:21:44Z</time>
      </trkpt>
      <trkpt lat="43.01508" lon="0.2154">
        <ele>1293.6</ele>
        <time>2023-11-19T14:21:45Z</time>
      </trkpt>
      <trkpt lat="43.01508" lon="0.21539">
        <ele>1293.6</ele>
        <time>2023-11-19T14:21:46Z</time>
      </trkpt>
      <trkpt lat="43.01508" lon="0.21539">
        <ele>1293.6</ele>
        <time>2023-11-19T14:21:47Z</time>
      </trkpt>
      <trkpt lat="43.01507" lon="0.21538">
        <ele>1293.6</ele>
        <time>2023-11-19T14:21:48Z</time>
      </trkpt>
      <trkpt lat="43.01507" lon="0.21538">
        <ele>1293.6</ele>
        <time>2023-11-19T14:21:49Z</time>
      </trkpt>
      <trkpt lat="43.01506" lon="0.21537">
        <ele>1293.6</ele>
        <time>2023-11-19T14:21:50Z</time>
      </trkpt>
      <trkpt lat="43.01507" lon="0.21537">
        <ele>1293.6</ele>
        <time>2023-11-19T14:21:51Z</time>
      </trkpt>
      <trkpt lat="43.01507" lon="0.21535">
        <ele>1293.6</ele>
        <time>2023-11-19T14:21:52Z</time>
      </trkpt>
      <trkpt lat="43.01508" lon="0.21534">
        <ele>1293.6</ele>
        <time>2023-11-19T14:21:53Z</time>
      </trkpt>
      <trkpt lat="43.01507" lon="0.21533">
        <ele>1293.6</ele>
        <time>2023-11-19T14:21:54Z</time>
      </trkpt>
      <trkpt lat="43.01507" lon="0.21532">
        <ele>1293.6</ele>
        <time>2023-11-19T14:21:55Z</time>
      </trkpt>
      <trkpt lat="43.01508" lon="0.21532">
        <ele>1293.6</ele>
        <time>2023-11-19T14:21:56Z</time>
      </trkpt>
      <trkpt lat="43.01508" lon="0.21531">
        <ele>1293.6</ele>
        <time>2023-11-19T14:21:57Z</time>
      </trkpt>
      <trkpt lat="43.01511" lon="0.21527">
        <ele>1293.6</ele>
        <time>2023-11-19T14:21:58Z</time>
      </trkpt>
      <trkpt lat="43.01512" lon="0.21526">
        <ele>1293.5</ele>
        <time>2023-11-19T14:21:59Z</time>
      </trkpt>
      <trkpt lat="43.01511" lon="0.21525">
        <ele>1293.5</ele>
        <time>2023-11-19T14:22:00Z</time>
      </trkpt>
      <trkpt lat="43.01511" lon="0.21525">
        <ele>1293.5</ele>
        <time>2023-11-19T14:22:01Z</time>
      </trkpt>
      <trkpt lat="43.01511" lon="0.21524">
        <ele>1293.5</ele>
        <time>2023-11-19T14:22:02Z</time>
      </trkpt>
      <trkpt lat="43.0151" lon="0.21523">
        <ele>1293.4</ele>
        <time>2023-11-19T14:22:03Z</time>
      </trkpt>
      <trkpt lat="43.0151" lon="0.21523">
        <ele>1293.4</ele>
        <time>2023-11-19T14:22:04Z</time>
      </trkpt>
      <trkpt lat="43.01509" lon="0.21519">
        <ele>1293.4</ele>
        <time>2023-11-19T14:22:05Z</time>
      </trkpt>
      <trkpt lat="43.01509" lon="0.21519">
        <ele>1293.3</ele>
        <time>2023-11-19T14:22:06Z</time>
      </trkpt>
      <trkpt lat="43.01509" lon="0.21518">
        <ele>1293.3</ele>
        <time>2023-11-19T14:22:07Z</time>
      </trkpt>
      <trkpt lat="43.01509" lon="0.21517">
        <ele>1293.3</ele>
        <time>2023-11-19T14:22:08Z</time>
      </trkpt>
      <trkpt lat="43.01511" lon="0.21517">
        <ele>1293.3</ele>
        <time>2023-11-19T14:22:09Z</time>
      </trkpt>
      <trkpt lat="43.01512" lon="0.21516">
        <ele>1293.2</ele>
        <time>2023-11-19T14:22:10Z</time>
      </trkpt>
      <trkpt lat="43.01512" lon="0.21515">
        <ele>1293.2</ele>
        <time>2023-11-19T14:22:11Z</time>
      </trkpt>
      <trkpt lat="43.01512" lon="0.21514">
        <ele>1293.2</ele>
        <time>2023-11-19T14:22:12Z</time>
      </trkpt>
      <trkpt lat="43.01513" lon="0.21513">
        <ele>1293.1</ele>
        <time>2023-11-19T14:22:13Z</time>
      </trkpt>
      <trkpt lat="43.01513" lon="0.21512">
        <ele>1293.1</ele>
        <time>2023-11-19T14:22:14Z</time>
      </trkpt>
      <trkpt lat="43.01513" lon="0.21512">
        <ele>1293.1</ele>
        <time>2023-11-19T14:22:15Z</time>
      </trkpt>
      <trkpt lat="43.01514" lon="0.21511">
        <ele>1293</ele>
        <time>2023-11-19T14:22:16Z</time>
      </trkpt>
      <trkpt lat="43.01514" lon="0.2151">
        <ele>1293</ele>
        <time>2023-11-19T14:22:17Z</time>
      </trkpt>
      <trkpt lat="43.01514" lon="0.21511">
        <ele>1293</ele>
        <time>2023-11-19T14:22:18Z</time>
      </trkpt>
      <trkpt lat="43.01514" lon="0.21513">
        <ele>1292.9</ele>
        <time>2023-11-19T14:22:19Z</time>
      </trkpt>
      <trkpt lat="43.01513" lon="0.21515">
        <ele>1292.8</ele>
        <time>2023-11-19T14:22:20Z</time>
      </trkpt>
      <trkpt lat="43.01513" lon="0.21515">
        <ele>1292.8</ele>
        <time>2023-11-19T14:22:21Z</time>
      </trkpt>
      <trkpt lat="43.01513" lon="0.21515">
        <ele>1292.8</ele>
        <time>2023-11-19T14:22:22Z</time>
      </trkpt>
      <trkpt lat="43.01513" lon="0.21515">
        <ele>1292.8</ele>
        <time>2023-11-19T14:22:23Z</time>
      </trkpt>
      <trkpt lat="43.01513" lon="0.21515">
        <ele>1292.8</ele>
        <time>2023-11-19T14:22:24Z</time>
      </trkpt>
      <trkpt lat="43.01513" lon="0.21515">
        <ele>1292.8</ele>
        <time>2023-11-19T14:22:25Z</time>
      </trkpt>
      <trkpt lat="43.01513" lon="0.21515">
        <ele>1292.8</ele>
        <time>2023-11-19T14:22:26Z</time>
      </trkpt>
      <trkpt lat="43.01514" lon="0.2152">
        <ele>1292.7</ele>
        <time>2023-11-19T14:22:27Z</time>
      </trkpt>
      <trkpt lat="43.01515" lon="0.21517">
        <ele>1292.6</ele>
        <time>2023-11-19T14:22:28Z</time>
      </trkpt>
      <trkpt lat="43.01515" lon="0.21515">
        <ele>1292.6</ele>
        <time>2023-11-19T14:22:29Z</time>
      </trkpt>
      <trkpt lat="43.01516" lon="0.21514">
        <ele>1292.5</ele>
        <time>2023-11-19T14:22:30Z</time>
      </trkpt>
      <trkpt lat="43.01518" lon="0.21511">
        <ele>1292.4</ele>
        <time>2023-11-19T14:22:31Z</time>
      </trkpt>
      <trkpt lat="43.0152" lon="0.21508">
        <ele>1292.3</ele>
        <time>2023-11-19T14:22:32Z</time>
      </trkpt>
      <trkpt lat="43.01521" lon="0.21508">
        <ele>1292.2</ele>
        <time>2023-11-19T14:22:33Z</time>
      </trkpt>
      <trkpt lat="43.01521" lon="0.21507">
        <ele>1292.2</ele>
        <time>2023-11-19T14:22:34Z</time>
      </trkpt>
      <trkpt lat="43.01522" lon="0.21505">
        <ele>1292.2</ele>
        <time>2023-11-19T14:22:35Z</time>
      </trkpt>
      <trkpt lat="43.01522" lon="0.21503">
        <ele>1292.1</ele>
        <time>2023-11-19T14:22:36Z</time>
      </trkpt>
      <trkpt lat="43.01524" lon="0.21502">
        <ele>1292</ele>
        <time>2023-11-19T14:22:37Z</time>
      </trkpt>
      <trkpt lat="43.01524" lon="0.215">
        <ele>1292</ele>
        <time>2023-11-19T14:22:38Z</time>
      </trkpt>
      <trkpt lat="43.01525" lon="0.21497">
        <ele>1291.9</ele>
        <time>2023-11-19T14:22:39Z</time>
      </trkpt>
      <trkpt lat="43.01526" lon="0.21497">
        <ele>1291.9</ele>
        <time>2023-11-19T14:22:40Z</time>
      </trkpt>
      <trkpt lat="43.01527" lon="0.21496">
        <ele>1291.9</ele>
        <time>2023-11-19T14:22:41Z</time>
      </trkpt>
      <trkpt lat="43.01527" lon="0.21495">
        <ele>1291.8</ele>
        <time>2023-11-19T14:22:42Z</time>
      </trkpt>
      <trkpt lat="43.01528" lon="0.21494">
        <ele>1291.8</ele>
        <time>2023-11-19T14:22:43Z</time>
      </trkpt>
      <trkpt lat="43.01529" lon="0.21493">
        <ele>1291.8</ele>
        <time>2023-11-19T14:22:44Z</time>
      </trkpt>
      <trkpt lat="43.0153" lon="0.21492">
        <ele>1291.7</ele>
        <time>2023-11-19T14:22:45Z</time>
      </trkpt>
      <trkpt lat="43.0153" lon="0.21492">
        <ele>1291.7</ele>
        <time>2023-11-19T14:22:46Z</time>
      </trkpt>
      <trkpt lat="43.0153" lon="0.21491">
        <ele>1291.7</ele>
        <time>2023-11-19T14:22:47Z</time>
      </trkpt>
      <trkpt lat="43.0153" lon="0.21488">
        <ele>1291.7</ele>
        <time>2023-11-19T14:22:48Z</time>
      </trkpt>
      <trkpt lat="43.0153" lon="0.21487">
        <ele>1291.6</ele>
        <time>2023-11-19T14:22:49Z</time>
      </trkpt>
      <trkpt lat="43.01532" lon="0.21486">
        <ele>1291.6</ele>
        <time>2023-11-19T14:22:50Z</time>
      </trkpt>
      <trkpt lat="43.01533" lon="0.21484">
        <ele>1291.5</ele>
        <time>2023-11-19T14:22:51Z</time>
      </trkpt>
      <trkpt lat="43.01533" lon="0.21482">
        <ele>1291.5</ele>
        <time>2023-11-19T14:22:52Z</time>
      </trkpt>
      <trkpt lat="43.01534" lon="0.21479">
        <ele>1291.4</ele>
        <time>2023-11-19T14:22:53Z</time>
      </trkpt>
      <trkpt lat="43.01534" lon="0.21478">
        <ele>1291.4</ele>
        <time>2023-11-19T14:22:54Z</time>
      </trkpt>
      <trkpt lat="43.01534" lon="0.21476">
        <ele>1291.4</ele>
        <time>2023-11-19T14:22:55Z</time>
      </trkpt>
      <trkpt lat="43.01535" lon="0.21473">
        <ele>1291.3</ele>
        <time>2023-11-19T14:22:56Z</time>
      </trkpt>
      <trkpt lat="43.01536" lon="0.21473">
        <ele>1291.3</ele>
        <time>2023-11-19T14:22:57Z</time>
      </trkpt>
      <trkpt lat="43.01537" lon="0.2147">
        <ele>1291.2</ele>
        <time>2023-11-19T14:22:58Z</time>
      </trkpt>
      <trkpt lat="43.01538" lon="0.21469">
        <ele>1291.2</ele>
        <time>2023-11-19T14:22:59Z</time>
      </trkpt>
      <trkpt lat="43.01539" lon="0.21468">
        <ele>1291.2</ele>
        <time>2023-11-19T14:23:01Z</time>
      </trkpt>
      <trkpt lat="43.01539" lon="0.21467">
        <ele>1291.1</ele>
        <time>2023-11-19T14:23:02Z</time>
      </trkpt>
      <trkpt lat="43.0154" lon="0.21465">
        <ele>1291.1</ele>
        <time>2023-11-19T14:23:03Z</time>
      </trkpt>
      <trkpt lat="43.01541" lon="0.21463">
        <ele>1291.1</ele>
        <time>2023-11-19T14:23:04Z</time>
      </trkpt>
      <trkpt lat="43.01541" lon="0.21462">
        <ele>1291</ele>
        <time>2023-11-19T14:23:05Z</time>
      </trkpt>
      <trkpt lat="43.01542" lon="0.21461">
        <ele>1291</ele>
        <time>2023-11-19T14:23:06Z</time>
      </trkpt>
      <trkpt lat="43.01542" lon="0.2146">
        <ele>1291</ele>
        <time>2023-11-19T14:23:07Z</time>
      </trkpt>
      <trkpt lat="43.01543" lon="0.21459">
        <ele>1291</ele>
        <time>2023-11-19T14:23:08Z</time>
      </trkpt>
      <trkpt lat="43.01544" lon="0.21458">
        <ele>1290.9</ele>
        <time>2023-11-19T14:23:09Z</time>
      </trkpt>
      <trkpt lat="43.01544" lon="0.21458">
        <ele>1290.9</ele>
        <time>2023-11-19T14:23:10Z</time>
      </trkpt>
      <trkpt lat="43.01545" lon="0.21457">
        <ele>1290.9</ele>
        <time>2023-11-19T14:23:11Z</time>
      </trkpt>
      <trkpt lat="43.01546" lon="0.21455">
        <ele>1290.8</ele>
        <time>2023-11-19T14:23:12Z</time>
      </trkpt>
      <trkpt lat="43.01547" lon="0.21454">
        <ele>1290.8</ele>
        <time>2023-11-19T14:23:13Z</time>
      </trkpt>
      <trkpt lat="43.01548" lon="0.21453">
        <ele>1290.8</ele>
        <time>2023-11-19T14:23:14Z</time>
      </trkpt>
      <trkpt lat="43.01548" lon="0.21452">
        <ele>1290.8</ele>
        <time>2023-11-19T14:23:15Z</time>
      </trkpt>
      <trkpt lat="43.0155" lon="0.21451">
        <ele>1290.7</ele>
        <time>2023-11-19T14:23:16Z</time>
      </trkpt>
      <trkpt lat="43.0155" lon="0.2145">
        <ele>1290.7</ele>
        <time>2023-11-19T14:23:17Z</time>
      </trkpt>
      <trkpt lat="43.01551" lon="0.21447">
        <ele>1290.7</ele>
        <time>2023-11-19T14:23:18Z</time>
      </trkpt>
      <trkpt lat="43.01552" lon="0.21446">
        <ele>1290.6</ele>
        <time>2023-11-19T14:23:19Z</time>
      </trkpt>
      <trkpt lat="43.01553" lon="0.21444">
        <ele>1290.6</ele>
        <time>2023-11-19T14:23:20Z</time>
      </trkpt>
      <trkpt lat="43.01554" lon="0.21443">
        <ele>1290.6</ele>
        <time>2023-11-19T14:23:21Z</time>
      </trkpt>
      <trkpt lat="43.01554" lon="0.21442">
        <ele>1290.6</ele>
        <time>2023-11-19T14:23:22Z</time>
      </trkpt>
      <trkpt lat="43.01554" lon="0.2144">
        <ele>1290.6</ele>
        <time>2023-11-19T14:23:23Z</time>
      </trkpt>
      <trkpt lat="43.01556" lon="0.2144">
        <ele>1290.6</ele>
        <time>2023-11-19T14:23:24Z</time>
      </trkpt>
      <trkpt lat="43.01556" lon="0.21436">
        <ele>1290.5</ele>
        <time>2023-11-19T14:23:25Z</time>
      </trkpt>
      <trkpt lat="43.01557" lon="0.21435">
        <ele>1290.5</ele>
        <time>2023-11-19T14:23:26Z</time>
      </trkpt>
      <trkpt lat="43.01557" lon="0.21431">
        <ele>1290.5</ele>
        <time>2023-11-19T14:23:27Z</time>
      </trkpt>
      <trkpt lat="43.01557" lon="0.2143">
        <ele>1290.5</ele>
        <time>2023-11-19T14:23:28Z</time>
      </trkpt>
      <trkpt lat="43.01557" lon="0.21428">
        <ele>1290.5</ele>
        <time>2023-11-19T14:23:29Z</time>
      </trkpt>
      <trkpt lat="43.01557" lon="0.21427">
        <ele>1290.5</ele>
        <time>2023-11-19T14:23:30Z</time>
      </trkpt>
      <trkpt lat="43.01558" lon="0.21426">
        <ele>1290.5</ele>
        <time>2023-11-19T14:23:31Z</time>
      </trkpt>
      <trkpt lat="43.01559" lon="0.21424">
        <ele>1290.6</ele>
        <time>2023-11-19T14:23:32Z</time>
      </trkpt>
      <trkpt lat="43.0156" lon="0.21422">
        <ele>1290.6</ele>
        <time>2023-11-19T14:23:33Z</time>
      </trkpt>
      <trkpt lat="43.0156" lon="0.2142">
        <ele>1290.6</ele>
        <time>2023-11-19T14:23:34Z</time>
      </trkpt>
      <trkpt lat="43.01562" lon="0.21419">
        <ele>1290.6</ele>
        <time>2023-11-19T14:23:35Z</time>
      </trkpt>
      <trkpt lat="43.01563" lon="0.21418">
        <ele>1290.6</ele>
        <time>2023-11-19T14:23:36Z</time>
      </trkpt>
      <trkpt lat="43.01564" lon="0.21417">
        <ele>1290.7</ele>
        <time>2023-11-19T14:23:37Z</time>
      </trkpt>
      <trkpt lat="43.01565" lon="0.21417">
        <ele>1290.7</ele>
        <time>2023-11-19T14:23:38Z</time>
      </trkpt>
      <trkpt lat="43.01567" lon="0.21415">
        <ele>1290.7</ele>
        <time>2023-11-19T14:23:39Z</time>
      </trkpt>
      <trkpt lat="43.01567" lon="0.21415">
        <ele>1290.8</ele>
        <time>2023-11-19T14:23:40Z</time>
      </trkpt>
      <trkpt lat="43.01568" lon="0.21413">
        <ele>1290.8</ele>
        <time>2023-11-19T14:23:41Z</time>
      </trkpt>
      <trkpt lat="43.01568" lon="0.21412">
        <ele>1290.8</ele>
        <time>2023-11-19T14:23:42Z</time>
      </trkpt>
      <trkpt lat="43.01569" lon="0.21411">
        <ele>1290.9</ele>
        <time>2023-11-19T14:23:43Z</time>
      </trkpt>
      <trkpt lat="43.0157" lon="0.2141">
        <ele>1290.9</ele>
        <time>2023-11-19T14:23:44Z</time>
      </trkpt>
      <trkpt lat="43.01571" lon="0.21409">
        <ele>1290.9</ele>
        <time>2023-11-19T14:23:45Z</time>
      </trkpt>
      <trkpt lat="43.01572" lon="0.21408">
        <ele>1291</ele>
        <time>2023-11-19T14:23:46Z</time>
      </trkpt>
      <trkpt lat="43.01573" lon="0.21407">
        <ele>1291</ele>
        <time>2023-11-19T14:23:47Z</time>
      </trkpt>
      <trkpt lat="43.01574" lon="0.21406">
        <ele>1291.1</ele>
        <time>2023-11-19T14:23:48Z</time>
      </trkpt>
      <trkpt lat="43.01575" lon="0.21405">
        <ele>1291.1</ele>
        <time>2023-11-19T14:23:49Z</time>
      </trkpt>
      <trkpt lat="43.01575" lon="0.21403">
        <ele>1291.2</ele>
        <time>2023-11-19T14:23:50Z</time>
      </trkpt>
      <trkpt lat="43.01576" lon="0.21401">
        <ele>1291.2</ele>
        <time>2023-11-19T14:23:51Z</time>
      </trkpt>
      <trkpt lat="43.01577" lon="0.214">
        <ele>1291.3</ele>
        <time>2023-11-19T14:23:52Z</time>
      </trkpt>
      <trkpt lat="43.01578" lon="0.21399">
        <ele>1291.4</ele>
        <time>2023-11-19T14:23:53Z</time>
      </trkpt>
      <trkpt lat="43.0158" lon="0.21398">
        <ele>1291.4</ele>
        <time>2023-11-19T14:23:54Z</time>
      </trkpt>
      <trkpt lat="43.0158" lon="0.21398">
        <ele>1291.4</ele>
        <time>2023-11-19T14:23:55Z</time>
      </trkpt>
      <trkpt lat="43.01579" lon="0.21396">
        <ele>1291.5</ele>
        <time>2023-11-19T14:23:56Z</time>
      </trkpt>
      <trkpt lat="43.01581" lon="0.21393">
        <ele>1291.6</ele>
        <time>2023-11-19T14:23:57Z</time>
      </trkpt>
      <trkpt lat="43.01582" lon="0.21392">
        <ele>1291.7</ele>
        <time>2023-11-19T14:23:58Z</time>
      </trkpt>
      <trkpt lat="43.01582" lon="0.21392">
        <ele>1291.7</ele>
        <time>2023-11-19T14:23:59Z</time>
      </trkpt>
      <trkpt lat="43.01583" lon="0.21392">
        <ele>1291.8</ele>
        <time>2023-11-19T14:24:00Z</time>
      </trkpt>
      <trkpt lat="43.01584" lon="0.2139">
        <ele>1291.9</ele>
        <time>2023-11-19T14:24:01Z</time>
      </trkpt>
      <trkpt lat="43.01583" lon="0.2139">
        <ele>1291.9</ele>
        <time>2023-11-19T14:24:02Z</time>
      </trkpt>
      <trkpt lat="43.01584" lon="0.21389">
        <ele>1292</ele>
        <time>2023-11-19T14:24:03Z</time>
      </trkpt>
      <trkpt lat="43.01585" lon="0.21389">
        <ele>1292.1</ele>
        <time>2023-11-19T14:24:04Z</time>
      </trkpt>
      <trkpt lat="43.01586" lon="0.21387">
        <ele>1292.1</ele>
        <time>2023-11-19T14:24:05Z</time>
      </trkpt>
      <trkpt lat="43.01586" lon="0.21386">
        <ele>1292.2</ele>
        <time>2023-11-19T14:24:06Z</time>
      </trkpt>
      <trkpt lat="43.01587" lon="0.21385">
        <ele>1292.2</ele>
        <time>2023-11-19T14:24:07Z</time>
      </trkpt>
      <trkpt lat="43.01589" lon="0.21383">
        <ele>1292.4</ele>
        <time>2023-11-19T14:24:08Z</time>
      </trkpt>
      <trkpt lat="43.0159" lon="0.21382">
        <ele>1292.4</ele>
        <time>2023-11-19T14:24:09Z</time>
      </trkpt>
      <trkpt lat="43.01592" lon="0.21381">
        <ele>1292.6</ele>
        <time>2023-11-19T14:24:10Z</time>
      </trkpt>
      <trkpt lat="43.01592" lon="0.2138">
        <ele>1292.6</ele>
        <time>2023-11-19T14:24:11Z</time>
      </trkpt>
      <trkpt lat="43.01593" lon="0.21379">
        <ele>1292.7</ele>
        <time>2023-11-19T14:24:12Z</time>
      </trkpt>
      <trkpt lat="43.01592" lon="0.21378">
        <ele>1292.7</ele>
        <time>2023-11-19T14:24:13Z</time>
      </trkpt>
      <trkpt lat="43.01593" lon="0.21377">
        <ele>1292.8</ele>
        <time>2023-11-19T14:24:14Z</time>
      </trkpt>
      <trkpt lat="43.01594" lon="0.21376">
        <ele>1292.9</ele>
        <time>2023-11-19T14:24:15Z</time>
      </trkpt>
      <trkpt lat="43.01595" lon="0.21376">
        <ele>1292.9</ele>
        <time>2023-11-19T14:24:16Z</time>
      </trkpt>
      <trkpt lat="43.01595" lon="0.21374">
        <ele>1293</ele>
        <time>2023-11-19T14:24:17Z</time>
      </trkpt>
      <trkpt lat="43.01595" lon="0.21373">
        <ele>1293.1</ele>
        <time>2023-11-19T14:24:18Z</time>
      </trkpt>
      <trkpt lat="43.01595" lon="0.21372">
        <ele>1293.1</ele>
        <time>2023-11-19T14:24:19Z</time>
      </trkpt>
      <trkpt lat="43.01596" lon="0.21371">
        <ele>1293.2</ele>
        <time>2023-11-19T14:24:20Z</time>
      </trkpt>
      <trkpt lat="43.01596" lon="0.2137">
        <ele>1293.2</ele>
        <time>2023-11-19T14:24:21Z</time>
      </trkpt>
      <trkpt lat="43.01597" lon="0.2137">
        <ele>1293.3</ele>
        <time>2023-11-19T14:24:22Z</time>
      </trkpt>
      <trkpt lat="43.01597" lon="0.21368">
        <ele>1293.4</ele>
        <time>2023-11-19T14:24:23Z</time>
      </trkpt>
      <trkpt lat="43.01596" lon="0.21367">
        <ele>1293.4</ele>
        <time>2023-11-19T14:24:24Z</time>
      </trkpt>
      <trkpt lat="43.01596" lon="0.21365">
        <ele>1293.5</ele>
        <time>2023-11-19T14:24:25Z</time>
      </trkpt>
      <trkpt lat="43.01595" lon="0.21364">
        <ele>1293.6</ele>
        <time>2023-11-19T14:24:26Z</time>
      </trkpt>
      <trkpt lat="43.01595" lon="0.21364">
        <ele>1293.6</ele>
        <time>2023-11-19T14:24:27Z</time>
      </trkpt>
      <trkpt lat="43.01595" lon="0.21363">
        <ele>1293.6</ele>
        <time>2023-11-19T14:24:28Z</time>
      </trkpt>
      <trkpt lat="43.01595" lon="0.21361">
        <ele>1293.7</ele>
        <time>2023-11-19T14:24:29Z</time>
      </trkpt>
      <trkpt lat="43.01596" lon="0.2136">
        <ele>1293.7</ele>
        <time>2023-11-19T14:24:30Z</time>
      </trkpt>
      <trkpt lat="43.01596" lon="0.21359">
        <ele>1293.7</ele>
        <time>2023-11-19T14:24:31Z</time>
      </trkpt>
      <trkpt lat="43.01598" lon="0.2136">
        <ele>1293.8</ele>
        <time>2023-11-19T14:24:32Z</time>
      </trkpt>
      <trkpt lat="43.01598" lon="0.21357">
        <ele>1293.9</ele>
        <time>2023-11-19T14:24:33Z</time>
      </trkpt>
      <trkpt lat="43.01598" lon="0.21357">
        <ele>1293.9</ele>
        <time>2023-11-19T14:24:34Z</time>
      </trkpt>
      <trkpt lat="43.01598" lon="0.21356">
        <ele>1294</ele>
        <time>2023-11-19T14:24:35Z</time>
      </trkpt>
      <trkpt lat="43.01599" lon="0.21355">
        <ele>1294</ele>
        <time>2023-11-19T14:24:36Z</time>
      </trkpt>
      <trkpt lat="43.01599" lon="0.21352">
        <ele>1294</ele>
        <time>2023-11-19T14:24:37Z</time>
      </trkpt>
      <trkpt lat="43.016" lon="0.21352">
        <ele>1294.1</ele>
        <time>2023-11-19T14:24:38Z</time>
      </trkpt>
      <trkpt lat="43.016" lon="0.21351">
        <ele>1294.1</ele>
        <time>2023-11-19T14:24:39Z</time>
      </trkpt>
      <trkpt lat="43.016" lon="0.2135">
        <ele>1294.1</ele>
        <time>2023-11-19T14:24:40Z</time>
      </trkpt>
      <trkpt lat="43.01602" lon="0.21348">
        <ele>1294.2</ele>
        <time>2023-11-19T14:24:41Z</time>
      </trkpt>
      <trkpt lat="43.01602" lon="0.21347">
        <ele>1294.2</ele>
        <time>2023-11-19T14:24:42Z</time>
      </trkpt>
      <trkpt lat="43.01603" lon="0.21346">
        <ele>1294.2</ele>
        <time>2023-11-19T14:24:43Z</time>
      </trkpt>
      <trkpt lat="43.01604" lon="0.21345">
        <ele>1294.2</ele>
        <time>2023-11-19T14:24:44Z</time>
      </trkpt>
      <trkpt lat="43.01604" lon="0.21343">
        <ele>1294.2</ele>
        <time>2023-11-19T14:24:45Z</time>
      </trkpt>
      <trkpt lat="43.01605" lon="0.2134">
        <ele>1294.3</ele>
        <time>2023-11-19T14:24:46Z</time>
      </trkpt>
      <trkpt lat="43.01605" lon="0.21339">
        <ele>1294.3</ele>
        <time>2023-11-19T14:24:47Z</time>
      </trkpt>
      <trkpt lat="43.01606" lon="0.21338">
        <ele>1294.3</ele>
        <time>2023-11-19T14:24:48Z</time>
      </trkpt>
      <trkpt lat="43.01606" lon="0.21337">
        <ele>1294.3</ele>
        <time>2023-11-19T14:24:49Z</time>
      </trkpt>
      <trkpt lat="43.01606" lon="0.21333">
        <ele>1294.3</ele>
        <time>2023-11-19T14:24:50Z</time>
      </trkpt>
      <trkpt lat="43.01606" lon="0.21331">
        <ele>1294.3</ele>
        <time>2023-11-19T14:24:51Z</time>
      </trkpt>
      <trkpt lat="43.01605" lon="0.21328">
        <ele>1294.2</ele>
        <time>2023-11-19T14:24:52Z</time>
      </trkpt>
      <trkpt lat="43.01605" lon="0.21327">
        <ele>1294.2</ele>
        <time>2023-11-19T14:24:53Z</time>
      </trkpt>
      <trkpt lat="43.01606" lon="0.21326">
        <ele>1294.2</ele>
        <time>2023-11-19T14:24:54Z</time>
      </trkpt>
      <trkpt lat="43.01607" lon="0.21326">
        <ele>1294.2</ele>
        <time>2023-11-19T14:24:55Z</time>
      </trkpt>
      <trkpt lat="43.01608" lon="0.21325">
        <ele>1294.2</ele>
        <time>2023-11-19T14:24:56Z</time>
      </trkpt>
      <trkpt lat="43.01609" lon="0.21322">
        <ele>1294.1</ele>
        <time>2023-11-19T14:24:57Z</time>
      </trkpt>
      <trkpt lat="43.01609" lon="0.21321">
        <ele>1294.1</ele>
        <time>2023-11-19T14:24:58Z</time>
      </trkpt>
      <trkpt lat="43.01609" lon="0.21319">
        <ele>1294.1</ele>
        <time>2023-11-19T14:24:59Z</time>
      </trkpt>
      <trkpt lat="43.01609" lon="0.21317">
        <ele>1294.1</ele>
        <time>2023-11-19T14:25:00Z</time>
      </trkpt>
      <trkpt lat="43.0161" lon="0.21316">
        <ele>1294</ele>
        <time>2023-11-19T14:25:01Z</time>
      </trkpt>
      <trkpt lat="43.01611" lon="0.21314">
        <ele>1294</ele>
        <time>2023-11-19T14:25:02Z</time>
      </trkpt>
      <trkpt lat="43.01611" lon="0.21313">
        <ele>1294</ele>
        <time>2023-11-19T14:25:03Z</time>
      </trkpt>
      <trkpt lat="43.01611" lon="0.21311">
        <ele>1293.9</ele>
        <time>2023-11-19T14:25:04Z</time>
      </trkpt>
      <trkpt lat="43.01611" lon="0.21309">
        <ele>1293.9</ele>
        <time>2023-11-19T14:25:05Z</time>
      </trkpt>
      <trkpt lat="43.01611" lon="0.21306">
        <ele>1293.8</ele>
        <time>2023-11-19T14:25:07Z</time>
      </trkpt>
      <trkpt lat="43.01611" lon="0.21305">
        <ele>1293.8</ele>
        <time>2023-11-19T14:25:08Z</time>
      </trkpt>
      <trkpt lat="43.01611" lon="0.21304">
        <ele>1293.8</ele>
        <time>2023-11-19T14:25:09Z</time>
      </trkpt>
      <trkpt lat="43.01612" lon="0.21302">
        <ele>1293.7</ele>
        <time>2023-11-19T14:25:10Z</time>
      </trkpt>
      <trkpt lat="43.01612" lon="0.213">
        <ele>1293.7</ele>
        <time>2023-11-19T14:25:11Z</time>
      </trkpt>
      <trkpt lat="43.01612" lon="0.21299">
        <ele>1293.7</ele>
        <time>2023-11-19T14:25:12Z</time>
      </trkpt>
      <trkpt lat="43.01612" lon="0.21297">
        <ele>1293.6</ele>
        <time>2023-11-19T14:25:13Z</time>
      </trkpt>
      <trkpt lat="43.01613" lon="0.21295">
        <ele>1293.6</ele>
        <time>2023-11-19T14:25:14Z</time>
      </trkpt>
      <trkpt lat="43.01613" lon="0.21294">
        <ele>1293.6</ele>
        <time>2023-11-19T14:25:15Z</time>
      </trkpt>
      <trkpt lat="43.01613" lon="0.21293">
        <ele>1293.5</ele>
        <time>2023-11-19T14:25:16Z</time>
      </trkpt>
      <trkpt lat="43.01613" lon="0.21292">
        <ele>1293.5</ele>
        <time>2023-11-19T14:25:17Z</time>
      </trkpt>
      <trkpt lat="43.01615" lon="0.21292">
        <ele>1293.5</ele>
        <time>2023-11-19T14:25:18Z</time>
      </trkpt>
      <trkpt lat="43.01614" lon="0.21288">
        <ele>1293.4</ele>
        <time>2023-11-19T14:25:19Z</time>
      </trkpt>
      <trkpt lat="43.01614" lon="0.21287">
        <ele>1293.4</ele>
        <time>2023-11-19T14:25:20Z</time>
      </trkpt>
      <trkpt lat="43.01614" lon="0.21283">
        <ele>1293.4</ele>
        <time>2023-11-19T14:25:21Z</time>
      </trkpt>
      <trkpt lat="43.01614" lon="0.21282">
        <ele>1293.3</ele>
        <time>2023-11-19T14:25:22Z</time>
      </trkpt>
      <trkpt lat="43.01613" lon="0.21279">
        <ele>1293.3</ele>
        <time>2023-11-19T14:25:23Z</time>
      </trkpt>
      <trkpt lat="43.01614" lon="0.21278">
        <ele>1293.3</ele>
        <time>2023-11-19T14:25:24Z</time>
      </trkpt>
      <trkpt lat="43.01614" lon="0.21273">
        <ele>1293.3</ele>
        <time>2023-11-19T14:25:25Z</time>
      </trkpt>
      <trkpt lat="43.01613" lon="0.21272">
        <ele>1293.3</ele>
        <time>2023-11-19T14:25:26Z</time>
      </trkpt>
      <trkpt lat="43.01614" lon="0.2127">
        <ele>1293.4</ele>
        <time>2023-11-19T14:25:27Z</time>
      </trkpt>
      <trkpt lat="43.01614" lon="0.21269">
        <ele>1293.4</ele>
        <time>2023-11-19T14:25:28Z</time>
      </trkpt>
      <trkpt lat="43.01615" lon="0.21268">
        <ele>1293.4</ele>
        <time>2023-11-19T14:25:29Z</time>
      </trkpt>
      <trkpt lat="43.01615" lon="0.21265">
        <ele>1293.4</ele>
        <time>2023-11-19T14:25:30Z</time>
      </trkpt>
      <trkpt lat="43.01616" lon="0.21264">
        <ele>1293.4</ele>
        <time>2023-11-19T14:25:31Z</time>
      </trkpt>
      <trkpt lat="43.01616" lon="0.21263">
        <ele>1293.5</ele>
        <time>2023-11-19T14:25:32Z</time>
      </trkpt>
      <trkpt lat="43.01618" lon="0.21261">
        <ele>1293.6</ele>
        <time>2023-11-19T14:25:33Z</time>
      </trkpt>
      <trkpt lat="43.01619" lon="0.21261">
        <ele>1293.6</ele>
        <time>2023-11-19T14:25:34Z</time>
      </trkpt>
      <trkpt lat="43.0162" lon="0.2126">
        <ele>1293.6</ele>
        <time>2023-11-19T14:25:35Z</time>
      </trkpt>
      <trkpt lat="43.01621" lon="0.2126">
        <ele>1293.7</ele>
        <time>2023-11-19T14:25:36Z</time>
      </trkpt>
      <trkpt lat="43.01621" lon="0.21259">
        <ele>1293.7</ele>
        <time>2023-11-19T14:25:37Z</time>
      </trkpt>
      <trkpt lat="43.01622" lon="0.21258">
        <ele>1293.7</ele>
        <time>2023-11-19T14:25:38Z</time>
      </trkpt>
      <trkpt lat="43.01623" lon="0.21258">
        <ele>1293.8</ele>
        <time>2023-11-19T14:25:39Z</time>
      </trkpt>
      <trkpt lat="43.01624" lon="0.21256">
        <ele>1293.8</ele>
        <time>2023-11-19T14:25:40Z</time>
      </trkpt>
      <trkpt lat="43.01624" lon="0.21256">
        <ele>1293.9</ele>
        <time>2023-11-19T14:25:41Z</time>
      </trkpt>
      <trkpt lat="43.01625" lon="0.21255">
        <ele>1293.9</ele>
        <time>2023-11-19T14:25:42Z</time>
      </trkpt>
      <trkpt lat="43.01626" lon="0.21254">
        <ele>1294</ele>
        <time>2023-11-19T14:25:43Z</time>
      </trkpt>
      <trkpt lat="43.01627" lon="0.21254">
        <ele>1294</ele>
        <time>2023-11-19T14:25:44Z</time>
      </trkpt>
      <trkpt lat="43.01629" lon="0.21252">
        <ele>1294.1</ele>
        <time>2023-11-19T14:25:45Z</time>
      </trkpt>
      <trkpt lat="43.0163" lon="0.21252">
        <ele>1294.1</ele>
        <time>2023-11-19T14:25:46Z</time>
      </trkpt>
      <trkpt lat="43.01631" lon="0.21252">
        <ele>1294.2</ele>
        <time>2023-11-19T14:25:47Z</time>
      </trkpt>
      <trkpt lat="43.01633" lon="0.21254">
        <ele>1294.3</ele>
        <time>2023-11-19T14:25:48Z</time>
      </trkpt>
      <trkpt lat="43.01634" lon="0.21253">
        <ele>1294.3</ele>
        <time>2023-11-19T14:25:49Z</time>
      </trkpt>
      <trkpt lat="43.0164" lon="0.21252">
        <ele>1294.5</ele>
        <time>2023-11-19T14:25:50Z</time>
      </trkpt>
      <trkpt lat="43.01638" lon="0.2125">
        <ele>1294.5</ele>
        <time>2023-11-19T14:25:51Z</time>
      </trkpt>
      <trkpt lat="43.01639" lon="0.21249">
        <ele>1294.5</ele>
        <time>2023-11-19T14:25:52Z</time>
      </trkpt>
      <trkpt lat="43.01639" lon="0.21248">
        <ele>1294.6</ele>
        <time>2023-11-19T14:25:53Z</time>
      </trkpt>
      <trkpt lat="43.0164" lon="0.21247">
        <ele>1294.6</ele>
        <time>2023-11-19T14:25:54Z</time>
      </trkpt>
      <trkpt lat="43.0164" lon="0.21246">
        <ele>1294.6</ele>
        <time>2023-11-19T14:25:55Z</time>
      </trkpt>
      <trkpt lat="43.0164" lon="0.21245">
        <ele>1294.6</ele>
        <time>2023-11-19T14:25:56Z</time>
      </trkpt>
      <trkpt lat="43.0164" lon="0.21244">
        <ele>1294.6</ele>
        <time>2023-11-19T14:25:57Z</time>
      </trkpt>
      <trkpt lat="43.01641" lon="0.21243">
        <ele>1294.6</ele>
        <time>2023-11-19T14:25:58Z</time>
      </trkpt>
      <trkpt lat="43.0164" lon="0.21242">
        <ele>1294.6</ele>
        <time>2023-11-19T14:25:59Z</time>
      </trkpt>
      <trkpt lat="43.0164" lon="0.2124">
        <ele>1294.6</ele>
        <time>2023-11-19T14:26:00Z</time>
      </trkpt>
      <trkpt lat="43.01641" lon="0.2124">
        <ele>1294.6</ele>
        <time>2023-11-19T14:26:01Z</time>
      </trkpt>
      <trkpt lat="43.01642" lon="0.21239">
        <ele>1294.6</ele>
        <time>2023-11-19T14:26:02Z</time>
      </trkpt>
      <trkpt lat="43.01643" lon="0.21237">
        <ele>1294.6</ele>
        <time>2023-11-19T14:26:03Z</time>
      </trkpt>
      <trkpt lat="43.01643" lon="0.21236">
        <ele>1294.6</ele>
        <time>2023-11-19T14:26:04Z</time>
      </trkpt>
      <trkpt lat="43.01643" lon="0.21235">
        <ele>1294.6</ele>
        <time>2023-11-19T14:26:05Z</time>
      </trkpt>
      <trkpt lat="43.01645" lon="0.21233">
        <ele>1294.6</ele>
        <time>2023-11-19T14:26:06Z</time>
      </trkpt>
      <trkpt lat="43.01646" lon="0.21233">
        <ele>1294.6</ele>
        <time>2023-11-19T14:26:07Z</time>
      </trkpt>
      <trkpt lat="43.01647" lon="0.21232">
        <ele>1294.6</ele>
        <time>2023-11-19T14:26:08Z</time>
      </trkpt>
      <trkpt lat="43.01648" lon="0.21232">
        <ele>1294.6</ele>
        <time>2023-11-19T14:26:09Z</time>
      </trkpt>
      <trkpt lat="43.01649" lon="0.21231">
        <ele>1294.5</ele>
        <time>2023-11-19T14:26:10Z</time>
      </trkpt>
      <trkpt lat="43.01649" lon="0.2123">
        <ele>1294.5</ele>
        <time>2023-11-19T14:26:11Z</time>
      </trkpt>
      <trkpt lat="43.0165" lon="0.21228">
        <ele>1294.5</ele>
        <time>2023-11-19T14:26:12Z</time>
      </trkpt>
      <trkpt lat="43.0165" lon="0.21227">
        <ele>1294.5</ele>
        <time>2023-11-19T14:26:13Z</time>
      </trkpt>
      <trkpt lat="43.01651" lon="0.21226">
        <ele>1294.5</ele>
        <time>2023-11-19T14:26:14Z</time>
      </trkpt>
      <trkpt lat="43.01652" lon="0.21224">
        <ele>1294.4</ele>
        <time>2023-11-19T14:26:15Z</time>
      </trkpt>
      <trkpt lat="43.01653" lon="0.21223">
        <ele>1294.4</ele>
        <time>2023-11-19T14:26:16Z</time>
      </trkpt>
      <trkpt lat="43.01653" lon="0.21222">
        <ele>1294.4</ele>
        <time>2023-11-19T14:26:17Z</time>
      </trkpt>
      <trkpt lat="43.01654" lon="0.21221">
        <ele>1294.3</ele>
        <time>2023-11-19T14:26:18Z</time>
      </trkpt>
      <trkpt lat="43.01654" lon="0.21221">
        <ele>1294.3</ele>
        <time>2023-11-19T14:26:19Z</time>
      </trkpt>
      <trkpt lat="43.01655" lon="0.2122">
        <ele>1294.3</ele>
        <time>2023-11-19T14:26:20Z</time>
      </trkpt>
      <trkpt lat="43.01656" lon="0.21219">
        <ele>1294.2</ele>
        <time>2023-11-19T14:26:21Z</time>
      </trkpt>
      <trkpt lat="43.01657" lon="0.21218">
        <ele>1294.2</ele>
        <time>2023-11-19T14:26:22Z</time>
      </trkpt>
      <trkpt lat="43.01657" lon="0.21217">
        <ele>1294.2</ele>
        <time>2023-11-19T14:26:23Z</time>
      </trkpt>
      <trkpt lat="43.01657" lon="0.21216">
        <ele>1294.1</ele>
        <time>2023-11-19T14:26:24Z</time>
      </trkpt>
      <trkpt lat="43.01658" lon="0.21214">
        <ele>1294.1</ele>
        <time>2023-11-19T14:26:25Z</time>
      </trkpt>
      <trkpt lat="43.01659" lon="0.21212">
        <ele>1294</ele>
        <time>2023-11-19T14:26:26Z</time>
      </trkpt>
      <trkpt lat="43.01659" lon="0.21211">
        <ele>1294</ele>
        <time>2023-11-19T14:26:27Z</time>
      </trkpt>
      <trkpt lat="43.01659" lon="0.2121">
        <ele>1293.9</ele>
        <time>2023-11-19T14:26:28Z</time>
      </trkpt>
      <trkpt lat="43.01659" lon="0.21207">
        <ele>1293.8</ele>
        <time>2023-11-19T14:26:29Z</time>
      </trkpt>
      <trkpt lat="43.01659" lon="0.21205">
        <ele>1293.8</ele>
        <time>2023-11-19T14:26:30Z</time>
      </trkpt>
      <trkpt lat="43.0166" lon="0.21204">
        <ele>1293.7</ele>
        <time>2023-11-19T14:26:31Z</time>
      </trkpt>
      <trkpt lat="43.0166" lon="0.21203">
        <ele>1293.7</ele>
        <time>2023-11-19T14:26:32Z</time>
      </trkpt>
      <trkpt lat="43.0166" lon="0.21202">
        <ele>1293.6</ele>
        <time>2023-11-19T14:26:33Z</time>
      </trkpt>
      <trkpt lat="43.01661" lon="0.212">
        <ele>1293.5</ele>
        <time>2023-11-19T14:26:34Z</time>
      </trkpt>
      <trkpt lat="43.01661" lon="0.21198">
        <ele>1293.5</ele>
        <time>2023-11-19T14:26:35Z</time>
      </trkpt>
      <trkpt lat="43.01662" lon="0.21197">
        <ele>1293.4</ele>
        <time>2023-11-19T14:26:36Z</time>
      </trkpt>
      <trkpt lat="43.01662" lon="0.21196">
        <ele>1293.4</ele>
        <time>2023-11-19T14:26:37Z</time>
      </trkpt>
      <trkpt lat="43.01661" lon="0.21195">
        <ele>1293.4</ele>
        <time>2023-11-19T14:26:38Z</time>
      </trkpt>
      <trkpt lat="43.01662" lon="0.21193">
        <ele>1293.3</ele>
        <time>2023-11-19T14:26:39Z</time>
      </trkpt>
      <trkpt lat="43.01662" lon="0.21191">
        <ele>1293.2</ele>
        <time>2023-11-19T14:26:40Z</time>
      </trkpt>
      <trkpt lat="43.01662" lon="0.2119">
        <ele>1293.2</ele>
        <time>2023-11-19T14:26:41Z</time>
      </trkpt>
      <trkpt lat="43.01662" lon="0.21189">
        <ele>1293.1</ele>
        <time>2023-11-19T14:26:42Z</time>
      </trkpt>
      <trkpt lat="43.01663" lon="0.21186">
        <ele>1293</ele>
        <time>2023-11-19T14:26:43Z</time>
      </trkpt>
      <trkpt lat="43.01663" lon="0.21185">
        <ele>1293</ele>
        <time>2023-11-19T14:26:44Z</time>
      </trkpt>
      <trkpt lat="43.01663" lon="0.21184">
        <ele>1293</ele>
        <time>2023-11-19T14:26:45Z</time>
      </trkpt>
      <trkpt lat="43.01664" lon="0.21183">
        <ele>1292.9</ele>
        <time>2023-11-19T14:26:46Z</time>
      </trkpt>
      <trkpt lat="43.01664" lon="0.21181">
        <ele>1292.8</ele>
        <time>2023-11-19T14:26:47Z</time>
      </trkpt>
      <trkpt lat="43.01664" lon="0.21179">
        <ele>1292.8</ele>
        <time>2023-11-19T14:26:48Z</time>
      </trkpt>
      <trkpt lat="43.01664" lon="0.21178">
        <ele>1292.7</ele>
        <time>2023-11-19T14:26:49Z</time>
      </trkpt>
      <trkpt lat="43.01665" lon="0.21177">
        <ele>1292.7</ele>
        <time>2023-11-19T14:26:50Z</time>
      </trkpt>
      <trkpt lat="43.01666" lon="0.21175">
        <ele>1292.6</ele>
        <time>2023-11-19T14:26:51Z</time>
      </trkpt>
      <trkpt lat="43.01666" lon="0.21174">
        <ele>1292.6</ele>
        <time>2023-11-19T14:26:52Z</time>
      </trkpt>
      <trkpt lat="43.01666" lon="0.21173">
        <ele>1292.5</ele>
        <time>2023-11-19T14:26:53Z</time>
      </trkpt>
      <trkpt lat="43.01665" lon="0.21172">
        <ele>1292.5</ele>
        <time>2023-11-19T14:26:54Z</time>
      </trkpt>
      <trkpt lat="43.01666" lon="0.21169">
        <ele>1292.4</ele>
        <time>2023-11-19T14:26:55Z</time>
      </trkpt>
      <trkpt lat="43.01666" lon="0.21168">
        <ele>1292.4</ele>
        <time>2023-11-19T14:26:56Z</time>
      </trkpt>
      <trkpt lat="43.01666" lon="0.21167">
        <ele>1292.3</ele>
        <time>2023-11-19T14:26:57Z</time>
      </trkpt>
      <trkpt lat="43.01666" lon="0.21163">
        <ele>1292.2</ele>
        <time>2023-11-19T14:26:58Z</time>
      </trkpt>
      <trkpt lat="43.01665" lon="0.21162">
        <ele>1292.1</ele>
        <time>2023-11-19T14:26:59Z</time>
      </trkpt>
      <trkpt lat="43.01665" lon="0.21161">
        <ele>1292.1</ele>
        <time>2023-11-19T14:27:00Z</time>
      </trkpt>
      <trkpt lat="43.01664" lon="0.21159">
        <ele>1292</ele>
        <time>2023-11-19T14:27:01Z</time>
      </trkpt>
      <trkpt lat="43.01664" lon="0.21158">
        <ele>1291.9</ele>
        <time>2023-11-19T14:27:02Z</time>
      </trkpt>
      <trkpt lat="43.01664" lon="0.21156">
        <ele>1291.9</ele>
        <time>2023-11-19T14:27:03Z</time>
      </trkpt>
      <trkpt lat="43.01665" lon="0.21154">
        <ele>1291.8</ele>
        <time>2023-11-19T14:27:04Z</time>
      </trkpt>
      <trkpt lat="43.01666" lon="0.21153">
        <ele>1291.7</ele>
        <time>2023-11-19T14:27:05Z</time>
      </trkpt>
      <trkpt lat="43.01667" lon="0.21152">
        <ele>1291.6</ele>
        <time>2023-11-19T14:27:06Z</time>
      </trkpt>
      <trkpt lat="43.01667" lon="0.21152">
        <ele>1291.6</ele>
        <time>2023-11-19T14:27:07Z</time>
      </trkpt>
      <trkpt lat="43.01668" lon="0.2115">
        <ele>1291.5</ele>
        <time>2023-11-19T14:27:08Z</time>
      </trkpt>
      <trkpt lat="43.01667" lon="0.21149">
        <ele>1291.5</ele>
        <time>2023-11-19T14:27:09Z</time>
      </trkpt>
      <trkpt lat="43.01668" lon="0.21147">
        <ele>1291.3</ele>
        <time>2023-11-19T14:27:10Z</time>
      </trkpt>
      <trkpt lat="43.01669" lon="0.21146">
        <ele>1291.3</ele>
        <time>2023-11-19T14:27:11Z</time>
      </trkpt>
      <trkpt lat="43.01669" lon="0.21144">
        <ele>1291.2</ele>
        <time>2023-11-19T14:27:13Z</time>
      </trkpt>
      <trkpt lat="43.01669" lon="0.21142">
        <ele>1291.1</ele>
        <time>2023-11-19T14:27:14Z</time>
      </trkpt>
      <trkpt lat="43.01669" lon="0.2114">
        <ele>1291</ele>
        <time>2023-11-19T14:27:15Z</time>
      </trkpt>
      <trkpt lat="43.01669" lon="0.21139">
        <ele>1290.9</ele>
        <time>2023-11-19T14:27:16Z</time>
      </trkpt>
      <trkpt lat="43.0167" lon="0.21137">
        <ele>1290.8</ele>
        <time>2023-11-19T14:27:17Z</time>
      </trkpt>
      <trkpt lat="43.0167" lon="0.21136">
        <ele>1290.8</ele>
        <time>2023-11-19T14:27:18Z</time>
      </trkpt>
      <trkpt lat="43.01669" lon="0.21135">
        <ele>1290.7</ele>
        <time>2023-11-19T14:27:19Z</time>
      </trkpt>
      <trkpt lat="43.0167" lon="0.21132">
        <ele>1290.6</ele>
        <time>2023-11-19T14:27:20Z</time>
      </trkpt>
      <trkpt lat="43.01669" lon="0.21132">
        <ele>1290.5</ele>
        <time>2023-11-19T14:27:21Z</time>
      </trkpt>
      <trkpt lat="43.01669" lon="0.2113">
        <ele>1290.4</ele>
        <time>2023-11-19T14:27:22Z</time>
      </trkpt>
      <trkpt lat="43.01671" lon="0.21131">
        <ele>1290.3</ele>
        <time>2023-11-19T14:27:23Z</time>
      </trkpt>
      <trkpt lat="43.01671" lon="0.21126">
        <ele>1290.1</ele>
        <time>2023-11-19T14:27:24Z</time>
      </trkpt>
      <trkpt lat="43.01671" lon="0.21124">
        <ele>1289.9</ele>
        <time>2023-11-19T14:27:25Z</time>
      </trkpt>
      <trkpt lat="43.01672" lon="0.21123">
        <ele>1289.9</ele>
        <time>2023-11-19T14:27:26Z</time>
      </trkpt>
      <trkpt lat="43.01673" lon="0.21122">
        <ele>1289.8</ele>
        <time>2023-11-19T14:27:27Z</time>
      </trkpt>
      <trkpt lat="43.01674" lon="0.21118">
        <ele>1289.6</ele>
        <time>2023-11-19T14:27:28Z</time>
      </trkpt>
      <trkpt lat="43.01674" lon="0.21117">
        <ele>1289.5</ele>
        <time>2023-11-19T14:27:29Z</time>
      </trkpt>
      <trkpt lat="43.01675" lon="0.21115">
        <ele>1289.4</ele>
        <time>2023-11-19T14:27:30Z</time>
      </trkpt>
      <trkpt lat="43.01675" lon="0.21114">
        <ele>1289.4</ele>
        <time>2023-11-19T14:27:31Z</time>
      </trkpt>
      <trkpt lat="43.01675" lon="0.21112">
        <ele>1289.3</ele>
        <time>2023-11-19T14:27:32Z</time>
      </trkpt>
      <trkpt lat="43.01676" lon="0.2111">
        <ele>1289.2</ele>
        <time>2023-11-19T14:27:33Z</time>
      </trkpt>
      <trkpt lat="43.01676" lon="0.21109">
        <ele>1289.1</ele>
        <time>2023-11-19T14:27:34Z</time>
      </trkpt>
      <trkpt lat="43.01677" lon="0.21107">
        <ele>1289.1</ele>
        <time>2023-11-19T14:27:35Z</time>
      </trkpt>
      <trkpt lat="43.01678" lon="0.21105">
        <ele>1289</ele>
        <time>2023-11-19T14:27:36Z</time>
      </trkpt>
      <trkpt lat="43.01679" lon="0.21104">
        <ele>1288.9</ele>
        <time>2023-11-19T14:27:37Z</time>
      </trkpt>
      <trkpt lat="43.01679" lon="0.21103">
        <ele>1288.9</ele>
        <time>2023-11-19T14:27:38Z</time>
      </trkpt>
      <trkpt lat="43.01681" lon="0.21099">
        <ele>1288.7</ele>
        <time>2023-11-19T14:27:39Z</time>
      </trkpt>
      <trkpt lat="43.01681" lon="0.21098">
        <ele>1288.7</ele>
        <time>2023-11-19T14:27:40Z</time>
      </trkpt>
      <trkpt lat="43.01681" lon="0.21097">
        <ele>1288.7</ele>
        <time>2023-11-19T14:27:41Z</time>
      </trkpt>
      <trkpt lat="43.01681" lon="0.21095">
        <ele>1288.6</ele>
        <time>2023-11-19T14:27:42Z</time>
      </trkpt>
      <trkpt lat="43.01681" lon="0.21094">
        <ele>1288.6</ele>
        <time>2023-11-19T14:27:43Z</time>
      </trkpt>
      <trkpt lat="43.01682" lon="0.21092">
        <ele>1288.5</ele>
        <time>2023-11-19T14:27:44Z</time>
      </trkpt>
      <trkpt lat="43.01682" lon="0.2109">
        <ele>1288.5</ele>
        <time>2023-11-19T14:27:45Z</time>
      </trkpt>
      <trkpt lat="43.01682" lon="0.21089">
        <ele>1288.4</ele>
        <time>2023-11-19T14:27:46Z</time>
      </trkpt>
      <trkpt lat="43.01683" lon="0.21087">
        <ele>1288.4</ele>
        <time>2023-11-19T14:27:47Z</time>
      </trkpt>
      <trkpt lat="43.01682" lon="0.21085">
        <ele>1288.4</ele>
        <time>2023-11-19T14:27:48Z</time>
      </trkpt>
      <trkpt lat="43.01683" lon="0.21084">
        <ele>1288.3</ele>
        <time>2023-11-19T14:27:49Z</time>
      </trkpt>
      <trkpt lat="43.01683" lon="0.21082">
        <ele>1288.3</ele>
        <time>2023-11-19T14:27:50Z</time>
      </trkpt>
      <trkpt lat="43.01684" lon="0.21081">
        <ele>1288.3</ele>
        <time>2023-11-19T14:27:51Z</time>
      </trkpt>
      <trkpt lat="43.01684" lon="0.21079">
        <ele>1288.3</ele>
        <time>2023-11-19T14:27:52Z</time>
      </trkpt>
      <trkpt lat="43.01685" lon="0.21078">
        <ele>1288.2</ele>
        <time>2023-11-19T14:27:53Z</time>
      </trkpt>
      <trkpt lat="43.01685" lon="0.21077">
        <ele>1288.2</ele>
        <time>2023-11-19T14:27:54Z</time>
      </trkpt>
      <trkpt lat="43.01686" lon="0.21075">
        <ele>1288.2</ele>
        <time>2023-11-19T14:27:55Z</time>
      </trkpt>
      <trkpt lat="43.01686" lon="0.21074">
        <ele>1288.2</ele>
        <time>2023-11-19T14:27:56Z</time>
      </trkpt>
      <trkpt lat="43.01686" lon="0.21072">
        <ele>1288.2</ele>
        <time>2023-11-19T14:27:57Z</time>
      </trkpt>
      <trkpt lat="43.01686" lon="0.21071">
        <ele>1288.1</ele>
        <time>2023-11-19T14:27:58Z</time>
      </trkpt>
      <trkpt lat="43.01685" lon="0.2107">
        <ele>1288.1</ele>
        <time>2023-11-19T14:27:59Z</time>
      </trkpt>
      <trkpt lat="43.01685" lon="0.21068">
        <ele>1288.1</ele>
        <time>2023-11-19T14:28:00Z</time>
      </trkpt>
      <trkpt lat="43.01685" lon="0.21067">
        <ele>1288.1</ele>
        <time>2023-11-19T14:28:01Z</time>
      </trkpt>
      <trkpt lat="43.01685" lon="0.21065">
        <ele>1288.1</ele>
        <time>2023-11-19T14:28:02Z</time>
      </trkpt>
      <trkpt lat="43.01685" lon="0.21062">
        <ele>1288.1</ele>
        <time>2023-11-19T14:28:03Z</time>
      </trkpt>
      <trkpt lat="43.01685" lon="0.21061">
        <ele>1288.1</ele>
        <time>2023-11-19T14:28:04Z</time>
      </trkpt>
      <trkpt lat="43.01685" lon="0.2106">
        <ele>1288.1</ele>
        <time>2023-11-19T14:28:05Z</time>
      </trkpt>
      <trkpt lat="43.01685" lon="0.21058">
        <ele>1288.1</ele>
        <time>2023-11-19T14:28:06Z</time>
      </trkpt>
      <trkpt lat="43.01686" lon="0.21057">
        <ele>1288.1</ele>
        <time>2023-11-19T14:28:07Z</time>
      </trkpt>
      <trkpt lat="43.01686" lon="0.21055">
        <ele>1288.1</ele>
        <time>2023-11-19T14:28:08Z</time>
      </trkpt>
      <trkpt lat="43.01686" lon="0.21053">
        <ele>1288.1</ele>
        <time>2023-11-19T14:28:09Z</time>
      </trkpt>
      <trkpt lat="43.01687" lon="0.21052">
        <ele>1288.1</ele>
        <time>2023-11-19T14:28:10Z</time>
      </trkpt>
      <trkpt lat="43.01687" lon="0.21051">
        <ele>1288.1</ele>
        <time>2023-11-19T14:28:11Z</time>
      </trkpt>
      <trkpt lat="43.01687" lon="0.21049">
        <ele>1288.1</ele>
        <time>2023-11-19T14:28:12Z</time>
      </trkpt>
      <trkpt lat="43.01687" lon="0.21048">
        <ele>1288.1</ele>
        <time>2023-11-19T14:28:13Z</time>
      </trkpt>
      <trkpt lat="43.01687" lon="0.21047">
        <ele>1288.1</ele>
        <time>2023-11-19T14:28:14Z</time>
      </trkpt>
      <trkpt lat="43.01687" lon="0.21045">
        <ele>1288.1</ele>
        <time>2023-11-19T14:28:15Z</time>
      </trkpt>
      <trkpt lat="43.01687" lon="0.21044">
        <ele>1288.1</ele>
        <time>2023-11-19T14:28:16Z</time>
      </trkpt>
      <trkpt lat="43.01688" lon="0.21043">
        <ele>1288.1</ele>
        <time>2023-11-19T14:28:17Z</time>
      </trkpt>
      <trkpt lat="43.01688" lon="0.21041">
        <ele>1288.1</ele>
        <time>2023-11-19T14:28:18Z</time>
      </trkpt>
      <trkpt lat="43.01688" lon="0.2104">
        <ele>1288.1</ele>
        <time>2023-11-19T14:28:19Z</time>
      </trkpt>
      <trkpt lat="43.01689" lon="0.21038">
        <ele>1288.1</ele>
        <time>2023-11-19T14:28:20Z</time>
      </trkpt>
      <trkpt lat="43.01688" lon="0.21036">
        <ele>1288.1</ele>
        <time>2023-11-19T14:28:21Z</time>
      </trkpt>
      <trkpt lat="43.01688" lon="0.21034">
        <ele>1288.1</ele>
        <time>2023-11-19T14:28:22Z</time>
      </trkpt>
      <trkpt lat="43.01689" lon="0.21033">
        <ele>1288.1</ele>
        <time>2023-11-19T14:28:23Z</time>
      </trkpt>
      <trkpt lat="43.01689" lon="0.21032">
        <ele>1288.1</ele>
        <time>2023-11-19T14:28:24Z</time>
      </trkpt>
      <trkpt lat="43.0169" lon="0.21031">
        <ele>1288.1</ele>
        <time>2023-11-19T14:28:25Z</time>
      </trkpt>
      <trkpt lat="43.01691" lon="0.21029">
        <ele>1288.1</ele>
        <time>2023-11-19T14:28:26Z</time>
      </trkpt>
      <trkpt lat="43.0169" lon="0.21027">
        <ele>1288.1</ele>
        <time>2023-11-19T14:28:27Z</time>
      </trkpt>
      <trkpt lat="43.0169" lon="0.21026">
        <ele>1288.1</ele>
        <time>2023-11-19T14:28:28Z</time>
      </trkpt>
      <trkpt lat="43.0169" lon="0.21024">
        <ele>1288.1</ele>
        <time>2023-11-19T14:28:29Z</time>
      </trkpt>
      <trkpt lat="43.0169" lon="0.21022">
        <ele>1288.1</ele>
        <time>2023-11-19T14:28:30Z</time>
      </trkpt>
      <trkpt lat="43.01691" lon="0.21021">
        <ele>1288.1</ele>
        <time>2023-11-19T14:28:31Z</time>
      </trkpt>
      <trkpt lat="43.0169" lon="0.21019">
        <ele>1288.1</ele>
        <time>2023-11-19T14:28:32Z</time>
      </trkpt>
      <trkpt lat="43.01691" lon="0.21018">
        <ele>1288.1</ele>
        <time>2023-11-19T14:28:33Z</time>
      </trkpt>
      <trkpt lat="43.01691" lon="0.21017">
        <ele>1288.1</ele>
        <time>2023-11-19T14:28:34Z</time>
      </trkpt>
      <trkpt lat="43.01691" lon="0.21015">
        <ele>1288.1</ele>
        <time>2023-11-19T14:28:35Z</time>
      </trkpt>
      <trkpt lat="43.01691" lon="0.21013">
        <ele>1288.1</ele>
        <time>2023-11-19T14:28:36Z</time>
      </trkpt>
      <trkpt lat="43.01692" lon="0.21012">
        <ele>1288.2</ele>
        <time>2023-11-19T14:28:37Z</time>
      </trkpt>
      <trkpt lat="43.01692" lon="0.21011">
        <ele>1288.2</ele>
        <time>2023-11-19T14:28:38Z</time>
      </trkpt>
      <trkpt lat="43.01694" lon="0.21009">
        <ele>1288.2</ele>
        <time>2023-11-19T14:28:39Z</time>
      </trkpt>
      <trkpt lat="43.01695" lon="0.21008">
        <ele>1288.2</ele>
        <time>2023-11-19T14:28:40Z</time>
      </trkpt>
      <trkpt lat="43.01695" lon="0.21008">
        <ele>1288.2</ele>
        <time>2023-11-19T14:28:41Z</time>
      </trkpt>
      <trkpt lat="43.01695" lon="0.21004">
        <ele>1288.2</ele>
        <time>2023-11-19T14:28:42Z</time>
      </trkpt>
      <trkpt lat="43.01694" lon="0.21001">
        <ele>1288.3</ele>
        <time>2023-11-19T14:28:43Z</time>
      </trkpt>
      <trkpt lat="43.01693" lon="0.20999">
        <ele>1288.3</ele>
        <time>2023-11-19T14:28:44Z</time>
      </trkpt>
      <trkpt lat="43.01693" lon="0.20997">
        <ele>1288.3</ele>
        <time>2023-11-19T14:28:45Z</time>
      </trkpt>
      <trkpt lat="43.01692" lon="0.20996">
        <ele>1288.3</ele>
        <time>2023-11-19T14:28:46Z</time>
      </trkpt>
      <trkpt lat="43.01692" lon="0.20994">
        <ele>1288.4</ele>
        <time>2023-11-19T14:28:47Z</time>
      </trkpt>
      <trkpt lat="43.01692" lon="0.20992">
        <ele>1288.4</ele>
        <time>2023-11-19T14:28:48Z</time>
      </trkpt>
      <trkpt lat="43.01692" lon="0.20991">
        <ele>1288.4</ele>
        <time>2023-11-19T14:28:49Z</time>
      </trkpt>
      <trkpt lat="43.01691" lon="0.2099">
        <ele>1288.4</ele>
        <time>2023-11-19T14:28:50Z</time>
      </trkpt>
      <trkpt lat="43.01692" lon="0.20988">
        <ele>1288.5</ele>
        <time>2023-11-19T14:28:51Z</time>
      </trkpt>
      <trkpt lat="43.01692" lon="0.20987">
        <ele>1288.5</ele>
        <time>2023-11-19T14:28:52Z</time>
      </trkpt>
      <trkpt lat="43.01692" lon="0.20986">
        <ele>1288.5</ele>
        <time>2023-11-19T14:28:53Z</time>
      </trkpt>
      <trkpt lat="43.01692" lon="0.20985">
        <ele>1288.6</ele>
        <time>2023-11-19T14:28:54Z</time>
      </trkpt>
      <trkpt lat="43.01692" lon="0.20983">
        <ele>1288.6</ele>
        <time>2023-11-19T14:28:55Z</time>
      </trkpt>
      <trkpt lat="43.01692" lon="0.20982">
        <ele>1288.6</ele>
        <time>2023-11-19T14:28:56Z</time>
      </trkpt>
      <trkpt lat="43.01692" lon="0.2098">
        <ele>1288.7</ele>
        <time>2023-11-19T14:28:57Z</time>
      </trkpt>
      <trkpt lat="43.01692" lon="0.20979">
        <ele>1288.7</ele>
        <time>2023-11-19T14:28:58Z</time>
      </trkpt>
      <trkpt lat="43.01692" lon="0.20978">
        <ele>1288.7</ele>
        <time>2023-11-19T14:28:59Z</time>
      </trkpt>
      <trkpt lat="43.01691" lon="0.20976">
        <ele>1288.8</ele>
        <time>2023-11-19T14:29:00Z</time>
      </trkpt>
      <trkpt lat="43.01692" lon="0.20974">
        <ele>1288.9</ele>
        <time>2023-11-19T14:29:01Z</time>
      </trkpt>
      <trkpt lat="43.01692" lon="0.20972">
        <ele>1288.9</ele>
        <time>2023-11-19T14:29:02Z</time>
      </trkpt>
      <trkpt lat="43.01692" lon="0.2097">
        <ele>1289</ele>
        <time>2023-11-19T14:29:03Z</time>
      </trkpt>
      <trkpt lat="43.01692" lon="0.20968">
        <ele>1289.1</ele>
        <time>2023-11-19T14:29:04Z</time>
      </trkpt>
      <trkpt lat="43.01692" lon="0.20966">
        <ele>1289.1</ele>
        <time>2023-11-19T14:29:05Z</time>
      </trkpt>
      <trkpt lat="43.01691" lon="0.20965">
        <ele>1289.2</ele>
        <time>2023-11-19T14:29:06Z</time>
      </trkpt>
      <trkpt lat="43.01691" lon="0.20964">
        <ele>1289.2</ele>
        <time>2023-11-19T14:29:07Z</time>
      </trkpt>
      <trkpt lat="43.0169" lon="0.20963">
        <ele>1289.3</ele>
        <time>2023-11-19T14:29:08Z</time>
      </trkpt>
      <trkpt lat="43.0169" lon="0.20962">
        <ele>1289.3</ele>
        <time>2023-11-19T14:29:09Z</time>
      </trkpt>
      <trkpt lat="43.0169" lon="0.20961">
        <ele>1289.3</ele>
        <time>2023-11-19T14:29:10Z</time>
      </trkpt>
      <trkpt lat="43.01689" lon="0.2096">
        <ele>1289.4</ele>
        <time>2023-11-19T14:29:11Z</time>
      </trkpt>
      <trkpt lat="43.01689" lon="0.20959">
        <ele>1289.4</ele>
        <time>2023-11-19T14:29:12Z</time>
      </trkpt>
      <trkpt lat="43.01689" lon="0.20958">
        <ele>1289.5</ele>
        <time>2023-11-19T14:29:13Z</time>
      </trkpt>
      <trkpt lat="43.01688" lon="0.20956">
        <ele>1289.5</ele>
        <time>2023-11-19T14:29:14Z</time>
      </trkpt>
      <trkpt lat="43.01688" lon="0.20955">
        <ele>1289.6</ele>
        <time>2023-11-19T14:29:15Z</time>
      </trkpt>
      <trkpt lat="43.01687" lon="0.20954">
        <ele>1289.6</ele>
        <time>2023-11-19T14:29:16Z</time>
      </trkpt>
      <trkpt lat="43.01688" lon="0.20952">
        <ele>1289.7</ele>
        <time>2023-11-19T14:29:17Z</time>
      </trkpt>
      <trkpt lat="43.01688" lon="0.20951">
        <ele>1289.8</ele>
        <time>2023-11-19T14:29:19Z</time>
      </trkpt>
      <trkpt lat="43.01688" lon="0.20949">
        <ele>1289.8</ele>
        <time>2023-11-19T14:29:20Z</time>
      </trkpt>
      <trkpt lat="43.01687" lon="0.20948">
        <ele>1289.9</ele>
        <time>2023-11-19T14:29:21Z</time>
      </trkpt>
      <trkpt lat="43.01687" lon="0.20947">
        <ele>1289.9</ele>
        <time>2023-11-19T14:29:22Z</time>
      </trkpt>
      <trkpt lat="43.01687" lon="0.20946">
        <ele>1290</ele>
        <time>2023-11-19T14:29:23Z</time>
      </trkpt>
      <trkpt lat="43.01686" lon="0.20946">
        <ele>1290</ele>
        <time>2023-11-19T14:29:24Z</time>
      </trkpt>
      <trkpt lat="43.01686" lon="0.20945">
        <ele>1290</ele>
        <time>2023-11-19T14:29:25Z</time>
      </trkpt>
      <trkpt lat="43.01686" lon="0.20943">
        <ele>1290.1</ele>
        <time>2023-11-19T14:29:26Z</time>
      </trkpt>
      <trkpt lat="43.01686" lon="0.20942">
        <ele>1290.1</ele>
        <time>2023-11-19T14:29:27Z</time>
      </trkpt>
      <trkpt lat="43.01686" lon="0.20941">
        <ele>1290.2</ele>
        <time>2023-11-19T14:29:28Z</time>
      </trkpt>
      <trkpt lat="43.01686" lon="0.20939">
        <ele>1290.2</ele>
        <time>2023-11-19T14:29:29Z</time>
      </trkpt>
      <trkpt lat="43.01688" lon="0.2094">
        <ele>1290.3</ele>
        <time>2023-11-19T14:29:30Z</time>
      </trkpt>
      <trkpt lat="43.01688" lon="0.20939">
        <ele>1290.3</ele>
        <time>2023-11-19T14:29:31Z</time>
      </trkpt>
      <trkpt lat="43.01687" lon="0.20937">
        <ele>1290.4</ele>
        <time>2023-11-19T14:29:32Z</time>
      </trkpt>
      <trkpt lat="43.01686" lon="0.20935">
        <ele>1290.4</ele>
        <time>2023-11-19T14:29:33Z</time>
      </trkpt>
      <trkpt lat="43.01687" lon="0.20933">
        <ele>1290.5</ele>
        <time>2023-11-19T14:29:34Z</time>
      </trkpt>
      <trkpt lat="43.01686" lon="0.20931">
        <ele>1290.5</ele>
        <time>2023-11-19T14:29:35Z</time>
      </trkpt>
      <trkpt lat="43.01686" lon="0.2093">
        <ele>1290.5</ele>
        <time>2023-11-19T14:29:36Z</time>
      </trkpt>
      <trkpt lat="43.01685" lon="0.20929">
        <ele>1290.6</ele>
        <time>2023-11-19T14:29:37Z</time>
      </trkpt>
      <trkpt lat="43.01685" lon="0.20928">
        <ele>1290.6</ele>
        <time>2023-11-19T14:29:38Z</time>
      </trkpt>
      <trkpt lat="43.01684" lon="0.20927">
        <ele>1290.6</ele>
        <time>2023-11-19T14:29:39Z</time>
      </trkpt>
      <trkpt lat="43.01684" lon="0.20926">
        <ele>1290.6</ele>
        <time>2023-11-19T14:29:40Z</time>
      </trkpt>
      <trkpt lat="43.01684" lon="0.20924">
        <ele>1290.6</ele>
        <time>2023-11-19T14:29:41Z</time>
      </trkpt>
      <trkpt lat="43.01684" lon="0.20922">
        <ele>1290.6</ele>
        <time>2023-11-19T14:29:42Z</time>
      </trkpt>
      <trkpt lat="43.01684" lon="0.2092">
        <ele>1290.6</ele>
        <time>2023-11-19T14:29:43Z</time>
      </trkpt>
      <trkpt lat="43.01684" lon="0.20918">
        <ele>1290.6</ele>
        <time>2023-11-19T14:29:44Z</time>
      </trkpt>
      <trkpt lat="43.01684" lon="0.20916">
        <ele>1290.6</ele>
        <time>2023-11-19T14:29:45Z</time>
      </trkpt>
      <trkpt lat="43.01684" lon="0.20915">
        <ele>1290.6</ele>
        <time>2023-11-19T14:29:46Z</time>
      </trkpt>
      <trkpt lat="43.01684" lon="0.20914">
        <ele>1290.6</ele>
        <time>2023-11-19T14:29:47Z</time>
      </trkpt>
      <trkpt lat="43.01684" lon="0.20912">
        <ele>1290.6</ele>
        <time>2023-11-19T14:29:48Z</time>
      </trkpt>
      <trkpt lat="43.01684" lon="0.20911">
        <ele>1290.6</ele>
        <time>2023-11-19T14:29:49Z</time>
      </trkpt>
      <trkpt lat="43.01684" lon="0.20909">
        <ele>1290.6</ele>
        <time>2023-11-19T14:29:50Z</time>
      </trkpt>
      <trkpt lat="43.01683" lon="0.20908">
        <ele>1290.5</ele>
        <time>2023-11-19T14:29:51Z</time>
      </trkpt>
      <trkpt lat="43.01683" lon="0.20906">
        <ele>1290.5</ele>
        <time>2023-11-19T14:29:52Z</time>
      </trkpt>
      <trkpt lat="43.01683" lon="0.20903">
        <ele>1290.4</ele>
        <time>2023-11-19T14:29:53Z</time>
      </trkpt>
      <trkpt lat="43.01683" lon="0.20902">
        <ele>1290.4</ele>
        <time>2023-11-19T14:29:54Z</time>
      </trkpt>
      <trkpt lat="43.01683" lon="0.20901">
        <ele>1290.4</ele>
        <time>2023-11-19T14:29:55Z</time>
      </trkpt>
      <trkpt lat="43.01682" lon="0.20899">
        <ele>1290.3</ele>
        <time>2023-11-19T14:29:56Z</time>
      </trkpt>
      <trkpt lat="43.01682" lon="0.20896">
        <ele>1290.2</ele>
        <time>2023-11-19T14:29:57Z</time>
      </trkpt>
      <trkpt lat="43.01682" lon="0.20894">
        <ele>1290.1</ele>
        <time>2023-11-19T14:29:58Z</time>
      </trkpt>
      <trkpt lat="43.01682" lon="0.20892">
        <ele>1290.1</ele>
        <time>2023-11-19T14:29:59Z</time>
      </trkpt>
      <trkpt lat="43.01682" lon="0.20891">
        <ele>1290</ele>
        <time>2023-11-19T14:30:00Z</time>
      </trkpt>
      <trkpt lat="43.01683" lon="0.20889">
        <ele>1289.9</ele>
        <time>2023-11-19T14:30:01Z</time>
      </trkpt>
      <trkpt lat="43.01683" lon="0.20887">
        <ele>1289.8</ele>
        <time>2023-11-19T14:30:02Z</time>
      </trkpt>
      <trkpt lat="43.01683" lon="0.20885">
        <ele>1289.7</ele>
        <time>2023-11-19T14:30:03Z</time>
      </trkpt>
      <trkpt lat="43.01684" lon="0.20883">
        <ele>1289.6</ele>
        <time>2023-11-19T14:30:04Z</time>
      </trkpt>
      <trkpt lat="43.01684" lon="0.20881">
        <ele>1289.5</ele>
        <time>2023-11-19T14:30:05Z</time>
      </trkpt>
      <trkpt lat="43.01684" lon="0.20879">
        <ele>1289.4</ele>
        <time>2023-11-19T14:30:06Z</time>
      </trkpt>
      <trkpt lat="43.01684" lon="0.20876">
        <ele>1289.2</ele>
        <time>2023-11-19T14:30:07Z</time>
      </trkpt>
      <trkpt lat="43.01685" lon="0.20875">
        <ele>1289.2</ele>
        <time>2023-11-19T14:30:08Z</time>
      </trkpt>
      <trkpt lat="43.01685" lon="0.20874">
        <ele>1289.1</ele>
        <time>2023-11-19T14:30:09Z</time>
      </trkpt>
      <trkpt lat="43.01684" lon="0.20872">
        <ele>1288.9</ele>
        <time>2023-11-19T14:30:10Z</time>
      </trkpt>
      <trkpt lat="43.01684" lon="0.20869">
        <ele>1288.8</ele>
        <time>2023-11-19T14:30:11Z</time>
      </trkpt>
      <trkpt lat="43.01685" lon="0.20868">
        <ele>1288.7</ele>
        <time>2023-11-19T14:30:12Z</time>
      </trkpt>
      <trkpt lat="43.01685" lon="0.20867">
        <ele>1288.6</ele>
        <time>2023-11-19T14:30:13Z</time>
      </trkpt>
      <trkpt lat="43.01685" lon="0.20865">
        <ele>1288.5</ele>
        <time>2023-11-19T14:30:14Z</time>
      </trkpt>
      <trkpt lat="43.01685" lon="0.20864">
        <ele>1288.4</ele>
        <time>2023-11-19T14:30:15Z</time>
      </trkpt>
      <trkpt lat="43.01685" lon="0.20862">
        <ele>1288.2</ele>
        <time>2023-11-19T14:30:16Z</time>
      </trkpt>
      <trkpt lat="43.01685" lon="0.20861">
        <ele>1288.1</ele>
        <time>2023-11-19T14:30:17Z</time>
      </trkpt>
      <trkpt lat="43.01685" lon="0.2086">
        <ele>1288</ele>
        <time>2023-11-19T14:30:18Z</time>
      </trkpt>
      <trkpt lat="43.01685" lon="0.20858">
        <ele>1288</ele>
        <time>2023-11-19T14:30:19Z</time>
      </trkpt>
      <trkpt lat="43.01685" lon="0.20857">
        <ele>1287.8</ele>
        <time>2023-11-19T14:30:20Z</time>
      </trkpt>
      <trkpt lat="43.01684" lon="0.20856">
        <ele>1287.7</ele>
        <time>2023-11-19T14:30:21Z</time>
      </trkpt>
      <trkpt lat="43.01685" lon="0.20855">
        <ele>1287.6</ele>
        <time>2023-11-19T14:30:22Z</time>
      </trkpt>
      <trkpt lat="43.01685" lon="0.20854">
        <ele>1287.6</ele>
        <time>2023-11-19T14:30:23Z</time>
      </trkpt>
      <trkpt lat="43.01684" lon="0.20852">
        <ele>1287.4</ele>
        <time>2023-11-19T14:30:24Z</time>
      </trkpt>
      <trkpt lat="43.01684" lon="0.2085">
        <ele>1287.3</ele>
        <time>2023-11-19T14:30:25Z</time>
      </trkpt>
      <trkpt lat="43.01685" lon="0.20847">
        <ele>1287</ele>
        <time>2023-11-19T14:30:26Z</time>
      </trkpt>
      <trkpt lat="43.01685" lon="0.20846">
        <ele>1286.9</ele>
        <time>2023-11-19T14:30:27Z</time>
      </trkpt>
      <trkpt lat="43.01686" lon="0.20845">
        <ele>1286.9</ele>
        <time>2023-11-19T14:30:28Z</time>
      </trkpt>
      <trkpt lat="43.01686" lon="0.20843">
        <ele>1286.7</ele>
        <time>2023-11-19T14:30:29Z</time>
      </trkpt>
      <trkpt lat="43.01686" lon="0.20842">
        <ele>1286.6</ele>
        <time>2023-11-19T14:30:30Z</time>
      </trkpt>
      <trkpt lat="43.01687" lon="0.20841">
        <ele>1286.5</ele>
        <time>2023-11-19T14:30:31Z</time>
      </trkpt>
      <trkpt lat="43.01687" lon="0.2084">
        <ele>1286.4</ele>
        <time>2023-11-19T14:30:32Z</time>
      </trkpt>
      <trkpt lat="43.01687" lon="0.20839">
        <ele>1286.3</ele>
        <time>2023-11-19T14:30:33Z</time>
      </trkpt>
      <trkpt lat="43.01688" lon="0.20837">
        <ele>1286.1</ele>
        <time>2023-11-19T14:30:34Z</time>
      </trkpt>
      <trkpt lat="43.01689" lon="0.20835">
        <ele>1286</ele>
        <time>2023-11-19T14:30:35Z</time>
      </trkpt>
      <trkpt lat="43.01689" lon="0.20834">
        <ele>1285.9</ele>
        <time>2023-11-19T14:30:36Z</time>
      </trkpt>
      <trkpt lat="43.01689" lon="0.20833">
        <ele>1285.8</ele>
        <time>2023-11-19T14:30:37Z</time>
      </trkpt>
      <trkpt lat="43.0169" lon="0.20831">
        <ele>1285.6</ele>
        <time>2023-11-19T14:30:38Z</time>
      </trkpt>
      <trkpt lat="43.0169" lon="0.2083">
        <ele>1285.5</ele>
        <time>2023-11-19T14:30:39Z</time>
      </trkpt>
      <trkpt lat="43.0169" lon="0.20829">
        <ele>1285.5</ele>
        <time>2023-11-19T14:30:40Z</time>
      </trkpt>
      <trkpt lat="43.0169" lon="0.20828">
        <ele>1285.4</ele>
        <time>2023-11-19T14:30:41Z</time>
      </trkpt>
      <trkpt lat="43.01693" lon="0.20826">
        <ele>1285</ele>
        <time>2023-11-19T14:30:42Z</time>
      </trkpt>
      <trkpt lat="43.01693" lon="0.20826">
        <ele>1285</ele>
        <time>2023-11-19T14:30:43Z</time>
      </trkpt>
      <trkpt lat="43.01693" lon="0.20825">
        <ele>1284.9</ele>
        <time>2023-11-19T14:30:44Z</time>
      </trkpt>
      <trkpt lat="43.01694" lon="0.20823">
        <ele>1284.7</ele>
        <time>2023-11-19T14:30:45Z</time>
      </trkpt>
      <trkpt lat="43.01695" lon="0.2082">
        <ele>1284.5</ele>
        <time>2023-11-19T14:30:46Z</time>
      </trkpt>
      <trkpt lat="43.01695" lon="0.20819">
        <ele>1284.4</ele>
        <time>2023-11-19T14:30:47Z</time>
      </trkpt>
      <trkpt lat="43.01696" lon="0.20818">
        <ele>1284.2</ele>
        <time>2023-11-19T14:30:48Z</time>
      </trkpt>
      <trkpt lat="43.01696" lon="0.20815">
        <ele>1284</ele>
        <time>2023-11-19T14:30:49Z</time>
      </trkpt>
      <trkpt lat="43.01697" lon="0.20814">
        <ele>1283.9</ele>
        <time>2023-11-19T14:30:50Z</time>
      </trkpt>
      <trkpt lat="43.01698" lon="0.20813">
        <ele>1283.8</ele>
        <time>2023-11-19T14:30:51Z</time>
      </trkpt>
      <trkpt lat="43.01699" lon="0.20812">
        <ele>1283.6</ele>
        <time>2023-11-19T14:30:52Z</time>
      </trkpt>
      <trkpt lat="43.017" lon="0.20811">
        <ele>1283.5</ele>
        <time>2023-11-19T14:30:53Z</time>
      </trkpt>
      <trkpt lat="43.01701" lon="0.2081">
        <ele>1283.4</ele>
        <time>2023-11-19T14:30:54Z</time>
      </trkpt>
      <trkpt lat="43.01701" lon="0.20807">
        <ele>1283.2</ele>
        <time>2023-11-19T14:30:55Z</time>
      </trkpt>
      <trkpt lat="43.01701" lon="0.20806">
        <ele>1283.1</ele>
        <time>2023-11-19T14:30:56Z</time>
      </trkpt>
      <trkpt lat="43.01701" lon="0.20804">
        <ele>1282.9</ele>
        <time>2023-11-19T14:30:57Z</time>
      </trkpt>
      <trkpt lat="43.01702" lon="0.20804">
        <ele>1282.8</ele>
        <time>2023-11-19T14:30:58Z</time>
      </trkpt>
      <trkpt lat="43.01703" lon="0.20802">
        <ele>1282.7</ele>
        <time>2023-11-19T14:30:59Z</time>
      </trkpt>
      <trkpt lat="43.01703" lon="0.20801">
        <ele>1282.6</ele>
        <time>2023-11-19T14:31:00Z</time>
      </trkpt>
      <trkpt lat="43.01703" lon="0.208">
        <ele>1282.5</ele>
        <time>2023-11-19T14:31:01Z</time>
      </trkpt>
      <trkpt lat="43.01704" lon="0.20798">
        <ele>1282.3</ele>
        <time>2023-11-19T14:31:02Z</time>
      </trkpt>
      <trkpt lat="43.01704" lon="0.20797">
        <ele>1282.2</ele>
        <time>2023-11-19T14:31:03Z</time>
      </trkpt>
      <trkpt lat="43.01705" lon="0.20795">
        <ele>1282</ele>
        <time>2023-11-19T14:31:04Z</time>
      </trkpt>
      <trkpt lat="43.01705" lon="0.20794">
        <ele>1281.9</ele>
        <time>2023-11-19T14:31:05Z</time>
      </trkpt>
      <trkpt lat="43.01705" lon="0.20793">
        <ele>1281.8</ele>
        <time>2023-11-19T14:31:06Z</time>
      </trkpt>
      <trkpt lat="43.01706" lon="0.20791">
        <ele>1281.6</ele>
        <time>2023-11-19T14:31:07Z</time>
      </trkpt>
      <trkpt lat="43.01706" lon="0.2079">
        <ele>1281.5</ele>
        <time>2023-11-19T14:31:08Z</time>
      </trkpt>
      <trkpt lat="43.01708" lon="0.2079">
        <ele>1281.3</ele>
        <time>2023-11-19T14:31:09Z</time>
      </trkpt>
      <trkpt lat="43.01708" lon="0.20787">
        <ele>1281.1</ele>
        <time>2023-11-19T14:31:10Z</time>
      </trkpt>
      <trkpt lat="43.01708" lon="0.20786">
        <ele>1281</ele>
        <time>2023-11-19T14:31:11Z</time>
      </trkpt>
      <trkpt lat="43.01709" lon="0.20784">
        <ele>1280.8</ele>
        <time>2023-11-19T14:31:12Z</time>
      </trkpt>
      <trkpt lat="43.01709" lon="0.20784">
        <ele>1280.7</ele>
        <time>2023-11-19T14:31:13Z</time>
      </trkpt>
      <trkpt lat="43.0171" lon="0.20782">
        <ele>1280.5</ele>
        <time>2023-11-19T14:31:14Z</time>
      </trkpt>
      <trkpt lat="43.01711" lon="0.2078">
        <ele>1280.3</ele>
        <time>2023-11-19T14:31:15Z</time>
      </trkpt>
      <trkpt lat="43.01711" lon="0.20779">
        <ele>1280.2</ele>
        <time>2023-11-19T14:31:16Z</time>
      </trkpt>
      <trkpt lat="43.01712" lon="0.20778">
        <ele>1280.1</ele>
        <time>2023-11-19T14:31:17Z</time>
      </trkpt>
      <trkpt lat="43.01711" lon="0.20777">
        <ele>1280</ele>
        <time>2023-11-19T14:31:18Z</time>
      </trkpt>
      <trkpt lat="43.01712" lon="0.20775">
        <ele>1279.7</ele>
        <time>2023-11-19T14:31:19Z</time>
      </trkpt>
      <trkpt lat="43.01712" lon="0.20774">
        <ele>1279.6</ele>
        <time>2023-11-19T14:31:20Z</time>
      </trkpt>
      <trkpt lat="43.01713" lon="0.20773">
        <ele>1279.5</ele>
        <time>2023-11-19T14:31:21Z</time>
      </trkpt>
      <trkpt lat="43.01714" lon="0.20773">
        <ele>1279.4</ele>
        <time>2023-11-19T14:31:22Z</time>
      </trkpt>
      <trkpt lat="43.01714" lon="0.20772">
        <ele>1279.2</ele>
        <time>2023-11-19T14:31:23Z</time>
      </trkpt>
      <trkpt lat="43.01715" lon="0.2077">
        <ele>1279.2</ele>
        <time>2023-11-19T14:31:25Z</time>
      </trkpt>
      <trkpt lat="43.01716" lon="0.20769">
        <ele>1279.1</ele>
        <time>2023-11-19T14:31:26Z</time>
      </trkpt>
      <trkpt lat="43.01716" lon="0.20768">
        <ele>1279.1</ele>
        <time>2023-11-19T14:31:27Z</time>
      </trkpt>
      <trkpt lat="43.01716" lon="0.20766">
        <ele>1279</ele>
        <time>2023-11-19T14:31:28Z</time>
      </trkpt>
      <trkpt lat="43.01716" lon="0.20764">
        <ele>1278.9</ele>
        <time>2023-11-19T14:31:29Z</time>
      </trkpt>
      <trkpt lat="43.01716" lon="0.20762">
        <ele>1278.9</ele>
        <time>2023-11-19T14:31:30Z</time>
      </trkpt>
      <trkpt lat="43.01717" lon="0.20762">
        <ele>1278.9</ele>
        <time>2023-11-19T14:31:31Z</time>
      </trkpt>
      <trkpt lat="43.01717" lon="0.2076">
        <ele>1278.8</ele>
        <time>2023-11-19T14:31:32Z</time>
      </trkpt>
      <trkpt lat="43.01717" lon="0.20759">
        <ele>1278.8</ele>
        <time>2023-11-19T14:31:33Z</time>
      </trkpt>
      <trkpt lat="43.01718" lon="0.20758">
        <ele>1278.8</ele>
        <time>2023-11-19T14:31:34Z</time>
      </trkpt>
      <trkpt lat="43.0172" lon="0.20757">
        <ele>1278.8</ele>
        <time>2023-11-19T14:31:35Z</time>
      </trkpt>
      <trkpt lat="43.0172" lon="0.20756">
        <ele>1278.8</ele>
        <time>2023-11-19T14:31:36Z</time>
      </trkpt>
      <trkpt lat="43.01721" lon="0.20756">
        <ele>1278.8</ele>
        <time>2023-11-19T14:31:37Z</time>
      </trkpt>
      <trkpt lat="43.01722" lon="0.20755">
        <ele>1278.8</ele>
        <time>2023-11-19T14:31:38Z</time>
      </trkpt>
      <trkpt lat="43.01722" lon="0.20754">
        <ele>1278.8</ele>
        <time>2023-11-19T14:31:39Z</time>
      </trkpt>
      <trkpt lat="43.01723" lon="0.2075">
        <ele>1278.8</ele>
        <time>2023-11-19T14:31:40Z</time>
      </trkpt>
      <trkpt lat="43.01723" lon="0.20748">
        <ele>1278.8</ele>
        <time>2023-11-19T14:31:41Z</time>
      </trkpt>
      <trkpt lat="43.01724" lon="0.20747">
        <ele>1278.9</ele>
        <time>2023-11-19T14:31:42Z</time>
      </trkpt>
      <trkpt lat="43.01725" lon="0.20746">
        <ele>1278.9</ele>
        <time>2023-11-19T14:31:43Z</time>
      </trkpt>
      <trkpt lat="43.01726" lon="0.20745">
        <ele>1278.9</ele>
        <time>2023-11-19T14:31:44Z</time>
      </trkpt>
      <trkpt lat="43.01726" lon="0.20744">
        <ele>1278.9</ele>
        <time>2023-11-19T14:31:45Z</time>
      </trkpt>
      <trkpt lat="43.01727" lon="0.20744">
        <ele>1278.9</ele>
        <time>2023-11-19T14:31:46Z</time>
      </trkpt>
      <trkpt lat="43.01727" lon="0.20743">
        <ele>1279</ele>
        <time>2023-11-19T14:31:47Z</time>
      </trkpt>
      <trkpt lat="43.01728" lon="0.20742">
        <ele>1279</ele>
        <time>2023-11-19T14:31:48Z</time>
      </trkpt>
      <trkpt lat="43.01728" lon="0.20741">
        <ele>1279</ele>
        <time>2023-11-19T14:31:49Z</time>
      </trkpt>
      <trkpt lat="43.01729" lon="0.20739">
        <ele>1279.1</ele>
        <time>2023-11-19T14:31:50Z</time>
      </trkpt>
      <trkpt lat="43.0173" lon="0.20738">
        <ele>1279.1</ele>
        <time>2023-11-19T14:31:51Z</time>
      </trkpt>
      <trkpt lat="43.0173" lon="0.20737">
        <ele>1279.1</ele>
        <time>2023-11-19T14:31:52Z</time>
      </trkpt>
      <trkpt lat="43.01731" lon="0.20735">
        <ele>1279.2</ele>
        <time>2023-11-19T14:31:53Z</time>
      </trkpt>
      <trkpt lat="43.01731" lon="0.20734">
        <ele>1279.2</ele>
        <time>2023-11-19T14:31:54Z</time>
      </trkpt>
      <trkpt lat="43.01731" lon="0.20733">
        <ele>1279.2</ele>
        <time>2023-11-19T14:31:55Z</time>
      </trkpt>
      <trkpt lat="43.01732" lon="0.20732">
        <ele>1279.2</ele>
        <time>2023-11-19T14:31:56Z</time>
      </trkpt>
      <trkpt lat="43.01732" lon="0.20732">
        <ele>1279.2</ele>
        <time>2023-11-19T14:31:57Z</time>
      </trkpt>
      <trkpt lat="43.01733" lon="0.2073">
        <ele>1279.2</ele>
        <time>2023-11-19T14:31:58Z</time>
      </trkpt>
      <trkpt lat="43.01735" lon="0.20728">
        <ele>1279.1</ele>
        <time>2023-11-19T14:31:59Z</time>
      </trkpt>
      <trkpt lat="43.01735" lon="0.20728">
        <ele>1279.1</ele>
        <time>2023-11-19T14:32:00Z</time>
      </trkpt>
      <trkpt lat="43.01736" lon="0.20727">
        <ele>1279.1</ele>
        <time>2023-11-19T14:32:01Z</time>
      </trkpt>
      <trkpt lat="43.01736" lon="0.20726">
        <ele>1279</ele>
        <time>2023-11-19T14:32:02Z</time>
      </trkpt>
      <trkpt lat="43.01736" lon="0.20724">
        <ele>1279</ele>
        <time>2023-11-19T14:32:03Z</time>
      </trkpt>
      <trkpt lat="43.01737" lon="0.20723">
        <ele>1279</ele>
        <time>2023-11-19T14:32:04Z</time>
      </trkpt>
      <trkpt lat="43.01738" lon="0.20722">
        <ele>1278.9</ele>
        <time>2023-11-19T14:32:05Z</time>
      </trkpt>
      <trkpt lat="43.01738" lon="0.2072">
        <ele>1278.9</ele>
        <time>2023-11-19T14:32:06Z</time>
      </trkpt>
      <trkpt lat="43.01739" lon="0.2072">
        <ele>1278.8</ele>
        <time>2023-11-19T14:32:07Z</time>
      </trkpt>
      <trkpt lat="43.01739" lon="0.2072">
        <ele>1278.8</ele>
        <time>2023-11-19T14:32:08Z</time>
      </trkpt>
      <trkpt lat="43.0174" lon="0.20718">
        <ele>1278.7</ele>
        <time>2023-11-19T14:32:09Z</time>
      </trkpt>
      <trkpt lat="43.0174" lon="0.20717">
        <ele>1278.7</ele>
        <time>2023-11-19T14:32:10Z</time>
      </trkpt>
      <trkpt lat="43.01741" lon="0.20715">
        <ele>1278.6</ele>
        <time>2023-11-19T14:32:11Z</time>
      </trkpt>
      <trkpt lat="43.01741" lon="0.20714">
        <ele>1278.6</ele>
        <time>2023-11-19T14:32:12Z</time>
      </trkpt>
      <trkpt lat="43.01742" lon="0.20713">
        <ele>1278.5</ele>
        <time>2023-11-19T14:32:13Z</time>
      </trkpt>
      <trkpt lat="43.01742" lon="0.20711">
        <ele>1278.5</ele>
        <time>2023-11-19T14:32:14Z</time>
      </trkpt>
      <trkpt lat="43.01743" lon="0.2071">
        <ele>1278.4</ele>
        <time>2023-11-19T14:32:15Z</time>
      </trkpt>
      <trkpt lat="43.01743" lon="0.20709">
        <ele>1278.4</ele>
        <time>2023-11-19T14:32:16Z</time>
      </trkpt>
      <trkpt lat="43.01744" lon="0.20708">
        <ele>1278.3</ele>
        <time>2023-11-19T14:32:17Z</time>
      </trkpt>
      <trkpt lat="43.01745" lon="0.20707">
        <ele>1278.2</ele>
        <time>2023-11-19T14:32:18Z</time>
      </trkpt>
      <trkpt lat="43.01746" lon="0.20704">
        <ele>1278.1</ele>
        <time>2023-11-19T14:32:19Z</time>
      </trkpt>
      <trkpt lat="43.01746" lon="0.20704">
        <ele>1278.1</ele>
        <time>2023-11-19T14:32:20Z</time>
      </trkpt>
      <trkpt lat="43.01746" lon="0.20702">
        <ele>1278</ele>
        <time>2023-11-19T14:32:21Z</time>
      </trkpt>
      <trkpt lat="43.01747" lon="0.20701">
        <ele>1277.9</ele>
        <time>2023-11-19T14:32:22Z</time>
      </trkpt>
      <trkpt lat="43.01747" lon="0.207">
        <ele>1277.9</ele>
        <time>2023-11-19T14:32:23Z</time>
      </trkpt>
      <trkpt lat="43.01748" lon="0.20699">
        <ele>1277.9</ele>
        <time>2023-11-19T14:32:24Z</time>
      </trkpt>
      <trkpt lat="43.01748" lon="0.20699">
        <ele>1277.8</ele>
        <time>2023-11-19T14:32:25Z</time>
      </trkpt>
      <trkpt lat="43.01748" lon="0.20698">
        <ele>1277.8</ele>
        <time>2023-11-19T14:32:26Z</time>
      </trkpt>
      <trkpt lat="43.01749" lon="0.20697">
        <ele>1277.7</ele>
        <time>2023-11-19T14:32:27Z</time>
      </trkpt>
      <trkpt lat="43.0175" lon="0.20696">
        <ele>1277.7</ele>
        <time>2023-11-19T14:32:28Z</time>
      </trkpt>
      <trkpt lat="43.0175" lon="0.20695">
        <ele>1277.6</ele>
        <time>2023-11-19T14:32:29Z</time>
      </trkpt>
      <trkpt lat="43.01751" lon="0.20694">
        <ele>1277.6</ele>
        <time>2023-11-19T14:32:30Z</time>
      </trkpt>
      <trkpt lat="43.01752" lon="0.20693">
        <ele>1277.5</ele>
        <time>2023-11-19T14:32:31Z</time>
      </trkpt>
      <trkpt lat="43.01753" lon="0.20692">
        <ele>1277.4</ele>
        <time>2023-11-19T14:32:32Z</time>
      </trkpt>
      <trkpt lat="43.01754" lon="0.20691">
        <ele>1277.4</ele>
        <time>2023-11-19T14:32:33Z</time>
      </trkpt>
      <trkpt lat="43.01754" lon="0.2069">
        <ele>1277.3</ele>
        <time>2023-11-19T14:32:34Z</time>
      </trkpt>
      <trkpt lat="43.01754" lon="0.20689">
        <ele>1277.3</ele>
        <time>2023-11-19T14:32:35Z</time>
      </trkpt>
      <trkpt lat="43.01755" lon="0.20688">
        <ele>1277.2</ele>
        <time>2023-11-19T14:32:36Z</time>
      </trkpt>
      <trkpt lat="43.01755" lon="0.20688">
        <ele>1277.2</ele>
        <time>2023-11-19T14:32:37Z</time>
      </trkpt>
      <trkpt lat="43.01756" lon="0.20687">
        <ele>1277.2</ele>
        <time>2023-11-19T14:32:38Z</time>
      </trkpt>
      <trkpt lat="43.01757" lon="0.20686">
        <ele>1277.1</ele>
        <time>2023-11-19T14:32:39Z</time>
      </trkpt>
      <trkpt lat="43.01757" lon="0.20684">
        <ele>1277</ele>
        <time>2023-11-19T14:32:40Z</time>
      </trkpt>
      <trkpt lat="43.01757" lon="0.20684">
        <ele>1277</ele>
        <time>2023-11-19T14:32:41Z</time>
      </trkpt>
      <trkpt lat="43.01758" lon="0.20684">
        <ele>1277</ele>
        <time>2023-11-19T14:32:42Z</time>
      </trkpt>
      <trkpt lat="43.01759" lon="0.20682">
        <ele>1276.9</ele>
        <time>2023-11-19T14:32:43Z</time>
      </trkpt>
      <trkpt lat="43.0176" lon="0.20681">
        <ele>1276.9</ele>
        <time>2023-11-19T14:32:44Z</time>
      </trkpt>
      <trkpt lat="43.01761" lon="0.20681">
        <ele>1276.9</ele>
        <time>2023-11-19T14:32:45Z</time>
      </trkpt>
      <trkpt lat="43.01761" lon="0.2068">
        <ele>1276.8</ele>
        <time>2023-11-19T14:32:46Z</time>
      </trkpt>
      <trkpt lat="43.01763" lon="0.20678">
        <ele>1276.7</ele>
        <time>2023-11-19T14:32:47Z</time>
      </trkpt>
      <trkpt lat="43.01764" lon="0.20678">
        <ele>1276.7</ele>
        <time>2023-11-19T14:32:48Z</time>
      </trkpt>
      <trkpt lat="43.01764" lon="0.20677">
        <ele>1276.7</ele>
        <time>2023-11-19T14:32:49Z</time>
      </trkpt>
      <trkpt lat="43.01765" lon="0.20676">
        <ele>1276.7</ele>
        <time>2023-11-19T14:32:50Z</time>
      </trkpt>
      <trkpt lat="43.01765" lon="0.20675">
        <ele>1276.6</ele>
        <time>2023-11-19T14:32:51Z</time>
      </trkpt>
      <trkpt lat="43.01766" lon="0.20675">
        <ele>1276.6</ele>
        <time>2023-11-19T14:32:52Z</time>
      </trkpt>
      <trkpt lat="43.01767" lon="0.20674">
        <ele>1276.6</ele>
        <time>2023-11-19T14:32:53Z</time>
      </trkpt>
      <trkpt lat="43.01767" lon="0.20673">
        <ele>1276.6</ele>
        <time>2023-11-19T14:32:54Z</time>
      </trkpt>
      <trkpt lat="43.01767" lon="0.20671">
        <ele>1276.5</ele>
        <time>2023-11-19T14:32:55Z</time>
      </trkpt>
      <trkpt lat="43.01768" lon="0.20669">
        <ele>1276.5</ele>
        <time>2023-11-19T14:32:56Z</time>
      </trkpt>
      <trkpt lat="43.01768" lon="0.20668">
        <ele>1276.5</ele>
        <time>2023-11-19T14:32:57Z</time>
      </trkpt>
      <trkpt lat="43.01768" lon="0.20667">
        <ele>1276.5</ele>
        <time>2023-11-19T14:32:58Z</time>
      </trkpt>
      <trkpt lat="43.01769" lon="0.20666">
        <ele>1276.5</ele>
        <time>2023-11-19T14:32:59Z</time>
      </trkpt>
      <trkpt lat="43.01769" lon="0.20665">
        <ele>1276.4</ele>
        <time>2023-11-19T14:33:00Z</time>
      </trkpt>
      <trkpt lat="43.0177" lon="0.20664">
        <ele>1276.4</ele>
        <time>2023-11-19T14:33:01Z</time>
      </trkpt>
      <trkpt lat="43.0177" lon="0.20662">
        <ele>1276.4</ele>
        <time>2023-11-19T14:33:02Z</time>
      </trkpt>
      <trkpt lat="43.0177" lon="0.20661">
        <ele>1276.4</ele>
        <time>2023-11-19T14:33:03Z</time>
      </trkpt>
      <trkpt lat="43.0177" lon="0.20659">
        <ele>1276.4</ele>
        <time>2023-11-19T14:33:04Z</time>
      </trkpt>
      <trkpt lat="43.01772" lon="0.20657">
        <ele>1276.4</ele>
        <time>2023-11-19T14:33:05Z</time>
      </trkpt>
      <trkpt lat="43.01772" lon="0.20656">
        <ele>1276.4</ele>
        <time>2023-11-19T14:33:06Z</time>
      </trkpt>
      <trkpt lat="43.01773" lon="0.20655">
        <ele>1276.4</ele>
        <time>2023-11-19T14:33:07Z</time>
      </trkpt>
      <trkpt lat="43.01774" lon="0.20653">
        <ele>1276.4</ele>
        <time>2023-11-19T14:33:08Z</time>
      </trkpt>
      <trkpt lat="43.01775" lon="0.20653">
        <ele>1276.4</ele>
        <time>2023-11-19T14:33:09Z</time>
      </trkpt>
      <trkpt lat="43.01776" lon="0.20652">
        <ele>1276.4</ele>
        <time>2023-11-19T14:33:10Z</time>
      </trkpt>
      <trkpt lat="43.01777" lon="0.20651">
        <ele>1276.4</ele>
        <time>2023-11-19T14:33:11Z</time>
      </trkpt>
      <trkpt lat="43.01778" lon="0.20651">
        <ele>1276.4</ele>
        <time>2023-11-19T14:33:12Z</time>
      </trkpt>
      <trkpt lat="43.01778" lon="0.2065">
        <ele>1276.4</ele>
        <time>2023-11-19T14:33:13Z</time>
      </trkpt>
      <trkpt lat="43.0178" lon="0.20648">
        <ele>1276.4</ele>
        <time>2023-11-19T14:33:14Z</time>
      </trkpt>
      <trkpt lat="43.0178" lon="0.20648">
        <ele>1276.5</ele>
        <time>2023-11-19T14:33:15Z</time>
      </trkpt>
      <trkpt lat="43.01781" lon="0.20647">
        <ele>1276.5</ele>
        <time>2023-11-19T14:33:16Z</time>
      </trkpt>
      <trkpt lat="43.01782" lon="0.20647">
        <ele>1276.5</ele>
        <time>2023-11-19T14:33:17Z</time>
      </trkpt>
      <trkpt lat="43.01783" lon="0.20646">
        <ele>1276.5</ele>
        <time>2023-11-19T14:33:18Z</time>
      </trkpt>
      <trkpt lat="43.01783" lon="0.20646">
        <ele>1276.5</ele>
        <time>2023-11-19T14:33:19Z</time>
      </trkpt>
      <trkpt lat="43.01784" lon="0.20645">
        <ele>1276.6</ele>
        <time>2023-11-19T14:33:20Z</time>
      </trkpt>
      <trkpt lat="43.01786" lon="0.20643">
        <ele>1276.6</ele>
        <time>2023-11-19T14:33:21Z</time>
      </trkpt>
      <trkpt lat="43.01787" lon="0.20642">
        <ele>1276.6</ele>
        <time>2023-11-19T14:33:22Z</time>
      </trkpt>
      <trkpt lat="43.01788" lon="0.20641">
        <ele>1276.7</ele>
        <time>2023-11-19T14:33:23Z</time>
      </trkpt>
      <trkpt lat="43.01789" lon="0.20641">
        <ele>1276.7</ele>
        <time>2023-11-19T14:33:24Z</time>
      </trkpt>
      <trkpt lat="43.0179" lon="0.20641">
        <ele>1276.7</ele>
        <time>2023-11-19T14:33:25Z</time>
      </trkpt>
      <trkpt lat="43.01791" lon="0.2064">
        <ele>1276.8</ele>
        <time>2023-11-19T14:33:26Z</time>
      </trkpt>
      <trkpt lat="43.0179" lon="0.20638">
        <ele>1276.8</ele>
        <time>2023-11-19T14:33:27Z</time>
      </trkpt>
      <trkpt lat="43.01791" lon="0.20638">
        <ele>1276.9</ele>
        <time>2023-11-19T14:33:28Z</time>
      </trkpt>
      <trkpt lat="43.01792" lon="0.20637">
        <ele>1276.9</ele>
        <time>2023-11-19T14:33:29Z</time>
      </trkpt>
      <trkpt lat="43.01792" lon="0.20636">
        <ele>1276.9</ele>
        <time>2023-11-19T14:33:31Z</time>
      </trkpt>
      <trkpt lat="43.01792" lon="0.20635">
        <ele>1277</ele>
        <time>2023-11-19T14:33:32Z</time>
      </trkpt>
      <trkpt lat="43.01793" lon="0.20634">
        <ele>1277</ele>
        <time>2023-11-19T14:33:33Z</time>
      </trkpt>
      <trkpt lat="43.01793" lon="0.20632">
        <ele>1277</ele>
        <time>2023-11-19T14:33:34Z</time>
      </trkpt>
      <trkpt lat="43.01795" lon="0.20631">
        <ele>1277.1</ele>
        <time>2023-11-19T14:33:35Z</time>
      </trkpt>
      <trkpt lat="43.01795" lon="0.20631">
        <ele>1277.1</ele>
        <time>2023-11-19T14:33:36Z</time>
      </trkpt>
      <trkpt lat="43.01795" lon="0.2063">
        <ele>1277.1</ele>
        <time>2023-11-19T14:33:37Z</time>
      </trkpt>
      <trkpt lat="43.01796" lon="0.20629">
        <ele>1277.1</ele>
        <time>2023-11-19T14:33:38Z</time>
      </trkpt>
      <trkpt lat="43.01797" lon="0.20627">
        <ele>1277.2</ele>
        <time>2023-11-19T14:33:39Z</time>
      </trkpt>
      <trkpt lat="43.01797" lon="0.20626">
        <ele>1277.2</ele>
        <time>2023-11-19T14:33:40Z</time>
      </trkpt>
      <trkpt lat="43.01798" lon="0.20625">
        <ele>1277.3</ele>
        <time>2023-11-19T14:33:41Z</time>
      </trkpt>
      <trkpt lat="43.01798" lon="0.20624">
        <ele>1277.3</ele>
        <time>2023-11-19T14:33:42Z</time>
      </trkpt>
      <trkpt lat="43.01798" lon="0.20622">
        <ele>1277.3</ele>
        <time>2023-11-19T14:33:43Z</time>
      </trkpt>
      <trkpt lat="43.01798" lon="0.2062">
        <ele>1277.3</ele>
        <time>2023-11-19T14:33:44Z</time>
      </trkpt>
      <trkpt lat="43.01798" lon="0.20618">
        <ele>1277.4</ele>
        <time>2023-11-19T14:33:45Z</time>
      </trkpt>
      <trkpt lat="43.01798" lon="0.20618">
        <ele>1277.4</ele>
        <time>2023-11-19T14:33:46Z</time>
      </trkpt>
      <trkpt lat="43.01798" lon="0.20619">
        <ele>1277.4</ele>
        <time>2023-11-19T14:33:47Z</time>
      </trkpt>
      <trkpt lat="43.01798" lon="0.20619">
        <ele>1277.4</ele>
        <time>2023-11-19T14:33:48Z</time>
      </trkpt>
      <trkpt lat="43.01798" lon="0.20617">
        <ele>1277.4</ele>
        <time>2023-11-19T14:33:49Z</time>
      </trkpt>
      <trkpt lat="43.01798" lon="0.20616">
        <ele>1277.4</ele>
        <time>2023-11-19T14:33:50Z</time>
      </trkpt>
      <trkpt lat="43.01798" lon="0.20614">
        <ele>1277.4</ele>
        <time>2023-11-19T14:33:51Z</time>
      </trkpt>
      <trkpt lat="43.01798" lon="0.20614">
        <ele>1277.4</ele>
        <time>2023-11-19T14:33:52Z</time>
      </trkpt>
      <trkpt lat="43.01798" lon="0.20612">
        <ele>1277.4</ele>
        <time>2023-11-19T14:33:53Z</time>
      </trkpt>
      <trkpt lat="43.01799" lon="0.20611">
        <ele>1277.4</ele>
        <time>2023-11-19T14:33:54Z</time>
      </trkpt>
      <trkpt lat="43.01799" lon="0.2061">
        <ele>1277.4</ele>
        <time>2023-11-19T14:33:55Z</time>
      </trkpt>
      <trkpt lat="43.01799" lon="0.2061">
        <ele>1277.4</ele>
        <time>2023-11-19T14:33:56Z</time>
      </trkpt>
      <trkpt lat="43.01799" lon="0.20608">
        <ele>1277.5</ele>
        <time>2023-11-19T14:33:57Z</time>
      </trkpt>
      <trkpt lat="43.01799" lon="0.20607">
        <ele>1277.5</ele>
        <time>2023-11-19T14:33:58Z</time>
      </trkpt>
      <trkpt lat="43.01799" lon="0.20607">
        <ele>1277.5</ele>
        <time>2023-11-19T14:33:59Z</time>
      </trkpt>
      <trkpt lat="43.01799" lon="0.20605">
        <ele>1277.5</ele>
        <time>2023-11-19T14:34:00Z</time>
      </trkpt>
      <trkpt lat="43.01799" lon="0.20605">
        <ele>1277.5</ele>
        <time>2023-11-19T14:34:01Z</time>
      </trkpt>
      <trkpt lat="43.01799" lon="0.20605">
        <ele>1277.5</ele>
        <time>2023-11-19T14:34:02Z</time>
      </trkpt>
      <trkpt lat="43.01799" lon="0.20605">
        <ele>1277.5</ele>
        <time>2023-11-19T14:34:03Z</time>
      </trkpt>
      <trkpt lat="43.01799" lon="0.20604">
        <ele>1277.5</ele>
        <time>2023-11-19T14:34:04Z</time>
      </trkpt>
      <trkpt lat="43.01799" lon="0.20603">
        <ele>1277.5</ele>
        <time>2023-11-19T14:34:05Z</time>
      </trkpt>
      <trkpt lat="43.01799" lon="0.20602">
        <ele>1277.5</ele>
        <time>2023-11-19T14:34:06Z</time>
      </trkpt>
      <trkpt lat="43.01799" lon="0.20601">
        <ele>1277.5</ele>
        <time>2023-11-19T14:34:07Z</time>
      </trkpt>
      <trkpt lat="43.018" lon="0.206">
        <ele>1277.5</ele>
        <time>2023-11-19T14:34:08Z</time>
      </trkpt>
      <trkpt lat="43.01801" lon="0.20599">
        <ele>1277.5</ele>
        <time>2023-11-19T14:34:09Z</time>
      </trkpt>
      <trkpt lat="43.01801" lon="0.20598">
        <ele>1277.5</ele>
        <time>2023-11-19T14:34:10Z</time>
      </trkpt>
      <trkpt lat="43.01801" lon="0.20597">
        <ele>1277.5</ele>
        <time>2023-11-19T14:34:11Z</time>
      </trkpt>
      <trkpt lat="43.01801" lon="0.20596">
        <ele>1277.5</ele>
        <time>2023-11-19T14:34:12Z</time>
      </trkpt>
      <trkpt lat="43.01801" lon="0.20595">
        <ele>1277.5</ele>
        <time>2023-11-19T14:34:13Z</time>
      </trkpt>
      <trkpt lat="43.01801" lon="0.20594">
        <ele>1277.5</ele>
        <time>2023-11-19T14:34:14Z</time>
      </trkpt>
      <trkpt lat="43.01801" lon="0.20592">
        <ele>1277.5</ele>
        <time>2023-11-19T14:34:15Z</time>
      </trkpt>
      <trkpt lat="43.01801" lon="0.20591">
        <ele>1277.5</ele>
        <time>2023-11-19T14:34:16Z</time>
      </trkpt>
      <trkpt lat="43.01801" lon="0.2059">
        <ele>1277.5</ele>
        <time>2023-11-19T14:34:17Z</time>
      </trkpt>
      <trkpt lat="43.01802" lon="0.20588">
        <ele>1277.5</ele>
        <time>2023-11-19T14:34:18Z</time>
      </trkpt>
      <trkpt lat="43.01802" lon="0.20587">
        <ele>1277.5</ele>
        <time>2023-11-19T14:34:19Z</time>
      </trkpt>
      <trkpt lat="43.01802" lon="0.20586">
        <ele>1277.5</ele>
        <time>2023-11-19T14:34:20Z</time>
      </trkpt>
      <trkpt lat="43.01801" lon="0.20585">
        <ele>1277.5</ele>
        <time>2023-11-19T14:34:21Z</time>
      </trkpt>
      <trkpt lat="43.01801" lon="0.20584">
        <ele>1277.5</ele>
        <time>2023-11-19T14:34:22Z</time>
      </trkpt>
      <trkpt lat="43.01802" lon="0.20583">
        <ele>1277.5</ele>
        <time>2023-11-19T14:34:23Z</time>
      </trkpt>
      <trkpt lat="43.01802" lon="0.20582">
        <ele>1277.5</ele>
        <time>2023-11-19T14:34:24Z</time>
      </trkpt>
      <trkpt lat="43.01803" lon="0.20581">
        <ele>1277.5</ele>
        <time>2023-11-19T14:34:25Z</time>
      </trkpt>
      <trkpt lat="43.01803" lon="0.2058">
        <ele>1277.5</ele>
        <time>2023-11-19T14:34:26Z</time>
      </trkpt>
      <trkpt lat="43.01802" lon="0.20579">
        <ele>1277.5</ele>
        <time>2023-11-19T14:34:27Z</time>
      </trkpt>
      <trkpt lat="43.01803" lon="0.20578">
        <ele>1277.5</ele>
        <time>2023-11-19T14:34:28Z</time>
      </trkpt>
      <trkpt lat="43.01803" lon="0.20576">
        <ele>1277.5</ele>
        <time>2023-11-19T14:34:29Z</time>
      </trkpt>
      <trkpt lat="43.01804" lon="0.20576">
        <ele>1277.5</ele>
        <time>2023-11-19T14:34:30Z</time>
      </trkpt>
      <trkpt lat="43.01804" lon="0.20574">
        <ele>1277.5</ele>
        <time>2023-11-19T14:34:31Z</time>
      </trkpt>
      <trkpt lat="43.01804" lon="0.20573">
        <ele>1277.5</ele>
        <time>2023-11-19T14:34:32Z</time>
      </trkpt>
      <trkpt lat="43.01804" lon="0.20572">
        <ele>1277.5</ele>
        <time>2023-11-19T14:34:33Z</time>
      </trkpt>
      <trkpt lat="43.01805" lon="0.20571">
        <ele>1277.5</ele>
        <time>2023-11-19T14:34:34Z</time>
      </trkpt>
      <trkpt lat="43.01805" lon="0.20571">
        <ele>1277.5</ele>
        <time>2023-11-19T14:34:35Z</time>
      </trkpt>
      <trkpt lat="43.01806" lon="0.20569">
        <ele>1277.5</ele>
        <time>2023-11-19T14:34:36Z</time>
      </trkpt>
      <trkpt lat="43.01806" lon="0.20569">
        <ele>1277.5</ele>
        <time>2023-11-19T14:34:37Z</time>
      </trkpt>
      <trkpt lat="43.01806" lon="0.20567">
        <ele>1277.5</ele>
        <time>2023-11-19T14:34:38Z</time>
      </trkpt>
      <trkpt lat="43.01807" lon="0.20567">
        <ele>1277.5</ele>
        <time>2023-11-19T14:34:39Z</time>
      </trkpt>
      <trkpt lat="43.01807" lon="0.20566">
        <ele>1277.6</ele>
        <time>2023-11-19T14:34:40Z</time>
      </trkpt>
      <trkpt lat="43.01808" lon="0.20566">
        <ele>1277.6</ele>
        <time>2023-11-19T14:34:41Z</time>
      </trkpt>
      <trkpt lat="43.01809" lon="0.20564">
        <ele>1277.6</ele>
        <time>2023-11-19T14:34:42Z</time>
      </trkpt>
      <trkpt lat="43.01809" lon="0.20564">
        <ele>1277.6</ele>
        <time>2023-11-19T14:34:43Z</time>
      </trkpt>
      <trkpt lat="43.0181" lon="0.20562">
        <ele>1277.6</ele>
        <time>2023-11-19T14:34:44Z</time>
      </trkpt>
      <trkpt lat="43.0181" lon="0.20561">
        <ele>1277.6</ele>
        <time>2023-11-19T14:34:45Z</time>
      </trkpt>
      <trkpt lat="43.01811" lon="0.20558">
        <ele>1277.7</ele>
        <time>2023-11-19T14:34:46Z</time>
      </trkpt>
      <trkpt lat="43.01811" lon="0.20557">
        <ele>1277.7</ele>
        <time>2023-11-19T14:34:47Z</time>
      </trkpt>
      <trkpt lat="43.01811" lon="0.20556">
        <ele>1277.7</ele>
        <time>2023-11-19T14:34:48Z</time>
      </trkpt>
      <trkpt lat="43.01811" lon="0.20556">
        <ele>1277.7</ele>
        <time>2023-11-19T14:34:49Z</time>
      </trkpt>
      <trkpt lat="43.01813" lon="0.20555">
        <ele>1277.8</ele>
        <time>2023-11-19T14:34:50Z</time>
      </trkpt>
      <trkpt lat="43.01814" lon="0.20555">
        <ele>1277.8</ele>
        <time>2023-11-19T14:34:51Z</time>
      </trkpt>
      <trkpt lat="43.01815" lon="0.20555">
        <ele>1277.9</ele>
        <time>2023-11-19T14:34:52Z</time>
      </trkpt>
      <trkpt lat="43.01816" lon="0.20554">
        <ele>1277.9</ele>
        <time>2023-11-19T14:34:53Z</time>
      </trkpt>
      <trkpt lat="43.01815" lon="0.20553">
        <ele>1277.9</ele>
        <time>2023-11-19T14:34:54Z</time>
      </trkpt>
      <trkpt lat="43.01815" lon="0.20552">
        <ele>1278</ele>
        <time>2023-11-19T14:34:55Z</time>
      </trkpt>
      <trkpt lat="43.01816" lon="0.2055">
        <ele>1278</ele>
        <time>2023-11-19T14:34:56Z</time>
      </trkpt>
      <trkpt lat="43.01816" lon="0.20549">
        <ele>1278.1</ele>
        <time>2023-11-19T14:34:57Z</time>
      </trkpt>
      <trkpt lat="43.01816" lon="0.20545">
        <ele>1278.2</ele>
        <time>2023-11-19T14:34:58Z</time>
      </trkpt>
      <trkpt lat="43.01816" lon="0.20546">
        <ele>1278.2</ele>
        <time>2023-11-19T14:34:59Z</time>
      </trkpt>
      <trkpt lat="43.01816" lon="0.20546">
        <ele>1278.2</ele>
        <time>2023-11-19T14:35:00Z</time>
      </trkpt>
      <trkpt lat="43.01816" lon="0.20545">
        <ele>1278.3</ele>
        <time>2023-11-19T14:35:01Z</time>
      </trkpt>
      <trkpt lat="43.01817" lon="0.20544">
        <ele>1278.3</ele>
        <time>2023-11-19T14:35:02Z</time>
      </trkpt>
      <trkpt lat="43.01818" lon="0.20544">
        <ele>1278.3</ele>
        <time>2023-11-19T14:35:03Z</time>
      </trkpt>
      <trkpt lat="43.01819" lon="0.20544">
        <ele>1278.4</ele>
        <time>2023-11-19T14:35:04Z</time>
      </trkpt>
      <trkpt lat="43.0182" lon="0.20543">
        <ele>1278.4</ele>
        <time>2023-11-19T14:35:05Z</time>
      </trkpt>
      <trkpt lat="43.01821" lon="0.20543">
        <ele>1278.5</ele>
        <time>2023-11-19T14:35:06Z</time>
      </trkpt>
      <trkpt lat="43.01821" lon="0.20543">
        <ele>1278.5</ele>
        <time>2023-11-19T14:35:07Z</time>
      </trkpt>
      <trkpt lat="43.01822" lon="0.20543">
        <ele>1278.6</ele>
        <time>2023-11-19T14:35:08Z</time>
      </trkpt>
      <trkpt lat="43.01822" lon="0.20543">
        <ele>1278.6</ele>
        <time>2023-11-19T14:35:09Z</time>
      </trkpt>
      <trkpt lat="43.01822" lon="0.20542">
        <ele>1278.6</ele>
        <time>2023-11-19T14:35:10Z</time>
      </trkpt>
      <trkpt lat="43.01822" lon="0.20542">
        <ele>1278.6</ele>
        <time>2023-11-19T14:35:11Z</time>
      </trkpt>
      <trkpt lat="43.01823" lon="0.20541">
        <ele>1278.6</ele>
        <time>2023-11-19T14:35:12Z</time>
      </trkpt>
      <trkpt lat="43.01823" lon="0.20541">
        <ele>1278.7</ele>
        <time>2023-11-19T14:35:13Z</time>
      </trkpt>
      <trkpt lat="43.01823" lon="0.20541">
        <ele>1278.7</ele>
        <time>2023-11-19T14:35:14Z</time>
      </trkpt>
      <trkpt lat="43.01824" lon="0.20541">
        <ele>1278.7</ele>
        <time>2023-11-19T14:35:15Z</time>
      </trkpt>
      <trkpt lat="43.01824" lon="0.20541">
        <ele>1278.7</ele>
        <time>2023-11-19T14:35:16Z</time>
      </trkpt>
      <trkpt lat="43.01824" lon="0.20541">
        <ele>1278.8</ele>
        <time>2023-11-19T14:35:17Z</time>
      </trkpt>
      <trkpt lat="43.01825" lon="0.2054">
        <ele>1278.8</ele>
        <time>2023-11-19T14:35:18Z</time>
      </trkpt>
      <trkpt lat="43.01824" lon="0.2054">
        <ele>1278.8</ele>
        <time>2023-11-19T14:35:19Z</time>
      </trkpt>
      <trkpt lat="43.01825" lon="0.20539">
        <ele>1278.9</ele>
        <time>2023-11-19T14:35:20Z</time>
      </trkpt>
      <trkpt lat="43.01826" lon="0.20539">
        <ele>1278.9</ele>
        <time>2023-11-19T14:35:21Z</time>
      </trkpt>
      <trkpt lat="43.01827" lon="0.20538">
        <ele>1279</ele>
        <time>2023-11-19T14:35:22Z</time>
      </trkpt>
      <trkpt lat="43.01828" lon="0.20537">
        <ele>1279</ele>
        <time>2023-11-19T14:35:23Z</time>
      </trkpt>
      <trkpt lat="43.01828" lon="0.20536">
        <ele>1279.1</ele>
        <time>2023-11-19T14:35:24Z</time>
      </trkpt>
      <trkpt lat="43.01829" lon="0.20535">
        <ele>1279.1</ele>
        <time>2023-11-19T14:35:25Z</time>
      </trkpt>
      <trkpt lat="43.01831" lon="0.20535">
        <ele>1279.2</ele>
        <time>2023-11-19T14:35:26Z</time>
      </trkpt>
      <trkpt lat="43.01831" lon="0.20535">
        <ele>1279.3</ele>
        <time>2023-11-19T14:35:27Z</time>
      </trkpt>
      <trkpt lat="43.01832" lon="0.20534">
        <ele>1279.3</ele>
        <time>2023-11-19T14:35:28Z</time>
      </trkpt>
      <trkpt lat="43.01833" lon="0.20533">
        <ele>1279.4</ele>
        <time>2023-11-19T14:35:29Z</time>
      </trkpt>
      <trkpt lat="43.01833" lon="0.20532">
        <ele>1279.4</ele>
        <time>2023-11-19T14:35:30Z</time>
      </trkpt>
      <trkpt lat="43.01834" lon="0.20531">
        <ele>1279.5</ele>
        <time>2023-11-19T14:35:31Z</time>
      </trkpt>
      <trkpt lat="43.01834" lon="0.2053">
        <ele>1279.5</ele>
        <time>2023-11-19T14:35:32Z</time>
      </trkpt>
      <trkpt lat="43.01835" lon="0.20529">
        <ele>1279.6</ele>
        <time>2023-11-19T14:35:33Z</time>
      </trkpt>
      <trkpt lat="43.01836" lon="0.20528">
        <ele>1279.6</ele>
        <time>2023-11-19T14:35:34Z</time>
      </trkpt>
      <trkpt lat="43.01837" lon="0.20527">
        <ele>1279.7</ele>
        <time>2023-11-19T14:35:35Z</time>
      </trkpt>
      <trkpt lat="43.01838" lon="0.20526">
        <ele>1279.7</ele>
        <time>2023-11-19T14:35:37Z</time>
      </trkpt>
      <trkpt lat="43.01839" lon="0.20525">
        <ele>1279.8</ele>
        <time>2023-11-19T14:35:38Z</time>
      </trkpt>
      <trkpt lat="43.0184" lon="0.20524">
        <ele>1279.8</ele>
        <time>2023-11-19T14:35:39Z</time>
      </trkpt>
      <trkpt lat="43.01841" lon="0.20523">
        <ele>1279.9</ele>
        <time>2023-11-19T14:35:40Z</time>
      </trkpt>
      <trkpt lat="43.01841" lon="0.20523">
        <ele>1279.9</ele>
        <time>2023-11-19T14:35:41Z</time>
      </trkpt>
      <trkpt lat="43.01842" lon="0.20522">
        <ele>1280</ele>
        <time>2023-11-19T14:35:42Z</time>
      </trkpt>
      <trkpt lat="43.01842" lon="0.2052">
        <ele>1280</ele>
        <time>2023-11-19T14:35:43Z</time>
      </trkpt>
      <trkpt lat="43.01843" lon="0.20519">
        <ele>1280.1</ele>
        <time>2023-11-19T14:35:44Z</time>
      </trkpt>
      <trkpt lat="43.01844" lon="0.20519">
        <ele>1280.1</ele>
        <time>2023-11-19T14:35:45Z</time>
      </trkpt>
      <trkpt lat="43.01845" lon="0.20518">
        <ele>1280.1</ele>
        <time>2023-11-19T14:35:46Z</time>
      </trkpt>
      <trkpt lat="43.01845" lon="0.20517">
        <ele>1280.2</ele>
        <time>2023-11-19T14:35:47Z</time>
      </trkpt>
      <trkpt lat="43.01845" lon="0.20516">
        <ele>1280.2</ele>
        <time>2023-11-19T14:35:48Z</time>
      </trkpt>
      <trkpt lat="43.01846" lon="0.20515">
        <ele>1280.2</ele>
        <time>2023-11-19T14:35:49Z</time>
      </trkpt>
      <trkpt lat="43.01847" lon="0.20514">
        <ele>1280.3</ele>
        <time>2023-11-19T14:35:50Z</time>
      </trkpt>
      <trkpt lat="43.01848" lon="0.20514">
        <ele>1280.3</ele>
        <time>2023-11-19T14:35:51Z</time>
      </trkpt>
      <trkpt lat="43.0185" lon="0.20512">
        <ele>1280.3</ele>
        <time>2023-11-19T14:35:52Z</time>
      </trkpt>
      <trkpt lat="43.0185" lon="0.20511">
        <ele>1280.4</ele>
        <time>2023-11-19T14:35:53Z</time>
      </trkpt>
      <trkpt lat="43.0185" lon="0.2051">
        <ele>1280.4</ele>
        <time>2023-11-19T14:35:54Z</time>
      </trkpt>
      <trkpt lat="43.01851" lon="0.20509">
        <ele>1280.4</ele>
        <time>2023-11-19T14:35:55Z</time>
      </trkpt>
      <trkpt lat="43.01852" lon="0.20508">
        <ele>1280.4</ele>
        <time>2023-11-19T14:35:56Z</time>
      </trkpt>
      <trkpt lat="43.01853" lon="0.20508">
        <ele>1280.4</ele>
        <time>2023-11-19T14:35:57Z</time>
      </trkpt>
      <trkpt lat="43.01854" lon="0.20508">
        <ele>1280.4</ele>
        <time>2023-11-19T14:35:58Z</time>
      </trkpt>
      <trkpt lat="43.01855" lon="0.20507">
        <ele>1280.4</ele>
        <time>2023-11-19T14:35:59Z</time>
      </trkpt>
      <trkpt lat="43.01856" lon="0.20506">
        <ele>1280.4</ele>
        <time>2023-11-19T14:36:00Z</time>
      </trkpt>
      <trkpt lat="43.01858" lon="0.20504">
        <ele>1280.4</ele>
        <time>2023-11-19T14:36:01Z</time>
      </trkpt>
      <trkpt lat="43.01859" lon="0.20504">
        <ele>1280.4</ele>
        <time>2023-11-19T14:36:02Z</time>
      </trkpt>
      <trkpt lat="43.0186" lon="0.20503">
        <ele>1280.4</ele>
        <time>2023-11-19T14:36:03Z</time>
      </trkpt>
      <trkpt lat="43.01861" lon="0.20501">
        <ele>1280.4</ele>
        <time>2023-11-19T14:36:04Z</time>
      </trkpt>
      <trkpt lat="43.01862" lon="0.20501">
        <ele>1280.3</ele>
        <time>2023-11-19T14:36:05Z</time>
      </trkpt>
      <trkpt lat="43.01863" lon="0.205">
        <ele>1280.3</ele>
        <time>2023-11-19T14:36:06Z</time>
      </trkpt>
      <trkpt lat="43.01863" lon="0.20499">
        <ele>1280.3</ele>
        <time>2023-11-19T14:36:07Z</time>
      </trkpt>
      <trkpt lat="43.01864" lon="0.20498">
        <ele>1280.3</ele>
        <time>2023-11-19T14:36:08Z</time>
      </trkpt>
      <trkpt lat="43.01865" lon="0.20497">
        <ele>1280.2</ele>
        <time>2023-11-19T14:36:09Z</time>
      </trkpt>
      <trkpt lat="43.01866" lon="0.20496">
        <ele>1280.2</ele>
        <time>2023-11-19T14:36:10Z</time>
      </trkpt>
      <trkpt lat="43.01866" lon="0.20495">
        <ele>1280.2</ele>
        <time>2023-11-19T14:36:11Z</time>
      </trkpt>
      <trkpt lat="43.01867" lon="0.20494">
        <ele>1280.1</ele>
        <time>2023-11-19T14:36:12Z</time>
      </trkpt>
      <trkpt lat="43.01868" lon="0.20494">
        <ele>1280.1</ele>
        <time>2023-11-19T14:36:13Z</time>
      </trkpt>
      <trkpt lat="43.01869" lon="0.20493">
        <ele>1280</ele>
        <time>2023-11-19T14:36:14Z</time>
      </trkpt>
      <trkpt lat="43.0187" lon="0.20492">
        <ele>1280</ele>
        <time>2023-11-19T14:36:15Z</time>
      </trkpt>
      <trkpt lat="43.01871" lon="0.20491">
        <ele>1279.9</ele>
        <time>2023-11-19T14:36:16Z</time>
      </trkpt>
      <trkpt lat="43.01872" lon="0.2049">
        <ele>1279.8</ele>
        <time>2023-11-19T14:36:17Z</time>
      </trkpt>
      <trkpt lat="43.01873" lon="0.2049">
        <ele>1279.7</ele>
        <time>2023-11-19T14:36:18Z</time>
      </trkpt>
      <trkpt lat="43.01874" lon="0.20489">
        <ele>1279.6</ele>
        <time>2023-11-19T14:36:19Z</time>
      </trkpt>
      <trkpt lat="43.01875" lon="0.20488">
        <ele>1279.6</ele>
        <time>2023-11-19T14:36:20Z</time>
      </trkpt>
      <trkpt lat="43.01876" lon="0.20487">
        <ele>1279.5</ele>
        <time>2023-11-19T14:36:21Z</time>
      </trkpt>
      <trkpt lat="43.01877" lon="0.20486">
        <ele>1279.4</ele>
        <time>2023-11-19T14:36:22Z</time>
      </trkpt>
      <trkpt lat="43.01878" lon="0.20485">
        <ele>1279.3</ele>
        <time>2023-11-19T14:36:23Z</time>
      </trkpt>
      <trkpt lat="43.01879" lon="0.20484">
        <ele>1279.2</ele>
        <time>2023-11-19T14:36:24Z</time>
      </trkpt>
      <trkpt lat="43.01879" lon="0.20483">
        <ele>1279.1</ele>
        <time>2023-11-19T14:36:25Z</time>
      </trkpt>
      <trkpt lat="43.0188" lon="0.20483">
        <ele>1279.1</ele>
        <time>2023-11-19T14:36:26Z</time>
      </trkpt>
      <trkpt lat="43.01882" lon="0.20481">
        <ele>1278.9</ele>
        <time>2023-11-19T14:36:27Z</time>
      </trkpt>
      <trkpt lat="43.01883" lon="0.2048">
        <ele>1278.8</ele>
        <time>2023-11-19T14:36:28Z</time>
      </trkpt>
      <trkpt lat="43.01883" lon="0.20479">
        <ele>1278.7</ele>
        <time>2023-11-19T14:36:29Z</time>
      </trkpt>
      <trkpt lat="43.01885" lon="0.20477">
        <ele>1278.5</ele>
        <time>2023-11-19T14:36:30Z</time>
      </trkpt>
      <trkpt lat="43.01886" lon="0.20477">
        <ele>1278.5</ele>
        <time>2023-11-19T14:36:31Z</time>
      </trkpt>
      <trkpt lat="43.01887" lon="0.20477">
        <ele>1278.4</ele>
        <time>2023-11-19T14:36:32Z</time>
      </trkpt>
      <trkpt lat="43.01888" lon="0.20476">
        <ele>1278.3</ele>
        <time>2023-11-19T14:36:33Z</time>
      </trkpt>
      <trkpt lat="43.01889" lon="0.20475">
        <ele>1278.1</ele>
        <time>2023-11-19T14:36:34Z</time>
      </trkpt>
      <trkpt lat="43.01889" lon="0.20474">
        <ele>1278</ele>
        <time>2023-11-19T14:36:35Z</time>
      </trkpt>
      <trkpt lat="43.0189" lon="0.20473">
        <ele>1277.9</ele>
        <time>2023-11-19T14:36:36Z</time>
      </trkpt>
      <trkpt lat="43.01891" lon="0.20471">
        <ele>1277.8</ele>
        <time>2023-11-19T14:36:37Z</time>
      </trkpt>
      <trkpt lat="43.01892" lon="0.2047">
        <ele>1277.6</ele>
        <time>2023-11-19T14:36:38Z</time>
      </trkpt>
      <trkpt lat="43.01892" lon="0.20469">
        <ele>1277.5</ele>
        <time>2023-11-19T14:36:39Z</time>
      </trkpt>
      <trkpt lat="43.01893" lon="0.20468">
        <ele>1277.4</ele>
        <time>2023-11-19T14:36:40Z</time>
      </trkpt>
      <trkpt lat="43.01894" lon="0.20467">
        <ele>1277.3</ele>
        <time>2023-11-19T14:36:41Z</time>
      </trkpt>
      <trkpt lat="43.01894" lon="0.20467">
        <ele>1277.2</ele>
        <time>2023-11-19T14:36:42Z</time>
      </trkpt>
      <trkpt lat="43.01894" lon="0.20467">
        <ele>1277.2</ele>
        <time>2023-11-19T14:36:43Z</time>
      </trkpt>
      <trkpt lat="43.01894" lon="0.20466">
        <ele>1277.1</ele>
        <time>2023-11-19T14:36:44Z</time>
      </trkpt>
      <trkpt lat="43.01894" lon="0.20466">
        <ele>1277.1</ele>
        <time>2023-11-19T14:36:45Z</time>
      </trkpt>
      <trkpt lat="43.01894" lon="0.20466">
        <ele>1277.1</ele>
        <time>2023-11-19T14:36:46Z</time>
      </trkpt>
      <trkpt lat="43.01894" lon="0.20466">
        <ele>1277.1</ele>
        <time>2023-11-19T14:36:47Z</time>
      </trkpt>
      <trkpt lat="43.01894" lon="0.20466">
        <ele>1277.1</ele>
        <time>2023-11-19T14:36:48Z</time>
      </trkpt>
      <trkpt lat="43.01894" lon="0.20466">
        <ele>1277.1</ele>
        <time>2023-11-19T14:36:49Z</time>
      </trkpt>
      <trkpt lat="43.01895" lon="0.20466">
        <ele>1277</ele>
        <time>2023-11-19T14:36:50Z</time>
      </trkpt>
      <trkpt lat="43.01896" lon="0.20465">
        <ele>1276.8</ele>
        <time>2023-11-19T14:36:51Z</time>
      </trkpt>
      <trkpt lat="43.01897" lon="0.20464">
        <ele>1276.7</ele>
        <time>2023-11-19T14:36:52Z</time>
      </trkpt>
      <trkpt lat="43.01898" lon="0.20462">
        <ele>1276.6</ele>
        <time>2023-11-19T14:36:53Z</time>
      </trkpt>
      <trkpt lat="43.01899" lon="0.20461">
        <ele>1276.5</ele>
        <time>2023-11-19T14:36:54Z</time>
      </trkpt>
      <trkpt lat="43.01899" lon="0.20461">
        <ele>1276.4</ele>
        <time>2023-11-19T14:36:55Z</time>
      </trkpt>
      <trkpt lat="43.01901" lon="0.2046">
        <ele>1276.2</ele>
        <time>2023-11-19T14:36:56Z</time>
      </trkpt>
      <trkpt lat="43.01901" lon="0.20459">
        <ele>1276.1</ele>
        <time>2023-11-19T14:36:57Z</time>
      </trkpt>
      <trkpt lat="43.01901" lon="0.20459">
        <ele>1276.1</ele>
        <time>2023-11-19T14:36:58Z</time>
      </trkpt>
      <trkpt lat="43.01901" lon="0.20459">
        <ele>1276.1</ele>
        <time>2023-11-19T14:36:59Z</time>
      </trkpt>
      <trkpt lat="43.01901" lon="0.20458">
        <ele>1275.9</ele>
        <time>2023-11-19T14:37:00Z</time>
      </trkpt>
      <trkpt lat="43.01902" lon="0.20457">
        <ele>1275.8</ele>
        <time>2023-11-19T14:37:01Z</time>
      </trkpt>
      <trkpt lat="43.01902" lon="0.20455">
        <ele>1275.7</ele>
        <time>2023-11-19T14:37:02Z</time>
      </trkpt>
      <trkpt lat="43.01904" lon="0.20452">
        <ele>1275.5</ele>
        <time>2023-11-19T14:37:03Z</time>
      </trkpt>
      <trkpt lat="43.01904" lon="0.20452">
        <ele>1275.4</ele>
        <time>2023-11-19T14:37:04Z</time>
      </trkpt>
      <trkpt lat="43.01904" lon="0.20451">
        <ele>1275.3</ele>
        <time>2023-11-19T14:37:05Z</time>
      </trkpt>
      <trkpt lat="43.01905" lon="0.20449">
        <ele>1275.2</ele>
        <time>2023-11-19T14:37:06Z</time>
      </trkpt>
      <trkpt lat="43.01905" lon="0.20447">
        <ele>1275</ele>
        <time>2023-11-19T14:37:07Z</time>
      </trkpt>
      <trkpt lat="43.01905" lon="0.20445">
        <ele>1274.9</ele>
        <time>2023-11-19T14:37:08Z</time>
      </trkpt>
      <trkpt lat="43.01906" lon="0.20443">
        <ele>1274.7</ele>
        <time>2023-11-19T14:37:09Z</time>
      </trkpt>
      <trkpt lat="43.01906" lon="0.20442">
        <ele>1274.6</ele>
        <time>2023-11-19T14:37:10Z</time>
      </trkpt>
      <trkpt lat="43.01906" lon="0.2044">
        <ele>1274.5</ele>
        <time>2023-11-19T14:37:11Z</time>
      </trkpt>
      <trkpt lat="43.01906" lon="0.20439">
        <ele>1274.4</ele>
        <time>2023-11-19T14:37:12Z</time>
      </trkpt>
      <trkpt lat="43.01906" lon="0.20437">
        <ele>1274.3</ele>
        <time>2023-11-19T14:37:13Z</time>
      </trkpt>
      <trkpt lat="43.01907" lon="0.20435">
        <ele>1274.1</ele>
        <time>2023-11-19T14:37:14Z</time>
      </trkpt>
      <trkpt lat="43.01907" lon="0.20432">
        <ele>1273.9</ele>
        <time>2023-11-19T14:37:15Z</time>
      </trkpt>
      <trkpt lat="43.01907" lon="0.20431">
        <ele>1273.8</ele>
        <time>2023-11-19T14:37:16Z</time>
      </trkpt>
      <trkpt lat="43.01907" lon="0.20429">
        <ele>1273.7</ele>
        <time>2023-11-19T14:37:17Z</time>
      </trkpt>
      <trkpt lat="43.01907" lon="0.20428">
        <ele>1273.6</ele>
        <time>2023-11-19T14:37:18Z</time>
      </trkpt>
      <trkpt lat="43.01908" lon="0.20426">
        <ele>1273.5</ele>
        <time>2023-11-19T14:37:19Z</time>
      </trkpt>
      <trkpt lat="43.01907" lon="0.20425">
        <ele>1273.4</ele>
        <time>2023-11-19T14:37:20Z</time>
      </trkpt>
      <trkpt lat="43.01908" lon="0.20422">
        <ele>1273.1</ele>
        <time>2023-11-19T14:37:21Z</time>
      </trkpt>
      <trkpt lat="43.01908" lon="0.20421">
        <ele>1273</ele>
        <time>2023-11-19T14:37:22Z</time>
      </trkpt>
      <trkpt lat="43.01909" lon="0.2042">
        <ele>1272.9</ele>
        <time>2023-11-19T14:37:23Z</time>
      </trkpt>
      <trkpt lat="43.01909" lon="0.20418">
        <ele>1272.8</ele>
        <time>2023-11-19T14:37:24Z</time>
      </trkpt>
      <trkpt lat="43.01909" lon="0.20416">
        <ele>1272.7</ele>
        <time>2023-11-19T14:37:25Z</time>
      </trkpt>
      <trkpt lat="43.01909" lon="0.20415">
        <ele>1272.5</ele>
        <time>2023-11-19T14:37:26Z</time>
      </trkpt>
      <trkpt lat="43.0191" lon="0.20414">
        <ele>1272.4</ele>
        <time>2023-11-19T14:37:27Z</time>
      </trkpt>
      <trkpt lat="43.0191" lon="0.20412">
        <ele>1272.3</ele>
        <time>2023-11-19T14:37:28Z</time>
      </trkpt>
      <trkpt lat="43.0191" lon="0.20412">
        <ele>1272.2</ele>
        <time>2023-11-19T14:37:29Z</time>
      </trkpt>
      <trkpt lat="43.0191" lon="0.2041">
        <ele>1272.1</ele>
        <time>2023-11-19T14:37:30Z</time>
      </trkpt>
      <trkpt lat="43.0191" lon="0.20409">
        <ele>1272</ele>
        <time>2023-11-19T14:37:31Z</time>
      </trkpt>
      <trkpt lat="43.01911" lon="0.20407">
        <ele>1271.9</ele>
        <time>2023-11-19T14:37:32Z</time>
      </trkpt>
      <trkpt lat="43.01911" lon="0.20404">
        <ele>1271.6</ele>
        <time>2023-11-19T14:37:33Z</time>
      </trkpt>
      <trkpt lat="43.01912" lon="0.20403">
        <ele>1271.5</ele>
        <time>2023-11-19T14:37:34Z</time>
      </trkpt>
      <trkpt lat="43.01912" lon="0.20402">
        <ele>1271.4</ele>
        <time>2023-11-19T14:37:35Z</time>
      </trkpt>
      <trkpt lat="43.01912" lon="0.20401">
        <ele>1271.3</ele>
        <time>2023-11-19T14:37:36Z</time>
      </trkpt>
      <trkpt lat="43.01913" lon="0.204">
        <ele>1271.2</ele>
        <time>2023-11-19T14:37:37Z</time>
      </trkpt>
      <trkpt lat="43.01913" lon="0.20398">
        <ele>1271</ele>
        <time>2023-11-19T14:37:38Z</time>
      </trkpt>
      <trkpt lat="43.01914" lon="0.20396">
        <ele>1270.9</ele>
        <time>2023-11-19T14:37:39Z</time>
      </trkpt>
      <trkpt lat="43.01914" lon="0.20395">
        <ele>1270.8</ele>
        <time>2023-11-19T14:37:40Z</time>
      </trkpt>
      <trkpt lat="43.01915" lon="0.20393">
        <ele>1270.6</ele>
        <time>2023-11-19T14:37:41Z</time>
      </trkpt>
      <trkpt lat="43.01915" lon="0.20391">
        <ele>1270.3</ele>
        <time>2023-11-19T14:37:43Z</time>
      </trkpt>
      <trkpt lat="43.01915" lon="0.2039">
        <ele>1270.2</ele>
        <time>2023-11-19T14:37:44Z</time>
      </trkpt>
      <trkpt lat="43.01915" lon="0.20389">
        <ele>1270.1</ele>
        <time>2023-11-19T14:37:45Z</time>
      </trkpt>
      <trkpt lat="43.01916" lon="0.20387">
        <ele>1270</ele>
        <time>2023-11-19T14:37:46Z</time>
      </trkpt>
      <trkpt lat="43.01917" lon="0.20384">
        <ele>1269.7</ele>
        <time>2023-11-19T14:37:47Z</time>
      </trkpt>
      <trkpt lat="43.01918" lon="0.20381">
        <ele>1269.4</ele>
        <time>2023-11-19T14:37:49Z</time>
      </trkpt>
      <trkpt lat="43.01919" lon="0.2038">
        <ele>1269.2</ele>
        <time>2023-11-19T14:37:50Z</time>
      </trkpt>
      <trkpt lat="43.01919" lon="0.20377">
        <ele>1269</ele>
        <time>2023-11-19T14:37:51Z</time>
      </trkpt>
      <trkpt lat="43.01921" lon="0.20375">
        <ele>1268.7</ele>
        <time>2023-11-19T14:37:53Z</time>
      </trkpt>
      <trkpt lat="43.01921" lon="0.20373">
        <ele>1268.5</ele>
        <time>2023-11-19T14:37:54Z</time>
      </trkpt>
      <trkpt lat="43.01922" lon="0.2037">
        <ele>1268.2</ele>
        <time>2023-11-19T14:37:56Z</time>
      </trkpt>
      <trkpt lat="43.01923" lon="0.20369">
        <ele>1268</ele>
        <time>2023-11-19T14:37:57Z</time>
      </trkpt>
      <trkpt lat="43.01923" lon="0.20367">
        <ele>1267.8</ele>
        <time>2023-11-19T14:37:58Z</time>
      </trkpt>
      <trkpt lat="43.01924" lon="0.20365">
        <ele>1267.6</ele>
        <time>2023-11-19T14:37:59Z</time>
      </trkpt>
      <trkpt lat="43.01925" lon="0.20363">
        <ele>1267.3</ele>
        <time>2023-11-19T14:38:00Z</time>
      </trkpt>
      <trkpt lat="43.01925" lon="0.20362">
        <ele>1267.2</ele>
        <time>2023-11-19T14:38:01Z</time>
      </trkpt>
      <trkpt lat="43.01926" lon="0.2036">
        <ele>1267.1</ele>
        <time>2023-11-19T14:38:02Z</time>
      </trkpt>
      <trkpt lat="43.01927" lon="0.20358">
        <ele>1266.7</ele>
        <time>2023-11-19T14:38:03Z</time>
      </trkpt>
      <trkpt lat="43.01928" lon="0.20357">
        <ele>1266.6</ele>
        <time>2023-11-19T14:38:04Z</time>
      </trkpt>
      <trkpt lat="43.01928" lon="0.20356">
        <ele>1266.5</ele>
        <time>2023-11-19T14:38:05Z</time>
      </trkpt>
      <trkpt lat="43.01929" lon="0.20353">
        <ele>1266.2</ele>
        <time>2023-11-19T14:38:06Z</time>
      </trkpt>
      <trkpt lat="43.0193" lon="0.20352">
        <ele>1266</ele>
        <time>2023-11-19T14:38:07Z</time>
      </trkpt>
      <trkpt lat="43.0193" lon="0.20351">
        <ele>1265.9</ele>
        <time>2023-11-19T14:38:08Z</time>
      </trkpt>
      <trkpt lat="43.01931" lon="0.20348">
        <ele>1265.6</ele>
        <time>2023-11-19T14:38:09Z</time>
      </trkpt>
      <trkpt lat="43.01932" lon="0.20347">
        <ele>1265.4</ele>
        <time>2023-11-19T14:38:10Z</time>
      </trkpt>
      <trkpt lat="43.01932" lon="0.20346">
        <ele>1265.3</ele>
        <time>2023-11-19T14:38:11Z</time>
      </trkpt>
      <trkpt lat="43.01932" lon="0.20345">
        <ele>1265.2</ele>
        <time>2023-11-19T14:38:12Z</time>
      </trkpt>
      <trkpt lat="43.01933" lon="0.20343">
        <ele>1265</ele>
        <time>2023-11-19T14:38:13Z</time>
      </trkpt>
      <trkpt lat="43.01934" lon="0.20342">
        <ele>1264.8</ele>
        <time>2023-11-19T14:38:14Z</time>
      </trkpt>
      <trkpt lat="43.01935" lon="0.2034">
        <ele>1264.6</ele>
        <time>2023-11-19T14:38:15Z</time>
      </trkpt>
      <trkpt lat="43.01936" lon="0.20339">
        <ele>1264.4</ele>
        <time>2023-11-19T14:38:16Z</time>
      </trkpt>
      <trkpt lat="43.01936" lon="0.20337">
        <ele>1264.3</ele>
        <time>2023-11-19T14:38:17Z</time>
      </trkpt>
      <trkpt lat="43.01937" lon="0.20336">
        <ele>1264.1</ele>
        <time>2023-11-19T14:38:18Z</time>
      </trkpt>
      <trkpt lat="43.01937" lon="0.20335">
        <ele>1264</ele>
        <time>2023-11-19T14:38:19Z</time>
      </trkpt>
      <trkpt lat="43.01938" lon="0.20334">
        <ele>1263.8</ele>
        <time>2023-11-19T14:38:20Z</time>
      </trkpt>
      <trkpt lat="43.01939" lon="0.20333">
        <ele>1263.6</ele>
        <time>2023-11-19T14:38:21Z</time>
      </trkpt>
      <trkpt lat="43.0194" lon="0.20332">
        <ele>1263.5</ele>
        <time>2023-11-19T14:38:22Z</time>
      </trkpt>
      <trkpt lat="43.01941" lon="0.20331">
        <ele>1263.3</ele>
        <time>2023-11-19T14:38:23Z</time>
      </trkpt>
      <trkpt lat="43.01941" lon="0.2033">
        <ele>1263.2</ele>
        <time>2023-11-19T14:38:24Z</time>
      </trkpt>
      <trkpt lat="43.01943" lon="0.20327">
        <ele>1262.9</ele>
        <time>2023-11-19T14:38:25Z</time>
      </trkpt>
      <trkpt lat="43.01943" lon="0.20326">
        <ele>1262.8</ele>
        <time>2023-11-19T14:38:26Z</time>
      </trkpt>
      <trkpt lat="43.01944" lon="0.20326">
        <ele>1262.7</ele>
        <time>2023-11-19T14:38:27Z</time>
      </trkpt>
      <trkpt lat="43.01945" lon="0.20324">
        <ele>1262.5</ele>
        <time>2023-11-19T14:38:28Z</time>
      </trkpt>
      <trkpt lat="43.01945" lon="0.20323">
        <ele>1262.3</ele>
        <time>2023-11-19T14:38:29Z</time>
      </trkpt>
      <trkpt lat="43.01945" lon="0.20322">
        <ele>1262.2</ele>
        <time>2023-11-19T14:38:30Z</time>
      </trkpt>
      <trkpt lat="43.01946" lon="0.2032">
        <ele>1262</ele>
        <time>2023-11-19T14:38:31Z</time>
      </trkpt>
      <trkpt lat="43.01948" lon="0.2032">
        <ele>1261.7</ele>
        <time>2023-11-19T14:38:32Z</time>
      </trkpt>
      <trkpt lat="43.0195" lon="0.20319">
        <ele>1261.5</ele>
        <time>2023-11-19T14:38:33Z</time>
      </trkpt>
      <trkpt lat="43.0195" lon="0.20317">
        <ele>1261.3</ele>
        <time>2023-11-19T14:38:34Z</time>
      </trkpt>
      <trkpt lat="43.01951" lon="0.20316">
        <ele>1261.1</ele>
        <time>2023-11-19T14:38:35Z</time>
      </trkpt>
      <trkpt lat="43.01952" lon="0.20316">
        <ele>1260.9</ele>
        <time>2023-11-19T14:38:36Z</time>
      </trkpt>
      <trkpt lat="43.01953" lon="0.20315">
        <ele>1260.8</ele>
        <time>2023-11-19T14:38:37Z</time>
      </trkpt>
      <trkpt lat="43.01954" lon="0.20314">
        <ele>1260.6</ele>
        <time>2023-11-19T14:38:38Z</time>
      </trkpt>
      <trkpt lat="43.01956" lon="0.20313">
        <ele>1260.3</ele>
        <time>2023-11-19T14:38:39Z</time>
      </trkpt>
      <trkpt lat="43.01957" lon="0.20311">
        <ele>1260</ele>
        <time>2023-11-19T14:38:40Z</time>
      </trkpt>
      <trkpt lat="43.01958" lon="0.2031">
        <ele>1259.9</ele>
        <time>2023-11-19T14:38:41Z</time>
      </trkpt>
      <trkpt lat="43.01959" lon="0.20309">
        <ele>1259.7</ele>
        <time>2023-11-19T14:38:42Z</time>
      </trkpt>
      <trkpt lat="43.01959" lon="0.20308">
        <ele>1259.6</ele>
        <time>2023-11-19T14:38:43Z</time>
      </trkpt>
      <trkpt lat="43.0196" lon="0.20307">
        <ele>1259.3</ele>
        <time>2023-11-19T14:38:44Z</time>
      </trkpt>
      <trkpt lat="43.01961" lon="0.20306">
        <ele>1259.2</ele>
        <time>2023-11-19T14:38:45Z</time>
      </trkpt>
      <trkpt lat="43.01961" lon="0.20305">
        <ele>1259.1</ele>
        <time>2023-11-19T14:38:46Z</time>
      </trkpt>
      <trkpt lat="43.01962" lon="0.20304">
        <ele>1258.9</ele>
        <time>2023-11-19T14:38:47Z</time>
      </trkpt>
      <trkpt lat="43.01963" lon="0.20303">
        <ele>1258.7</ele>
        <time>2023-11-19T14:38:48Z</time>
      </trkpt>
      <trkpt lat="43.01964" lon="0.20302">
        <ele>1258.5</ele>
        <time>2023-11-19T14:38:49Z</time>
      </trkpt>
      <trkpt lat="43.01965" lon="0.20302">
        <ele>1258.4</ele>
        <time>2023-11-19T14:38:50Z</time>
      </trkpt>
      <trkpt lat="43.01966" lon="0.20301">
        <ele>1258.1</ele>
        <time>2023-11-19T14:38:51Z</time>
      </trkpt>
      <trkpt lat="43.01967" lon="0.20301">
        <ele>1258</ele>
        <time>2023-11-19T14:38:52Z</time>
      </trkpt>
      <trkpt lat="43.01966" lon="0.20301">
        <ele>1257.9</ele>
        <time>2023-11-19T14:38:53Z</time>
      </trkpt>
      <trkpt lat="43.01967" lon="0.20301">
        <ele>1257.9</ele>
        <time>2023-11-19T14:38:54Z</time>
      </trkpt>
      <trkpt lat="43.01967" lon="0.20301">
        <ele>1257.8</ele>
        <time>2023-11-19T14:38:55Z</time>
      </trkpt>
      <trkpt lat="43.01967" lon="0.203">
        <ele>1257.7</ele>
        <time>2023-11-19T14:38:56Z</time>
      </trkpt>
      <trkpt lat="43.01968" lon="0.203">
        <ele>1257.5</ele>
        <time>2023-11-19T14:38:57Z</time>
      </trkpt>
      <trkpt lat="43.01969" lon="0.20299">
        <ele>1257.3</ele>
        <time>2023-11-19T14:38:58Z</time>
      </trkpt>
      <trkpt lat="43.01969" lon="0.20298">
        <ele>1257.1</ele>
        <time>2023-11-19T14:38:59Z</time>
      </trkpt>
      <trkpt lat="43.01971" lon="0.20298">
        <ele>1256.9</ele>
        <time>2023-11-19T14:39:00Z</time>
      </trkpt>
      <trkpt lat="43.01972" lon="0.20298">
        <ele>1256.6</ele>
        <time>2023-11-19T14:39:01Z</time>
      </trkpt>
      <trkpt lat="43.01973" lon="0.20297">
        <ele>1256.3</ele>
        <time>2023-11-19T14:39:02Z</time>
      </trkpt>
      <trkpt lat="43.01974" lon="0.20297">
        <ele>1256</ele>
        <time>2023-11-19T14:39:03Z</time>
      </trkpt>
      <trkpt lat="43.01976" lon="0.20298">
        <ele>1255.6</ele>
        <time>2023-11-19T14:39:04Z</time>
      </trkpt>
      <trkpt lat="43.01977" lon="0.20298">
        <ele>1255.4</ele>
        <time>2023-11-19T14:39:05Z</time>
      </trkpt>
      <trkpt lat="43.01979" lon="0.20299">
        <ele>1255.1</ele>
        <time>2023-11-19T14:39:06Z</time>
      </trkpt>
      <trkpt lat="43.0198" lon="0.203">
        <ele>1254.8</ele>
        <time>2023-11-19T14:39:07Z</time>
      </trkpt>
      <trkpt lat="43.01979" lon="0.203">
        <ele>1254.8</ele>
        <time>2023-11-19T14:39:08Z</time>
      </trkpt>
      <trkpt lat="43.01979" lon="0.20299">
        <ele>1254.7</ele>
        <time>2023-11-19T14:39:09Z</time>
      </trkpt>
      <trkpt lat="43.01979" lon="0.20299">
        <ele>1254.6</ele>
        <time>2023-11-19T14:39:10Z</time>
      </trkpt>
      <trkpt lat="43.0198" lon="0.20298">
        <ele>1254.4</ele>
        <time>2023-11-19T14:39:11Z</time>
      </trkpt>
      <trkpt lat="43.0198" lon="0.20298">
        <ele>1254.2</ele>
        <time>2023-11-19T14:39:12Z</time>
      </trkpt>
      <trkpt lat="43.01981" lon="0.20297">
        <ele>1254</ele>
        <time>2023-11-19T14:39:13Z</time>
      </trkpt>
      <trkpt lat="43.01982" lon="0.20296">
        <ele>1253.8</ele>
        <time>2023-11-19T14:39:14Z</time>
      </trkpt>
      <trkpt lat="43.01983" lon="0.20296">
        <ele>1253.5</ele>
        <time>2023-11-19T14:39:15Z</time>
      </trkpt>
      <trkpt lat="43.01984" lon="0.20295">
        <ele>1253.3</ele>
        <time>2023-11-19T14:39:16Z</time>
      </trkpt>
      <trkpt lat="43.01985" lon="0.20294">
        <ele>1253.1</ele>
        <time>2023-11-19T14:39:17Z</time>
      </trkpt>
      <trkpt lat="43.01986" lon="0.20294">
        <ele>1252.9</ele>
        <time>2023-11-19T14:39:18Z</time>
      </trkpt>
      <trkpt lat="43.01987" lon="0.20293">
        <ele>1252.7</ele>
        <time>2023-11-19T14:39:19Z</time>
      </trkpt>
      <trkpt lat="43.01988" lon="0.20292">
        <ele>1252.4</ele>
        <time>2023-11-19T14:39:20Z</time>
      </trkpt>
      <trkpt lat="43.01989" lon="0.20291">
        <ele>1252</ele>
        <time>2023-11-19T14:39:21Z</time>
      </trkpt>
      <trkpt lat="43.0199" lon="0.20291">
        <ele>1251.8</ele>
        <time>2023-11-19T14:39:22Z</time>
      </trkpt>
      <trkpt lat="43.01991" lon="0.2029">
        <ele>1251.6</ele>
        <time>2023-11-19T14:39:23Z</time>
      </trkpt>
      <trkpt lat="43.01993" lon="0.20288">
        <ele>1251.2</ele>
        <time>2023-11-19T14:39:24Z</time>
      </trkpt>
      <trkpt lat="43.01993" lon="0.20287">
        <ele>1251</ele>
        <time>2023-11-19T14:39:25Z</time>
      </trkpt>
      <trkpt lat="43.01994" lon="0.20287">
        <ele>1250.8</ele>
        <time>2023-11-19T14:39:26Z</time>
      </trkpt>
      <trkpt lat="43.01995" lon="0.20284">
        <ele>1250.3</ele>
        <time>2023-11-19T14:39:27Z</time>
      </trkpt>
      <trkpt lat="43.01996" lon="0.20283">
        <ele>1250.2</ele>
        <time>2023-11-19T14:39:28Z</time>
      </trkpt>
      <trkpt lat="43.01996" lon="0.20282">
        <ele>1250</ele>
        <time>2023-11-19T14:39:29Z</time>
      </trkpt>
      <trkpt lat="43.01998" lon="0.2028">
        <ele>1249.6</ele>
        <time>2023-11-19T14:39:30Z</time>
      </trkpt>
      <trkpt lat="43.01998" lon="0.2028">
        <ele>1249.5</ele>
        <time>2023-11-19T14:39:31Z</time>
      </trkpt>
      <trkpt lat="43.01998" lon="0.20279">
        <ele>1249.4</ele>
        <time>2023-11-19T14:39:32Z</time>
      </trkpt>
      <trkpt lat="43.01999" lon="0.20277">
        <ele>1249</ele>
        <time>2023-11-19T14:39:33Z</time>
      </trkpt>
      <trkpt lat="43.01999" lon="0.20276">
        <ele>1248.9</ele>
        <time>2023-11-19T14:39:34Z</time>
      </trkpt>
      <trkpt lat="43.01999" lon="0.20275">
        <ele>1248.8</ele>
        <time>2023-11-19T14:39:35Z</time>
      </trkpt>
      <trkpt lat="43.02" lon="0.20275">
        <ele>1248.7</ele>
        <time>2023-11-19T14:39:36Z</time>
      </trkpt>
      <trkpt lat="43.02" lon="0.20274">
        <ele>1248.6</ele>
        <time>2023-11-19T14:39:37Z</time>
      </trkpt>
      <trkpt lat="43.02001" lon="0.20272">
        <ele>1248.4</ele>
        <time>2023-11-19T14:39:38Z</time>
      </trkpt>
      <trkpt lat="43.02001" lon="0.20272">
        <ele>1248.3</ele>
        <time>2023-11-19T14:39:39Z</time>
      </trkpt>
      <trkpt lat="43.02001" lon="0.20271">
        <ele>1248.1</ele>
        <time>2023-11-19T14:39:40Z</time>
      </trkpt>
      <trkpt lat="43.02001" lon="0.20269">
        <ele>1247.9</ele>
        <time>2023-11-19T14:39:41Z</time>
      </trkpt>
      <trkpt lat="43.02002" lon="0.20268">
        <ele>1247.7</ele>
        <time>2023-11-19T14:39:42Z</time>
      </trkpt>
      <trkpt lat="43.02002" lon="0.20266">
        <ele>1247.5</ele>
        <time>2023-11-19T14:39:43Z</time>
      </trkpt>
      <trkpt lat="43.02002" lon="0.20266">
        <ele>1247.5</ele>
        <time>2023-11-19T14:39:44Z</time>
      </trkpt>
      <trkpt lat="43.02002" lon="0.20262">
        <ele>1247</ele>
        <time>2023-11-19T14:39:45Z</time>
      </trkpt>
      <trkpt lat="43.02002" lon="0.20261">
        <ele>1246.9</ele>
        <time>2023-11-19T14:39:46Z</time>
      </trkpt>
      <trkpt lat="43.02004" lon="0.2026">
        <ele>1246.6</ele>
        <time>2023-11-19T14:39:47Z</time>
      </trkpt>
      <trkpt lat="43.02004" lon="0.20259">
        <ele>1246.5</ele>
        <time>2023-11-19T14:39:48Z</time>
      </trkpt>
      <trkpt lat="43.02004" lon="0.20256">
        <ele>1246.1</ele>
        <time>2023-11-19T14:39:49Z</time>
      </trkpt>
      <trkpt lat="43.02004" lon="0.20255">
        <ele>1246</ele>
        <time>2023-11-19T14:39:50Z</time>
      </trkpt>
      <trkpt lat="43.02004" lon="0.20253">
        <ele>1245.8</ele>
        <time>2023-11-19T14:39:51Z</time>
      </trkpt>
      <trkpt lat="43.02004" lon="0.20251">
        <ele>1245.6</ele>
        <time>2023-11-19T14:39:52Z</time>
      </trkpt>
      <trkpt lat="43.02004" lon="0.2025">
        <ele>1245.4</ele>
        <time>2023-11-19T14:39:53Z</time>
      </trkpt>
      <trkpt lat="43.02004" lon="0.20249">
        <ele>1245.3</ele>
        <time>2023-11-19T14:39:54Z</time>
      </trkpt>
      <trkpt lat="43.02004" lon="0.20246">
        <ele>1245</ele>
        <time>2023-11-19T14:39:55Z</time>
      </trkpt>
      <trkpt lat="43.02005" lon="0.20245">
        <ele>1244.8</ele>
        <time>2023-11-19T14:39:56Z</time>
      </trkpt>
      <trkpt lat="43.02005" lon="0.20241">
        <ele>1244.4</ele>
        <time>2023-11-19T14:39:57Z</time>
      </trkpt>
      <trkpt lat="43.02004" lon="0.2024">
        <ele>1244.3</ele>
        <time>2023-11-19T14:39:58Z</time>
      </trkpt>
      <trkpt lat="43.02004" lon="0.20238">
        <ele>1244.1</ele>
        <time>2023-11-19T14:39:59Z</time>
      </trkpt>
      <trkpt lat="43.02003" lon="0.20236">
        <ele>1243.9</ele>
        <time>2023-11-19T14:40:00Z</time>
      </trkpt>
      <trkpt lat="43.02003" lon="0.20234">
        <ele>1243.7</ele>
        <time>2023-11-19T14:40:01Z</time>
      </trkpt>
      <trkpt lat="43.02003" lon="0.20232">
        <ele>1243.5</ele>
        <time>2023-11-19T14:40:02Z</time>
      </trkpt>
      <trkpt lat="43.02004" lon="0.20229">
        <ele>1243.3</ele>
        <time>2023-11-19T14:40:03Z</time>
      </trkpt>
      <trkpt lat="43.02004" lon="0.20228">
        <ele>1243.1</ele>
        <time>2023-11-19T14:40:04Z</time>
      </trkpt>
      <trkpt lat="43.02004" lon="0.20227">
        <ele>1243</ele>
        <time>2023-11-19T14:40:05Z</time>
      </trkpt>
      <trkpt lat="43.02004" lon="0.20225">
        <ele>1242.9</ele>
        <time>2023-11-19T14:40:06Z</time>
      </trkpt>
      <trkpt lat="43.02003" lon="0.20223">
        <ele>1242.6</ele>
        <time>2023-11-19T14:40:07Z</time>
      </trkpt>
      <trkpt lat="43.02003" lon="0.2022">
        <ele>1242.4</ele>
        <time>2023-11-19T14:40:08Z</time>
      </trkpt>
      <trkpt lat="43.02003" lon="0.20219">
        <ele>1242.3</ele>
        <time>2023-11-19T14:40:09Z</time>
      </trkpt>
      <trkpt lat="43.02002" lon="0.20218">
        <ele>1242.2</ele>
        <time>2023-11-19T14:40:10Z</time>
      </trkpt>
      <trkpt lat="43.02003" lon="0.20215">
        <ele>1241.9</ele>
        <time>2023-11-19T14:40:11Z</time>
      </trkpt>
      <trkpt lat="43.02002" lon="0.20214">
        <ele>1241.9</ele>
        <time>2023-11-19T14:40:12Z</time>
      </trkpt>
      <trkpt lat="43.02002" lon="0.20213">
        <ele>1241.7</ele>
        <time>2023-11-19T14:40:13Z</time>
      </trkpt>
      <trkpt lat="43.02002" lon="0.20211">
        <ele>1241.6</ele>
        <time>2023-11-19T14:40:14Z</time>
      </trkpt>
      <trkpt lat="43.02001" lon="0.20209">
        <ele>1241.4</ele>
        <time>2023-11-19T14:40:15Z</time>
      </trkpt>
      <trkpt lat="43.02" lon="0.20207">
        <ele>1241.2</ele>
        <time>2023-11-19T14:40:16Z</time>
      </trkpt>
      <trkpt lat="43.02" lon="0.20206">
        <ele>1241.1</ele>
        <time>2023-11-19T14:40:17Z</time>
      </trkpt>
      <trkpt lat="43.01999" lon="0.20205">
        <ele>1241</ele>
        <time>2023-11-19T14:40:18Z</time>
      </trkpt>
      <trkpt lat="43.01999" lon="0.20203">
        <ele>1240.9</ele>
        <time>2023-11-19T14:40:19Z</time>
      </trkpt>
      <trkpt lat="43.01999" lon="0.20201">
        <ele>1240.7</ele>
        <time>2023-11-19T14:40:20Z</time>
      </trkpt>
      <trkpt lat="43.02" lon="0.20198">
        <ele>1240.5</ele>
        <time>2023-11-19T14:40:21Z</time>
      </trkpt>
      <trkpt lat="43.02" lon="0.20198">
        <ele>1240.5</ele>
        <time>2023-11-19T14:40:22Z</time>
      </trkpt>
      <trkpt lat="43.02" lon="0.20196">
        <ele>1240.4</ele>
        <time>2023-11-19T14:40:23Z</time>
      </trkpt>
      <trkpt lat="43.02001" lon="0.20194">
        <ele>1240.2</ele>
        <time>2023-11-19T14:40:24Z</time>
      </trkpt>
      <trkpt lat="43.02001" lon="0.20193">
        <ele>1240.1</ele>
        <time>2023-11-19T14:40:25Z</time>
      </trkpt>
      <trkpt lat="43.02001" lon="0.2019">
        <ele>1239.9</ele>
        <time>2023-11-19T14:40:26Z</time>
      </trkpt>
      <trkpt lat="43.02" lon="0.20189">
        <ele>1239.8</ele>
        <time>2023-11-19T14:40:27Z</time>
      </trkpt>
      <trkpt lat="43.01999" lon="0.20189">
        <ele>1239.6</ele>
        <time>2023-11-19T14:40:28Z</time>
      </trkpt>
      <trkpt lat="43.01999" lon="0.20186">
        <ele>1239.4</ele>
        <time>2023-11-19T14:40:29Z</time>
      </trkpt>
      <trkpt lat="43.01999" lon="0.20185">
        <ele>1239.3</ele>
        <time>2023-11-19T14:40:30Z</time>
      </trkpt>
      <trkpt lat="43.01999" lon="0.20184">
        <ele>1239.2</ele>
        <time>2023-11-19T14:40:31Z</time>
      </trkpt>
      <trkpt lat="43.01999" lon="0.20182">
        <ele>1239.1</ele>
        <time>2023-11-19T14:40:32Z</time>
      </trkpt>
      <trkpt lat="43.02" lon="0.20181">
        <ele>1239</ele>
        <time>2023-11-19T14:40:33Z</time>
      </trkpt>
      <trkpt lat="43.02" lon="0.2018">
        <ele>1238.9</ele>
        <time>2023-11-19T14:40:34Z</time>
      </trkpt>
      <trkpt lat="43.02" lon="0.20178">
        <ele>1238.8</ele>
        <time>2023-11-19T14:40:35Z</time>
      </trkpt>
      <trkpt lat="43.02001" lon="0.20177">
        <ele>1238.7</ele>
        <time>2023-11-19T14:40:36Z</time>
      </trkpt>
      <trkpt lat="43.02001" lon="0.20176">
        <ele>1238.5</ele>
        <time>2023-11-19T14:40:37Z</time>
      </trkpt>
      <trkpt lat="43.02002" lon="0.20174">
        <ele>1238.4</ele>
        <time>2023-11-19T14:40:38Z</time>
      </trkpt>
      <trkpt lat="43.02002" lon="0.20173">
        <ele>1238.2</ele>
        <time>2023-11-19T14:40:39Z</time>
      </trkpt>
      <trkpt lat="43.02002" lon="0.20171">
        <ele>1238.1</ele>
        <time>2023-11-19T14:40:40Z</time>
      </trkpt>
      <trkpt lat="43.02002" lon="0.2017">
        <ele>1237.9</ele>
        <time>2023-11-19T14:40:41Z</time>
      </trkpt>
      <trkpt lat="43.02003" lon="0.20168">
        <ele>1237.7</ele>
        <time>2023-11-19T14:40:42Z</time>
      </trkpt>
      <trkpt lat="43.02004" lon="0.20167">
        <ele>1237.5</ele>
        <time>2023-11-19T14:40:43Z</time>
      </trkpt>
      <trkpt lat="43.02005" lon="0.20165">
        <ele>1237.3</ele>
        <time>2023-11-19T14:40:44Z</time>
      </trkpt>
      <trkpt lat="43.02006" lon="0.20164">
        <ele>1237.1</ele>
        <time>2023-11-19T14:40:45Z</time>
      </trkpt>
      <trkpt lat="43.02007" lon="0.20163">
        <ele>1236.9</ele>
        <time>2023-11-19T14:40:46Z</time>
      </trkpt>
      <trkpt lat="43.02008" lon="0.20161">
        <ele>1236.8</ele>
        <time>2023-11-19T14:40:47Z</time>
      </trkpt>
      <trkpt lat="43.02007" lon="0.2016">
        <ele>1236.6</ele>
        <time>2023-11-19T14:40:48Z</time>
      </trkpt>
      <trkpt lat="43.02008" lon="0.20158">
        <ele>1236.3</ele>
        <time>2023-11-19T14:40:49Z</time>
      </trkpt>
      <trkpt lat="43.02008" lon="0.20157">
        <ele>1236.2</ele>
        <time>2023-11-19T14:40:50Z</time>
      </trkpt>
      <trkpt lat="43.02008" lon="0.20156">
        <ele>1236.1</ele>
        <time>2023-11-19T14:40:51Z</time>
      </trkpt>
      <trkpt lat="43.02008" lon="0.20154">
        <ele>1235.9</ele>
        <time>2023-11-19T14:40:52Z</time>
      </trkpt>
      <trkpt lat="43.02008" lon="0.20153">
        <ele>1235.8</ele>
        <time>2023-11-19T14:40:53Z</time>
      </trkpt>
      <trkpt lat="43.02008" lon="0.20151">
        <ele>1235.5</ele>
        <time>2023-11-19T14:40:54Z</time>
      </trkpt>
      <trkpt lat="43.02009" lon="0.2015">
        <ele>1235.3</ele>
        <time>2023-11-19T14:40:55Z</time>
      </trkpt>
      <trkpt lat="43.02009" lon="0.20148">
        <ele>1235.1</ele>
        <time>2023-11-19T14:40:56Z</time>
      </trkpt>
      <trkpt lat="43.02009" lon="0.20147">
        <ele>1235</ele>
        <time>2023-11-19T14:40:57Z</time>
      </trkpt>
      <trkpt lat="43.02009" lon="0.20145">
        <ele>1234.8</ele>
        <time>2023-11-19T14:40:58Z</time>
      </trkpt>
      <trkpt lat="43.02009" lon="0.20143">
        <ele>1234.5</ele>
        <time>2023-11-19T14:40:59Z</time>
      </trkpt>
      <trkpt lat="43.02009" lon="0.20142">
        <ele>1234.3</ele>
        <time>2023-11-19T14:41:00Z</time>
      </trkpt>
      <trkpt lat="43.02009" lon="0.20141">
        <ele>1234.2</ele>
        <time>2023-11-19T14:41:01Z</time>
      </trkpt>
      <trkpt lat="43.02009" lon="0.20139">
        <ele>1234</ele>
        <time>2023-11-19T14:41:02Z</time>
      </trkpt>
      <trkpt lat="43.02009" lon="0.20137">
        <ele>1233.8</ele>
        <time>2023-11-19T14:41:03Z</time>
      </trkpt>
      <trkpt lat="43.0201" lon="0.20136">
        <ele>1233.6</ele>
        <time>2023-11-19T14:41:04Z</time>
      </trkpt>
      <trkpt lat="43.0201" lon="0.20134">
        <ele>1233.4</ele>
        <time>2023-11-19T14:41:05Z</time>
      </trkpt>
      <trkpt lat="43.0201" lon="0.20131">
        <ele>1233.1</ele>
        <time>2023-11-19T14:41:06Z</time>
      </trkpt>
      <trkpt lat="43.0201" lon="0.2013">
        <ele>1232.9</ele>
        <time>2023-11-19T14:41:07Z</time>
      </trkpt>
      <trkpt lat="43.02011" lon="0.20129">
        <ele>1232.8</ele>
        <time>2023-11-19T14:41:08Z</time>
      </trkpt>
      <trkpt lat="43.0201" lon="0.20126">
        <ele>1232.4</ele>
        <time>2023-11-19T14:41:09Z</time>
      </trkpt>
      <trkpt lat="43.0201" lon="0.20124">
        <ele>1232.2</ele>
        <time>2023-11-19T14:41:10Z</time>
      </trkpt>
      <trkpt lat="43.0201" lon="0.20123">
        <ele>1232</ele>
        <time>2023-11-19T14:41:11Z</time>
      </trkpt>
      <trkpt lat="43.02009" lon="0.20121">
        <ele>1231.8</ele>
        <time>2023-11-19T14:41:12Z</time>
      </trkpt>
      <trkpt lat="43.02009" lon="0.20119">
        <ele>1231.6</ele>
        <time>2023-11-19T14:41:13Z</time>
      </trkpt>
      <trkpt lat="43.02009" lon="0.20117">
        <ele>1231.4</ele>
        <time>2023-11-19T14:41:14Z</time>
      </trkpt>
      <trkpt lat="43.02009" lon="0.20116">
        <ele>1231.2</ele>
        <time>2023-11-19T14:41:15Z</time>
      </trkpt>
      <trkpt lat="43.02009" lon="0.20115">
        <ele>1231.1</ele>
        <time>2023-11-19T14:41:16Z</time>
      </trkpt>
      <trkpt lat="43.0201" lon="0.20114">
        <ele>1230.9</ele>
        <time>2023-11-19T14:41:17Z</time>
      </trkpt>
      <trkpt lat="43.0201" lon="0.20112">
        <ele>1230.8</ele>
        <time>2023-11-19T14:41:18Z</time>
      </trkpt>
      <trkpt lat="43.0201" lon="0.20111">
        <ele>1230.6</ele>
        <time>2023-11-19T14:41:19Z</time>
      </trkpt>
      <trkpt lat="43.0201" lon="0.20109">
        <ele>1230.4</ele>
        <time>2023-11-19T14:41:20Z</time>
      </trkpt>
      <trkpt lat="43.0201" lon="0.20108">
        <ele>1230.2</ele>
        <time>2023-11-19T14:41:21Z</time>
      </trkpt>
      <trkpt lat="43.0201" lon="0.20106">
        <ele>1230</ele>
        <time>2023-11-19T14:41:22Z</time>
      </trkpt>
      <trkpt lat="43.0201" lon="0.20105">
        <ele>1229.8</ele>
        <time>2023-11-19T14:41:23Z</time>
      </trkpt>
      <trkpt lat="43.0201" lon="0.20103">
        <ele>1229.7</ele>
        <time>2023-11-19T14:41:24Z</time>
      </trkpt>
      <trkpt lat="43.0201" lon="0.20102">
        <ele>1229.5</ele>
        <time>2023-11-19T14:41:25Z</time>
      </trkpt>
      <trkpt lat="43.0201" lon="0.201">
        <ele>1229.4</ele>
        <time>2023-11-19T14:41:26Z</time>
      </trkpt>
      <trkpt lat="43.0201" lon="0.20099">
        <ele>1229.2</ele>
        <time>2023-11-19T14:41:27Z</time>
      </trkpt>
      <trkpt lat="43.02009" lon="0.20098">
        <ele>1229</ele>
        <time>2023-11-19T14:41:28Z</time>
      </trkpt>
      <trkpt lat="43.02008" lon="0.20097">
        <ele>1228.9</ele>
        <time>2023-11-19T14:41:29Z</time>
      </trkpt>
      <trkpt lat="43.02008" lon="0.20096">
        <ele>1228.7</ele>
        <time>2023-11-19T14:41:30Z</time>
      </trkpt>
      <trkpt lat="43.02008" lon="0.20094">
        <ele>1228.4</ele>
        <time>2023-11-19T14:41:31Z</time>
      </trkpt>
      <trkpt lat="43.02009" lon="0.20092">
        <ele>1228.3</ele>
        <time>2023-11-19T14:41:32Z</time>
      </trkpt>
      <trkpt lat="43.02009" lon="0.20091">
        <ele>1228.1</ele>
        <time>2023-11-19T14:41:33Z</time>
      </trkpt>
      <trkpt lat="43.0201" lon="0.20088">
        <ele>1227.8</ele>
        <time>2023-11-19T14:41:34Z</time>
      </trkpt>
      <trkpt lat="43.0201" lon="0.20087">
        <ele>1227.7</ele>
        <time>2023-11-19T14:41:35Z</time>
      </trkpt>
      <trkpt lat="43.0201" lon="0.20086">
        <ele>1227.6</ele>
        <time>2023-11-19T14:41:36Z</time>
      </trkpt>
      <trkpt lat="43.0201" lon="0.20083">
        <ele>1227.3</ele>
        <time>2023-11-19T14:41:37Z</time>
      </trkpt>
      <trkpt lat="43.0201" lon="0.20082">
        <ele>1227.2</ele>
        <time>2023-11-19T14:41:38Z</time>
      </trkpt>
      <trkpt lat="43.0201" lon="0.20081">
        <ele>1227.1</ele>
        <time>2023-11-19T14:41:39Z</time>
      </trkpt>
      <trkpt lat="43.02009" lon="0.20078">
        <ele>1226.8</ele>
        <time>2023-11-19T14:41:40Z</time>
      </trkpt>
      <trkpt lat="43.02009" lon="0.20077">
        <ele>1226.7</ele>
        <time>2023-11-19T14:41:41Z</time>
      </trkpt>
      <trkpt lat="43.02009" lon="0.20076">
        <ele>1226.6</ele>
        <time>2023-11-19T14:41:42Z</time>
      </trkpt>
      <trkpt lat="43.02009" lon="0.20073">
        <ele>1226.3</ele>
        <time>2023-11-19T14:41:43Z</time>
      </trkpt>
      <trkpt lat="43.02009" lon="0.20072">
        <ele>1226.2</ele>
        <time>2023-11-19T14:41:44Z</time>
      </trkpt>
      <trkpt lat="43.02009" lon="0.20071">
        <ele>1226.2</ele>
        <time>2023-11-19T14:41:45Z</time>
      </trkpt>
      <trkpt lat="43.02009" lon="0.2007">
        <ele>1226.1</ele>
        <time>2023-11-19T14:41:46Z</time>
      </trkpt>
      <trkpt lat="43.02009" lon="0.20068">
        <ele>1225.9</ele>
        <time>2023-11-19T14:41:47Z</time>
      </trkpt>
      <trkpt lat="43.02009" lon="0.20067">
        <ele>1225.8</ele>
        <time>2023-11-19T14:41:48Z</time>
      </trkpt>
      <trkpt lat="43.02009" lon="0.20065">
        <ele>1225.7</ele>
        <time>2023-11-19T14:41:49Z</time>
      </trkpt>
      <trkpt lat="43.02008" lon="0.20064">
        <ele>1225.6</ele>
        <time>2023-11-19T14:41:50Z</time>
      </trkpt>
      <trkpt lat="43.02008" lon="0.20062">
        <ele>1225.4</ele>
        <time>2023-11-19T14:41:51Z</time>
      </trkpt>
      <trkpt lat="43.02009" lon="0.20059">
        <ele>1225.2</ele>
        <time>2023-11-19T14:41:52Z</time>
      </trkpt>
      <trkpt lat="43.02009" lon="0.20058">
        <ele>1225.1</ele>
        <time>2023-11-19T14:41:53Z</time>
      </trkpt>
      <trkpt lat="43.02009" lon="0.20057">
        <ele>1225.1</ele>
        <time>2023-11-19T14:41:54Z</time>
      </trkpt>
      <trkpt lat="43.02008" lon="0.20054">
        <ele>1224.9</ele>
        <time>2023-11-19T14:41:55Z</time>
      </trkpt>
      <trkpt lat="43.02008" lon="0.20053">
        <ele>1224.8</ele>
        <time>2023-11-19T14:41:56Z</time>
      </trkpt>
      <trkpt lat="43.02008" lon="0.20052">
        <ele>1224.7</ele>
        <time>2023-11-19T14:41:57Z</time>
      </trkpt>
      <trkpt lat="43.02008" lon="0.2005">
        <ele>1224.6</ele>
        <time>2023-11-19T14:41:58Z</time>
      </trkpt>
      <trkpt lat="43.02008" lon="0.20048">
        <ele>1224.5</ele>
        <time>2023-11-19T14:41:59Z</time>
      </trkpt>
      <trkpt lat="43.02007" lon="0.20047">
        <ele>1224.4</ele>
        <time>2023-11-19T14:42:00Z</time>
      </trkpt>
      <trkpt lat="43.02007" lon="0.20047">
        <ele>1224.4</ele>
        <time>2023-11-19T14:42:01Z</time>
      </trkpt>
      <trkpt lat="43.02007" lon="0.20047">
        <ele>1224.4</ele>
        <time>2023-11-19T14:42:02Z</time>
      </trkpt>
      <trkpt lat="43.02007" lon="0.20048">
        <ele>1224.4</ele>
        <time>2023-11-19T14:42:03Z</time>
      </trkpt>
      <trkpt lat="43.02007" lon="0.20048">
        <ele>1224.3</ele>
        <time>2023-11-19T14:42:04Z</time>
      </trkpt>
      <trkpt lat="43.02008" lon="0.20048">
        <ele>1224.3</ele>
        <time>2023-11-19T14:42:05Z</time>
      </trkpt>
      <trkpt lat="43.02007" lon="0.20048">
        <ele>1224.3</ele>
        <time>2023-11-19T14:42:06Z</time>
      </trkpt>
      <trkpt lat="43.02007" lon="0.20046">
        <ele>1224.2</ele>
        <time>2023-11-19T14:42:07Z</time>
      </trkpt>
      <trkpt lat="43.02006" lon="0.20045">
        <ele>1224.1</ele>
        <time>2023-11-19T14:42:08Z</time>
      </trkpt>
      <trkpt lat="43.02006" lon="0.20043">
        <ele>1224.1</ele>
        <time>2023-11-19T14:42:09Z</time>
      </trkpt>
      <trkpt lat="43.02006" lon="0.20042">
        <ele>1224</ele>
        <time>2023-11-19T14:42:10Z</time>
      </trkpt>
      <trkpt lat="43.02006" lon="0.2004">
        <ele>1223.9</ele>
        <time>2023-11-19T14:42:11Z</time>
      </trkpt>
      <trkpt lat="43.02005" lon="0.20038">
        <ele>1223.8</ele>
        <time>2023-11-19T14:42:12Z</time>
      </trkpt>
      <trkpt lat="43.02005" lon="0.20037">
        <ele>1223.8</ele>
        <time>2023-11-19T14:42:13Z</time>
      </trkpt>
      <trkpt lat="43.02005" lon="0.20035">
        <ele>1223.7</ele>
        <time>2023-11-19T14:42:14Z</time>
      </trkpt>
      <trkpt lat="43.02005" lon="0.20034">
        <ele>1223.7</ele>
        <time>2023-11-19T14:42:15Z</time>
      </trkpt>
      <trkpt lat="43.02005" lon="0.20032">
        <ele>1223.6</ele>
        <time>2023-11-19T14:42:16Z</time>
      </trkpt>
      <trkpt lat="43.02005" lon="0.20031">
        <ele>1223.6</ele>
        <time>2023-11-19T14:42:17Z</time>
      </trkpt>
      <trkpt lat="43.02004" lon="0.20029">
        <ele>1223.5</ele>
        <time>2023-11-19T14:42:18Z</time>
      </trkpt>
      <trkpt lat="43.02004" lon="0.20027">
        <ele>1223.5</ele>
        <time>2023-11-19T14:42:19Z</time>
      </trkpt>
      <trkpt lat="43.02005" lon="0.20026">
        <ele>1223.4</ele>
        <time>2023-11-19T14:42:20Z</time>
      </trkpt>
      <trkpt lat="43.02005" lon="0.20025">
        <ele>1223.4</ele>
        <time>2023-11-19T14:42:21Z</time>
      </trkpt>
      <trkpt lat="43.02004" lon="0.20024">
        <ele>1223.3</ele>
        <time>2023-11-19T14:42:22Z</time>
      </trkpt>
      <trkpt lat="43.02004" lon="0.20023">
        <ele>1223.3</ele>
        <time>2023-11-19T14:42:23Z</time>
      </trkpt>
      <trkpt lat="43.02004" lon="0.20022">
        <ele>1223.3</ele>
        <time>2023-11-19T14:42:24Z</time>
      </trkpt>
      <trkpt lat="43.02004" lon="0.2002">
        <ele>1223.2</ele>
        <time>2023-11-19T14:42:25Z</time>
      </trkpt>
      <trkpt lat="43.02004" lon="0.20018">
        <ele>1223.2</ele>
        <time>2023-11-19T14:42:26Z</time>
      </trkpt>
      <trkpt lat="43.02004" lon="0.20017">
        <ele>1223.1</ele>
        <time>2023-11-19T14:42:27Z</time>
      </trkpt>
      <trkpt lat="43.02004" lon="0.20016">
        <ele>1223.1</ele>
        <time>2023-11-19T14:42:28Z</time>
      </trkpt>
      <trkpt lat="43.02004" lon="0.20014">
        <ele>1223.1</ele>
        <time>2023-11-19T14:42:29Z</time>
      </trkpt>
      <trkpt lat="43.02004" lon="0.20014">
        <ele>1223.1</ele>
        <time>2023-11-19T14:42:30Z</time>
      </trkpt>
      <trkpt lat="43.02003" lon="0.20013">
        <ele>1223</ele>
        <time>2023-11-19T14:42:31Z</time>
      </trkpt>
      <trkpt lat="43.02003" lon="0.20012">
        <ele>1223</ele>
        <time>2023-11-19T14:42:32Z</time>
      </trkpt>
      <trkpt lat="43.02003" lon="0.2001">
        <ele>1223</ele>
        <time>2023-11-19T14:42:33Z</time>
      </trkpt>
      <trkpt lat="43.02003" lon="0.20009">
        <ele>1222.9</ele>
        <time>2023-11-19T14:42:34Z</time>
      </trkpt>
      <trkpt lat="43.02003" lon="0.20008">
        <ele>1222.9</ele>
        <time>2023-11-19T14:42:35Z</time>
      </trkpt>
      <trkpt lat="43.02003" lon="0.20006">
        <ele>1222.8</ele>
        <time>2023-11-19T14:42:36Z</time>
      </trkpt>
      <trkpt lat="43.02003" lon="0.20005">
        <ele>1222.8</ele>
        <time>2023-11-19T14:42:37Z</time>
      </trkpt>
      <trkpt lat="43.02003" lon="0.20004">
        <ele>1222.8</ele>
        <time>2023-11-19T14:42:38Z</time>
      </trkpt>
      <trkpt lat="43.02003" lon="0.20003">
        <ele>1222.7</ele>
        <time>2023-11-19T14:42:39Z</time>
      </trkpt>
      <trkpt lat="43.02003" lon="0.20001">
        <ele>1222.7</ele>
        <time>2023-11-19T14:42:40Z</time>
      </trkpt>
      <trkpt lat="43.02003" lon="0.2">
        <ele>1222.6</ele>
        <time>2023-11-19T14:42:41Z</time>
      </trkpt>
      <trkpt lat="43.02003" lon="0.19998">
        <ele>1222.6</ele>
        <time>2023-11-19T14:42:42Z</time>
      </trkpt>
      <trkpt lat="43.02003" lon="0.19997">
        <ele>1222.5</ele>
        <time>2023-11-19T14:42:43Z</time>
      </trkpt>
      <trkpt lat="43.02003" lon="0.19995">
        <ele>1222.5</ele>
        <time>2023-11-19T14:42:44Z</time>
      </trkpt>
      <trkpt lat="43.02002" lon="0.19994">
        <ele>1222.4</ele>
        <time>2023-11-19T14:42:45Z</time>
      </trkpt>
      <trkpt lat="43.02002" lon="0.19992">
        <ele>1222.3</ele>
        <time>2023-11-19T14:42:46Z</time>
      </trkpt>
      <trkpt lat="43.02001" lon="0.19991">
        <ele>1222.2</ele>
        <time>2023-11-19T14:42:47Z</time>
      </trkpt>
      <trkpt lat="43.02001" lon="0.19989">
        <ele>1222.2</ele>
        <time>2023-11-19T14:42:48Z</time>
      </trkpt>
      <trkpt lat="43.02002" lon="0.19988">
        <ele>1222.1</ele>
        <time>2023-11-19T14:42:49Z</time>
      </trkpt>
      <trkpt lat="43.02002" lon="0.19987">
        <ele>1222.1</ele>
        <time>2023-11-19T14:42:50Z</time>
      </trkpt>
      <trkpt lat="43.02001" lon="0.19985">
        <ele>1221.9</ele>
        <time>2023-11-19T14:42:51Z</time>
      </trkpt>
      <trkpt lat="43.02002" lon="0.19983">
        <ele>1221.8</ele>
        <time>2023-11-19T14:42:52Z</time>
      </trkpt>
      <trkpt lat="43.02002" lon="0.19982">
        <ele>1221.8</ele>
        <time>2023-11-19T14:42:53Z</time>
      </trkpt>
      <trkpt lat="43.02002" lon="0.19982">
        <ele>1221.7</ele>
        <time>2023-11-19T14:42:54Z</time>
      </trkpt>
      <trkpt lat="43.02002" lon="0.1998">
        <ele>1221.6</ele>
        <time>2023-11-19T14:42:55Z</time>
      </trkpt>
      <trkpt lat="43.02002" lon="0.19979">
        <ele>1221.5</ele>
        <time>2023-11-19T14:42:56Z</time>
      </trkpt>
      <trkpt lat="43.02002" lon="0.19977">
        <ele>1221.4</ele>
        <time>2023-11-19T14:42:57Z</time>
      </trkpt>
      <trkpt lat="43.02002" lon="0.19976">
        <ele>1221.3</ele>
        <time>2023-11-19T14:42:58Z</time>
      </trkpt>
      <trkpt lat="43.02003" lon="0.19975">
        <ele>1221.2</ele>
        <time>2023-11-19T14:42:59Z</time>
      </trkpt>
      <trkpt lat="43.02003" lon="0.19973">
        <ele>1221</ele>
        <time>2023-11-19T14:43:00Z</time>
      </trkpt>
      <trkpt lat="43.02003" lon="0.19972">
        <ele>1220.9</ele>
        <time>2023-11-19T14:43:01Z</time>
      </trkpt>
      <trkpt lat="43.02004" lon="0.1997">
        <ele>1220.7</ele>
        <time>2023-11-19T14:43:02Z</time>
      </trkpt>
      <trkpt lat="43.02003" lon="0.1997">
        <ele>1220.7</ele>
        <time>2023-11-19T14:43:03Z</time>
      </trkpt>
      <trkpt lat="43.02003" lon="0.19967">
        <ele>1220.5</ele>
        <time>2023-11-19T14:43:04Z</time>
      </trkpt>
      <trkpt lat="43.02003" lon="0.19966">
        <ele>1220.3</ele>
        <time>2023-11-19T14:43:05Z</time>
      </trkpt>
      <trkpt lat="43.02003" lon="0.19964">
        <ele>1220.1</ele>
        <time>2023-11-19T14:43:06Z</time>
      </trkpt>
      <trkpt lat="43.02002" lon="0.19962">
        <ele>1219.9</ele>
        <time>2023-11-19T14:43:07Z</time>
      </trkpt>
      <trkpt lat="43.02002" lon="0.19961">
        <ele>1219.8</ele>
        <time>2023-11-19T14:43:08Z</time>
      </trkpt>
      <trkpt lat="43.02002" lon="0.19958">
        <ele>1219.4</ele>
        <time>2023-11-19T14:43:09Z</time>
      </trkpt>
      <trkpt lat="43.02003" lon="0.19957">
        <ele>1219.3</ele>
        <time>2023-11-19T14:43:10Z</time>
      </trkpt>
      <trkpt lat="43.02003" lon="0.19956">
        <ele>1219.2</ele>
        <time>2023-11-19T14:43:11Z</time>
      </trkpt>
      <trkpt lat="43.02002" lon="0.19953">
        <ele>1218.9</ele>
        <time>2023-11-19T14:43:12Z</time>
      </trkpt>
      <trkpt lat="43.02002" lon="0.19952">
        <ele>1218.8</ele>
        <time>2023-11-19T14:43:13Z</time>
      </trkpt>
      <trkpt lat="43.02002" lon="0.19951">
        <ele>1218.7</ele>
        <time>2023-11-19T14:43:14Z</time>
      </trkpt>
      <trkpt lat="43.02002" lon="0.1995">
        <ele>1218.5</ele>
        <time>2023-11-19T14:43:15Z</time>
      </trkpt>
      <trkpt lat="43.02002" lon="0.19948">
        <ele>1218.4</ele>
        <time>2023-11-19T14:43:16Z</time>
      </trkpt>
      <trkpt lat="43.02001" lon="0.19946">
        <ele>1218.1</ele>
        <time>2023-11-19T14:43:17Z</time>
      </trkpt>
      <trkpt lat="43.02001" lon="0.19945">
        <ele>1218</ele>
        <time>2023-11-19T14:43:18Z</time>
      </trkpt>
      <trkpt lat="43.02001" lon="0.19944">
        <ele>1217.9</ele>
        <time>2023-11-19T14:43:19Z</time>
      </trkpt>
      <trkpt lat="43.02001" lon="0.19944">
        <ele>1217.8</ele>
        <time>2023-11-19T14:43:20Z</time>
      </trkpt>
      <trkpt lat="43.02" lon="0.19942">
        <ele>1217.6</ele>
        <time>2023-11-19T14:43:21Z</time>
      </trkpt>
      <trkpt lat="43.02" lon="0.1994">
        <ele>1217.4</ele>
        <time>2023-11-19T14:43:22Z</time>
      </trkpt>
      <trkpt lat="43.02" lon="0.1994">
        <ele>1217.4</ele>
        <time>2023-11-19T14:43:23Z</time>
      </trkpt>
      <trkpt lat="43.02" lon="0.19938">
        <ele>1217.2</ele>
        <time>2023-11-19T14:43:24Z</time>
      </trkpt>
      <trkpt lat="43.02" lon="0.19936">
        <ele>1217</ele>
        <time>2023-11-19T14:43:25Z</time>
      </trkpt>
      <trkpt lat="43.02" lon="0.19935">
        <ele>1216.9</ele>
        <time>2023-11-19T14:43:26Z</time>
      </trkpt>
      <trkpt lat="43.02" lon="0.19933">
        <ele>1216.7</ele>
        <time>2023-11-19T14:43:27Z</time>
      </trkpt>
      <trkpt lat="43.02" lon="0.19932">
        <ele>1216.6</ele>
        <time>2023-11-19T14:43:28Z</time>
      </trkpt>
      <trkpt lat="43.02" lon="0.19931">
        <ele>1216.5</ele>
        <time>2023-11-19T14:43:29Z</time>
      </trkpt>
      <trkpt lat="43.02" lon="0.19929">
        <ele>1216.3</ele>
        <time>2023-11-19T14:43:30Z</time>
      </trkpt>
      <trkpt lat="43.02" lon="0.19928">
        <ele>1216.2</ele>
        <time>2023-11-19T14:43:31Z</time>
      </trkpt>
      <trkpt lat="43.02" lon="0.19927">
        <ele>1216.1</ele>
        <time>2023-11-19T14:43:32Z</time>
      </trkpt>
      <trkpt lat="43.02" lon="0.19926">
        <ele>1216</ele>
        <time>2023-11-19T14:43:33Z</time>
      </trkpt>
      <trkpt lat="43.02" lon="0.19925">
        <ele>1215.9</ele>
        <time>2023-11-19T14:43:34Z</time>
      </trkpt>
      <trkpt lat="43.02" lon="0.19924">
        <ele>1215.8</ele>
        <time>2023-11-19T14:43:35Z</time>
      </trkpt>
      <trkpt lat="43.02" lon="0.19923">
        <ele>1215.8</ele>
        <time>2023-11-19T14:43:36Z</time>
      </trkpt>
      <trkpt lat="43.01999" lon="0.19922">
        <ele>1215.6</ele>
        <time>2023-11-19T14:43:37Z</time>
      </trkpt>
      <trkpt lat="43.01999" lon="0.19921">
        <ele>1215.5</ele>
        <time>2023-11-19T14:43:38Z</time>
      </trkpt>
      <trkpt lat="43.02" lon="0.19919">
        <ele>1215.4</ele>
        <time>2023-11-19T14:43:39Z</time>
      </trkpt>
      <trkpt lat="43.02" lon="0.19918">
        <ele>1215.3</ele>
        <time>2023-11-19T14:43:40Z</time>
      </trkpt>
      <trkpt lat="43.02" lon="0.19917">
        <ele>1215.2</ele>
        <time>2023-11-19T14:43:41Z</time>
      </trkpt>
      <trkpt lat="43.01999" lon="0.19916">
        <ele>1215.1</ele>
        <time>2023-11-19T14:43:42Z</time>
      </trkpt>
      <trkpt lat="43.01999" lon="0.19914">
        <ele>1215</ele>
        <time>2023-11-19T14:43:43Z</time>
      </trkpt>
      <trkpt lat="43.01999" lon="0.19913">
        <ele>1214.9</ele>
        <time>2023-11-19T14:43:44Z</time>
      </trkpt>
      <trkpt lat="43.01999" lon="0.19911">
        <ele>1214.7</ele>
        <time>2023-11-19T14:43:45Z</time>
      </trkpt>
      <trkpt lat="43.01999" lon="0.1991">
        <ele>1214.6</ele>
        <time>2023-11-19T14:43:46Z</time>
      </trkpt>
      <trkpt lat="43.01999" lon="0.19908">
        <ele>1214.1</ele>
        <time>2023-11-19T14:43:47Z</time>
      </trkpt>
      <trkpt lat="43.01999" lon="0.19907">
        <ele>1213.8</ele>
        <time>2023-11-19T14:43:48Z</time>
      </trkpt>
      <trkpt lat="43.01999" lon="0.19906">
        <ele>1213.8</ele>
        <time>2023-11-19T14:43:49Z</time>
      </trkpt>
      <trkpt lat="43.02" lon="0.19904">
        <ele>1213.3</ele>
        <time>2023-11-19T14:43:50Z</time>
      </trkpt>
      <trkpt lat="43.02" lon="0.19902">
        <ele>1213</ele>
        <time>2023-11-19T14:43:51Z</time>
      </trkpt>
      <trkpt lat="43.02" lon="0.19901">
        <ele>1212.7</ele>
        <time>2023-11-19T14:43:52Z</time>
      </trkpt>
      <trkpt lat="43.02" lon="0.19899">
        <ele>1212.2</ele>
        <time>2023-11-19T14:43:53Z</time>
      </trkpt>
      <trkpt lat="43.02" lon="0.19897">
        <ele>1212</ele>
        <time>2023-11-19T14:43:54Z</time>
      </trkpt>
      <trkpt lat="43.02" lon="0.19896">
        <ele>1211.7</ele>
        <time>2023-11-19T14:43:55Z</time>
      </trkpt>
      <trkpt lat="43.02" lon="0.19895">
        <ele>1211.2</ele>
        <time>2023-11-19T14:43:56Z</time>
      </trkpt>
      <trkpt lat="43.02" lon="0.19894">
        <ele>1211</ele>
        <time>2023-11-19T14:43:57Z</time>
      </trkpt>
      <trkpt lat="43.02" lon="0.19893">
        <ele>1210.7</ele>
        <time>2023-11-19T14:43:58Z</time>
      </trkpt>
      <trkpt lat="43.02" lon="0.19891">
        <ele>1210.2</ele>
        <time>2023-11-19T14:43:59Z</time>
      </trkpt>
      <trkpt lat="43.01999" lon="0.1989">
        <ele>1209.7</ele>
        <time>2023-11-19T14:44:00Z</time>
      </trkpt>
      <trkpt lat="43.01999" lon="0.19889">
        <ele>1209.5</ele>
        <time>2023-11-19T14:44:01Z</time>
      </trkpt>
      <trkpt lat="43.01999" lon="0.19887">
        <ele>1209.2</ele>
        <time>2023-11-19T14:44:02Z</time>
      </trkpt>
      <trkpt lat="43.01999" lon="0.19886">
        <ele>1208.8</ele>
        <time>2023-11-19T14:44:03Z</time>
      </trkpt>
      <trkpt lat="43.01999" lon="0.19884">
        <ele>1208.5</ele>
        <time>2023-11-19T14:44:04Z</time>
      </trkpt>
      <trkpt lat="43.01999" lon="0.19883">
        <ele>1208.2</ele>
        <time>2023-11-19T14:44:05Z</time>
      </trkpt>
      <trkpt lat="43.01999" lon="0.19882">
        <ele>1207.8</ele>
        <time>2023-11-19T14:44:06Z</time>
      </trkpt>
      <trkpt lat="43.01998" lon="0.1988">
        <ele>1207.5</ele>
        <time>2023-11-19T14:44:07Z</time>
      </trkpt>
      <trkpt lat="43.01999" lon="0.19879">
        <ele>1207.3</ele>
        <time>2023-11-19T14:44:08Z</time>
      </trkpt>
      <trkpt lat="43.01999" lon="0.19878">
        <ele>1206.9</ele>
        <time>2023-11-19T14:44:09Z</time>
      </trkpt>
      <trkpt lat="43.01999" lon="0.19876">
        <ele>1206.6</ele>
        <time>2023-11-19T14:44:10Z</time>
      </trkpt>
      <trkpt lat="43.01998" lon="0.19874">
        <ele>1206.3</ele>
        <time>2023-11-19T14:44:11Z</time>
      </trkpt>
      <trkpt lat="43.01998" lon="0.19873">
        <ele>1205.9</ele>
        <time>2023-11-19T14:44:12Z</time>
      </trkpt>
      <trkpt lat="43.01998" lon="0.19872">
        <ele>1205.7</ele>
        <time>2023-11-19T14:44:13Z</time>
      </trkpt>
      <trkpt lat="43.01999" lon="0.1987">
        <ele>1205.4</ele>
        <time>2023-11-19T14:44:14Z</time>
      </trkpt>
      <trkpt lat="43.01999" lon="0.19869">
        <ele>1205</ele>
        <time>2023-11-19T14:44:15Z</time>
      </trkpt>
      <trkpt lat="43.01999" lon="0.1987">
        <ele>1204.8</ele>
        <time>2023-11-19T14:44:16Z</time>
      </trkpt>
      <trkpt lat="43.01999" lon="0.1987">
        <ele>1204.6</ele>
        <time>2023-11-19T14:44:17Z</time>
      </trkpt>
      <trkpt lat="43.01999" lon="0.1987">
        <ele>1204.3</ele>
        <time>2023-11-19T14:44:18Z</time>
      </trkpt>
      <trkpt lat="43.01999" lon="0.1987">
        <ele>1204</ele>
        <time>2023-11-19T14:44:19Z</time>
      </trkpt>
      <trkpt lat="43.01999" lon="0.1987">
        <ele>1203.7</ele>
        <time>2023-11-19T14:44:20Z</time>
      </trkpt>
      <trkpt lat="43.01999" lon="0.1987">
        <ele>1203.4</ele>
        <time>2023-11-19T14:44:21Z</time>
      </trkpt>
      <trkpt lat="43.01999" lon="0.19869">
        <ele>1203.1</ele>
        <time>2023-11-19T14:44:22Z</time>
      </trkpt>
      <trkpt lat="43.01999" lon="0.19869">
        <ele>1203.1</ele>
        <time>2023-11-19T14:44:23Z</time>
      </trkpt>
      <trkpt lat="43.01999" lon="0.19868">
        <ele>1202.8</ele>
        <time>2023-11-19T14:44:24Z</time>
      </trkpt>
      <trkpt lat="43.02" lon="0.19866">
        <ele>1202.4</ele>
        <time>2023-11-19T14:44:25Z</time>
      </trkpt>
      <trkpt lat="43.02" lon="0.19864">
        <ele>1202.2</ele>
        <time>2023-11-19T14:44:26Z</time>
      </trkpt>
      <trkpt lat="43.02" lon="0.19863">
        <ele>1201.9</ele>
        <time>2023-11-19T14:44:27Z</time>
      </trkpt>
      <trkpt lat="43.02" lon="0.19862">
        <ele>1201.6</ele>
        <time>2023-11-19T14:44:28Z</time>
      </trkpt>
      <trkpt lat="43.02" lon="0.1986">
        <ele>1201.3</ele>
        <time>2023-11-19T14:44:29Z</time>
      </trkpt>
      <trkpt lat="43.02" lon="0.19859">
        <ele>1201</ele>
        <time>2023-11-19T14:44:30Z</time>
      </trkpt>
      <trkpt lat="43.02001" lon="0.19858">
        <ele>1200.8</ele>
        <time>2023-11-19T14:44:31Z</time>
      </trkpt>
      <trkpt lat="43.02001" lon="0.19857">
        <ele>1200.5</ele>
        <time>2023-11-19T14:44:32Z</time>
      </trkpt>
      <trkpt lat="43.02001" lon="0.19855">
        <ele>1200.2</ele>
        <time>2023-11-19T14:44:33Z</time>
      </trkpt>
      <trkpt lat="43.02" lon="0.19854">
        <ele>1199.9</ele>
        <time>2023-11-19T14:44:34Z</time>
      </trkpt>
      <trkpt lat="43.02" lon="0.19853">
        <ele>1199.6</ele>
        <time>2023-11-19T14:44:35Z</time>
      </trkpt>
      <trkpt lat="43.01999" lon="0.1985">
        <ele>1199.4</ele>
        <time>2023-11-19T14:44:36Z</time>
      </trkpt>
      <trkpt lat="43.01999" lon="0.19849">
        <ele>1199.2</ele>
        <time>2023-11-19T14:44:37Z</time>
      </trkpt>
      <trkpt lat="43.01998" lon="0.19848">
        <ele>1199.1</ele>
        <time>2023-11-19T14:44:38Z</time>
      </trkpt>
      <trkpt lat="43.01997" lon="0.19847">
        <ele>1199</ele>
        <time>2023-11-19T14:44:39Z</time>
      </trkpt>
      <trkpt lat="43.01997" lon="0.19846">
        <ele>1198.8</ele>
        <time>2023-11-19T14:44:40Z</time>
      </trkpt>
      <trkpt lat="43.01995" lon="0.19846">
        <ele>1198.7</ele>
        <time>2023-11-19T14:44:41Z</time>
      </trkpt>
      <trkpt lat="43.01994" lon="0.19844">
        <ele>1198.4</ele>
        <time>2023-11-19T14:44:42Z</time>
      </trkpt>
      <trkpt lat="43.01993" lon="0.19844">
        <ele>1198.3</ele>
        <time>2023-11-19T14:44:43Z</time>
      </trkpt>
      <trkpt lat="43.01992" lon="0.19843">
        <ele>1198.1</ele>
        <time>2023-11-19T14:44:44Z</time>
      </trkpt>
      <trkpt lat="43.01992" lon="0.19842">
        <ele>1198</ele>
        <time>2023-11-19T14:44:45Z</time>
      </trkpt>
      <trkpt lat="43.01991" lon="0.1984">
        <ele>1197.8</ele>
        <time>2023-11-19T14:44:46Z</time>
      </trkpt>
      <trkpt lat="43.0199" lon="0.19839">
        <ele>1197.6</ele>
        <time>2023-11-19T14:44:47Z</time>
      </trkpt>
      <trkpt lat="43.0199" lon="0.19838">
        <ele>1197.5</ele>
        <time>2023-11-19T14:44:48Z</time>
      </trkpt>
      <trkpt lat="43.01989" lon="0.19838">
        <ele>1197.4</ele>
        <time>2023-11-19T14:44:49Z</time>
      </trkpt>
      <trkpt lat="43.01988" lon="0.19837">
        <ele>1197.3</ele>
        <time>2023-11-19T14:44:50Z</time>
      </trkpt>
      <trkpt lat="43.01988" lon="0.19836">
        <ele>1197.1</ele>
        <time>2023-11-19T14:44:51Z</time>
      </trkpt>
      <trkpt lat="43.01987" lon="0.19835">
        <ele>1197</ele>
        <time>2023-11-19T14:44:52Z</time>
      </trkpt>
      <trkpt lat="43.01987" lon="0.19834">
        <ele>1196.9</ele>
        <time>2023-11-19T14:44:53Z</time>
      </trkpt>
      <trkpt lat="43.01987" lon="0.19832">
        <ele>1196.7</ele>
        <time>2023-11-19T14:44:54Z</time>
      </trkpt>
      <trkpt lat="43.01986" lon="0.19832">
        <ele>1196.6</ele>
        <time>2023-11-19T14:44:55Z</time>
      </trkpt>
      <trkpt lat="43.01986" lon="0.19831">
        <ele>1196.5</ele>
        <time>2023-11-19T14:44:56Z</time>
      </trkpt>
      <trkpt lat="43.01985" lon="0.1983">
        <ele>1196.4</ele>
        <time>2023-11-19T14:44:57Z</time>
      </trkpt>
      <trkpt lat="43.01985" lon="0.19829">
        <ele>1196.2</ele>
        <time>2023-11-19T14:44:58Z</time>
      </trkpt>
      <trkpt lat="43.01985" lon="0.19828">
        <ele>1196.1</ele>
        <time>2023-11-19T14:44:59Z</time>
      </trkpt>
      <trkpt lat="43.01984" lon="0.19827">
        <ele>1195.9</ele>
        <time>2023-11-19T14:45:00Z</time>
      </trkpt>
      <trkpt lat="43.01983" lon="0.19826">
        <ele>1195.8</ele>
        <time>2023-11-19T14:45:01Z</time>
      </trkpt>
      <trkpt lat="43.01983" lon="0.19824">
        <ele>1195.6</ele>
        <time>2023-11-19T14:45:02Z</time>
      </trkpt>
      <trkpt lat="43.01983" lon="0.19823">
        <ele>1195.5</ele>
        <time>2023-11-19T14:45:03Z</time>
      </trkpt>
      <trkpt lat="43.01983" lon="0.19823">
        <ele>1195.4</ele>
        <time>2023-11-19T14:45:04Z</time>
      </trkpt>
      <trkpt lat="43.01982" lon="0.19822">
        <ele>1195.2</ele>
        <time>2023-11-19T14:45:05Z</time>
      </trkpt>
      <trkpt lat="43.01981" lon="0.1982">
        <ele>1195</ele>
        <time>2023-11-19T14:45:06Z</time>
      </trkpt>
      <trkpt lat="43.0198" lon="0.19819">
        <ele>1194.9</ele>
        <time>2023-11-19T14:45:07Z</time>
      </trkpt>
      <trkpt lat="43.0198" lon="0.19819">
        <ele>1194.8</ele>
        <time>2023-11-19T14:45:08Z</time>
      </trkpt>
      <trkpt lat="43.01979" lon="0.19818">
        <ele>1194.7</ele>
        <time>2023-11-19T14:45:09Z</time>
      </trkpt>
      <trkpt lat="43.01979" lon="0.19818">
        <ele>1194.5</ele>
        <time>2023-11-19T14:45:10Z</time>
      </trkpt>
      <trkpt lat="43.01978" lon="0.19817">
        <ele>1194.3</ele>
        <time>2023-11-19T14:45:11Z</time>
      </trkpt>
      <trkpt lat="43.01977" lon="0.19816">
        <ele>1194.2</ele>
        <time>2023-11-19T14:45:12Z</time>
      </trkpt>
      <trkpt lat="43.01976" lon="0.19814">
        <ele>1194</ele>
        <time>2023-11-19T14:45:13Z</time>
      </trkpt>
      <trkpt lat="43.01976" lon="0.19813">
        <ele>1193.8</ele>
        <time>2023-11-19T14:45:14Z</time>
      </trkpt>
      <trkpt lat="43.01975" lon="0.19812">
        <ele>1193.6</ele>
        <time>2023-11-19T14:45:15Z</time>
      </trkpt>
      <trkpt lat="43.01974" lon="0.19811">
        <ele>1193.5</ele>
        <time>2023-11-19T14:45:16Z</time>
      </trkpt>
      <trkpt lat="43.01973" lon="0.19811">
        <ele>1193.3</ele>
        <time>2023-11-19T14:45:17Z</time>
      </trkpt>
      <trkpt lat="43.01973" lon="0.1981">
        <ele>1193.1</ele>
        <time>2023-11-19T14:45:18Z</time>
      </trkpt>
      <trkpt lat="43.01972" lon="0.19809">
        <ele>1193</ele>
        <time>2023-11-19T14:45:19Z</time>
      </trkpt>
      <trkpt lat="43.01972" lon="0.19808">
        <ele>1192.8</ele>
        <time>2023-11-19T14:45:20Z</time>
      </trkpt>
      <trkpt lat="43.01972" lon="0.19806">
        <ele>1192.6</ele>
        <time>2023-11-19T14:45:21Z</time>
      </trkpt>
      <trkpt lat="43.01971" lon="0.19805">
        <ele>1192.5</ele>
        <time>2023-11-19T14:45:22Z</time>
      </trkpt>
      <trkpt lat="43.01971" lon="0.19804">
        <ele>1192.3</ele>
        <time>2023-11-19T14:45:23Z</time>
      </trkpt>
      <trkpt lat="43.0197" lon="0.19802">
        <ele>1192</ele>
        <time>2023-11-19T14:45:24Z</time>
      </trkpt>
      <trkpt lat="43.0197" lon="0.19801">
        <ele>1191.8</ele>
        <time>2023-11-19T14:45:25Z</time>
      </trkpt>
      <trkpt lat="43.01969" lon="0.198">
        <ele>1191.6</ele>
        <time>2023-11-19T14:45:26Z</time>
      </trkpt>
      <trkpt lat="43.01968" lon="0.19799">
        <ele>1191.4</ele>
        <time>2023-11-19T14:45:27Z</time>
      </trkpt>
      <trkpt lat="43.01967" lon="0.19798">
        <ele>1191.2</ele>
        <time>2023-11-19T14:45:28Z</time>
      </trkpt>
      <trkpt lat="43.01967" lon="0.19797">
        <ele>1191</ele>
        <time>2023-11-19T14:45:29Z</time>
      </trkpt>
      <trkpt lat="43.01966" lon="0.19796">
        <ele>1190.8</ele>
        <time>2023-11-19T14:45:30Z</time>
      </trkpt>
      <trkpt lat="43.01965" lon="0.19794">
        <ele>1190.4</ele>
        <time>2023-11-19T14:45:31Z</time>
      </trkpt>
      <trkpt lat="43.01964" lon="0.19793">
        <ele>1190.3</ele>
        <time>2023-11-19T14:45:32Z</time>
      </trkpt>
      <trkpt lat="43.01964" lon="0.19792">
        <ele>1190.1</ele>
        <time>2023-11-19T14:45:33Z</time>
      </trkpt>
      <trkpt lat="43.01963" lon="0.19789">
        <ele>1189.8</ele>
        <time>2023-11-19T14:45:34Z</time>
      </trkpt>
      <trkpt lat="43.01962" lon="0.19789">
        <ele>1189.7</ele>
        <time>2023-11-19T14:45:35Z</time>
      </trkpt>
      <trkpt lat="43.01962" lon="0.19788">
        <ele>1189.6</ele>
        <time>2023-11-19T14:45:36Z</time>
      </trkpt>
      <trkpt lat="43.01961" lon="0.19788">
        <ele>1189.4</ele>
        <time>2023-11-19T14:45:37Z</time>
      </trkpt>
      <trkpt lat="43.01961" lon="0.19787">
        <ele>1189.3</ele>
        <time>2023-11-19T14:45:38Z</time>
      </trkpt>
      <trkpt lat="43.01959" lon="0.19787">
        <ele>1189</ele>
        <time>2023-11-19T14:45:39Z</time>
      </trkpt>
      <trkpt lat="43.01958" lon="0.19787">
        <ele>1188.8</ele>
        <time>2023-11-19T14:45:40Z</time>
      </trkpt>
      <trkpt lat="43.01957" lon="0.19787">
        <ele>1188.6</ele>
        <time>2023-11-19T14:45:41Z</time>
      </trkpt>
      <trkpt lat="43.01957" lon="0.19786">
        <ele>1188.5</ele>
        <time>2023-11-19T14:45:42Z</time>
      </trkpt>
      <trkpt lat="43.01956" lon="0.19786">
        <ele>1188.3</ele>
        <time>2023-11-19T14:45:43Z</time>
      </trkpt>
      <trkpt lat="43.01955" lon="0.19785">
        <ele>1188.1</ele>
        <time>2023-11-19T14:45:44Z</time>
      </trkpt>
      <trkpt lat="43.01955" lon="0.19783">
        <ele>1187.9</ele>
        <time>2023-11-19T14:45:45Z</time>
      </trkpt>
      <trkpt lat="43.01955" lon="0.19782">
        <ele>1187.7</ele>
        <time>2023-11-19T14:45:46Z</time>
      </trkpt>
      <trkpt lat="43.01954" lon="0.19781">
        <ele>1187.5</ele>
        <time>2023-11-19T14:45:47Z</time>
      </trkpt>
      <trkpt lat="43.01953" lon="0.19781">
        <ele>1187.2</ele>
        <time>2023-11-19T14:45:48Z</time>
      </trkpt>
      <trkpt lat="43.01952" lon="0.1978">
        <ele>1187.1</ele>
        <time>2023-11-19T14:45:49Z</time>
      </trkpt>
      <trkpt lat="43.01951" lon="0.1978">
        <ele>1187</ele>
        <time>2023-11-19T14:45:50Z</time>
      </trkpt>
      <trkpt lat="43.01951" lon="0.1978">
        <ele>1186.9</ele>
        <time>2023-11-19T14:45:51Z</time>
      </trkpt>
      <trkpt lat="43.0195" lon="0.19779">
        <ele>1186.8</ele>
        <time>2023-11-19T14:45:52Z</time>
      </trkpt>
      <trkpt lat="43.01949" lon="0.19778">
        <ele>1186.6</ele>
        <time>2023-11-19T14:45:53Z</time>
      </trkpt>
      <trkpt lat="43.01949" lon="0.19778">
        <ele>1186.4</ele>
        <time>2023-11-19T14:45:54Z</time>
      </trkpt>
      <trkpt lat="43.01949" lon="0.19777">
        <ele>1186.3</ele>
        <time>2023-11-19T14:45:55Z</time>
      </trkpt>
      <trkpt lat="43.01949" lon="0.19777">
        <ele>1186.2</ele>
        <time>2023-11-19T14:45:56Z</time>
      </trkpt>
      <trkpt lat="43.01949" lon="0.19777">
        <ele>1186.2</ele>
        <time>2023-11-19T14:45:57Z</time>
      </trkpt>
      <trkpt lat="43.01949" lon="0.19777">
        <ele>1186.2</ele>
        <time>2023-11-19T14:45:58Z</time>
      </trkpt>
      <trkpt lat="43.01949" lon="0.19777">
        <ele>1186.1</ele>
        <time>2023-11-19T14:45:59Z</time>
      </trkpt>
      <trkpt lat="43.01949" lon="0.19777">
        <ele>1186.1</ele>
        <time>2023-11-19T14:46:00Z</time>
      </trkpt>
      <trkpt lat="43.01949" lon="0.19777">
        <ele>1186</ele>
        <time>2023-11-19T14:46:01Z</time>
      </trkpt>
      <trkpt lat="43.01949" lon="0.19777">
        <ele>1186</ele>
        <time>2023-11-19T14:46:02Z</time>
      </trkpt>
      <trkpt lat="43.01949" lon="0.19777">
        <ele>1186</ele>
        <time>2023-11-19T14:46:03Z</time>
      </trkpt>
      <trkpt lat="43.01949" lon="0.19777">
        <ele>1185.9</ele>
        <time>2023-11-19T14:46:04Z</time>
      </trkpt>
      <trkpt lat="43.01949" lon="0.19777">
        <ele>1185.9</ele>
        <time>2023-11-19T14:46:05Z</time>
      </trkpt>
      <trkpt lat="43.01949" lon="0.19777">
        <ele>1185.9</ele>
        <time>2023-11-19T14:46:07Z</time>
      </trkpt>
      <trkpt lat="43.01949" lon="0.19778">
        <ele>1185.8</ele>
        <time>2023-11-19T14:46:08Z</time>
      </trkpt>
      <trkpt lat="43.01949" lon="0.19778">
        <ele>1185.8</ele>
        <time>2023-11-19T14:46:10Z</time>
      </trkpt>
      <trkpt lat="43.01949" lon="0.19778">
        <ele>1185.8</ele>
        <time>2023-11-19T14:46:11Z</time>
      </trkpt>
      <trkpt lat="43.01949" lon="0.19778">
        <ele>1185.8</ele>
        <time>2023-11-19T14:46:13Z</time>
      </trkpt>
      <trkpt lat="43.01949" lon="0.19778">
        <ele>1185.8</ele>
        <time>2023-11-19T14:46:14Z</time>
      </trkpt>
      <trkpt lat="43.01948" lon="0.19778">
        <ele>1185.7</ele>
        <time>2023-11-19T14:46:16Z</time>
      </trkpt>
      <trkpt lat="43.01948" lon="0.19777">
        <ele>1185.6</ele>
        <time>2023-11-19T14:46:17Z</time>
      </trkpt>
      <trkpt lat="43.01947" lon="0.19777">
        <ele>1185.6</ele>
        <time>2023-11-19T14:46:19Z</time>
      </trkpt>
      <trkpt lat="43.01947" lon="0.19777">
        <ele>1185.6</ele>
        <time>2023-11-19T14:46:20Z</time>
      </trkpt>
      <trkpt lat="43.01947" lon="0.19777">
        <ele>1185.6</ele>
        <time>2023-11-19T14:46:21Z</time>
      </trkpt>
      <trkpt lat="43.01947" lon="0.19777">
        <ele>1185.6</ele>
        <time>2023-11-19T14:46:22Z</time>
      </trkpt>
      <trkpt lat="43.01947" lon="0.19777">
        <ele>1185.6</ele>
        <time>2023-11-19T14:46:23Z</time>
      </trkpt>
      <trkpt lat="43.01947" lon="0.19777">
        <ele>1185.6</ele>
        <time>2023-11-19T14:46:24Z</time>
      </trkpt>
      <trkpt lat="43.01947" lon="0.19777">
        <ele>1185.6</ele>
        <time>2023-11-19T14:46:25Z</time>
      </trkpt>
      <trkpt lat="43.01947" lon="0.19777">
        <ele>1185.6</ele>
        <time>2023-11-19T14:46:26Z</time>
      </trkpt>
      <trkpt lat="43.01947" lon="0.19777">
        <ele>1185.6</ele>
        <time>2023-11-19T14:46:27Z</time>
      </trkpt>
      <trkpt lat="43.01947" lon="0.19777">
        <ele>1185.6</ele>
        <time>2023-11-19T14:46:28Z</time>
      </trkpt>
      <trkpt lat="43.01947" lon="0.19779">
        <ele>1185.4</ele>
        <time>2023-11-19T14:46:29Z</time>
      </trkpt>
      <trkpt lat="43.01947" lon="0.19779">
        <ele>1185.4</ele>
        <time>2023-11-19T14:46:30Z</time>
      </trkpt>
      <trkpt lat="43.01947" lon="0.19779">
        <ele>1185.4</ele>
        <time>2023-11-19T14:46:31Z</time>
      </trkpt>
      <trkpt lat="43.01947" lon="0.19778">
        <ele>1185.4</ele>
        <time>2023-11-19T14:46:32Z</time>
      </trkpt>
      <trkpt lat="43.01947" lon="0.19778">
        <ele>1185.4</ele>
        <time>2023-11-19T14:46:33Z</time>
      </trkpt>
      <trkpt lat="43.01947" lon="0.19778">
        <ele>1185.4</ele>
        <time>2023-11-19T14:46:34Z</time>
      </trkpt>
      <trkpt lat="43.01947" lon="0.19778">
        <ele>1185.4</ele>
        <time>2023-11-19T14:46:35Z</time>
      </trkpt>
      <trkpt lat="43.01947" lon="0.19778">
        <ele>1185.4</ele>
        <time>2023-11-19T14:46:36Z</time>
      </trkpt>
      <trkpt lat="43.01947" lon="0.19778">
        <ele>1185.4</ele>
        <time>2023-11-19T14:46:37Z</time>
      </trkpt>
      <trkpt lat="43.01947" lon="0.19778">
        <ele>1185.4</ele>
        <time>2023-11-19T14:46:38Z</time>
      </trkpt>
      <trkpt lat="43.01947" lon="0.19778">
        <ele>1185.4</ele>
        <time>2023-11-19T14:46:39Z</time>
      </trkpt>
      <trkpt lat="43.01947" lon="0.19778">
        <ele>1185.4</ele>
        <time>2023-11-19T14:46:40Z</time>
      </trkpt>
      <trkpt lat="43.01947" lon="0.19778">
        <ele>1185.4</ele>
        <time>2023-11-19T14:46:41Z</time>
      </trkpt>
      <trkpt lat="43.01947" lon="0.19778">
        <ele>1185.4</ele>
        <time>2023-11-19T14:46:42Z</time>
      </trkpt>
      <trkpt lat="43.01947" lon="0.19778">
        <ele>1185.4</ele>
        <time>2023-11-19T14:46:43Z</time>
      </trkpt>
      <trkpt lat="43.01947" lon="0.19778">
        <ele>1185.3</ele>
        <time>2023-11-19T14:46:44Z</time>
      </trkpt>
      <trkpt lat="43.01947" lon="0.19778">
        <ele>1185.2</ele>
        <time>2023-11-19T14:46:45Z</time>
      </trkpt>
      <trkpt lat="43.01947" lon="0.19778">
        <ele>1185.2</ele>
        <time>2023-11-19T14:46:46Z</time>
      </trkpt>
      <trkpt lat="43.01947" lon="0.19778">
        <ele>1185.2</ele>
        <time>2023-11-19T14:46:47Z</time>
      </trkpt>
      <trkpt lat="43.01947" lon="0.19778">
        <ele>1185.2</ele>
        <time>2023-11-19T14:46:48Z</time>
      </trkpt>
      <trkpt lat="43.01947" lon="0.19778">
        <ele>1185.2</ele>
        <time>2023-11-19T14:46:49Z</time>
      </trkpt>
      <trkpt lat="43.01947" lon="0.19777">
        <ele>1185.1</ele>
        <time>2023-11-19T14:46:50Z</time>
      </trkpt>
      <trkpt lat="43.01947" lon="0.19777">
        <ele>1185.1</ele>
        <time>2023-11-19T14:46:51Z</time>
      </trkpt>
      <trkpt lat="43.01948" lon="0.19777">
        <ele>1185</ele>
        <time>2023-11-19T14:46:52Z</time>
      </trkpt>
      <trkpt lat="43.01948" lon="0.19777">
        <ele>1185</ele>
        <time>2023-11-19T14:46:53Z</time>
      </trkpt>
      <trkpt lat="43.01948" lon="0.19777">
        <ele>1185</ele>
        <time>2023-11-19T14:46:54Z</time>
      </trkpt>
      <trkpt lat="43.01948" lon="0.19777">
        <ele>1185</ele>
        <time>2023-11-19T14:46:55Z</time>
      </trkpt>
      <trkpt lat="43.01948" lon="0.19777">
        <ele>1185</ele>
        <time>2023-11-19T14:46:56Z</time>
      </trkpt>
      <trkpt lat="43.01948" lon="0.19777">
        <ele>1184.9</ele>
        <time>2023-11-19T14:46:57Z</time>
      </trkpt>
      <trkpt lat="43.01948" lon="0.19777">
        <ele>1184.9</ele>
        <time>2023-11-19T14:46:58Z</time>
      </trkpt>
      <trkpt lat="43.01948" lon="0.19777">
        <ele>1184.9</ele>
        <time>2023-11-19T14:46:59Z</time>
      </trkpt>
      <trkpt lat="43.01948" lon="0.19777">
        <ele>1184.9</ele>
        <time>2023-11-19T14:47:00Z</time>
      </trkpt>
      <trkpt lat="43.01948" lon="0.19777">
        <ele>1184.8</ele>
        <time>2023-11-19T14:47:01Z</time>
      </trkpt>
      <trkpt lat="43.01948" lon="0.19777">
        <ele>1184.7</ele>
        <time>2023-11-19T14:47:02Z</time>
      </trkpt>
      <trkpt lat="43.01948" lon="0.19776">
        <ele>1184.7</ele>
        <time>2023-11-19T14:47:03Z</time>
      </trkpt>
      <trkpt lat="43.01948" lon="0.19776">
        <ele>1184.7</ele>
        <time>2023-11-19T14:47:04Z</time>
      </trkpt>
      <trkpt lat="43.01948" lon="0.19776">
        <ele>1184.6</ele>
        <time>2023-11-19T14:47:05Z</time>
      </trkpt>
      <trkpt lat="43.01948" lon="0.19776">
        <ele>1184.6</ele>
        <time>2023-11-19T14:47:06Z</time>
      </trkpt>
      <trkpt lat="43.01948" lon="0.19776">
        <ele>1184.6</ele>
        <time>2023-11-19T14:47:07Z</time>
      </trkpt>
      <trkpt lat="43.01948" lon="0.19776">
        <ele>1184.6</ele>
        <time>2023-11-19T14:47:08Z</time>
      </trkpt>
      <trkpt lat="43.01949" lon="0.19776">
        <ele>1184.5</ele>
        <time>2023-11-19T14:47:09Z</time>
      </trkpt>
      <trkpt lat="43.01948" lon="0.19776">
        <ele>1184.5</ele>
        <time>2023-11-19T14:47:10Z</time>
      </trkpt>
      <trkpt lat="43.01948" lon="0.19775">
        <ele>1184.4</ele>
        <time>2023-11-19T14:47:11Z</time>
      </trkpt>
      <trkpt lat="43.01948" lon="0.19775">
        <ele>1184.4</ele>
        <time>2023-11-19T14:47:12Z</time>
      </trkpt>
      <trkpt lat="43.01948" lon="0.19775">
        <ele>1184.3</ele>
        <time>2023-11-19T14:47:13Z</time>
      </trkpt>
      <trkpt lat="43.01948" lon="0.19775">
        <ele>1184.3</ele>
        <time>2023-11-19T14:47:14Z</time>
      </trkpt>
      <trkpt lat="43.01948" lon="0.19775">
        <ele>1184.3</ele>
        <time>2023-11-19T14:47:15Z</time>
      </trkpt>
      <trkpt lat="43.01948" lon="0.19775">
        <ele>1184.3</ele>
        <time>2023-11-19T14:47:16Z</time>
      </trkpt>
      <trkpt lat="43.01948" lon="0.19775">
        <ele>1184.3</ele>
        <time>2023-11-19T14:47:17Z</time>
      </trkpt>
      <trkpt lat="43.01948" lon="0.19775">
        <ele>1184.3</ele>
        <time>2023-11-19T14:47:18Z</time>
      </trkpt>
      <trkpt lat="43.01948" lon="0.19775">
        <ele>1184.3</ele>
        <time>2023-11-19T14:47:19Z</time>
      </trkpt>
      <trkpt lat="43.01948" lon="0.19775">
        <ele>1184.3</ele>
        <time>2023-11-19T14:47:20Z</time>
      </trkpt>
      <trkpt lat="43.01948" lon="0.19775">
        <ele>1184.3</ele>
        <time>2023-11-19T14:47:21Z</time>
      </trkpt>
      <trkpt lat="43.01948" lon="0.19775">
        <ele>1184.3</ele>
        <time>2023-11-19T14:47:22Z</time>
      </trkpt>
      <trkpt lat="43.01948" lon="0.19775">
        <ele>1184.3</ele>
        <time>2023-11-19T14:47:23Z</time>
      </trkpt>
      <trkpt lat="43.01948" lon="0.19775">
        <ele>1184.3</ele>
        <time>2023-11-19T14:47:24Z</time>
      </trkpt>
      <trkpt lat="43.01948" lon="0.19775">
        <ele>1184.3</ele>
        <time>2023-11-19T14:47:25Z</time>
      </trkpt>
      <trkpt lat="43.01948" lon="0.19775">
        <ele>1184.3</ele>
        <time>2023-11-19T14:47:26Z</time>
      </trkpt>
      <trkpt lat="43.01948" lon="0.19777">
        <ele>1184</ele>
        <time>2023-11-19T14:47:27Z</time>
      </trkpt>
      <trkpt lat="43.01948" lon="0.19777">
        <ele>1184</ele>
        <time>2023-11-19T14:47:28Z</time>
      </trkpt>
      <trkpt lat="43.01948" lon="0.19777">
        <ele>1184</ele>
        <time>2023-11-19T14:47:29Z</time>
      </trkpt>
      <trkpt lat="43.01948" lon="0.19777">
        <ele>1184</ele>
        <time>2023-11-19T14:47:30Z</time>
      </trkpt>
      <trkpt lat="43.01948" lon="0.19777">
        <ele>1184</ele>
        <time>2023-11-19T14:47:31Z</time>
      </trkpt>
      <trkpt lat="43.01948" lon="0.19777">
        <ele>1184</ele>
        <time>2023-11-19T14:47:32Z</time>
      </trkpt>
      <trkpt lat="43.01948" lon="0.19777">
        <ele>1184</ele>
        <time>2023-11-19T14:47:33Z</time>
      </trkpt>
      <trkpt lat="43.01948" lon="0.19777">
        <ele>1184</ele>
        <time>2023-11-19T14:47:34Z</time>
      </trkpt>
      <trkpt lat="43.01948" lon="0.19777">
        <ele>1183.9</ele>
        <time>2023-11-19T14:47:35Z</time>
      </trkpt>
      <trkpt lat="43.01947" lon="0.19776">
        <ele>1183.7</ele>
        <time>2023-11-19T14:47:36Z</time>
      </trkpt>
      <trkpt lat="43.01947" lon="0.19776">
        <ele>1183.6</ele>
        <time>2023-11-19T14:47:37Z</time>
      </trkpt>
      <trkpt lat="43.01946" lon="0.19776">
        <ele>1183.5</ele>
        <time>2023-11-19T14:47:38Z</time>
      </trkpt>
      <trkpt lat="43.01946" lon="0.19776">
        <ele>1183.5</ele>
        <time>2023-11-19T14:47:39Z</time>
      </trkpt>
      <trkpt lat="43.01946" lon="0.19776">
        <ele>1183.4</ele>
        <time>2023-11-19T14:47:40Z</time>
      </trkpt>
      <trkpt lat="43.01945" lon="0.19777">
        <ele>1183.2</ele>
        <time>2023-11-19T14:47:41Z</time>
      </trkpt>
      <trkpt lat="43.01946" lon="0.19779">
        <ele>1183</ele>
        <time>2023-11-19T14:47:42Z</time>
      </trkpt>
      <trkpt lat="43.01946" lon="0.1978">
        <ele>1182.9</ele>
        <time>2023-11-19T14:47:43Z</time>
      </trkpt>
      <trkpt lat="43.01947" lon="0.1978">
        <ele>1182.7</ele>
        <time>2023-11-19T14:47:44Z</time>
      </trkpt>
      <trkpt lat="43.01947" lon="0.19781">
        <ele>1182.6</ele>
        <time>2023-11-19T14:47:45Z</time>
      </trkpt>
      <trkpt lat="43.01946" lon="0.19782">
        <ele>1182.4</ele>
        <time>2023-11-19T14:47:46Z</time>
      </trkpt>
      <trkpt lat="43.01946" lon="0.19782">
        <ele>1182.3</ele>
        <time>2023-11-19T14:47:47Z</time>
      </trkpt>
      <trkpt lat="43.01945" lon="0.19783">
        <ele>1182.1</ele>
        <time>2023-11-19T14:47:48Z</time>
      </trkpt>
      <trkpt lat="43.01944" lon="0.19783">
        <ele>1181.8</ele>
        <time>2023-11-19T14:47:49Z</time>
      </trkpt>
      <trkpt lat="43.01943" lon="0.19781">
        <ele>1181.7</ele>
        <time>2023-11-19T14:47:50Z</time>
      </trkpt>
      <trkpt lat="43.01942" lon="0.19781">
        <ele>1181.4</ele>
        <time>2023-11-19T14:47:51Z</time>
      </trkpt>
      <trkpt lat="43.01942" lon="0.19781">
        <ele>1181.3</ele>
        <time>2023-11-19T14:47:52Z</time>
      </trkpt>
      <trkpt lat="43.01942" lon="0.19781">
        <ele>1181.3</ele>
        <time>2023-11-19T14:47:53Z</time>
      </trkpt>
      <trkpt lat="43.01941" lon="0.19781">
        <ele>1181</ele>
        <time>2023-11-19T14:47:54Z</time>
      </trkpt>
      <trkpt lat="43.0194" lon="0.19781">
        <ele>1180.9</ele>
        <time>2023-11-19T14:47:55Z</time>
      </trkpt>
      <trkpt lat="43.01939" lon="0.19781">
        <ele>1180.8</ele>
        <time>2023-11-19T14:47:56Z</time>
      </trkpt>
      <trkpt lat="43.01939" lon="0.19782">
        <ele>1180.7</ele>
        <time>2023-11-19T14:47:57Z</time>
      </trkpt>
      <trkpt lat="43.01939" lon="0.19782">
        <ele>1180.6</ele>
        <time>2023-11-19T14:47:58Z</time>
      </trkpt>
      <trkpt lat="43.01939" lon="0.19784">
        <ele>1180.4</ele>
        <time>2023-11-19T14:47:59Z</time>
      </trkpt>
      <trkpt lat="43.01939" lon="0.19785">
        <ele>1180.2</ele>
        <time>2023-11-19T14:48:00Z</time>
      </trkpt>
      <trkpt lat="43.01939" lon="0.19786">
        <ele>1180</ele>
        <time>2023-11-19T14:48:01Z</time>
      </trkpt>
      <trkpt lat="43.01939" lon="0.19785">
        <ele>1180</ele>
        <time>2023-11-19T14:48:02Z</time>
      </trkpt>
      <trkpt lat="43.01939" lon="0.19787">
        <ele>1179.8</ele>
        <time>2023-11-19T14:48:03Z</time>
      </trkpt>
      <trkpt lat="43.01939" lon="0.19787">
        <ele>1179.6</ele>
        <time>2023-11-19T14:48:04Z</time>
      </trkpt>
      <trkpt lat="43.01939" lon="0.19787">
        <ele>1179.5</ele>
        <time>2023-11-19T14:48:05Z</time>
      </trkpt>
      <trkpt lat="43.01939" lon="0.19787">
        <ele>1179.4</ele>
        <time>2023-11-19T14:48:06Z</time>
      </trkpt>
      <trkpt lat="43.01939" lon="0.19788">
        <ele>1179.3</ele>
        <time>2023-11-19T14:48:07Z</time>
      </trkpt>
      <trkpt lat="43.01938" lon="0.1979">
        <ele>1178.9</ele>
        <time>2023-11-19T14:48:08Z</time>
      </trkpt>
      <trkpt lat="43.01938" lon="0.19791">
        <ele>1178.8</ele>
        <time>2023-11-19T14:48:09Z</time>
      </trkpt>
      <trkpt lat="43.01938" lon="0.19792">
        <ele>1178.6</ele>
        <time>2023-11-19T14:48:10Z</time>
      </trkpt>
      <trkpt lat="43.01938" lon="0.19793">
        <ele>1178.5</ele>
        <time>2023-11-19T14:48:11Z</time>
      </trkpt>
      <trkpt lat="43.01938" lon="0.19794">
        <ele>1178.4</ele>
        <time>2023-11-19T14:48:13Z</time>
      </trkpt>
      <trkpt lat="43.01939" lon="0.19794">
        <ele>1178.3</ele>
        <time>2023-11-19T14:48:14Z</time>
      </trkpt>
      <trkpt lat="43.01938" lon="0.19795">
        <ele>1178.1</ele>
        <time>2023-11-19T14:48:15Z</time>
      </trkpt>
      <trkpt lat="43.01938" lon="0.19797">
        <ele>1177.8</ele>
        <time>2023-11-19T14:48:16Z</time>
      </trkpt>
      <trkpt lat="43.01937" lon="0.19797">
        <ele>1177.7</ele>
        <time>2023-11-19T14:48:17Z</time>
      </trkpt>
      <trkpt lat="43.01937" lon="0.19798">
        <ele>1177.6</ele>
        <time>2023-11-19T14:48:18Z</time>
      </trkpt>
      <trkpt lat="43.01936" lon="0.19797">
        <ele>1177.4</ele>
        <time>2023-11-19T14:48:19Z</time>
      </trkpt>
      <trkpt lat="43.01935" lon="0.19797">
        <ele>1177.2</ele>
        <time>2023-11-19T14:48:20Z</time>
      </trkpt>
      <trkpt lat="43.01935" lon="0.19797">
        <ele>1177.2</ele>
        <time>2023-11-19T14:48:21Z</time>
      </trkpt>
      <trkpt lat="43.01935" lon="0.19796">
        <ele>1177.1</ele>
        <time>2023-11-19T14:48:22Z</time>
      </trkpt>
      <trkpt lat="43.01935" lon="0.19797">
        <ele>1177</ele>
        <time>2023-11-19T14:48:23Z</time>
      </trkpt>
      <trkpt lat="43.01935" lon="0.19797">
        <ele>1176.9</ele>
        <time>2023-11-19T14:48:24Z</time>
      </trkpt>
      <trkpt lat="43.01935" lon="0.19798">
        <ele>1176.9</ele>
        <time>2023-11-19T14:48:25Z</time>
      </trkpt>
      <trkpt lat="43.01935" lon="0.19798">
        <ele>1176.8</ele>
        <time>2023-11-19T14:48:26Z</time>
      </trkpt>
      <trkpt lat="43.01935" lon="0.19799">
        <ele>1176.7</ele>
        <time>2023-11-19T14:48:27Z</time>
      </trkpt>
      <trkpt lat="43.01935" lon="0.19799">
        <ele>1176.6</ele>
        <time>2023-11-19T14:48:28Z</time>
      </trkpt>
      <trkpt lat="43.01934" lon="0.19798">
        <ele>1176.5</ele>
        <time>2023-11-19T14:48:29Z</time>
      </trkpt>
      <trkpt lat="43.01934" lon="0.19798">
        <ele>1176.5</ele>
        <time>2023-11-19T14:48:30Z</time>
      </trkpt>
      <trkpt lat="43.01934" lon="0.19798">
        <ele>1176.4</ele>
        <time>2023-11-19T14:48:31Z</time>
      </trkpt>
      <trkpt lat="43.01934" lon="0.19798">
        <ele>1176.4</ele>
        <time>2023-11-19T14:48:32Z</time>
      </trkpt>
      <trkpt lat="43.01934" lon="0.19798">
        <ele>1176.4</ele>
        <time>2023-11-19T14:48:33Z</time>
      </trkpt>
      <trkpt lat="43.01933" lon="0.19798">
        <ele>1176.3</ele>
        <time>2023-11-19T14:48:34Z</time>
      </trkpt>
      <trkpt lat="43.01933" lon="0.19798">
        <ele>1176.3</ele>
        <time>2023-11-19T14:48:35Z</time>
      </trkpt>
      <trkpt lat="43.01933" lon="0.19799">
        <ele>1176.2</ele>
        <time>2023-11-19T14:48:36Z</time>
      </trkpt>
      <trkpt lat="43.01933" lon="0.19799">
        <ele>1176.1</ele>
        <time>2023-11-19T14:48:37Z</time>
      </trkpt>
      <trkpt lat="43.01933" lon="0.19799">
        <ele>1176.1</ele>
        <time>2023-11-19T14:48:38Z</time>
      </trkpt>
      <trkpt lat="43.01933" lon="0.198">
        <ele>1176</ele>
        <time>2023-11-19T14:48:39Z</time>
      </trkpt>
      <trkpt lat="43.01933" lon="0.198">
        <ele>1175.9</ele>
        <time>2023-11-19T14:48:40Z</time>
      </trkpt>
      <trkpt lat="43.01932" lon="0.198">
        <ele>1175.8</ele>
        <time>2023-11-19T14:48:41Z</time>
      </trkpt>
      <trkpt lat="43.01932" lon="0.19801">
        <ele>1175.6</ele>
        <time>2023-11-19T14:48:42Z</time>
      </trkpt>
      <trkpt lat="43.01932" lon="0.19801">
        <ele>1175.5</ele>
        <time>2023-11-19T14:48:43Z</time>
      </trkpt>
      <trkpt lat="43.0193" lon="0.19801">
        <ele>1175.2</ele>
        <time>2023-11-19T14:48:44Z</time>
      </trkpt>
      <trkpt lat="43.0193" lon="0.19801">
        <ele>1175.1</ele>
        <time>2023-11-19T14:48:45Z</time>
      </trkpt>
      <trkpt lat="43.0193" lon="0.19802">
        <ele>1175.1</ele>
        <time>2023-11-19T14:48:46Z</time>
      </trkpt>
      <trkpt lat="43.0193" lon="0.19802">
        <ele>1175</ele>
        <time>2023-11-19T14:48:47Z</time>
      </trkpt>
      <trkpt lat="43.01929" lon="0.19803">
        <ele>1174.9</ele>
        <time>2023-11-19T14:48:48Z</time>
      </trkpt>
      <trkpt lat="43.01929" lon="0.19803">
        <ele>1174.8</ele>
        <time>2023-11-19T14:48:49Z</time>
      </trkpt>
      <trkpt lat="43.01929" lon="0.19804">
        <ele>1174.7</ele>
        <time>2023-11-19T14:48:50Z</time>
      </trkpt>
      <trkpt lat="43.01928" lon="0.19804">
        <ele>1174.7</ele>
        <time>2023-11-19T14:48:51Z</time>
      </trkpt>
      <trkpt lat="43.01928" lon="0.19805">
        <ele>1174.6</ele>
        <time>2023-11-19T14:48:52Z</time>
      </trkpt>
      <trkpt lat="43.01928" lon="0.19805">
        <ele>1174.5</ele>
        <time>2023-11-19T14:48:53Z</time>
      </trkpt>
      <trkpt lat="43.01927" lon="0.19806">
        <ele>1174.3</ele>
        <time>2023-11-19T14:48:54Z</time>
      </trkpt>
      <trkpt lat="43.01926" lon="0.19807">
        <ele>1174.1</ele>
        <time>2023-11-19T14:48:55Z</time>
      </trkpt>
      <trkpt lat="43.01926" lon="0.19809">
        <ele>1173.9</ele>
        <time>2023-11-19T14:48:56Z</time>
      </trkpt>
      <trkpt lat="43.01926" lon="0.1981">
        <ele>1173.8</ele>
        <time>2023-11-19T14:48:57Z</time>
      </trkpt>
      <trkpt lat="43.01925" lon="0.19811">
        <ele>1173.5</ele>
        <time>2023-11-19T14:48:58Z</time>
      </trkpt>
      <trkpt lat="43.01925" lon="0.19812">
        <ele>1173.4</ele>
        <time>2023-11-19T14:48:59Z</time>
      </trkpt>
      <trkpt lat="43.01925" lon="0.19813">
        <ele>1173.2</ele>
        <time>2023-11-19T14:49:00Z</time>
      </trkpt>
      <trkpt lat="43.01925" lon="0.19814">
        <ele>1173.1</ele>
        <time>2023-11-19T14:49:01Z</time>
      </trkpt>
      <trkpt lat="43.01925" lon="0.19814">
        <ele>1173</ele>
        <time>2023-11-19T14:49:02Z</time>
      </trkpt>
      <trkpt lat="43.01925" lon="0.19814">
        <ele>1172.9</ele>
        <time>2023-11-19T14:49:03Z</time>
      </trkpt>
      <trkpt lat="43.01925" lon="0.19815">
        <ele>1172.8</ele>
        <time>2023-11-19T14:49:04Z</time>
      </trkpt>
      <trkpt lat="43.01924" lon="0.19816">
        <ele>1172.7</ele>
        <time>2023-11-19T14:49:05Z</time>
      </trkpt>
      <trkpt lat="43.01924" lon="0.19817">
        <ele>1172.5</ele>
        <time>2023-11-19T14:49:06Z</time>
      </trkpt>
      <trkpt lat="43.01924" lon="0.19817">
        <ele>1172.5</ele>
        <time>2023-11-19T14:49:07Z</time>
      </trkpt>
      <trkpt lat="43.01924" lon="0.19817">
        <ele>1172.4</ele>
        <time>2023-11-19T14:49:08Z</time>
      </trkpt>
      <trkpt lat="43.01924" lon="0.19817">
        <ele>1172.4</ele>
        <time>2023-11-19T14:49:09Z</time>
      </trkpt>
      <trkpt lat="43.01924" lon="0.19817">
        <ele>1172.4</ele>
        <time>2023-11-19T14:49:10Z</time>
      </trkpt>
      <trkpt lat="43.01924" lon="0.19817">
        <ele>1172.4</ele>
        <time>2023-11-19T14:49:11Z</time>
      </trkpt>
      <trkpt lat="43.01924" lon="0.19817">
        <ele>1172.4</ele>
        <time>2023-11-19T14:49:12Z</time>
      </trkpt>
      <trkpt lat="43.01924" lon="0.19817">
        <ele>1172.3</ele>
        <time>2023-11-19T14:49:13Z</time>
      </trkpt>
      <trkpt lat="43.01923" lon="0.19818">
        <ele>1172.1</ele>
        <time>2023-11-19T14:49:14Z</time>
      </trkpt>
      <trkpt lat="43.01923" lon="0.19819">
        <ele>1172</ele>
        <time>2023-11-19T14:49:15Z</time>
      </trkpt>
      <trkpt lat="43.01922" lon="0.1982">
        <ele>1171.8</ele>
        <time>2023-11-19T14:49:16Z</time>
      </trkpt>
      <trkpt lat="43.01922" lon="0.1982">
        <ele>1171.8</ele>
        <time>2023-11-19T14:49:17Z</time>
      </trkpt>
      <trkpt lat="43.01921" lon="0.19821">
        <ele>1171.6</ele>
        <time>2023-11-19T14:49:18Z</time>
      </trkpt>
      <trkpt lat="43.01921" lon="0.19821">
        <ele>1171.6</ele>
        <time>2023-11-19T14:49:19Z</time>
      </trkpt>
      <trkpt lat="43.01921" lon="0.1982">
        <ele>1171.5</ele>
        <time>2023-11-19T14:49:20Z</time>
      </trkpt>
      <trkpt lat="43.01921" lon="0.1982">
        <ele>1171.5</ele>
        <time>2023-11-19T14:49:21Z</time>
      </trkpt>
      <trkpt lat="43.01921" lon="0.1982">
        <ele>1171.5</ele>
        <time>2023-11-19T14:49:22Z</time>
      </trkpt>
      <trkpt lat="43.01921" lon="0.1982">
        <ele>1171.5</ele>
        <time>2023-11-19T14:49:23Z</time>
      </trkpt>
      <trkpt lat="43.01921" lon="0.1982">
        <ele>1171.5</ele>
        <time>2023-11-19T14:49:24Z</time>
      </trkpt>
      <trkpt lat="43.01921" lon="0.1982">
        <ele>1171.5</ele>
        <time>2023-11-19T14:49:25Z</time>
      </trkpt>
      <trkpt lat="43.01921" lon="0.19821">
        <ele>1171.4</ele>
        <time>2023-11-19T14:49:26Z</time>
      </trkpt>
      <trkpt lat="43.01921" lon="0.19821">
        <ele>1171.4</ele>
        <time>2023-11-19T14:49:27Z</time>
      </trkpt>
      <trkpt lat="43.01921" lon="0.19821">
        <ele>1171.4</ele>
        <time>2023-11-19T14:49:28Z</time>
      </trkpt>
      <trkpt lat="43.01921" lon="0.19821">
        <ele>1171.3</ele>
        <time>2023-11-19T14:49:29Z</time>
      </trkpt>
      <trkpt lat="43.01921" lon="0.19821">
        <ele>1171.3</ele>
        <time>2023-11-19T14:49:30Z</time>
      </trkpt>
      <trkpt lat="43.0192" lon="0.19821">
        <ele>1171.1</ele>
        <time>2023-11-19T14:49:31Z</time>
      </trkpt>
      <trkpt lat="43.01919" lon="0.19821">
        <ele>1171</ele>
        <time>2023-11-19T14:49:32Z</time>
      </trkpt>
      <trkpt lat="43.01918" lon="0.19821">
        <ele>1170.8</ele>
        <time>2023-11-19T14:49:33Z</time>
      </trkpt>
      <trkpt lat="43.01917" lon="0.19821">
        <ele>1170.7</ele>
        <time>2023-11-19T14:49:34Z</time>
      </trkpt>
      <trkpt lat="43.01916" lon="0.19821">
        <ele>1170.5</ele>
        <time>2023-11-19T14:49:35Z</time>
      </trkpt>
      <trkpt lat="43.01915" lon="0.1982">
        <ele>1170.3</ele>
        <time>2023-11-19T14:49:36Z</time>
      </trkpt>
      <trkpt lat="43.01914" lon="0.1982">
        <ele>1170.2</ele>
        <time>2023-11-19T14:49:37Z</time>
      </trkpt>
      <trkpt lat="43.01914" lon="0.19818">
        <ele>1169.9</ele>
        <time>2023-11-19T14:49:38Z</time>
      </trkpt>
      <trkpt lat="43.01914" lon="0.19817">
        <ele>1169.8</ele>
        <time>2023-11-19T14:49:39Z</time>
      </trkpt>
      <trkpt lat="43.01913" lon="0.19816">
        <ele>1169.7</ele>
        <time>2023-11-19T14:49:40Z</time>
      </trkpt>
      <trkpt lat="43.01913" lon="0.19815">
        <ele>1169.5</ele>
        <time>2023-11-19T14:49:41Z</time>
      </trkpt>
      <trkpt lat="43.01912" lon="0.19814">
        <ele>1169.4</ele>
        <time>2023-11-19T14:49:42Z</time>
      </trkpt>
      <trkpt lat="43.01912" lon="0.19813">
        <ele>1169.2</ele>
        <time>2023-11-19T14:49:43Z</time>
      </trkpt>
      <trkpt lat="43.01911" lon="0.19812">
        <ele>1169.1</ele>
        <time>2023-11-19T14:49:44Z</time>
      </trkpt>
      <trkpt lat="43.01911" lon="0.19811">
        <ele>1169</ele>
        <time>2023-11-19T14:49:45Z</time>
      </trkpt>
      <trkpt lat="43.01912" lon="0.1981">
        <ele>1168.8</ele>
        <time>2023-11-19T14:49:46Z</time>
      </trkpt>
      <trkpt lat="43.01912" lon="0.1981">
        <ele>1168.7</ele>
        <time>2023-11-19T14:49:47Z</time>
      </trkpt>
      <trkpt lat="43.01911" lon="0.1981">
        <ele>1168.6</ele>
        <time>2023-11-19T14:49:48Z</time>
      </trkpt>
      <trkpt lat="43.0191" lon="0.19809">
        <ele>1168.5</ele>
        <time>2023-11-19T14:49:49Z</time>
      </trkpt>
      <trkpt lat="43.0191" lon="0.19808">
        <ele>1168.4</ele>
        <time>2023-11-19T14:49:50Z</time>
      </trkpt>
      <trkpt lat="43.01909" lon="0.19809">
        <ele>1168.1</ele>
        <time>2023-11-19T14:49:51Z</time>
      </trkpt>
      <trkpt lat="43.01908" lon="0.19808">
        <ele>1167.9</ele>
        <time>2023-11-19T14:49:52Z</time>
      </trkpt>
      <trkpt lat="43.01908" lon="0.19808">
        <ele>1167.9</ele>
        <time>2023-11-19T14:49:53Z</time>
      </trkpt>
      <trkpt lat="43.01908" lon="0.19808">
        <ele>1167.9</ele>
        <time>2023-11-19T14:49:54Z</time>
      </trkpt>
      <trkpt lat="43.01907" lon="0.19808">
        <ele>1167.9</ele>
        <time>2023-11-19T14:49:55Z</time>
      </trkpt>
      <trkpt lat="43.01907" lon="0.19808">
        <ele>1167.8</ele>
        <time>2023-11-19T14:49:56Z</time>
      </trkpt>
      <trkpt lat="43.01907" lon="0.19808">
        <ele>1167.8</ele>
        <time>2023-11-19T14:49:57Z</time>
      </trkpt>
      <trkpt lat="43.01907" lon="0.19808">
        <ele>1167.8</ele>
        <time>2023-11-19T14:49:58Z</time>
      </trkpt>
      <trkpt lat="43.01907" lon="0.19808">
        <ele>1167.8</ele>
        <time>2023-11-19T14:49:59Z</time>
      </trkpt>
      <trkpt lat="43.01907" lon="0.19808">
        <ele>1167.8</ele>
        <time>2023-11-19T14:50:00Z</time>
      </trkpt>
      <trkpt lat="43.01907" lon="0.19808">
        <ele>1167.8</ele>
        <time>2023-11-19T14:50:01Z</time>
      </trkpt>
      <trkpt lat="43.01907" lon="0.19808">
        <ele>1167.7</ele>
        <time>2023-11-19T14:50:02Z</time>
      </trkpt>
      <trkpt lat="43.01907" lon="0.19808">
        <ele>1167.7</ele>
        <time>2023-11-19T14:50:03Z</time>
      </trkpt>
      <trkpt lat="43.01907" lon="0.19808">
        <ele>1167.7</ele>
        <time>2023-11-19T14:50:04Z</time>
      </trkpt>
      <trkpt lat="43.01907" lon="0.19808">
        <ele>1167.7</ele>
        <time>2023-11-19T14:50:05Z</time>
      </trkpt>
      <trkpt lat="43.01906" lon="0.19808">
        <ele>1167.7</ele>
        <time>2023-11-19T14:50:06Z</time>
      </trkpt>
      <trkpt lat="43.01906" lon="0.19807">
        <ele>1167.6</ele>
        <time>2023-11-19T14:50:07Z</time>
      </trkpt>
      <trkpt lat="43.01906" lon="0.19807">
        <ele>1167.6</ele>
        <time>2023-11-19T14:50:08Z</time>
      </trkpt>
      <trkpt lat="43.01906" lon="0.19807">
        <ele>1167.6</ele>
        <time>2023-11-19T14:50:09Z</time>
      </trkpt>
      <trkpt lat="43.01906" lon="0.19807">
        <ele>1167.6</ele>
        <time>2023-11-19T14:50:10Z</time>
      </trkpt>
      <trkpt lat="43.01906" lon="0.19807">
        <ele>1167.6</ele>
        <time>2023-11-19T14:50:11Z</time>
      </trkpt>
      <trkpt lat="43.01906" lon="0.19807">
        <ele>1167.6</ele>
        <time>2023-11-19T14:50:12Z</time>
      </trkpt>
      <trkpt lat="43.01906" lon="0.19807">
        <ele>1167.6</ele>
        <time>2023-11-19T14:50:13Z</time>
      </trkpt>
      <trkpt lat="43.01906" lon="0.19807">
        <ele>1167.5</ele>
        <time>2023-11-19T14:50:14Z</time>
      </trkpt>
      <trkpt lat="43.01906" lon="0.19807">
        <ele>1167.5</ele>
        <time>2023-11-19T14:50:15Z</time>
      </trkpt>
      <trkpt lat="43.01906" lon="0.19807">
        <ele>1167.5</ele>
        <time>2023-11-19T14:50:16Z</time>
      </trkpt>
      <trkpt lat="43.01906" lon="0.19807">
        <ele>1167.5</ele>
        <time>2023-11-19T14:50:17Z</time>
      </trkpt>
      <trkpt lat="43.01905" lon="0.19807">
        <ele>1167.5</ele>
        <time>2023-11-19T14:50:18Z</time>
      </trkpt>
      <trkpt lat="43.01905" lon="0.19807">
        <ele>1167.5</ele>
        <time>2023-11-19T14:50:19Z</time>
      </trkpt>
      <trkpt lat="43.01905" lon="0.19807">
        <ele>1167.4</ele>
        <time>2023-11-19T14:50:20Z</time>
      </trkpt>
      <trkpt lat="43.01905" lon="0.19807">
        <ele>1167.4</ele>
        <time>2023-11-19T14:50:21Z</time>
      </trkpt>
      <trkpt lat="43.01904" lon="0.19807">
        <ele>1167.2</ele>
        <time>2023-11-19T14:50:22Z</time>
      </trkpt>
      <trkpt lat="43.01903" lon="0.19807">
        <ele>1167</ele>
        <time>2023-11-19T14:50:23Z</time>
      </trkpt>
      <trkpt lat="43.01902" lon="0.19806">
        <ele>1166.8</ele>
        <time>2023-11-19T14:50:24Z</time>
      </trkpt>
      <trkpt lat="43.01902" lon="0.19806">
        <ele>1166.7</ele>
        <time>2023-11-19T14:50:25Z</time>
      </trkpt>
      <trkpt lat="43.01901" lon="0.19805">
        <ele>1166.5</ele>
        <time>2023-11-19T14:50:26Z</time>
      </trkpt>
      <trkpt lat="43.019" lon="0.19804">
        <ele>1166.3</ele>
        <time>2023-11-19T14:50:27Z</time>
      </trkpt>
      <trkpt lat="43.01899" lon="0.19803">
        <ele>1166.1</ele>
        <time>2023-11-19T14:50:28Z</time>
      </trkpt>
      <trkpt lat="43.01898" lon="0.19803">
        <ele>1166</ele>
        <time>2023-11-19T14:50:29Z</time>
      </trkpt>
      <trkpt lat="43.01898" lon="0.19803">
        <ele>1165.8</ele>
        <time>2023-11-19T14:50:30Z</time>
      </trkpt>
      <trkpt lat="43.01897" lon="0.19803">
        <ele>1165.7</ele>
        <time>2023-11-19T14:50:31Z</time>
      </trkpt>
      <trkpt lat="43.01896" lon="0.19802">
        <ele>1165.4</ele>
        <time>2023-11-19T14:50:32Z</time>
      </trkpt>
      <trkpt lat="43.01894" lon="0.19801">
        <ele>1165.2</ele>
        <time>2023-11-19T14:50:33Z</time>
      </trkpt>
      <trkpt lat="43.01893" lon="0.198">
        <ele>1164.9</ele>
        <time>2023-11-19T14:50:34Z</time>
      </trkpt>
      <trkpt lat="43.01892" lon="0.19799">
        <ele>1164.7</ele>
        <time>2023-11-19T14:50:35Z</time>
      </trkpt>
      <trkpt lat="43.01891" lon="0.19798">
        <ele>1164.5</ele>
        <time>2023-11-19T14:50:36Z</time>
      </trkpt>
      <trkpt lat="43.01891" lon="0.19797">
        <ele>1164.3</ele>
        <time>2023-11-19T14:50:37Z</time>
      </trkpt>
      <trkpt lat="43.0189" lon="0.19794">
        <ele>1164</ele>
        <time>2023-11-19T14:50:38Z</time>
      </trkpt>
      <trkpt lat="43.01889" lon="0.19793">
        <ele>1163.7</ele>
        <time>2023-11-19T14:50:39Z</time>
      </trkpt>
      <trkpt lat="43.01888" lon="0.19793">
        <ele>1163.6</ele>
        <time>2023-11-19T14:50:40Z</time>
      </trkpt>
      <trkpt lat="43.01887" lon="0.19793">
        <ele>1163.4</ele>
        <time>2023-11-19T14:50:41Z</time>
      </trkpt>
      <trkpt lat="43.01886" lon="0.19793">
        <ele>1163.1</ele>
        <time>2023-11-19T14:50:42Z</time>
      </trkpt>
      <trkpt lat="43.01885" lon="0.19793">
        <ele>1163</ele>
        <time>2023-11-19T14:50:43Z</time>
      </trkpt>
      <trkpt lat="43.01885" lon="0.19793">
        <ele>1162.9</ele>
        <time>2023-11-19T14:50:44Z</time>
      </trkpt>
      <trkpt lat="43.01884" lon="0.19794">
        <ele>1162.8</ele>
        <time>2023-11-19T14:50:45Z</time>
      </trkpt>
      <trkpt lat="43.01884" lon="0.19794">
        <ele>1162.7</ele>
        <time>2023-11-19T14:50:46Z</time>
      </trkpt>
      <trkpt lat="43.01883" lon="0.19794">
        <ele>1162.6</ele>
        <time>2023-11-19T14:50:47Z</time>
      </trkpt>
      <trkpt lat="43.01881" lon="0.19793">
        <ele>1162.2</ele>
        <time>2023-11-19T14:50:48Z</time>
      </trkpt>
      <trkpt lat="43.0188" lon="0.19792">
        <ele>1162.1</ele>
        <time>2023-11-19T14:50:49Z</time>
      </trkpt>
      <trkpt lat="43.0188" lon="0.19791">
        <ele>1161.9</ele>
        <time>2023-11-19T14:50:50Z</time>
      </trkpt>
      <trkpt lat="43.01878" lon="0.19791">
        <ele>1161.7</ele>
        <time>2023-11-19T14:50:51Z</time>
      </trkpt>
      <trkpt lat="43.01878" lon="0.19792">
        <ele>1161.5</ele>
        <time>2023-11-19T14:50:52Z</time>
      </trkpt>
      <trkpt lat="43.01878" lon="0.19791">
        <ele>1161.3</ele>
        <time>2023-11-19T14:50:53Z</time>
      </trkpt>
      <trkpt lat="43.01877" lon="0.19789">
        <ele>1161.1</ele>
        <time>2023-11-19T14:50:54Z</time>
      </trkpt>
      <trkpt lat="43.01875" lon="0.19788">
        <ele>1160.7</ele>
        <time>2023-11-19T14:50:55Z</time>
      </trkpt>
      <trkpt lat="43.01875" lon="0.19786">
        <ele>1160.4</ele>
        <time>2023-11-19T14:50:56Z</time>
      </trkpt>
      <trkpt lat="43.01874" lon="0.19787">
        <ele>1160.3</ele>
        <time>2023-11-19T14:50:57Z</time>
      </trkpt>
      <trkpt lat="43.01873" lon="0.19786">
        <ele>1160.1</ele>
        <time>2023-11-19T14:50:58Z</time>
      </trkpt>
      <trkpt lat="43.01872" lon="0.19786">
        <ele>1159.9</ele>
        <time>2023-11-19T14:50:59Z</time>
      </trkpt>
      <trkpt lat="43.01871" lon="0.19785">
        <ele>1159.8</ele>
        <time>2023-11-19T14:51:00Z</time>
      </trkpt>
      <trkpt lat="43.01871" lon="0.19784">
        <ele>1159.6</ele>
        <time>2023-11-19T14:51:01Z</time>
      </trkpt>
      <trkpt lat="43.01871" lon="0.19784">
        <ele>1159.6</ele>
        <time>2023-11-19T14:51:02Z</time>
      </trkpt>
      <trkpt lat="43.0187" lon="0.19783">
        <ele>1159.4</ele>
        <time>2023-11-19T14:51:03Z</time>
      </trkpt>
      <trkpt lat="43.01871" lon="0.19781">
        <ele>1159.2</ele>
        <time>2023-11-19T14:51:04Z</time>
      </trkpt>
      <trkpt lat="43.01871" lon="0.19781">
        <ele>1159.1</ele>
        <time>2023-11-19T14:51:05Z</time>
      </trkpt>
      <trkpt lat="43.01871" lon="0.19782">
        <ele>1159</ele>
        <time>2023-11-19T14:51:06Z</time>
      </trkpt>
      <trkpt lat="43.0187" lon="0.19782">
        <ele>1159</ele>
        <time>2023-11-19T14:51:07Z</time>
      </trkpt>
      <trkpt lat="43.01871" lon="0.19781">
        <ele>1158.8</ele>
        <time>2023-11-19T14:51:08Z</time>
      </trkpt>
      <trkpt lat="43.0187" lon="0.19781">
        <ele>1158.8</ele>
        <time>2023-11-19T14:51:09Z</time>
      </trkpt>
      <trkpt lat="43.0187" lon="0.1978">
        <ele>1158.7</ele>
        <time>2023-11-19T14:51:10Z</time>
      </trkpt>
      <trkpt lat="43.01871" lon="0.19779">
        <ele>1158.5</ele>
        <time>2023-11-19T14:51:11Z</time>
      </trkpt>
      <trkpt lat="43.0187" lon="0.19779">
        <ele>1158.5</ele>
        <time>2023-11-19T14:51:12Z</time>
      </trkpt>
      <trkpt lat="43.0187" lon="0.19779">
        <ele>1158.4</ele>
        <time>2023-11-19T14:51:13Z</time>
      </trkpt>
      <trkpt lat="43.0187" lon="0.1978">
        <ele>1158.3</ele>
        <time>2023-11-19T14:51:14Z</time>
      </trkpt>
      <trkpt lat="43.01869" lon="0.19781">
        <ele>1158.2</ele>
        <time>2023-11-19T14:51:15Z</time>
      </trkpt>
      <trkpt lat="43.01869" lon="0.19779">
        <ele>1158</ele>
        <time>2023-11-19T14:51:16Z</time>
      </trkpt>
      <trkpt lat="43.01869" lon="0.19779">
        <ele>1157.9</ele>
        <time>2023-11-19T14:51:17Z</time>
      </trkpt>
      <trkpt lat="43.01869" lon="0.19779">
        <ele>1157.9</ele>
        <time>2023-11-19T14:51:18Z</time>
      </trkpt>
      <trkpt lat="43.01869" lon="0.19779">
        <ele>1157.8</ele>
        <time>2023-11-19T14:51:19Z</time>
      </trkpt>
      <trkpt lat="43.01869" lon="0.19779">
        <ele>1157.8</ele>
        <time>2023-11-19T14:51:20Z</time>
      </trkpt>
      <trkpt lat="43.01869" lon="0.19779">
        <ele>1157.8</ele>
        <time>2023-11-19T14:51:21Z</time>
      </trkpt>
      <trkpt lat="43.01869" lon="0.1978">
        <ele>1157.7</ele>
        <time>2023-11-19T14:51:22Z</time>
      </trkpt>
      <trkpt lat="43.01868" lon="0.1978">
        <ele>1157.6</ele>
        <time>2023-11-19T14:51:23Z</time>
      </trkpt>
      <trkpt lat="43.01868" lon="0.19782">
        <ele>1157.4</ele>
        <time>2023-11-19T14:51:24Z</time>
      </trkpt>
      <trkpt lat="43.01869" lon="0.19782">
        <ele>1157.2</ele>
        <time>2023-11-19T14:51:25Z</time>
      </trkpt>
      <trkpt lat="43.0187" lon="0.19783">
        <ele>1157</ele>
        <time>2023-11-19T14:51:26Z</time>
      </trkpt>
      <trkpt lat="43.01869" lon="0.19781">
        <ele>1156.8</ele>
        <time>2023-11-19T14:51:27Z</time>
      </trkpt>
      <trkpt lat="43.01869" lon="0.19781">
        <ele>1156.7</ele>
        <time>2023-11-19T14:51:28Z</time>
      </trkpt>
      <trkpt lat="43.01869" lon="0.1978">
        <ele>1156.6</ele>
        <time>2023-11-19T14:51:29Z</time>
      </trkpt>
      <trkpt lat="43.01869" lon="0.19779">
        <ele>1156.5</ele>
        <time>2023-11-19T14:51:30Z</time>
      </trkpt>
      <trkpt lat="43.01868" lon="0.19778">
        <ele>1156.4</ele>
        <time>2023-11-19T14:51:31Z</time>
      </trkpt>
      <trkpt lat="43.01867" lon="0.19777">
        <ele>1156</ele>
        <time>2023-11-19T14:51:32Z</time>
      </trkpt>
      <trkpt lat="43.01866" lon="0.19774">
        <ele>1155.7</ele>
        <time>2023-11-19T14:51:33Z</time>
      </trkpt>
      <trkpt lat="43.01866" lon="0.19773">
        <ele>1155.5</ele>
        <time>2023-11-19T14:51:34Z</time>
      </trkpt>
      <trkpt lat="43.01866" lon="0.19772">
        <ele>1155.4</ele>
        <time>2023-11-19T14:51:35Z</time>
      </trkpt>
      <trkpt lat="43.01864" lon="0.19771">
        <ele>1155.1</ele>
        <time>2023-11-19T14:51:36Z</time>
      </trkpt>
      <trkpt lat="43.01863" lon="0.19771">
        <ele>1155</ele>
        <time>2023-11-19T14:51:37Z</time>
      </trkpt>
      <trkpt lat="43.01863" lon="0.1977">
        <ele>1154.8</ele>
        <time>2023-11-19T14:51:38Z</time>
      </trkpt>
      <trkpt lat="43.01864" lon="0.1977">
        <ele>1154.6</ele>
        <time>2023-11-19T14:51:39Z</time>
      </trkpt>
      <trkpt lat="43.01863" lon="0.19768">
        <ele>1154.3</ele>
        <time>2023-11-19T14:51:40Z</time>
      </trkpt>
      <trkpt lat="43.01862" lon="0.19767">
        <ele>1154.1</ele>
        <time>2023-11-19T14:51:41Z</time>
      </trkpt>
      <trkpt lat="43.01862" lon="0.19765">
        <ele>1153.9</ele>
        <time>2023-11-19T14:51:42Z</time>
      </trkpt>
      <trkpt lat="43.01862" lon="0.19763">
        <ele>1153.5</ele>
        <time>2023-11-19T14:51:43Z</time>
      </trkpt>
      <trkpt lat="43.01862" lon="0.19758">
        <ele>1152.9</ele>
        <time>2023-11-19T14:51:44Z</time>
      </trkpt>
      <trkpt lat="43.01862" lon="0.19756">
        <ele>1152.7</ele>
        <time>2023-11-19T14:51:45Z</time>
      </trkpt>
      <trkpt lat="43.01863" lon="0.19756">
        <ele>1152.5</ele>
        <time>2023-11-19T14:51:46Z</time>
      </trkpt>
      <trkpt lat="43.01862" lon="0.19757">
        <ele>1152.3</ele>
        <time>2023-11-19T14:51:47Z</time>
      </trkpt>
      <trkpt lat="43.01861" lon="0.19757">
        <ele>1152.2</ele>
        <time>2023-11-19T14:51:48Z</time>
      </trkpt>
      <trkpt lat="43.01862" lon="0.19755">
        <ele>1152</ele>
        <time>2023-11-19T14:51:49Z</time>
      </trkpt>
      <trkpt lat="43.0186" lon="0.19756">
        <ele>1151.7</ele>
        <time>2023-11-19T14:51:50Z</time>
      </trkpt>
      <trkpt lat="43.01859" lon="0.19756">
        <ele>1151.6</ele>
        <time>2023-11-19T14:51:51Z</time>
      </trkpt>
      <trkpt lat="43.01858" lon="0.19755">
        <ele>1151.4</ele>
        <time>2023-11-19T14:51:52Z</time>
      </trkpt>
      <trkpt lat="43.01857" lon="0.19757">
        <ele>1151.1</ele>
        <time>2023-11-19T14:51:53Z</time>
      </trkpt>
      <trkpt lat="43.01858" lon="0.19756">
        <ele>1150.9</ele>
        <time>2023-11-19T14:51:54Z</time>
      </trkpt>
      <trkpt lat="43.01858" lon="0.19755">
        <ele>1150.8</ele>
        <time>2023-11-19T14:51:55Z</time>
      </trkpt>
      <trkpt lat="43.01857" lon="0.19753">
        <ele>1150.5</ele>
        <time>2023-11-19T14:51:56Z</time>
      </trkpt>
      <trkpt lat="43.01857" lon="0.19754">
        <ele>1150.5</ele>
        <time>2023-11-19T14:51:57Z</time>
      </trkpt>
      <trkpt lat="43.01857" lon="0.19751">
        <ele>1150.1</ele>
        <time>2023-11-19T14:51:58Z</time>
      </trkpt>
      <trkpt lat="43.01856" lon="0.19751">
        <ele>1149.9</ele>
        <time>2023-11-19T14:51:59Z</time>
      </trkpt>
      <trkpt lat="43.01854" lon="0.19751">
        <ele>1149.7</ele>
        <time>2023-11-19T14:52:00Z</time>
      </trkpt>
      <trkpt lat="43.01854" lon="0.1975">
        <ele>1149.6</ele>
        <time>2023-11-19T14:52:01Z</time>
      </trkpt>
      <trkpt lat="43.01854" lon="0.19749">
        <ele>1149.5</ele>
        <time>2023-11-19T14:52:02Z</time>
      </trkpt>
      <trkpt lat="43.01853" lon="0.19748">
        <ele>1149.3</ele>
        <time>2023-11-19T14:52:03Z</time>
      </trkpt>
      <trkpt lat="43.01853" lon="0.19749">
        <ele>1149.3</ele>
        <time>2023-11-19T14:52:04Z</time>
      </trkpt>
      <trkpt lat="43.01852" lon="0.19748">
        <ele>1149.2</ele>
        <time>2023-11-19T14:52:05Z</time>
      </trkpt>
      <trkpt lat="43.01852" lon="0.19747">
        <ele>1149.1</ele>
        <time>2023-11-19T14:52:06Z</time>
      </trkpt>
      <trkpt lat="43.01852" lon="0.19747">
        <ele>1149</ele>
        <time>2023-11-19T14:52:07Z</time>
      </trkpt>
      <trkpt lat="43.01851" lon="0.19747">
        <ele>1148.9</ele>
        <time>2023-11-19T14:52:08Z</time>
      </trkpt>
      <trkpt lat="43.01851" lon="0.19747">
        <ele>1148.8</ele>
        <time>2023-11-19T14:52:09Z</time>
      </trkpt>
      <trkpt lat="43.01851" lon="0.19745">
        <ele>1148.6</ele>
        <time>2023-11-19T14:52:10Z</time>
      </trkpt>
      <trkpt lat="43.0185" lon="0.19744">
        <ele>1148.4</ele>
        <time>2023-11-19T14:52:11Z</time>
      </trkpt>
      <trkpt lat="43.0185" lon="0.19743">
        <ele>1148.3</ele>
        <time>2023-11-19T14:52:12Z</time>
      </trkpt>
      <trkpt lat="43.01849" lon="0.19742">
        <ele>1148.2</ele>
        <time>2023-11-19T14:52:13Z</time>
      </trkpt>
      <trkpt lat="43.01849" lon="0.19742">
        <ele>1148.1</ele>
        <time>2023-11-19T14:52:14Z</time>
      </trkpt>
      <trkpt lat="43.01848" lon="0.19741">
        <ele>1147.9</ele>
        <time>2023-11-19T14:52:15Z</time>
      </trkpt>
      <trkpt lat="43.01848" lon="0.1974">
        <ele>1147.8</ele>
        <time>2023-11-19T14:52:16Z</time>
      </trkpt>
      <trkpt lat="43.01848" lon="0.19739">
        <ele>1147.7</ele>
        <time>2023-11-19T14:52:17Z</time>
      </trkpt>
      <trkpt lat="43.01849" lon="0.19738">
        <ele>1147.7</ele>
        <time>2023-11-19T14:52:18Z</time>
      </trkpt>
      <trkpt lat="43.01847" lon="0.19736">
        <ele>1147.3</ele>
        <time>2023-11-19T14:52:19Z</time>
      </trkpt>
      <trkpt lat="43.01848" lon="0.19735">
        <ele>1147.2</ele>
        <time>2023-11-19T14:52:20Z</time>
      </trkpt>
      <trkpt lat="43.01848" lon="0.19735">
        <ele>1147.2</ele>
        <time>2023-11-19T14:52:21Z</time>
      </trkpt>
      <trkpt lat="43.01848" lon="0.19734">
        <ele>1147.1</ele>
        <time>2023-11-19T14:52:22Z</time>
      </trkpt>
      <trkpt lat="43.01848" lon="0.19733">
        <ele>1147</ele>
        <time>2023-11-19T14:52:23Z</time>
      </trkpt>
      <trkpt lat="43.01848" lon="0.19734">
        <ele>1146.8</ele>
        <time>2023-11-19T14:52:24Z</time>
      </trkpt>
      <trkpt lat="43.01847" lon="0.19732">
        <ele>1146.5</ele>
        <time>2023-11-19T14:52:25Z</time>
      </trkpt>
      <trkpt lat="43.01846" lon="0.1973">
        <ele>1146.2</ele>
        <time>2023-11-19T14:52:26Z</time>
      </trkpt>
      <trkpt lat="43.01846" lon="0.19729">
        <ele>1146.1</ele>
        <time>2023-11-19T14:52:27Z</time>
      </trkpt>
      <trkpt lat="43.01846" lon="0.19728">
        <ele>1146</ele>
        <time>2023-11-19T14:52:28Z</time>
      </trkpt>
      <trkpt lat="43.01846" lon="0.19727">
        <ele>1145.8</ele>
        <time>2023-11-19T14:52:29Z</time>
      </trkpt>
      <trkpt lat="43.01845" lon="0.19726">
        <ele>1145.7</ele>
        <time>2023-11-19T14:52:30Z</time>
      </trkpt>
      <trkpt lat="43.01845" lon="0.19724">
        <ele>1145.4</ele>
        <time>2023-11-19T14:52:31Z</time>
      </trkpt>
      <trkpt lat="43.01844" lon="0.19723">
        <ele>1145.3</ele>
        <time>2023-11-19T14:52:32Z</time>
      </trkpt>
      <trkpt lat="43.01844" lon="0.19722">
        <ele>1145.1</ele>
        <time>2023-11-19T14:52:33Z</time>
      </trkpt>
      <trkpt lat="43.01843" lon="0.19721">
        <ele>1144.9</ele>
        <time>2023-11-19T14:52:34Z</time>
      </trkpt>
      <trkpt lat="43.01843" lon="0.19719">
        <ele>1144.6</ele>
        <time>2023-11-19T14:52:35Z</time>
      </trkpt>
      <trkpt lat="43.01842" lon="0.19717">
        <ele>1144.3</ele>
        <time>2023-11-19T14:52:36Z</time>
      </trkpt>
      <trkpt lat="43.01842" lon="0.19715">
        <ele>1144</ele>
        <time>2023-11-19T14:52:37Z</time>
      </trkpt>
      <trkpt lat="43.01841" lon="0.19714">
        <ele>1143.9</ele>
        <time>2023-11-19T14:52:38Z</time>
      </trkpt>
      <trkpt lat="43.0184" lon="0.19713">
        <ele>1143.6</ele>
        <time>2023-11-19T14:52:39Z</time>
      </trkpt>
      <trkpt lat="43.0184" lon="0.19714">
        <ele>1143.5</ele>
        <time>2023-11-19T14:52:40Z</time>
      </trkpt>
      <trkpt lat="43.01839" lon="0.19712">
        <ele>1143.2</ele>
        <time>2023-11-19T14:52:41Z</time>
      </trkpt>
      <trkpt lat="43.01839" lon="0.19712">
        <ele>1143.1</ele>
        <time>2023-11-19T14:52:42Z</time>
      </trkpt>
      <trkpt lat="43.01838" lon="0.19712">
        <ele>1142.9</ele>
        <time>2023-11-19T14:52:43Z</time>
      </trkpt>
      <trkpt lat="43.01836" lon="0.19711">
        <ele>1142.5</ele>
        <time>2023-11-19T14:52:44Z</time>
      </trkpt>
      <trkpt lat="43.01835" lon="0.1971">
        <ele>1142.4</ele>
        <time>2023-11-19T14:52:45Z</time>
      </trkpt>
      <trkpt lat="43.01835" lon="0.1971">
        <ele>1142.3</ele>
        <time>2023-11-19T14:52:46Z</time>
      </trkpt>
      <trkpt lat="43.01835" lon="0.19709">
        <ele>1142.1</ele>
        <time>2023-11-19T14:52:47Z</time>
      </trkpt>
      <trkpt lat="43.01835" lon="0.19708">
        <ele>1142</ele>
        <time>2023-11-19T14:52:48Z</time>
      </trkpt>
      <trkpt lat="43.01835" lon="0.19706">
        <ele>1141.7</ele>
        <time>2023-11-19T14:52:49Z</time>
      </trkpt>
      <trkpt lat="43.01834" lon="0.19706">
        <ele>1141.6</ele>
        <time>2023-11-19T14:52:50Z</time>
      </trkpt>
      <trkpt lat="43.01834" lon="0.19705">
        <ele>1141.5</ele>
        <time>2023-11-19T14:52:51Z</time>
      </trkpt>
      <trkpt lat="43.01833" lon="0.19705">
        <ele>1141.4</ele>
        <time>2023-11-19T14:52:52Z</time>
      </trkpt>
      <trkpt lat="43.01832" lon="0.19705">
        <ele>1141.1</ele>
        <time>2023-11-19T14:52:53Z</time>
      </trkpt>
      <trkpt lat="43.01832" lon="0.19703">
        <ele>1140.9</ele>
        <time>2023-11-19T14:52:54Z</time>
      </trkpt>
      <trkpt lat="43.01832" lon="0.19702">
        <ele>1140.7</ele>
        <time>2023-11-19T14:52:55Z</time>
      </trkpt>
      <trkpt lat="43.01831" lon="0.19701">
        <ele>1140.5</ele>
        <time>2023-11-19T14:52:56Z</time>
      </trkpt>
      <trkpt lat="43.01831" lon="0.197">
        <ele>1140.3</ele>
        <time>2023-11-19T14:52:57Z</time>
      </trkpt>
      <trkpt lat="43.0183" lon="0.197">
        <ele>1140.1</ele>
        <time>2023-11-19T14:52:58Z</time>
      </trkpt>
      <trkpt lat="43.01829" lon="0.197">
        <ele>1139.9</ele>
        <time>2023-11-19T14:52:59Z</time>
      </trkpt>
      <trkpt lat="43.01829" lon="0.19699">
        <ele>1139.8</ele>
        <time>2023-11-19T14:53:00Z</time>
      </trkpt>
      <trkpt lat="43.01828" lon="0.19698">
        <ele>1139.6</ele>
        <time>2023-11-19T14:53:01Z</time>
      </trkpt>
      <trkpt lat="43.01827" lon="0.19697">
        <ele>1139.4</ele>
        <time>2023-11-19T14:53:02Z</time>
      </trkpt>
      <trkpt lat="43.01826" lon="0.19696">
        <ele>1139.2</ele>
        <time>2023-11-19T14:53:03Z</time>
      </trkpt>
      <trkpt lat="43.01826" lon="0.19695">
        <ele>1139</ele>
        <time>2023-11-19T14:53:04Z</time>
      </trkpt>
      <trkpt lat="43.01825" lon="0.19694">
        <ele>1138.7</ele>
        <time>2023-11-19T14:53:05Z</time>
      </trkpt>
      <trkpt lat="43.01824" lon="0.19694">
        <ele>1138.6</ele>
        <time>2023-11-19T14:53:06Z</time>
      </trkpt>
      <trkpt lat="43.01824" lon="0.19692">
        <ele>1138.4</ele>
        <time>2023-11-19T14:53:07Z</time>
      </trkpt>
      <trkpt lat="43.01824" lon="0.19692">
        <ele>1138.3</ele>
        <time>2023-11-19T14:53:08Z</time>
      </trkpt>
      <trkpt lat="43.01824" lon="0.19692">
        <ele>1138.3</ele>
        <time>2023-11-19T14:53:09Z</time>
      </trkpt>
      <trkpt lat="43.01824" lon="0.19692">
        <ele>1138.3</ele>
        <time>2023-11-19T14:53:10Z</time>
      </trkpt>
      <trkpt lat="43.01824" lon="0.19692">
        <ele>1138.2</ele>
        <time>2023-11-19T14:53:11Z</time>
      </trkpt>
      <trkpt lat="43.01824" lon="0.19691">
        <ele>1138.1</ele>
        <time>2023-11-19T14:53:12Z</time>
      </trkpt>
      <trkpt lat="43.01823" lon="0.19691">
        <ele>1138</ele>
        <time>2023-11-19T14:53:13Z</time>
      </trkpt>
      <trkpt lat="43.01823" lon="0.1969">
        <ele>1137.8</ele>
        <time>2023-11-19T14:53:14Z</time>
      </trkpt>
      <trkpt lat="43.01823" lon="0.1969">
        <ele>1137.7</ele>
        <time>2023-11-19T14:53:15Z</time>
      </trkpt>
      <trkpt lat="43.01823" lon="0.19689">
        <ele>1137.6</ele>
        <time>2023-11-19T14:53:16Z</time>
      </trkpt>
      <trkpt lat="43.01822" lon="0.19689">
        <ele>1137.4</ele>
        <time>2023-11-19T14:53:17Z</time>
      </trkpt>
      <trkpt lat="43.01821" lon="0.19687">
        <ele>1137.1</ele>
        <time>2023-11-19T14:53:18Z</time>
      </trkpt>
      <trkpt lat="43.01821" lon="0.19686">
        <ele>1136.9</ele>
        <time>2023-11-19T14:53:19Z</time>
      </trkpt>
      <trkpt lat="43.01821" lon="0.19686">
        <ele>1136.8</ele>
        <time>2023-11-19T14:53:20Z</time>
      </trkpt>
      <trkpt lat="43.01821" lon="0.19685">
        <ele>1136.7</ele>
        <time>2023-11-19T14:53:21Z</time>
      </trkpt>
      <trkpt lat="43.0182" lon="0.19684">
        <ele>1136.5</ele>
        <time>2023-11-19T14:53:22Z</time>
      </trkpt>
      <trkpt lat="43.0182" lon="0.19684">
        <ele>1136.5</ele>
        <time>2023-11-19T14:53:23Z</time>
      </trkpt>
      <trkpt lat="43.0182" lon="0.19683">
        <ele>1136.3</ele>
        <time>2023-11-19T14:53:24Z</time>
      </trkpt>
      <trkpt lat="43.0182" lon="0.19682">
        <ele>1136.2</ele>
        <time>2023-11-19T14:53:25Z</time>
      </trkpt>
      <trkpt lat="43.01819" lon="0.1968">
        <ele>1136</ele>
        <time>2023-11-19T14:53:26Z</time>
      </trkpt>
      <trkpt lat="43.01819" lon="0.1968">
        <ele>1135.9</ele>
        <time>2023-11-19T14:53:27Z</time>
      </trkpt>
      <trkpt lat="43.01818" lon="0.1968">
        <ele>1135.7</ele>
        <time>2023-11-19T14:53:28Z</time>
      </trkpt>
      <trkpt lat="43.01818" lon="0.19679">
        <ele>1135.6</ele>
        <time>2023-11-19T14:53:29Z</time>
      </trkpt>
      <trkpt lat="43.01817" lon="0.19677">
        <ele>1135.3</ele>
        <time>2023-11-19T14:53:30Z</time>
      </trkpt>
      <trkpt lat="43.01817" lon="0.19676">
        <ele>1135.2</ele>
        <time>2023-11-19T14:53:31Z</time>
      </trkpt>
      <trkpt lat="43.01817" lon="0.19675">
        <ele>1135.1</ele>
        <time>2023-11-19T14:53:32Z</time>
      </trkpt>
      <trkpt lat="43.01816" lon="0.19674">
        <ele>1134.9</ele>
        <time>2023-11-19T14:53:33Z</time>
      </trkpt>
      <trkpt lat="43.01816" lon="0.19674">
        <ele>1134.8</ele>
        <time>2023-11-19T14:53:34Z</time>
      </trkpt>
      <trkpt lat="43.01815" lon="0.19673">
        <ele>1134.6</ele>
        <time>2023-11-19T14:53:35Z</time>
      </trkpt>
      <trkpt lat="43.01814" lon="0.19673">
        <ele>1134.5</ele>
        <time>2023-11-19T14:53:36Z</time>
      </trkpt>
      <trkpt lat="43.01814" lon="0.19673">
        <ele>1134.5</ele>
        <time>2023-11-19T14:53:37Z</time>
      </trkpt>
      <trkpt lat="43.01814" lon="0.19673">
        <ele>1134.4</ele>
        <time>2023-11-19T14:53:38Z</time>
      </trkpt>
      <trkpt lat="43.01814" lon="0.19674">
        <ele>1134.4</ele>
        <time>2023-11-19T14:53:39Z</time>
      </trkpt>
      <trkpt lat="43.01813" lon="0.19674">
        <ele>1134.3</ele>
        <time>2023-11-19T14:53:40Z</time>
      </trkpt>
      <trkpt lat="43.01813" lon="0.19674">
        <ele>1134.3</ele>
        <time>2023-11-19T14:53:41Z</time>
      </trkpt>
      <trkpt lat="43.01813" lon="0.19674">
        <ele>1134.2</ele>
        <time>2023-11-19T14:53:42Z</time>
      </trkpt>
      <trkpt lat="43.01813" lon="0.19674">
        <ele>1134.2</ele>
        <time>2023-11-19T14:53:43Z</time>
      </trkpt>
      <trkpt lat="43.01812" lon="0.19675">
        <ele>1134.1</ele>
        <time>2023-11-19T14:53:44Z</time>
      </trkpt>
      <trkpt lat="43.01812" lon="0.19675">
        <ele>1134.1</ele>
        <time>2023-11-19T14:53:45Z</time>
      </trkpt>
      <trkpt lat="43.01812" lon="0.19675">
        <ele>1134</ele>
        <time>2023-11-19T14:53:46Z</time>
      </trkpt>
      <trkpt lat="43.01812" lon="0.19675">
        <ele>1133.9</ele>
        <time>2023-11-19T14:53:47Z</time>
      </trkpt>
      <trkpt lat="43.01811" lon="0.19676">
        <ele>1133.9</ele>
        <time>2023-11-19T14:53:48Z</time>
      </trkpt>
      <trkpt lat="43.01811" lon="0.19676">
        <ele>1133.8</ele>
        <time>2023-11-19T14:53:49Z</time>
      </trkpt>
      <trkpt lat="43.01812" lon="0.19675">
        <ele>1133.7</ele>
        <time>2023-11-19T14:53:50Z</time>
      </trkpt>
      <trkpt lat="43.01812" lon="0.19675">
        <ele>1133.6</ele>
        <time>2023-11-19T14:53:51Z</time>
      </trkpt>
      <trkpt lat="43.01812" lon="0.19676">
        <ele>1133.5</ele>
        <time>2023-11-19T14:53:52Z</time>
      </trkpt>
      <trkpt lat="43.01812" lon="0.19677">
        <ele>1133.4</ele>
        <time>2023-11-19T14:53:53Z</time>
      </trkpt>
      <trkpt lat="43.01812" lon="0.19677">
        <ele>1133.4</ele>
        <time>2023-11-19T14:53:54Z</time>
      </trkpt>
      <trkpt lat="43.01812" lon="0.19678">
        <ele>1133.2</ele>
        <time>2023-11-19T14:53:55Z</time>
      </trkpt>
      <trkpt lat="43.01812" lon="0.19679">
        <ele>1133.1</ele>
        <time>2023-11-19T14:53:56Z</time>
      </trkpt>
      <trkpt lat="43.01813" lon="0.19679">
        <ele>1132.9</ele>
        <time>2023-11-19T14:53:57Z</time>
      </trkpt>
      <trkpt lat="43.01813" lon="0.1968">
        <ele>1132.8</ele>
        <time>2023-11-19T14:53:58Z</time>
      </trkpt>
      <trkpt lat="43.01814" lon="0.19681">
        <ele>1132.6</ele>
        <time>2023-11-19T14:53:59Z</time>
      </trkpt>
      <trkpt lat="43.01814" lon="0.19682">
        <ele>1132.5</ele>
        <time>2023-11-19T14:54:00Z</time>
      </trkpt>
      <trkpt lat="43.01815" lon="0.19682">
        <ele>1132.4</ele>
        <time>2023-11-19T14:54:01Z</time>
      </trkpt>
      <trkpt lat="43.01814" lon="0.19682">
        <ele>1132.3</ele>
        <time>2023-11-19T14:54:02Z</time>
      </trkpt>
      <trkpt lat="43.01815" lon="0.19683">
        <ele>1132.1</ele>
        <time>2023-11-19T14:54:03Z</time>
      </trkpt>
      <trkpt lat="43.01814" lon="0.19685">
        <ele>1131.9</ele>
        <time>2023-11-19T14:54:04Z</time>
      </trkpt>
      <trkpt lat="43.01815" lon="0.19685">
        <ele>1131.8</ele>
        <time>2023-11-19T14:54:05Z</time>
      </trkpt>
      <trkpt lat="43.01815" lon="0.19687">
        <ele>1131.6</ele>
        <time>2023-11-19T14:54:06Z</time>
      </trkpt>
      <trkpt lat="43.01816" lon="0.19688">
        <ele>1131.4</ele>
        <time>2023-11-19T14:54:07Z</time>
      </trkpt>
      <trkpt lat="43.01816" lon="0.19688">
        <ele>1131.4</ele>
        <time>2023-11-19T14:54:08Z</time>
      </trkpt>
      <trkpt lat="43.01816" lon="0.19688">
        <ele>1131.3</ele>
        <time>2023-11-19T14:54:09Z</time>
      </trkpt>
      <trkpt lat="43.01816" lon="0.19689">
        <ele>1131.3</ele>
        <time>2023-11-19T14:54:10Z</time>
      </trkpt>
      <trkpt lat="43.01816" lon="0.19689">
        <ele>1131.2</ele>
        <time>2023-11-19T14:54:11Z</time>
      </trkpt>
      <trkpt lat="43.01816" lon="0.1969">
        <ele>1131.1</ele>
        <time>2023-11-19T14:54:12Z</time>
      </trkpt>
      <trkpt lat="43.01815" lon="0.1969">
        <ele>1131.1</ele>
        <time>2023-11-19T14:54:13Z</time>
      </trkpt>
      <trkpt lat="43.01815" lon="0.19691">
        <ele>1131</ele>
        <time>2023-11-19T14:54:14Z</time>
      </trkpt>
      <trkpt lat="43.01815" lon="0.19691">
        <ele>1131</ele>
        <time>2023-11-19T14:54:15Z</time>
      </trkpt>
      <trkpt lat="43.01815" lon="0.19692">
        <ele>1130.9</ele>
        <time>2023-11-19T14:54:16Z</time>
      </trkpt>
      <trkpt lat="43.01815" lon="0.19692">
        <ele>1130.9</ele>
        <time>2023-11-19T14:54:17Z</time>
      </trkpt>
      <trkpt lat="43.01815" lon="0.19692">
        <ele>1130.8</ele>
        <time>2023-11-19T14:54:18Z</time>
      </trkpt>
      <trkpt lat="43.01815" lon="0.19693">
        <ele>1130.8</ele>
        <time>2023-11-19T14:54:19Z</time>
      </trkpt>
      <trkpt lat="43.01815" lon="0.19693">
        <ele>1130.7</ele>
        <time>2023-11-19T14:54:20Z</time>
      </trkpt>
      <trkpt lat="43.01816" lon="0.19693">
        <ele>1130.6</ele>
        <time>2023-11-19T14:54:21Z</time>
      </trkpt>
      <trkpt lat="43.01816" lon="0.19693">
        <ele>1130.6</ele>
        <time>2023-11-19T14:54:22Z</time>
      </trkpt>
      <trkpt lat="43.01816" lon="0.19693">
        <ele>1130.6</ele>
        <time>2023-11-19T14:54:23Z</time>
      </trkpt>
      <trkpt lat="43.01816" lon="0.19693">
        <ele>1130.6</ele>
        <time>2023-11-19T14:54:24Z</time>
      </trkpt>
      <trkpt lat="43.01816" lon="0.19693">
        <ele>1130.6</ele>
        <time>2023-11-19T14:54:25Z</time>
      </trkpt>
      <trkpt lat="43.01816" lon="0.19693">
        <ele>1130.6</ele>
        <time>2023-11-19T14:54:26Z</time>
      </trkpt>
      <trkpt lat="43.01816" lon="0.19693">
        <ele>1130.6</ele>
        <time>2023-11-19T14:54:27Z</time>
      </trkpt>
      <trkpt lat="43.01816" lon="0.19693">
        <ele>1130.6</ele>
        <time>2023-11-19T14:54:28Z</time>
      </trkpt>
      <trkpt lat="43.01817" lon="0.19695">
        <ele>1130.4</ele>
        <time>2023-11-19T14:54:29Z</time>
      </trkpt>
      <trkpt lat="43.01816" lon="0.19695">
        <ele>1130.3</ele>
        <time>2023-11-19T14:54:30Z</time>
      </trkpt>
      <trkpt lat="43.01815" lon="0.19697">
        <ele>1130</ele>
        <time>2023-11-19T14:54:31Z</time>
      </trkpt>
      <trkpt lat="43.01814" lon="0.19697">
        <ele>1129.8</ele>
        <time>2023-11-19T14:54:32Z</time>
      </trkpt>
      <trkpt lat="43.01812" lon="0.19697">
        <ele>1129.5</ele>
        <time>2023-11-19T14:54:33Z</time>
      </trkpt>
      <trkpt lat="43.01811" lon="0.19697">
        <ele>1129.3</ele>
        <time>2023-11-19T14:54:34Z</time>
      </trkpt>
      <trkpt lat="43.0181" lon="0.19697">
        <ele>1129.2</ele>
        <time>2023-11-19T14:54:35Z</time>
      </trkpt>
      <trkpt lat="43.0181" lon="0.19696">
        <ele>1129.1</ele>
        <time>2023-11-19T14:54:36Z</time>
      </trkpt>
      <trkpt lat="43.01809" lon="0.19696">
        <ele>1128.9</ele>
        <time>2023-11-19T14:54:37Z</time>
      </trkpt>
      <trkpt lat="43.01808" lon="0.19696">
        <ele>1128.8</ele>
        <time>2023-11-19T14:54:38Z</time>
      </trkpt>
      <trkpt lat="43.01808" lon="0.19695">
        <ele>1128.6</ele>
        <time>2023-11-19T14:54:39Z</time>
      </trkpt>
      <trkpt lat="43.01807" lon="0.19694">
        <ele>1128.5</ele>
        <time>2023-11-19T14:54:40Z</time>
      </trkpt>
      <trkpt lat="43.01806" lon="0.19693">
        <ele>1128.3</ele>
        <time>2023-11-19T14:54:41Z</time>
      </trkpt>
      <trkpt lat="43.01806" lon="0.19692">
        <ele>1128.2</ele>
        <time>2023-11-19T14:54:42Z</time>
      </trkpt>
      <trkpt lat="43.01805" lon="0.19692">
        <ele>1128.1</ele>
        <time>2023-11-19T14:54:43Z</time>
      </trkpt>
      <trkpt lat="43.01805" lon="0.19691">
        <ele>1128</ele>
        <time>2023-11-19T14:54:44Z</time>
      </trkpt>
      <trkpt lat="43.01804" lon="0.19692">
        <ele>1127.9</ele>
        <time>2023-11-19T14:54:45Z</time>
      </trkpt>
      <trkpt lat="43.01804" lon="0.1969">
        <ele>1127.8</ele>
        <time>2023-11-19T14:54:46Z</time>
      </trkpt>
      <trkpt lat="43.01804" lon="0.1969">
        <ele>1127.7</ele>
        <time>2023-11-19T14:54:47Z</time>
      </trkpt>
      <trkpt lat="43.01803" lon="0.19689">
        <ele>1127.4</ele>
        <time>2023-11-19T14:54:48Z</time>
      </trkpt>
      <trkpt lat="43.01802" lon="0.19689">
        <ele>1127.2</ele>
        <time>2023-11-19T14:54:49Z</time>
      </trkpt>
      <trkpt lat="43.01801" lon="0.1969">
        <ele>1127.1</ele>
        <time>2023-11-19T14:54:50Z</time>
      </trkpt>
      <trkpt lat="43.01802" lon="0.19688">
        <ele>1127</ele>
        <time>2023-11-19T14:54:51Z</time>
      </trkpt>
      <trkpt lat="43.01802" lon="0.19688">
        <ele>1126.8</ele>
        <time>2023-11-19T14:54:52Z</time>
      </trkpt>
      <trkpt lat="43.01802" lon="0.19688">
        <ele>1126.8</ele>
        <time>2023-11-19T14:54:53Z</time>
      </trkpt>
      <trkpt lat="43.01802" lon="0.19688">
        <ele>1126.8</ele>
        <time>2023-11-19T14:54:54Z</time>
      </trkpt>
      <trkpt lat="43.01802" lon="0.19688">
        <ele>1126.7</ele>
        <time>2023-11-19T14:54:55Z</time>
      </trkpt>
      <trkpt lat="43.01802" lon="0.19688">
        <ele>1126.7</ele>
        <time>2023-11-19T14:54:56Z</time>
      </trkpt>
      <trkpt lat="43.01802" lon="0.19687">
        <ele>1126.7</ele>
        <time>2023-11-19T14:54:57Z</time>
      </trkpt>
      <trkpt lat="43.01802" lon="0.19687">
        <ele>1126.5</ele>
        <time>2023-11-19T14:54:58Z</time>
      </trkpt>
      <trkpt lat="43.01803" lon="0.19687">
        <ele>1126.5</ele>
        <time>2023-11-19T14:54:59Z</time>
      </trkpt>
      <trkpt lat="43.01802" lon="0.19688">
        <ele>1126.4</ele>
        <time>2023-11-19T14:55:00Z</time>
      </trkpt>
      <trkpt lat="43.01802" lon="0.19688">
        <ele>1126.4</ele>
        <time>2023-11-19T14:55:01Z</time>
      </trkpt>
      <trkpt lat="43.01802" lon="0.19688">
        <ele>1126.4</ele>
        <time>2023-11-19T14:55:02Z</time>
      </trkpt>
      <trkpt lat="43.01802" lon="0.19688">
        <ele>1126.4</ele>
        <time>2023-11-19T14:55:03Z</time>
      </trkpt>
      <trkpt lat="43.01802" lon="0.19688">
        <ele>1126.4</ele>
        <time>2023-11-19T14:55:04Z</time>
      </trkpt>
      <trkpt lat="43.01802" lon="0.19688">
        <ele>1126.4</ele>
        <time>2023-11-19T14:55:05Z</time>
      </trkpt>
      <trkpt lat="43.01802" lon="0.19688">
        <ele>1126.4</ele>
        <time>2023-11-19T14:55:06Z</time>
      </trkpt>
      <trkpt lat="43.01802" lon="0.19688">
        <ele>1126.4</ele>
        <time>2023-11-19T14:55:07Z</time>
      </trkpt>
      <trkpt lat="43.01802" lon="0.19688">
        <ele>1126.4</ele>
        <time>2023-11-19T14:55:08Z</time>
      </trkpt>
      <trkpt lat="43.01799" lon="0.1969">
        <ele>1125.8</ele>
        <time>2023-11-19T14:55:09Z</time>
      </trkpt>
      <trkpt lat="43.01799" lon="0.1969">
        <ele>1125.8</ele>
        <time>2023-11-19T14:55:10Z</time>
      </trkpt>
      <trkpt lat="43.01798" lon="0.19691">
        <ele>1125.7</ele>
        <time>2023-11-19T14:55:11Z</time>
      </trkpt>
      <trkpt lat="43.01798" lon="0.19691">
        <ele>1125.6</ele>
        <time>2023-11-19T14:55:12Z</time>
      </trkpt>
      <trkpt lat="43.01798" lon="0.1969">
        <ele>1125.6</ele>
        <time>2023-11-19T14:55:13Z</time>
      </trkpt>
      <trkpt lat="43.01798" lon="0.1969">
        <ele>1125.5</ele>
        <time>2023-11-19T14:55:14Z</time>
      </trkpt>
      <trkpt lat="43.01797" lon="0.1969">
        <ele>1125.4</ele>
        <time>2023-11-19T14:55:15Z</time>
      </trkpt>
      <trkpt lat="43.01796" lon="0.1969">
        <ele>1125.2</ele>
        <time>2023-11-19T14:55:16Z</time>
      </trkpt>
      <trkpt lat="43.01796" lon="0.1969">
        <ele>1125.1</ele>
        <time>2023-11-19T14:55:17Z</time>
      </trkpt>
      <trkpt lat="43.01795" lon="0.1969">
        <ele>1125</ele>
        <time>2023-11-19T14:55:18Z</time>
      </trkpt>
      <trkpt lat="43.01794" lon="0.19689">
        <ele>1124.8</ele>
        <time>2023-11-19T14:55:19Z</time>
      </trkpt>
      <trkpt lat="43.01793" lon="0.19689">
        <ele>1124.7</ele>
        <time>2023-11-19T14:55:20Z</time>
      </trkpt>
      <trkpt lat="43.01791" lon="0.1969">
        <ele>1124.3</ele>
        <time>2023-11-19T14:55:21Z</time>
      </trkpt>
      <trkpt lat="43.0179" lon="0.19691">
        <ele>1124.1</ele>
        <time>2023-11-19T14:55:22Z</time>
      </trkpt>
      <trkpt lat="43.01788" lon="0.19691">
        <ele>1123.9</ele>
        <time>2023-11-19T14:55:23Z</time>
      </trkpt>
      <trkpt lat="43.01788" lon="0.19692">
        <ele>1123.8</ele>
        <time>2023-11-19T14:55:24Z</time>
      </trkpt>
      <trkpt lat="43.01788" lon="0.19691">
        <ele>1123.7</ele>
        <time>2023-11-19T14:55:25Z</time>
      </trkpt>
      <trkpt lat="43.01787" lon="0.19691">
        <ele>1123.6</ele>
        <time>2023-11-19T14:55:26Z</time>
      </trkpt>
      <trkpt lat="43.01786" lon="0.1969">
        <ele>1123.4</ele>
        <time>2023-11-19T14:55:27Z</time>
      </trkpt>
      <trkpt lat="43.01786" lon="0.1969">
        <ele>1123.3</ele>
        <time>2023-11-19T14:55:28Z</time>
      </trkpt>
      <trkpt lat="43.01785" lon="0.19689">
        <ele>1123.2</ele>
        <time>2023-11-19T14:55:29Z</time>
      </trkpt>
      <trkpt lat="43.01784" lon="0.19689">
        <ele>1123</ele>
        <time>2023-11-19T14:55:30Z</time>
      </trkpt>
      <trkpt lat="43.01784" lon="0.19688">
        <ele>1122.9</ele>
        <time>2023-11-19T14:55:31Z</time>
      </trkpt>
      <trkpt lat="43.01784" lon="0.19689">
        <ele>1122.8</ele>
        <time>2023-11-19T14:55:32Z</time>
      </trkpt>
      <trkpt lat="43.01783" lon="0.1969">
        <ele>1122.7</ele>
        <time>2023-11-19T14:55:33Z</time>
      </trkpt>
      <trkpt lat="43.01783" lon="0.19689">
        <ele>1122.7</ele>
        <time>2023-11-19T14:55:34Z</time>
      </trkpt>
      <trkpt lat="43.01783" lon="0.19689">
        <ele>1122.6</ele>
        <time>2023-11-19T14:55:35Z</time>
      </trkpt>
      <trkpt lat="43.01782" lon="0.19689">
        <ele>1122.5</ele>
        <time>2023-11-19T14:55:36Z</time>
      </trkpt>
      <trkpt lat="43.01781" lon="0.19689">
        <ele>1122.3</ele>
        <time>2023-11-19T14:55:37Z</time>
      </trkpt>
      <trkpt lat="43.01781" lon="0.19688">
        <ele>1122.2</ele>
        <time>2023-11-19T14:55:38Z</time>
      </trkpt>
      <trkpt lat="43.0178" lon="0.19687">
        <ele>1122</ele>
        <time>2023-11-19T14:55:39Z</time>
      </trkpt>
      <trkpt lat="43.01779" lon="0.19687">
        <ele>1121.9</ele>
        <time>2023-11-19T14:55:40Z</time>
      </trkpt>
      <trkpt lat="43.01779" lon="0.19686">
        <ele>1121.7</ele>
        <time>2023-11-19T14:55:41Z</time>
      </trkpt>
      <trkpt lat="43.01779" lon="0.19686">
        <ele>1121.7</ele>
        <time>2023-11-19T14:55:42Z</time>
      </trkpt>
      <trkpt lat="43.01779" lon="0.19686">
        <ele>1121.6</ele>
        <time>2023-11-19T14:55:43Z</time>
      </trkpt>
      <trkpt lat="43.01778" lon="0.19686">
        <ele>1121.6</ele>
        <time>2023-11-19T14:55:44Z</time>
      </trkpt>
      <trkpt lat="43.01777" lon="0.19685">
        <ele>1121.4</ele>
        <time>2023-11-19T14:55:45Z</time>
      </trkpt>
      <trkpt lat="43.01776" lon="0.19684">
        <ele>1121.2</ele>
        <time>2023-11-19T14:55:46Z</time>
      </trkpt>
      <trkpt lat="43.01776" lon="0.19684">
        <ele>1121.1</ele>
        <time>2023-11-19T14:55:47Z</time>
      </trkpt>
      <trkpt lat="43.01775" lon="0.19684">
        <ele>1120.9</ele>
        <time>2023-11-19T14:55:48Z</time>
      </trkpt>
      <trkpt lat="43.01774" lon="0.19683">
        <ele>1120.8</ele>
        <time>2023-11-19T14:55:49Z</time>
      </trkpt>
      <trkpt lat="43.01773" lon="0.19683">
        <ele>1120.6</ele>
        <time>2023-11-19T14:55:50Z</time>
      </trkpt>
      <trkpt lat="43.01774" lon="0.19682">
        <ele>1120.4</ele>
        <time>2023-11-19T14:55:51Z</time>
      </trkpt>
      <trkpt lat="43.01775" lon="0.19681">
        <ele>1120.3</ele>
        <time>2023-11-19T14:55:52Z</time>
      </trkpt>
      <trkpt lat="43.01775" lon="0.19681">
        <ele>1120.2</ele>
        <time>2023-11-19T14:55:53Z</time>
      </trkpt>
      <trkpt lat="43.01776" lon="0.19681">
        <ele>1120.1</ele>
        <time>2023-11-19T14:55:54Z</time>
      </trkpt>
      <trkpt lat="43.01777" lon="0.19681">
        <ele>1120</ele>
        <time>2023-11-19T14:55:55Z</time>
      </trkpt>
      <trkpt lat="43.01777" lon="0.19682">
        <ele>1119.8</ele>
        <time>2023-11-19T14:55:56Z</time>
      </trkpt>
      <trkpt lat="43.01777" lon="0.19682">
        <ele>1119.8</ele>
        <time>2023-11-19T14:55:57Z</time>
      </trkpt>
      <trkpt lat="43.01777" lon="0.19682">
        <ele>1119.7</ele>
        <time>2023-11-19T14:55:58Z</time>
      </trkpt>
      <trkpt lat="43.01777" lon="0.19682">
        <ele>1119.7</ele>
        <time>2023-11-19T14:55:59Z</time>
      </trkpt>
      <trkpt lat="43.01776" lon="0.19682">
        <ele>1119.7</ele>
        <time>2023-11-19T14:56:00Z</time>
      </trkpt>
      <trkpt lat="43.01776" lon="0.19681">
        <ele>1119.6</ele>
        <time>2023-11-19T14:56:01Z</time>
      </trkpt>
      <trkpt lat="43.01776" lon="0.19681">
        <ele>1119.6</ele>
        <time>2023-11-19T14:56:02Z</time>
      </trkpt>
      <trkpt lat="43.01776" lon="0.19681">
        <ele>1119.6</ele>
        <time>2023-11-19T14:56:03Z</time>
      </trkpt>
      <trkpt lat="43.01776" lon="0.19681">
        <ele>1119.6</ele>
        <time>2023-11-19T14:56:04Z</time>
      </trkpt>
      <trkpt lat="43.01776" lon="0.19681">
        <ele>1119.5</ele>
        <time>2023-11-19T14:56:05Z</time>
      </trkpt>
      <trkpt lat="43.01776" lon="0.19681">
        <ele>1119.5</ele>
        <time>2023-11-19T14:56:06Z</time>
      </trkpt>
      <trkpt lat="43.01776" lon="0.19681">
        <ele>1119.5</ele>
        <time>2023-11-19T14:56:07Z</time>
      </trkpt>
      <trkpt lat="43.01775" lon="0.19681">
        <ele>1119.4</ele>
        <time>2023-11-19T14:56:08Z</time>
      </trkpt>
      <trkpt lat="43.01775" lon="0.1968">
        <ele>1119.4</ele>
        <time>2023-11-19T14:56:09Z</time>
      </trkpt>
      <trkpt lat="43.01775" lon="0.1968">
        <ele>1119.4</ele>
        <time>2023-11-19T14:56:10Z</time>
      </trkpt>
      <trkpt lat="43.01775" lon="0.1968">
        <ele>1119.3</ele>
        <time>2023-11-19T14:56:11Z</time>
      </trkpt>
      <trkpt lat="43.01775" lon="0.1968">
        <ele>1119.3</ele>
        <time>2023-11-19T14:56:12Z</time>
      </trkpt>
      <trkpt lat="43.01775" lon="0.1968">
        <ele>1119.3</ele>
        <time>2023-11-19T14:56:13Z</time>
      </trkpt>
      <trkpt lat="43.01775" lon="0.1968">
        <ele>1119.3</ele>
        <time>2023-11-19T14:56:14Z</time>
      </trkpt>
      <trkpt lat="43.01775" lon="0.1968">
        <ele>1119.2</ele>
        <time>2023-11-19T14:56:15Z</time>
      </trkpt>
      <trkpt lat="43.01774" lon="0.19679">
        <ele>1119.2</ele>
        <time>2023-11-19T14:56:16Z</time>
      </trkpt>
      <trkpt lat="43.01774" lon="0.19679">
        <ele>1119.2</ele>
        <time>2023-11-19T14:56:17Z</time>
      </trkpt>
      <trkpt lat="43.01774" lon="0.19679">
        <ele>1119.1</ele>
        <time>2023-11-19T14:56:18Z</time>
      </trkpt>
      <trkpt lat="43.01774" lon="0.19679">
        <ele>1119.1</ele>
        <time>2023-11-19T14:56:19Z</time>
      </trkpt>
      <trkpt lat="43.01774" lon="0.19679">
        <ele>1119.1</ele>
        <time>2023-11-19T14:56:20Z</time>
      </trkpt>
      <trkpt lat="43.01774" lon="0.19679">
        <ele>1119</ele>
        <time>2023-11-19T14:56:21Z</time>
      </trkpt>
      <trkpt lat="43.01774" lon="0.19679">
        <ele>1119</ele>
        <time>2023-11-19T14:56:22Z</time>
      </trkpt>
      <trkpt lat="43.01774" lon="0.19679">
        <ele>1119</ele>
        <time>2023-11-19T14:56:23Z</time>
      </trkpt>
      <trkpt lat="43.01774" lon="0.19678">
        <ele>1119</ele>
        <time>2023-11-19T14:56:24Z</time>
      </trkpt>
      <trkpt lat="43.01773" lon="0.19678">
        <ele>1118.9</ele>
        <time>2023-11-19T14:56:25Z</time>
      </trkpt>
      <trkpt lat="43.01773" lon="0.19678">
        <ele>1118.9</ele>
        <time>2023-11-19T14:56:26Z</time>
      </trkpt>
      <trkpt lat="43.01772" lon="0.19678">
        <ele>1118.6</ele>
        <time>2023-11-19T14:56:27Z</time>
      </trkpt>
      <trkpt lat="43.0177" lon="0.19678">
        <ele>1118.2</ele>
        <time>2023-11-19T14:56:28Z</time>
      </trkpt>
      <trkpt lat="43.01767" lon="0.19677">
        <ele>1117.7</ele>
        <time>2023-11-19T14:56:29Z</time>
      </trkpt>
      <trkpt lat="43.01767" lon="0.19676">
        <ele>1117.5</ele>
        <time>2023-11-19T14:56:30Z</time>
      </trkpt>
      <trkpt lat="43.01766" lon="0.19676">
        <ele>1117.4</ele>
        <time>2023-11-19T14:56:31Z</time>
      </trkpt>
      <trkpt lat="43.01764" lon="0.19675">
        <ele>1117.1</ele>
        <time>2023-11-19T14:56:32Z</time>
      </trkpt>
      <trkpt lat="43.01764" lon="0.19674">
        <ele>1116.9</ele>
        <time>2023-11-19T14:56:33Z</time>
      </trkpt>
      <trkpt lat="43.01763" lon="0.19674">
        <ele>1116.7</ele>
        <time>2023-11-19T14:56:34Z</time>
      </trkpt>
      <trkpt lat="43.01762" lon="0.19674">
        <ele>1116.6</ele>
        <time>2023-11-19T14:56:35Z</time>
      </trkpt>
      <trkpt lat="43.0176" lon="0.19673">
        <ele>1116.2</ele>
        <time>2023-11-19T14:56:37Z</time>
      </trkpt>
      <trkpt lat="43.01759" lon="0.19673">
        <ele>1116</ele>
        <time>2023-11-19T14:56:38Z</time>
      </trkpt>
      <trkpt lat="43.01758" lon="0.19673">
        <ele>1115.9</ele>
        <time>2023-11-19T14:56:39Z</time>
      </trkpt>
      <trkpt lat="43.01758" lon="0.19672">
        <ele>1115.7</ele>
        <time>2023-11-19T14:56:40Z</time>
      </trkpt>
      <trkpt lat="43.01757" lon="0.19671">
        <ele>1115.5</ele>
        <time>2023-11-19T14:56:41Z</time>
      </trkpt>
      <trkpt lat="43.01756" lon="0.19669">
        <ele>1115.2</ele>
        <time>2023-11-19T14:56:42Z</time>
      </trkpt>
      <trkpt lat="43.01756" lon="0.1967">
        <ele>1115</ele>
        <time>2023-11-19T14:56:43Z</time>
      </trkpt>
      <trkpt lat="43.01755" lon="0.19669">
        <ele>1114.8</ele>
        <time>2023-11-19T14:56:44Z</time>
      </trkpt>
      <trkpt lat="43.01753" lon="0.19669">
        <ele>1114.6</ele>
        <time>2023-11-19T14:56:45Z</time>
      </trkpt>
      <trkpt lat="43.01751" lon="0.19668">
        <ele>1114.1</ele>
        <time>2023-11-19T14:56:46Z</time>
      </trkpt>
      <trkpt lat="43.0175" lon="0.19668">
        <ele>1113.9</ele>
        <time>2023-11-19T14:56:47Z</time>
      </trkpt>
      <trkpt lat="43.01749" lon="0.19667">
        <ele>1113.6</ele>
        <time>2023-11-19T14:56:48Z</time>
      </trkpt>
      <trkpt lat="43.01748" lon="0.19666">
        <ele>1113.3</ele>
        <time>2023-11-19T14:56:49Z</time>
      </trkpt>
      <trkpt lat="43.01747" lon="0.19664">
        <ele>1113</ele>
        <time>2023-11-19T14:56:50Z</time>
      </trkpt>
      <trkpt lat="43.01746" lon="0.19663">
        <ele>1112.7</ele>
        <time>2023-11-19T14:56:51Z</time>
      </trkpt>
      <trkpt lat="43.01745" lon="0.19662">
        <ele>1112.4</ele>
        <time>2023-11-19T14:56:52Z</time>
      </trkpt>
      <trkpt lat="43.01744" lon="0.19661">
        <ele>1112.2</ele>
        <time>2023-11-19T14:56:53Z</time>
      </trkpt>
      <trkpt lat="43.01743" lon="0.1966">
        <ele>1112</ele>
        <time>2023-11-19T14:56:54Z</time>
      </trkpt>
      <trkpt lat="43.01743" lon="0.1966">
        <ele>1112</ele>
        <time>2023-11-19T14:56:55Z</time>
      </trkpt>
      <trkpt lat="43.01742" lon="0.19661">
        <ele>1111.7</ele>
        <time>2023-11-19T14:56:56Z</time>
      </trkpt>
      <trkpt lat="43.01742" lon="0.19659">
        <ele>1111.5</ele>
        <time>2023-11-19T14:56:57Z</time>
      </trkpt>
      <trkpt lat="43.01741" lon="0.19657">
        <ele>1111.2</ele>
        <time>2023-11-19T14:56:58Z</time>
      </trkpt>
      <trkpt lat="43.0174" lon="0.19656">
        <ele>1110.9</ele>
        <time>2023-11-19T14:56:59Z</time>
      </trkpt>
      <trkpt lat="43.01739" lon="0.19656">
        <ele>1110.7</ele>
        <time>2023-11-19T14:57:00Z</time>
      </trkpt>
      <trkpt lat="43.01738" lon="0.19657">
        <ele>1110.5</ele>
        <time>2023-11-19T14:57:01Z</time>
      </trkpt>
      <trkpt lat="43.01737" lon="0.19656">
        <ele>1110.3</ele>
        <time>2023-11-19T14:57:02Z</time>
      </trkpt>
      <trkpt lat="43.01737" lon="0.19655">
        <ele>1110.1</ele>
        <time>2023-11-19T14:57:03Z</time>
      </trkpt>
      <trkpt lat="43.01736" lon="0.19653">
        <ele>1109.8</ele>
        <time>2023-11-19T14:57:04Z</time>
      </trkpt>
      <trkpt lat="43.01736" lon="0.19652">
        <ele>1109.6</ele>
        <time>2023-11-19T14:57:05Z</time>
      </trkpt>
      <trkpt lat="43.01735" lon="0.19651">
        <ele>1109.4</ele>
        <time>2023-11-19T14:57:06Z</time>
      </trkpt>
      <trkpt lat="43.01735" lon="0.1965">
        <ele>1109.3</ele>
        <time>2023-11-19T14:57:07Z</time>
      </trkpt>
      <trkpt lat="43.01735" lon="0.19649">
        <ele>1109.1</ele>
        <time>2023-11-19T14:57:08Z</time>
      </trkpt>
      <trkpt lat="43.01734" lon="0.19649">
        <ele>1109</ele>
        <time>2023-11-19T14:57:09Z</time>
      </trkpt>
      <trkpt lat="43.01733" lon="0.19648">
        <ele>1108.7</ele>
        <time>2023-11-19T14:57:10Z</time>
      </trkpt>
      <trkpt lat="43.01733" lon="0.19648">
        <ele>1108.6</ele>
        <time>2023-11-19T14:57:11Z</time>
      </trkpt>
      <trkpt lat="43.01732" lon="0.19648">
        <ele>1108.5</ele>
        <time>2023-11-19T14:57:12Z</time>
      </trkpt>
      <trkpt lat="43.01732" lon="0.19648">
        <ele>1108.3</ele>
        <time>2023-11-19T14:57:13Z</time>
      </trkpt>
      <trkpt lat="43.01731" lon="0.19647">
        <ele>1108.2</ele>
        <time>2023-11-19T14:57:14Z</time>
      </trkpt>
      <trkpt lat="43.0173" lon="0.19646">
        <ele>1108</ele>
        <time>2023-11-19T14:57:15Z</time>
      </trkpt>
      <trkpt lat="43.01729" lon="0.19645">
        <ele>1107.7</ele>
        <time>2023-11-19T14:57:16Z</time>
      </trkpt>
      <trkpt lat="43.01728" lon="0.19645">
        <ele>1107.5</ele>
        <time>2023-11-19T14:57:17Z</time>
      </trkpt>
      <trkpt lat="43.01728" lon="0.19647">
        <ele>1107.3</ele>
        <time>2023-11-19T14:57:18Z</time>
      </trkpt>
      <trkpt lat="43.01728" lon="0.19647">
        <ele>1107.2</ele>
        <time>2023-11-19T14:57:19Z</time>
      </trkpt>
      <trkpt lat="43.01727" lon="0.19647">
        <ele>1107.1</ele>
        <time>2023-11-19T14:57:20Z</time>
      </trkpt>
      <trkpt lat="43.01724" lon="0.19647">
        <ele>1106.6</ele>
        <time>2023-11-19T14:57:21Z</time>
      </trkpt>
      <trkpt lat="43.01724" lon="0.19646">
        <ele>1106.4</ele>
        <time>2023-11-19T14:57:22Z</time>
      </trkpt>
      <trkpt lat="43.01724" lon="0.19646">
        <ele>1106.3</ele>
        <time>2023-11-19T14:57:23Z</time>
      </trkpt>
      <trkpt lat="43.01724" lon="0.19645">
        <ele>1106.1</ele>
        <time>2023-11-19T14:57:24Z</time>
      </trkpt>
      <trkpt lat="43.01724" lon="0.19644">
        <ele>1105.9</ele>
        <time>2023-11-19T14:57:25Z</time>
      </trkpt>
      <trkpt lat="43.01723" lon="0.19645">
        <ele>1105.8</ele>
        <time>2023-11-19T14:57:26Z</time>
      </trkpt>
      <trkpt lat="43.01722" lon="0.19644">
        <ele>1105.5</ele>
        <time>2023-11-19T14:57:27Z</time>
      </trkpt>
      <trkpt lat="43.01721" lon="0.19644">
        <ele>1105.4</ele>
        <time>2023-11-19T14:57:28Z</time>
      </trkpt>
      <trkpt lat="43.01721" lon="0.19644">
        <ele>1105.3</ele>
        <time>2023-11-19T14:57:29Z</time>
      </trkpt>
      <trkpt lat="43.0172" lon="0.19643">
        <ele>1105.1</ele>
        <time>2023-11-19T14:57:30Z</time>
      </trkpt>
      <trkpt lat="43.01719" lon="0.19642">
        <ele>1104.8</ele>
        <time>2023-11-19T14:57:31Z</time>
      </trkpt>
      <trkpt lat="43.01718" lon="0.19642">
        <ele>1104.5</ele>
        <time>2023-11-19T14:57:32Z</time>
      </trkpt>
      <trkpt lat="43.01717" lon="0.19641">
        <ele>1104.4</ele>
        <time>2023-11-19T14:57:33Z</time>
      </trkpt>
      <trkpt lat="43.01716" lon="0.19642">
        <ele>1104.1</ele>
        <time>2023-11-19T14:57:34Z</time>
      </trkpt>
      <trkpt lat="43.01715" lon="0.19642">
        <ele>1103.9</ele>
        <time>2023-11-19T14:57:35Z</time>
      </trkpt>
      <trkpt lat="43.01715" lon="0.19641">
        <ele>1103.9</ele>
        <time>2023-11-19T14:57:36Z</time>
      </trkpt>
      <trkpt lat="43.01714" lon="0.19642">
        <ele>1103.6</ele>
        <time>2023-11-19T14:57:37Z</time>
      </trkpt>
      <trkpt lat="43.01713" lon="0.19641">
        <ele>1103.5</ele>
        <time>2023-11-19T14:57:38Z</time>
      </trkpt>
      <trkpt lat="43.01712" lon="0.19642">
        <ele>1103.3</ele>
        <time>2023-11-19T14:57:39Z</time>
      </trkpt>
      <trkpt lat="43.01712" lon="0.19641">
        <ele>1103.1</ele>
        <time>2023-11-19T14:57:40Z</time>
      </trkpt>
      <trkpt lat="43.0171" lon="0.19641">
        <ele>1102.8</ele>
        <time>2023-11-19T14:57:41Z</time>
      </trkpt>
      <trkpt lat="43.0171" lon="0.19641">
        <ele>1102.7</ele>
        <time>2023-11-19T14:57:42Z</time>
      </trkpt>
      <trkpt lat="43.01709" lon="0.19641">
        <ele>1102.5</ele>
        <time>2023-11-19T14:57:43Z</time>
      </trkpt>
      <trkpt lat="43.01708" lon="0.19641">
        <ele>1102.4</ele>
        <time>2023-11-19T14:57:44Z</time>
      </trkpt>
      <trkpt lat="43.01708" lon="0.1964">
        <ele>1102.2</ele>
        <time>2023-11-19T14:57:45Z</time>
      </trkpt>
      <trkpt lat="43.01707" lon="0.1964">
        <ele>1102.1</ele>
        <time>2023-11-19T14:57:46Z</time>
      </trkpt>
      <trkpt lat="43.01706" lon="0.19641">
        <ele>1101.8</ele>
        <time>2023-11-19T14:57:47Z</time>
      </trkpt>
      <trkpt lat="43.01706" lon="0.19641">
        <ele>1101.7</ele>
        <time>2023-11-19T14:57:48Z</time>
      </trkpt>
      <trkpt lat="43.01705" lon="0.1964">
        <ele>1101.5</ele>
        <time>2023-11-19T14:57:49Z</time>
      </trkpt>
      <trkpt lat="43.01704" lon="0.19639">
        <ele>1101.3</ele>
        <time>2023-11-19T14:57:50Z</time>
      </trkpt>
      <trkpt lat="43.01704" lon="0.19637">
        <ele>1101.1</ele>
        <time>2023-11-19T14:57:51Z</time>
      </trkpt>
      <trkpt lat="43.01704" lon="0.19637">
        <ele>1101</ele>
        <time>2023-11-19T14:57:52Z</time>
      </trkpt>
      <trkpt lat="43.01703" lon="0.19637">
        <ele>1100.8</ele>
        <time>2023-11-19T14:57:53Z</time>
      </trkpt>
      <trkpt lat="43.01703" lon="0.19636">
        <ele>1100.7</ele>
        <time>2023-11-19T14:57:54Z</time>
      </trkpt>
      <trkpt lat="43.01701" lon="0.19636">
        <ele>1100.5</ele>
        <time>2023-11-19T14:57:55Z</time>
      </trkpt>
      <trkpt lat="43.01701" lon="0.19637">
        <ele>1100.4</ele>
        <time>2023-11-19T14:57:56Z</time>
      </trkpt>
      <trkpt lat="43.01702" lon="0.19637">
        <ele>1100.3</ele>
        <time>2023-11-19T14:57:57Z</time>
      </trkpt>
      <trkpt lat="43.017" lon="0.19637">
        <ele>1100</ele>
        <time>2023-11-19T14:57:58Z</time>
      </trkpt>
      <trkpt lat="43.01699" lon="0.19637">
        <ele>1099.8</ele>
        <time>2023-11-19T14:57:59Z</time>
      </trkpt>
      <trkpt lat="43.01699" lon="0.19637">
        <ele>1099.8</ele>
        <time>2023-11-19T14:58:00Z</time>
      </trkpt>
      <trkpt lat="43.01698" lon="0.19636">
        <ele>1099.5</ele>
        <time>2023-11-19T14:58:01Z</time>
      </trkpt>
      <trkpt lat="43.01698" lon="0.19637">
        <ele>1099.3</ele>
        <time>2023-11-19T14:58:02Z</time>
      </trkpt>
      <trkpt lat="43.01697" lon="0.19636">
        <ele>1099.1</ele>
        <time>2023-11-19T14:58:03Z</time>
      </trkpt>
      <trkpt lat="43.01696" lon="0.19636">
        <ele>1099</ele>
        <time>2023-11-19T14:58:04Z</time>
      </trkpt>
      <trkpt lat="43.01696" lon="0.19636">
        <ele>1099</ele>
        <time>2023-11-19T14:58:05Z</time>
      </trkpt>
      <trkpt lat="43.01696" lon="0.19636">
        <ele>1099</ele>
        <time>2023-11-19T14:58:06Z</time>
      </trkpt>
      <trkpt lat="43.01697" lon="0.19637">
        <ele>1098.9</ele>
        <time>2023-11-19T14:58:07Z</time>
      </trkpt>
      <trkpt lat="43.01697" lon="0.19637">
        <ele>1098.8</ele>
        <time>2023-11-19T14:58:08Z</time>
      </trkpt>
      <trkpt lat="43.01697" lon="0.19637">
        <ele>1098.7</ele>
        <time>2023-11-19T14:58:09Z</time>
      </trkpt>
      <trkpt lat="43.01697" lon="0.19636">
        <ele>1098.6</ele>
        <time>2023-11-19T14:58:10Z</time>
      </trkpt>
      <trkpt lat="43.01698" lon="0.19636">
        <ele>1098.5</ele>
        <time>2023-11-19T14:58:11Z</time>
      </trkpt>
      <trkpt lat="43.01699" lon="0.19636">
        <ele>1098.3</ele>
        <time>2023-11-19T14:58:12Z</time>
      </trkpt>
      <trkpt lat="43.01699" lon="0.19635">
        <ele>1098.2</ele>
        <time>2023-11-19T14:58:13Z</time>
      </trkpt>
      <trkpt lat="43.01699" lon="0.19634">
        <ele>1098</ele>
        <time>2023-11-19T14:58:14Z</time>
      </trkpt>
      <trkpt lat="43.01699" lon="0.19634">
        <ele>1098</ele>
        <time>2023-11-19T14:58:15Z</time>
      </trkpt>
      <trkpt lat="43.01699" lon="0.19633">
        <ele>1097.9</ele>
        <time>2023-11-19T14:58:16Z</time>
      </trkpt>
      <trkpt lat="43.01699" lon="0.19634">
        <ele>1097.8</ele>
        <time>2023-11-19T14:58:17Z</time>
      </trkpt>
      <trkpt lat="43.01699" lon="0.19634">
        <ele>1097.8</ele>
        <time>2023-11-19T14:58:18Z</time>
      </trkpt>
      <trkpt lat="43.01698" lon="0.19634">
        <ele>1097.7</ele>
        <time>2023-11-19T14:58:19Z</time>
      </trkpt>
      <trkpt lat="43.01697" lon="0.19634">
        <ele>1097.5</ele>
        <time>2023-11-19T14:58:20Z</time>
      </trkpt>
      <trkpt lat="43.01696" lon="0.19634">
        <ele>1097.3</ele>
        <time>2023-11-19T14:58:21Z</time>
      </trkpt>
      <trkpt lat="43.01695" lon="0.19634">
        <ele>1097.1</ele>
        <time>2023-11-19T14:58:22Z</time>
      </trkpt>
      <trkpt lat="43.01695" lon="0.19634">
        <ele>1097.1</ele>
        <time>2023-11-19T14:58:23Z</time>
      </trkpt>
      <trkpt lat="43.01694" lon="0.19634">
        <ele>1096.9</ele>
        <time>2023-11-19T14:58:24Z</time>
      </trkpt>
      <trkpt lat="43.01693" lon="0.19634">
        <ele>1096.7</ele>
        <time>2023-11-19T14:58:25Z</time>
      </trkpt>
      <trkpt lat="43.01693" lon="0.19633">
        <ele>1096.5</ele>
        <time>2023-11-19T14:58:26Z</time>
      </trkpt>
      <trkpt lat="43.01692" lon="0.19633">
        <ele>1096.4</ele>
        <time>2023-11-19T14:58:27Z</time>
      </trkpt>
      <trkpt lat="43.01691" lon="0.19633">
        <ele>1096.3</ele>
        <time>2023-11-19T14:58:28Z</time>
      </trkpt>
      <trkpt lat="43.01691" lon="0.19632">
        <ele>1096.1</ele>
        <time>2023-11-19T14:58:29Z</time>
      </trkpt>
      <trkpt lat="43.0169" lon="0.19632">
        <ele>1095.9</ele>
        <time>2023-11-19T14:58:30Z</time>
      </trkpt>
      <trkpt lat="43.01689" lon="0.19632">
        <ele>1095.8</ele>
        <time>2023-11-19T14:58:31Z</time>
      </trkpt>
      <trkpt lat="43.01689" lon="0.19632">
        <ele>1095.7</ele>
        <time>2023-11-19T14:58:32Z</time>
      </trkpt>
      <trkpt lat="43.01688" lon="0.19633">
        <ele>1095.5</ele>
        <time>2023-11-19T14:58:33Z</time>
      </trkpt>
      <trkpt lat="43.01687" lon="0.19632">
        <ele>1095.4</ele>
        <time>2023-11-19T14:58:34Z</time>
      </trkpt>
      <trkpt lat="43.01687" lon="0.19632">
        <ele>1095.2</ele>
        <time>2023-11-19T14:58:35Z</time>
      </trkpt>
      <trkpt lat="43.01686" lon="0.19633">
        <ele>1095.2</ele>
        <time>2023-11-19T14:58:36Z</time>
      </trkpt>
      <trkpt lat="43.01685" lon="0.19632">
        <ele>1094.9</ele>
        <time>2023-11-19T14:58:37Z</time>
      </trkpt>
      <trkpt lat="43.01685" lon="0.19632">
        <ele>1094.8</ele>
        <time>2023-11-19T14:58:38Z</time>
      </trkpt>
      <trkpt lat="43.01684" lon="0.19631">
        <ele>1094.6</ele>
        <time>2023-11-19T14:58:39Z</time>
      </trkpt>
      <trkpt lat="43.01683" lon="0.19632">
        <ele>1094.6</ele>
        <time>2023-11-19T14:58:40Z</time>
      </trkpt>
      <trkpt lat="43.01683" lon="0.19632">
        <ele>1094.4</ele>
        <time>2023-11-19T14:58:41Z</time>
      </trkpt>
      <trkpt lat="43.01682" lon="0.19632">
        <ele>1094.2</ele>
        <time>2023-11-19T14:58:43Z</time>
      </trkpt>
      <trkpt lat="43.01681" lon="0.19632">
        <ele>1094.1</ele>
        <time>2023-11-19T14:58:44Z</time>
      </trkpt>
      <trkpt lat="43.01681" lon="0.19632">
        <ele>1094</ele>
        <time>2023-11-19T14:58:45Z</time>
      </trkpt>
      <trkpt lat="43.0168" lon="0.19633">
        <ele>1093.8</ele>
        <time>2023-11-19T14:58:46Z</time>
      </trkpt>
      <trkpt lat="43.01679" lon="0.19633">
        <ele>1093.6</ele>
        <time>2023-11-19T14:58:47Z</time>
      </trkpt>
      <trkpt lat="43.01678" lon="0.19633">
        <ele>1093.5</ele>
        <time>2023-11-19T14:58:48Z</time>
      </trkpt>
      <trkpt lat="43.01678" lon="0.19633">
        <ele>1093.5</ele>
        <time>2023-11-19T14:58:49Z</time>
      </trkpt>
      <trkpt lat="43.01678" lon="0.19633">
        <ele>1093.3</ele>
        <time>2023-11-19T14:58:50Z</time>
      </trkpt>
      <trkpt lat="43.01678" lon="0.19632">
        <ele>1093.3</ele>
        <time>2023-11-19T14:58:51Z</time>
      </trkpt>
      <trkpt lat="43.01678" lon="0.19633">
        <ele>1093.2</ele>
        <time>2023-11-19T14:58:52Z</time>
      </trkpt>
      <trkpt lat="43.01678" lon="0.19632">
        <ele>1093.1</ele>
        <time>2023-11-19T14:58:53Z</time>
      </trkpt>
      <trkpt lat="43.01678" lon="0.19632">
        <ele>1093.1</ele>
        <time>2023-11-19T14:58:54Z</time>
      </trkpt>
      <trkpt lat="43.01678" lon="0.19632">
        <ele>1093.1</ele>
        <time>2023-11-19T14:58:55Z</time>
      </trkpt>
      <trkpt lat="43.01678" lon="0.19632">
        <ele>1093.1</ele>
        <time>2023-11-19T14:58:56Z</time>
      </trkpt>
      <trkpt lat="43.01678" lon="0.19632">
        <ele>1093.1</ele>
        <time>2023-11-19T14:58:57Z</time>
      </trkpt>
      <trkpt lat="43.01678" lon="0.19632">
        <ele>1093.1</ele>
        <time>2023-11-19T14:58:58Z</time>
      </trkpt>
      <trkpt lat="43.01678" lon="0.19632">
        <ele>1093.1</ele>
        <time>2023-11-19T14:58:59Z</time>
      </trkpt>
      <trkpt lat="43.01678" lon="0.19632">
        <ele>1093.1</ele>
        <time>2023-11-19T14:59:00Z</time>
      </trkpt>
      <trkpt lat="43.01678" lon="0.19632">
        <ele>1093.1</ele>
        <time>2023-11-19T14:59:01Z</time>
      </trkpt>
      <trkpt lat="43.01678" lon="0.19632">
        <ele>1093.1</ele>
        <time>2023-11-19T14:59:02Z</time>
      </trkpt>
      <trkpt lat="43.01678" lon="0.19632">
        <ele>1093.1</ele>
        <time>2023-11-19T14:59:03Z</time>
      </trkpt>
      <trkpt lat="43.01678" lon="0.19632">
        <ele>1093.1</ele>
        <time>2023-11-19T14:59:04Z</time>
      </trkpt>
      <trkpt lat="43.01678" lon="0.19632">
        <ele>1093.1</ele>
        <time>2023-11-19T14:59:05Z</time>
      </trkpt>
      <trkpt lat="43.01678" lon="0.19632">
        <ele>1093.1</ele>
        <time>2023-11-19T14:59:06Z</time>
      </trkpt>
      <trkpt lat="43.01679" lon="0.19633">
        <ele>1092.9</ele>
        <time>2023-11-19T14:59:07Z</time>
      </trkpt>
      <trkpt lat="43.01678" lon="0.19633">
        <ele>1092.8</ele>
        <time>2023-11-19T14:59:08Z</time>
      </trkpt>
      <trkpt lat="43.01678" lon="0.19633">
        <ele>1092.7</ele>
        <time>2023-11-19T14:59:09Z</time>
      </trkpt>
      <trkpt lat="43.01676" lon="0.19633">
        <ele>1092.4</ele>
        <time>2023-11-19T14:59:10Z</time>
      </trkpt>
      <trkpt lat="43.01675" lon="0.19634">
        <ele>1092.2</ele>
        <time>2023-11-19T14:59:11Z</time>
      </trkpt>
      <trkpt lat="43.01675" lon="0.19634">
        <ele>1092.1</ele>
        <time>2023-11-19T14:59:12Z</time>
      </trkpt>
      <trkpt lat="43.01674" lon="0.19634">
        <ele>1092</ele>
        <time>2023-11-19T14:59:13Z</time>
      </trkpt>
      <trkpt lat="43.01673" lon="0.19633">
        <ele>1091.8</ele>
        <time>2023-11-19T14:59:14Z</time>
      </trkpt>
      <trkpt lat="43.01673" lon="0.19634">
        <ele>1091.6</ele>
        <time>2023-11-19T14:59:15Z</time>
      </trkpt>
      <trkpt lat="43.01672" lon="0.19634">
        <ele>1091.5</ele>
        <time>2023-11-19T14:59:16Z</time>
      </trkpt>
      <trkpt lat="43.01672" lon="0.19633">
        <ele>1091.4</ele>
        <time>2023-11-19T14:59:17Z</time>
      </trkpt>
      <trkpt lat="43.01671" lon="0.19633">
        <ele>1091.3</ele>
        <time>2023-11-19T14:59:18Z</time>
      </trkpt>
      <trkpt lat="43.01671" lon="0.19633">
        <ele>1091.3</ele>
        <time>2023-11-19T14:59:19Z</time>
      </trkpt>
      <trkpt lat="43.0167" lon="0.19633">
        <ele>1091.2</ele>
        <time>2023-11-19T14:59:20Z</time>
      </trkpt>
      <trkpt lat="43.01669" lon="0.19633">
        <ele>1091</ele>
        <time>2023-11-19T14:59:21Z</time>
      </trkpt>
      <trkpt lat="43.01668" lon="0.19633">
        <ele>1090.8</ele>
        <time>2023-11-19T14:59:22Z</time>
      </trkpt>
      <trkpt lat="43.01668" lon="0.19634">
        <ele>1090.7</ele>
        <time>2023-11-19T14:59:23Z</time>
      </trkpt>
      <trkpt lat="43.01667" lon="0.19634">
        <ele>1090.5</ele>
        <time>2023-11-19T14:59:24Z</time>
      </trkpt>
      <trkpt lat="43.01666" lon="0.19634">
        <ele>1090.4</ele>
        <time>2023-11-19T14:59:25Z</time>
      </trkpt>
      <trkpt lat="43.01666" lon="0.19634">
        <ele>1090.3</ele>
        <time>2023-11-19T14:59:26Z</time>
      </trkpt>
      <trkpt lat="43.01665" lon="0.19634">
        <ele>1090.2</ele>
        <time>2023-11-19T14:59:27Z</time>
      </trkpt>
      <trkpt lat="43.01665" lon="0.19635">
        <ele>1090</ele>
        <time>2023-11-19T14:59:28Z</time>
      </trkpt>
      <trkpt lat="43.01665" lon="0.19636">
        <ele>1089.9</ele>
        <time>2023-11-19T14:59:29Z</time>
      </trkpt>
      <trkpt lat="43.01664" lon="0.19636">
        <ele>1089.8</ele>
        <time>2023-11-19T14:59:30Z</time>
      </trkpt>
      <trkpt lat="43.01661" lon="0.19636">
        <ele>1089.4</ele>
        <time>2023-11-19T14:59:31Z</time>
      </trkpt>
      <trkpt lat="43.01661" lon="0.19636">
        <ele>1089.3</ele>
        <time>2023-11-19T14:59:32Z</time>
      </trkpt>
      <trkpt lat="43.0166" lon="0.19635">
        <ele>1089.2</ele>
        <time>2023-11-19T14:59:33Z</time>
      </trkpt>
      <trkpt lat="43.0166" lon="0.19635">
        <ele>1089.2</ele>
        <time>2023-11-19T14:59:34Z</time>
      </trkpt>
      <trkpt lat="43.01659" lon="0.19635">
        <ele>1089</ele>
        <time>2023-11-19T14:59:35Z</time>
      </trkpt>
      <trkpt lat="43.01658" lon="0.19635">
        <ele>1088.8</ele>
        <time>2023-11-19T14:59:36Z</time>
      </trkpt>
      <trkpt lat="43.01658" lon="0.19635">
        <ele>1088.8</ele>
        <time>2023-11-19T14:59:37Z</time>
      </trkpt>
      <trkpt lat="43.01658" lon="0.19636">
        <ele>1088.7</ele>
        <time>2023-11-19T14:59:38Z</time>
      </trkpt>
      <trkpt lat="43.01657" lon="0.19635">
        <ele>1088.5</ele>
        <time>2023-11-19T14:59:39Z</time>
      </trkpt>
      <trkpt lat="43.01656" lon="0.19635">
        <ele>1088.5</ele>
        <time>2023-11-19T14:59:40Z</time>
      </trkpt>
      <trkpt lat="43.01656" lon="0.19635">
        <ele>1088.4</ele>
        <time>2023-11-19T14:59:41Z</time>
      </trkpt>
      <trkpt lat="43.01655" lon="0.19636">
        <ele>1088.3</ele>
        <time>2023-11-19T14:59:42Z</time>
      </trkpt>
      <trkpt lat="43.01655" lon="0.19636">
        <ele>1088.2</ele>
        <time>2023-11-19T14:59:43Z</time>
      </trkpt>
      <trkpt lat="43.01654" lon="0.19636">
        <ele>1088.1</ele>
        <time>2023-11-19T14:59:44Z</time>
      </trkpt>
      <trkpt lat="43.01653" lon="0.19636">
        <ele>1087.9</ele>
        <time>2023-11-19T14:59:45Z</time>
      </trkpt>
      <trkpt lat="43.01653" lon="0.19636">
        <ele>1087.8</ele>
        <time>2023-11-19T14:59:46Z</time>
      </trkpt>
      <trkpt lat="43.01652" lon="0.19636">
        <ele>1087.7</ele>
        <time>2023-11-19T14:59:47Z</time>
      </trkpt>
      <trkpt lat="43.01651" lon="0.19637">
        <ele>1087.5</ele>
        <time>2023-11-19T14:59:48Z</time>
      </trkpt>
      <trkpt lat="43.01651" lon="0.19637">
        <ele>1087.4</ele>
        <time>2023-11-19T14:59:49Z</time>
      </trkpt>
      <trkpt lat="43.0165" lon="0.19637">
        <ele>1087.3</ele>
        <time>2023-11-19T14:59:50Z</time>
      </trkpt>
      <trkpt lat="43.01649" lon="0.19637">
        <ele>1087.2</ele>
        <time>2023-11-19T14:59:51Z</time>
      </trkpt>
      <trkpt lat="43.01649" lon="0.19637">
        <ele>1087.1</ele>
        <time>2023-11-19T14:59:52Z</time>
      </trkpt>
      <trkpt lat="43.01648" lon="0.19637">
        <ele>1087</ele>
        <time>2023-11-19T14:59:53Z</time>
      </trkpt>
      <trkpt lat="43.01647" lon="0.19637">
        <ele>1086.9</ele>
        <time>2023-11-19T14:59:54Z</time>
      </trkpt>
      <trkpt lat="43.01647" lon="0.19638">
        <ele>1086.8</ele>
        <time>2023-11-19T14:59:55Z</time>
      </trkpt>
      <trkpt lat="43.01647" lon="0.19638">
        <ele>1086.8</ele>
        <time>2023-11-19T14:59:56Z</time>
      </trkpt>
      <trkpt lat="43.01646" lon="0.19638">
        <ele>1086.7</ele>
        <time>2023-11-19T14:59:57Z</time>
      </trkpt>
      <trkpt lat="43.01645" lon="0.19638">
        <ele>1086.5</ele>
        <time>2023-11-19T14:59:58Z</time>
      </trkpt>
      <trkpt lat="43.01643" lon="0.19637">
        <ele>1086.3</ele>
        <time>2023-11-19T14:59:59Z</time>
      </trkpt>
      <trkpt lat="43.01643" lon="0.19637">
        <ele>1086.2</ele>
        <time>2023-11-19T15:00:00Z</time>
      </trkpt>
      <trkpt lat="43.01642" lon="0.19637">
        <ele>1086.1</ele>
        <time>2023-11-19T15:00:01Z</time>
      </trkpt>
      <trkpt lat="43.01642" lon="0.19637">
        <ele>1086.1</ele>
        <time>2023-11-19T15:00:02Z</time>
      </trkpt>
      <trkpt lat="43.01642" lon="0.19636">
        <ele>1086</ele>
        <time>2023-11-19T15:00:03Z</time>
      </trkpt>
      <trkpt lat="43.01641" lon="0.19636">
        <ele>1085.9</ele>
        <time>2023-11-19T15:00:04Z</time>
      </trkpt>
      <trkpt lat="43.01641" lon="0.19637">
        <ele>1085.8</ele>
        <time>2023-11-19T15:00:05Z</time>
      </trkpt>
      <trkpt lat="43.0164" lon="0.19636">
        <ele>1085.7</ele>
        <time>2023-11-19T15:00:06Z</time>
      </trkpt>
      <trkpt lat="43.0164" lon="0.19636">
        <ele>1085.6</ele>
        <time>2023-11-19T15:00:07Z</time>
      </trkpt>
      <trkpt lat="43.01639" lon="0.19635">
        <ele>1085.4</ele>
        <time>2023-11-19T15:00:08Z</time>
      </trkpt>
      <trkpt lat="43.01638" lon="0.19636">
        <ele>1085.4</ele>
        <time>2023-11-19T15:00:09Z</time>
      </trkpt>
      <trkpt lat="43.01638" lon="0.19636">
        <ele>1085.3</ele>
        <time>2023-11-19T15:00:10Z</time>
      </trkpt>
      <trkpt lat="43.01637" lon="0.19636">
        <ele>1085.2</ele>
        <time>2023-11-19T15:00:11Z</time>
      </trkpt>
      <trkpt lat="43.01637" lon="0.19636">
        <ele>1085.1</ele>
        <time>2023-11-19T15:00:12Z</time>
      </trkpt>
      <trkpt lat="43.01636" lon="0.19636">
        <ele>1085</ele>
        <time>2023-11-19T15:00:13Z</time>
      </trkpt>
      <trkpt lat="43.01636" lon="0.19636">
        <ele>1084.9</ele>
        <time>2023-11-19T15:00:14Z</time>
      </trkpt>
      <trkpt lat="43.01635" lon="0.19636">
        <ele>1084.8</ele>
        <time>2023-11-19T15:00:15Z</time>
      </trkpt>
      <trkpt lat="43.01634" lon="0.19635">
        <ele>1084.7</ele>
        <time>2023-11-19T15:00:16Z</time>
      </trkpt>
      <trkpt lat="43.01634" lon="0.19634">
        <ele>1084.6</ele>
        <time>2023-11-19T15:00:17Z</time>
      </trkpt>
      <trkpt lat="43.01634" lon="0.19635">
        <ele>1084.5</ele>
        <time>2023-11-19T15:00:18Z</time>
      </trkpt>
      <trkpt lat="43.01633" lon="0.19634">
        <ele>1084.4</ele>
        <time>2023-11-19T15:00:19Z</time>
      </trkpt>
      <trkpt lat="43.01632" lon="0.19635">
        <ele>1084.2</ele>
        <time>2023-11-19T15:00:20Z</time>
      </trkpt>
      <trkpt lat="43.01632" lon="0.19635">
        <ele>1084</ele>
        <time>2023-11-19T15:00:21Z</time>
      </trkpt>
      <trkpt lat="43.01631" lon="0.19635">
        <ele>1084</ele>
        <time>2023-11-19T15:00:22Z</time>
      </trkpt>
      <trkpt lat="43.01631" lon="0.19635">
        <ele>1083.9</ele>
        <time>2023-11-19T15:00:23Z</time>
      </trkpt>
      <trkpt lat="43.0163" lon="0.19635">
        <ele>1083.8</ele>
        <time>2023-11-19T15:00:24Z</time>
      </trkpt>
      <trkpt lat="43.01629" lon="0.19635">
        <ele>1083.7</ele>
        <time>2023-11-19T15:00:25Z</time>
      </trkpt>
      <trkpt lat="43.01629" lon="0.19635">
        <ele>1083.7</ele>
        <time>2023-11-19T15:00:26Z</time>
      </trkpt>
      <trkpt lat="43.01628" lon="0.19635">
        <ele>1083.6</ele>
        <time>2023-11-19T15:00:27Z</time>
      </trkpt>
      <trkpt lat="43.01627" lon="0.19636">
        <ele>1083.3</ele>
        <time>2023-11-19T15:00:28Z</time>
      </trkpt>
      <trkpt lat="43.01627" lon="0.19636">
        <ele>1083.3</ele>
        <time>2023-11-19T15:00:29Z</time>
      </trkpt>
      <trkpt lat="43.01627" lon="0.19636">
        <ele>1083.2</ele>
        <time>2023-11-19T15:00:30Z</time>
      </trkpt>
      <trkpt lat="43.01627" lon="0.19636">
        <ele>1083.1</ele>
        <time>2023-11-19T15:00:31Z</time>
      </trkpt>
      <trkpt lat="43.01625" lon="0.19638">
        <ele>1082.9</ele>
        <time>2023-11-19T15:00:32Z</time>
      </trkpt>
      <trkpt lat="43.01623" lon="0.19636">
        <ele>1082.6</ele>
        <time>2023-11-19T15:00:33Z</time>
      </trkpt>
      <trkpt lat="43.01623" lon="0.19636">
        <ele>1082.5</ele>
        <time>2023-11-19T15:00:34Z</time>
      </trkpt>
      <trkpt lat="43.01622" lon="0.19635">
        <ele>1082.4</ele>
        <time>2023-11-19T15:00:35Z</time>
      </trkpt>
      <trkpt lat="43.01622" lon="0.19635">
        <ele>1082.3</ele>
        <time>2023-11-19T15:00:36Z</time>
      </trkpt>
      <trkpt lat="43.01621" lon="0.19635">
        <ele>1082.2</ele>
        <time>2023-11-19T15:00:37Z</time>
      </trkpt>
      <trkpt lat="43.0162" lon="0.19635">
        <ele>1082.1</ele>
        <time>2023-11-19T15:00:38Z</time>
      </trkpt>
      <trkpt lat="43.0162" lon="0.19635">
        <ele>1082</ele>
        <time>2023-11-19T15:00:39Z</time>
      </trkpt>
      <trkpt lat="43.01619" lon="0.19635">
        <ele>1081.8</ele>
        <time>2023-11-19T15:00:40Z</time>
      </trkpt>
      <trkpt lat="43.01619" lon="0.19636">
        <ele>1081.8</ele>
        <time>2023-11-19T15:00:41Z</time>
      </trkpt>
      <trkpt lat="43.01618" lon="0.19635">
        <ele>1081.7</ele>
        <time>2023-11-19T15:00:42Z</time>
      </trkpt>
      <trkpt lat="43.01618" lon="0.19635">
        <ele>1081.6</ele>
        <time>2023-11-19T15:00:43Z</time>
      </trkpt>
      <trkpt lat="43.01617" lon="0.19635">
        <ele>1081.5</ele>
        <time>2023-11-19T15:00:44Z</time>
      </trkpt>
      <trkpt lat="43.01617" lon="0.19634">
        <ele>1081.4</ele>
        <time>2023-11-19T15:00:45Z</time>
      </trkpt>
      <trkpt lat="43.01616" lon="0.19634">
        <ele>1081.4</ele>
        <time>2023-11-19T15:00:46Z</time>
      </trkpt>
      <trkpt lat="43.01616" lon="0.19633">
        <ele>1081.3</ele>
        <time>2023-11-19T15:00:47Z</time>
      </trkpt>
      <trkpt lat="43.01615" lon="0.19633">
        <ele>1081.2</ele>
        <time>2023-11-19T15:00:48Z</time>
      </trkpt>
      <trkpt lat="43.01615" lon="0.19632">
        <ele>1081.1</ele>
        <time>2023-11-19T15:00:50Z</time>
      </trkpt>
      <trkpt lat="43.01615" lon="0.19632">
        <ele>1081</ele>
        <time>2023-11-19T15:00:52Z</time>
      </trkpt>
      <trkpt lat="43.01614" lon="0.19632">
        <ele>1081</ele>
        <time>2023-11-19T15:00:53Z</time>
      </trkpt>
      <trkpt lat="43.01614" lon="0.19631">
        <ele>1080.9</ele>
        <time>2023-11-19T15:00:54Z</time>
      </trkpt>
      <trkpt lat="43.01613" lon="0.19631">
        <ele>1080.8</ele>
        <time>2023-11-19T15:00:55Z</time>
      </trkpt>
      <trkpt lat="43.01612" lon="0.19632">
        <ele>1080.6</ele>
        <time>2023-11-19T15:00:56Z</time>
      </trkpt>
      <trkpt lat="43.01612" lon="0.19632">
        <ele>1080.6</ele>
        <time>2023-11-19T15:00:57Z</time>
      </trkpt>
      <trkpt lat="43.01612" lon="0.19631">
        <ele>1080.5</ele>
        <time>2023-11-19T15:00:58Z</time>
      </trkpt>
      <trkpt lat="43.01613" lon="0.19631">
        <ele>1080.4</ele>
        <time>2023-11-19T15:00:59Z</time>
      </trkpt>
      <trkpt lat="43.01613" lon="0.19631">
        <ele>1080.3</ele>
        <time>2023-11-19T15:01:00Z</time>
      </trkpt>
      <trkpt lat="43.01611" lon="0.19629">
        <ele>1080.1</ele>
        <time>2023-11-19T15:01:01Z</time>
      </trkpt>
      <trkpt lat="43.01611" lon="0.19627">
        <ele>1079.9</ele>
        <time>2023-11-19T15:01:02Z</time>
      </trkpt>
      <trkpt lat="43.01611" lon="0.19628">
        <ele>1079.8</ele>
        <time>2023-11-19T15:01:03Z</time>
      </trkpt>
      <trkpt lat="43.0161" lon="0.19628">
        <ele>1079.7</ele>
        <time>2023-11-19T15:01:04Z</time>
      </trkpt>
      <trkpt lat="43.0161" lon="0.19626">
        <ele>1079.5</ele>
        <time>2023-11-19T15:01:05Z</time>
      </trkpt>
      <trkpt lat="43.01609" lon="0.19625">
        <ele>1079.3</ele>
        <time>2023-11-19T15:01:06Z</time>
      </trkpt>
      <trkpt lat="43.0161" lon="0.19626">
        <ele>1079.1</ele>
        <time>2023-11-19T15:01:07Z</time>
      </trkpt>
      <trkpt lat="43.01609" lon="0.19629">
        <ele>1078.8</ele>
        <time>2023-11-19T15:01:08Z</time>
      </trkpt>
      <trkpt lat="43.01609" lon="0.19628">
        <ele>1078.7</ele>
        <time>2023-11-19T15:01:09Z</time>
      </trkpt>
      <trkpt lat="43.01609" lon="0.19629">
        <ele>1078.7</ele>
        <time>2023-11-19T15:01:10Z</time>
      </trkpt>
      <trkpt lat="43.01608" lon="0.19629">
        <ele>1078.6</ele>
        <time>2023-11-19T15:01:11Z</time>
      </trkpt>
      <trkpt lat="43.01608" lon="0.1963">
        <ele>1078.5</ele>
        <time>2023-11-19T15:01:12Z</time>
      </trkpt>
      <trkpt lat="43.01607" lon="0.1963">
        <ele>1078.5</ele>
        <time>2023-11-19T15:01:13Z</time>
      </trkpt>
      <trkpt lat="43.01607" lon="0.1963">
        <ele>1078.4</ele>
        <time>2023-11-19T15:01:14Z</time>
      </trkpt>
      <trkpt lat="43.01607" lon="0.1963">
        <ele>1078.4</ele>
        <time>2023-11-19T15:01:15Z</time>
      </trkpt>
      <trkpt lat="43.01607" lon="0.1963">
        <ele>1078.4</ele>
        <time>2023-11-19T15:01:16Z</time>
      </trkpt>
      <trkpt lat="43.01607" lon="0.1963">
        <ele>1078.4</ele>
        <time>2023-11-19T15:01:17Z</time>
      </trkpt>
      <trkpt lat="43.01607" lon="0.1963">
        <ele>1078.4</ele>
        <time>2023-11-19T15:01:18Z</time>
      </trkpt>
      <trkpt lat="43.01607" lon="0.1963">
        <ele>1078.4</ele>
        <time>2023-11-19T15:01:19Z</time>
      </trkpt>
      <trkpt lat="43.01606" lon="0.1963">
        <ele>1078.3</ele>
        <time>2023-11-19T15:01:20Z</time>
      </trkpt>
      <trkpt lat="43.01606" lon="0.19629">
        <ele>1078.2</ele>
        <time>2023-11-19T15:01:21Z</time>
      </trkpt>
      <trkpt lat="43.01607" lon="0.19629">
        <ele>1078.1</ele>
        <time>2023-11-19T15:01:22Z</time>
      </trkpt>
      <trkpt lat="43.01607" lon="0.1963">
        <ele>1078</ele>
        <time>2023-11-19T15:01:23Z</time>
      </trkpt>
      <trkpt lat="43.01608" lon="0.19629">
        <ele>1077.9</ele>
        <time>2023-11-19T15:01:24Z</time>
      </trkpt>
      <trkpt lat="43.01608" lon="0.19628">
        <ele>1077.7</ele>
        <time>2023-11-19T15:01:25Z</time>
      </trkpt>
      <trkpt lat="43.01608" lon="0.19627">
        <ele>1077.7</ele>
        <time>2023-11-19T15:01:26Z</time>
      </trkpt>
      <trkpt lat="43.01608" lon="0.19626">
        <ele>1077.6</ele>
        <time>2023-11-19T15:01:27Z</time>
      </trkpt>
      <trkpt lat="43.01609" lon="0.19627">
        <ele>1077.4</ele>
        <time>2023-11-19T15:01:28Z</time>
      </trkpt>
      <trkpt lat="43.01609" lon="0.19627">
        <ele>1077.4</ele>
        <time>2023-11-19T15:01:29Z</time>
      </trkpt>
      <trkpt lat="43.0161" lon="0.19624">
        <ele>1077.1</ele>
        <time>2023-11-19T15:01:30Z</time>
      </trkpt>
      <trkpt lat="43.0161" lon="0.19624">
        <ele>1077.1</ele>
        <time>2023-11-19T15:01:31Z</time>
      </trkpt>
      <trkpt lat="43.0161" lon="0.19623">
        <ele>1077</ele>
        <time>2023-11-19T15:01:32Z</time>
      </trkpt>
      <trkpt lat="43.0161" lon="0.19622">
        <ele>1077</ele>
        <time>2023-11-19T15:01:33Z</time>
      </trkpt>
      <trkpt lat="43.0161" lon="0.19623">
        <ele>1076.9</ele>
        <time>2023-11-19T15:01:34Z</time>
      </trkpt>
      <trkpt lat="43.01611" lon="0.19622">
        <ele>1076.8</ele>
        <time>2023-11-19T15:01:35Z</time>
      </trkpt>
      <trkpt lat="43.01611" lon="0.19622">
        <ele>1076.8</ele>
        <time>2023-11-19T15:01:36Z</time>
      </trkpt>
      <trkpt lat="43.01611" lon="0.19621">
        <ele>1076.7</ele>
        <time>2023-11-19T15:01:37Z</time>
      </trkpt>
      <trkpt lat="43.01611" lon="0.19621">
        <ele>1076.7</ele>
        <time>2023-11-19T15:01:38Z</time>
      </trkpt>
      <trkpt lat="43.01611" lon="0.19622">
        <ele>1076.7</ele>
        <time>2023-11-19T15:01:39Z</time>
      </trkpt>
      <trkpt lat="43.01611" lon="0.19622">
        <ele>1076.6</ele>
        <time>2023-11-19T15:01:40Z</time>
      </trkpt>
      <trkpt lat="43.01611" lon="0.19622">
        <ele>1076.6</ele>
        <time>2023-11-19T15:01:41Z</time>
      </trkpt>
      <trkpt lat="43.01611" lon="0.19622">
        <ele>1076.6</ele>
        <time>2023-11-19T15:01:42Z</time>
      </trkpt>
      <trkpt lat="43.01611" lon="0.19622">
        <ele>1076.6</ele>
        <time>2023-11-19T15:01:43Z</time>
      </trkpt>
      <trkpt lat="43.01611" lon="0.19622">
        <ele>1076.6</ele>
        <time>2023-11-19T15:01:44Z</time>
      </trkpt>
      <trkpt lat="43.01611" lon="0.19622">
        <ele>1076.6</ele>
        <time>2023-11-19T15:01:45Z</time>
      </trkpt>
      <trkpt lat="43.01611" lon="0.19622">
        <ele>1076.6</ele>
        <time>2023-11-19T15:01:46Z</time>
      </trkpt>
      <trkpt lat="43.01607" lon="0.19621">
        <ele>1076.1</ele>
        <time>2023-11-19T15:01:47Z</time>
      </trkpt>
      <trkpt lat="43.01607" lon="0.19621">
        <ele>1076</ele>
        <time>2023-11-19T15:01:48Z</time>
      </trkpt>
      <trkpt lat="43.01606" lon="0.19621">
        <ele>1076</ele>
        <time>2023-11-19T15:01:49Z</time>
      </trkpt>
      <trkpt lat="43.01606" lon="0.19621">
        <ele>1076</ele>
        <time>2023-11-19T15:01:50Z</time>
      </trkpt>
      <trkpt lat="43.01606" lon="0.19621">
        <ele>1075.9</ele>
        <time>2023-11-19T15:01:51Z</time>
      </trkpt>
      <trkpt lat="43.01605" lon="0.19621">
        <ele>1075.9</ele>
        <time>2023-11-19T15:01:52Z</time>
      </trkpt>
      <trkpt lat="43.01605" lon="0.19621">
        <ele>1075.8</ele>
        <time>2023-11-19T15:01:53Z</time>
      </trkpt>
      <trkpt lat="43.01604" lon="0.19621">
        <ele>1075.8</ele>
        <time>2023-11-19T15:01:54Z</time>
      </trkpt>
      <trkpt lat="43.01604" lon="0.1962">
        <ele>1075.7</ele>
        <time>2023-11-19T15:01:55Z</time>
      </trkpt>
      <trkpt lat="43.01604" lon="0.1962">
        <ele>1075.7</ele>
        <time>2023-11-19T15:01:56Z</time>
      </trkpt>
      <trkpt lat="43.01603" lon="0.1962">
        <ele>1075.6</ele>
        <time>2023-11-19T15:01:57Z</time>
      </trkpt>
      <trkpt lat="43.01603" lon="0.1962">
        <ele>1075.6</ele>
        <time>2023-11-19T15:01:58Z</time>
      </trkpt>
      <trkpt lat="43.01603" lon="0.1962">
        <ele>1075.6</ele>
        <time>2023-11-19T15:01:59Z</time>
      </trkpt>
      <trkpt lat="43.01603" lon="0.19621">
        <ele>1075.5</ele>
        <time>2023-11-19T15:02:00Z</time>
      </trkpt>
      <trkpt lat="43.01603" lon="0.19621">
        <ele>1075.5</ele>
        <time>2023-11-19T15:02:01Z</time>
      </trkpt>
      <trkpt lat="43.01603" lon="0.19621">
        <ele>1075.4</ele>
        <time>2023-11-19T15:02:02Z</time>
      </trkpt>
      <trkpt lat="43.01604" lon="0.19622">
        <ele>1075.4</ele>
        <time>2023-11-19T15:02:03Z</time>
      </trkpt>
      <trkpt lat="43.01604" lon="0.19622">
        <ele>1075.3</ele>
        <time>2023-11-19T15:02:04Z</time>
      </trkpt>
      <trkpt lat="43.01604" lon="0.19623">
        <ele>1075.3</ele>
        <time>2023-11-19T15:02:05Z</time>
      </trkpt>
      <trkpt lat="43.01604" lon="0.19623">
        <ele>1075.2</ele>
        <time>2023-11-19T15:02:06Z</time>
      </trkpt>
      <trkpt lat="43.01605" lon="0.19623">
        <ele>1075.2</ele>
        <time>2023-11-19T15:02:07Z</time>
      </trkpt>
      <trkpt lat="43.01605" lon="0.19624">
        <ele>1075.1</ele>
        <time>2023-11-19T15:02:08Z</time>
      </trkpt>
      <trkpt lat="43.01605" lon="0.19624">
        <ele>1075.1</ele>
        <time>2023-11-19T15:02:09Z</time>
      </trkpt>
      <trkpt lat="43.01605" lon="0.19625">
        <ele>1075</ele>
        <time>2023-11-19T15:02:10Z</time>
      </trkpt>
      <trkpt lat="43.01605" lon="0.19625">
        <ele>1075</ele>
        <time>2023-11-19T15:02:11Z</time>
      </trkpt>
      <trkpt lat="43.01605" lon="0.19625">
        <ele>1074.9</ele>
        <time>2023-11-19T15:02:12Z</time>
      </trkpt>
      <trkpt lat="43.01605" lon="0.19625">
        <ele>1074.9</ele>
        <time>2023-11-19T15:02:13Z</time>
      </trkpt>
      <trkpt lat="43.01604" lon="0.19625">
        <ele>1074.9</ele>
        <time>2023-11-19T15:02:14Z</time>
      </trkpt>
      <trkpt lat="43.01604" lon="0.19625">
        <ele>1074.9</ele>
        <time>2023-11-19T15:02:15Z</time>
      </trkpt>
      <trkpt lat="43.01604" lon="0.19625">
        <ele>1074.9</ele>
        <time>2023-11-19T15:02:16Z</time>
      </trkpt>
      <trkpt lat="43.01604" lon="0.19625">
        <ele>1074.9</ele>
        <time>2023-11-19T15:02:17Z</time>
      </trkpt>
      <trkpt lat="43.01604" lon="0.19625">
        <ele>1074.8</ele>
        <time>2023-11-19T15:02:18Z</time>
      </trkpt>
      <trkpt lat="43.01604" lon="0.19625">
        <ele>1074.8</ele>
        <time>2023-11-19T15:02:19Z</time>
      </trkpt>
      <trkpt lat="43.01604" lon="0.19625">
        <ele>1074.8</ele>
        <time>2023-11-19T15:02:20Z</time>
      </trkpt>
      <trkpt lat="43.01603" lon="0.19625">
        <ele>1074.8</ele>
        <time>2023-11-19T15:02:21Z</time>
      </trkpt>
      <trkpt lat="43.01603" lon="0.19625">
        <ele>1074.8</ele>
        <time>2023-11-19T15:02:22Z</time>
      </trkpt>
      <trkpt lat="43.01603" lon="0.19626">
        <ele>1074.8</ele>
        <time>2023-11-19T15:02:23Z</time>
      </trkpt>
      <trkpt lat="43.01603" lon="0.19626">
        <ele>1074.7</ele>
        <time>2023-11-19T15:02:24Z</time>
      </trkpt>
      <trkpt lat="43.01603" lon="0.19626">
        <ele>1074.7</ele>
        <time>2023-11-19T15:02:25Z</time>
      </trkpt>
      <trkpt lat="43.01603" lon="0.19626">
        <ele>1074.7</ele>
        <time>2023-11-19T15:02:26Z</time>
      </trkpt>
      <trkpt lat="43.01603" lon="0.19626">
        <ele>1074.7</ele>
        <time>2023-11-19T15:02:27Z</time>
      </trkpt>
      <trkpt lat="43.01602" lon="0.19626">
        <ele>1074.7</ele>
        <time>2023-11-19T15:02:28Z</time>
      </trkpt>
      <trkpt lat="43.01602" lon="0.19626">
        <ele>1074.6</ele>
        <time>2023-11-19T15:02:29Z</time>
      </trkpt>
      <trkpt lat="43.01602" lon="0.19626">
        <ele>1074.6</ele>
        <time>2023-11-19T15:02:30Z</time>
      </trkpt>
      <trkpt lat="43.01602" lon="0.19626">
        <ele>1074.6</ele>
        <time>2023-11-19T15:02:31Z</time>
      </trkpt>
      <trkpt lat="43.01602" lon="0.19626">
        <ele>1074.6</ele>
        <time>2023-11-19T15:02:32Z</time>
      </trkpt>
      <trkpt lat="43.01602" lon="0.19626">
        <ele>1074.6</ele>
        <time>2023-11-19T15:02:33Z</time>
      </trkpt>
      <trkpt lat="43.01602" lon="0.19626">
        <ele>1074.6</ele>
        <time>2023-11-19T15:02:34Z</time>
      </trkpt>
      <trkpt lat="43.01602" lon="0.19626">
        <ele>1074.5</ele>
        <time>2023-11-19T15:02:35Z</time>
      </trkpt>
      <trkpt lat="43.01602" lon="0.19625">
        <ele>1074.3</ele>
        <time>2023-11-19T15:02:36Z</time>
      </trkpt>
      <trkpt lat="43.01602" lon="0.19625">
        <ele>1074.3</ele>
        <time>2023-11-19T15:02:37Z</time>
      </trkpt>
      <trkpt lat="43.01602" lon="0.19625">
        <ele>1074.3</ele>
        <time>2023-11-19T15:02:38Z</time>
      </trkpt>
      <trkpt lat="43.01602" lon="0.19625">
        <ele>1074.3</ele>
        <time>2023-11-19T15:02:39Z</time>
      </trkpt>
      <trkpt lat="43.01602" lon="0.19625">
        <ele>1074.3</ele>
        <time>2023-11-19T15:02:40Z</time>
      </trkpt>
      <trkpt lat="43.01602" lon="0.19625">
        <ele>1074.3</ele>
        <time>2023-11-19T15:02:41Z</time>
      </trkpt>
      <trkpt lat="43.01602" lon="0.19625">
        <ele>1074.3</ele>
        <time>2023-11-19T15:02:42Z</time>
      </trkpt>
      <trkpt lat="43.01601" lon="0.19626">
        <ele>1074.2</ele>
        <time>2023-11-19T15:02:43Z</time>
      </trkpt>
      <trkpt lat="43.01601" lon="0.19625">
        <ele>1074.1</ele>
        <time>2023-11-19T15:02:44Z</time>
      </trkpt>
      <trkpt lat="43.016" lon="0.19625">
        <ele>1074</ele>
        <time>2023-11-19T15:02:45Z</time>
      </trkpt>
      <trkpt lat="43.016" lon="0.19625">
        <ele>1074</ele>
        <time>2023-11-19T15:02:46Z</time>
      </trkpt>
      <trkpt lat="43.01599" lon="0.19625">
        <ele>1073.8</ele>
        <time>2023-11-19T15:02:47Z</time>
      </trkpt>
      <trkpt lat="43.01598" lon="0.19625">
        <ele>1073.7</ele>
        <time>2023-11-19T15:02:48Z</time>
      </trkpt>
      <trkpt lat="43.01597" lon="0.19626">
        <ele>1073.7</ele>
        <time>2023-11-19T15:02:49Z</time>
      </trkpt>
      <trkpt lat="43.01597" lon="0.19626">
        <ele>1073.6</ele>
        <time>2023-11-19T15:02:50Z</time>
      </trkpt>
      <trkpt lat="43.01596" lon="0.19625">
        <ele>1073.4</ele>
        <time>2023-11-19T15:02:51Z</time>
      </trkpt>
      <trkpt lat="43.01594" lon="0.19625">
        <ele>1073.3</ele>
        <time>2023-11-19T15:02:52Z</time>
      </trkpt>
      <trkpt lat="43.01594" lon="0.19624">
        <ele>1073.2</ele>
        <time>2023-11-19T15:02:53Z</time>
      </trkpt>
      <trkpt lat="43.01592" lon="0.19623">
        <ele>1073</ele>
        <time>2023-11-19T15:02:55Z</time>
      </trkpt>
      <trkpt lat="43.01592" lon="0.19623">
        <ele>1072.9</ele>
        <time>2023-11-19T15:02:56Z</time>
      </trkpt>
      <trkpt lat="43.01592" lon="0.19623">
        <ele>1072.9</ele>
        <time>2023-11-19T15:02:57Z</time>
      </trkpt>
      <trkpt lat="43.01591" lon="0.19623">
        <ele>1072.8</ele>
        <time>2023-11-19T15:02:58Z</time>
      </trkpt>
      <trkpt lat="43.0159" lon="0.19623">
        <ele>1072.7</ele>
        <time>2023-11-19T15:02:59Z</time>
      </trkpt>
      <trkpt lat="43.0159" lon="0.19623">
        <ele>1072.6</ele>
        <time>2023-11-19T15:03:00Z</time>
      </trkpt>
      <trkpt lat="43.0159" lon="0.19623">
        <ele>1072.6</ele>
        <time>2023-11-19T15:03:01Z</time>
      </trkpt>
      <trkpt lat="43.01589" lon="0.19622">
        <ele>1072.4</ele>
        <time>2023-11-19T15:03:02Z</time>
      </trkpt>
      <trkpt lat="43.01588" lon="0.19621">
        <ele>1072.4</ele>
        <time>2023-11-19T15:03:03Z</time>
      </trkpt>
      <trkpt lat="43.01588" lon="0.1962">
        <ele>1072.2</ele>
        <time>2023-11-19T15:03:04Z</time>
      </trkpt>
      <trkpt lat="43.01586" lon="0.19618">
        <ele>1072</ele>
        <time>2023-11-19T15:03:05Z</time>
      </trkpt>
      <trkpt lat="43.01586" lon="0.19617">
        <ele>1071.9</ele>
        <time>2023-11-19T15:03:06Z</time>
      </trkpt>
      <trkpt lat="43.01586" lon="0.19616">
        <ele>1071.8</ele>
        <time>2023-11-19T15:03:07Z</time>
      </trkpt>
      <trkpt lat="43.01585" lon="0.19616">
        <ele>1071.7</ele>
        <time>2023-11-19T15:03:08Z</time>
      </trkpt>
      <trkpt lat="43.01585" lon="0.19613">
        <ele>1071.4</ele>
        <time>2023-11-19T15:03:09Z</time>
      </trkpt>
      <trkpt lat="43.01585" lon="0.19613">
        <ele>1071.4</ele>
        <time>2023-11-19T15:03:10Z</time>
      </trkpt>
      <trkpt lat="43.01585" lon="0.19611">
        <ele>1071.2</ele>
        <time>2023-11-19T15:03:11Z</time>
      </trkpt>
      <trkpt lat="43.01586" lon="0.19608">
        <ele>1070.9</ele>
        <time>2023-11-19T15:03:12Z</time>
      </trkpt>
      <trkpt lat="43.01587" lon="0.19608">
        <ele>1070.8</ele>
        <time>2023-11-19T15:03:13Z</time>
      </trkpt>
      <trkpt lat="43.01587" lon="0.19607">
        <ele>1070.7</ele>
        <time>2023-11-19T15:03:14Z</time>
      </trkpt>
      <trkpt lat="43.01588" lon="0.19606">
        <ele>1070.6</ele>
        <time>2023-11-19T15:03:15Z</time>
      </trkpt>
      <trkpt lat="43.01588" lon="0.19604">
        <ele>1070.5</ele>
        <time>2023-11-19T15:03:16Z</time>
      </trkpt>
      <trkpt lat="43.01588" lon="0.19604">
        <ele>1070.4</ele>
        <time>2023-11-19T15:03:17Z</time>
      </trkpt>
      <trkpt lat="43.01588" lon="0.19603">
        <ele>1070.3</ele>
        <time>2023-11-19T15:03:18Z</time>
      </trkpt>
      <trkpt lat="43.01588" lon="0.19602">
        <ele>1070.2</ele>
        <time>2023-11-19T15:03:19Z</time>
      </trkpt>
      <trkpt lat="43.01588" lon="0.19601">
        <ele>1070.1</ele>
        <time>2023-11-19T15:03:20Z</time>
      </trkpt>
      <trkpt lat="43.01588" lon="0.19601">
        <ele>1070.1</ele>
        <time>2023-11-19T15:03:21Z</time>
      </trkpt>
      <trkpt lat="43.01588" lon="0.19598">
        <ele>1069.8</ele>
        <time>2023-11-19T15:03:22Z</time>
      </trkpt>
      <trkpt lat="43.01588" lon="0.19596">
        <ele>1069.6</ele>
        <time>2023-11-19T15:03:23Z</time>
      </trkpt>
      <trkpt lat="43.01588" lon="0.19595">
        <ele>1069.5</ele>
        <time>2023-11-19T15:03:24Z</time>
      </trkpt>
      <trkpt lat="43.01588" lon="0.19593">
        <ele>1069.4</ele>
        <time>2023-11-19T15:03:25Z</time>
      </trkpt>
      <trkpt lat="43.01588" lon="0.19591">
        <ele>1069.1</ele>
        <time>2023-11-19T15:03:26Z</time>
      </trkpt>
      <trkpt lat="43.01588" lon="0.1959">
        <ele>1069.1</ele>
        <time>2023-11-19T15:03:27Z</time>
      </trkpt>
      <trkpt lat="43.01588" lon="0.19589">
        <ele>1069</ele>
        <time>2023-11-19T15:03:28Z</time>
      </trkpt>
      <trkpt lat="43.01588" lon="0.19588">
        <ele>1068.9</ele>
        <time>2023-11-19T15:03:29Z</time>
      </trkpt>
      <trkpt lat="43.01587" lon="0.19587">
        <ele>1068.7</ele>
        <time>2023-11-19T15:03:30Z</time>
      </trkpt>
      <trkpt lat="43.01587" lon="0.19586">
        <ele>1068.6</ele>
        <time>2023-11-19T15:03:31Z</time>
      </trkpt>
      <trkpt lat="43.01587" lon="0.19585">
        <ele>1068.5</ele>
        <time>2023-11-19T15:03:32Z</time>
      </trkpt>
      <trkpt lat="43.01586" lon="0.19583">
        <ele>1068.4</ele>
        <time>2023-11-19T15:03:33Z</time>
      </trkpt>
      <trkpt lat="43.01587" lon="0.19583">
        <ele>1068.3</ele>
        <time>2023-11-19T15:03:34Z</time>
      </trkpt>
      <trkpt lat="43.01585" lon="0.19581">
        <ele>1068.1</ele>
        <time>2023-11-19T15:03:35Z</time>
      </trkpt>
      <trkpt lat="43.01584" lon="0.1958">
        <ele>1068</ele>
        <time>2023-11-19T15:03:36Z</time>
      </trkpt>
      <trkpt lat="43.01583" lon="0.19578">
        <ele>1067.8</ele>
        <time>2023-11-19T15:03:37Z</time>
      </trkpt>
      <trkpt lat="43.01583" lon="0.19577">
        <ele>1067.7</ele>
        <time>2023-11-19T15:03:38Z</time>
      </trkpt>
      <trkpt lat="43.01582" lon="0.19576">
        <ele>1067.5</ele>
        <time>2023-11-19T15:03:39Z</time>
      </trkpt>
      <trkpt lat="43.01581" lon="0.19574">
        <ele>1067.3</ele>
        <time>2023-11-19T15:03:40Z</time>
      </trkpt>
      <trkpt lat="43.01581" lon="0.19573">
        <ele>1067.2</ele>
        <time>2023-11-19T15:03:41Z</time>
      </trkpt>
      <trkpt lat="43.0158" lon="0.19573">
        <ele>1067.1</ele>
        <time>2023-11-19T15:03:42Z</time>
      </trkpt>
      <trkpt lat="43.01579" lon="0.19571">
        <ele>1066.8</ele>
        <time>2023-11-19T15:03:43Z</time>
      </trkpt>
      <trkpt lat="43.01579" lon="0.1957">
        <ele>1066.7</ele>
        <time>2023-11-19T15:03:44Z</time>
      </trkpt>
      <trkpt lat="43.01578" lon="0.19569">
        <ele>1066.6</ele>
        <time>2023-11-19T15:03:45Z</time>
      </trkpt>
      <trkpt lat="43.01574" lon="0.1957">
        <ele>1066.1</ele>
        <time>2023-11-19T15:03:46Z</time>
      </trkpt>
      <trkpt lat="43.01574" lon="0.19571">
        <ele>1066</ele>
        <time>2023-11-19T15:03:47Z</time>
      </trkpt>
      <trkpt lat="43.01573" lon="0.19569">
        <ele>1065.8</ele>
        <time>2023-11-19T15:03:48Z</time>
      </trkpt>
      <trkpt lat="43.01573" lon="0.19568">
        <ele>1065.7</ele>
        <time>2023-11-19T15:03:49Z</time>
      </trkpt>
      <trkpt lat="43.01572" lon="0.19567">
        <ele>1065.6</ele>
        <time>2023-11-19T15:03:50Z</time>
      </trkpt>
      <trkpt lat="43.01572" lon="0.19566">
        <ele>1065.5</ele>
        <time>2023-11-19T15:03:51Z</time>
      </trkpt>
      <trkpt lat="43.01571" lon="0.19566">
        <ele>1065.4</ele>
        <time>2023-11-19T15:03:52Z</time>
      </trkpt>
      <trkpt lat="43.0157" lon="0.19565">
        <ele>1065.3</ele>
        <time>2023-11-19T15:03:53Z</time>
      </trkpt>
      <trkpt lat="43.01569" lon="0.19565">
        <ele>1065.2</ele>
        <time>2023-11-19T15:03:54Z</time>
      </trkpt>
      <trkpt lat="43.01569" lon="0.19565">
        <ele>1065.1</ele>
        <time>2023-11-19T15:03:55Z</time>
      </trkpt>
      <trkpt lat="43.01568" lon="0.19565">
        <ele>1065</ele>
        <time>2023-11-19T15:03:56Z</time>
      </trkpt>
      <trkpt lat="43.01568" lon="0.19565">
        <ele>1065</ele>
        <time>2023-11-19T15:03:57Z</time>
      </trkpt>
      <trkpt lat="43.01567" lon="0.19565">
        <ele>1064.9</ele>
        <time>2023-11-19T15:03:58Z</time>
      </trkpt>
      <trkpt lat="43.01567" lon="0.19564">
        <ele>1064.8</ele>
        <time>2023-11-19T15:03:59Z</time>
      </trkpt>
      <trkpt lat="43.01566" lon="0.19563">
        <ele>1064.7</ele>
        <time>2023-11-19T15:04:00Z</time>
      </trkpt>
      <trkpt lat="43.01565" lon="0.19561">
        <ele>1064.5</ele>
        <time>2023-11-19T15:04:01Z</time>
      </trkpt>
      <trkpt lat="43.01565" lon="0.19561">
        <ele>1064.4</ele>
        <time>2023-11-19T15:04:02Z</time>
      </trkpt>
      <trkpt lat="43.01564" lon="0.1956">
        <ele>1064.3</ele>
        <time>2023-11-19T15:04:03Z</time>
      </trkpt>
      <trkpt lat="43.01564" lon="0.1956">
        <ele>1064.3</ele>
        <time>2023-11-19T15:04:04Z</time>
      </trkpt>
      <trkpt lat="43.01564" lon="0.19559">
        <ele>1064.2</ele>
        <time>2023-11-19T15:04:05Z</time>
      </trkpt>
      <trkpt lat="43.01563" lon="0.19558">
        <ele>1064.1</ele>
        <time>2023-11-19T15:04:06Z</time>
      </trkpt>
      <trkpt lat="43.01562" lon="0.19558">
        <ele>1063.9</ele>
        <time>2023-11-19T15:04:07Z</time>
      </trkpt>
      <trkpt lat="43.01561" lon="0.19556">
        <ele>1063.8</ele>
        <time>2023-11-19T15:04:08Z</time>
      </trkpt>
      <trkpt lat="43.01561" lon="0.19556">
        <ele>1063.7</ele>
        <time>2023-11-19T15:04:09Z</time>
      </trkpt>
      <trkpt lat="43.01561" lon="0.19557">
        <ele>1063.7</ele>
        <time>2023-11-19T15:04:10Z</time>
      </trkpt>
      <trkpt lat="43.01559" lon="0.19557">
        <ele>1063.5</ele>
        <time>2023-11-19T15:04:11Z</time>
      </trkpt>
      <trkpt lat="43.01559" lon="0.19556">
        <ele>1063.4</ele>
        <time>2023-11-19T15:04:12Z</time>
      </trkpt>
      <trkpt lat="43.01558" lon="0.19556">
        <ele>1063.3</ele>
        <time>2023-11-19T15:04:13Z</time>
      </trkpt>
      <trkpt lat="43.01557" lon="0.19556">
        <ele>1063.2</ele>
        <time>2023-11-19T15:04:14Z</time>
      </trkpt>
      <trkpt lat="43.01557" lon="0.19556">
        <ele>1063.1</ele>
        <time>2023-11-19T15:04:15Z</time>
      </trkpt>
      <trkpt lat="43.01557" lon="0.19555">
        <ele>1063</ele>
        <time>2023-11-19T15:04:16Z</time>
      </trkpt>
      <trkpt lat="43.01557" lon="0.19555">
        <ele>1063</ele>
        <time>2023-11-19T15:04:17Z</time>
      </trkpt>
      <trkpt lat="43.01556" lon="0.19554">
        <ele>1062.9</ele>
        <time>2023-11-19T15:04:18Z</time>
      </trkpt>
      <trkpt lat="43.01555" lon="0.19554">
        <ele>1062.7</ele>
        <time>2023-11-19T15:04:19Z</time>
      </trkpt>
      <trkpt lat="43.01554" lon="0.19554">
        <ele>1062.6</ele>
        <time>2023-11-19T15:04:20Z</time>
      </trkpt>
      <trkpt lat="43.01554" lon="0.19554">
        <ele>1062.6</ele>
        <time>2023-11-19T15:04:21Z</time>
      </trkpt>
      <trkpt lat="43.01553" lon="0.19553">
        <ele>1062.5</ele>
        <time>2023-11-19T15:04:22Z</time>
      </trkpt>
      <trkpt lat="43.01552" lon="0.19553">
        <ele>1062.4</ele>
        <time>2023-11-19T15:04:23Z</time>
      </trkpt>
      <trkpt lat="43.01552" lon="0.19554">
        <ele>1062.2</ele>
        <time>2023-11-19T15:04:24Z</time>
      </trkpt>
      <trkpt lat="43.0155" lon="0.19552">
        <ele>1062</ele>
        <time>2023-11-19T15:04:25Z</time>
      </trkpt>
      <trkpt lat="43.0155" lon="0.19552">
        <ele>1062</ele>
        <time>2023-11-19T15:04:26Z</time>
      </trkpt>
      <trkpt lat="43.01549" lon="0.19551">
        <ele>1061.9</ele>
        <time>2023-11-19T15:04:27Z</time>
      </trkpt>
      <trkpt lat="43.01549" lon="0.19551">
        <ele>1061.8</ele>
        <time>2023-11-19T15:04:28Z</time>
      </trkpt>
      <trkpt lat="43.01549" lon="0.1955">
        <ele>1061.8</ele>
        <time>2023-11-19T15:04:29Z</time>
      </trkpt>
      <trkpt lat="43.01548" lon="0.19551">
        <ele>1061.7</ele>
        <time>2023-11-19T15:04:30Z</time>
      </trkpt>
      <trkpt lat="43.01547" lon="0.19551">
        <ele>1061.5</ele>
        <time>2023-11-19T15:04:31Z</time>
      </trkpt>
      <trkpt lat="43.01547" lon="0.19551">
        <ele>1061.4</ele>
        <time>2023-11-19T15:04:32Z</time>
      </trkpt>
      <trkpt lat="43.01546" lon="0.1955">
        <ele>1061.3</ele>
        <time>2023-11-19T15:04:33Z</time>
      </trkpt>
      <trkpt lat="43.01546" lon="0.1955">
        <ele>1061.3</ele>
        <time>2023-11-19T15:04:34Z</time>
      </trkpt>
      <trkpt lat="43.01545" lon="0.1955">
        <ele>1061.2</ele>
        <time>2023-11-19T15:04:35Z</time>
      </trkpt>
      <trkpt lat="43.01545" lon="0.1955">
        <ele>1061.2</ele>
        <time>2023-11-19T15:04:36Z</time>
      </trkpt>
      <trkpt lat="43.01544" lon="0.19549">
        <ele>1061</ele>
        <time>2023-11-19T15:04:37Z</time>
      </trkpt>
      <trkpt lat="43.01542" lon="0.19548">
        <ele>1060.8</ele>
        <time>2023-11-19T15:04:38Z</time>
      </trkpt>
      <trkpt lat="43.01541" lon="0.19549">
        <ele>1060.6</ele>
        <time>2023-11-19T15:04:39Z</time>
      </trkpt>
      <trkpt lat="43.0154" lon="0.19549">
        <ele>1060.4</ele>
        <time>2023-11-19T15:04:40Z</time>
      </trkpt>
      <trkpt lat="43.01539" lon="0.19548">
        <ele>1060.2</ele>
        <time>2023-11-19T15:04:41Z</time>
      </trkpt>
      <trkpt lat="43.01537" lon="0.19548">
        <ele>1060</ele>
        <time>2023-11-19T15:04:42Z</time>
      </trkpt>
      <trkpt lat="43.01537" lon="0.19549">
        <ele>1059.9</ele>
        <time>2023-11-19T15:04:43Z</time>
      </trkpt>
      <trkpt lat="43.01537" lon="0.1955">
        <ele>1059.8</ele>
        <time>2023-11-19T15:04:44Z</time>
      </trkpt>
      <trkpt lat="43.01537" lon="0.19549">
        <ele>1059.8</ele>
        <time>2023-11-19T15:04:45Z</time>
      </trkpt>
      <trkpt lat="43.01537" lon="0.19549">
        <ele>1059.7</ele>
        <time>2023-11-19T15:04:46Z</time>
      </trkpt>
      <trkpt lat="43.01537" lon="0.19549">
        <ele>1059.7</ele>
        <time>2023-11-19T15:04:47Z</time>
      </trkpt>
      <trkpt lat="43.01537" lon="0.19549">
        <ele>1059.6</ele>
        <time>2023-11-19T15:04:48Z</time>
      </trkpt>
      <trkpt lat="43.01536" lon="0.19549">
        <ele>1059.5</ele>
        <time>2023-11-19T15:04:49Z</time>
      </trkpt>
      <trkpt lat="43.01535" lon="0.19549">
        <ele>1059.5</ele>
        <time>2023-11-19T15:04:50Z</time>
      </trkpt>
      <trkpt lat="43.01534" lon="0.19549">
        <ele>1059.3</ele>
        <time>2023-11-19T15:04:51Z</time>
      </trkpt>
      <trkpt lat="43.01534" lon="0.19549">
        <ele>1059.3</ele>
        <time>2023-11-19T15:04:52Z</time>
      </trkpt>
      <trkpt lat="43.01533" lon="0.19549">
        <ele>1059.1</ele>
        <time>2023-11-19T15:04:53Z</time>
      </trkpt>
      <trkpt lat="43.01531" lon="0.19548">
        <ele>1058.9</ele>
        <time>2023-11-19T15:04:54Z</time>
      </trkpt>
      <trkpt lat="43.01531" lon="0.19547">
        <ele>1058.7</ele>
        <time>2023-11-19T15:04:55Z</time>
      </trkpt>
      <trkpt lat="43.0153" lon="0.19547">
        <ele>1058.5</ele>
        <time>2023-11-19T15:04:56Z</time>
      </trkpt>
      <trkpt lat="43.01529" lon="0.19547">
        <ele>1058.4</ele>
        <time>2023-11-19T15:04:57Z</time>
      </trkpt>
      <trkpt lat="43.01528" lon="0.19547">
        <ele>1058.3</ele>
        <time>2023-11-19T15:04:58Z</time>
      </trkpt>
      <trkpt lat="43.01528" lon="0.19547">
        <ele>1058.2</ele>
        <time>2023-11-19T15:04:59Z</time>
      </trkpt>
      <trkpt lat="43.01526" lon="0.19546">
        <ele>1058</ele>
        <time>2023-11-19T15:05:00Z</time>
      </trkpt>
      <trkpt lat="43.01526" lon="0.19546">
        <ele>1057.9</ele>
        <time>2023-11-19T15:05:01Z</time>
      </trkpt>
      <trkpt lat="43.01525" lon="0.19545">
        <ele>1057.8</ele>
        <time>2023-11-19T15:05:02Z</time>
      </trkpt>
      <trkpt lat="43.01524" lon="0.19546">
        <ele>1057.6</ele>
        <time>2023-11-19T15:05:03Z</time>
      </trkpt>
      <trkpt lat="43.01523" lon="0.19545">
        <ele>1057.4</ele>
        <time>2023-11-19T15:05:04Z</time>
      </trkpt>
      <trkpt lat="43.01522" lon="0.19545">
        <ele>1057.3</ele>
        <time>2023-11-19T15:05:05Z</time>
      </trkpt>
      <trkpt lat="43.01523" lon="0.19546">
        <ele>1057.2</ele>
        <time>2023-11-19T15:05:06Z</time>
      </trkpt>
      <trkpt lat="43.01522" lon="0.19545">
        <ele>1057.1</ele>
        <time>2023-11-19T15:05:07Z</time>
      </trkpt>
      <trkpt lat="43.01522" lon="0.19544">
        <ele>1057</ele>
        <time>2023-11-19T15:05:08Z</time>
      </trkpt>
      <trkpt lat="43.01522" lon="0.19544">
        <ele>1057</ele>
        <time>2023-11-19T15:05:09Z</time>
      </trkpt>
      <trkpt lat="43.01522" lon="0.19544">
        <ele>1057</ele>
        <time>2023-11-19T15:05:10Z</time>
      </trkpt>
      <trkpt lat="43.01522" lon="0.19544">
        <ele>1057</ele>
        <time>2023-11-19T15:05:11Z</time>
      </trkpt>
      <trkpt lat="43.01523" lon="0.19545">
        <ele>1056.9</ele>
        <time>2023-11-19T15:05:12Z</time>
      </trkpt>
      <trkpt lat="43.01522" lon="0.19544">
        <ele>1056.7</ele>
        <time>2023-11-19T15:05:13Z</time>
      </trkpt>
      <trkpt lat="43.01521" lon="0.19544">
        <ele>1056.6</ele>
        <time>2023-11-19T15:05:14Z</time>
      </trkpt>
      <trkpt lat="43.0152" lon="0.19544">
        <ele>1056.5</ele>
        <time>2023-11-19T15:05:15Z</time>
      </trkpt>
      <trkpt lat="43.0152" lon="0.19543">
        <ele>1056.4</ele>
        <time>2023-11-19T15:05:16Z</time>
      </trkpt>
      <trkpt lat="43.01519" lon="0.19543">
        <ele>1056.3</ele>
        <time>2023-11-19T15:05:17Z</time>
      </trkpt>
      <trkpt lat="43.01519" lon="0.19543">
        <ele>1056.2</ele>
        <time>2023-11-19T15:05:18Z</time>
      </trkpt>
      <trkpt lat="43.01517" lon="0.19543">
        <ele>1055.9</ele>
        <time>2023-11-19T15:05:19Z</time>
      </trkpt>
      <trkpt lat="43.01516" lon="0.19543">
        <ele>1055.8</ele>
        <time>2023-11-19T15:05:20Z</time>
      </trkpt>
      <trkpt lat="43.01516" lon="0.19543">
        <ele>1055.7</ele>
        <time>2023-11-19T15:05:21Z</time>
      </trkpt>
      <trkpt lat="43.01515" lon="0.19542">
        <ele>1055.5</ele>
        <time>2023-11-19T15:05:22Z</time>
      </trkpt>
      <trkpt lat="43.01514" lon="0.19543">
        <ele>1055.4</ele>
        <time>2023-11-19T15:05:23Z</time>
      </trkpt>
      <trkpt lat="43.01513" lon="0.19543">
        <ele>1055.2</ele>
        <time>2023-11-19T15:05:24Z</time>
      </trkpt>
      <trkpt lat="43.01512" lon="0.19543">
        <ele>1055</ele>
        <time>2023-11-19T15:05:25Z</time>
      </trkpt>
      <trkpt lat="43.01511" lon="0.19542">
        <ele>1054.8</ele>
        <time>2023-11-19T15:05:26Z</time>
      </trkpt>
      <trkpt lat="43.0151" lon="0.19542">
        <ele>1054.8</ele>
        <time>2023-11-19T15:05:27Z</time>
      </trkpt>
      <trkpt lat="43.01509" lon="0.19541">
        <ele>1054.6</ele>
        <time>2023-11-19T15:05:28Z</time>
      </trkpt>
      <trkpt lat="43.01509" lon="0.19541">
        <ele>1054.5</ele>
        <time>2023-11-19T15:05:29Z</time>
      </trkpt>
      <trkpt lat="43.01508" lon="0.1954">
        <ele>1054.2</ele>
        <time>2023-11-19T15:05:30Z</time>
      </trkpt>
      <trkpt lat="43.01506" lon="0.1954">
        <ele>1054.1</ele>
        <time>2023-11-19T15:05:31Z</time>
      </trkpt>
      <trkpt lat="43.01505" lon="0.19539">
        <ele>1053.9</ele>
        <time>2023-11-19T15:05:32Z</time>
      </trkpt>
      <trkpt lat="43.01504" lon="0.19539">
        <ele>1053.7</ele>
        <time>2023-11-19T15:05:33Z</time>
      </trkpt>
      <trkpt lat="43.01503" lon="0.1954">
        <ele>1053.5</ele>
        <time>2023-11-19T15:05:34Z</time>
      </trkpt>
      <trkpt lat="43.01502" lon="0.1954">
        <ele>1053.4</ele>
        <time>2023-11-19T15:05:35Z</time>
      </trkpt>
      <trkpt lat="43.01501" lon="0.1954">
        <ele>1053.2</ele>
        <time>2023-11-19T15:05:36Z</time>
      </trkpt>
      <trkpt lat="43.015" lon="0.19539">
        <ele>1053</ele>
        <time>2023-11-19T15:05:37Z</time>
      </trkpt>
      <trkpt lat="43.01499" lon="0.19539">
        <ele>1052.8</ele>
        <time>2023-11-19T15:05:38Z</time>
      </trkpt>
      <trkpt lat="43.01498" lon="0.19539">
        <ele>1052.7</ele>
        <time>2023-11-19T15:05:39Z</time>
      </trkpt>
      <trkpt lat="43.01497" lon="0.19538">
        <ele>1052.6</ele>
        <time>2023-11-19T15:05:40Z</time>
      </trkpt>
      <trkpt lat="43.01497" lon="0.19537">
        <ele>1052.5</ele>
        <time>2023-11-19T15:05:41Z</time>
      </trkpt>
      <trkpt lat="43.01495" lon="0.19538">
        <ele>1052.3</ele>
        <time>2023-11-19T15:05:42Z</time>
      </trkpt>
      <trkpt lat="43.01495" lon="0.19537">
        <ele>1052.1</ele>
        <time>2023-11-19T15:05:43Z</time>
      </trkpt>
      <trkpt lat="43.01494" lon="0.19537">
        <ele>1052</ele>
        <time>2023-11-19T15:05:44Z</time>
      </trkpt>
      <trkpt lat="43.01493" lon="0.19536">
        <ele>1051.9</ele>
        <time>2023-11-19T15:05:45Z</time>
      </trkpt>
      <trkpt lat="43.01492" lon="0.19535">
        <ele>1051.7</ele>
        <time>2023-11-19T15:05:46Z</time>
      </trkpt>
      <trkpt lat="43.01491" lon="0.19535">
        <ele>1051.5</ele>
        <time>2023-11-19T15:05:47Z</time>
      </trkpt>
      <trkpt lat="43.01491" lon="0.19535">
        <ele>1051.5</ele>
        <time>2023-11-19T15:05:48Z</time>
      </trkpt>
      <trkpt lat="43.0149" lon="0.19534">
        <ele>1051.2</ele>
        <time>2023-11-19T15:05:49Z</time>
      </trkpt>
      <trkpt lat="43.01489" lon="0.19534">
        <ele>1051.1</ele>
        <time>2023-11-19T15:05:50Z</time>
      </trkpt>
      <trkpt lat="43.01488" lon="0.19533">
        <ele>1050.9</ele>
        <time>2023-11-19T15:05:51Z</time>
      </trkpt>
      <trkpt lat="43.01487" lon="0.19533">
        <ele>1050.8</ele>
        <time>2023-11-19T15:05:52Z</time>
      </trkpt>
      <trkpt lat="43.01487" lon="0.19533">
        <ele>1050.7</ele>
        <time>2023-11-19T15:05:53Z</time>
      </trkpt>
      <trkpt lat="43.01486" lon="0.19533">
        <ele>1050.6</ele>
        <time>2023-11-19T15:05:54Z</time>
      </trkpt>
      <trkpt lat="43.01486" lon="0.19533">
        <ele>1050.6</ele>
        <time>2023-11-19T15:05:55Z</time>
      </trkpt>
      <trkpt lat="43.01485" lon="0.19532">
        <ele>1050.5</ele>
        <time>2023-11-19T15:05:56Z</time>
      </trkpt>
      <trkpt lat="43.01485" lon="0.19531">
        <ele>1050.3</ele>
        <time>2023-11-19T15:05:57Z</time>
      </trkpt>
      <trkpt lat="43.01484" lon="0.19531">
        <ele>1050.2</ele>
        <time>2023-11-19T15:05:58Z</time>
      </trkpt>
      <trkpt lat="43.01483" lon="0.19531">
        <ele>1050.1</ele>
        <time>2023-11-19T15:05:59Z</time>
      </trkpt>
      <trkpt lat="43.01483" lon="0.19532">
        <ele>1050</ele>
        <time>2023-11-19T15:06:00Z</time>
      </trkpt>
      <trkpt lat="43.01482" lon="0.19531">
        <ele>1049.8</ele>
        <time>2023-11-19T15:06:01Z</time>
      </trkpt>
      <trkpt lat="43.01481" lon="0.19531">
        <ele>1049.7</ele>
        <time>2023-11-19T15:06:02Z</time>
      </trkpt>
      <trkpt lat="43.0148" lon="0.19531">
        <ele>1049.6</ele>
        <time>2023-11-19T15:06:03Z</time>
      </trkpt>
      <trkpt lat="43.01479" lon="0.19532">
        <ele>1049.5</ele>
        <time>2023-11-19T15:06:04Z</time>
      </trkpt>
      <trkpt lat="43.01478" lon="0.19531">
        <ele>1049.2</ele>
        <time>2023-11-19T15:06:05Z</time>
      </trkpt>
      <trkpt lat="43.01478" lon="0.19531">
        <ele>1049.1</ele>
        <time>2023-11-19T15:06:06Z</time>
      </trkpt>
      <trkpt lat="43.01477" lon="0.1953">
        <ele>1049</ele>
        <time>2023-11-19T15:06:07Z</time>
      </trkpt>
      <trkpt lat="43.01477" lon="0.1953">
        <ele>1049</ele>
        <time>2023-11-19T15:06:08Z</time>
      </trkpt>
      <trkpt lat="43.01476" lon="0.19529">
        <ele>1048.9</ele>
        <time>2023-11-19T15:06:09Z</time>
      </trkpt>
      <trkpt lat="43.01475" lon="0.19528">
        <ele>1048.7</ele>
        <time>2023-11-19T15:06:10Z</time>
      </trkpt>
      <trkpt lat="43.01475" lon="0.19527">
        <ele>1048.6</ele>
        <time>2023-11-19T15:06:11Z</time>
      </trkpt>
      <trkpt lat="43.01475" lon="0.19527">
        <ele>1048.5</ele>
        <time>2023-11-19T15:06:12Z</time>
      </trkpt>
      <trkpt lat="43.01474" lon="0.19526">
        <ele>1048.4</ele>
        <time>2023-11-19T15:06:13Z</time>
      </trkpt>
      <trkpt lat="43.01473" lon="0.19525">
        <ele>1048.2</ele>
        <time>2023-11-19T15:06:14Z</time>
      </trkpt>
      <trkpt lat="43.01473" lon="0.19525">
        <ele>1048.1</ele>
        <time>2023-11-19T15:06:15Z</time>
      </trkpt>
      <trkpt lat="43.01472" lon="0.19524">
        <ele>1048</ele>
        <time>2023-11-19T15:06:16Z</time>
      </trkpt>
      <trkpt lat="43.01472" lon="0.19524">
        <ele>1047.9</ele>
        <time>2023-11-19T15:06:17Z</time>
      </trkpt>
      <trkpt lat="43.01471" lon="0.19523">
        <ele>1047.8</ele>
        <time>2023-11-19T15:06:18Z</time>
      </trkpt>
      <trkpt lat="43.0147" lon="0.19523">
        <ele>1047.6</ele>
        <time>2023-11-19T15:06:19Z</time>
      </trkpt>
      <trkpt lat="43.01469" lon="0.19521">
        <ele>1047.4</ele>
        <time>2023-11-19T15:06:20Z</time>
      </trkpt>
      <trkpt lat="43.01468" lon="0.1952">
        <ele>1047.3</ele>
        <time>2023-11-19T15:06:21Z</time>
      </trkpt>
      <trkpt lat="43.01468" lon="0.1952">
        <ele>1047.2</ele>
        <time>2023-11-19T15:06:22Z</time>
      </trkpt>
      <trkpt lat="43.01467" lon="0.19519">
        <ele>1047</ele>
        <time>2023-11-19T15:06:23Z</time>
      </trkpt>
      <trkpt lat="43.01466" lon="0.19519">
        <ele>1046.9</ele>
        <time>2023-11-19T15:06:24Z</time>
      </trkpt>
      <trkpt lat="43.01465" lon="0.19519">
        <ele>1046.8</ele>
        <time>2023-11-19T15:06:25Z</time>
      </trkpt>
      <trkpt lat="43.01465" lon="0.19518">
        <ele>1046.7</ele>
        <time>2023-11-19T15:06:26Z</time>
      </trkpt>
      <trkpt lat="43.01464" lon="0.19518">
        <ele>1046.6</ele>
        <time>2023-11-19T15:06:27Z</time>
      </trkpt>
      <trkpt lat="43.01463" lon="0.19517">
        <ele>1046.5</ele>
        <time>2023-11-19T15:06:28Z</time>
      </trkpt>
      <trkpt lat="43.01463" lon="0.19517">
        <ele>1046.3</ele>
        <time>2023-11-19T15:06:29Z</time>
      </trkpt>
      <trkpt lat="43.01462" lon="0.19516">
        <ele>1046.3</ele>
        <time>2023-11-19T15:06:30Z</time>
      </trkpt>
      <trkpt lat="43.01461" lon="0.19515">
        <ele>1046.1</ele>
        <time>2023-11-19T15:06:31Z</time>
      </trkpt>
      <trkpt lat="43.0146" lon="0.19514">
        <ele>1045.9</ele>
        <time>2023-11-19T15:06:32Z</time>
      </trkpt>
      <trkpt lat="43.0146" lon="0.19514">
        <ele>1045.8</ele>
        <time>2023-11-19T15:06:33Z</time>
      </trkpt>
      <trkpt lat="43.01459" lon="0.19514">
        <ele>1045.7</ele>
        <time>2023-11-19T15:06:34Z</time>
      </trkpt>
      <trkpt lat="43.01458" lon="0.19514">
        <ele>1045.6</ele>
        <time>2023-11-19T15:06:35Z</time>
      </trkpt>
      <trkpt lat="43.01458" lon="0.19513">
        <ele>1045.5</ele>
        <time>2023-11-19T15:06:36Z</time>
      </trkpt>
      <trkpt lat="43.01457" lon="0.19513">
        <ele>1045.4</ele>
        <time>2023-11-19T15:06:37Z</time>
      </trkpt>
      <trkpt lat="43.01457" lon="0.19512">
        <ele>1045.3</ele>
        <time>2023-11-19T15:06:38Z</time>
      </trkpt>
      <trkpt lat="43.01456" lon="0.19511">
        <ele>1045.1</ele>
        <time>2023-11-19T15:06:39Z</time>
      </trkpt>
      <trkpt lat="43.01455" lon="0.1951">
        <ele>1045</ele>
        <time>2023-11-19T15:06:40Z</time>
      </trkpt>
      <trkpt lat="43.01454" lon="0.19509">
        <ele>1044.8</ele>
        <time>2023-11-19T15:06:41Z</time>
      </trkpt>
      <trkpt lat="43.01454" lon="0.19509">
        <ele>1044.7</ele>
        <time>2023-11-19T15:06:42Z</time>
      </trkpt>
      <trkpt lat="43.01453" lon="0.19509">
        <ele>1044.6</ele>
        <time>2023-11-19T15:06:43Z</time>
      </trkpt>
      <trkpt lat="43.01452" lon="0.19508">
        <ele>1044.5</ele>
        <time>2023-11-19T15:06:44Z</time>
      </trkpt>
      <trkpt lat="43.01452" lon="0.19509">
        <ele>1044.3</ele>
        <time>2023-11-19T15:06:45Z</time>
      </trkpt>
      <trkpt lat="43.01451" lon="0.19508">
        <ele>1044.3</ele>
        <time>2023-11-19T15:06:46Z</time>
      </trkpt>
      <trkpt lat="43.0145" lon="0.19507">
        <ele>1044.1</ele>
        <time>2023-11-19T15:06:47Z</time>
      </trkpt>
      <trkpt lat="43.0145" lon="0.19507">
        <ele>1044</ele>
        <time>2023-11-19T15:06:48Z</time>
      </trkpt>
      <trkpt lat="43.0145" lon="0.19507">
        <ele>1043.9</ele>
        <time>2023-11-19T15:06:49Z</time>
      </trkpt>
      <trkpt lat="43.01449" lon="0.19507">
        <ele>1043.8</ele>
        <time>2023-11-19T15:06:50Z</time>
      </trkpt>
      <trkpt lat="43.01448" lon="0.19507">
        <ele>1043.7</ele>
        <time>2023-11-19T15:06:51Z</time>
      </trkpt>
      <trkpt lat="43.01448" lon="0.19506">
        <ele>1043.7</ele>
        <time>2023-11-19T15:06:52Z</time>
      </trkpt>
      <trkpt lat="43.01448" lon="0.19506">
        <ele>1043.6</ele>
        <time>2023-11-19T15:06:53Z</time>
      </trkpt>
      <trkpt lat="43.01447" lon="0.19506">
        <ele>1043.5</ele>
        <time>2023-11-19T15:06:54Z</time>
      </trkpt>
      <trkpt lat="43.01447" lon="0.19506">
        <ele>1043.5</ele>
        <time>2023-11-19T15:06:55Z</time>
      </trkpt>
      <trkpt lat="43.01446" lon="0.19507">
        <ele>1043.3</ele>
        <time>2023-11-19T15:06:56Z</time>
      </trkpt>
      <trkpt lat="43.01446" lon="0.19506">
        <ele>1043.3</ele>
        <time>2023-11-19T15:06:57Z</time>
      </trkpt>
      <trkpt lat="43.01446" lon="0.19506">
        <ele>1043.2</ele>
        <time>2023-11-19T15:06:58Z</time>
      </trkpt>
      <trkpt lat="43.01446" lon="0.19506">
        <ele>1043.2</ele>
        <time>2023-11-19T15:06:59Z</time>
      </trkpt>
      <trkpt lat="43.01446" lon="0.19506">
        <ele>1043.2</ele>
        <time>2023-11-19T15:07:00Z</time>
      </trkpt>
      <trkpt lat="43.01445" lon="0.19505">
        <ele>1043</ele>
        <time>2023-11-19T15:07:01Z</time>
      </trkpt>
      <trkpt lat="43.01445" lon="0.19505">
        <ele>1043</ele>
        <time>2023-11-19T15:07:02Z</time>
      </trkpt>
      <trkpt lat="43.01445" lon="0.19505">
        <ele>1042.9</ele>
        <time>2023-11-19T15:07:03Z</time>
      </trkpt>
      <trkpt lat="43.01445" lon="0.19504">
        <ele>1042.9</ele>
        <time>2023-11-19T15:07:04Z</time>
      </trkpt>
      <trkpt lat="43.01445" lon="0.19504">
        <ele>1042.9</ele>
        <time>2023-11-19T15:07:05Z</time>
      </trkpt>
      <trkpt lat="43.01445" lon="0.19504">
        <ele>1042.9</ele>
        <time>2023-11-19T15:07:06Z</time>
      </trkpt>
      <trkpt lat="43.01445" lon="0.19504">
        <ele>1042.9</ele>
        <time>2023-11-19T15:07:07Z</time>
      </trkpt>
      <trkpt lat="43.01445" lon="0.19504">
        <ele>1042.9</ele>
        <time>2023-11-19T15:07:08Z</time>
      </trkpt>
      <trkpt lat="43.01445" lon="0.19504">
        <ele>1042.9</ele>
        <time>2023-11-19T15:07:09Z</time>
      </trkpt>
      <trkpt lat="43.01445" lon="0.19504">
        <ele>1042.9</ele>
        <time>2023-11-19T15:07:10Z</time>
      </trkpt>
      <trkpt lat="43.01444" lon="0.19504">
        <ele>1042.8</ele>
        <time>2023-11-19T15:07:11Z</time>
      </trkpt>
      <trkpt lat="43.01444" lon="0.19504">
        <ele>1042.7</ele>
        <time>2023-11-19T15:07:12Z</time>
      </trkpt>
      <trkpt lat="43.01444" lon="0.19504">
        <ele>1042.7</ele>
        <time>2023-11-19T15:07:13Z</time>
      </trkpt>
      <trkpt lat="43.01444" lon="0.19504">
        <ele>1042.7</ele>
        <time>2023-11-19T15:07:14Z</time>
      </trkpt>
      <trkpt lat="43.01444" lon="0.19504">
        <ele>1042.7</ele>
        <time>2023-11-19T15:07:15Z</time>
      </trkpt>
      <trkpt lat="43.01444" lon="0.19504">
        <ele>1042.7</ele>
        <time>2023-11-19T15:07:16Z</time>
      </trkpt>
      <trkpt lat="43.01444" lon="0.19505">
        <ele>1042.6</ele>
        <time>2023-11-19T15:07:17Z</time>
      </trkpt>
      <trkpt lat="43.01444" lon="0.19505">
        <ele>1042.6</ele>
        <time>2023-11-19T15:07:18Z</time>
      </trkpt>
      <trkpt lat="43.01444" lon="0.19505">
        <ele>1042.6</ele>
        <time>2023-11-19T15:07:19Z</time>
      </trkpt>
      <trkpt lat="43.01444" lon="0.19505">
        <ele>1042.6</ele>
        <time>2023-11-19T15:07:20Z</time>
      </trkpt>
      <trkpt lat="43.01443" lon="0.19505">
        <ele>1042.5</ele>
        <time>2023-11-19T15:07:21Z</time>
      </trkpt>
      <trkpt lat="43.01443" lon="0.19505">
        <ele>1042.4</ele>
        <time>2023-11-19T15:07:22Z</time>
      </trkpt>
      <trkpt lat="43.01442" lon="0.19505">
        <ele>1042.4</ele>
        <time>2023-11-19T15:07:23Z</time>
      </trkpt>
      <trkpt lat="43.01441" lon="0.19504">
        <ele>1042.2</ele>
        <time>2023-11-19T15:07:24Z</time>
      </trkpt>
      <trkpt lat="43.0144" lon="0.19504">
        <ele>1042</ele>
        <time>2023-11-19T15:07:25Z</time>
      </trkpt>
      <trkpt lat="43.0144" lon="0.19503">
        <ele>1041.9</ele>
        <time>2023-11-19T15:07:26Z</time>
      </trkpt>
      <trkpt lat="43.01439" lon="0.19503">
        <ele>1041.8</ele>
        <time>2023-11-19T15:07:27Z</time>
      </trkpt>
      <trkpt lat="43.01438" lon="0.19503">
        <ele>1041.7</ele>
        <time>2023-11-19T15:07:28Z</time>
      </trkpt>
      <trkpt lat="43.01437" lon="0.19502">
        <ele>1041.6</ele>
        <time>2023-11-19T15:07:29Z</time>
      </trkpt>
      <trkpt lat="43.01437" lon="0.19502">
        <ele>1041.5</ele>
        <time>2023-11-19T15:07:30Z</time>
      </trkpt>
      <trkpt lat="43.01436" lon="0.19501">
        <ele>1041.3</ele>
        <time>2023-11-19T15:07:31Z</time>
      </trkpt>
      <trkpt lat="43.01435" lon="0.19501">
        <ele>1041.2</ele>
        <time>2023-11-19T15:07:32Z</time>
      </trkpt>
      <trkpt lat="43.01434" lon="0.19501">
        <ele>1041</ele>
        <time>2023-11-19T15:07:33Z</time>
      </trkpt>
      <trkpt lat="43.01433" lon="0.195">
        <ele>1040.9</ele>
        <time>2023-11-19T15:07:34Z</time>
      </trkpt>
      <trkpt lat="43.01433" lon="0.195">
        <ele>1040.8</ele>
        <time>2023-11-19T15:07:35Z</time>
      </trkpt>
      <trkpt lat="43.01432" lon="0.195">
        <ele>1040.7</ele>
        <time>2023-11-19T15:07:36Z</time>
      </trkpt>
      <trkpt lat="43.01432" lon="0.195">
        <ele>1040.6</ele>
        <time>2023-11-19T15:07:37Z</time>
      </trkpt>
      <trkpt lat="43.01431" lon="0.195">
        <ele>1040.5</ele>
        <time>2023-11-19T15:07:38Z</time>
      </trkpt>
      <trkpt lat="43.0143" lon="0.195">
        <ele>1040.4</ele>
        <time>2023-11-19T15:07:39Z</time>
      </trkpt>
      <trkpt lat="43.01429" lon="0.19499">
        <ele>1040.3</ele>
        <time>2023-11-19T15:07:40Z</time>
      </trkpt>
      <trkpt lat="43.01428" lon="0.19499">
        <ele>1040.1</ele>
        <time>2023-11-19T15:07:41Z</time>
      </trkpt>
      <trkpt lat="43.01428" lon="0.19499">
        <ele>1040</ele>
        <time>2023-11-19T15:07:42Z</time>
      </trkpt>
      <trkpt lat="43.01426" lon="0.19498">
        <ele>1039.8</ele>
        <time>2023-11-19T15:07:43Z</time>
      </trkpt>
      <trkpt lat="43.01425" lon="0.19497">
        <ele>1039.6</ele>
        <time>2023-11-19T15:07:44Z</time>
      </trkpt>
      <trkpt lat="43.01425" lon="0.19497">
        <ele>1039.5</ele>
        <time>2023-11-19T15:07:45Z</time>
      </trkpt>
      <trkpt lat="43.01423" lon="0.19498">
        <ele>1039.3</ele>
        <time>2023-11-19T15:07:46Z</time>
      </trkpt>
      <trkpt lat="43.01422" lon="0.19498">
        <ele>1039</ele>
        <time>2023-11-19T15:07:47Z</time>
      </trkpt>
      <trkpt lat="43.01421" lon="0.19498">
        <ele>1038.9</ele>
        <time>2023-11-19T15:07:48Z</time>
      </trkpt>
      <trkpt lat="43.0142" lon="0.19498">
        <ele>1038.8</ele>
        <time>2023-11-19T15:07:49Z</time>
      </trkpt>
      <trkpt lat="43.01419" lon="0.19497">
        <ele>1038.6</ele>
        <time>2023-11-19T15:07:50Z</time>
      </trkpt>
      <trkpt lat="43.01418" lon="0.19495">
        <ele>1038.3</ele>
        <time>2023-11-19T15:07:51Z</time>
      </trkpt>
      <trkpt lat="43.01418" lon="0.19494">
        <ele>1038.2</ele>
        <time>2023-11-19T15:07:52Z</time>
      </trkpt>
      <trkpt lat="43.01417" lon="0.19494">
        <ele>1038</ele>
        <time>2023-11-19T15:07:53Z</time>
      </trkpt>
      <trkpt lat="43.01416" lon="0.19493">
        <ele>1037.8</ele>
        <time>2023-11-19T15:07:54Z</time>
      </trkpt>
      <trkpt lat="43.01415" lon="0.19492">
        <ele>1037.7</ele>
        <time>2023-11-19T15:07:55Z</time>
      </trkpt>
      <trkpt lat="43.01414" lon="0.19491">
        <ele>1037.5</ele>
        <time>2023-11-19T15:07:56Z</time>
      </trkpt>
      <trkpt lat="43.01412" lon="0.19494">
        <ele>1037</ele>
        <time>2023-11-19T15:07:57Z</time>
      </trkpt>
      <trkpt lat="43.01411" lon="0.19491">
        <ele>1036.7</ele>
        <time>2023-11-19T15:07:58Z</time>
      </trkpt>
      <trkpt lat="43.01411" lon="0.1949">
        <ele>1036.5</ele>
        <time>2023-11-19T15:07:59Z</time>
      </trkpt>
      <trkpt lat="43.01412" lon="0.19488">
        <ele>1036.3</ele>
        <time>2023-11-19T15:08:00Z</time>
      </trkpt>
      <trkpt lat="43.01411" lon="0.19488">
        <ele>1036.3</ele>
        <time>2023-11-19T15:08:01Z</time>
      </trkpt>
      <trkpt lat="43.01411" lon="0.19487">
        <ele>1036.1</ele>
        <time>2023-11-19T15:08:02Z</time>
      </trkpt>
      <trkpt lat="43.01411" lon="0.19486">
        <ele>1036</ele>
        <time>2023-11-19T15:08:03Z</time>
      </trkpt>
      <trkpt lat="43.0141" lon="0.19486">
        <ele>1036</ele>
        <time>2023-11-19T15:08:04Z</time>
      </trkpt>
      <trkpt lat="43.01411" lon="0.19486">
        <ele>1035.9</ele>
        <time>2023-11-19T15:08:05Z</time>
      </trkpt>
      <trkpt lat="43.01411" lon="0.19486">
        <ele>1035.8</ele>
        <time>2023-11-19T15:08:06Z</time>
      </trkpt>
      <trkpt lat="43.01412" lon="0.19486">
        <ele>1035.7</ele>
        <time>2023-11-19T15:08:07Z</time>
      </trkpt>
      <trkpt lat="43.01412" lon="0.19487">
        <ele>1035.7</ele>
        <time>2023-11-19T15:08:08Z</time>
      </trkpt>
      <trkpt lat="43.01412" lon="0.19487">
        <ele>1035.7</ele>
        <time>2023-11-19T15:08:09Z</time>
      </trkpt>
      <trkpt lat="43.01412" lon="0.19487">
        <ele>1035.7</ele>
        <time>2023-11-19T15:08:10Z</time>
      </trkpt>
      <trkpt lat="43.01412" lon="0.19487">
        <ele>1035.7</ele>
        <time>2023-11-19T15:08:11Z</time>
      </trkpt>
      <trkpt lat="43.01411" lon="0.19488">
        <ele>1035.6</ele>
        <time>2023-11-19T15:08:12Z</time>
      </trkpt>
      <trkpt lat="43.01412" lon="0.19488">
        <ele>1035.5</ele>
        <time>2023-11-19T15:08:13Z</time>
      </trkpt>
      <trkpt lat="43.01412" lon="0.19488">
        <ele>1035.5</ele>
        <time>2023-11-19T15:08:14Z</time>
      </trkpt>
      <trkpt lat="43.01412" lon="0.19488">
        <ele>1035.4</ele>
        <time>2023-11-19T15:08:15Z</time>
      </trkpt>
      <trkpt lat="43.01412" lon="0.19488">
        <ele>1035.4</ele>
        <time>2023-11-19T15:08:16Z</time>
      </trkpt>
      <trkpt lat="43.01411" lon="0.19488">
        <ele>1035.4</ele>
        <time>2023-11-19T15:08:17Z</time>
      </trkpt>
      <trkpt lat="43.01411" lon="0.19488">
        <ele>1035.4</ele>
        <time>2023-11-19T15:08:18Z</time>
      </trkpt>
      <trkpt lat="43.01412" lon="0.19488">
        <ele>1035.3</ele>
        <time>2023-11-19T15:08:19Z</time>
      </trkpt>
      <trkpt lat="43.01411" lon="0.19488">
        <ele>1035.3</ele>
        <time>2023-11-19T15:08:20Z</time>
      </trkpt>
      <trkpt lat="43.01411" lon="0.19488">
        <ele>1035.3</ele>
        <time>2023-11-19T15:08:21Z</time>
      </trkpt>
      <trkpt lat="43.01411" lon="0.19488">
        <ele>1035.3</ele>
        <time>2023-11-19T15:08:22Z</time>
      </trkpt>
      <trkpt lat="43.01411" lon="0.19488">
        <ele>1035.3</ele>
        <time>2023-11-19T15:08:23Z</time>
      </trkpt>
      <trkpt lat="43.01411" lon="0.19488">
        <ele>1035.3</ele>
        <time>2023-11-19T15:08:24Z</time>
      </trkpt>
      <trkpt lat="43.01411" lon="0.19488">
        <ele>1035.3</ele>
        <time>2023-11-19T15:08:25Z</time>
      </trkpt>
      <trkpt lat="43.01411" lon="0.19488">
        <ele>1035.3</ele>
        <time>2023-11-19T15:08:26Z</time>
      </trkpt>
      <trkpt lat="43.01411" lon="0.19488">
        <ele>1035.3</ele>
        <time>2023-11-19T15:08:27Z</time>
      </trkpt>
      <trkpt lat="43.01412" lon="0.19487">
        <ele>1035.1</ele>
        <time>2023-11-19T15:08:28Z</time>
      </trkpt>
      <trkpt lat="43.01412" lon="0.19487">
        <ele>1035.1</ele>
        <time>2023-11-19T15:08:29Z</time>
      </trkpt>
      <trkpt lat="43.01412" lon="0.19487">
        <ele>1035.1</ele>
        <time>2023-11-19T15:08:30Z</time>
      </trkpt>
      <trkpt lat="43.01412" lon="0.19488">
        <ele>1035.1</ele>
        <time>2023-11-19T15:08:31Z</time>
      </trkpt>
      <trkpt lat="43.01412" lon="0.19487">
        <ele>1035.1</ele>
        <time>2023-11-19T15:08:32Z</time>
      </trkpt>
      <trkpt lat="43.01412" lon="0.19487">
        <ele>1035</ele>
        <time>2023-11-19T15:08:33Z</time>
      </trkpt>
      <trkpt lat="43.01411" lon="0.19487">
        <ele>1034.9</ele>
        <time>2023-11-19T15:08:34Z</time>
      </trkpt>
      <trkpt lat="43.01411" lon="0.19486">
        <ele>1034.8</ele>
        <time>2023-11-19T15:08:35Z</time>
      </trkpt>
      <trkpt lat="43.0141" lon="0.19485">
        <ele>1034.6</ele>
        <time>2023-11-19T15:08:36Z</time>
      </trkpt>
      <trkpt lat="43.0141" lon="0.19485">
        <ele>1034.5</ele>
        <time>2023-11-19T15:08:37Z</time>
      </trkpt>
      <trkpt lat="43.01409" lon="0.19483">
        <ele>1034.3</ele>
        <time>2023-11-19T15:08:38Z</time>
      </trkpt>
      <trkpt lat="43.01408" lon="0.19482">
        <ele>1034.1</ele>
        <time>2023-11-19T15:08:39Z</time>
      </trkpt>
      <trkpt lat="43.01407" lon="0.19482">
        <ele>1033.9</ele>
        <time>2023-11-19T15:08:40Z</time>
      </trkpt>
      <trkpt lat="43.01406" lon="0.19481">
        <ele>1033.7</ele>
        <time>2023-11-19T15:08:41Z</time>
      </trkpt>
      <trkpt lat="43.01405" lon="0.1948">
        <ele>1033.5</ele>
        <time>2023-11-19T15:08:42Z</time>
      </trkpt>
      <trkpt lat="43.01405" lon="0.19479">
        <ele>1033.4</ele>
        <time>2023-11-19T15:08:43Z</time>
      </trkpt>
      <trkpt lat="43.01404" lon="0.19479">
        <ele>1033.2</ele>
        <time>2023-11-19T15:08:44Z</time>
      </trkpt>
      <trkpt lat="43.01403" lon="0.19478">
        <ele>1033</ele>
        <time>2023-11-19T15:08:45Z</time>
      </trkpt>
      <trkpt lat="43.01402" lon="0.19477">
        <ele>1032.8</ele>
        <time>2023-11-19T15:08:46Z</time>
      </trkpt>
      <trkpt lat="43.01401" lon="0.19476">
        <ele>1032.6</ele>
        <time>2023-11-19T15:08:47Z</time>
      </trkpt>
      <trkpt lat="43.014" lon="0.19476">
        <ele>1032.4</ele>
        <time>2023-11-19T15:08:48Z</time>
      </trkpt>
      <trkpt lat="43.01399" lon="0.19475">
        <ele>1032.2</ele>
        <time>2023-11-19T15:08:49Z</time>
      </trkpt>
      <trkpt lat="43.01398" lon="0.19476">
        <ele>1032.1</ele>
        <time>2023-11-19T15:08:50Z</time>
      </trkpt>
      <trkpt lat="43.01397" lon="0.19475">
        <ele>1031.9</ele>
        <time>2023-11-19T15:08:51Z</time>
      </trkpt>
      <trkpt lat="43.01396" lon="0.19475">
        <ele>1031.6</ele>
        <time>2023-11-19T15:08:52Z</time>
      </trkpt>
      <trkpt lat="43.01396" lon="0.19474">
        <ele>1031.5</ele>
        <time>2023-11-19T15:08:53Z</time>
      </trkpt>
      <trkpt lat="43.01394" lon="0.19473">
        <ele>1031.2</ele>
        <time>2023-11-19T15:08:54Z</time>
      </trkpt>
      <trkpt lat="43.01395" lon="0.19472">
        <ele>1031.1</ele>
        <time>2023-11-19T15:08:55Z</time>
      </trkpt>
      <trkpt lat="43.01394" lon="0.19471">
        <ele>1031</ele>
        <time>2023-11-19T15:08:56Z</time>
      </trkpt>
      <trkpt lat="43.01394" lon="0.1947">
        <ele>1030.8</ele>
        <time>2023-11-19T15:08:57Z</time>
      </trkpt>
      <trkpt lat="43.01394" lon="0.1947">
        <ele>1030.8</ele>
        <time>2023-11-19T15:08:58Z</time>
      </trkpt>
      <trkpt lat="43.01393" lon="0.19469">
        <ele>1030.7</ele>
        <time>2023-11-19T15:08:59Z</time>
      </trkpt>
      <trkpt lat="43.01393" lon="0.19468">
        <ele>1030.5</ele>
        <time>2023-11-19T15:09:00Z</time>
      </trkpt>
      <trkpt lat="43.01393" lon="0.19467">
        <ele>1030.3</ele>
        <time>2023-11-19T15:09:01Z</time>
      </trkpt>
      <trkpt lat="43.01392" lon="0.19466">
        <ele>1030.2</ele>
        <time>2023-11-19T15:09:02Z</time>
      </trkpt>
      <trkpt lat="43.01391" lon="0.19466">
        <ele>1030</ele>
        <time>2023-11-19T15:09:03Z</time>
      </trkpt>
      <trkpt lat="43.01391" lon="0.19465">
        <ele>1029.9</ele>
        <time>2023-11-19T15:09:04Z</time>
      </trkpt>
      <trkpt lat="43.01391" lon="0.19464">
        <ele>1029.8</ele>
        <time>2023-11-19T15:09:05Z</time>
      </trkpt>
      <trkpt lat="43.0139" lon="0.19463">
        <ele>1029.6</ele>
        <time>2023-11-19T15:09:06Z</time>
      </trkpt>
      <trkpt lat="43.0139" lon="0.19462">
        <ele>1029.4</ele>
        <time>2023-11-19T15:09:07Z</time>
      </trkpt>
      <trkpt lat="43.0139" lon="0.1946">
        <ele>1029.2</ele>
        <time>2023-11-19T15:09:08Z</time>
      </trkpt>
      <trkpt lat="43.0139" lon="0.19459">
        <ele>1029</ele>
        <time>2023-11-19T15:09:09Z</time>
      </trkpt>
      <trkpt lat="43.01389" lon="0.19458">
        <ele>1028.8</ele>
        <time>2023-11-19T15:09:10Z</time>
      </trkpt>
      <trkpt lat="43.01388" lon="0.19457">
        <ele>1028.6</ele>
        <time>2023-11-19T15:09:11Z</time>
      </trkpt>
      <trkpt lat="43.01388" lon="0.19455">
        <ele>1028.4</ele>
        <time>2023-11-19T15:09:12Z</time>
      </trkpt>
      <trkpt lat="43.01387" lon="0.19454">
        <ele>1028.2</ele>
        <time>2023-11-19T15:09:13Z</time>
      </trkpt>
      <trkpt lat="43.01388" lon="0.19453">
        <ele>1028.1</ele>
        <time>2023-11-19T15:09:14Z</time>
      </trkpt>
      <trkpt lat="43.01388" lon="0.19452">
        <ele>1027.9</ele>
        <time>2023-11-19T15:09:15Z</time>
      </trkpt>
      <trkpt lat="43.01388" lon="0.1945">
        <ele>1027.7</ele>
        <time>2023-11-19T15:09:16Z</time>
      </trkpt>
      <trkpt lat="43.01388" lon="0.19449">
        <ele>1027.5</ele>
        <time>2023-11-19T15:09:17Z</time>
      </trkpt>
      <trkpt lat="43.01387" lon="0.19448">
        <ele>1027.3</ele>
        <time>2023-11-19T15:09:18Z</time>
      </trkpt>
      <trkpt lat="43.01386" lon="0.19448">
        <ele>1027.2</ele>
        <time>2023-11-19T15:09:19Z</time>
      </trkpt>
      <trkpt lat="43.01386" lon="0.19447">
        <ele>1027</ele>
        <time>2023-11-19T15:09:20Z</time>
      </trkpt>
      <trkpt lat="43.01386" lon="0.19446">
        <ele>1026.9</ele>
        <time>2023-11-19T15:09:21Z</time>
      </trkpt>
      <trkpt lat="43.01386" lon="0.19444">
        <ele>1026.7</ele>
        <time>2023-11-19T15:09:22Z</time>
      </trkpt>
      <trkpt lat="43.01386" lon="0.19444">
        <ele>1026.6</ele>
        <time>2023-11-19T15:09:23Z</time>
      </trkpt>
      <trkpt lat="43.01385" lon="0.19442">
        <ele>1026.4</ele>
        <time>2023-11-19T15:09:24Z</time>
      </trkpt>
      <trkpt lat="43.01385" lon="0.19441">
        <ele>1026.3</ele>
        <time>2023-11-19T15:09:25Z</time>
      </trkpt>
      <trkpt lat="43.01385" lon="0.1944">
        <ele>1026</ele>
        <time>2023-11-19T15:09:26Z</time>
      </trkpt>
      <trkpt lat="43.01385" lon="0.19439">
        <ele>1026</ele>
        <time>2023-11-19T15:09:27Z</time>
      </trkpt>
      <trkpt lat="43.01385" lon="0.19438">
        <ele>1025.7</ele>
        <time>2023-11-19T15:09:28Z</time>
      </trkpt>
      <trkpt lat="43.01385" lon="0.19437">
        <ele>1025.7</ele>
        <time>2023-11-19T15:09:29Z</time>
      </trkpt>
      <trkpt lat="43.01385" lon="0.19437">
        <ele>1025.6</ele>
        <time>2023-11-19T15:09:30Z</time>
      </trkpt>
      <trkpt lat="43.01384" lon="0.19436">
        <ele>1025.3</ele>
        <time>2023-11-19T15:09:31Z</time>
      </trkpt>
      <trkpt lat="43.01384" lon="0.19435">
        <ele>1025.2</ele>
        <time>2023-11-19T15:09:32Z</time>
      </trkpt>
      <trkpt lat="43.01383" lon="0.19434">
        <ele>1025</ele>
        <time>2023-11-19T15:09:33Z</time>
      </trkpt>
      <trkpt lat="43.01383" lon="0.19433">
        <ele>1024.9</ele>
        <time>2023-11-19T15:09:34Z</time>
      </trkpt>
      <trkpt lat="43.01383" lon="0.19432">
        <ele>1024.8</ele>
        <time>2023-11-19T15:09:35Z</time>
      </trkpt>
      <trkpt lat="43.01383" lon="0.19432">
        <ele>1024.6</ele>
        <time>2023-11-19T15:09:36Z</time>
      </trkpt>
      <trkpt lat="43.01383" lon="0.19431">
        <ele>1024.4</ele>
        <time>2023-11-19T15:09:37Z</time>
      </trkpt>
      <trkpt lat="43.01383" lon="0.1943">
        <ele>1024.3</ele>
        <time>2023-11-19T15:09:38Z</time>
      </trkpt>
      <trkpt lat="43.01383" lon="0.19429">
        <ele>1024.2</ele>
        <time>2023-11-19T15:09:39Z</time>
      </trkpt>
      <trkpt lat="43.01382" lon="0.19428">
        <ele>1024</ele>
        <time>2023-11-19T15:09:40Z</time>
      </trkpt>
      <trkpt lat="43.01381" lon="0.19427">
        <ele>1023.8</ele>
        <time>2023-11-19T15:09:41Z</time>
      </trkpt>
      <trkpt lat="43.01381" lon="0.19426">
        <ele>1023.6</ele>
        <time>2023-11-19T15:09:42Z</time>
      </trkpt>
      <trkpt lat="43.0138" lon="0.19423">
        <ele>1023.2</ele>
        <time>2023-11-19T15:09:43Z</time>
      </trkpt>
      <trkpt lat="43.0138" lon="0.19422">
        <ele>1023</ele>
        <time>2023-11-19T15:09:44Z</time>
      </trkpt>
      <trkpt lat="43.01379" lon="0.19421">
        <ele>1022.9</ele>
        <time>2023-11-19T15:09:45Z</time>
      </trkpt>
      <trkpt lat="43.01378" lon="0.1942">
        <ele>1022.6</ele>
        <time>2023-11-19T15:09:46Z</time>
      </trkpt>
      <trkpt lat="43.01377" lon="0.1942">
        <ele>1022.4</ele>
        <time>2023-11-19T15:09:47Z</time>
      </trkpt>
      <trkpt lat="43.01376" lon="0.1942">
        <ele>1022.2</ele>
        <time>2023-11-19T15:09:48Z</time>
      </trkpt>
      <trkpt lat="43.01375" lon="0.1942">
        <ele>1022.1</ele>
        <time>2023-11-19T15:09:49Z</time>
      </trkpt>
      <trkpt lat="43.01375" lon="0.19419">
        <ele>1022</ele>
        <time>2023-11-19T15:09:50Z</time>
      </trkpt>
      <trkpt lat="43.01374" lon="0.19419">
        <ele>1021.8</ele>
        <time>2023-11-19T15:09:51Z</time>
      </trkpt>
      <trkpt lat="43.01374" lon="0.1942">
        <ele>1021.6</ele>
        <time>2023-11-19T15:09:52Z</time>
      </trkpt>
      <trkpt lat="43.01374" lon="0.19421">
        <ele>1021.6</ele>
        <time>2023-11-19T15:09:53Z</time>
      </trkpt>
      <trkpt lat="43.01374" lon="0.19421">
        <ele>1021.5</ele>
        <time>2023-11-19T15:09:54Z</time>
      </trkpt>
      <trkpt lat="43.01373" lon="0.19421">
        <ele>1021.4</ele>
        <time>2023-11-19T15:09:55Z</time>
      </trkpt>
      <trkpt lat="43.01373" lon="0.19421">
        <ele>1021.3</ele>
        <time>2023-11-19T15:09:56Z</time>
      </trkpt>
      <trkpt lat="43.01373" lon="0.19421">
        <ele>1021.3</ele>
        <time>2023-11-19T15:09:57Z</time>
      </trkpt>
      <trkpt lat="43.01372" lon="0.1942">
        <ele>1021.1</ele>
        <time>2023-11-19T15:09:58Z</time>
      </trkpt>
      <trkpt lat="43.01373" lon="0.19419">
        <ele>1021</ele>
        <time>2023-11-19T15:09:59Z</time>
      </trkpt>
      <trkpt lat="43.01373" lon="0.19419">
        <ele>1020.9</ele>
        <time>2023-11-19T15:10:00Z</time>
      </trkpt>
      <trkpt lat="43.01371" lon="0.19419">
        <ele>1020.7</ele>
        <time>2023-11-19T15:10:01Z</time>
      </trkpt>
      <trkpt lat="43.01371" lon="0.19419">
        <ele>1020.7</ele>
        <time>2023-11-19T15:10:02Z</time>
      </trkpt>
      <trkpt lat="43.01371" lon="0.19419">
        <ele>1020.6</ele>
        <time>2023-11-19T15:10:03Z</time>
      </trkpt>
      <trkpt lat="43.01371" lon="0.19418">
        <ele>1020.6</ele>
        <time>2023-11-19T15:10:04Z</time>
      </trkpt>
      <trkpt lat="43.01371" lon="0.19419">
        <ele>1020.5</ele>
        <time>2023-11-19T15:10:05Z</time>
      </trkpt>
      <trkpt lat="43.01371" lon="0.19419">
        <ele>1020.5</ele>
        <time>2023-11-19T15:10:06Z</time>
      </trkpt>
      <trkpt lat="43.0137" lon="0.19418">
        <ele>1020.4</ele>
        <time>2023-11-19T15:10:07Z</time>
      </trkpt>
      <trkpt lat="43.0137" lon="0.19418">
        <ele>1020.4</ele>
        <time>2023-11-19T15:10:08Z</time>
      </trkpt>
      <trkpt lat="43.01369" lon="0.19417">
        <ele>1020.2</ele>
        <time>2023-11-19T15:10:09Z</time>
      </trkpt>
      <trkpt lat="43.01369" lon="0.19417">
        <ele>1020.1</ele>
        <time>2023-11-19T15:10:10Z</time>
      </trkpt>
      <trkpt lat="43.01369" lon="0.19417">
        <ele>1020</ele>
        <time>2023-11-19T15:10:11Z</time>
      </trkpt>
      <trkpt lat="43.01369" lon="0.19416">
        <ele>1019.9</ele>
        <time>2023-11-19T15:10:12Z</time>
      </trkpt>
      <trkpt lat="43.01368" lon="0.19415">
        <ele>1019.8</ele>
        <time>2023-11-19T15:10:13Z</time>
      </trkpt>
      <trkpt lat="43.01367" lon="0.19414">
        <ele>1019.6</ele>
        <time>2023-11-19T15:10:14Z</time>
      </trkpt>
      <trkpt lat="43.01367" lon="0.19414">
        <ele>1019.5</ele>
        <time>2023-11-19T15:10:15Z</time>
      </trkpt>
      <trkpt lat="43.01367" lon="0.19414">
        <ele>1019.4</ele>
        <time>2023-11-19T15:10:16Z</time>
      </trkpt>
      <trkpt lat="43.01366" lon="0.19413">
        <ele>1019.3</ele>
        <time>2023-11-19T15:10:17Z</time>
      </trkpt>
      <trkpt lat="43.01366" lon="0.19413">
        <ele>1019.2</ele>
        <time>2023-11-19T15:10:18Z</time>
      </trkpt>
      <trkpt lat="43.01366" lon="0.19412">
        <ele>1019</ele>
        <time>2023-11-19T15:10:19Z</time>
      </trkpt>
      <trkpt lat="43.01365" lon="0.1941">
        <ele>1018.8</ele>
        <time>2023-11-19T15:10:20Z</time>
      </trkpt>
      <trkpt lat="43.01365" lon="0.19409">
        <ele>1018.7</ele>
        <time>2023-11-19T15:10:21Z</time>
      </trkpt>
      <trkpt lat="43.01364" lon="0.1941">
        <ele>1018.5</ele>
        <time>2023-11-19T15:10:22Z</time>
      </trkpt>
      <trkpt lat="43.01363" lon="0.19409">
        <ele>1018.3</ele>
        <time>2023-11-19T15:10:23Z</time>
      </trkpt>
      <trkpt lat="43.01363" lon="0.19408">
        <ele>1018.2</ele>
        <time>2023-11-19T15:10:24Z</time>
      </trkpt>
      <trkpt lat="43.01362" lon="0.19408">
        <ele>1018</ele>
        <time>2023-11-19T15:10:25Z</time>
      </trkpt>
      <trkpt lat="43.01362" lon="0.19408">
        <ele>1018</ele>
        <time>2023-11-19T15:10:26Z</time>
      </trkpt>
      <trkpt lat="43.01362" lon="0.19408">
        <ele>1017.9</ele>
        <time>2023-11-19T15:10:27Z</time>
      </trkpt>
      <trkpt lat="43.0136" lon="0.19407">
        <ele>1017.7</ele>
        <time>2023-11-19T15:10:28Z</time>
      </trkpt>
      <trkpt lat="43.01361" lon="0.19408">
        <ele>1017.6</ele>
        <time>2023-11-19T15:10:29Z</time>
      </trkpt>
      <trkpt lat="43.0136" lon="0.19407">
        <ele>1017.5</ele>
        <time>2023-11-19T15:10:30Z</time>
      </trkpt>
      <trkpt lat="43.0136" lon="0.19407">
        <ele>1017.4</ele>
        <time>2023-11-19T15:10:31Z</time>
      </trkpt>
      <trkpt lat="43.0136" lon="0.19406">
        <ele>1017.3</ele>
        <time>2023-11-19T15:10:32Z</time>
      </trkpt>
      <trkpt lat="43.01359" lon="0.19405">
        <ele>1017.2</ele>
        <time>2023-11-19T15:10:33Z</time>
      </trkpt>
      <trkpt lat="43.01359" lon="0.19404">
        <ele>1017</ele>
        <time>2023-11-19T15:10:34Z</time>
      </trkpt>
      <trkpt lat="43.01359" lon="0.19404">
        <ele>1017</ele>
        <time>2023-11-19T15:10:35Z</time>
      </trkpt>
      <trkpt lat="43.01358" lon="0.19403">
        <ele>1016.8</ele>
        <time>2023-11-19T15:10:36Z</time>
      </trkpt>
      <trkpt lat="43.01358" lon="0.19402">
        <ele>1016.7</ele>
        <time>2023-11-19T15:10:37Z</time>
      </trkpt>
      <trkpt lat="43.01357" lon="0.19401">
        <ele>1016.5</ele>
        <time>2023-11-19T15:10:38Z</time>
      </trkpt>
      <trkpt lat="43.01356" lon="0.19401">
        <ele>1016.3</ele>
        <time>2023-11-19T15:10:39Z</time>
      </trkpt>
      <trkpt lat="43.01356" lon="0.194">
        <ele>1016.2</ele>
        <time>2023-11-19T15:10:40Z</time>
      </trkpt>
      <trkpt lat="43.01356" lon="0.194">
        <ele>1016.2</ele>
        <time>2023-11-19T15:10:41Z</time>
      </trkpt>
      <trkpt lat="43.01355" lon="0.194">
        <ele>1016.1</ele>
        <time>2023-11-19T15:10:42Z</time>
      </trkpt>
      <trkpt lat="43.01355" lon="0.194">
        <ele>1016</ele>
        <time>2023-11-19T15:10:43Z</time>
      </trkpt>
      <trkpt lat="43.01354" lon="0.194">
        <ele>1015.9</ele>
        <time>2023-11-19T15:10:44Z</time>
      </trkpt>
      <trkpt lat="43.01353" lon="0.19399">
        <ele>1015.5</ele>
        <time>2023-11-19T15:10:45Z</time>
      </trkpt>
      <trkpt lat="43.01352" lon="0.19399">
        <ele>1015.5</ele>
        <time>2023-11-19T15:10:46Z</time>
      </trkpt>
      <trkpt lat="43.01352" lon="0.19398">
        <ele>1015.4</ele>
        <time>2023-11-19T15:10:47Z</time>
      </trkpt>
      <trkpt lat="43.01352" lon="0.19398">
        <ele>1015.3</ele>
        <time>2023-11-19T15:10:48Z</time>
      </trkpt>
      <trkpt lat="43.01351" lon="0.19398">
        <ele>1015.3</ele>
        <time>2023-11-19T15:10:49Z</time>
      </trkpt>
      <trkpt lat="43.01351" lon="0.19398">
        <ele>1015.2</ele>
        <time>2023-11-19T15:10:50Z</time>
      </trkpt>
      <trkpt lat="43.0135" lon="0.19398">
        <ele>1015.1</ele>
        <time>2023-11-19T15:10:51Z</time>
      </trkpt>
      <trkpt lat="43.01349" lon="0.19398">
        <ele>1014.9</ele>
        <time>2023-11-19T15:10:52Z</time>
      </trkpt>
      <trkpt lat="43.01349" lon="0.19398">
        <ele>1014.8</ele>
        <time>2023-11-19T15:10:53Z</time>
      </trkpt>
      <trkpt lat="43.01348" lon="0.19397">
        <ele>1014.6</ele>
        <time>2023-11-19T15:10:54Z</time>
      </trkpt>
      <trkpt lat="43.01348" lon="0.19397">
        <ele>1014.5</ele>
        <time>2023-11-19T15:10:55Z</time>
      </trkpt>
      <trkpt lat="43.01347" lon="0.19396">
        <ele>1014.3</ele>
        <time>2023-11-19T15:10:56Z</time>
      </trkpt>
      <trkpt lat="43.01346" lon="0.19396">
        <ele>1014.3</ele>
        <time>2023-11-19T15:10:57Z</time>
      </trkpt>
      <trkpt lat="43.01346" lon="0.19396">
        <ele>1014.2</ele>
        <time>2023-11-19T15:10:58Z</time>
      </trkpt>
      <trkpt lat="43.01345" lon="0.19396">
        <ele>1014</ele>
        <time>2023-11-19T15:10:59Z</time>
      </trkpt>
      <trkpt lat="43.01345" lon="0.19395">
        <ele>1013.9</ele>
        <time>2023-11-19T15:11:00Z</time>
      </trkpt>
      <trkpt lat="43.01345" lon="0.19395">
        <ele>1013.8</ele>
        <time>2023-11-19T15:11:01Z</time>
      </trkpt>
      <trkpt lat="43.01344" lon="0.19394">
        <ele>1013.6</ele>
        <time>2023-11-19T15:11:02Z</time>
      </trkpt>
      <trkpt lat="43.01343" lon="0.19393">
        <ele>1013.4</ele>
        <time>2023-11-19T15:11:03Z</time>
      </trkpt>
      <trkpt lat="43.01342" lon="0.19392">
        <ele>1013.2</ele>
        <time>2023-11-19T15:11:04Z</time>
      </trkpt>
      <trkpt lat="43.01341" lon="0.19392">
        <ele>1012.9</ele>
        <time>2023-11-19T15:11:05Z</time>
      </trkpt>
      <trkpt lat="43.0134" lon="0.19392">
        <ele>1012.9</ele>
        <time>2023-11-19T15:11:06Z</time>
      </trkpt>
      <trkpt lat="43.0134" lon="0.19391">
        <ele>1012.7</ele>
        <time>2023-11-19T15:11:07Z</time>
      </trkpt>
      <trkpt lat="43.01339" lon="0.19391">
        <ele>1012.6</ele>
        <time>2023-11-19T15:11:08Z</time>
      </trkpt>
      <trkpt lat="43.01338" lon="0.1939">
        <ele>1012.4</ele>
        <time>2023-11-19T15:11:09Z</time>
      </trkpt>
      <trkpt lat="43.01338" lon="0.1939">
        <ele>1012.3</ele>
        <time>2023-11-19T15:11:10Z</time>
      </trkpt>
      <trkpt lat="43.01338" lon="0.19389">
        <ele>1012.2</ele>
        <time>2023-11-19T15:11:11Z</time>
      </trkpt>
      <trkpt lat="43.01338" lon="0.19388">
        <ele>1012.1</ele>
        <time>2023-11-19T15:11:12Z</time>
      </trkpt>
      <trkpt lat="43.01337" lon="0.19388">
        <ele>1011.9</ele>
        <time>2023-11-19T15:11:13Z</time>
      </trkpt>
      <trkpt lat="43.01337" lon="0.19388">
        <ele>1011.8</ele>
        <time>2023-11-19T15:11:14Z</time>
      </trkpt>
      <trkpt lat="43.01336" lon="0.19387">
        <ele>1011.7</ele>
        <time>2023-11-19T15:11:15Z</time>
      </trkpt>
      <trkpt lat="43.01336" lon="0.19386">
        <ele>1011.5</ele>
        <time>2023-11-19T15:11:16Z</time>
      </trkpt>
      <trkpt lat="43.01335" lon="0.19385">
        <ele>1011.4</ele>
        <time>2023-11-19T15:11:17Z</time>
      </trkpt>
      <trkpt lat="43.01334" lon="0.19384">
        <ele>1011.2</ele>
        <time>2023-11-19T15:11:18Z</time>
      </trkpt>
      <trkpt lat="43.01334" lon="0.19384">
        <ele>1011.1</ele>
        <time>2023-11-19T15:11:19Z</time>
      </trkpt>
      <trkpt lat="43.01333" lon="0.19383">
        <ele>1010.9</ele>
        <time>2023-11-19T15:11:20Z</time>
      </trkpt>
      <trkpt lat="43.01334" lon="0.19384">
        <ele>1010.8</ele>
        <time>2023-11-19T15:11:21Z</time>
      </trkpt>
      <trkpt lat="43.01333" lon="0.19383">
        <ele>1010.6</ele>
        <time>2023-11-19T15:11:22Z</time>
      </trkpt>
      <trkpt lat="43.01332" lon="0.19383">
        <ele>1010.4</ele>
        <time>2023-11-19T15:11:23Z</time>
      </trkpt>
      <trkpt lat="43.01332" lon="0.19382">
        <ele>1010.3</ele>
        <time>2023-11-19T15:11:24Z</time>
      </trkpt>
      <trkpt lat="43.01331" lon="0.19381">
        <ele>1010.1</ele>
        <time>2023-11-19T15:11:25Z</time>
      </trkpt>
      <trkpt lat="43.01331" lon="0.19381">
        <ele>1010</ele>
        <time>2023-11-19T15:11:26Z</time>
      </trkpt>
      <trkpt lat="43.01331" lon="0.19381">
        <ele>1009.9</ele>
        <time>2023-11-19T15:11:27Z</time>
      </trkpt>
      <trkpt lat="43.01331" lon="0.1938">
        <ele>1009.8</ele>
        <time>2023-11-19T15:11:28Z</time>
      </trkpt>
      <trkpt lat="43.0133" lon="0.1938">
        <ele>1009.7</ele>
        <time>2023-11-19T15:11:29Z</time>
      </trkpt>
      <trkpt lat="43.01329" lon="0.19379">
        <ele>1009.4</ele>
        <time>2023-11-19T15:11:30Z</time>
      </trkpt>
      <trkpt lat="43.01328" lon="0.19378">
        <ele>1009.2</ele>
        <time>2023-11-19T15:11:31Z</time>
      </trkpt>
      <trkpt lat="43.01328" lon="0.19378">
        <ele>1009.1</ele>
        <time>2023-11-19T15:11:32Z</time>
      </trkpt>
      <trkpt lat="43.01327" lon="0.19378">
        <ele>1008.9</ele>
        <time>2023-11-19T15:11:33Z</time>
      </trkpt>
      <trkpt lat="43.01327" lon="0.19377">
        <ele>1008.8</ele>
        <time>2023-11-19T15:11:34Z</time>
      </trkpt>
      <trkpt lat="43.01326" lon="0.19376">
        <ele>1008.5</ele>
        <time>2023-11-19T15:11:35Z</time>
      </trkpt>
      <trkpt lat="43.01326" lon="0.19376">
        <ele>1008.4</ele>
        <time>2023-11-19T15:11:36Z</time>
      </trkpt>
      <trkpt lat="43.01326" lon="0.19375">
        <ele>1008.4</ele>
        <time>2023-11-19T15:11:37Z</time>
      </trkpt>
      <trkpt lat="43.01325" lon="0.19375">
        <ele>1008.2</ele>
        <time>2023-11-19T15:11:38Z</time>
      </trkpt>
      <trkpt lat="43.01324" lon="0.19374">
        <ele>1007.9</ele>
        <time>2023-11-19T15:11:39Z</time>
      </trkpt>
      <trkpt lat="43.01323" lon="0.19373">
        <ele>1007.7</ele>
        <time>2023-11-19T15:11:40Z</time>
      </trkpt>
      <trkpt lat="43.01323" lon="0.19372">
        <ele>1007.6</ele>
        <time>2023-11-19T15:11:41Z</time>
      </trkpt>
      <trkpt lat="43.01323" lon="0.19372">
        <ele>1007.4</ele>
        <time>2023-11-19T15:11:42Z</time>
      </trkpt>
      <trkpt lat="43.01322" lon="0.19372">
        <ele>1007.4</ele>
        <time>2023-11-19T15:11:43Z</time>
      </trkpt>
      <trkpt lat="43.01321" lon="0.19371">
        <ele>1007.1</ele>
        <time>2023-11-19T15:11:44Z</time>
      </trkpt>
      <trkpt lat="43.01321" lon="0.1937">
        <ele>1007.1</ele>
        <time>2023-11-19T15:11:45Z</time>
      </trkpt>
      <trkpt lat="43.01321" lon="0.19369">
        <ele>1006.9</ele>
        <time>2023-11-19T15:11:46Z</time>
      </trkpt>
      <trkpt lat="43.01321" lon="0.19369">
        <ele>1006.7</ele>
        <time>2023-11-19T15:11:47Z</time>
      </trkpt>
      <trkpt lat="43.01319" lon="0.19368">
        <ele>1006.4</ele>
        <time>2023-11-19T15:11:48Z</time>
      </trkpt>
      <trkpt lat="43.01319" lon="0.19368">
        <ele>1006.3</ele>
        <time>2023-11-19T15:11:49Z</time>
      </trkpt>
      <trkpt lat="43.01319" lon="0.19368">
        <ele>1006.3</ele>
        <time>2023-11-19T15:11:50Z</time>
      </trkpt>
      <trkpt lat="43.01318" lon="0.19367">
        <ele>1006.1</ele>
        <time>2023-11-19T15:11:51Z</time>
      </trkpt>
      <trkpt lat="43.01318" lon="0.19366">
        <ele>1005.9</ele>
        <time>2023-11-19T15:11:52Z</time>
      </trkpt>
      <trkpt lat="43.01316" lon="0.19365">
        <ele>1005.6</ele>
        <time>2023-11-19T15:11:53Z</time>
      </trkpt>
      <trkpt lat="43.01316" lon="0.19365">
        <ele>1005.4</ele>
        <time>2023-11-19T15:11:54Z</time>
      </trkpt>
      <trkpt lat="43.01316" lon="0.19364">
        <ele>1005.3</ele>
        <time>2023-11-19T15:11:55Z</time>
      </trkpt>
      <trkpt lat="43.01315" lon="0.19365">
        <ele>1005.1</ele>
        <time>2023-11-19T15:11:56Z</time>
      </trkpt>
      <trkpt lat="43.01315" lon="0.19365">
        <ele>1005.1</ele>
        <time>2023-11-19T15:11:57Z</time>
      </trkpt>
      <trkpt lat="43.01315" lon="0.19365">
        <ele>1005</ele>
        <time>2023-11-19T15:11:58Z</time>
      </trkpt>
      <trkpt lat="43.01314" lon="0.19365">
        <ele>1004.8</ele>
        <time>2023-11-19T15:11:59Z</time>
      </trkpt>
      <trkpt lat="43.01314" lon="0.19365">
        <ele>1004.7</ele>
        <time>2023-11-19T15:12:00Z</time>
      </trkpt>
      <trkpt lat="43.01313" lon="0.19365">
        <ele>1004.4</ele>
        <time>2023-11-19T15:12:01Z</time>
      </trkpt>
      <trkpt lat="43.01312" lon="0.19365">
        <ele>1004.2</ele>
        <time>2023-11-19T15:12:02Z</time>
      </trkpt>
      <trkpt lat="43.01312" lon="0.19364">
        <ele>1004.1</ele>
        <time>2023-11-19T15:12:03Z</time>
      </trkpt>
      <trkpt lat="43.01311" lon="0.19365">
        <ele>1004</ele>
        <time>2023-11-19T15:12:04Z</time>
      </trkpt>
      <trkpt lat="43.0131" lon="0.19364">
        <ele>1003.7</ele>
        <time>2023-11-19T15:12:05Z</time>
      </trkpt>
      <trkpt lat="43.01309" lon="0.19363">
        <ele>1003.3</ele>
        <time>2023-11-19T15:12:06Z</time>
      </trkpt>
      <trkpt lat="43.01309" lon="0.19362">
        <ele>1003.1</ele>
        <time>2023-11-19T15:12:07Z</time>
      </trkpt>
      <trkpt lat="43.01308" lon="0.19362">
        <ele>1002.9</ele>
        <time>2023-11-19T15:12:08Z</time>
      </trkpt>
      <trkpt lat="43.01308" lon="0.19362">
        <ele>1002.8</ele>
        <time>2023-11-19T15:12:09Z</time>
      </trkpt>
      <trkpt lat="43.01307" lon="0.19361">
        <ele>1002.6</ele>
        <time>2023-11-19T15:12:10Z</time>
      </trkpt>
      <trkpt lat="43.01306" lon="0.19361">
        <ele>1002.4</ele>
        <time>2023-11-19T15:12:11Z</time>
      </trkpt>
      <trkpt lat="43.01306" lon="0.1936">
        <ele>1002.2</ele>
        <time>2023-11-19T15:12:12Z</time>
      </trkpt>
      <trkpt lat="43.01305" lon="0.1936">
        <ele>1002</ele>
        <time>2023-11-19T15:12:13Z</time>
      </trkpt>
      <trkpt lat="43.01305" lon="0.19359">
        <ele>1001.9</ele>
        <time>2023-11-19T15:12:14Z</time>
      </trkpt>
      <trkpt lat="43.01304" lon="0.19359">
        <ele>1001.7</ele>
        <time>2023-11-19T15:12:15Z</time>
      </trkpt>
      <trkpt lat="43.01304" lon="0.19359">
        <ele>1001.5</ele>
        <time>2023-11-19T15:12:16Z</time>
      </trkpt>
      <trkpt lat="43.01303" lon="0.19358">
        <ele>1001.3</ele>
        <time>2023-11-19T15:12:17Z</time>
      </trkpt>
      <trkpt lat="43.01302" lon="0.19358">
        <ele>1001</ele>
        <time>2023-11-19T15:12:18Z</time>
      </trkpt>
      <trkpt lat="43.01303" lon="0.19358">
        <ele>1000.8</ele>
        <time>2023-11-19T15:12:19Z</time>
      </trkpt>
      <trkpt lat="43.01303" lon="0.19358">
        <ele>1000.8</ele>
        <time>2023-11-19T15:12:20Z</time>
      </trkpt>
      <trkpt lat="43.01303" lon="0.19357">
        <ele>1000.5</ele>
        <time>2023-11-19T15:12:21Z</time>
      </trkpt>
      <trkpt lat="43.01302" lon="0.19357">
        <ele>1000.4</ele>
        <time>2023-11-19T15:12:22Z</time>
      </trkpt>
      <trkpt lat="43.01302" lon="0.19357">
        <ele>1000.4</ele>
        <time>2023-11-19T15:12:23Z</time>
      </trkpt>
      <trkpt lat="43.01302" lon="0.19357">
        <ele>1000.4</ele>
        <time>2023-11-19T15:12:24Z</time>
      </trkpt>
      <trkpt lat="43.01302" lon="0.19357">
        <ele>1000.4</ele>
        <time>2023-11-19T15:12:25Z</time>
      </trkpt>
      <trkpt lat="43.01302" lon="0.19357">
        <ele>1000.4</ele>
        <time>2023-11-19T15:12:26Z</time>
      </trkpt>
      <trkpt lat="43.01303" lon="0.19357">
        <ele>1000.4</ele>
        <time>2023-11-19T15:12:27Z</time>
      </trkpt>
      <trkpt lat="43.01303" lon="0.19357">
        <ele>1000.3</ele>
        <time>2023-11-19T15:12:28Z</time>
      </trkpt>
      <trkpt lat="43.01302" lon="0.19357">
        <ele>1000.2</ele>
        <time>2023-11-19T15:12:29Z</time>
      </trkpt>
      <trkpt lat="43.01302" lon="0.19357">
        <ele>1000.1</ele>
        <time>2023-11-19T15:12:30Z</time>
      </trkpt>
      <trkpt lat="43.01301" lon="0.19356">
        <ele>999.9</ele>
        <time>2023-11-19T15:12:31Z</time>
      </trkpt>
      <trkpt lat="43.01301" lon="0.19357">
        <ele>999.8</ele>
        <time>2023-11-19T15:12:32Z</time>
      </trkpt>
      <trkpt lat="43.013" lon="0.19356">
        <ele>999.6</ele>
        <time>2023-11-19T15:12:33Z</time>
      </trkpt>
      <trkpt lat="43.01299" lon="0.19356">
        <ele>999.2</ele>
        <time>2023-11-19T15:12:34Z</time>
      </trkpt>
      <trkpt lat="43.01298" lon="0.19356">
        <ele>999</ele>
        <time>2023-11-19T15:12:35Z</time>
      </trkpt>
      <trkpt lat="43.01298" lon="0.19355">
        <ele>998.9</ele>
        <time>2023-11-19T15:12:36Z</time>
      </trkpt>
      <trkpt lat="43.01297" lon="0.19355">
        <ele>998.6</ele>
        <time>2023-11-19T15:12:37Z</time>
      </trkpt>
      <trkpt lat="43.01296" lon="0.19355">
        <ele>998.3</ele>
        <time>2023-11-19T15:12:38Z</time>
      </trkpt>
      <trkpt lat="43.01295" lon="0.19355">
        <ele>998.1</ele>
        <time>2023-11-19T15:12:39Z</time>
      </trkpt>
      <trkpt lat="43.01294" lon="0.19355">
        <ele>997.7</ele>
        <time>2023-11-19T15:12:40Z</time>
      </trkpt>
      <trkpt lat="43.01293" lon="0.19355">
        <ele>997.5</ele>
        <time>2023-11-19T15:12:41Z</time>
      </trkpt>
      <trkpt lat="43.01293" lon="0.19356">
        <ele>997.4</ele>
        <time>2023-11-19T15:12:42Z</time>
      </trkpt>
      <trkpt lat="43.01292" lon="0.19356">
        <ele>997.1</ele>
        <time>2023-11-19T15:12:43Z</time>
      </trkpt>
      <trkpt lat="43.01292" lon="0.19356">
        <ele>997.1</ele>
        <time>2023-11-19T15:12:44Z</time>
      </trkpt>
      <trkpt lat="43.01291" lon="0.19356">
        <ele>996.9</ele>
        <time>2023-11-19T15:12:45Z</time>
      </trkpt>
      <trkpt lat="43.01291" lon="0.19356">
        <ele>996.8</ele>
        <time>2023-11-19T15:12:46Z</time>
      </trkpt>
      <trkpt lat="43.0129" lon="0.19356">
        <ele>996.5</ele>
        <time>2023-11-19T15:12:47Z</time>
      </trkpt>
      <trkpt lat="43.01289" lon="0.19355">
        <ele>996.2</ele>
        <time>2023-11-19T15:12:48Z</time>
      </trkpt>
      <trkpt lat="43.01288" lon="0.19355">
        <ele>996</ele>
        <time>2023-11-19T15:12:49Z</time>
      </trkpt>
      <trkpt lat="43.01287" lon="0.19355">
        <ele>995.8</ele>
        <time>2023-11-19T15:12:50Z</time>
      </trkpt>
      <trkpt lat="43.01287" lon="0.19355">
        <ele>995.8</ele>
        <time>2023-11-19T15:12:51Z</time>
      </trkpt>
      <trkpt lat="43.01287" lon="0.19355">
        <ele>995.7</ele>
        <time>2023-11-19T15:12:52Z</time>
      </trkpt>
      <trkpt lat="43.01286" lon="0.19355">
        <ele>995.5</ele>
        <time>2023-11-19T15:12:53Z</time>
      </trkpt>
      <trkpt lat="43.01286" lon="0.19354">
        <ele>995.4</ele>
        <time>2023-11-19T15:12:54Z</time>
      </trkpt>
      <trkpt lat="43.01286" lon="0.19354">
        <ele>995.2</ele>
        <time>2023-11-19T15:12:55Z</time>
      </trkpt>
      <trkpt lat="43.01285" lon="0.19352">
        <ele>995</ele>
        <time>2023-11-19T15:12:56Z</time>
      </trkpt>
      <trkpt lat="43.01285" lon="0.19351">
        <ele>994.8</ele>
        <time>2023-11-19T15:12:57Z</time>
      </trkpt>
      <trkpt lat="43.01286" lon="0.1935">
        <ele>994.6</ele>
        <time>2023-11-19T15:12:58Z</time>
      </trkpt>
      <trkpt lat="43.01285" lon="0.19349">
        <ele>994.3</ele>
        <time>2023-11-19T15:12:59Z</time>
      </trkpt>
      <trkpt lat="43.01285" lon="0.1935">
        <ele>994.2</ele>
        <time>2023-11-19T15:13:00Z</time>
      </trkpt>
      <trkpt lat="43.01285" lon="0.1935">
        <ele>994.1</ele>
        <time>2023-11-19T15:13:01Z</time>
      </trkpt>
      <trkpt lat="43.01285" lon="0.1935">
        <ele>994.1</ele>
        <time>2023-11-19T15:13:02Z</time>
      </trkpt>
      <trkpt lat="43.01285" lon="0.1935">
        <ele>994.1</ele>
        <time>2023-11-19T15:13:03Z</time>
      </trkpt>
      <trkpt lat="43.01285" lon="0.1935">
        <ele>994.1</ele>
        <time>2023-11-19T15:13:04Z</time>
      </trkpt>
      <trkpt lat="43.01285" lon="0.1935">
        <ele>994.1</ele>
        <time>2023-11-19T15:13:05Z</time>
      </trkpt>
      <trkpt lat="43.01285" lon="0.1935">
        <ele>994</ele>
        <time>2023-11-19T15:13:06Z</time>
      </trkpt>
      <trkpt lat="43.01285" lon="0.19349">
        <ele>994</ele>
        <time>2023-11-19T15:13:07Z</time>
      </trkpt>
      <trkpt lat="43.01285" lon="0.19349">
        <ele>994</ele>
        <time>2023-11-19T15:13:08Z</time>
      </trkpt>
      <trkpt lat="43.01285" lon="0.19349">
        <ele>994</ele>
        <time>2023-11-19T15:13:09Z</time>
      </trkpt>
      <trkpt lat="43.01285" lon="0.19349">
        <ele>994</ele>
        <time>2023-11-19T15:13:10Z</time>
      </trkpt>
      <trkpt lat="43.01285" lon="0.19349">
        <ele>994</ele>
        <time>2023-11-19T15:13:11Z</time>
      </trkpt>
      <trkpt lat="43.01285" lon="0.19349">
        <ele>994</ele>
        <time>2023-11-19T15:13:12Z</time>
      </trkpt>
      <trkpt lat="43.01285" lon="0.19349">
        <ele>994</ele>
        <time>2023-11-19T15:13:13Z</time>
      </trkpt>
      <trkpt lat="43.01285" lon="0.19349">
        <ele>994</ele>
        <time>2023-11-19T15:13:14Z</time>
      </trkpt>
      <trkpt lat="43.01285" lon="0.19349">
        <ele>994</ele>
        <time>2023-11-19T15:13:15Z</time>
      </trkpt>
      <trkpt lat="43.01285" lon="0.19349">
        <ele>994</ele>
        <time>2023-11-19T15:13:16Z</time>
      </trkpt>
      <trkpt lat="43.01285" lon="0.19349">
        <ele>994</ele>
        <time>2023-11-19T15:13:17Z</time>
      </trkpt>
      <trkpt lat="43.01285" lon="0.19349">
        <ele>994</ele>
        <time>2023-11-19T15:13:18Z</time>
      </trkpt>
      <trkpt lat="43.01285" lon="0.19349">
        <ele>994</ele>
        <time>2023-11-19T15:13:19Z</time>
      </trkpt>
      <trkpt lat="43.01285" lon="0.19349">
        <ele>994</ele>
        <time>2023-11-19T15:13:20Z</time>
      </trkpt>
      <trkpt lat="43.01285" lon="0.19349">
        <ele>994</ele>
        <time>2023-11-19T15:13:21Z</time>
      </trkpt>
      <trkpt lat="43.01285" lon="0.19349">
        <ele>994</ele>
        <time>2023-11-19T15:13:22Z</time>
      </trkpt>
      <trkpt lat="43.01285" lon="0.19349">
        <ele>994</ele>
        <time>2023-11-19T15:13:23Z</time>
      </trkpt>
      <trkpt lat="43.01285" lon="0.19349">
        <ele>993.8</ele>
        <time>2023-11-19T15:13:25Z</time>
      </trkpt>
      <trkpt lat="43.01285" lon="0.19349">
        <ele>993.8</ele>
        <time>2023-11-19T15:13:26Z</time>
      </trkpt>
      <trkpt lat="43.01285" lon="0.19349">
        <ele>993.7</ele>
        <time>2023-11-19T15:13:27Z</time>
      </trkpt>
      <trkpt lat="43.01284" lon="0.19348">
        <ele>993.7</ele>
        <time>2023-11-19T15:13:28Z</time>
      </trkpt>
      <trkpt lat="43.01284" lon="0.19349">
        <ele>993.6</ele>
        <time>2023-11-19T15:13:29Z</time>
      </trkpt>
      <trkpt lat="43.01285" lon="0.19349">
        <ele>993.5</ele>
        <time>2023-11-19T15:13:30Z</time>
      </trkpt>
      <trkpt lat="43.01285" lon="0.19349">
        <ele>993.5</ele>
        <time>2023-11-19T15:13:31Z</time>
      </trkpt>
      <trkpt lat="43.01285" lon="0.19349">
        <ele>993.4</ele>
        <time>2023-11-19T15:13:32Z</time>
      </trkpt>
      <trkpt lat="43.01285" lon="0.19349">
        <ele>993.4</ele>
        <time>2023-11-19T15:13:33Z</time>
      </trkpt>
      <trkpt lat="43.01285" lon="0.19349">
        <ele>993.4</ele>
        <time>2023-11-19T15:13:34Z</time>
      </trkpt>
      <trkpt lat="43.01285" lon="0.19349">
        <ele>993.4</ele>
        <time>2023-11-19T15:13:35Z</time>
      </trkpt>
      <trkpt lat="43.01285" lon="0.19349">
        <ele>993.4</ele>
        <time>2023-11-19T15:13:36Z</time>
      </trkpt>
      <trkpt lat="43.01285" lon="0.19349">
        <ele>993.3</ele>
        <time>2023-11-19T15:13:37Z</time>
      </trkpt>
      <trkpt lat="43.01285" lon="0.19349">
        <ele>993.3</ele>
        <time>2023-11-19T15:13:38Z</time>
      </trkpt>
      <trkpt lat="43.01285" lon="0.19349">
        <ele>993.3</ele>
        <time>2023-11-19T15:13:39Z</time>
      </trkpt>
      <trkpt lat="43.01285" lon="0.19349">
        <ele>993.3</ele>
        <time>2023-11-19T15:13:40Z</time>
      </trkpt>
      <trkpt lat="43.01285" lon="0.19349">
        <ele>993.3</ele>
        <time>2023-11-19T15:13:41Z</time>
      </trkpt>
      <trkpt lat="43.01285" lon="0.19349">
        <ele>993.3</ele>
        <time>2023-11-19T15:13:42Z</time>
      </trkpt>
      <trkpt lat="43.01285" lon="0.19349">
        <ele>993.3</ele>
        <time>2023-11-19T15:13:43Z</time>
      </trkpt>
      <trkpt lat="43.01285" lon="0.19349">
        <ele>993.3</ele>
        <time>2023-11-19T15:13:44Z</time>
      </trkpt>
      <trkpt lat="43.01285" lon="0.19349">
        <ele>993.3</ele>
        <time>2023-11-19T15:13:45Z</time>
      </trkpt>
      <trkpt lat="43.01285" lon="0.19349">
        <ele>993.3</ele>
        <time>2023-11-19T15:13:46Z</time>
      </trkpt>
      <trkpt lat="43.01285" lon="0.19349">
        <ele>993.3</ele>
        <time>2023-11-19T15:13:47Z</time>
      </trkpt>
      <trkpt lat="43.01285" lon="0.19349">
        <ele>993.3</ele>
        <time>2023-11-19T15:13:48Z</time>
      </trkpt>
      <trkpt lat="43.01285" lon="0.19349">
        <ele>993.3</ele>
        <time>2023-11-19T15:13:49Z</time>
      </trkpt>
      <trkpt lat="43.01285" lon="0.19349">
        <ele>993.3</ele>
        <time>2023-11-19T15:13:50Z</time>
      </trkpt>
      <trkpt lat="43.01285" lon="0.19349">
        <ele>993.3</ele>
        <time>2023-11-19T15:13:51Z</time>
      </trkpt>
      <trkpt lat="43.01285" lon="0.19349">
        <ele>993.3</ele>
        <time>2023-11-19T15:13:52Z</time>
      </trkpt>
      <trkpt lat="43.01285" lon="0.19349">
        <ele>993.3</ele>
        <time>2023-11-19T15:13:53Z</time>
      </trkpt>
      <trkpt lat="43.01285" lon="0.19349">
        <ele>993.3</ele>
        <time>2023-11-19T15:13:54Z</time>
      </trkpt>
      <trkpt lat="43.01285" lon="0.19349">
        <ele>993.3</ele>
        <time>2023-11-19T15:13:55Z</time>
      </trkpt>
      <trkpt lat="43.01285" lon="0.19349">
        <ele>993.3</ele>
        <time>2023-11-19T15:13:56Z</time>
      </trkpt>
      <trkpt lat="43.01285" lon="0.19349">
        <ele>993.3</ele>
        <time>2023-11-19T15:13:57Z</time>
      </trkpt>
      <trkpt lat="43.01285" lon="0.19349">
        <ele>993.3</ele>
        <time>2023-11-19T15:13:58Z</time>
      </trkpt>
      <trkpt lat="43.01285" lon="0.19349">
        <ele>993.3</ele>
        <time>2023-11-19T15:13:59Z</time>
      </trkpt>
      <trkpt lat="43.01285" lon="0.19349">
        <ele>993.3</ele>
        <time>2023-11-19T15:14:00Z</time>
      </trkpt>
      <trkpt lat="43.01285" lon="0.19349">
        <ele>993.3</ele>
        <time>2023-11-19T15:14:01Z</time>
      </trkpt>
      <trkpt lat="43.01285" lon="0.19349">
        <ele>993.2</ele>
        <time>2023-11-19T15:14:02Z</time>
      </trkpt>
      <trkpt lat="43.01284" lon="0.19349">
        <ele>993.2</ele>
        <time>2023-11-19T15:14:03Z</time>
      </trkpt>
      <trkpt lat="43.01284" lon="0.19349">
        <ele>993.1</ele>
        <time>2023-11-19T15:14:04Z</time>
      </trkpt>
      <trkpt lat="43.01284" lon="0.19349">
        <ele>993.1</ele>
        <time>2023-11-19T15:14:05Z</time>
      </trkpt>
      <trkpt lat="43.01284" lon="0.19349">
        <ele>993</ele>
        <time>2023-11-19T15:14:06Z</time>
      </trkpt>
      <trkpt lat="43.01284" lon="0.19349">
        <ele>993</ele>
        <time>2023-11-19T15:14:07Z</time>
      </trkpt>
      <trkpt lat="43.01284" lon="0.19349">
        <ele>993</ele>
        <time>2023-11-19T15:14:08Z</time>
      </trkpt>
      <trkpt lat="43.01284" lon="0.1935">
        <ele>992.9</ele>
        <time>2023-11-19T15:14:09Z</time>
      </trkpt>
      <trkpt lat="43.01283" lon="0.1935">
        <ele>992.8</ele>
        <time>2023-11-19T15:14:10Z</time>
      </trkpt>
      <trkpt lat="43.01283" lon="0.1935">
        <ele>992.7</ele>
        <time>2023-11-19T15:14:11Z</time>
      </trkpt>
      <trkpt lat="43.01282" lon="0.19351">
        <ele>992.5</ele>
        <time>2023-11-19T15:14:12Z</time>
      </trkpt>
      <trkpt lat="43.01281" lon="0.19351">
        <ele>992.4</ele>
        <time>2023-11-19T15:14:13Z</time>
      </trkpt>
      <trkpt lat="43.0128" lon="0.19352">
        <ele>992.2</ele>
        <time>2023-11-19T15:14:14Z</time>
      </trkpt>
      <trkpt lat="43.0128" lon="0.19352">
        <ele>992.1</ele>
        <time>2023-11-19T15:14:15Z</time>
      </trkpt>
      <trkpt lat="43.0128" lon="0.19352">
        <ele>992</ele>
        <time>2023-11-19T15:14:16Z</time>
      </trkpt>
      <trkpt lat="43.0128" lon="0.19352">
        <ele>991.9</ele>
        <time>2023-11-19T15:14:17Z</time>
      </trkpt>
      <trkpt lat="43.0128" lon="0.19352">
        <ele>991.9</ele>
        <time>2023-11-19T15:14:18Z</time>
      </trkpt>
      <trkpt lat="43.0128" lon="0.19352">
        <ele>991.9</ele>
        <time>2023-11-19T15:14:19Z</time>
      </trkpt>
      <trkpt lat="43.0128" lon="0.19352">
        <ele>991.9</ele>
        <time>2023-11-19T15:14:20Z</time>
      </trkpt>
      <trkpt lat="43.0128" lon="0.19352">
        <ele>991.9</ele>
        <time>2023-11-19T15:14:21Z</time>
      </trkpt>
      <trkpt lat="43.0128" lon="0.19352">
        <ele>991.9</ele>
        <time>2023-11-19T15:14:22Z</time>
      </trkpt>
      <trkpt lat="43.0128" lon="0.19352">
        <ele>991.9</ele>
        <time>2023-11-19T15:14:23Z</time>
      </trkpt>
      <trkpt lat="43.0128" lon="0.19352">
        <ele>991.9</ele>
        <time>2023-11-19T15:14:24Z</time>
      </trkpt>
      <trkpt lat="43.0128" lon="0.19352">
        <ele>991.9</ele>
        <time>2023-11-19T15:14:25Z</time>
      </trkpt>
      <trkpt lat="43.0128" lon="0.19352">
        <ele>991.9</ele>
        <time>2023-11-19T15:14:26Z</time>
      </trkpt>
      <trkpt lat="43.0128" lon="0.19352">
        <ele>991.9</ele>
        <time>2023-11-19T15:14:27Z</time>
      </trkpt>
      <trkpt lat="43.0128" lon="0.19352">
        <ele>991.9</ele>
        <time>2023-11-19T15:14:28Z</time>
      </trkpt>
      <trkpt lat="43.0128" lon="0.19352">
        <ele>991.9</ele>
        <time>2023-11-19T15:14:29Z</time>
      </trkpt>
      <trkpt lat="43.0128" lon="0.19352">
        <ele>991.9</ele>
        <time>2023-11-19T15:14:30Z</time>
      </trkpt>
      <trkpt lat="43.0128" lon="0.19352">
        <ele>991.9</ele>
        <time>2023-11-19T15:14:31Z</time>
      </trkpt>
      <trkpt lat="43.0128" lon="0.19352">
        <ele>991.9</ele>
        <time>2023-11-19T15:14:32Z</time>
      </trkpt>
      <trkpt lat="43.0128" lon="0.19352">
        <ele>991.9</ele>
        <time>2023-11-19T15:14:33Z</time>
      </trkpt>
      <trkpt lat="43.0128" lon="0.19352">
        <ele>991.9</ele>
        <time>2023-11-19T15:14:34Z</time>
      </trkpt>
      <trkpt lat="43.0128" lon="0.19352">
        <ele>991.9</ele>
        <time>2023-11-19T15:14:35Z</time>
      </trkpt>
      <trkpt lat="43.0128" lon="0.19352">
        <ele>991.9</ele>
        <time>2023-11-19T15:14:36Z</time>
      </trkpt>
      <trkpt lat="43.0128" lon="0.19352">
        <ele>991.9</ele>
        <time>2023-11-19T15:14:37Z</time>
      </trkpt>
      <trkpt lat="43.0128" lon="0.19352">
        <ele>991.9</ele>
        <time>2023-11-19T15:14:38Z</time>
      </trkpt>
      <trkpt lat="43.0128" lon="0.19352">
        <ele>991.9</ele>
        <time>2023-11-19T15:14:39Z</time>
      </trkpt>
      <trkpt lat="43.0128" lon="0.19352">
        <ele>991.9</ele>
        <time>2023-11-19T15:14:40Z</time>
      </trkpt>
      <trkpt lat="43.01281" lon="0.19354">
        <ele>991.7</ele>
        <time>2023-11-19T15:14:41Z</time>
      </trkpt>
      <trkpt lat="43.01281" lon="0.19354">
        <ele>991.7</ele>
        <time>2023-11-19T15:14:42Z</time>
      </trkpt>
      <trkpt lat="43.0128" lon="0.19354">
        <ele>991.6</ele>
        <time>2023-11-19T15:14:43Z</time>
      </trkpt>
      <trkpt lat="43.0128" lon="0.19354">
        <ele>991.6</ele>
        <time>2023-11-19T15:14:44Z</time>
      </trkpt>
      <trkpt lat="43.01279" lon="0.19355">
        <ele>991.3</ele>
        <time>2023-11-19T15:14:45Z</time>
      </trkpt>
      <trkpt lat="43.01278" lon="0.19354">
        <ele>991.1</ele>
        <time>2023-11-19T15:14:46Z</time>
      </trkpt>
      <trkpt lat="43.01277" lon="0.19354">
        <ele>991</ele>
        <time>2023-11-19T15:14:47Z</time>
      </trkpt>
      <trkpt lat="43.01277" lon="0.19355">
        <ele>990.7</ele>
        <time>2023-11-19T15:14:48Z</time>
      </trkpt>
      <trkpt lat="43.01276" lon="0.19355">
        <ele>990.5</ele>
        <time>2023-11-19T15:14:49Z</time>
      </trkpt>
      <trkpt lat="43.01275" lon="0.19355">
        <ele>990.4</ele>
        <time>2023-11-19T15:14:50Z</time>
      </trkpt>
      <trkpt lat="43.01274" lon="0.19356">
        <ele>990.2</ele>
        <time>2023-11-19T15:14:51Z</time>
      </trkpt>
      <trkpt lat="43.01273" lon="0.19356">
        <ele>990</ele>
        <time>2023-11-19T15:14:52Z</time>
      </trkpt>
      <trkpt lat="43.01272" lon="0.19355">
        <ele>989.8</ele>
        <time>2023-11-19T15:14:53Z</time>
      </trkpt>
      <trkpt lat="43.01271" lon="0.19355">
        <ele>989.7</ele>
        <time>2023-11-19T15:14:54Z</time>
      </trkpt>
      <trkpt lat="43.0127" lon="0.19355">
        <ele>989.4</ele>
        <time>2023-11-19T15:14:55Z</time>
      </trkpt>
      <trkpt lat="43.01269" lon="0.19356">
        <ele>989.4</ele>
        <time>2023-11-19T15:14:56Z</time>
      </trkpt>
      <trkpt lat="43.01269" lon="0.19356">
        <ele>989.2</ele>
        <time>2023-11-19T15:14:57Z</time>
      </trkpt>
      <trkpt lat="43.01268" lon="0.19357">
        <ele>989</ele>
        <time>2023-11-19T15:14:58Z</time>
      </trkpt>
      <trkpt lat="43.01267" lon="0.19358">
        <ele>988.8</ele>
        <time>2023-11-19T15:14:59Z</time>
      </trkpt>
      <trkpt lat="43.01265" lon="0.19357">
        <ele>988.6</ele>
        <time>2023-11-19T15:15:00Z</time>
      </trkpt>
      <trkpt lat="43.01265" lon="0.19357">
        <ele>988.4</ele>
        <time>2023-11-19T15:15:01Z</time>
      </trkpt>
      <trkpt lat="43.01264" lon="0.19358">
        <ele>988.3</ele>
        <time>2023-11-19T15:15:02Z</time>
      </trkpt>
      <trkpt lat="43.01263" lon="0.19358">
        <ele>988.1</ele>
        <time>2023-11-19T15:15:03Z</time>
      </trkpt>
      <trkpt lat="43.01262" lon="0.19359">
        <ele>988</ele>
        <time>2023-11-19T15:15:04Z</time>
      </trkpt>
      <trkpt lat="43.01261" lon="0.19358">
        <ele>987.8</ele>
        <time>2023-11-19T15:15:05Z</time>
      </trkpt>
      <trkpt lat="43.0126" lon="0.19359">
        <ele>987.6</ele>
        <time>2023-11-19T15:15:06Z</time>
      </trkpt>
      <trkpt lat="43.0126" lon="0.1936">
        <ele>987.5</ele>
        <time>2023-11-19T15:15:07Z</time>
      </trkpt>
      <trkpt lat="43.01259" lon="0.1936">
        <ele>987.3</ele>
        <time>2023-11-19T15:15:08Z</time>
      </trkpt>
      <trkpt lat="43.01258" lon="0.1936">
        <ele>987</ele>
        <time>2023-11-19T15:15:09Z</time>
      </trkpt>
      <trkpt lat="43.01257" lon="0.19361">
        <ele>986.8</ele>
        <time>2023-11-19T15:15:10Z</time>
      </trkpt>
      <trkpt lat="43.01256" lon="0.19361">
        <ele>986.7</ele>
        <time>2023-11-19T15:15:11Z</time>
      </trkpt>
      <trkpt lat="43.01256" lon="0.19363">
        <ele>986.5</ele>
        <time>2023-11-19T15:15:12Z</time>
      </trkpt>
      <trkpt lat="43.01255" lon="0.19363">
        <ele>986.3</ele>
        <time>2023-11-19T15:15:13Z</time>
      </trkpt>
      <trkpt lat="43.01254" lon="0.19364">
        <ele>986.2</ele>
        <time>2023-11-19T15:15:14Z</time>
      </trkpt>
      <trkpt lat="43.01253" lon="0.19363">
        <ele>986.1</ele>
        <time>2023-11-19T15:15:15Z</time>
      </trkpt>
      <trkpt lat="43.01253" lon="0.19364">
        <ele>986</ele>
        <time>2023-11-19T15:15:16Z</time>
      </trkpt>
      <trkpt lat="43.01252" lon="0.19364">
        <ele>985.8</ele>
        <time>2023-11-19T15:15:17Z</time>
      </trkpt>
      <trkpt lat="43.01251" lon="0.19365">
        <ele>985.6</ele>
        <time>2023-11-19T15:15:18Z</time>
      </trkpt>
      <trkpt lat="43.0125" lon="0.19366">
        <ele>985.4</ele>
        <time>2023-11-19T15:15:19Z</time>
      </trkpt>
      <trkpt lat="43.01249" lon="0.19367">
        <ele>985.2</ele>
        <time>2023-11-19T15:15:20Z</time>
      </trkpt>
      <trkpt lat="43.01248" lon="0.19367">
        <ele>985</ele>
        <time>2023-11-19T15:15:21Z</time>
      </trkpt>
      <trkpt lat="43.01247" lon="0.19367">
        <ele>984.9</ele>
        <time>2023-11-19T15:15:22Z</time>
      </trkpt>
      <trkpt lat="43.01246" lon="0.19367">
        <ele>984.7</ele>
        <time>2023-11-19T15:15:23Z</time>
      </trkpt>
      <trkpt lat="43.01245" lon="0.19367">
        <ele>984.5</ele>
        <time>2023-11-19T15:15:24Z</time>
      </trkpt>
      <trkpt lat="43.01244" lon="0.19368">
        <ele>984.3</ele>
        <time>2023-11-19T15:15:25Z</time>
      </trkpt>
      <trkpt lat="43.01244" lon="0.19369">
        <ele>984.2</ele>
        <time>2023-11-19T15:15:26Z</time>
      </trkpt>
      <trkpt lat="43.01242" lon="0.1937">
        <ele>984</ele>
        <time>2023-11-19T15:15:27Z</time>
      </trkpt>
      <trkpt lat="43.01242" lon="0.1937">
        <ele>983.8</ele>
        <time>2023-11-19T15:15:28Z</time>
      </trkpt>
      <trkpt lat="43.01241" lon="0.1937">
        <ele>983.7</ele>
        <time>2023-11-19T15:15:29Z</time>
      </trkpt>
      <trkpt lat="43.0124" lon="0.19371">
        <ele>983.5</ele>
        <time>2023-11-19T15:15:31Z</time>
      </trkpt>
      <trkpt lat="43.01239" lon="0.19372">
        <ele>983.3</ele>
        <time>2023-11-19T15:15:32Z</time>
      </trkpt>
      <trkpt lat="43.01238" lon="0.19373">
        <ele>983.2</ele>
        <time>2023-11-19T15:15:33Z</time>
      </trkpt>
      <trkpt lat="43.01238" lon="0.19372">
        <ele>983</ele>
        <time>2023-11-19T15:15:34Z</time>
      </trkpt>
      <trkpt lat="43.01237" lon="0.19373">
        <ele>982.9</ele>
        <time>2023-11-19T15:15:35Z</time>
      </trkpt>
      <trkpt lat="43.01236" lon="0.19374">
        <ele>982.7</ele>
        <time>2023-11-19T15:15:36Z</time>
      </trkpt>
      <trkpt lat="43.01235" lon="0.19374">
        <ele>982.5</ele>
        <time>2023-11-19T15:15:37Z</time>
      </trkpt>
      <trkpt lat="43.01234" lon="0.19375">
        <ele>982.4</ele>
        <time>2023-11-19T15:15:38Z</time>
      </trkpt>
      <trkpt lat="43.01233" lon="0.19375">
        <ele>982.2</ele>
        <time>2023-11-19T15:15:39Z</time>
      </trkpt>
      <trkpt lat="43.01232" lon="0.19376">
        <ele>982</ele>
        <time>2023-11-19T15:15:40Z</time>
      </trkpt>
      <trkpt lat="43.0123" lon="0.19377">
        <ele>981.7</ele>
        <time>2023-11-19T15:15:41Z</time>
      </trkpt>
      <trkpt lat="43.0123" lon="0.19378">
        <ele>981.5</ele>
        <time>2023-11-19T15:15:43Z</time>
      </trkpt>
      <trkpt lat="43.01227" lon="0.19378">
        <ele>981.1</ele>
        <time>2023-11-19T15:15:44Z</time>
      </trkpt>
      <trkpt lat="43.01227" lon="0.19379">
        <ele>980.9</ele>
        <time>2023-11-19T15:15:45Z</time>
      </trkpt>
      <trkpt lat="43.01226" lon="0.1938">
        <ele>980.7</ele>
        <time>2023-11-19T15:15:46Z</time>
      </trkpt>
      <trkpt lat="43.01225" lon="0.19379">
        <ele>980.5</ele>
        <time>2023-11-19T15:15:47Z</time>
      </trkpt>
      <trkpt lat="43.01224" lon="0.1938">
        <ele>980.3</ele>
        <time>2023-11-19T15:15:48Z</time>
      </trkpt>
      <trkpt lat="43.01224" lon="0.1938">
        <ele>980.2</ele>
        <time>2023-11-19T15:15:49Z</time>
      </trkpt>
      <trkpt lat="43.01223" lon="0.19381">
        <ele>980.1</ele>
        <time>2023-11-19T15:15:50Z</time>
      </trkpt>
      <trkpt lat="43.01222" lon="0.19381">
        <ele>979.9</ele>
        <time>2023-11-19T15:15:51Z</time>
      </trkpt>
      <trkpt lat="43.01222" lon="0.19382">
        <ele>979.8</ele>
        <time>2023-11-19T15:15:52Z</time>
      </trkpt>
      <trkpt lat="43.0122" lon="0.19382">
        <ele>979.6</ele>
        <time>2023-11-19T15:15:53Z</time>
      </trkpt>
      <trkpt lat="43.0122" lon="0.19383">
        <ele>979.4</ele>
        <time>2023-11-19T15:15:54Z</time>
      </trkpt>
      <trkpt lat="43.01219" lon="0.19383">
        <ele>979.3</ele>
        <time>2023-11-19T15:15:55Z</time>
      </trkpt>
      <trkpt lat="43.01218" lon="0.19384">
        <ele>979.1</ele>
        <time>2023-11-19T15:15:56Z</time>
      </trkpt>
      <trkpt lat="43.01218" lon="0.19384">
        <ele>979</ele>
        <time>2023-11-19T15:15:57Z</time>
      </trkpt>
      <trkpt lat="43.01217" lon="0.19385">
        <ele>978.8</ele>
        <time>2023-11-19T15:15:58Z</time>
      </trkpt>
      <trkpt lat="43.01216" lon="0.19386">
        <ele>978.7</ele>
        <time>2023-11-19T15:15:59Z</time>
      </trkpt>
      <trkpt lat="43.01215" lon="0.19387">
        <ele>978.5</ele>
        <time>2023-11-19T15:16:00Z</time>
      </trkpt>
      <trkpt lat="43.01214" lon="0.19387">
        <ele>978.4</ele>
        <time>2023-11-19T15:16:01Z</time>
      </trkpt>
      <trkpt lat="43.01214" lon="0.19388">
        <ele>978.2</ele>
        <time>2023-11-19T15:16:02Z</time>
      </trkpt>
      <trkpt lat="43.01212" lon="0.19388">
        <ele>978</ele>
        <time>2023-11-19T15:16:03Z</time>
      </trkpt>
      <trkpt lat="43.01212" lon="0.19389">
        <ele>977.9</ele>
        <time>2023-11-19T15:16:04Z</time>
      </trkpt>
      <trkpt lat="43.01211" lon="0.19391">
        <ele>977.7</ele>
        <time>2023-11-19T15:16:05Z</time>
      </trkpt>
      <trkpt lat="43.0121" lon="0.19391">
        <ele>977.5</ele>
        <time>2023-11-19T15:16:06Z</time>
      </trkpt>
      <trkpt lat="43.01209" lon="0.19392">
        <ele>977.4</ele>
        <time>2023-11-19T15:16:07Z</time>
      </trkpt>
      <trkpt lat="43.01208" lon="0.19393">
        <ele>977.2</ele>
        <time>2023-11-19T15:16:08Z</time>
      </trkpt>
      <trkpt lat="43.01207" lon="0.19393">
        <ele>977</ele>
        <time>2023-11-19T15:16:09Z</time>
      </trkpt>
      <trkpt lat="43.01206" lon="0.19394">
        <ele>976.8</ele>
        <time>2023-11-19T15:16:10Z</time>
      </trkpt>
      <trkpt lat="43.01206" lon="0.19395">
        <ele>976.7</ele>
        <time>2023-11-19T15:16:11Z</time>
      </trkpt>
      <trkpt lat="43.01205" lon="0.19397">
        <ele>976.5</ele>
        <time>2023-11-19T15:16:12Z</time>
      </trkpt>
      <trkpt lat="43.01204" lon="0.19398">
        <ele>976.3</ele>
        <time>2023-11-19T15:16:13Z</time>
      </trkpt>
      <trkpt lat="43.01203" lon="0.19398">
        <ele>976.1</ele>
        <time>2023-11-19T15:16:14Z</time>
      </trkpt>
      <trkpt lat="43.01202" lon="0.194">
        <ele>976</ele>
        <time>2023-11-19T15:16:15Z</time>
      </trkpt>
      <trkpt lat="43.01201" lon="0.194">
        <ele>975.8</ele>
        <time>2023-11-19T15:16:16Z</time>
      </trkpt>
      <trkpt lat="43.012" lon="0.194">
        <ele>975.7</ele>
        <time>2023-11-19T15:16:17Z</time>
      </trkpt>
      <trkpt lat="43.01199" lon="0.194">
        <ele>975.5</ele>
        <time>2023-11-19T15:16:18Z</time>
      </trkpt>
      <trkpt lat="43.01198" lon="0.19401">
        <ele>975.4</ele>
        <time>2023-11-19T15:16:19Z</time>
      </trkpt>
      <trkpt lat="43.01198" lon="0.19402">
        <ele>975.3</ele>
        <time>2023-11-19T15:16:20Z</time>
      </trkpt>
      <trkpt lat="43.01196" lon="0.19403">
        <ele>975.1</ele>
        <time>2023-11-19T15:16:21Z</time>
      </trkpt>
      <trkpt lat="43.01196" lon="0.19404">
        <ele>974.9</ele>
        <time>2023-11-19T15:16:22Z</time>
      </trkpt>
      <trkpt lat="43.01195" lon="0.19404">
        <ele>974.8</ele>
        <time>2023-11-19T15:16:23Z</time>
      </trkpt>
      <trkpt lat="43.01194" lon="0.19405">
        <ele>974.7</ele>
        <time>2023-11-19T15:16:24Z</time>
      </trkpt>
      <trkpt lat="43.01193" lon="0.19406">
        <ele>974.5</ele>
        <time>2023-11-19T15:16:25Z</time>
      </trkpt>
      <trkpt lat="43.01192" lon="0.19406">
        <ele>974.4</ele>
        <time>2023-11-19T15:16:26Z</time>
      </trkpt>
      <trkpt lat="43.01191" lon="0.19407">
        <ele>974.2</ele>
        <time>2023-11-19T15:16:27Z</time>
      </trkpt>
      <trkpt lat="43.0119" lon="0.19409">
        <ele>974</ele>
        <time>2023-11-19T15:16:28Z</time>
      </trkpt>
      <trkpt lat="43.0119" lon="0.19409">
        <ele>973.9</ele>
        <time>2023-11-19T15:16:29Z</time>
      </trkpt>
      <trkpt lat="43.01188" lon="0.19409">
        <ele>973.7</ele>
        <time>2023-11-19T15:16:30Z</time>
      </trkpt>
      <trkpt lat="43.01188" lon="0.1941">
        <ele>973.6</ele>
        <time>2023-11-19T15:16:31Z</time>
      </trkpt>
      <trkpt lat="43.01187" lon="0.1941">
        <ele>973.5</ele>
        <time>2023-11-19T15:16:32Z</time>
      </trkpt>
      <trkpt lat="43.01186" lon="0.19411">
        <ele>973.3</ele>
        <time>2023-11-19T15:16:33Z</time>
      </trkpt>
      <trkpt lat="43.01186" lon="0.19413">
        <ele>973.2</ele>
        <time>2023-11-19T15:16:34Z</time>
      </trkpt>
      <trkpt lat="43.01185" lon="0.19413">
        <ele>973</ele>
        <time>2023-11-19T15:16:35Z</time>
      </trkpt>
      <trkpt lat="43.01183" lon="0.19414">
        <ele>972.8</ele>
        <time>2023-11-19T15:16:36Z</time>
      </trkpt>
      <trkpt lat="43.01182" lon="0.19414">
        <ele>972.7</ele>
        <time>2023-11-19T15:16:37Z</time>
      </trkpt>
      <trkpt lat="43.01182" lon="0.19415">
        <ele>972.6</ele>
        <time>2023-11-19T15:16:38Z</time>
      </trkpt>
      <trkpt lat="43.01181" lon="0.19416">
        <ele>972.5</ele>
        <time>2023-11-19T15:16:39Z</time>
      </trkpt>
      <trkpt lat="43.01181" lon="0.19416">
        <ele>972.4</ele>
        <time>2023-11-19T15:16:40Z</time>
      </trkpt>
      <trkpt lat="43.0118" lon="0.19417">
        <ele>972.3</ele>
        <time>2023-11-19T15:16:41Z</time>
      </trkpt>
      <trkpt lat="43.0118" lon="0.19418">
        <ele>972.1</ele>
        <time>2023-11-19T15:16:42Z</time>
      </trkpt>
      <trkpt lat="43.01179" lon="0.19419">
        <ele>972</ele>
        <time>2023-11-19T15:16:43Z</time>
      </trkpt>
      <trkpt lat="43.01178" lon="0.19419">
        <ele>971.9</ele>
        <time>2023-11-19T15:16:44Z</time>
      </trkpt>
      <trkpt lat="43.01178" lon="0.19421">
        <ele>971.7</ele>
        <time>2023-11-19T15:16:45Z</time>
      </trkpt>
      <trkpt lat="43.01177" lon="0.19421">
        <ele>971.6</ele>
        <time>2023-11-19T15:16:46Z</time>
      </trkpt>
      <trkpt lat="43.01177" lon="0.19422">
        <ele>971.5</ele>
        <time>2023-11-19T15:16:47Z</time>
      </trkpt>
      <trkpt lat="43.01177" lon="0.19421">
        <ele>971.4</ele>
        <time>2023-11-19T15:16:48Z</time>
      </trkpt>
      <trkpt lat="43.01177" lon="0.19421">
        <ele>971.4</ele>
        <time>2023-11-19T15:16:49Z</time>
      </trkpt>
      <trkpt lat="43.01177" lon="0.19421">
        <ele>971.4</ele>
        <time>2023-11-19T15:16:50Z</time>
      </trkpt>
      <trkpt lat="43.01177" lon="0.19421">
        <ele>971.4</ele>
        <time>2023-11-19T15:16:51Z</time>
      </trkpt>
      <trkpt lat="43.01177" lon="0.19421">
        <ele>971.3</ele>
        <time>2023-11-19T15:16:52Z</time>
      </trkpt>
      <trkpt lat="43.01177" lon="0.19422">
        <ele>971.3</ele>
        <time>2023-11-19T15:16:53Z</time>
      </trkpt>
      <trkpt lat="43.01177" lon="0.19421">
        <ele>971.3</ele>
        <time>2023-11-19T15:16:54Z</time>
      </trkpt>
      <trkpt lat="43.01177" lon="0.19422">
        <ele>971.3</ele>
        <time>2023-11-19T15:16:55Z</time>
      </trkpt>
      <trkpt lat="43.01177" lon="0.19422">
        <ele>971.2</ele>
        <time>2023-11-19T15:16:56Z</time>
      </trkpt>
      <trkpt lat="43.01177" lon="0.19422">
        <ele>971.2</ele>
        <time>2023-11-19T15:16:57Z</time>
      </trkpt>
      <trkpt lat="43.01177" lon="0.19422">
        <ele>971.2</ele>
        <time>2023-11-19T15:16:58Z</time>
      </trkpt>
      <trkpt lat="43.01177" lon="0.19422">
        <ele>971.2</ele>
        <time>2023-11-19T15:16:59Z</time>
      </trkpt>
      <trkpt lat="43.01177" lon="0.19422">
        <ele>971.2</ele>
        <time>2023-11-19T15:17:00Z</time>
      </trkpt>
      <trkpt lat="43.01177" lon="0.19422">
        <ele>971.2</ele>
        <time>2023-11-19T15:17:01Z</time>
      </trkpt>
      <trkpt lat="43.01177" lon="0.19422">
        <ele>971.2</ele>
        <time>2023-11-19T15:17:02Z</time>
      </trkpt>
      <trkpt lat="43.01177" lon="0.19422">
        <ele>971.2</ele>
        <time>2023-11-19T15:17:03Z</time>
      </trkpt>
      <trkpt lat="43.01177" lon="0.19422">
        <ele>971.2</ele>
        <time>2023-11-19T15:17:04Z</time>
      </trkpt>
      <trkpt lat="43.01176" lon="0.19422">
        <ele>971.1</ele>
        <time>2023-11-19T15:17:05Z</time>
      </trkpt>
      <trkpt lat="43.01176" lon="0.19422">
        <ele>971</ele>
        <time>2023-11-19T15:17:06Z</time>
      </trkpt>
      <trkpt lat="43.01175" lon="0.19423">
        <ele>970.9</ele>
        <time>2023-11-19T15:17:07Z</time>
      </trkpt>
      <trkpt lat="43.01175" lon="0.19424">
        <ele>970.7</ele>
        <time>2023-11-19T15:17:08Z</time>
      </trkpt>
      <trkpt lat="43.01174" lon="0.19425">
        <ele>970.6</ele>
        <time>2023-11-19T15:17:09Z</time>
      </trkpt>
      <trkpt lat="43.01172" lon="0.19427">
        <ele>970.3</ele>
        <time>2023-11-19T15:17:10Z</time>
      </trkpt>
      <trkpt lat="43.01172" lon="0.19427">
        <ele>970.2</ele>
        <time>2023-11-19T15:17:11Z</time>
      </trkpt>
      <trkpt lat="43.01171" lon="0.19428">
        <ele>970.1</ele>
        <time>2023-11-19T15:17:12Z</time>
      </trkpt>
      <trkpt lat="43.01171" lon="0.19428">
        <ele>970</ele>
        <time>2023-11-19T15:17:13Z</time>
      </trkpt>
      <trkpt lat="43.01169" lon="0.1943">
        <ele>969.6</ele>
        <time>2023-11-19T15:17:14Z</time>
      </trkpt>
      <trkpt lat="43.01168" lon="0.19431">
        <ele>969.5</ele>
        <time>2023-11-19T15:17:15Z</time>
      </trkpt>
      <trkpt lat="43.01167" lon="0.19431">
        <ele>969.4</ele>
        <time>2023-11-19T15:17:16Z</time>
      </trkpt>
      <trkpt lat="43.01166" lon="0.19432">
        <ele>969.2</ele>
        <time>2023-11-19T15:17:17Z</time>
      </trkpt>
      <trkpt lat="43.01165" lon="0.19434">
        <ele>968.9</ele>
        <time>2023-11-19T15:17:18Z</time>
      </trkpt>
      <trkpt lat="43.01165" lon="0.19434">
        <ele>968.8</ele>
        <time>2023-11-19T15:17:19Z</time>
      </trkpt>
      <trkpt lat="43.01163" lon="0.19435">
        <ele>968.5</ele>
        <time>2023-11-19T15:17:20Z</time>
      </trkpt>
      <trkpt lat="43.01162" lon="0.19435">
        <ele>968.4</ele>
        <time>2023-11-19T15:17:21Z</time>
      </trkpt>
      <trkpt lat="43.01161" lon="0.19436">
        <ele>968.2</ele>
        <time>2023-11-19T15:17:22Z</time>
      </trkpt>
      <trkpt lat="43.01159" lon="0.19438">
        <ele>967.9</ele>
        <time>2023-11-19T15:17:23Z</time>
      </trkpt>
      <trkpt lat="43.01159" lon="0.19438">
        <ele>967.8</ele>
        <time>2023-11-19T15:17:24Z</time>
      </trkpt>
      <trkpt lat="43.01158" lon="0.19439">
        <ele>967.6</ele>
        <time>2023-11-19T15:17:25Z</time>
      </trkpt>
      <trkpt lat="43.01157" lon="0.19441">
        <ele>967.4</ele>
        <time>2023-11-19T15:17:26Z</time>
      </trkpt>
      <trkpt lat="43.01157" lon="0.19442">
        <ele>967.2</ele>
        <time>2023-11-19T15:17:27Z</time>
      </trkpt>
      <trkpt lat="43.01156" lon="0.19443">
        <ele>967</ele>
        <time>2023-11-19T15:17:28Z</time>
      </trkpt>
      <trkpt lat="43.01155" lon="0.19444">
        <ele>966.8</ele>
        <time>2023-11-19T15:17:29Z</time>
      </trkpt>
      <trkpt lat="43.01154" lon="0.19444">
        <ele>966.6</ele>
        <time>2023-11-19T15:17:30Z</time>
      </trkpt>
      <trkpt lat="43.01153" lon="0.19444">
        <ele>966.5</ele>
        <time>2023-11-19T15:17:31Z</time>
      </trkpt>
      <trkpt lat="43.01151" lon="0.19445">
        <ele>966.2</ele>
        <time>2023-11-19T15:17:32Z</time>
      </trkpt>
      <trkpt lat="43.0115" lon="0.19446">
        <ele>966</ele>
        <time>2023-11-19T15:17:33Z</time>
      </trkpt>
      <trkpt lat="43.01149" lon="0.19447">
        <ele>965.9</ele>
        <time>2023-11-19T15:17:34Z</time>
      </trkpt>
      <trkpt lat="43.01149" lon="0.19447">
        <ele>965.8</ele>
        <time>2023-11-19T15:17:35Z</time>
      </trkpt>
      <trkpt lat="43.01148" lon="0.19448">
        <ele>965.6</ele>
        <time>2023-11-19T15:17:36Z</time>
      </trkpt>
      <trkpt lat="43.01147" lon="0.19448">
        <ele>965.4</ele>
        <time>2023-11-19T15:17:37Z</time>
      </trkpt>
      <trkpt lat="43.01146" lon="0.19449">
        <ele>965.3</ele>
        <time>2023-11-19T15:17:38Z</time>
      </trkpt>
      <trkpt lat="43.01145" lon="0.19449">
        <ele>965</ele>
        <time>2023-11-19T15:17:39Z</time>
      </trkpt>
      <trkpt lat="43.01144" lon="0.1945">
        <ele>964.9</ele>
        <time>2023-11-19T15:17:40Z</time>
      </trkpt>
      <trkpt lat="43.01144" lon="0.19451">
        <ele>964.7</ele>
        <time>2023-11-19T15:17:41Z</time>
      </trkpt>
      <trkpt lat="43.01143" lon="0.19452">
        <ele>964.6</ele>
        <time>2023-11-19T15:17:42Z</time>
      </trkpt>
      <trkpt lat="43.01143" lon="0.19452">
        <ele>964.5</ele>
        <time>2023-11-19T15:17:43Z</time>
      </trkpt>
      <trkpt lat="43.01143" lon="0.19453">
        <ele>964.4</ele>
        <time>2023-11-19T15:17:44Z</time>
      </trkpt>
      <trkpt lat="43.01142" lon="0.19454">
        <ele>964.2</ele>
        <time>2023-11-19T15:17:45Z</time>
      </trkpt>
      <trkpt lat="43.01141" lon="0.19455">
        <ele>964.1</ele>
        <time>2023-11-19T15:17:46Z</time>
      </trkpt>
      <trkpt lat="43.01141" lon="0.19455">
        <ele>964</ele>
        <time>2023-11-19T15:17:47Z</time>
      </trkpt>
      <trkpt lat="43.0114" lon="0.19456">
        <ele>963.8</ele>
        <time>2023-11-19T15:17:48Z</time>
      </trkpt>
      <trkpt lat="43.0114" lon="0.19457">
        <ele>963.6</ele>
        <time>2023-11-19T15:17:49Z</time>
      </trkpt>
      <trkpt lat="43.01139" lon="0.19458">
        <ele>963.5</ele>
        <time>2023-11-19T15:17:50Z</time>
      </trkpt>
      <trkpt lat="43.01138" lon="0.19459">
        <ele>963.3</ele>
        <time>2023-11-19T15:17:51Z</time>
      </trkpt>
      <trkpt lat="43.01138" lon="0.1946">
        <ele>963.1</ele>
        <time>2023-11-19T15:17:52Z</time>
      </trkpt>
      <trkpt lat="43.01137" lon="0.19461">
        <ele>962.9</ele>
        <time>2023-11-19T15:17:53Z</time>
      </trkpt>
      <trkpt lat="43.01136" lon="0.19462">
        <ele>962.6</ele>
        <time>2023-11-19T15:17:54Z</time>
      </trkpt>
      <trkpt lat="43.01135" lon="0.19463">
        <ele>962.5</ele>
        <time>2023-11-19T15:17:55Z</time>
      </trkpt>
      <trkpt lat="43.01135" lon="0.19463">
        <ele>962.4</ele>
        <time>2023-11-19T15:17:56Z</time>
      </trkpt>
      <trkpt lat="43.01134" lon="0.19464">
        <ele>962.3</ele>
        <time>2023-11-19T15:17:57Z</time>
      </trkpt>
      <trkpt lat="43.01133" lon="0.19464">
        <ele>962</ele>
        <time>2023-11-19T15:17:58Z</time>
      </trkpt>
      <trkpt lat="43.01132" lon="0.19465">
        <ele>961.9</ele>
        <time>2023-11-19T15:17:59Z</time>
      </trkpt>
      <trkpt lat="43.01132" lon="0.19466">
        <ele>961.7</ele>
        <time>2023-11-19T15:18:00Z</time>
      </trkpt>
      <trkpt lat="43.01131" lon="0.19466">
        <ele>961.5</ele>
        <time>2023-11-19T15:18:01Z</time>
      </trkpt>
      <trkpt lat="43.0113" lon="0.19467">
        <ele>961.3</ele>
        <time>2023-11-19T15:18:02Z</time>
      </trkpt>
      <trkpt lat="43.01129" lon="0.19467">
        <ele>961.2</ele>
        <time>2023-11-19T15:18:03Z</time>
      </trkpt>
      <trkpt lat="43.01128" lon="0.19468">
        <ele>961</ele>
        <time>2023-11-19T15:18:04Z</time>
      </trkpt>
      <trkpt lat="43.01127" lon="0.19468">
        <ele>960.7</ele>
        <time>2023-11-19T15:18:05Z</time>
      </trkpt>
      <trkpt lat="43.01126" lon="0.19469">
        <ele>960.6</ele>
        <time>2023-11-19T15:18:06Z</time>
      </trkpt>
      <trkpt lat="43.01126" lon="0.19469">
        <ele>960.6</ele>
        <time>2023-11-19T15:18:07Z</time>
      </trkpt>
      <trkpt lat="43.01125" lon="0.19471">
        <ele>960.2</ele>
        <time>2023-11-19T15:18:08Z</time>
      </trkpt>
      <trkpt lat="43.01124" lon="0.19472">
        <ele>960</ele>
        <time>2023-11-19T15:18:09Z</time>
      </trkpt>
      <trkpt lat="43.01123" lon="0.19473">
        <ele>959.8</ele>
        <time>2023-11-19T15:18:10Z</time>
      </trkpt>
      <trkpt lat="43.01123" lon="0.19474">
        <ele>959.6</ele>
        <time>2023-11-19T15:18:11Z</time>
      </trkpt>
      <trkpt lat="43.01122" lon="0.19475">
        <ele>959.4</ele>
        <time>2023-11-19T15:18:12Z</time>
      </trkpt>
      <trkpt lat="43.01121" lon="0.19475">
        <ele>959.2</ele>
        <time>2023-11-19T15:18:13Z</time>
      </trkpt>
      <trkpt lat="43.01119" lon="0.19476">
        <ele>958.9</ele>
        <time>2023-11-19T15:18:14Z</time>
      </trkpt>
      <trkpt lat="43.01119" lon="0.19477">
        <ele>958.7</ele>
        <time>2023-11-19T15:18:15Z</time>
      </trkpt>
      <trkpt lat="43.01118" lon="0.19477">
        <ele>958.6</ele>
        <time>2023-11-19T15:18:16Z</time>
      </trkpt>
      <trkpt lat="43.01118" lon="0.19478">
        <ele>958.4</ele>
        <time>2023-11-19T15:18:17Z</time>
      </trkpt>
      <trkpt lat="43.01117" lon="0.19479">
        <ele>958.2</ele>
        <time>2023-11-19T15:18:18Z</time>
      </trkpt>
      <trkpt lat="43.01116" lon="0.1948">
        <ele>958</ele>
        <time>2023-11-19T15:18:19Z</time>
      </trkpt>
      <trkpt lat="43.01115" lon="0.1948">
        <ele>957.8</ele>
        <time>2023-11-19T15:18:20Z</time>
      </trkpt>
      <trkpt lat="43.01114" lon="0.1948">
        <ele>957.6</ele>
        <time>2023-11-19T15:18:21Z</time>
      </trkpt>
      <trkpt lat="43.01114" lon="0.19481">
        <ele>957.5</ele>
        <time>2023-11-19T15:18:22Z</time>
      </trkpt>
      <trkpt lat="43.01113" lon="0.19482">
        <ele>957.3</ele>
        <time>2023-11-19T15:18:23Z</time>
      </trkpt>
      <trkpt lat="43.01113" lon="0.19482">
        <ele>957.2</ele>
        <time>2023-11-19T15:18:24Z</time>
      </trkpt>
      <trkpt lat="43.01112" lon="0.19483">
        <ele>957.1</ele>
        <time>2023-11-19T15:18:25Z</time>
      </trkpt>
      <trkpt lat="43.01112" lon="0.19484">
        <ele>956.9</ele>
        <time>2023-11-19T15:18:26Z</time>
      </trkpt>
      <trkpt lat="43.01111" lon="0.19485">
        <ele>956.7</ele>
        <time>2023-11-19T15:18:27Z</time>
      </trkpt>
      <trkpt lat="43.0111" lon="0.19486">
        <ele>956.5</ele>
        <time>2023-11-19T15:18:28Z</time>
      </trkpt>
      <trkpt lat="43.01109" lon="0.19486">
        <ele>956.3</ele>
        <time>2023-11-19T15:18:29Z</time>
      </trkpt>
      <trkpt lat="43.01108" lon="0.19487">
        <ele>956.1</ele>
        <time>2023-11-19T15:18:30Z</time>
      </trkpt>
      <trkpt lat="43.01108" lon="0.19488">
        <ele>955.9</ele>
        <time>2023-11-19T15:18:31Z</time>
      </trkpt>
      <trkpt lat="43.01107" lon="0.19489">
        <ele>955.7</ele>
        <time>2023-11-19T15:18:32Z</time>
      </trkpt>
      <trkpt lat="43.01106" lon="0.19489">
        <ele>955.6</ele>
        <time>2023-11-19T15:18:33Z</time>
      </trkpt>
      <trkpt lat="43.01106" lon="0.1949">
        <ele>955.4</ele>
        <time>2023-11-19T15:18:34Z</time>
      </trkpt>
      <trkpt lat="43.01104" lon="0.19491">
        <ele>955.2</ele>
        <time>2023-11-19T15:18:35Z</time>
      </trkpt>
      <trkpt lat="43.01103" lon="0.19492">
        <ele>954.9</ele>
        <time>2023-11-19T15:18:36Z</time>
      </trkpt>
      <trkpt lat="43.01103" lon="0.19493">
        <ele>954.7</ele>
        <time>2023-11-19T15:18:37Z</time>
      </trkpt>
      <trkpt lat="43.01103" lon="0.19494">
        <ele>954.5</ele>
        <time>2023-11-19T15:18:38Z</time>
      </trkpt>
      <trkpt lat="43.01102" lon="0.19495">
        <ele>954.4</ele>
        <time>2023-11-19T15:18:39Z</time>
      </trkpt>
      <trkpt lat="43.01101" lon="0.19496">
        <ele>954.2</ele>
        <time>2023-11-19T15:18:40Z</time>
      </trkpt>
      <trkpt lat="43.011" lon="0.19496">
        <ele>954</ele>
        <time>2023-11-19T15:18:41Z</time>
      </trkpt>
      <trkpt lat="43.01099" lon="0.19497">
        <ele>953.8</ele>
        <time>2023-11-19T15:18:42Z</time>
      </trkpt>
      <trkpt lat="43.01099" lon="0.19498">
        <ele>953.6</ele>
        <time>2023-11-19T15:18:43Z</time>
      </trkpt>
      <trkpt lat="43.01098" lon="0.19499">
        <ele>953.3</ele>
        <time>2023-11-19T15:18:44Z</time>
      </trkpt>
      <trkpt lat="43.01097" lon="0.19499">
        <ele>953.2</ele>
        <time>2023-11-19T15:18:45Z</time>
      </trkpt>
      <trkpt lat="43.01097" lon="0.19499">
        <ele>953.1</ele>
        <time>2023-11-19T15:18:46Z</time>
      </trkpt>
      <trkpt lat="43.01096" lon="0.19499">
        <ele>952.9</ele>
        <time>2023-11-19T15:18:47Z</time>
      </trkpt>
      <trkpt lat="43.01095" lon="0.195">
        <ele>952.8</ele>
        <time>2023-11-19T15:18:48Z</time>
      </trkpt>
      <trkpt lat="43.01095" lon="0.195">
        <ele>952.6</ele>
        <time>2023-11-19T15:18:49Z</time>
      </trkpt>
      <trkpt lat="43.01094" lon="0.19501">
        <ele>952.4</ele>
        <time>2023-11-19T15:18:50Z</time>
      </trkpt>
      <trkpt lat="43.01093" lon="0.19501">
        <ele>952.2</ele>
        <time>2023-11-19T15:18:51Z</time>
      </trkpt>
      <trkpt lat="43.01093" lon="0.19502">
        <ele>952</ele>
        <time>2023-11-19T15:18:52Z</time>
      </trkpt>
      <trkpt lat="43.01092" lon="0.19503">
        <ele>951.8</ele>
        <time>2023-11-19T15:18:53Z</time>
      </trkpt>
      <trkpt lat="43.01091" lon="0.19503">
        <ele>951.6</ele>
        <time>2023-11-19T15:18:54Z</time>
      </trkpt>
      <trkpt lat="43.0109" lon="0.19504">
        <ele>951.3</ele>
        <time>2023-11-19T15:18:55Z</time>
      </trkpt>
      <trkpt lat="43.0109" lon="0.19505">
        <ele>951.1</ele>
        <time>2023-11-19T15:18:56Z</time>
      </trkpt>
      <trkpt lat="43.01089" lon="0.19506">
        <ele>950.8</ele>
        <time>2023-11-19T15:18:57Z</time>
      </trkpt>
      <trkpt lat="43.01088" lon="0.19507">
        <ele>950.6</ele>
        <time>2023-11-19T15:18:58Z</time>
      </trkpt>
      <trkpt lat="43.01087" lon="0.19507">
        <ele>950.4</ele>
        <time>2023-11-19T15:18:59Z</time>
      </trkpt>
      <trkpt lat="43.01086" lon="0.19508">
        <ele>950.1</ele>
        <time>2023-11-19T15:19:00Z</time>
      </trkpt>
      <trkpt lat="43.01086" lon="0.19509">
        <ele>949.9</ele>
        <time>2023-11-19T15:19:01Z</time>
      </trkpt>
      <trkpt lat="43.01085" lon="0.1951">
        <ele>949.7</ele>
        <time>2023-11-19T15:19:02Z</time>
      </trkpt>
      <trkpt lat="43.01084" lon="0.1951">
        <ele>949.5</ele>
        <time>2023-11-19T15:19:03Z</time>
      </trkpt>
      <trkpt lat="43.01084" lon="0.1951">
        <ele>949.4</ele>
        <time>2023-11-19T15:19:04Z</time>
      </trkpt>
      <trkpt lat="43.01082" lon="0.19511">
        <ele>949.1</ele>
        <time>2023-11-19T15:19:05Z</time>
      </trkpt>
      <trkpt lat="43.01082" lon="0.19511">
        <ele>948.9</ele>
        <time>2023-11-19T15:19:06Z</time>
      </trkpt>
      <trkpt lat="43.01081" lon="0.1951">
        <ele>948.7</ele>
        <time>2023-11-19T15:19:07Z</time>
      </trkpt>
      <trkpt lat="43.01081" lon="0.1951">
        <ele>948.7</ele>
        <time>2023-11-19T15:19:08Z</time>
      </trkpt>
      <trkpt lat="43.0108" lon="0.1951">
        <ele>948.5</ele>
        <time>2023-11-19T15:19:09Z</time>
      </trkpt>
      <trkpt lat="43.0108" lon="0.19511">
        <ele>948.3</ele>
        <time>2023-11-19T15:19:10Z</time>
      </trkpt>
      <trkpt lat="43.01079" lon="0.19512">
        <ele>948.2</ele>
        <time>2023-11-19T15:19:11Z</time>
      </trkpt>
      <trkpt lat="43.01079" lon="0.19512">
        <ele>948.1</ele>
        <time>2023-11-19T15:19:12Z</time>
      </trkpt>
      <trkpt lat="43.01079" lon="0.19513">
        <ele>947.9</ele>
        <time>2023-11-19T15:19:13Z</time>
      </trkpt>
      <trkpt lat="43.01078" lon="0.19513">
        <ele>947.7</ele>
        <time>2023-11-19T15:19:14Z</time>
      </trkpt>
      <trkpt lat="43.01077" lon="0.19514">
        <ele>947.5</ele>
        <time>2023-11-19T15:19:15Z</time>
      </trkpt>
      <trkpt lat="43.01077" lon="0.19514">
        <ele>947.4</ele>
        <time>2023-11-19T15:19:16Z</time>
      </trkpt>
      <trkpt lat="43.01077" lon="0.19515">
        <ele>947.3</ele>
        <time>2023-11-19T15:19:17Z</time>
      </trkpt>
      <trkpt lat="43.01076" lon="0.19515">
        <ele>947.1</ele>
        <time>2023-11-19T15:19:18Z</time>
      </trkpt>
      <trkpt lat="43.01076" lon="0.19516">
        <ele>946.9</ele>
        <time>2023-11-19T15:19:19Z</time>
      </trkpt>
      <trkpt lat="43.01075" lon="0.19516">
        <ele>946.7</ele>
        <time>2023-11-19T15:19:20Z</time>
      </trkpt>
      <trkpt lat="43.01075" lon="0.19517">
        <ele>946.6</ele>
        <time>2023-11-19T15:19:21Z</time>
      </trkpt>
      <trkpt lat="43.01074" lon="0.19516">
        <ele>946.5</ele>
        <time>2023-11-19T15:19:22Z</time>
      </trkpt>
      <trkpt lat="43.01073" lon="0.19517">
        <ele>946.2</ele>
        <time>2023-11-19T15:19:23Z</time>
      </trkpt>
      <trkpt lat="43.01072" lon="0.19517">
        <ele>946</ele>
        <time>2023-11-19T15:19:24Z</time>
      </trkpt>
      <trkpt lat="43.01072" lon="0.19518">
        <ele>945.8</ele>
        <time>2023-11-19T15:19:25Z</time>
      </trkpt>
      <trkpt lat="43.01072" lon="0.19518">
        <ele>945.7</ele>
        <time>2023-11-19T15:19:26Z</time>
      </trkpt>
      <trkpt lat="43.01071" lon="0.19518">
        <ele>945.4</ele>
        <time>2023-11-19T15:19:27Z</time>
      </trkpt>
      <trkpt lat="43.0107" lon="0.1952">
        <ele>945.1</ele>
        <time>2023-11-19T15:19:28Z</time>
      </trkpt>
      <trkpt lat="43.01069" lon="0.19519">
        <ele>944.9</ele>
        <time>2023-11-19T15:19:29Z</time>
      </trkpt>
      <trkpt lat="43.01068" lon="0.19519">
        <ele>944.6</ele>
        <time>2023-11-19T15:19:30Z</time>
      </trkpt>
      <trkpt lat="43.01067" lon="0.1952">
        <ele>944.3</ele>
        <time>2023-11-19T15:19:31Z</time>
      </trkpt>
      <trkpt lat="43.01067" lon="0.19521">
        <ele>944.1</ele>
        <time>2023-11-19T15:19:32Z</time>
      </trkpt>
      <trkpt lat="43.01066" lon="0.19521">
        <ele>943.9</ele>
        <time>2023-11-19T15:19:33Z</time>
      </trkpt>
      <trkpt lat="43.01066" lon="0.19522">
        <ele>943.7</ele>
        <time>2023-11-19T15:19:34Z</time>
      </trkpt>
      <trkpt lat="43.01065" lon="0.19521">
        <ele>943.6</ele>
        <time>2023-11-19T15:19:35Z</time>
      </trkpt>
      <trkpt lat="43.01064" lon="0.19523">
        <ele>943.3</ele>
        <time>2023-11-19T15:19:36Z</time>
      </trkpt>
      <trkpt lat="43.01064" lon="0.19522">
        <ele>943.1</ele>
        <time>2023-11-19T15:19:37Z</time>
      </trkpt>
      <trkpt lat="43.01063" lon="0.19523">
        <ele>942.9</ele>
        <time>2023-11-19T15:19:38Z</time>
      </trkpt>
      <trkpt lat="43.01062" lon="0.19524">
        <ele>942.6</ele>
        <time>2023-11-19T15:19:39Z</time>
      </trkpt>
      <trkpt lat="43.01061" lon="0.19524">
        <ele>942.4</ele>
        <time>2023-11-19T15:19:40Z</time>
      </trkpt>
      <trkpt lat="43.01061" lon="0.19524">
        <ele>942.2</ele>
        <time>2023-11-19T15:19:41Z</time>
      </trkpt>
      <trkpt lat="43.0106" lon="0.19524">
        <ele>942</ele>
        <time>2023-11-19T15:19:42Z</time>
      </trkpt>
      <trkpt lat="43.01059" lon="0.19525">
        <ele>941.8</ele>
        <time>2023-11-19T15:19:43Z</time>
      </trkpt>
      <trkpt lat="43.01058" lon="0.19525">
        <ele>941.5</ele>
        <time>2023-11-19T15:19:44Z</time>
      </trkpt>
      <trkpt lat="43.01057" lon="0.19525">
        <ele>941.3</ele>
        <time>2023-11-19T15:19:45Z</time>
      </trkpt>
      <trkpt lat="43.01057" lon="0.19526">
        <ele>941</ele>
        <time>2023-11-19T15:19:46Z</time>
      </trkpt>
      <trkpt lat="43.01056" lon="0.19527">
        <ele>940.8</ele>
        <time>2023-11-19T15:19:47Z</time>
      </trkpt>
      <trkpt lat="43.01055" lon="0.19527">
        <ele>940.7</ele>
        <time>2023-11-19T15:19:48Z</time>
      </trkpt>
      <trkpt lat="43.01054" lon="0.19527">
        <ele>940.4</ele>
        <time>2023-11-19T15:19:49Z</time>
      </trkpt>
      <trkpt lat="43.01053" lon="0.19528">
        <ele>940.1</ele>
        <time>2023-11-19T15:19:50Z</time>
      </trkpt>
      <trkpt lat="43.01053" lon="0.19528">
        <ele>939.9</ele>
        <time>2023-11-19T15:19:51Z</time>
      </trkpt>
      <trkpt lat="43.01052" lon="0.19529">
        <ele>939.7</ele>
        <time>2023-11-19T15:19:52Z</time>
      </trkpt>
      <trkpt lat="43.01051" lon="0.19529">
        <ele>939.4</ele>
        <time>2023-11-19T15:19:53Z</time>
      </trkpt>
      <trkpt lat="43.0105" lon="0.1953">
        <ele>939.1</ele>
        <time>2023-11-19T15:19:54Z</time>
      </trkpt>
      <trkpt lat="43.0105" lon="0.1953">
        <ele>939</ele>
        <time>2023-11-19T15:19:55Z</time>
      </trkpt>
      <trkpt lat="43.01049" lon="0.1953">
        <ele>938.8</ele>
        <time>2023-11-19T15:19:56Z</time>
      </trkpt>
      <trkpt lat="43.01048" lon="0.19531">
        <ele>938.6</ele>
        <time>2023-11-19T15:19:57Z</time>
      </trkpt>
      <trkpt lat="43.01048" lon="0.19532">
        <ele>938.4</ele>
        <time>2023-11-19T15:19:58Z</time>
      </trkpt>
      <trkpt lat="43.01047" lon="0.19533">
        <ele>938.1</ele>
        <time>2023-11-19T15:19:59Z</time>
      </trkpt>
      <trkpt lat="43.01046" lon="0.19533">
        <ele>937.9</ele>
        <time>2023-11-19T15:20:00Z</time>
      </trkpt>
      <trkpt lat="43.01046" lon="0.19533">
        <ele>937.7</ele>
        <time>2023-11-19T15:20:01Z</time>
      </trkpt>
      <trkpt lat="43.01045" lon="0.19534">
        <ele>937.5</ele>
        <time>2023-11-19T15:20:02Z</time>
      </trkpt>
      <trkpt lat="43.01044" lon="0.19535">
        <ele>937.3</ele>
        <time>2023-11-19T15:20:03Z</time>
      </trkpt>
      <trkpt lat="43.01043" lon="0.19535">
        <ele>937.1</ele>
        <time>2023-11-19T15:20:04Z</time>
      </trkpt>
      <trkpt lat="43.01043" lon="0.19535">
        <ele>936.9</ele>
        <time>2023-11-19T15:20:05Z</time>
      </trkpt>
      <trkpt lat="43.01042" lon="0.19536">
        <ele>936.6</ele>
        <time>2023-11-19T15:20:06Z</time>
      </trkpt>
      <trkpt lat="43.01042" lon="0.19537">
        <ele>936.4</ele>
        <time>2023-11-19T15:20:07Z</time>
      </trkpt>
      <trkpt lat="43.01041" lon="0.19538">
        <ele>936.1</ele>
        <time>2023-11-19T15:20:08Z</time>
      </trkpt>
      <trkpt lat="43.0104" lon="0.19539">
        <ele>935.9</ele>
        <time>2023-11-19T15:20:09Z</time>
      </trkpt>
      <trkpt lat="43.0104" lon="0.19539">
        <ele>935.6</ele>
        <time>2023-11-19T15:20:10Z</time>
      </trkpt>
      <trkpt lat="43.01039" lon="0.1954">
        <ele>935.4</ele>
        <time>2023-11-19T15:20:11Z</time>
      </trkpt>
      <trkpt lat="43.01038" lon="0.1954">
        <ele>935.1</ele>
        <time>2023-11-19T15:20:12Z</time>
      </trkpt>
      <trkpt lat="43.01037" lon="0.1954">
        <ele>934.9</ele>
        <time>2023-11-19T15:20:13Z</time>
      </trkpt>
      <trkpt lat="43.01036" lon="0.19542">
        <ele>934.6</ele>
        <time>2023-11-19T15:20:14Z</time>
      </trkpt>
      <trkpt lat="43.01036" lon="0.19543">
        <ele>934.3</ele>
        <time>2023-11-19T15:20:15Z</time>
      </trkpt>
      <trkpt lat="43.01035" lon="0.19543">
        <ele>934.1</ele>
        <time>2023-11-19T15:20:16Z</time>
      </trkpt>
      <trkpt lat="43.01034" lon="0.19544">
        <ele>933.9</ele>
        <time>2023-11-19T15:20:17Z</time>
      </trkpt>
      <trkpt lat="43.01034" lon="0.19545">
        <ele>933.7</ele>
        <time>2023-11-19T15:20:18Z</time>
      </trkpt>
      <trkpt lat="43.01033" lon="0.19545">
        <ele>933.5</ele>
        <time>2023-11-19T15:20:19Z</time>
      </trkpt>
      <trkpt lat="43.01032" lon="0.19546">
        <ele>933.3</ele>
        <time>2023-11-19T15:20:20Z</time>
      </trkpt>
      <trkpt lat="43.01032" lon="0.19547">
        <ele>933.1</ele>
        <time>2023-11-19T15:20:21Z</time>
      </trkpt>
      <trkpt lat="43.01031" lon="0.19547">
        <ele>932.9</ele>
        <time>2023-11-19T15:20:22Z</time>
      </trkpt>
      <trkpt lat="43.0103" lon="0.19548">
        <ele>932.6</ele>
        <time>2023-11-19T15:20:23Z</time>
      </trkpt>
      <trkpt lat="43.0103" lon="0.19549">
        <ele>932.4</ele>
        <time>2023-11-19T15:20:24Z</time>
      </trkpt>
      <trkpt lat="43.01029" lon="0.1955">
        <ele>932.1</ele>
        <time>2023-11-19T15:20:25Z</time>
      </trkpt>
      <trkpt lat="43.01028" lon="0.19551">
        <ele>931.8</ele>
        <time>2023-11-19T15:20:26Z</time>
      </trkpt>
      <trkpt lat="43.01027" lon="0.19552">
        <ele>931.6</ele>
        <time>2023-11-19T15:20:27Z</time>
      </trkpt>
      <trkpt lat="43.01027" lon="0.19552">
        <ele>931.5</ele>
        <time>2023-11-19T15:20:28Z</time>
      </trkpt>
      <trkpt lat="43.01027" lon="0.19553">
        <ele>931.3</ele>
        <time>2023-11-19T15:20:29Z</time>
      </trkpt>
      <trkpt lat="43.01026" lon="0.19554">
        <ele>931</ele>
        <time>2023-11-19T15:20:30Z</time>
      </trkpt>
      <trkpt lat="43.01026" lon="0.19555">
        <ele>930.8</ele>
        <time>2023-11-19T15:20:31Z</time>
      </trkpt>
      <trkpt lat="43.01025" lon="0.19556">
        <ele>930.6</ele>
        <time>2023-11-19T15:20:32Z</time>
      </trkpt>
      <trkpt lat="43.01025" lon="0.19556">
        <ele>930.4</ele>
        <time>2023-11-19T15:20:33Z</time>
      </trkpt>
      <trkpt lat="43.01024" lon="0.19557">
        <ele>930.2</ele>
        <time>2023-11-19T15:20:34Z</time>
      </trkpt>
      <trkpt lat="43.01023" lon="0.19558">
        <ele>930</ele>
        <time>2023-11-19T15:20:35Z</time>
      </trkpt>
      <trkpt lat="43.01022" lon="0.19558">
        <ele>929.7</ele>
        <time>2023-11-19T15:20:36Z</time>
      </trkpt>
      <trkpt lat="43.01022" lon="0.19559">
        <ele>929.6</ele>
        <time>2023-11-19T15:20:37Z</time>
      </trkpt>
      <trkpt lat="43.01021" lon="0.19559">
        <ele>929.4</ele>
        <time>2023-11-19T15:20:38Z</time>
      </trkpt>
      <trkpt lat="43.01021" lon="0.1956">
        <ele>929.2</ele>
        <time>2023-11-19T15:20:39Z</time>
      </trkpt>
      <trkpt lat="43.0102" lon="0.19561">
        <ele>928.9</ele>
        <time>2023-11-19T15:20:40Z</time>
      </trkpt>
      <trkpt lat="43.01019" lon="0.19562">
        <ele>928.6</ele>
        <time>2023-11-19T15:20:41Z</time>
      </trkpt>
      <trkpt lat="43.01018" lon="0.19563">
        <ele>928.4</ele>
        <time>2023-11-19T15:20:42Z</time>
      </trkpt>
      <trkpt lat="43.01017" lon="0.19563">
        <ele>928.2</ele>
        <time>2023-11-19T15:20:43Z</time>
      </trkpt>
      <trkpt lat="43.01016" lon="0.19564">
        <ele>927.9</ele>
        <time>2023-11-19T15:20:44Z</time>
      </trkpt>
      <trkpt lat="43.01016" lon="0.19563">
        <ele>927.9</ele>
        <time>2023-11-19T15:20:45Z</time>
      </trkpt>
      <trkpt lat="43.01015" lon="0.19563">
        <ele>927.7</ele>
        <time>2023-11-19T15:20:46Z</time>
      </trkpt>
      <trkpt lat="43.01015" lon="0.19565">
        <ele>927.4</ele>
        <time>2023-11-19T15:20:47Z</time>
      </trkpt>
      <trkpt lat="43.01013" lon="0.19565">
        <ele>927.1</ele>
        <time>2023-11-19T15:20:48Z</time>
      </trkpt>
      <trkpt lat="43.01012" lon="0.19566">
        <ele>926.8</ele>
        <time>2023-11-19T15:20:49Z</time>
      </trkpt>
      <trkpt lat="43.01011" lon="0.19566">
        <ele>926.6</ele>
        <time>2023-11-19T15:20:50Z</time>
      </trkpt>
      <trkpt lat="43.0101" lon="0.19566">
        <ele>926.5</ele>
        <time>2023-11-19T15:20:51Z</time>
      </trkpt>
      <trkpt lat="43.01009" lon="0.19566">
        <ele>926.3</ele>
        <time>2023-11-19T15:20:52Z</time>
      </trkpt>
      <trkpt lat="43.01007" lon="0.19566">
        <ele>925.7</ele>
        <time>2023-11-19T15:20:53Z</time>
      </trkpt>
      <trkpt lat="43.01007" lon="0.19566">
        <ele>925.6</ele>
        <time>2023-11-19T15:20:54Z</time>
      </trkpt>
      <trkpt lat="43.01006" lon="0.19567">
        <ele>925.3</ele>
        <time>2023-11-19T15:20:55Z</time>
      </trkpt>
      <trkpt lat="43.01005" lon="0.19567">
        <ele>925.2</ele>
        <time>2023-11-19T15:20:56Z</time>
      </trkpt>
      <trkpt lat="43.01005" lon="0.19568">
        <ele>925</ele>
        <time>2023-11-19T15:20:57Z</time>
      </trkpt>
      <trkpt lat="43.01005" lon="0.19569">
        <ele>924.8</ele>
        <time>2023-11-19T15:20:58Z</time>
      </trkpt>
      <trkpt lat="43.01003" lon="0.19569">
        <ele>924.6</ele>
        <time>2023-11-19T15:20:59Z</time>
      </trkpt>
      <trkpt lat="43.01002" lon="0.19569">
        <ele>924.4</ele>
        <time>2023-11-19T15:21:00Z</time>
      </trkpt>
      <trkpt lat="43.01001" lon="0.1957">
        <ele>924.2</ele>
        <time>2023-11-19T15:21:01Z</time>
      </trkpt>
      <trkpt lat="43.01" lon="0.19571">
        <ele>923.9</ele>
        <time>2023-11-19T15:21:02Z</time>
      </trkpt>
      <trkpt lat="43.00999" lon="0.19571">
        <ele>923.7</ele>
        <time>2023-11-19T15:21:03Z</time>
      </trkpt>
      <trkpt lat="43.00998" lon="0.19572">
        <ele>923.5</ele>
        <time>2023-11-19T15:21:04Z</time>
      </trkpt>
      <trkpt lat="43.00997" lon="0.19573">
        <ele>923.4</ele>
        <time>2023-11-19T15:21:05Z</time>
      </trkpt>
      <trkpt lat="43.00997" lon="0.19572">
        <ele>923.3</ele>
        <time>2023-11-19T15:21:06Z</time>
      </trkpt>
      <trkpt lat="43.00997" lon="0.19573">
        <ele>923.1</ele>
        <time>2023-11-19T15:21:07Z</time>
      </trkpt>
      <trkpt lat="43.00995" lon="0.19574">
        <ele>922.7</ele>
        <time>2023-11-19T15:21:08Z</time>
      </trkpt>
      <trkpt lat="43.00994" lon="0.19575">
        <ele>922.6</ele>
        <time>2023-11-19T15:21:09Z</time>
      </trkpt>
      <trkpt lat="43.00993" lon="0.19575">
        <ele>922.4</ele>
        <time>2023-11-19T15:21:10Z</time>
      </trkpt>
      <trkpt lat="43.00992" lon="0.19576">
        <ele>922.2</ele>
        <time>2023-11-19T15:21:11Z</time>
      </trkpt>
      <trkpt lat="43.0099" lon="0.19574">
        <ele>921.9</ele>
        <time>2023-11-19T15:21:12Z</time>
      </trkpt>
      <trkpt lat="43.0099" lon="0.19573">
        <ele>921.7</ele>
        <time>2023-11-19T15:21:13Z</time>
      </trkpt>
      <trkpt lat="43.00989" lon="0.19573">
        <ele>921.5</ele>
        <time>2023-11-19T15:21:14Z</time>
      </trkpt>
      <trkpt lat="43.00987" lon="0.19574">
        <ele>921.2</ele>
        <time>2023-11-19T15:21:15Z</time>
      </trkpt>
      <trkpt lat="43.00986" lon="0.19575">
        <ele>921</ele>
        <time>2023-11-19T15:21:16Z</time>
      </trkpt>
      <trkpt lat="43.00985" lon="0.19575">
        <ele>920.8</ele>
        <time>2023-11-19T15:21:17Z</time>
      </trkpt>
      <trkpt lat="43.00984" lon="0.19576">
        <ele>920.6</ele>
        <time>2023-11-19T15:21:18Z</time>
      </trkpt>
      <trkpt lat="43.00983" lon="0.19576">
        <ele>920.5</ele>
        <time>2023-11-19T15:21:19Z</time>
      </trkpt>
      <trkpt lat="43.00983" lon="0.19577">
        <ele>920.3</ele>
        <time>2023-11-19T15:21:20Z</time>
      </trkpt>
      <trkpt lat="43.00982" lon="0.19576">
        <ele>920.2</ele>
        <time>2023-11-19T15:21:21Z</time>
      </trkpt>
      <trkpt lat="43.00982" lon="0.19576">
        <ele>920.1</ele>
        <time>2023-11-19T15:21:22Z</time>
      </trkpt>
      <trkpt lat="43.00983" lon="0.19574">
        <ele>919.9</ele>
        <time>2023-11-19T15:21:23Z</time>
      </trkpt>
      <trkpt lat="43.00983" lon="0.19573">
        <ele>919.7</ele>
        <time>2023-11-19T15:21:24Z</time>
      </trkpt>
      <trkpt lat="43.00983" lon="0.19571">
        <ele>919.5</ele>
        <time>2023-11-19T15:21:25Z</time>
      </trkpt>
      <trkpt lat="43.00983" lon="0.1957">
        <ele>919.3</ele>
        <time>2023-11-19T15:21:26Z</time>
      </trkpt>
      <trkpt lat="43.00984" lon="0.19569">
        <ele>919.2</ele>
        <time>2023-11-19T15:21:27Z</time>
      </trkpt>
      <trkpt lat="43.00984" lon="0.19568">
        <ele>919.1</ele>
        <time>2023-11-19T15:21:28Z</time>
      </trkpt>
      <trkpt lat="43.00985" lon="0.19567">
        <ele>918.9</ele>
        <time>2023-11-19T15:21:29Z</time>
      </trkpt>
      <trkpt lat="43.00985" lon="0.19566">
        <ele>918.8</ele>
        <time>2023-11-19T15:21:30Z</time>
      </trkpt>
      <trkpt lat="43.00985" lon="0.19565">
        <ele>918.7</ele>
        <time>2023-11-19T15:21:31Z</time>
      </trkpt>
      <trkpt lat="43.00986" lon="0.19565">
        <ele>918.6</ele>
        <time>2023-11-19T15:21:32Z</time>
      </trkpt>
      <trkpt lat="43.00986" lon="0.19563">
        <ele>918.4</ele>
        <time>2023-11-19T15:21:33Z</time>
      </trkpt>
      <trkpt lat="43.00987" lon="0.19562">
        <ele>918.2</ele>
        <time>2023-11-19T15:21:34Z</time>
      </trkpt>
      <trkpt lat="43.00988" lon="0.1956">
        <ele>917.9</ele>
        <time>2023-11-19T15:21:35Z</time>
      </trkpt>
      <trkpt lat="43.00988" lon="0.1956">
        <ele>917.8</ele>
        <time>2023-11-19T15:21:36Z</time>
      </trkpt>
      <trkpt lat="43.00989" lon="0.19559">
        <ele>917.7</ele>
        <time>2023-11-19T15:21:37Z</time>
      </trkpt>
      <trkpt lat="43.0099" lon="0.19558">
        <ele>917.6</ele>
        <time>2023-11-19T15:21:38Z</time>
      </trkpt>
      <trkpt lat="43.0099" lon="0.19558">
        <ele>917.5</ele>
        <time>2023-11-19T15:21:39Z</time>
      </trkpt>
      <trkpt lat="43.0099" lon="0.19558">
        <ele>917.5</ele>
        <time>2023-11-19T15:21:40Z</time>
      </trkpt>
      <trkpt lat="43.0099" lon="0.19558">
        <ele>917.5</ele>
        <time>2023-11-19T15:21:41Z</time>
      </trkpt>
      <trkpt lat="43.00989" lon="0.19559">
        <ele>917.3</ele>
        <time>2023-11-19T15:21:42Z</time>
      </trkpt>
      <trkpt lat="43.00989" lon="0.19559">
        <ele>917.3</ele>
        <time>2023-11-19T15:21:43Z</time>
      </trkpt>
      <trkpt lat="43.00989" lon="0.19559">
        <ele>917.3</ele>
        <time>2023-11-19T15:21:44Z</time>
      </trkpt>
      <trkpt lat="43.00989" lon="0.19559">
        <ele>917.3</ele>
        <time>2023-11-19T15:21:45Z</time>
      </trkpt>
      <trkpt lat="43.00989" lon="0.19559">
        <ele>917.3</ele>
        <time>2023-11-19T15:21:46Z</time>
      </trkpt>
      <trkpt lat="43.00989" lon="0.19556">
        <ele>916.9</ele>
        <time>2023-11-19T15:21:47Z</time>
      </trkpt>
      <trkpt lat="43.0099" lon="0.19556">
        <ele>916.9</ele>
        <time>2023-11-19T15:21:48Z</time>
      </trkpt>
      <trkpt lat="43.0099" lon="0.19558">
        <ele>916.7</ele>
        <time>2023-11-19T15:21:49Z</time>
      </trkpt>
      <trkpt lat="43.0099" lon="0.19558">
        <ele>916.7</ele>
        <time>2023-11-19T15:21:50Z</time>
      </trkpt>
      <trkpt lat="43.00989" lon="0.19558">
        <ele>916.6</ele>
        <time>2023-11-19T15:21:51Z</time>
      </trkpt>
      <trkpt lat="43.00989" lon="0.19559">
        <ele>916.4</ele>
        <time>2023-11-19T15:21:52Z</time>
      </trkpt>
      <trkpt lat="43.00989" lon="0.19562">
        <ele>916</ele>
        <time>2023-11-19T15:21:53Z</time>
      </trkpt>
      <trkpt lat="43.0099" lon="0.19563">
        <ele>916</ele>
        <time>2023-11-19T15:21:54Z</time>
      </trkpt>
      <trkpt lat="43.0099" lon="0.19563">
        <ele>915.9</ele>
        <time>2023-11-19T15:21:55Z</time>
      </trkpt>
      <trkpt lat="43.0099" lon="0.19563">
        <ele>915.9</ele>
        <time>2023-11-19T15:21:56Z</time>
      </trkpt>
      <trkpt lat="43.0099" lon="0.19563">
        <ele>915.9</ele>
        <time>2023-11-19T15:21:57Z</time>
      </trkpt>
      <trkpt lat="43.0099" lon="0.19563">
        <ele>915.9</ele>
        <time>2023-11-19T15:21:58Z</time>
      </trkpt>
      <trkpt lat="43.00989" lon="0.19563">
        <ele>915.8</ele>
        <time>2023-11-19T15:21:59Z</time>
      </trkpt>
      <trkpt lat="43.00989" lon="0.19563">
        <ele>915.8</ele>
        <time>2023-11-19T15:22:00Z</time>
      </trkpt>
      <trkpt lat="43.00989" lon="0.19563">
        <ele>915.8</ele>
        <time>2023-11-19T15:22:01Z</time>
      </trkpt>
      <trkpt lat="43.00989" lon="0.19564">
        <ele>915.8</ele>
        <time>2023-11-19T15:22:02Z</time>
      </trkpt>
      <trkpt lat="43.00989" lon="0.19563">
        <ele>915.7</ele>
        <time>2023-11-19T15:22:03Z</time>
      </trkpt>
      <trkpt lat="43.00989" lon="0.19563">
        <ele>915.7</ele>
        <time>2023-11-19T15:22:04Z</time>
      </trkpt>
      <trkpt lat="43.00989" lon="0.19562">
        <ele>915.6</ele>
        <time>2023-11-19T15:22:05Z</time>
      </trkpt>
      <trkpt lat="43.00989" lon="0.19562">
        <ele>915.6</ele>
        <time>2023-11-19T15:22:06Z</time>
      </trkpt>
      <trkpt lat="43.00989" lon="0.19562">
        <ele>915.6</ele>
        <time>2023-11-19T15:22:07Z</time>
      </trkpt>
      <trkpt lat="43.00989" lon="0.19562">
        <ele>915.5</ele>
        <time>2023-11-19T15:22:08Z</time>
      </trkpt>
      <trkpt lat="43.00989" lon="0.19562">
        <ele>915.5</ele>
        <time>2023-11-19T15:22:09Z</time>
      </trkpt>
      <trkpt lat="43.00989" lon="0.19562">
        <ele>915.5</ele>
        <time>2023-11-19T15:22:10Z</time>
      </trkpt>
      <trkpt lat="43.00989" lon="0.19562">
        <ele>915.5</ele>
        <time>2023-11-19T15:22:11Z</time>
      </trkpt>
      <trkpt lat="43.00989" lon="0.19562">
        <ele>915.5</ele>
        <time>2023-11-19T15:22:12Z</time>
      </trkpt>
      <trkpt lat="43.00989" lon="0.19562">
        <ele>915.5</ele>
        <time>2023-11-19T15:22:13Z</time>
      </trkpt>
      <trkpt lat="43.00989" lon="0.19562">
        <ele>915.5</ele>
        <time>2023-11-19T15:22:14Z</time>
      </trkpt>
      <trkpt lat="43.00989" lon="0.19562">
        <ele>915.5</ele>
        <time>2023-11-19T15:22:15Z</time>
      </trkpt>
      <trkpt lat="43.00989" lon="0.19562">
        <ele>915.5</ele>
        <time>2023-11-19T15:22:16Z</time>
      </trkpt>
      <trkpt lat="43.00989" lon="0.19562">
        <ele>915.5</ele>
        <time>2023-11-19T15:22:17Z</time>
      </trkpt>
      <trkpt lat="43.00989" lon="0.19562">
        <ele>915.5</ele>
        <time>2023-11-19T15:22:18Z</time>
      </trkpt>
      <trkpt lat="43.00989" lon="0.19562">
        <ele>915.5</ele>
        <time>2023-11-19T15:22:19Z</time>
      </trkpt>
      <trkpt lat="43.00989" lon="0.19562">
        <ele>915.5</ele>
        <time>2023-11-19T15:22:20Z</time>
      </trkpt>
      <trkpt lat="43.00989" lon="0.19562">
        <ele>915.5</ele>
        <time>2023-11-19T15:22:21Z</time>
      </trkpt>
      <trkpt lat="43.00989" lon="0.19562">
        <ele>915.5</ele>
        <time>2023-11-19T15:22:22Z</time>
      </trkpt>
      <trkpt lat="43.00989" lon="0.19562">
        <ele>915.5</ele>
        <time>2023-11-19T15:22:23Z</time>
      </trkpt>
      <trkpt lat="43.00989" lon="0.19562">
        <ele>915.5</ele>
        <time>2023-11-19T15:22:24Z</time>
      </trkpt>
      <trkpt lat="43.00989" lon="0.19562">
        <ele>915.5</ele>
        <time>2023-11-19T15:22:25Z</time>
      </trkpt>
      <trkpt lat="43.00989" lon="0.19562">
        <ele>915.5</ele>
        <time>2023-11-19T15:22:26Z</time>
      </trkpt>
      <trkpt lat="43.00989" lon="0.19562">
        <ele>915.5</ele>
        <time>2023-11-19T15:22:27Z</time>
      </trkpt>
      <trkpt lat="43.00989" lon="0.19562">
        <ele>915.5</ele>
        <time>2023-11-19T15:22:28Z</time>
      </trkpt>
      <trkpt lat="43.00989" lon="0.19562">
        <ele>915.5</ele>
        <time>2023-11-19T15:22:29Z</time>
      </trkpt>
      <trkpt lat="43.00989" lon="0.19562">
        <ele>915.5</ele>
        <time>2023-11-19T15:22:30Z</time>
      </trkpt>
      <trkpt lat="43.00989" lon="0.19562">
        <ele>915.5</ele>
        <time>2023-11-19T15:22:31Z</time>
      </trkpt>
      <trkpt lat="43.00989" lon="0.19562">
        <ele>915.5</ele>
        <time>2023-11-19T15:22:32Z</time>
      </trkpt>
      <trkpt lat="43.00988" lon="0.19559">
        <ele>915.1</ele>
        <time>2023-11-19T15:22:33Z</time>
      </trkpt>
      <trkpt lat="43.00989" lon="0.19558">
        <ele>915</ele>
        <time>2023-11-19T15:22:34Z</time>
      </trkpt>
      <trkpt lat="43.00989" lon="0.19559">
        <ele>915</ele>
        <time>2023-11-19T15:22:35Z</time>
      </trkpt>
      <trkpt lat="43.0099" lon="0.19558">
        <ele>914.9</ele>
        <time>2023-11-19T15:22:36Z</time>
      </trkpt>
      <trkpt lat="43.0099" lon="0.19558">
        <ele>914.8</ele>
        <time>2023-11-19T15:22:37Z</time>
      </trkpt>
      <trkpt lat="43.0099" lon="0.19557">
        <ele>914.6</ele>
        <time>2023-11-19T15:22:38Z</time>
      </trkpt>
      <trkpt lat="43.0099" lon="0.19556">
        <ele>914.6</ele>
        <time>2023-11-19T15:22:39Z</time>
      </trkpt>
      <trkpt lat="43.0099" lon="0.19555">
        <ele>914.3</ele>
        <time>2023-11-19T15:22:40Z</time>
      </trkpt>
      <trkpt lat="43.00991" lon="0.19553">
        <ele>914.2</ele>
        <time>2023-11-19T15:22:41Z</time>
      </trkpt>
      <trkpt lat="43.00991" lon="0.19552">
        <ele>914</ele>
        <time>2023-11-19T15:22:42Z</time>
      </trkpt>
      <trkpt lat="43.00991" lon="0.19551">
        <ele>913.8</ele>
        <time>2023-11-19T15:22:43Z</time>
      </trkpt>
      <trkpt lat="43.00992" lon="0.1955">
        <ele>913.7</ele>
        <time>2023-11-19T15:22:44Z</time>
      </trkpt>
      <trkpt lat="43.00992" lon="0.19548">
        <ele>913.5</ele>
        <time>2023-11-19T15:22:45Z</time>
      </trkpt>
      <trkpt lat="43.00992" lon="0.19547">
        <ele>913.3</ele>
        <time>2023-11-19T15:22:46Z</time>
      </trkpt>
      <trkpt lat="43.00992" lon="0.19547">
        <ele>913.3</ele>
        <time>2023-11-19T15:22:47Z</time>
      </trkpt>
      <trkpt lat="43.00992" lon="0.19546">
        <ele>913.2</ele>
        <time>2023-11-19T15:22:48Z</time>
      </trkpt>
      <trkpt lat="43.00994" lon="0.19546">
        <ele>913</ele>
        <time>2023-11-19T15:22:49Z</time>
      </trkpt>
      <trkpt lat="43.00994" lon="0.19545">
        <ele>912.9</ele>
        <time>2023-11-19T15:22:50Z</time>
      </trkpt>
      <trkpt lat="43.00995" lon="0.19545">
        <ele>912.7</ele>
        <time>2023-11-19T15:22:51Z</time>
      </trkpt>
      <trkpt lat="43.00995" lon="0.19544">
        <ele>912.6</ele>
        <time>2023-11-19T15:22:52Z</time>
      </trkpt>
      <trkpt lat="43.00996" lon="0.19543">
        <ele>912.5</ele>
        <time>2023-11-19T15:22:53Z</time>
      </trkpt>
      <trkpt lat="43.00996" lon="0.19542">
        <ele>912.3</ele>
        <time>2023-11-19T15:22:54Z</time>
      </trkpt>
      <trkpt lat="43.00996" lon="0.19541">
        <ele>912.2</ele>
        <time>2023-11-19T15:22:55Z</time>
      </trkpt>
      <trkpt lat="43.00997" lon="0.19539">
        <ele>911.9</ele>
        <time>2023-11-19T15:22:56Z</time>
      </trkpt>
      <trkpt lat="43.00997" lon="0.19537">
        <ele>911.7</ele>
        <time>2023-11-19T15:22:57Z</time>
      </trkpt>
      <trkpt lat="43.00997" lon="0.19536">
        <ele>911.5</ele>
        <time>2023-11-19T15:22:58Z</time>
      </trkpt>
      <trkpt lat="43.00998" lon="0.19534">
        <ele>911.3</ele>
        <time>2023-11-19T15:22:59Z</time>
      </trkpt>
      <trkpt lat="43.00998" lon="0.19532">
        <ele>911</ele>
        <time>2023-11-19T15:23:00Z</time>
      </trkpt>
      <trkpt lat="43.00999" lon="0.19533">
        <ele>910.8</ele>
        <time>2023-11-19T15:23:01Z</time>
      </trkpt>
      <trkpt lat="43.00999" lon="0.19533">
        <ele>910.7</ele>
        <time>2023-11-19T15:23:02Z</time>
      </trkpt>
      <trkpt lat="43.01" lon="0.19533">
        <ele>910.6</ele>
        <time>2023-11-19T15:23:03Z</time>
      </trkpt>
      <trkpt lat="43.00999" lon="0.19533">
        <ele>910.5</ele>
        <time>2023-11-19T15:23:04Z</time>
      </trkpt>
      <trkpt lat="43.00999" lon="0.19532">
        <ele>910.4</ele>
        <time>2023-11-19T15:23:05Z</time>
      </trkpt>
      <trkpt lat="43.01" lon="0.19533">
        <ele>910.3</ele>
        <time>2023-11-19T15:23:06Z</time>
      </trkpt>
      <trkpt lat="43.01" lon="0.19534">
        <ele>910.2</ele>
        <time>2023-11-19T15:23:07Z</time>
      </trkpt>
      <trkpt lat="43.01001" lon="0.19533">
        <ele>910</ele>
        <time>2023-11-19T15:23:08Z</time>
      </trkpt>
      <trkpt lat="43.01001" lon="0.19532">
        <ele>909.9</ele>
        <time>2023-11-19T15:23:09Z</time>
      </trkpt>
      <trkpt lat="43.01002" lon="0.1953">
        <ele>909.7</ele>
        <time>2023-11-19T15:23:10Z</time>
      </trkpt>
      <trkpt lat="43.01002" lon="0.19529">
        <ele>909.5</ele>
        <time>2023-11-19T15:23:11Z</time>
      </trkpt>
      <trkpt lat="43.01003" lon="0.19528">
        <ele>909.4</ele>
        <time>2023-11-19T15:23:12Z</time>
      </trkpt>
      <trkpt lat="43.01003" lon="0.19527">
        <ele>909.2</ele>
        <time>2023-11-19T15:23:13Z</time>
      </trkpt>
      <trkpt lat="43.01004" lon="0.19526">
        <ele>909</ele>
        <time>2023-11-19T15:23:14Z</time>
      </trkpt>
      <trkpt lat="43.01004" lon="0.19526">
        <ele>909</ele>
        <time>2023-11-19T15:23:15Z</time>
      </trkpt>
      <trkpt lat="43.01004" lon="0.19525">
        <ele>908.8</ele>
        <time>2023-11-19T15:23:16Z</time>
      </trkpt>
      <trkpt lat="43.01005" lon="0.19524">
        <ele>908.7</ele>
        <time>2023-11-19T15:23:17Z</time>
      </trkpt>
      <trkpt lat="43.01005" lon="0.19524">
        <ele>908.6</ele>
        <time>2023-11-19T15:23:18Z</time>
      </trkpt>
      <trkpt lat="43.01006" lon="0.19524">
        <ele>908.5</ele>
        <time>2023-11-19T15:23:19Z</time>
      </trkpt>
      <trkpt lat="43.01006" lon="0.19523">
        <ele>908.5</ele>
        <time>2023-11-19T15:23:20Z</time>
      </trkpt>
      <trkpt lat="43.01005" lon="0.19523">
        <ele>908.4</ele>
        <time>2023-11-19T15:23:21Z</time>
      </trkpt>
      <trkpt lat="43.01005" lon="0.19523">
        <ele>908.3</ele>
        <time>2023-11-19T15:23:22Z</time>
      </trkpt>
      <trkpt lat="43.01005" lon="0.19521">
        <ele>908</ele>
        <time>2023-11-19T15:23:23Z</time>
      </trkpt>
      <trkpt lat="43.01006" lon="0.1952">
        <ele>907.8</ele>
        <time>2023-11-19T15:23:24Z</time>
      </trkpt>
      <trkpt lat="43.01006" lon="0.19519">
        <ele>907.7</ele>
        <time>2023-11-19T15:23:25Z</time>
      </trkpt>
      <trkpt lat="43.01006" lon="0.19518">
        <ele>907.5</ele>
        <time>2023-11-19T15:23:26Z</time>
      </trkpt>
      <trkpt lat="43.01006" lon="0.19515">
        <ele>907.1</ele>
        <time>2023-11-19T15:23:27Z</time>
      </trkpt>
      <trkpt lat="43.01005" lon="0.19514">
        <ele>907</ele>
        <time>2023-11-19T15:23:28Z</time>
      </trkpt>
      <trkpt lat="43.01005" lon="0.19512">
        <ele>906.5</ele>
        <time>2023-11-19T15:23:29Z</time>
      </trkpt>
      <trkpt lat="43.01006" lon="0.19515">
        <ele>906</ele>
        <time>2023-11-19T15:23:30Z</time>
      </trkpt>
      <trkpt lat="43.01007" lon="0.19514">
        <ele>905.6</ele>
        <time>2023-11-19T15:23:31Z</time>
      </trkpt>
      <trkpt lat="43.01006" lon="0.1951">
        <ele>905</ele>
        <time>2023-11-19T15:23:32Z</time>
      </trkpt>
      <trkpt lat="43.01007" lon="0.19509">
        <ele>904.8</ele>
        <time>2023-11-19T15:23:33Z</time>
      </trkpt>
      <trkpt lat="43.01006" lon="0.19508">
        <ele>904.4</ele>
        <time>2023-11-19T15:23:34Z</time>
      </trkpt>
      <trkpt lat="43.01005" lon="0.19506">
        <ele>904.1</ele>
        <time>2023-11-19T15:23:35Z</time>
      </trkpt>
      <trkpt lat="43.01005" lon="0.19504">
        <ele>903.7</ele>
        <time>2023-11-19T15:23:36Z</time>
      </trkpt>
      <trkpt lat="43.01005" lon="0.19503">
        <ele>903.5</ele>
        <time>2023-11-19T15:23:37Z</time>
      </trkpt>
      <trkpt lat="43.01005" lon="0.19502">
        <ele>903.4</ele>
        <time>2023-11-19T15:23:38Z</time>
      </trkpt>
      <trkpt lat="43.01006" lon="0.19501">
        <ele>903.3</ele>
        <time>2023-11-19T15:23:39Z</time>
      </trkpt>
      <trkpt lat="43.01005" lon="0.195">
        <ele>903.1</ele>
        <time>2023-11-19T15:23:40Z</time>
      </trkpt>
      <trkpt lat="43.01005" lon="0.19499">
        <ele>902.9</ele>
        <time>2023-11-19T15:23:41Z</time>
      </trkpt>
      <trkpt lat="43.01005" lon="0.19497">
        <ele>902.6</ele>
        <time>2023-11-19T15:23:42Z</time>
      </trkpt>
      <trkpt lat="43.01006" lon="0.19496">
        <ele>902.4</ele>
        <time>2023-11-19T15:23:43Z</time>
      </trkpt>
      <trkpt lat="43.01006" lon="0.19495">
        <ele>902.3</ele>
        <time>2023-11-19T15:23:44Z</time>
      </trkpt>
      <trkpt lat="43.01005" lon="0.19495">
        <ele>902.3</ele>
        <time>2023-11-19T15:23:45Z</time>
      </trkpt>
      <trkpt lat="43.01006" lon="0.19493">
        <ele>902</ele>
        <time>2023-11-19T15:23:46Z</time>
      </trkpt>
      <trkpt lat="43.01005" lon="0.19492">
        <ele>901.8</ele>
        <time>2023-11-19T15:23:47Z</time>
      </trkpt>
      <trkpt lat="43.01004" lon="0.19491">
        <ele>901.6</ele>
        <time>2023-11-19T15:23:48Z</time>
      </trkpt>
      <trkpt lat="43.01003" lon="0.19491">
        <ele>901.4</ele>
        <time>2023-11-19T15:23:49Z</time>
      </trkpt>
      <trkpt lat="43.01002" lon="0.19492">
        <ele>901.1</ele>
        <time>2023-11-19T15:23:50Z</time>
      </trkpt>
      <trkpt lat="43.01002" lon="0.19492">
        <ele>901</ele>
        <time>2023-11-19T15:23:51Z</time>
      </trkpt>
      <trkpt lat="43.01001" lon="0.19492">
        <ele>900.8</ele>
        <time>2023-11-19T15:23:52Z</time>
      </trkpt>
      <trkpt lat="43.01" lon="0.19492">
        <ele>900.7</ele>
        <time>2023-11-19T15:23:53Z</time>
      </trkpt>
      <trkpt lat="43.00999" lon="0.19492">
        <ele>900.6</ele>
        <time>2023-11-19T15:23:54Z</time>
      </trkpt>
      <trkpt lat="43.00999" lon="0.19491">
        <ele>900.4</ele>
        <time>2023-11-19T15:23:55Z</time>
      </trkpt>
      <trkpt lat="43.01" lon="0.1949">
        <ele>900.1</ele>
        <time>2023-11-19T15:23:56Z</time>
      </trkpt>
      <trkpt lat="43.01" lon="0.1949">
        <ele>900</ele>
        <time>2023-11-19T15:23:57Z</time>
      </trkpt>
      <trkpt lat="43.01" lon="0.19489">
        <ele>899.8</ele>
        <time>2023-11-19T15:23:58Z</time>
      </trkpt>
      <trkpt lat="43.01001" lon="0.19485">
        <ele>899.3</ele>
        <time>2023-11-19T15:23:59Z</time>
      </trkpt>
      <trkpt lat="43.01001" lon="0.19485">
        <ele>899.3</ele>
        <time>2023-11-19T15:24:00Z</time>
      </trkpt>
      <trkpt lat="43.01" lon="0.19484">
        <ele>899.2</ele>
        <time>2023-11-19T15:24:01Z</time>
      </trkpt>
      <trkpt lat="43.01" lon="0.19484">
        <ele>899.1</ele>
        <time>2023-11-19T15:24:02Z</time>
      </trkpt>
      <trkpt lat="43.01" lon="0.19482">
        <ele>898.9</ele>
        <time>2023-11-19T15:24:03Z</time>
      </trkpt>
      <trkpt lat="43.01001" lon="0.19481">
        <ele>898.8</ele>
        <time>2023-11-19T15:24:04Z</time>
      </trkpt>
      <trkpt lat="43.01002" lon="0.19481">
        <ele>898.6</ele>
        <time>2023-11-19T15:24:05Z</time>
      </trkpt>
      <trkpt lat="43.01002" lon="0.1948">
        <ele>898.5</ele>
        <time>2023-11-19T15:24:06Z</time>
      </trkpt>
      <trkpt lat="43.01003" lon="0.19479">
        <ele>898.2</ele>
        <time>2023-11-19T15:24:07Z</time>
      </trkpt>
      <trkpt lat="43.01004" lon="0.19478">
        <ele>898.1</ele>
        <time>2023-11-19T15:24:08Z</time>
      </trkpt>
      <trkpt lat="43.01004" lon="0.19477">
        <ele>897.9</ele>
        <time>2023-11-19T15:24:09Z</time>
      </trkpt>
      <trkpt lat="43.01004" lon="0.19476">
        <ele>897.8</ele>
        <time>2023-11-19T15:24:10Z</time>
      </trkpt>
      <trkpt lat="43.01004" lon="0.19475">
        <ele>897.7</ele>
        <time>2023-11-19T15:24:11Z</time>
      </trkpt>
      <trkpt lat="43.01005" lon="0.19474">
        <ele>897.6</ele>
        <time>2023-11-19T15:24:12Z</time>
      </trkpt>
      <trkpt lat="43.01005" lon="0.19473">
        <ele>897.4</ele>
        <time>2023-11-19T15:24:13Z</time>
      </trkpt>
      <trkpt lat="43.01005" lon="0.19473">
        <ele>897.3</ele>
        <time>2023-11-19T15:24:14Z</time>
      </trkpt>
      <trkpt lat="43.01005" lon="0.19472">
        <ele>897.2</ele>
        <time>2023-11-19T15:24:15Z</time>
      </trkpt>
      <trkpt lat="43.01004" lon="0.1947">
        <ele>897</ele>
        <time>2023-11-19T15:24:16Z</time>
      </trkpt>
      <trkpt lat="43.01005" lon="0.1947">
        <ele>896.9</ele>
        <time>2023-11-19T15:24:17Z</time>
      </trkpt>
      <trkpt lat="43.01005" lon="0.19469">
        <ele>896.8</ele>
        <time>2023-11-19T15:24:18Z</time>
      </trkpt>
      <trkpt lat="43.01005" lon="0.1947">
        <ele>896.7</ele>
        <time>2023-11-19T15:24:19Z</time>
      </trkpt>
      <trkpt lat="43.01004" lon="0.1947">
        <ele>896.6</ele>
        <time>2023-11-19T15:24:20Z</time>
      </trkpt>
      <trkpt lat="43.01004" lon="0.1947">
        <ele>896.6</ele>
        <time>2023-11-19T15:24:21Z</time>
      </trkpt>
      <trkpt lat="43.01005" lon="0.19468">
        <ele>896.3</ele>
        <time>2023-11-19T15:24:22Z</time>
      </trkpt>
      <trkpt lat="43.01005" lon="0.19469">
        <ele>896.2</ele>
        <time>2023-11-19T15:24:23Z</time>
      </trkpt>
      <trkpt lat="43.01005" lon="0.19467">
        <ele>896</ele>
        <time>2023-11-19T15:24:24Z</time>
      </trkpt>
      <trkpt lat="43.01004" lon="0.19466">
        <ele>895.8</ele>
        <time>2023-11-19T15:24:25Z</time>
      </trkpt>
      <trkpt lat="43.01005" lon="0.19466">
        <ele>895.8</ele>
        <time>2023-11-19T15:24:26Z</time>
      </trkpt>
      <trkpt lat="43.01005" lon="0.19465">
        <ele>895.6</ele>
        <time>2023-11-19T15:24:27Z</time>
      </trkpt>
      <trkpt lat="43.01006" lon="0.19464">
        <ele>895.4</ele>
        <time>2023-11-19T15:24:28Z</time>
      </trkpt>
      <trkpt lat="43.01007" lon="0.19464">
        <ele>895.3</ele>
        <time>2023-11-19T15:24:29Z</time>
      </trkpt>
      <trkpt lat="43.01007" lon="0.19462">
        <ele>895</ele>
        <time>2023-11-19T15:24:30Z</time>
      </trkpt>
      <trkpt lat="43.01007" lon="0.19461">
        <ele>894.9</ele>
        <time>2023-11-19T15:24:31Z</time>
      </trkpt>
      <trkpt lat="43.01007" lon="0.1946">
        <ele>894.8</ele>
        <time>2023-11-19T15:24:32Z</time>
      </trkpt>
      <trkpt lat="43.01008" lon="0.19458">
        <ele>894.4</ele>
        <time>2023-11-19T15:24:33Z</time>
      </trkpt>
      <trkpt lat="43.01008" lon="0.19457">
        <ele>894.3</ele>
        <time>2023-11-19T15:24:34Z</time>
      </trkpt>
      <trkpt lat="43.01009" lon="0.19457">
        <ele>894.2</ele>
        <time>2023-11-19T15:24:35Z</time>
      </trkpt>
      <trkpt lat="43.01008" lon="0.19458">
        <ele>894.1</ele>
        <time>2023-11-19T15:24:36Z</time>
      </trkpt>
      <trkpt lat="43.01009" lon="0.19456">
        <ele>893.9</ele>
        <time>2023-11-19T15:24:37Z</time>
      </trkpt>
      <trkpt lat="43.0101" lon="0.19455">
        <ele>893.7</ele>
        <time>2023-11-19T15:24:38Z</time>
      </trkpt>
      <trkpt lat="43.0101" lon="0.19454">
        <ele>893.5</ele>
        <time>2023-11-19T15:24:39Z</time>
      </trkpt>
      <trkpt lat="43.0101" lon="0.19453">
        <ele>893.3</ele>
        <time>2023-11-19T15:24:40Z</time>
      </trkpt>
      <trkpt lat="43.01011" lon="0.19451">
        <ele>892.9</ele>
        <time>2023-11-19T15:24:41Z</time>
      </trkpt>
      <trkpt lat="43.01011" lon="0.1945">
        <ele>892.8</ele>
        <time>2023-11-19T15:24:42Z</time>
      </trkpt>
      <trkpt lat="43.01011" lon="0.1945">
        <ele>892.7</ele>
        <time>2023-11-19T15:24:43Z</time>
      </trkpt>
      <trkpt lat="43.01011" lon="0.19449">
        <ele>892.7</ele>
        <time>2023-11-19T15:24:44Z</time>
      </trkpt>
      <trkpt lat="43.01011" lon="0.19449">
        <ele>892.6</ele>
        <time>2023-11-19T15:24:45Z</time>
      </trkpt>
      <trkpt lat="43.01012" lon="0.19448">
        <ele>892.5</ele>
        <time>2023-11-19T15:24:46Z</time>
      </trkpt>
      <trkpt lat="43.01013" lon="0.19446">
        <ele>892.1</ele>
        <time>2023-11-19T15:24:47Z</time>
      </trkpt>
      <trkpt lat="43.01012" lon="0.19445">
        <ele>892</ele>
        <time>2023-11-19T15:24:48Z</time>
      </trkpt>
      <trkpt lat="43.01013" lon="0.19444">
        <ele>891.8</ele>
        <time>2023-11-19T15:24:49Z</time>
      </trkpt>
      <trkpt lat="43.01013" lon="0.19441">
        <ele>891.4</ele>
        <time>2023-11-19T15:24:50Z</time>
      </trkpt>
      <trkpt lat="43.01013" lon="0.1944">
        <ele>891.3</ele>
        <time>2023-11-19T15:24:51Z</time>
      </trkpt>
      <trkpt lat="43.01013" lon="0.1944">
        <ele>891.1</ele>
        <time>2023-11-19T15:24:52Z</time>
      </trkpt>
      <trkpt lat="43.01013" lon="0.19439">
        <ele>891</ele>
        <time>2023-11-19T15:24:53Z</time>
      </trkpt>
      <trkpt lat="43.01012" lon="0.19437">
        <ele>890.7</ele>
        <time>2023-11-19T15:24:54Z</time>
      </trkpt>
      <trkpt lat="43.01012" lon="0.19437">
        <ele>890.6</ele>
        <time>2023-11-19T15:24:55Z</time>
      </trkpt>
      <trkpt lat="43.01013" lon="0.19436">
        <ele>890.4</ele>
        <time>2023-11-19T15:24:56Z</time>
      </trkpt>
      <trkpt lat="43.01014" lon="0.19435">
        <ele>890.2</ele>
        <time>2023-11-19T15:24:57Z</time>
      </trkpt>
      <trkpt lat="43.01014" lon="0.19435">
        <ele>890.1</ele>
        <time>2023-11-19T15:24:58Z</time>
      </trkpt>
      <trkpt lat="43.01014" lon="0.19434">
        <ele>890</ele>
        <time>2023-11-19T15:24:59Z</time>
      </trkpt>
      <trkpt lat="43.01014" lon="0.19433">
        <ele>889.8</ele>
        <time>2023-11-19T15:25:00Z</time>
      </trkpt>
      <trkpt lat="43.01015" lon="0.19433">
        <ele>889.8</ele>
        <time>2023-11-19T15:25:01Z</time>
      </trkpt>
      <trkpt lat="43.01015" lon="0.19432">
        <ele>889.7</ele>
        <time>2023-11-19T15:25:02Z</time>
      </trkpt>
      <trkpt lat="43.01015" lon="0.19431">
        <ele>889.6</ele>
        <time>2023-11-19T15:25:03Z</time>
      </trkpt>
      <trkpt lat="43.01015" lon="0.19431">
        <ele>889.4</ele>
        <time>2023-11-19T15:25:04Z</time>
      </trkpt>
      <trkpt lat="43.01015" lon="0.1943">
        <ele>889.4</ele>
        <time>2023-11-19T15:25:05Z</time>
      </trkpt>
      <trkpt lat="43.01015" lon="0.1943">
        <ele>889.3</ele>
        <time>2023-11-19T15:25:06Z</time>
      </trkpt>
      <trkpt lat="43.01016" lon="0.19428">
        <ele>889</ele>
        <time>2023-11-19T15:25:07Z</time>
      </trkpt>
      <trkpt lat="43.01016" lon="0.19427">
        <ele>888.8</ele>
        <time>2023-11-19T15:25:08Z</time>
      </trkpt>
      <trkpt lat="43.01016" lon="0.19426">
        <ele>888.6</ele>
        <time>2023-11-19T15:25:09Z</time>
      </trkpt>
      <trkpt lat="43.01016" lon="0.19424">
        <ele>888.4</ele>
        <time>2023-11-19T15:25:10Z</time>
      </trkpt>
      <trkpt lat="43.01016" lon="0.19423">
        <ele>888.2</ele>
        <time>2023-11-19T15:25:11Z</time>
      </trkpt>
      <trkpt lat="43.01017" lon="0.19421">
        <ele>888</ele>
        <time>2023-11-19T15:25:12Z</time>
      </trkpt>
      <trkpt lat="43.01017" lon="0.1942">
        <ele>887.8</ele>
        <time>2023-11-19T15:25:13Z</time>
      </trkpt>
      <trkpt lat="43.01018" lon="0.19421">
        <ele>887.6</ele>
        <time>2023-11-19T15:25:14Z</time>
      </trkpt>
      <trkpt lat="43.01018" lon="0.19419">
        <ele>887.3</ele>
        <time>2023-11-19T15:25:15Z</time>
      </trkpt>
      <trkpt lat="43.01017" lon="0.19419">
        <ele>887.2</ele>
        <time>2023-11-19T15:25:16Z</time>
      </trkpt>
      <trkpt lat="43.01018" lon="0.19418">
        <ele>887</ele>
        <time>2023-11-19T15:25:17Z</time>
      </trkpt>
      <trkpt lat="43.01018" lon="0.19416">
        <ele>886.8</ele>
        <time>2023-11-19T15:25:18Z</time>
      </trkpt>
      <trkpt lat="43.01018" lon="0.19416">
        <ele>886.8</ele>
        <time>2023-11-19T15:25:19Z</time>
      </trkpt>
      <trkpt lat="43.01018" lon="0.19416">
        <ele>886.7</ele>
        <time>2023-11-19T15:25:20Z</time>
      </trkpt>
      <trkpt lat="43.01019" lon="0.19414">
        <ele>886.4</ele>
        <time>2023-11-19T15:25:21Z</time>
      </trkpt>
      <trkpt lat="43.01019" lon="0.19413">
        <ele>886.2</ele>
        <time>2023-11-19T15:25:22Z</time>
      </trkpt>
      <trkpt lat="43.01019" lon="0.19412">
        <ele>886.1</ele>
        <time>2023-11-19T15:25:23Z</time>
      </trkpt>
      <trkpt lat="43.01019" lon="0.1941">
        <ele>885.8</ele>
        <time>2023-11-19T15:25:24Z</time>
      </trkpt>
      <trkpt lat="43.0102" lon="0.19408">
        <ele>885.6</ele>
        <time>2023-11-19T15:25:25Z</time>
      </trkpt>
      <trkpt lat="43.0102" lon="0.19407">
        <ele>885.4</ele>
        <time>2023-11-19T15:25:26Z</time>
      </trkpt>
      <trkpt lat="43.0102" lon="0.19406">
        <ele>885.2</ele>
        <time>2023-11-19T15:25:27Z</time>
      </trkpt>
      <trkpt lat="43.0102" lon="0.19405">
        <ele>885</ele>
        <time>2023-11-19T15:25:28Z</time>
      </trkpt>
      <trkpt lat="43.0102" lon="0.19405">
        <ele>885</ele>
        <time>2023-11-19T15:25:29Z</time>
      </trkpt>
      <trkpt lat="43.0102" lon="0.19404">
        <ele>884.9</ele>
        <time>2023-11-19T15:25:30Z</time>
      </trkpt>
      <trkpt lat="43.01021" lon="0.19403">
        <ele>884.8</ele>
        <time>2023-11-19T15:25:31Z</time>
      </trkpt>
      <trkpt lat="43.01021" lon="0.19401">
        <ele>884.6</ele>
        <time>2023-11-19T15:25:32Z</time>
      </trkpt>
      <trkpt lat="43.01022" lon="0.19401">
        <ele>884.4</ele>
        <time>2023-11-19T15:25:33Z</time>
      </trkpt>
      <trkpt lat="43.01022" lon="0.19402">
        <ele>884.3</ele>
        <time>2023-11-19T15:25:34Z</time>
      </trkpt>
      <trkpt lat="43.01023" lon="0.194">
        <ele>884</ele>
        <time>2023-11-19T15:25:35Z</time>
      </trkpt>
      <trkpt lat="43.01023" lon="0.19398">
        <ele>883.7</ele>
        <time>2023-11-19T15:25:36Z</time>
      </trkpt>
      <trkpt lat="43.01024" lon="0.19398">
        <ele>883.6</ele>
        <time>2023-11-19T15:25:37Z</time>
      </trkpt>
      <trkpt lat="43.01024" lon="0.19397">
        <ele>883.5</ele>
        <time>2023-11-19T15:25:38Z</time>
      </trkpt>
      <trkpt lat="43.01025" lon="0.19396">
        <ele>883.3</ele>
        <time>2023-11-19T15:25:39Z</time>
      </trkpt>
      <trkpt lat="43.01026" lon="0.19395">
        <ele>883</ele>
        <time>2023-11-19T15:25:40Z</time>
      </trkpt>
      <trkpt lat="43.01026" lon="0.19394">
        <ele>882.8</ele>
        <time>2023-11-19T15:25:41Z</time>
      </trkpt>
      <trkpt lat="43.01027" lon="0.19392">
        <ele>882.6</ele>
        <time>2023-11-19T15:25:42Z</time>
      </trkpt>
      <trkpt lat="43.01027" lon="0.19391">
        <ele>882.4</ele>
        <time>2023-11-19T15:25:43Z</time>
      </trkpt>
      <trkpt lat="43.01027" lon="0.1939">
        <ele>882.2</ele>
        <time>2023-11-19T15:25:44Z</time>
      </trkpt>
      <trkpt lat="43.01027" lon="0.19386">
        <ele>881.8</ele>
        <time>2023-11-19T15:25:45Z</time>
      </trkpt>
      <trkpt lat="43.01028" lon="0.19384">
        <ele>881.4</ele>
        <time>2023-11-19T15:25:46Z</time>
      </trkpt>
      <trkpt lat="43.01028" lon="0.19383">
        <ele>881.3</ele>
        <time>2023-11-19T15:25:47Z</time>
      </trkpt>
      <trkpt lat="43.01029" lon="0.19383">
        <ele>881.2</ele>
        <time>2023-11-19T15:25:48Z</time>
      </trkpt>
      <trkpt lat="43.01029" lon="0.19382">
        <ele>881.1</ele>
        <time>2023-11-19T15:25:49Z</time>
      </trkpt>
      <trkpt lat="43.01029" lon="0.19381">
        <ele>880.9</ele>
        <time>2023-11-19T15:25:50Z</time>
      </trkpt>
      <trkpt lat="43.0103" lon="0.19381">
        <ele>880.8</ele>
        <time>2023-11-19T15:25:51Z</time>
      </trkpt>
      <trkpt lat="43.0103" lon="0.19381">
        <ele>880.7</ele>
        <time>2023-11-19T15:25:52Z</time>
      </trkpt>
      <trkpt lat="43.0103" lon="0.1938">
        <ele>880.6</ele>
        <time>2023-11-19T15:25:53Z</time>
      </trkpt>
      <trkpt lat="43.01031" lon="0.19379">
        <ele>880.4</ele>
        <time>2023-11-19T15:25:54Z</time>
      </trkpt>
      <trkpt lat="43.0103" lon="0.19378">
        <ele>880.3</ele>
        <time>2023-11-19T15:25:55Z</time>
      </trkpt>
      <trkpt lat="43.0103" lon="0.19378">
        <ele>880.2</ele>
        <time>2023-11-19T15:25:56Z</time>
      </trkpt>
      <trkpt lat="43.01031" lon="0.19378">
        <ele>880.2</ele>
        <time>2023-11-19T15:25:57Z</time>
      </trkpt>
      <trkpt lat="43.01031" lon="0.19378">
        <ele>880.2</ele>
        <time>2023-11-19T15:25:58Z</time>
      </trkpt>
      <trkpt lat="43.0103" lon="0.19377">
        <ele>880</ele>
        <time>2023-11-19T15:25:59Z</time>
      </trkpt>
      <trkpt lat="43.01031" lon="0.19378">
        <ele>879.8</ele>
        <time>2023-11-19T15:26:00Z</time>
      </trkpt>
      <trkpt lat="43.0103" lon="0.19377">
        <ele>879.7</ele>
        <time>2023-11-19T15:26:01Z</time>
      </trkpt>
      <trkpt lat="43.01031" lon="0.19376">
        <ele>879.5</ele>
        <time>2023-11-19T15:26:02Z</time>
      </trkpt>
      <trkpt lat="43.01032" lon="0.19375">
        <ele>879.4</ele>
        <time>2023-11-19T15:26:03Z</time>
      </trkpt>
      <trkpt lat="43.0103" lon="0.19375">
        <ele>879</ele>
        <time>2023-11-19T15:26:04Z</time>
      </trkpt>
      <trkpt lat="43.01031" lon="0.19374">
        <ele>878.9</ele>
        <time>2023-11-19T15:26:05Z</time>
      </trkpt>
      <trkpt lat="43.01031" lon="0.19374">
        <ele>878.8</ele>
        <time>2023-11-19T15:26:06Z</time>
      </trkpt>
      <trkpt lat="43.01031" lon="0.19373">
        <ele>878.7</ele>
        <time>2023-11-19T15:26:07Z</time>
      </trkpt>
      <trkpt lat="43.01031" lon="0.19373">
        <ele>878.7</ele>
        <time>2023-11-19T15:26:08Z</time>
      </trkpt>
      <trkpt lat="43.01031" lon="0.19373">
        <ele>878.6</ele>
        <time>2023-11-19T15:26:09Z</time>
      </trkpt>
      <trkpt lat="43.01031" lon="0.19372">
        <ele>878.6</ele>
        <time>2023-11-19T15:26:10Z</time>
      </trkpt>
      <trkpt lat="43.01031" lon="0.19372">
        <ele>878.5</ele>
        <time>2023-11-19T15:26:11Z</time>
      </trkpt>
      <trkpt lat="43.01031" lon="0.19372">
        <ele>878.5</ele>
        <time>2023-11-19T15:26:12Z</time>
      </trkpt>
      <trkpt lat="43.01031" lon="0.19371">
        <ele>878.4</ele>
        <time>2023-11-19T15:26:13Z</time>
      </trkpt>
      <trkpt lat="43.01031" lon="0.19371">
        <ele>878.4</ele>
        <time>2023-11-19T15:26:14Z</time>
      </trkpt>
      <trkpt lat="43.01031" lon="0.19371">
        <ele>878.3</ele>
        <time>2023-11-19T15:26:15Z</time>
      </trkpt>
      <trkpt lat="43.01031" lon="0.1937">
        <ele>878.3</ele>
        <time>2023-11-19T15:26:16Z</time>
      </trkpt>
      <trkpt lat="43.01031" lon="0.1937">
        <ele>878.2</ele>
        <time>2023-11-19T15:26:17Z</time>
      </trkpt>
      <trkpt lat="43.01031" lon="0.1937">
        <ele>878.2</ele>
        <time>2023-11-19T15:26:18Z</time>
      </trkpt>
      <trkpt lat="43.01031" lon="0.19369">
        <ele>878.2</ele>
        <time>2023-11-19T15:26:19Z</time>
      </trkpt>
      <trkpt lat="43.0103" lon="0.19369">
        <ele>878</ele>
        <time>2023-11-19T15:26:20Z</time>
      </trkpt>
      <trkpt lat="43.0103" lon="0.19368">
        <ele>877.8</ele>
        <time>2023-11-19T15:26:21Z</time>
      </trkpt>
      <trkpt lat="43.0103" lon="0.19368">
        <ele>877.8</ele>
        <time>2023-11-19T15:26:22Z</time>
      </trkpt>
      <trkpt lat="43.0103" lon="0.19368">
        <ele>877.8</ele>
        <time>2023-11-19T15:26:23Z</time>
      </trkpt>
      <trkpt lat="43.0103" lon="0.19368">
        <ele>877.8</ele>
        <time>2023-11-19T15:26:24Z</time>
      </trkpt>
      <trkpt lat="43.0103" lon="0.19368">
        <ele>877.8</ele>
        <time>2023-11-19T15:26:25Z</time>
      </trkpt>
      <trkpt lat="43.0103" lon="0.19368">
        <ele>877.8</ele>
        <time>2023-11-19T15:26:26Z</time>
      </trkpt>
      <trkpt lat="43.0103" lon="0.19368">
        <ele>877.8</ele>
        <time>2023-11-19T15:26:27Z</time>
      </trkpt>
      <trkpt lat="43.0103" lon="0.19368">
        <ele>877.8</ele>
        <time>2023-11-19T15:26:28Z</time>
      </trkpt>
      <trkpt lat="43.0103" lon="0.19368">
        <ele>877.8</ele>
        <time>2023-11-19T15:26:29Z</time>
      </trkpt>
      <trkpt lat="43.0103" lon="0.19369">
        <ele>877.8</ele>
        <time>2023-11-19T15:26:30Z</time>
      </trkpt>
      <trkpt lat="43.0103" lon="0.19369">
        <ele>877.6</ele>
        <time>2023-11-19T15:26:31Z</time>
      </trkpt>
      <trkpt lat="43.0103" lon="0.19367">
        <ele>877.4</ele>
        <time>2023-11-19T15:26:32Z</time>
      </trkpt>
      <trkpt lat="43.0103" lon="0.19367">
        <ele>877.3</ele>
        <time>2023-11-19T15:26:33Z</time>
      </trkpt>
      <trkpt lat="43.0103" lon="0.19366">
        <ele>877.1</ele>
        <time>2023-11-19T15:26:34Z</time>
      </trkpt>
      <trkpt lat="43.0103" lon="0.19364">
        <ele>876.9</ele>
        <time>2023-11-19T15:26:35Z</time>
      </trkpt>
      <trkpt lat="43.01031" lon="0.19364">
        <ele>876.7</ele>
        <time>2023-11-19T15:26:36Z</time>
      </trkpt>
      <trkpt lat="43.01031" lon="0.19364">
        <ele>876.6</ele>
        <time>2023-11-19T15:26:37Z</time>
      </trkpt>
      <trkpt lat="43.01032" lon="0.19364">
        <ele>876.4</ele>
        <time>2023-11-19T15:26:38Z</time>
      </trkpt>
      <trkpt lat="43.01032" lon="0.19363">
        <ele>876.3</ele>
        <time>2023-11-19T15:26:39Z</time>
      </trkpt>
      <trkpt lat="43.01032" lon="0.19361">
        <ele>875.9</ele>
        <time>2023-11-19T15:26:40Z</time>
      </trkpt>
      <trkpt lat="43.01033" lon="0.1936">
        <ele>875.7</ele>
        <time>2023-11-19T15:26:41Z</time>
      </trkpt>
      <trkpt lat="43.01033" lon="0.19359">
        <ele>875.6</ele>
        <time>2023-11-19T15:26:42Z</time>
      </trkpt>
      <trkpt lat="43.01034" lon="0.19359">
        <ele>875.4</ele>
        <time>2023-11-19T15:26:43Z</time>
      </trkpt>
      <trkpt lat="43.01034" lon="0.19358">
        <ele>875.3</ele>
        <time>2023-11-19T15:26:44Z</time>
      </trkpt>
      <trkpt lat="43.01035" lon="0.19357">
        <ele>875.2</ele>
        <time>2023-11-19T15:26:45Z</time>
      </trkpt>
      <trkpt lat="43.01035" lon="0.19356">
        <ele>875</ele>
        <time>2023-11-19T15:26:46Z</time>
      </trkpt>
      <trkpt lat="43.01036" lon="0.19354">
        <ele>874.7</ele>
        <time>2023-11-19T15:26:47Z</time>
      </trkpt>
      <trkpt lat="43.01036" lon="0.19354">
        <ele>874.6</ele>
        <time>2023-11-19T15:26:48Z</time>
      </trkpt>
      <trkpt lat="43.01036" lon="0.19353">
        <ele>874.5</ele>
        <time>2023-11-19T15:26:49Z</time>
      </trkpt>
      <trkpt lat="43.01036" lon="0.19352">
        <ele>874.4</ele>
        <time>2023-11-19T15:26:50Z</time>
      </trkpt>
      <trkpt lat="43.01036" lon="0.19352">
        <ele>874.3</ele>
        <time>2023-11-19T15:26:51Z</time>
      </trkpt>
      <trkpt lat="43.01036" lon="0.19351">
        <ele>874.2</ele>
        <time>2023-11-19T15:26:52Z</time>
      </trkpt>
      <trkpt lat="43.01037" lon="0.19349">
        <ele>873.9</ele>
        <time>2023-11-19T15:26:53Z</time>
      </trkpt>
      <trkpt lat="43.01037" lon="0.19348">
        <ele>873.8</ele>
        <time>2023-11-19T15:26:54Z</time>
      </trkpt>
      <trkpt lat="43.01037" lon="0.19347">
        <ele>873.6</ele>
        <time>2023-11-19T15:26:55Z</time>
      </trkpt>
      <trkpt lat="43.01038" lon="0.19346">
        <ele>873.4</ele>
        <time>2023-11-19T15:26:56Z</time>
      </trkpt>
      <trkpt lat="43.01038" lon="0.19345">
        <ele>873.1</ele>
        <time>2023-11-19T15:26:57Z</time>
      </trkpt>
      <trkpt lat="43.01039" lon="0.19342">
        <ele>872.7</ele>
        <time>2023-11-19T15:26:58Z</time>
      </trkpt>
      <trkpt lat="43.01039" lon="0.19342">
        <ele>872.6</ele>
        <time>2023-11-19T15:26:59Z</time>
      </trkpt>
      <trkpt lat="43.0104" lon="0.19341">
        <ele>872.3</ele>
        <time>2023-11-19T15:27:00Z</time>
      </trkpt>
      <trkpt lat="43.0104" lon="0.1934">
        <ele>872.1</ele>
        <time>2023-11-19T15:27:01Z</time>
      </trkpt>
      <trkpt lat="43.01041" lon="0.19339">
        <ele>871.9</ele>
        <time>2023-11-19T15:27:02Z</time>
      </trkpt>
      <trkpt lat="43.01041" lon="0.19338">
        <ele>871.8</ele>
        <time>2023-11-19T15:27:03Z</time>
      </trkpt>
      <trkpt lat="43.01041" lon="0.19337">
        <ele>871.6</ele>
        <time>2023-11-19T15:27:04Z</time>
      </trkpt>
      <trkpt lat="43.01041" lon="0.19336">
        <ele>871.4</ele>
        <time>2023-11-19T15:27:05Z</time>
      </trkpt>
      <trkpt lat="43.01041" lon="0.19335">
        <ele>871.2</ele>
        <time>2023-11-19T15:27:06Z</time>
      </trkpt>
      <trkpt lat="43.01041" lon="0.19333">
        <ele>871</ele>
        <time>2023-11-19T15:27:07Z</time>
      </trkpt>
      <trkpt lat="43.01042" lon="0.19333">
        <ele>870.9</ele>
        <time>2023-11-19T15:27:08Z</time>
      </trkpt>
      <trkpt lat="43.01041" lon="0.19333">
        <ele>870.8</ele>
        <time>2023-11-19T15:27:09Z</time>
      </trkpt>
      <trkpt lat="43.01042" lon="0.19332">
        <ele>870.6</ele>
        <time>2023-11-19T15:27:10Z</time>
      </trkpt>
      <trkpt lat="43.01042" lon="0.19332">
        <ele>870.4</ele>
        <time>2023-11-19T15:27:11Z</time>
      </trkpt>
      <trkpt lat="43.0104" lon="0.19336">
        <ele>869.6</ele>
        <time>2023-11-19T15:27:12Z</time>
      </trkpt>
      <trkpt lat="43.01039" lon="0.19338">
        <ele>869.3</ele>
        <time>2023-11-19T15:27:13Z</time>
      </trkpt>
      <trkpt lat="43.01038" lon="0.19337">
        <ele>869</ele>
        <time>2023-11-19T15:27:14Z</time>
      </trkpt>
      <trkpt lat="43.01038" lon="0.19338">
        <ele>868.8</ele>
        <time>2023-11-19T15:27:15Z</time>
      </trkpt>
      <trkpt lat="43.01037" lon="0.19339">
        <ele>868.5</ele>
        <time>2023-11-19T15:27:16Z</time>
      </trkpt>
      <trkpt lat="43.01037" lon="0.1934">
        <ele>868.4</ele>
        <time>2023-11-19T15:27:17Z</time>
      </trkpt>
      <trkpt lat="43.01035" lon="0.19341">
        <ele>867.8</ele>
        <time>2023-11-19T15:27:18Z</time>
      </trkpt>
      <trkpt lat="43.01034" lon="0.19342">
        <ele>867.6</ele>
        <time>2023-11-19T15:27:19Z</time>
      </trkpt>
      <trkpt lat="43.01033" lon="0.19342">
        <ele>867.4</ele>
        <time>2023-11-19T15:27:20Z</time>
      </trkpt>
      <trkpt lat="43.01031" lon="0.19344">
        <ele>866.8</ele>
        <time>2023-11-19T15:27:21Z</time>
      </trkpt>
      <trkpt lat="43.0103" lon="0.19345">
        <ele>866.5</ele>
        <time>2023-11-19T15:27:22Z</time>
      </trkpt>
      <trkpt lat="43.0103" lon="0.19347">
        <ele>866.2</ele>
        <time>2023-11-19T15:27:23Z</time>
      </trkpt>
      <trkpt lat="43.01029" lon="0.19347">
        <ele>866</ele>
        <time>2023-11-19T15:27:24Z</time>
      </trkpt>
      <trkpt lat="43.01028" lon="0.19349">
        <ele>865.7</ele>
        <time>2023-11-19T15:27:25Z</time>
      </trkpt>
      <trkpt lat="43.01028" lon="0.19347">
        <ele>865.4</ele>
        <time>2023-11-19T15:27:26Z</time>
      </trkpt>
      <trkpt lat="43.01026" lon="0.19346">
        <ele>865.1</ele>
        <time>2023-11-19T15:27:27Z</time>
      </trkpt>
      <trkpt lat="43.01026" lon="0.19347">
        <ele>864.9</ele>
        <time>2023-11-19T15:27:28Z</time>
      </trkpt>
      <trkpt lat="43.01024" lon="0.19347">
        <ele>864.2</ele>
        <time>2023-11-19T15:27:29Z</time>
      </trkpt>
      <trkpt lat="43.01023" lon="0.19345">
        <ele>864</ele>
        <time>2023-11-19T15:27:30Z</time>
      </trkpt>
      <trkpt lat="43.01023" lon="0.19343">
        <ele>863.6</ele>
        <time>2023-11-19T15:27:31Z</time>
      </trkpt>
      <trkpt lat="43.01023" lon="0.19342">
        <ele>863.4</ele>
        <time>2023-11-19T15:27:32Z</time>
      </trkpt>
      <trkpt lat="43.01023" lon="0.19341">
        <ele>863.3</ele>
        <time>2023-11-19T15:27:33Z</time>
      </trkpt>
      <trkpt lat="43.01023" lon="0.1934">
        <ele>863.1</ele>
        <time>2023-11-19T15:27:34Z</time>
      </trkpt>
      <trkpt lat="43.01024" lon="0.1934">
        <ele>863</ele>
        <time>2023-11-19T15:27:35Z</time>
      </trkpt>
      <trkpt lat="43.01024" lon="0.19339">
        <ele>862.9</ele>
        <time>2023-11-19T15:27:36Z</time>
      </trkpt>
      <trkpt lat="43.01024" lon="0.19338">
        <ele>862.8</ele>
        <time>2023-11-19T15:27:37Z</time>
      </trkpt>
      <trkpt lat="43.01024" lon="0.19337">
        <ele>862.6</ele>
        <time>2023-11-19T15:27:38Z</time>
      </trkpt>
      <trkpt lat="43.01025" lon="0.19337">
        <ele>862.5</ele>
        <time>2023-11-19T15:27:39Z</time>
      </trkpt>
      <trkpt lat="43.01025" lon="0.19336">
        <ele>862.3</ele>
        <time>2023-11-19T15:27:40Z</time>
      </trkpt>
      <trkpt lat="43.01025" lon="0.19335">
        <ele>862.1</ele>
        <time>2023-11-19T15:27:41Z</time>
      </trkpt>
      <trkpt lat="43.01026" lon="0.19334">
        <ele>861.9</ele>
        <time>2023-11-19T15:27:42Z</time>
      </trkpt>
      <trkpt lat="43.01027" lon="0.19332">
        <ele>861.5</ele>
        <time>2023-11-19T15:27:43Z</time>
      </trkpt>
      <trkpt lat="43.01027" lon="0.19331">
        <ele>861.4</ele>
        <time>2023-11-19T15:27:44Z</time>
      </trkpt>
      <trkpt lat="43.01027" lon="0.1933">
        <ele>861.2</ele>
        <time>2023-11-19T15:27:45Z</time>
      </trkpt>
      <trkpt lat="43.01027" lon="0.19328">
        <ele>861</ele>
        <time>2023-11-19T15:27:46Z</time>
      </trkpt>
      <trkpt lat="43.01027" lon="0.19325">
        <ele>860.6</ele>
        <time>2023-11-19T15:27:47Z</time>
      </trkpt>
      <trkpt lat="43.01027" lon="0.19324">
        <ele>860.5</ele>
        <time>2023-11-19T15:27:48Z</time>
      </trkpt>
      <trkpt lat="43.01028" lon="0.19324">
        <ele>860.3</ele>
        <time>2023-11-19T15:27:49Z</time>
      </trkpt>
      <trkpt lat="43.01029" lon="0.19323">
        <ele>860.1</ele>
        <time>2023-11-19T15:27:50Z</time>
      </trkpt>
      <trkpt lat="43.0103" lon="0.19326">
        <ele>859.7</ele>
        <time>2023-11-19T15:27:51Z</time>
      </trkpt>
      <trkpt lat="43.0103" lon="0.19324">
        <ele>859.4</ele>
        <time>2023-11-19T15:27:52Z</time>
      </trkpt>
      <trkpt lat="43.01031" lon="0.1932">
        <ele>858.9</ele>
        <time>2023-11-19T15:27:53Z</time>
      </trkpt>
      <trkpt lat="43.01031" lon="0.19319">
        <ele>858.7</ele>
        <time>2023-11-19T15:27:54Z</time>
      </trkpt>
      <trkpt lat="43.01031" lon="0.19318">
        <ele>858.6</ele>
        <time>2023-11-19T15:27:55Z</time>
      </trkpt>
      <trkpt lat="43.0103" lon="0.19318">
        <ele>858.5</ele>
        <time>2023-11-19T15:27:56Z</time>
      </trkpt>
      <trkpt lat="43.0103" lon="0.19318">
        <ele>858.4</ele>
        <time>2023-11-19T15:27:57Z</time>
      </trkpt>
      <trkpt lat="43.01031" lon="0.19314">
        <ele>857.9</ele>
        <time>2023-11-19T15:27:58Z</time>
      </trkpt>
      <trkpt lat="43.01031" lon="0.19313">
        <ele>857.7</ele>
        <time>2023-11-19T15:27:59Z</time>
      </trkpt>
      <trkpt lat="43.01032" lon="0.19311">
        <ele>857.5</ele>
        <time>2023-11-19T15:28:00Z</time>
      </trkpt>
      <trkpt lat="43.01031" lon="0.1931">
        <ele>857.3</ele>
        <time>2023-11-19T15:28:01Z</time>
      </trkpt>
      <trkpt lat="43.01032" lon="0.19309">
        <ele>857.1</ele>
        <time>2023-11-19T15:28:02Z</time>
      </trkpt>
      <trkpt lat="43.01032" lon="0.19308">
        <ele>857</ele>
        <time>2023-11-19T15:28:03Z</time>
      </trkpt>
      <trkpt lat="43.01033" lon="0.19307">
        <ele>856.8</ele>
        <time>2023-11-19T15:28:04Z</time>
      </trkpt>
      <trkpt lat="43.01033" lon="0.19307">
        <ele>856.7</ele>
        <time>2023-11-19T15:28:05Z</time>
      </trkpt>
      <trkpt lat="43.01034" lon="0.19306">
        <ele>856.6</ele>
        <time>2023-11-19T15:28:06Z</time>
      </trkpt>
      <trkpt lat="43.01034" lon="0.19304">
        <ele>856.3</ele>
        <time>2023-11-19T15:28:07Z</time>
      </trkpt>
      <trkpt lat="43.01035" lon="0.19302">
        <ele>856.1</ele>
        <time>2023-11-19T15:28:08Z</time>
      </trkpt>
      <trkpt lat="43.01034" lon="0.19302">
        <ele>855.9</ele>
        <time>2023-11-19T15:28:09Z</time>
      </trkpt>
      <trkpt lat="43.01035" lon="0.19299">
        <ele>855.4</ele>
        <time>2023-11-19T15:28:10Z</time>
      </trkpt>
      <trkpt lat="43.01037" lon="0.19299">
        <ele>855.1</ele>
        <time>2023-11-19T15:28:11Z</time>
      </trkpt>
      <trkpt lat="43.01038" lon="0.19298">
        <ele>854.9</ele>
        <time>2023-11-19T15:28:12Z</time>
      </trkpt>
      <trkpt lat="43.01038" lon="0.19297">
        <ele>854.8</ele>
        <time>2023-11-19T15:28:13Z</time>
      </trkpt>
      <trkpt lat="43.01038" lon="0.19297">
        <ele>854.6</ele>
        <time>2023-11-19T15:28:14Z</time>
      </trkpt>
      <trkpt lat="43.01039" lon="0.19296">
        <ele>854.4</ele>
        <time>2023-11-19T15:28:15Z</time>
      </trkpt>
      <trkpt lat="43.01039" lon="0.19296">
        <ele>854.4</ele>
        <time>2023-11-19T15:28:16Z</time>
      </trkpt>
      <trkpt lat="43.0104" lon="0.19296">
        <ele>854.3</ele>
        <time>2023-11-19T15:28:17Z</time>
      </trkpt>
      <trkpt lat="43.0104" lon="0.19295">
        <ele>854.1</ele>
        <time>2023-11-19T15:28:18Z</time>
      </trkpt>
      <trkpt lat="43.0104" lon="0.19293">
        <ele>853.9</ele>
        <time>2023-11-19T15:28:19Z</time>
      </trkpt>
      <trkpt lat="43.0104" lon="0.19292">
        <ele>853.8</ele>
        <time>2023-11-19T15:28:20Z</time>
      </trkpt>
      <trkpt lat="43.0104" lon="0.1929">
        <ele>853.5</ele>
        <time>2023-11-19T15:28:21Z</time>
      </trkpt>
      <trkpt lat="43.01041" lon="0.19288">
        <ele>853.2</ele>
        <time>2023-11-19T15:28:22Z</time>
      </trkpt>
      <trkpt lat="43.01041" lon="0.19289">
        <ele>853.1</ele>
        <time>2023-11-19T15:28:23Z</time>
      </trkpt>
      <trkpt lat="43.01041" lon="0.19288">
        <ele>853</ele>
        <time>2023-11-19T15:28:24Z</time>
      </trkpt>
      <trkpt lat="43.01041" lon="0.19287">
        <ele>852.9</ele>
        <time>2023-11-19T15:28:25Z</time>
      </trkpt>
      <trkpt lat="43.01041" lon="0.19287">
        <ele>852.8</ele>
        <time>2023-11-19T15:28:26Z</time>
      </trkpt>
      <trkpt lat="43.01041" lon="0.19286">
        <ele>852.7</ele>
        <time>2023-11-19T15:28:27Z</time>
      </trkpt>
      <trkpt lat="43.01041" lon="0.19284">
        <ele>852.5</ele>
        <time>2023-11-19T15:28:28Z</time>
      </trkpt>
      <trkpt lat="43.01041" lon="0.19282">
        <ele>852.2</ele>
        <time>2023-11-19T15:28:29Z</time>
      </trkpt>
      <trkpt lat="43.01041" lon="0.19281">
        <ele>852</ele>
        <time>2023-11-19T15:28:30Z</time>
      </trkpt>
      <trkpt lat="43.01042" lon="0.19281">
        <ele>851.9</ele>
        <time>2023-11-19T15:28:31Z</time>
      </trkpt>
      <trkpt lat="43.01042" lon="0.1928">
        <ele>851.8</ele>
        <time>2023-11-19T15:28:32Z</time>
      </trkpt>
      <trkpt lat="43.01042" lon="0.19279">
        <ele>851.7</ele>
        <time>2023-11-19T15:28:33Z</time>
      </trkpt>
      <trkpt lat="43.01043" lon="0.19279">
        <ele>851.6</ele>
        <time>2023-11-19T15:28:34Z</time>
      </trkpt>
      <trkpt lat="43.01043" lon="0.19278">
        <ele>851.5</ele>
        <time>2023-11-19T15:28:35Z</time>
      </trkpt>
      <trkpt lat="43.01043" lon="0.19278">
        <ele>851.4</ele>
        <time>2023-11-19T15:28:36Z</time>
      </trkpt>
      <trkpt lat="43.01043" lon="0.19277">
        <ele>851.3</ele>
        <time>2023-11-19T15:28:37Z</time>
      </trkpt>
      <trkpt lat="43.01043" lon="0.19275">
        <ele>851</ele>
        <time>2023-11-19T15:28:38Z</time>
      </trkpt>
      <trkpt lat="43.01044" lon="0.19275">
        <ele>850.9</ele>
        <time>2023-11-19T15:28:39Z</time>
      </trkpt>
      <trkpt lat="43.01044" lon="0.19273">
        <ele>850.7</ele>
        <time>2023-11-19T15:28:40Z</time>
      </trkpt>
      <trkpt lat="43.01044" lon="0.19273">
        <ele>850.6</ele>
        <time>2023-11-19T15:28:41Z</time>
      </trkpt>
      <trkpt lat="43.01044" lon="0.19272">
        <ele>850.5</ele>
        <time>2023-11-19T15:28:42Z</time>
      </trkpt>
      <trkpt lat="43.01045" lon="0.19271">
        <ele>850.4</ele>
        <time>2023-11-19T15:28:43Z</time>
      </trkpt>
      <trkpt lat="43.01045" lon="0.19272">
        <ele>850.3</ele>
        <time>2023-11-19T15:28:44Z</time>
      </trkpt>
      <trkpt lat="43.01045" lon="0.19271">
        <ele>850.1</ele>
        <time>2023-11-19T15:28:45Z</time>
      </trkpt>
      <trkpt lat="43.01046" lon="0.1927">
        <ele>850</ele>
        <time>2023-11-19T15:28:46Z</time>
      </trkpt>
      <trkpt lat="43.01046" lon="0.19269">
        <ele>849.9</ele>
        <time>2023-11-19T15:28:47Z</time>
      </trkpt>
      <trkpt lat="43.01046" lon="0.19268">
        <ele>849.7</ele>
        <time>2023-11-19T15:28:48Z</time>
      </trkpt>
      <trkpt lat="43.01047" lon="0.19267">
        <ele>849.5</ele>
        <time>2023-11-19T15:28:49Z</time>
      </trkpt>
      <trkpt lat="43.01047" lon="0.19266">
        <ele>849.4</ele>
        <time>2023-11-19T15:28:50Z</time>
      </trkpt>
      <trkpt lat="43.01048" lon="0.19265">
        <ele>849.2</ele>
        <time>2023-11-19T15:28:51Z</time>
      </trkpt>
      <trkpt lat="43.01048" lon="0.19264">
        <ele>849.1</ele>
        <time>2023-11-19T15:28:52Z</time>
      </trkpt>
      <trkpt lat="43.01049" lon="0.19263">
        <ele>848.9</ele>
        <time>2023-11-19T15:28:53Z</time>
      </trkpt>
      <trkpt lat="43.01049" lon="0.19262">
        <ele>848.7</ele>
        <time>2023-11-19T15:28:54Z</time>
      </trkpt>
      <trkpt lat="43.01049" lon="0.19261">
        <ele>848.6</ele>
        <time>2023-11-19T15:28:55Z</time>
      </trkpt>
      <trkpt lat="43.01049" lon="0.1926">
        <ele>848.5</ele>
        <time>2023-11-19T15:28:56Z</time>
      </trkpt>
      <trkpt lat="43.0105" lon="0.19259">
        <ele>848.4</ele>
        <time>2023-11-19T15:28:57Z</time>
      </trkpt>
      <trkpt lat="43.0105" lon="0.19259">
        <ele>848.3</ele>
        <time>2023-11-19T15:28:58Z</time>
      </trkpt>
      <trkpt lat="43.0105" lon="0.19258">
        <ele>848.1</ele>
        <time>2023-11-19T15:28:59Z</time>
      </trkpt>
      <trkpt lat="43.01051" lon="0.19258">
        <ele>848</ele>
        <time>2023-11-19T15:29:00Z</time>
      </trkpt>
      <trkpt lat="43.01052" lon="0.19257">
        <ele>847.7</ele>
        <time>2023-11-19T15:29:01Z</time>
      </trkpt>
      <trkpt lat="43.01053" lon="0.19256">
        <ele>847.5</ele>
        <time>2023-11-19T15:29:02Z</time>
      </trkpt>
      <trkpt lat="43.01053" lon="0.19255">
        <ele>847.4</ele>
        <time>2023-11-19T15:29:03Z</time>
      </trkpt>
      <trkpt lat="43.01053" lon="0.19254">
        <ele>847.3</ele>
        <time>2023-11-19T15:29:04Z</time>
      </trkpt>
      <trkpt lat="43.01053" lon="0.19253">
        <ele>847.2</ele>
        <time>2023-11-19T15:29:05Z</time>
      </trkpt>
      <trkpt lat="43.01053" lon="0.19252">
        <ele>847</ele>
        <time>2023-11-19T15:29:06Z</time>
      </trkpt>
      <trkpt lat="43.01053" lon="0.19252">
        <ele>846.9</ele>
        <time>2023-11-19T15:29:07Z</time>
      </trkpt>
      <trkpt lat="43.01054" lon="0.19249">
        <ele>846.6</ele>
        <time>2023-11-19T15:29:08Z</time>
      </trkpt>
      <trkpt lat="43.01054" lon="0.19248">
        <ele>846.4</ele>
        <time>2023-11-19T15:29:09Z</time>
      </trkpt>
      <trkpt lat="43.01055" lon="0.19247">
        <ele>846.1</ele>
        <time>2023-11-19T15:29:10Z</time>
      </trkpt>
      <trkpt lat="43.01056" lon="0.19246">
        <ele>846</ele>
        <time>2023-11-19T15:29:11Z</time>
      </trkpt>
      <trkpt lat="43.01056" lon="0.19243">
        <ele>845.5</ele>
        <time>2023-11-19T15:29:12Z</time>
      </trkpt>
      <trkpt lat="43.01057" lon="0.19241">
        <ele>845.3</ele>
        <time>2023-11-19T15:29:13Z</time>
      </trkpt>
      <trkpt lat="43.01058" lon="0.19239">
        <ele>845</ele>
        <time>2023-11-19T15:29:14Z</time>
      </trkpt>
      <trkpt lat="43.01058" lon="0.19239">
        <ele>845</ele>
        <time>2023-11-19T15:29:15Z</time>
      </trkpt>
      <trkpt lat="43.01058" lon="0.19238">
        <ele>844.8</ele>
        <time>2023-11-19T15:29:16Z</time>
      </trkpt>
      <trkpt lat="43.01058" lon="0.19237">
        <ele>844.7</ele>
        <time>2023-11-19T15:29:17Z</time>
      </trkpt>
      <trkpt lat="43.01058" lon="0.19237">
        <ele>844.5</ele>
        <time>2023-11-19T15:29:18Z</time>
      </trkpt>
      <trkpt lat="43.01058" lon="0.19236">
        <ele>844.4</ele>
        <time>2023-11-19T15:29:19Z</time>
      </trkpt>
      <trkpt lat="43.01058" lon="0.19235">
        <ele>844.3</ele>
        <time>2023-11-19T15:29:20Z</time>
      </trkpt>
      <trkpt lat="43.0106" lon="0.1923">
        <ele>843.5</ele>
        <time>2023-11-19T15:29:21Z</time>
      </trkpt>
      <trkpt lat="43.0106" lon="0.1923">
        <ele>843.5</ele>
        <time>2023-11-19T15:29:22Z</time>
      </trkpt>
      <trkpt lat="43.01061" lon="0.19229">
        <ele>843.2</ele>
        <time>2023-11-19T15:29:23Z</time>
      </trkpt>
      <trkpt lat="43.01061" lon="0.19229">
        <ele>843.2</ele>
        <time>2023-11-19T15:29:24Z</time>
      </trkpt>
      <trkpt lat="43.01061" lon="0.19229">
        <ele>843.1</ele>
        <time>2023-11-19T15:29:25Z</time>
      </trkpt>
      <trkpt lat="43.01061" lon="0.19226">
        <ele>842.8</ele>
        <time>2023-11-19T15:29:26Z</time>
      </trkpt>
      <trkpt lat="43.01061" lon="0.19225">
        <ele>842.6</ele>
        <time>2023-11-19T15:29:27Z</time>
      </trkpt>
      <trkpt lat="43.0106" lon="0.19224">
        <ele>842.5</ele>
        <time>2023-11-19T15:29:28Z</time>
      </trkpt>
      <trkpt lat="43.0106" lon="0.19224">
        <ele>842.5</ele>
        <time>2023-11-19T15:29:29Z</time>
      </trkpt>
      <trkpt lat="43.0106" lon="0.19223">
        <ele>842.4</ele>
        <time>2023-11-19T15:29:30Z</time>
      </trkpt>
      <trkpt lat="43.0106" lon="0.19223">
        <ele>842.3</ele>
        <time>2023-11-19T15:29:31Z</time>
      </trkpt>
      <trkpt lat="43.0106" lon="0.19222">
        <ele>842.2</ele>
        <time>2023-11-19T15:29:32Z</time>
      </trkpt>
      <trkpt lat="43.0106" lon="0.19221">
        <ele>842.2</ele>
        <time>2023-11-19T15:29:33Z</time>
      </trkpt>
      <trkpt lat="43.0106" lon="0.19221">
        <ele>842.1</ele>
        <time>2023-11-19T15:29:34Z</time>
      </trkpt>
      <trkpt lat="43.01061" lon="0.19221">
        <ele>841.9</ele>
        <time>2023-11-19T15:29:35Z</time>
      </trkpt>
      <trkpt lat="43.01061" lon="0.1922">
        <ele>841.8</ele>
        <time>2023-11-19T15:29:36Z</time>
      </trkpt>
      <trkpt lat="43.01061" lon="0.19217">
        <ele>841.4</ele>
        <time>2023-11-19T15:29:37Z</time>
      </trkpt>
      <trkpt lat="43.01062" lon="0.19217">
        <ele>841.3</ele>
        <time>2023-11-19T15:29:38Z</time>
      </trkpt>
      <trkpt lat="43.01063" lon="0.19215">
        <ele>841</ele>
        <time>2023-11-19T15:29:39Z</time>
      </trkpt>
      <trkpt lat="43.01063" lon="0.19214">
        <ele>840.8</ele>
        <time>2023-11-19T15:29:40Z</time>
      </trkpt>
      <trkpt lat="43.01064" lon="0.19212">
        <ele>840.5</ele>
        <time>2023-11-19T15:29:41Z</time>
      </trkpt>
      <trkpt lat="43.01064" lon="0.19212">
        <ele>840.4</ele>
        <time>2023-11-19T15:29:42Z</time>
      </trkpt>
      <trkpt lat="43.01063" lon="0.19209">
        <ele>840.1</ele>
        <time>2023-11-19T15:29:43Z</time>
      </trkpt>
      <trkpt lat="43.01065" lon="0.19206">
        <ele>839.7</ele>
        <time>2023-11-19T15:29:44Z</time>
      </trkpt>
      <trkpt lat="43.01065" lon="0.19204">
        <ele>839.4</ele>
        <time>2023-11-19T15:29:45Z</time>
      </trkpt>
      <trkpt lat="43.01065" lon="0.19203">
        <ele>839.3</ele>
        <time>2023-11-19T15:29:46Z</time>
      </trkpt>
      <trkpt lat="43.01065" lon="0.19203">
        <ele>839.2</ele>
        <time>2023-11-19T15:29:47Z</time>
      </trkpt>
      <trkpt lat="43.01066" lon="0.19202">
        <ele>839.1</ele>
        <time>2023-11-19T15:29:48Z</time>
      </trkpt>
      <trkpt lat="43.01066" lon="0.19201">
        <ele>839</ele>
        <time>2023-11-19T15:29:49Z</time>
      </trkpt>
      <trkpt lat="43.01067" lon="0.19199">
        <ele>838.7</ele>
        <time>2023-11-19T15:29:50Z</time>
      </trkpt>
      <trkpt lat="43.01067" lon="0.19198">
        <ele>838.6</ele>
        <time>2023-11-19T15:29:51Z</time>
      </trkpt>
      <trkpt lat="43.01068" lon="0.19196">
        <ele>838.4</ele>
        <time>2023-11-19T15:29:52Z</time>
      </trkpt>
      <trkpt lat="43.01068" lon="0.19195">
        <ele>838.2</ele>
        <time>2023-11-19T15:29:53Z</time>
      </trkpt>
      <trkpt lat="43.01068" lon="0.19194">
        <ele>838.2</ele>
        <time>2023-11-19T15:29:54Z</time>
      </trkpt>
      <trkpt lat="43.01069" lon="0.19193">
        <ele>838.1</ele>
        <time>2023-11-19T15:29:55Z</time>
      </trkpt>
      <trkpt lat="43.01068" lon="0.19192">
        <ele>838.1</ele>
        <time>2023-11-19T15:29:56Z</time>
      </trkpt>
      <trkpt lat="43.01068" lon="0.19191">
        <ele>838</ele>
        <time>2023-11-19T15:29:57Z</time>
      </trkpt>
      <trkpt lat="43.01068" lon="0.19191">
        <ele>838</ele>
        <time>2023-11-19T15:29:58Z</time>
      </trkpt>
      <trkpt lat="43.01068" lon="0.19191">
        <ele>837.9</ele>
        <time>2023-11-19T15:29:59Z</time>
      </trkpt>
      <trkpt lat="43.01068" lon="0.19191">
        <ele>837.9</ele>
        <time>2023-11-19T15:30:00Z</time>
      </trkpt>
      <trkpt lat="43.01069" lon="0.1919">
        <ele>837.9</ele>
        <time>2023-11-19T15:30:01Z</time>
      </trkpt>
      <trkpt lat="43.0107" lon="0.19189">
        <ele>837.8</ele>
        <time>2023-11-19T15:30:02Z</time>
      </trkpt>
      <trkpt lat="43.01071" lon="0.19189">
        <ele>837.7</ele>
        <time>2023-11-19T15:30:03Z</time>
      </trkpt>
      <trkpt lat="43.01072" lon="0.19188">
        <ele>837.6</ele>
        <time>2023-11-19T15:30:04Z</time>
      </trkpt>
      <trkpt lat="43.01071" lon="0.19188">
        <ele>837.6</ele>
        <time>2023-11-19T15:30:05Z</time>
      </trkpt>
      <trkpt lat="43.01071" lon="0.19188">
        <ele>837.6</ele>
        <time>2023-11-19T15:30:06Z</time>
      </trkpt>
      <trkpt lat="43.01071" lon="0.19188">
        <ele>837.6</ele>
        <time>2023-11-19T15:30:07Z</time>
      </trkpt>
      <trkpt lat="43.01071" lon="0.19188">
        <ele>837.5</ele>
        <time>2023-11-19T15:30:08Z</time>
      </trkpt>
      <trkpt lat="43.01071" lon="0.19188">
        <ele>837.5</ele>
        <time>2023-11-19T15:30:09Z</time>
      </trkpt>
      <trkpt lat="43.01073" lon="0.19187">
        <ele>837.4</ele>
        <time>2023-11-19T15:30:10Z</time>
      </trkpt>
      <trkpt lat="43.01074" lon="0.19186">
        <ele>837.3</ele>
        <time>2023-11-19T15:30:11Z</time>
      </trkpt>
      <trkpt lat="43.01075" lon="0.19185">
        <ele>837.2</ele>
        <time>2023-11-19T15:30:12Z</time>
      </trkpt>
      <trkpt lat="43.01075" lon="0.19184">
        <ele>837.1</ele>
        <time>2023-11-19T15:30:13Z</time>
      </trkpt>
      <trkpt lat="43.01076" lon="0.19183">
        <ele>837</ele>
        <time>2023-11-19T15:30:14Z</time>
      </trkpt>
      <trkpt lat="43.01077" lon="0.19182">
        <ele>836.9</ele>
        <time>2023-11-19T15:30:15Z</time>
      </trkpt>
      <trkpt lat="43.01078" lon="0.19181">
        <ele>836.9</ele>
        <time>2023-11-19T15:30:16Z</time>
      </trkpt>
      <trkpt lat="43.01079" lon="0.19179">
        <ele>836.8</ele>
        <time>2023-11-19T15:30:17Z</time>
      </trkpt>
      <trkpt lat="43.01079" lon="0.19178">
        <ele>836.7</ele>
        <time>2023-11-19T15:30:18Z</time>
      </trkpt>
      <trkpt lat="43.0108" lon="0.19177">
        <ele>836.7</ele>
        <time>2023-11-19T15:30:19Z</time>
      </trkpt>
      <trkpt lat="43.0108" lon="0.19177">
        <ele>836.6</ele>
        <time>2023-11-19T15:30:20Z</time>
      </trkpt>
      <trkpt lat="43.01081" lon="0.19175">
        <ele>836.5</ele>
        <time>2023-11-19T15:30:21Z</time>
      </trkpt>
      <trkpt lat="43.01081" lon="0.19174">
        <ele>836.5</ele>
        <time>2023-11-19T15:30:22Z</time>
      </trkpt>
      <trkpt lat="43.01082" lon="0.19173">
        <ele>836.4</ele>
        <time>2023-11-19T15:30:23Z</time>
      </trkpt>
      <trkpt lat="43.01082" lon="0.19171">
        <ele>836.3</ele>
        <time>2023-11-19T15:30:24Z</time>
      </trkpt>
      <trkpt lat="43.01083" lon="0.19169">
        <ele>836.2</ele>
        <time>2023-11-19T15:30:25Z</time>
      </trkpt>
      <trkpt lat="43.01084" lon="0.19168">
        <ele>836.1</ele>
        <time>2023-11-19T15:30:26Z</time>
      </trkpt>
      <trkpt lat="43.01084" lon="0.19168">
        <ele>836.1</ele>
        <time>2023-11-19T15:30:27Z</time>
      </trkpt>
      <trkpt lat="43.01084" lon="0.19167">
        <ele>836</ele>
        <time>2023-11-19T15:30:28Z</time>
      </trkpt>
      <trkpt lat="43.01085" lon="0.19166">
        <ele>835.9</ele>
        <time>2023-11-19T15:30:29Z</time>
      </trkpt>
      <trkpt lat="43.01086" lon="0.19165">
        <ele>835.8</ele>
        <time>2023-11-19T15:30:30Z</time>
      </trkpt>
      <trkpt lat="43.01087" lon="0.19163">
        <ele>835.7</ele>
        <time>2023-11-19T15:30:31Z</time>
      </trkpt>
      <trkpt lat="43.01088" lon="0.19163">
        <ele>835.6</ele>
        <time>2023-11-19T15:30:32Z</time>
      </trkpt>
      <trkpt lat="43.01088" lon="0.19162">
        <ele>835.6</ele>
        <time>2023-11-19T15:30:33Z</time>
      </trkpt>
      <trkpt lat="43.01089" lon="0.1916">
        <ele>835.5</ele>
        <time>2023-11-19T15:30:34Z</time>
      </trkpt>
      <trkpt lat="43.0109" lon="0.19159">
        <ele>835.4</ele>
        <time>2023-11-19T15:30:35Z</time>
      </trkpt>
      <trkpt lat="43.0109" lon="0.19158">
        <ele>835.3</ele>
        <time>2023-11-19T15:30:36Z</time>
      </trkpt>
      <trkpt lat="43.0109" lon="0.19157">
        <ele>835.2</ele>
        <time>2023-11-19T15:30:37Z</time>
      </trkpt>
      <trkpt lat="43.01091" lon="0.19157">
        <ele>835.2</ele>
        <time>2023-11-19T15:30:38Z</time>
      </trkpt>
      <trkpt lat="43.01091" lon="0.19158">
        <ele>835.2</ele>
        <time>2023-11-19T15:30:39Z</time>
      </trkpt>
      <trkpt lat="43.01091" lon="0.19158">
        <ele>835.1</ele>
        <time>2023-11-19T15:30:40Z</time>
      </trkpt>
      <trkpt lat="43.01091" lon="0.19159">
        <ele>835.1</ele>
        <time>2023-11-19T15:30:41Z</time>
      </trkpt>
      <trkpt lat="43.01092" lon="0.19159">
        <ele>835.1</ele>
        <time>2023-11-19T15:30:42Z</time>
      </trkpt>
      <trkpt lat="43.01092" lon="0.19159">
        <ele>835.1</ele>
        <time>2023-11-19T15:30:43Z</time>
      </trkpt>
      <trkpt lat="43.01092" lon="0.19159">
        <ele>835.1</ele>
        <time>2023-11-19T15:30:44Z</time>
      </trkpt>
      <trkpt lat="43.01091" lon="0.19159">
        <ele>835</ele>
        <time>2023-11-19T15:30:45Z</time>
      </trkpt>
      <trkpt lat="43.01093" lon="0.1916">
        <ele>834.9</ele>
        <time>2023-11-19T15:30:46Z</time>
      </trkpt>
      <trkpt lat="43.01092" lon="0.1916">
        <ele>834.8</ele>
        <time>2023-11-19T15:30:47Z</time>
      </trkpt>
      <trkpt lat="43.01092" lon="0.19158">
        <ele>834.7</ele>
        <time>2023-11-19T15:30:48Z</time>
      </trkpt>
      <trkpt lat="43.01092" lon="0.19158">
        <ele>834.6</ele>
        <time>2023-11-19T15:30:49Z</time>
      </trkpt>
      <trkpt lat="43.01092" lon="0.19158">
        <ele>834.6</ele>
        <time>2023-11-19T15:30:50Z</time>
      </trkpt>
      <trkpt lat="43.01092" lon="0.19159">
        <ele>834.5</ele>
        <time>2023-11-19T15:30:51Z</time>
      </trkpt>
      <trkpt lat="43.01091" lon="0.19159">
        <ele>834.5</ele>
        <time>2023-11-19T15:30:52Z</time>
      </trkpt>
      <trkpt lat="43.01091" lon="0.19159">
        <ele>834.5</ele>
        <time>2023-11-19T15:30:53Z</time>
      </trkpt>
      <trkpt lat="43.01091" lon="0.19159">
        <ele>834.5</ele>
        <time>2023-11-19T15:30:54Z</time>
      </trkpt>
      <trkpt lat="43.01091" lon="0.19159">
        <ele>834.4</ele>
        <time>2023-11-19T15:30:55Z</time>
      </trkpt>
      <trkpt lat="43.01091" lon="0.1916">
        <ele>834.4</ele>
        <time>2023-11-19T15:30:56Z</time>
      </trkpt>
      <trkpt lat="43.01091" lon="0.19159">
        <ele>834.3</ele>
        <time>2023-11-19T15:30:57Z</time>
      </trkpt>
      <trkpt lat="43.01091" lon="0.19159">
        <ele>834.3</ele>
        <time>2023-11-19T15:30:58Z</time>
      </trkpt>
      <trkpt lat="43.01092" lon="0.19158">
        <ele>834.2</ele>
        <time>2023-11-19T15:30:59Z</time>
      </trkpt>
      <trkpt lat="43.01092" lon="0.19158">
        <ele>834.2</ele>
        <time>2023-11-19T15:31:00Z</time>
      </trkpt>
      <trkpt lat="43.01092" lon="0.19158">
        <ele>834.2</ele>
        <time>2023-11-19T15:31:01Z</time>
      </trkpt>
      <trkpt lat="43.01091" lon="0.19159">
        <ele>834.1</ele>
        <time>2023-11-19T15:31:02Z</time>
      </trkpt>
      <trkpt lat="43.01091" lon="0.19159">
        <ele>834.1</ele>
        <time>2023-11-19T15:31:03Z</time>
      </trkpt>
      <trkpt lat="43.01091" lon="0.19159">
        <ele>834.1</ele>
        <time>2023-11-19T15:31:04Z</time>
      </trkpt>
      <trkpt lat="43.01091" lon="0.19159">
        <ele>834.1</ele>
        <time>2023-11-19T15:31:05Z</time>
      </trkpt>
      <trkpt lat="43.01091" lon="0.19159">
        <ele>834</ele>
        <time>2023-11-19T15:31:06Z</time>
      </trkpt>
      <trkpt lat="43.01091" lon="0.19159">
        <ele>834</ele>
        <time>2023-11-19T15:31:07Z</time>
      </trkpt>
      <trkpt lat="43.01091" lon="0.19159">
        <ele>833.9</ele>
        <time>2023-11-19T15:31:08Z</time>
      </trkpt>
      <trkpt lat="43.01091" lon="0.19159">
        <ele>833.9</ele>
        <time>2023-11-19T15:31:09Z</time>
      </trkpt>
      <trkpt lat="43.01091" lon="0.19159">
        <ele>833.9</ele>
        <time>2023-11-19T15:31:10Z</time>
      </trkpt>
      <trkpt lat="43.01092" lon="0.19159">
        <ele>833.9</ele>
        <time>2023-11-19T15:31:11Z</time>
      </trkpt>
      <trkpt lat="43.01092" lon="0.19159">
        <ele>833.8</ele>
        <time>2023-11-19T15:31:12Z</time>
      </trkpt>
      <trkpt lat="43.01092" lon="0.19159">
        <ele>833.8</ele>
        <time>2023-11-19T15:31:13Z</time>
      </trkpt>
      <trkpt lat="43.01092" lon="0.19159">
        <ele>833.8</ele>
        <time>2023-11-19T15:31:14Z</time>
      </trkpt>
      <trkpt lat="43.01092" lon="0.1916">
        <ele>833.8</ele>
        <time>2023-11-19T15:31:15Z</time>
      </trkpt>
      <trkpt lat="43.01092" lon="0.1916">
        <ele>833.8</ele>
        <time>2023-11-19T15:31:16Z</time>
      </trkpt>
      <trkpt lat="43.01092" lon="0.1916">
        <ele>833.8</ele>
        <time>2023-11-19T15:31:17Z</time>
      </trkpt>
      <trkpt lat="43.01092" lon="0.1916">
        <ele>833.7</ele>
        <time>2023-11-19T15:31:18Z</time>
      </trkpt>
      <trkpt lat="43.01092" lon="0.1916">
        <ele>833.7</ele>
        <time>2023-11-19T15:31:19Z</time>
      </trkpt>
      <trkpt lat="43.01092" lon="0.1916">
        <ele>833.7</ele>
        <time>2023-11-19T15:31:20Z</time>
      </trkpt>
      <trkpt lat="43.01092" lon="0.1916">
        <ele>833.6</ele>
        <time>2023-11-19T15:31:21Z</time>
      </trkpt>
      <trkpt lat="43.01093" lon="0.1916">
        <ele>833.6</ele>
        <time>2023-11-19T15:31:22Z</time>
      </trkpt>
      <trkpt lat="43.01092" lon="0.1916">
        <ele>833.6</ele>
        <time>2023-11-19T15:31:23Z</time>
      </trkpt>
      <trkpt lat="43.01092" lon="0.19159">
        <ele>833.5</ele>
        <time>2023-11-19T15:31:24Z</time>
      </trkpt>
      <trkpt lat="43.01092" lon="0.1916">
        <ele>833.4</ele>
        <time>2023-11-19T15:31:25Z</time>
      </trkpt>
      <trkpt lat="43.01091" lon="0.1916">
        <ele>833.4</ele>
        <time>2023-11-19T15:31:26Z</time>
      </trkpt>
      <trkpt lat="43.01092" lon="0.19159">
        <ele>833.3</ele>
        <time>2023-11-19T15:31:27Z</time>
      </trkpt>
      <trkpt lat="43.01092" lon="0.19159">
        <ele>833.2</ele>
        <time>2023-11-19T15:31:28Z</time>
      </trkpt>
      <trkpt lat="43.01091" lon="0.19159">
        <ele>833.1</ele>
        <time>2023-11-19T15:31:29Z</time>
      </trkpt>
      <trkpt lat="43.01091" lon="0.19159">
        <ele>833.1</ele>
        <time>2023-11-19T15:31:30Z</time>
      </trkpt>
      <trkpt lat="43.01092" lon="0.19159">
        <ele>833</ele>
        <time>2023-11-19T15:31:31Z</time>
      </trkpt>
      <trkpt lat="43.01091" lon="0.19159">
        <ele>833</ele>
        <time>2023-11-19T15:31:32Z</time>
      </trkpt>
      <trkpt lat="43.01091" lon="0.19159">
        <ele>832.9</ele>
        <time>2023-11-19T15:31:33Z</time>
      </trkpt>
      <trkpt lat="43.01091" lon="0.19158">
        <ele>832.9</ele>
        <time>2023-11-19T15:31:34Z</time>
      </trkpt>
      <trkpt lat="43.01094" lon="0.19156">
        <ele>832.4</ele>
        <time>2023-11-19T15:31:35Z</time>
      </trkpt>
      <trkpt lat="43.01093" lon="0.19155">
        <ele>832.3</ele>
        <time>2023-11-19T15:31:36Z</time>
      </trkpt>
      <trkpt lat="43.01093" lon="0.19154">
        <ele>832.2</ele>
        <time>2023-11-19T15:31:37Z</time>
      </trkpt>
      <trkpt lat="43.01093" lon="0.19153">
        <ele>832</ele>
        <time>2023-11-19T15:31:38Z</time>
      </trkpt>
      <trkpt lat="43.01094" lon="0.19152">
        <ele>831.9</ele>
        <time>2023-11-19T15:31:39Z</time>
      </trkpt>
      <trkpt lat="43.01095" lon="0.19152">
        <ele>831.8</ele>
        <time>2023-11-19T15:31:40Z</time>
      </trkpt>
      <trkpt lat="43.01095" lon="0.19151">
        <ele>831.7</ele>
        <time>2023-11-19T15:31:41Z</time>
      </trkpt>
      <trkpt lat="43.01096" lon="0.19151">
        <ele>831.6</ele>
        <time>2023-11-19T15:31:42Z</time>
      </trkpt>
      <trkpt lat="43.01097" lon="0.19151">
        <ele>831.4</ele>
        <time>2023-11-19T15:31:43Z</time>
      </trkpt>
      <trkpt lat="43.01097" lon="0.19149">
        <ele>831.3</ele>
        <time>2023-11-19T15:31:44Z</time>
      </trkpt>
      <trkpt lat="43.01099" lon="0.19147">
        <ele>830.9</ele>
        <time>2023-11-19T15:31:45Z</time>
      </trkpt>
      <trkpt lat="43.01099" lon="0.19146">
        <ele>830.8</ele>
        <time>2023-11-19T15:31:46Z</time>
      </trkpt>
      <trkpt lat="43.011" lon="0.19145">
        <ele>830.6</ele>
        <time>2023-11-19T15:31:47Z</time>
      </trkpt>
      <trkpt lat="43.011" lon="0.19144">
        <ele>830.5</ele>
        <time>2023-11-19T15:31:48Z</time>
      </trkpt>
      <trkpt lat="43.011" lon="0.19142">
        <ele>830.3</ele>
        <time>2023-11-19T15:31:49Z</time>
      </trkpt>
      <trkpt lat="43.01101" lon="0.19142">
        <ele>830.3</ele>
        <time>2023-11-19T15:31:50Z</time>
      </trkpt>
      <trkpt lat="43.01101" lon="0.19142">
        <ele>830.2</ele>
        <time>2023-11-19T15:31:51Z</time>
      </trkpt>
      <trkpt lat="43.01101" lon="0.19141">
        <ele>830</ele>
        <time>2023-11-19T15:31:52Z</time>
      </trkpt>
      <trkpt lat="43.01102" lon="0.19138">
        <ele>829.7</ele>
        <time>2023-11-19T15:31:53Z</time>
      </trkpt>
      <trkpt lat="43.01103" lon="0.19137">
        <ele>829.6</ele>
        <time>2023-11-19T15:31:54Z</time>
      </trkpt>
      <trkpt lat="43.01103" lon="0.19136">
        <ele>829.5</ele>
        <time>2023-11-19T15:31:55Z</time>
      </trkpt>
      <trkpt lat="43.01105" lon="0.19133">
        <ele>829</ele>
        <time>2023-11-19T15:31:56Z</time>
      </trkpt>
      <trkpt lat="43.01105" lon="0.19132">
        <ele>828.9</ele>
        <time>2023-11-19T15:31:57Z</time>
      </trkpt>
      <trkpt lat="43.01106" lon="0.19131">
        <ele>828.8</ele>
        <time>2023-11-19T15:31:58Z</time>
      </trkpt>
      <trkpt lat="43.01106" lon="0.19131">
        <ele>828.6</ele>
        <time>2023-11-19T15:31:59Z</time>
      </trkpt>
      <trkpt lat="43.01107" lon="0.1913">
        <ele>828.5</ele>
        <time>2023-11-19T15:32:00Z</time>
      </trkpt>
      <trkpt lat="43.01107" lon="0.1913">
        <ele>828.4</ele>
        <time>2023-11-19T15:32:01Z</time>
      </trkpt>
      <trkpt lat="43.01107" lon="0.19129">
        <ele>828.3</ele>
        <time>2023-11-19T15:32:02Z</time>
      </trkpt>
      <trkpt lat="43.01107" lon="0.19128">
        <ele>828.2</ele>
        <time>2023-11-19T15:32:03Z</time>
      </trkpt>
      <trkpt lat="43.01106" lon="0.19128">
        <ele>828</ele>
        <time>2023-11-19T15:32:04Z</time>
      </trkpt>
      <trkpt lat="43.01106" lon="0.19126">
        <ele>827.9</ele>
        <time>2023-11-19T15:32:05Z</time>
      </trkpt>
      <trkpt lat="43.01106" lon="0.19126">
        <ele>827.8</ele>
        <time>2023-11-19T15:32:06Z</time>
      </trkpt>
      <trkpt lat="43.01106" lon="0.19125">
        <ele>827.7</ele>
        <time>2023-11-19T15:32:07Z</time>
      </trkpt>
      <trkpt lat="43.01105" lon="0.19126">
        <ele>827.5</ele>
        <time>2023-11-19T15:32:08Z</time>
      </trkpt>
      <trkpt lat="43.01105" lon="0.19126">
        <ele>827.5</ele>
        <time>2023-11-19T15:32:09Z</time>
      </trkpt>
      <trkpt lat="43.01105" lon="0.19126">
        <ele>827.4</ele>
        <time>2023-11-19T15:32:10Z</time>
      </trkpt>
      <trkpt lat="43.01105" lon="0.19125">
        <ele>827.3</ele>
        <time>2023-11-19T15:32:11Z</time>
      </trkpt>
      <trkpt lat="43.01108" lon="0.19123">
        <ele>826.9</ele>
        <time>2023-11-19T15:32:12Z</time>
      </trkpt>
      <trkpt lat="43.01109" lon="0.19121">
        <ele>826.7</ele>
        <time>2023-11-19T15:32:13Z</time>
      </trkpt>
      <trkpt lat="43.01109" lon="0.1912">
        <ele>826.5</ele>
        <time>2023-11-19T15:32:14Z</time>
      </trkpt>
      <trkpt lat="43.0111" lon="0.19119">
        <ele>826.3</ele>
        <time>2023-11-19T15:32:15Z</time>
      </trkpt>
      <trkpt lat="43.01111" lon="0.19118">
        <ele>826.1</ele>
        <time>2023-11-19T15:32:16Z</time>
      </trkpt>
      <trkpt lat="43.01112" lon="0.19118">
        <ele>826</ele>
        <time>2023-11-19T15:32:17Z</time>
      </trkpt>
      <trkpt lat="43.01113" lon="0.19117">
        <ele>825.8</ele>
        <time>2023-11-19T15:32:18Z</time>
      </trkpt>
      <trkpt lat="43.01114" lon="0.19116">
        <ele>825.7</ele>
        <time>2023-11-19T15:32:19Z</time>
      </trkpt>
      <trkpt lat="43.01114" lon="0.19115">
        <ele>825.5</ele>
        <time>2023-11-19T15:32:20Z</time>
      </trkpt>
      <trkpt lat="43.01114" lon="0.19113">
        <ele>825.4</ele>
        <time>2023-11-19T15:32:21Z</time>
      </trkpt>
      <trkpt lat="43.01114" lon="0.19112">
        <ele>825.2</ele>
        <time>2023-11-19T15:32:22Z</time>
      </trkpt>
      <trkpt lat="43.01114" lon="0.19111">
        <ele>825.1</ele>
        <time>2023-11-19T15:32:23Z</time>
      </trkpt>
      <trkpt lat="43.01115" lon="0.1911">
        <ele>825</ele>
        <time>2023-11-19T15:32:24Z</time>
      </trkpt>
      <trkpt lat="43.01115" lon="0.1911">
        <ele>824.9</ele>
        <time>2023-11-19T15:32:25Z</time>
      </trkpt>
      <trkpt lat="43.01115" lon="0.19109">
        <ele>824.8</ele>
        <time>2023-11-19T15:32:26Z</time>
      </trkpt>
      <trkpt lat="43.01115" lon="0.19108">
        <ele>824.7</ele>
        <time>2023-11-19T15:32:27Z</time>
      </trkpt>
      <trkpt lat="43.01116" lon="0.19107">
        <ele>824.5</ele>
        <time>2023-11-19T15:32:28Z</time>
      </trkpt>
      <trkpt lat="43.01116" lon="0.19106">
        <ele>824.3</ele>
        <time>2023-11-19T15:32:29Z</time>
      </trkpt>
      <trkpt lat="43.01116" lon="0.19103">
        <ele>824</ele>
        <time>2023-11-19T15:32:30Z</time>
      </trkpt>
      <trkpt lat="43.01118" lon="0.19102">
        <ele>823.7</ele>
        <time>2023-11-19T15:32:31Z</time>
      </trkpt>
      <trkpt lat="43.01119" lon="0.19101">
        <ele>823.6</ele>
        <time>2023-11-19T15:32:32Z</time>
      </trkpt>
      <trkpt lat="43.0112" lon="0.19101">
        <ele>823.4</ele>
        <time>2023-11-19T15:32:33Z</time>
      </trkpt>
      <trkpt lat="43.01121" lon="0.191">
        <ele>823.1</ele>
        <time>2023-11-19T15:32:34Z</time>
      </trkpt>
      <trkpt lat="43.01122" lon="0.19098">
        <ele>822.8</ele>
        <time>2023-11-19T15:32:35Z</time>
      </trkpt>
      <trkpt lat="43.01123" lon="0.19097">
        <ele>822.6</ele>
        <time>2023-11-19T15:32:36Z</time>
      </trkpt>
      <trkpt lat="43.01124" lon="0.19095">
        <ele>822.4</ele>
        <time>2023-11-19T15:32:37Z</time>
      </trkpt>
      <trkpt lat="43.01125" lon="0.19095">
        <ele>822.2</ele>
        <time>2023-11-19T15:32:38Z</time>
      </trkpt>
      <trkpt lat="43.01126" lon="0.19094">
        <ele>822</ele>
        <time>2023-11-19T15:32:39Z</time>
      </trkpt>
      <trkpt lat="43.01127" lon="0.19093">
        <ele>821.8</ele>
        <time>2023-11-19T15:32:40Z</time>
      </trkpt>
      <trkpt lat="43.01127" lon="0.19092">
        <ele>821.6</ele>
        <time>2023-11-19T15:32:41Z</time>
      </trkpt>
      <trkpt lat="43.01128" lon="0.19092">
        <ele>821.4</ele>
        <time>2023-11-19T15:32:42Z</time>
      </trkpt>
      <trkpt lat="43.01129" lon="0.19091">
        <ele>821.3</ele>
        <time>2023-11-19T15:32:43Z</time>
      </trkpt>
      <trkpt lat="43.01129" lon="0.1909">
        <ele>821.2</ele>
        <time>2023-11-19T15:32:44Z</time>
      </trkpt>
      <trkpt lat="43.01129" lon="0.19089">
        <ele>821</ele>
        <time>2023-11-19T15:32:45Z</time>
      </trkpt>
      <trkpt lat="43.0113" lon="0.19087">
        <ele>820.7</ele>
        <time>2023-11-19T15:32:46Z</time>
      </trkpt>
      <trkpt lat="43.01131" lon="0.19086">
        <ele>820.5</ele>
        <time>2023-11-19T15:32:47Z</time>
      </trkpt>
      <trkpt lat="43.01131" lon="0.19085">
        <ele>820.3</ele>
        <time>2023-11-19T15:32:48Z</time>
      </trkpt>
      <trkpt lat="43.01132" lon="0.19085">
        <ele>820.2</ele>
        <time>2023-11-19T15:32:49Z</time>
      </trkpt>
      <trkpt lat="43.01132" lon="0.19084">
        <ele>820.1</ele>
        <time>2023-11-19T15:32:50Z</time>
      </trkpt>
      <trkpt lat="43.01133" lon="0.19083">
        <ele>819.9</ele>
        <time>2023-11-19T15:32:51Z</time>
      </trkpt>
      <trkpt lat="43.01133" lon="0.19082">
        <ele>819.7</ele>
        <time>2023-11-19T15:32:52Z</time>
      </trkpt>
      <trkpt lat="43.01134" lon="0.19081">
        <ele>819.6</ele>
        <time>2023-11-19T15:32:53Z</time>
      </trkpt>
      <trkpt lat="43.01134" lon="0.1908">
        <ele>819.4</ele>
        <time>2023-11-19T15:32:54Z</time>
      </trkpt>
      <trkpt lat="43.01135" lon="0.19079">
        <ele>819.2</ele>
        <time>2023-11-19T15:32:55Z</time>
      </trkpt>
      <trkpt lat="43.01136" lon="0.19078">
        <ele>819.1</ele>
        <time>2023-11-19T15:32:56Z</time>
      </trkpt>
      <trkpt lat="43.01136" lon="0.19077">
        <ele>818.9</ele>
        <time>2023-11-19T15:32:57Z</time>
      </trkpt>
      <trkpt lat="43.01137" lon="0.19077">
        <ele>818.8</ele>
        <time>2023-11-19T15:32:58Z</time>
      </trkpt>
      <trkpt lat="43.01136" lon="0.19077">
        <ele>818.7</ele>
        <time>2023-11-19T15:32:59Z</time>
      </trkpt>
      <trkpt lat="43.01136" lon="0.19076">
        <ele>818.6</ele>
        <time>2023-11-19T15:33:00Z</time>
      </trkpt>
      <trkpt lat="43.01136" lon="0.19075">
        <ele>818.4</ele>
        <time>2023-11-19T15:33:01Z</time>
      </trkpt>
      <trkpt lat="43.01137" lon="0.19075">
        <ele>818.2</ele>
        <time>2023-11-19T15:33:02Z</time>
      </trkpt>
      <trkpt lat="43.01137" lon="0.19073">
        <ele>818</ele>
        <time>2023-11-19T15:33:03Z</time>
      </trkpt>
      <trkpt lat="43.01137" lon="0.19073">
        <ele>817.9</ele>
        <time>2023-11-19T15:33:04Z</time>
      </trkpt>
      <trkpt lat="43.01137" lon="0.19072">
        <ele>817.9</ele>
        <time>2023-11-19T15:33:05Z</time>
      </trkpt>
      <trkpt lat="43.01137" lon="0.19071">
        <ele>817.8</ele>
        <time>2023-11-19T15:33:06Z</time>
      </trkpt>
      <trkpt lat="43.01137" lon="0.19071">
        <ele>817.7</ele>
        <time>2023-11-19T15:33:07Z</time>
      </trkpt>
      <trkpt lat="43.01137" lon="0.1907">
        <ele>817.6</ele>
        <time>2023-11-19T15:33:08Z</time>
      </trkpt>
      <trkpt lat="43.01138" lon="0.1907">
        <ele>817.5</ele>
        <time>2023-11-19T15:33:09Z</time>
      </trkpt>
      <trkpt lat="43.01139" lon="0.19069">
        <ele>817.3</ele>
        <time>2023-11-19T15:33:10Z</time>
      </trkpt>
      <trkpt lat="43.01139" lon="0.19068">
        <ele>817.2</ele>
        <time>2023-11-19T15:33:11Z</time>
      </trkpt>
      <trkpt lat="43.0114" lon="0.19067">
        <ele>817.1</ele>
        <time>2023-11-19T15:33:12Z</time>
      </trkpt>
      <trkpt lat="43.0114" lon="0.19067">
        <ele>816.9</ele>
        <time>2023-11-19T15:33:13Z</time>
      </trkpt>
      <trkpt lat="43.0114" lon="0.19065">
        <ele>816.8</ele>
        <time>2023-11-19T15:33:14Z</time>
      </trkpt>
      <trkpt lat="43.01141" lon="0.19064">
        <ele>816.6</ele>
        <time>2023-11-19T15:33:15Z</time>
      </trkpt>
      <trkpt lat="43.01141" lon="0.19063">
        <ele>816.5</ele>
        <time>2023-11-19T15:33:16Z</time>
      </trkpt>
      <trkpt lat="43.01142" lon="0.19062">
        <ele>816.3</ele>
        <time>2023-11-19T15:33:17Z</time>
      </trkpt>
      <trkpt lat="43.01143" lon="0.19061">
        <ele>816.1</ele>
        <time>2023-11-19T15:33:18Z</time>
      </trkpt>
      <trkpt lat="43.01143" lon="0.1906">
        <ele>816</ele>
        <time>2023-11-19T15:33:19Z</time>
      </trkpt>
      <trkpt lat="43.01144" lon="0.19059">
        <ele>815.7</ele>
        <time>2023-11-19T15:33:20Z</time>
      </trkpt>
      <trkpt lat="43.01145" lon="0.19059">
        <ele>815.5</ele>
        <time>2023-11-19T15:33:21Z</time>
      </trkpt>
      <trkpt lat="43.01145" lon="0.19058">
        <ele>815.4</ele>
        <time>2023-11-19T15:33:22Z</time>
      </trkpt>
      <trkpt lat="43.01147" lon="0.19056">
        <ele>815.1</ele>
        <time>2023-11-19T15:33:23Z</time>
      </trkpt>
      <trkpt lat="43.01147" lon="0.19056">
        <ele>815</ele>
        <time>2023-11-19T15:33:24Z</time>
      </trkpt>
      <trkpt lat="43.01148" lon="0.19055">
        <ele>814.9</ele>
        <time>2023-11-19T15:33:25Z</time>
      </trkpt>
      <trkpt lat="43.01148" lon="0.19054">
        <ele>814.7</ele>
        <time>2023-11-19T15:33:26Z</time>
      </trkpt>
      <trkpt lat="43.01149" lon="0.19054">
        <ele>814.6</ele>
        <time>2023-11-19T15:33:27Z</time>
      </trkpt>
      <trkpt lat="43.0115" lon="0.19053">
        <ele>814.4</ele>
        <time>2023-11-19T15:33:28Z</time>
      </trkpt>
      <trkpt lat="43.01151" lon="0.19052">
        <ele>814.2</ele>
        <time>2023-11-19T15:33:29Z</time>
      </trkpt>
      <trkpt lat="43.01151" lon="0.19052">
        <ele>814.1</ele>
        <time>2023-11-19T15:33:30Z</time>
      </trkpt>
      <trkpt lat="43.01152" lon="0.1905">
        <ele>813.9</ele>
        <time>2023-11-19T15:33:31Z</time>
      </trkpt>
      <trkpt lat="43.01152" lon="0.19049">
        <ele>813.7</ele>
        <time>2023-11-19T15:33:32Z</time>
      </trkpt>
      <trkpt lat="43.01152" lon="0.19048">
        <ele>813.5</ele>
        <time>2023-11-19T15:33:33Z</time>
      </trkpt>
      <trkpt lat="43.01153" lon="0.19047">
        <ele>813.5</ele>
        <time>2023-11-19T15:33:34Z</time>
      </trkpt>
      <trkpt lat="43.01153" lon="0.19047">
        <ele>813.4</ele>
        <time>2023-11-19T15:33:35Z</time>
      </trkpt>
      <trkpt lat="43.01153" lon="0.19045">
        <ele>813.1</ele>
        <time>2023-11-19T15:33:36Z</time>
      </trkpt>
      <trkpt lat="43.01154" lon="0.19043">
        <ele>812.9</ele>
        <time>2023-11-19T15:33:37Z</time>
      </trkpt>
      <trkpt lat="43.01155" lon="0.19043">
        <ele>812.7</ele>
        <time>2023-11-19T15:33:38Z</time>
      </trkpt>
      <trkpt lat="43.01156" lon="0.19042">
        <ele>812.5</ele>
        <time>2023-11-19T15:33:39Z</time>
      </trkpt>
      <trkpt lat="43.01156" lon="0.19042">
        <ele>812.4</ele>
        <time>2023-11-19T15:33:40Z</time>
      </trkpt>
      <trkpt lat="43.01156" lon="0.19041">
        <ele>812.3</ele>
        <time>2023-11-19T15:33:41Z</time>
      </trkpt>
      <trkpt lat="43.01157" lon="0.1904">
        <ele>812.1</ele>
        <time>2023-11-19T15:33:42Z</time>
      </trkpt>
      <trkpt lat="43.01157" lon="0.19039">
        <ele>811.9</ele>
        <time>2023-11-19T15:33:43Z</time>
      </trkpt>
      <trkpt lat="43.01157" lon="0.19038">
        <ele>811.8</ele>
        <time>2023-11-19T15:33:44Z</time>
      </trkpt>
      <trkpt lat="43.01157" lon="0.19038">
        <ele>811.7</ele>
        <time>2023-11-19T15:33:45Z</time>
      </trkpt>
      <trkpt lat="43.01158" lon="0.19035">
        <ele>811.4</ele>
        <time>2023-11-19T15:33:46Z</time>
      </trkpt>
      <trkpt lat="43.01159" lon="0.19034">
        <ele>811.2</ele>
        <time>2023-11-19T15:33:47Z</time>
      </trkpt>
      <trkpt lat="43.01159" lon="0.19033">
        <ele>811.1</ele>
        <time>2023-11-19T15:33:48Z</time>
      </trkpt>
      <trkpt lat="43.0116" lon="0.19034">
        <ele>811</ele>
        <time>2023-11-19T15:33:49Z</time>
      </trkpt>
      <trkpt lat="43.01161" lon="0.19033">
        <ele>810.8</ele>
        <time>2023-11-19T15:33:50Z</time>
      </trkpt>
      <trkpt lat="43.01162" lon="0.19031">
        <ele>810.6</ele>
        <time>2023-11-19T15:33:51Z</time>
      </trkpt>
      <trkpt lat="43.01162" lon="0.1903">
        <ele>810.5</ele>
        <time>2023-11-19T15:33:52Z</time>
      </trkpt>
      <trkpt lat="43.01162" lon="0.1903">
        <ele>810.4</ele>
        <time>2023-11-19T15:33:53Z</time>
      </trkpt>
      <trkpt lat="43.01163" lon="0.19027">
        <ele>810.1</ele>
        <time>2023-11-19T15:33:54Z</time>
      </trkpt>
      <trkpt lat="43.01163" lon="0.19026">
        <ele>809.9</ele>
        <time>2023-11-19T15:33:55Z</time>
      </trkpt>
      <trkpt lat="43.01165" lon="0.19026">
        <ele>809.8</ele>
        <time>2023-11-19T15:33:56Z</time>
      </trkpt>
      <trkpt lat="43.01165" lon="0.19026">
        <ele>809.6</ele>
        <time>2023-11-19T15:33:57Z</time>
      </trkpt>
      <trkpt lat="43.01166" lon="0.19024">
        <ele>809.4</ele>
        <time>2023-11-19T15:33:58Z</time>
      </trkpt>
      <trkpt lat="43.01167" lon="0.19023">
        <ele>809.3</ele>
        <time>2023-11-19T15:33:59Z</time>
      </trkpt>
      <trkpt lat="43.01167" lon="0.19022">
        <ele>809.1</ele>
        <time>2023-11-19T15:34:00Z</time>
      </trkpt>
      <trkpt lat="43.01168" lon="0.19021">
        <ele>809</ele>
        <time>2023-11-19T15:34:01Z</time>
      </trkpt>
      <trkpt lat="43.01169" lon="0.1902">
        <ele>808.7</ele>
        <time>2023-11-19T15:34:02Z</time>
      </trkpt>
      <trkpt lat="43.01169" lon="0.19019">
        <ele>808.7</ele>
        <time>2023-11-19T15:34:03Z</time>
      </trkpt>
      <trkpt lat="43.0117" lon="0.19019">
        <ele>808.6</ele>
        <time>2023-11-19T15:34:04Z</time>
      </trkpt>
      <trkpt lat="43.0117" lon="0.19018">
        <ele>808.5</ele>
        <time>2023-11-19T15:34:05Z</time>
      </trkpt>
      <trkpt lat="43.0117" lon="0.19017">
        <ele>808.4</ele>
        <time>2023-11-19T15:34:06Z</time>
      </trkpt>
      <trkpt lat="43.01171" lon="0.19016">
        <ele>808.3</ele>
        <time>2023-11-19T15:34:07Z</time>
      </trkpt>
      <trkpt lat="43.01171" lon="0.19015">
        <ele>808</ele>
        <time>2023-11-19T15:34:08Z</time>
      </trkpt>
      <trkpt lat="43.01172" lon="0.19013">
        <ele>807.8</ele>
        <time>2023-11-19T15:34:09Z</time>
      </trkpt>
      <trkpt lat="43.01172" lon="0.19012">
        <ele>807.7</ele>
        <time>2023-11-19T15:34:10Z</time>
      </trkpt>
      <trkpt lat="43.01172" lon="0.19012">
        <ele>807.6</ele>
        <time>2023-11-19T15:34:11Z</time>
      </trkpt>
      <trkpt lat="43.01172" lon="0.19012">
        <ele>807.5</ele>
        <time>2023-11-19T15:34:12Z</time>
      </trkpt>
      <trkpt lat="43.01172" lon="0.19013">
        <ele>807.5</ele>
        <time>2023-11-19T15:34:13Z</time>
      </trkpt>
      <trkpt lat="43.01173" lon="0.19013">
        <ele>807.5</ele>
        <time>2023-11-19T15:34:14Z</time>
      </trkpt>
      <trkpt lat="43.01173" lon="0.19011">
        <ele>807.2</ele>
        <time>2023-11-19T15:34:15Z</time>
      </trkpt>
      <trkpt lat="43.01174" lon="0.19011">
        <ele>807.1</ele>
        <time>2023-11-19T15:34:16Z</time>
      </trkpt>
      <trkpt lat="43.01175" lon="0.1901">
        <ele>806.9</ele>
        <time>2023-11-19T15:34:17Z</time>
      </trkpt>
      <trkpt lat="43.01176" lon="0.19009">
        <ele>806.6</ele>
        <time>2023-11-19T15:34:18Z</time>
      </trkpt>
      <trkpt lat="43.01177" lon="0.19008">
        <ele>806.4</ele>
        <time>2023-11-19T15:34:19Z</time>
      </trkpt>
      <trkpt lat="43.01178" lon="0.19008">
        <ele>806.2</ele>
        <time>2023-11-19T15:34:20Z</time>
      </trkpt>
      <trkpt lat="43.01179" lon="0.19009">
        <ele>806.1</ele>
        <time>2023-11-19T15:34:21Z</time>
      </trkpt>
      <trkpt lat="43.01179" lon="0.19009">
        <ele>805.9</ele>
        <time>2023-11-19T15:34:22Z</time>
      </trkpt>
      <trkpt lat="43.0118" lon="0.19008">
        <ele>805.7</ele>
        <time>2023-11-19T15:34:23Z</time>
      </trkpt>
      <trkpt lat="43.01181" lon="0.19007">
        <ele>805.4</ele>
        <time>2023-11-19T15:34:25Z</time>
      </trkpt>
      <trkpt lat="43.01182" lon="0.19007">
        <ele>805.3</ele>
        <time>2023-11-19T15:34:26Z</time>
      </trkpt>
      <trkpt lat="43.01182" lon="0.19007">
        <ele>805.2</ele>
        <time>2023-11-19T15:34:27Z</time>
      </trkpt>
      <trkpt lat="43.01183" lon="0.19005">
        <ele>804.9</ele>
        <time>2023-11-19T15:34:28Z</time>
      </trkpt>
      <trkpt lat="43.01183" lon="0.19004">
        <ele>804.7</ele>
        <time>2023-11-19T15:34:29Z</time>
      </trkpt>
      <trkpt lat="43.01184" lon="0.19004">
        <ele>804.6</ele>
        <time>2023-11-19T15:34:30Z</time>
      </trkpt>
      <trkpt lat="43.01184" lon="0.19003">
        <ele>804.4</ele>
        <time>2023-11-19T15:34:31Z</time>
      </trkpt>
      <trkpt lat="43.01185" lon="0.19002">
        <ele>804.1</ele>
        <time>2023-11-19T15:34:32Z</time>
      </trkpt>
      <trkpt lat="43.01185" lon="0.19003">
        <ele>804.1</ele>
        <time>2023-11-19T15:34:33Z</time>
      </trkpt>
      <trkpt lat="43.01186" lon="0.19003">
        <ele>804</ele>
        <time>2023-11-19T15:34:34Z</time>
      </trkpt>
      <trkpt lat="43.01186" lon="0.19002">
        <ele>803.9</ele>
        <time>2023-11-19T15:34:35Z</time>
      </trkpt>
      <trkpt lat="43.01186" lon="0.19001">
        <ele>803.8</ele>
        <time>2023-11-19T15:34:37Z</time>
      </trkpt>
      <trkpt lat="43.01186" lon="0.19">
        <ele>803.6</ele>
        <time>2023-11-19T15:34:38Z</time>
      </trkpt>
      <trkpt lat="43.01186" lon="0.19">
        <ele>803.4</ele>
        <time>2023-11-19T15:34:39Z</time>
      </trkpt>
      <trkpt lat="43.01186" lon="0.18999">
        <ele>803.2</ele>
        <time>2023-11-19T15:34:40Z</time>
      </trkpt>
      <trkpt lat="43.01185" lon="0.18998">
        <ele>803</ele>
        <time>2023-11-19T15:34:41Z</time>
      </trkpt>
      <trkpt lat="43.01185" lon="0.18998">
        <ele>802.9</ele>
        <time>2023-11-19T15:34:42Z</time>
      </trkpt>
      <trkpt lat="43.01185" lon="0.18997">
        <ele>802.7</ele>
        <time>2023-11-19T15:34:43Z</time>
      </trkpt>
      <trkpt lat="43.01185" lon="0.18996">
        <ele>802.5</ele>
        <time>2023-11-19T15:34:44Z</time>
      </trkpt>
      <trkpt lat="43.01185" lon="0.18994">
        <ele>802.1</ele>
        <time>2023-11-19T15:34:45Z</time>
      </trkpt>
      <trkpt lat="43.01185" lon="0.18992">
        <ele>801.8</ele>
        <time>2023-11-19T15:34:46Z</time>
      </trkpt>
      <trkpt lat="43.01185" lon="0.18991">
        <ele>801.6</ele>
        <time>2023-11-19T15:34:47Z</time>
      </trkpt>
      <trkpt lat="43.01185" lon="0.18991">
        <ele>801.5</ele>
        <time>2023-11-19T15:34:48Z</time>
      </trkpt>
      <trkpt lat="43.01185" lon="0.1899">
        <ele>801.4</ele>
        <time>2023-11-19T15:34:49Z</time>
      </trkpt>
      <trkpt lat="43.01186" lon="0.18987">
        <ele>800.8</ele>
        <time>2023-11-19T15:34:50Z</time>
      </trkpt>
      <trkpt lat="43.01187" lon="0.18987">
        <ele>800.6</ele>
        <time>2023-11-19T15:34:51Z</time>
      </trkpt>
      <trkpt lat="43.01187" lon="0.18986">
        <ele>800.4</ele>
        <time>2023-11-19T15:34:52Z</time>
      </trkpt>
      <trkpt lat="43.01188" lon="0.18985">
        <ele>800.1</ele>
        <time>2023-11-19T15:34:53Z</time>
      </trkpt>
      <trkpt lat="43.01189" lon="0.18985">
        <ele>799.9</ele>
        <time>2023-11-19T15:34:54Z</time>
      </trkpt>
      <trkpt lat="43.01189" lon="0.18984">
        <ele>799.8</ele>
        <time>2023-11-19T15:34:55Z</time>
      </trkpt>
      <trkpt lat="43.01189" lon="0.18983">
        <ele>799.5</ele>
        <time>2023-11-19T15:34:56Z</time>
      </trkpt>
      <trkpt lat="43.01189" lon="0.18982">
        <ele>799.3</ele>
        <time>2023-11-19T15:34:57Z</time>
      </trkpt>
      <trkpt lat="43.01189" lon="0.1898">
        <ele>799</ele>
        <time>2023-11-19T15:34:58Z</time>
      </trkpt>
      <trkpt lat="43.0119" lon="0.18979">
        <ele>798.7</ele>
        <time>2023-11-19T15:34:59Z</time>
      </trkpt>
      <trkpt lat="43.0119" lon="0.18979">
        <ele>798.5</ele>
        <time>2023-11-19T15:35:00Z</time>
      </trkpt>
      <trkpt lat="43.01191" lon="0.18979">
        <ele>798.3</ele>
        <time>2023-11-19T15:35:01Z</time>
      </trkpt>
      <trkpt lat="43.01191" lon="0.18979">
        <ele>798.3</ele>
        <time>2023-11-19T15:35:02Z</time>
      </trkpt>
      <trkpt lat="43.01192" lon="0.18978">
        <ele>798</ele>
        <time>2023-11-19T15:35:03Z</time>
      </trkpt>
      <trkpt lat="43.01192" lon="0.18977">
        <ele>797.7</ele>
        <time>2023-11-19T15:35:04Z</time>
      </trkpt>
      <trkpt lat="43.01193" lon="0.18975">
        <ele>797.3</ele>
        <time>2023-11-19T15:35:05Z</time>
      </trkpt>
      <trkpt lat="43.01193" lon="0.18975">
        <ele>797.2</ele>
        <time>2023-11-19T15:35:06Z</time>
      </trkpt>
      <trkpt lat="43.01193" lon="0.18975">
        <ele>797.1</ele>
        <time>2023-11-19T15:35:07Z</time>
      </trkpt>
      <trkpt lat="43.01194" lon="0.18973">
        <ele>796.7</ele>
        <time>2023-11-19T15:35:08Z</time>
      </trkpt>
      <trkpt lat="43.01194" lon="0.18972">
        <ele>796.5</ele>
        <time>2023-11-19T15:35:09Z</time>
      </trkpt>
      <trkpt lat="43.01195" lon="0.18971">
        <ele>796.3</ele>
        <time>2023-11-19T15:35:10Z</time>
      </trkpt>
      <trkpt lat="43.01195" lon="0.18971">
        <ele>796.1</ele>
        <time>2023-11-19T15:35:11Z</time>
      </trkpt>
      <trkpt lat="43.01195" lon="0.1897">
        <ele>795.9</ele>
        <time>2023-11-19T15:35:12Z</time>
      </trkpt>
      <trkpt lat="43.01195" lon="0.18969">
        <ele>795.7</ele>
        <time>2023-11-19T15:35:13Z</time>
      </trkpt>
      <trkpt lat="43.01195" lon="0.18968">
        <ele>795.4</ele>
        <time>2023-11-19T15:35:14Z</time>
      </trkpt>
      <trkpt lat="43.01195" lon="0.18967">
        <ele>795.2</ele>
        <time>2023-11-19T15:35:15Z</time>
      </trkpt>
      <trkpt lat="43.01195" lon="0.18966">
        <ele>795.1</ele>
        <time>2023-11-19T15:35:16Z</time>
      </trkpt>
      <trkpt lat="43.01194" lon="0.18966">
        <ele>794.9</ele>
        <time>2023-11-19T15:35:17Z</time>
      </trkpt>
      <trkpt lat="43.01194" lon="0.18965">
        <ele>794.7</ele>
        <time>2023-11-19T15:35:18Z</time>
      </trkpt>
      <trkpt lat="43.01193" lon="0.18964">
        <ele>794.3</ele>
        <time>2023-11-19T15:35:19Z</time>
      </trkpt>
      <trkpt lat="43.01192" lon="0.18964">
        <ele>794.2</ele>
        <time>2023-11-19T15:35:20Z</time>
      </trkpt>
      <trkpt lat="43.01191" lon="0.18963">
        <ele>793.7</ele>
        <time>2023-11-19T15:35:21Z</time>
      </trkpt>
      <trkpt lat="43.0119" lon="0.18962">
        <ele>793.4</ele>
        <time>2023-11-19T15:35:22Z</time>
      </trkpt>
      <trkpt lat="43.0119" lon="0.18962">
        <ele>793.2</ele>
        <time>2023-11-19T15:35:23Z</time>
      </trkpt>
      <trkpt lat="43.0119" lon="0.18961">
        <ele>793.1</ele>
        <time>2023-11-19T15:35:24Z</time>
      </trkpt>
      <trkpt lat="43.0119" lon="0.18961">
        <ele>793</ele>
        <time>2023-11-19T15:35:25Z</time>
      </trkpt>
      <trkpt lat="43.0119" lon="0.1896">
        <ele>792.8</ele>
        <time>2023-11-19T15:35:26Z</time>
      </trkpt>
      <trkpt lat="43.0119" lon="0.1896">
        <ele>792.7</ele>
        <time>2023-11-19T15:35:27Z</time>
      </trkpt>
      <trkpt lat="43.0119" lon="0.18958">
        <ele>792.4</ele>
        <time>2023-11-19T15:35:28Z</time>
      </trkpt>
      <trkpt lat="43.0119" lon="0.18957">
        <ele>792.1</ele>
        <time>2023-11-19T15:35:29Z</time>
      </trkpt>
      <trkpt lat="43.01191" lon="0.18955">
        <ele>791.8</ele>
        <time>2023-11-19T15:35:30Z</time>
      </trkpt>
      <trkpt lat="43.01192" lon="0.18955">
        <ele>791.5</ele>
        <time>2023-11-19T15:35:31Z</time>
      </trkpt>
      <trkpt lat="43.01193" lon="0.18952">
        <ele>790.8</ele>
        <time>2023-11-19T15:35:32Z</time>
      </trkpt>
      <trkpt lat="43.01194" lon="0.18952">
        <ele>790.6</ele>
        <time>2023-11-19T15:35:33Z</time>
      </trkpt>
      <trkpt lat="43.01194" lon="0.18951">
        <ele>790.4</ele>
        <time>2023-11-19T15:35:34Z</time>
      </trkpt>
      <trkpt lat="43.01195" lon="0.1895">
        <ele>790.1</ele>
        <time>2023-11-19T15:35:35Z</time>
      </trkpt>
      <trkpt lat="43.01195" lon="0.1895">
        <ele>790</ele>
        <time>2023-11-19T15:35:36Z</time>
      </trkpt>
      <trkpt lat="43.01195" lon="0.1895">
        <ele>789.9</ele>
        <time>2023-11-19T15:35:37Z</time>
      </trkpt>
      <trkpt lat="43.01196" lon="0.18949">
        <ele>789.7</ele>
        <time>2023-11-19T15:35:38Z</time>
      </trkpt>
      <trkpt lat="43.01196" lon="0.18948">
        <ele>789.4</ele>
        <time>2023-11-19T15:35:39Z</time>
      </trkpt>
      <trkpt lat="43.01196" lon="0.18947">
        <ele>789.2</ele>
        <time>2023-11-19T15:35:40Z</time>
      </trkpt>
      <trkpt lat="43.01196" lon="0.18945">
        <ele>789</ele>
        <time>2023-11-19T15:35:41Z</time>
      </trkpt>
      <trkpt lat="43.01196" lon="0.18945">
        <ele>788.8</ele>
        <time>2023-11-19T15:35:42Z</time>
      </trkpt>
      <trkpt lat="43.01196" lon="0.18945">
        <ele>788.8</ele>
        <time>2023-11-19T15:35:43Z</time>
      </trkpt>
      <trkpt lat="43.01196" lon="0.18944">
        <ele>788.7</ele>
        <time>2023-11-19T15:35:44Z</time>
      </trkpt>
      <trkpt lat="43.01195" lon="0.18943">
        <ele>788.5</ele>
        <time>2023-11-19T15:35:45Z</time>
      </trkpt>
      <trkpt lat="43.01196" lon="0.18942">
        <ele>788.2</ele>
        <time>2023-11-19T15:35:46Z</time>
      </trkpt>
      <trkpt lat="43.01196" lon="0.18942">
        <ele>788.1</ele>
        <time>2023-11-19T15:35:47Z</time>
      </trkpt>
      <trkpt lat="43.01196" lon="0.1894">
        <ele>787.8</ele>
        <time>2023-11-19T15:35:48Z</time>
      </trkpt>
      <trkpt lat="43.01196" lon="0.1894">
        <ele>787.7</ele>
        <time>2023-11-19T15:35:49Z</time>
      </trkpt>
      <trkpt lat="43.01196" lon="0.1894">
        <ele>787.6</ele>
        <time>2023-11-19T15:35:50Z</time>
      </trkpt>
      <trkpt lat="43.01196" lon="0.18938">
        <ele>787.3</ele>
        <time>2023-11-19T15:35:51Z</time>
      </trkpt>
      <trkpt lat="43.01197" lon="0.18937">
        <ele>787</ele>
        <time>2023-11-19T15:35:52Z</time>
      </trkpt>
      <trkpt lat="43.01198" lon="0.18936">
        <ele>786.8</ele>
        <time>2023-11-19T15:35:53Z</time>
      </trkpt>
      <trkpt lat="43.012" lon="0.18934">
        <ele>786.1</ele>
        <time>2023-11-19T15:35:54Z</time>
      </trkpt>
      <trkpt lat="43.01201" lon="0.18934">
        <ele>786</ele>
        <time>2023-11-19T15:35:55Z</time>
      </trkpt>
      <trkpt lat="43.01202" lon="0.18934">
        <ele>785.5</ele>
        <time>2023-11-19T15:35:56Z</time>
      </trkpt>
      <trkpt lat="43.01202" lon="0.18934">
        <ele>785.5</ele>
        <time>2023-11-19T15:35:57Z</time>
      </trkpt>
      <trkpt lat="43.01203" lon="0.18934">
        <ele>785.4</ele>
        <time>2023-11-19T15:35:58Z</time>
      </trkpt>
      <trkpt lat="43.01202" lon="0.18933">
        <ele>785.3</ele>
        <time>2023-11-19T15:35:59Z</time>
      </trkpt>
      <trkpt lat="43.01202" lon="0.18933">
        <ele>785.2</ele>
        <time>2023-11-19T15:36:00Z</time>
      </trkpt>
      <trkpt lat="43.01202" lon="0.18932">
        <ele>785.1</ele>
        <time>2023-11-19T15:36:01Z</time>
      </trkpt>
      <trkpt lat="43.01204" lon="0.1893">
        <ele>784.6</ele>
        <time>2023-11-19T15:36:02Z</time>
      </trkpt>
      <trkpt lat="43.01204" lon="0.18929">
        <ele>784.3</ele>
        <time>2023-11-19T15:36:03Z</time>
      </trkpt>
      <trkpt lat="43.01205" lon="0.18928">
        <ele>784.1</ele>
        <time>2023-11-19T15:36:04Z</time>
      </trkpt>
      <trkpt lat="43.01206" lon="0.18926">
        <ele>783.7</ele>
        <time>2023-11-19T15:36:05Z</time>
      </trkpt>
      <trkpt lat="43.01206" lon="0.18925">
        <ele>783.4</ele>
        <time>2023-11-19T15:36:06Z</time>
      </trkpt>
      <trkpt lat="43.01207" lon="0.18925">
        <ele>783.2</ele>
        <time>2023-11-19T15:36:07Z</time>
      </trkpt>
      <trkpt lat="43.01208" lon="0.18924">
        <ele>782.9</ele>
        <time>2023-11-19T15:36:08Z</time>
      </trkpt>
      <trkpt lat="43.01209" lon="0.18923">
        <ele>782.6</ele>
        <time>2023-11-19T15:36:09Z</time>
      </trkpt>
      <trkpt lat="43.0121" lon="0.18922">
        <ele>782.3</ele>
        <time>2023-11-19T15:36:10Z</time>
      </trkpt>
      <trkpt lat="43.0121" lon="0.18921">
        <ele>782</ele>
        <time>2023-11-19T15:36:11Z</time>
      </trkpt>
      <trkpt lat="43.01211" lon="0.1892">
        <ele>781.7</ele>
        <time>2023-11-19T15:36:12Z</time>
      </trkpt>
      <trkpt lat="43.01213" lon="0.18919">
        <ele>781.3</ele>
        <time>2023-11-19T15:36:13Z</time>
      </trkpt>
      <trkpt lat="43.01213" lon="0.18919">
        <ele>781.2</ele>
        <time>2023-11-19T15:36:14Z</time>
      </trkpt>
      <trkpt lat="43.01214" lon="0.18918">
        <ele>780.8</ele>
        <time>2023-11-19T15:36:15Z</time>
      </trkpt>
      <trkpt lat="43.01215" lon="0.18916">
        <ele>780.4</ele>
        <time>2023-11-19T15:36:16Z</time>
      </trkpt>
      <trkpt lat="43.01217" lon="0.18916">
        <ele>779.9</ele>
        <time>2023-11-19T15:36:17Z</time>
      </trkpt>
      <trkpt lat="43.01219" lon="0.18914">
        <ele>779.3</ele>
        <time>2023-11-19T15:36:18Z</time>
      </trkpt>
      <trkpt lat="43.0122" lon="0.18914">
        <ele>779.1</ele>
        <time>2023-11-19T15:36:19Z</time>
      </trkpt>
      <trkpt lat="43.0122" lon="0.18913">
        <ele>778.8</ele>
        <time>2023-11-19T15:36:20Z</time>
      </trkpt>
      <trkpt lat="43.01222" lon="0.18912">
        <ele>778.2</ele>
        <time>2023-11-19T15:36:21Z</time>
      </trkpt>
      <trkpt lat="43.01223" lon="0.18912">
        <ele>778</ele>
        <time>2023-11-19T15:36:22Z</time>
      </trkpt>
      <trkpt lat="43.01224" lon="0.18911">
        <ele>777.7</ele>
        <time>2023-11-19T15:36:23Z</time>
      </trkpt>
      <trkpt lat="43.01225" lon="0.18912">
        <ele>777.5</ele>
        <time>2023-11-19T15:36:24Z</time>
      </trkpt>
      <trkpt lat="43.01224" lon="0.1891">
        <ele>777</ele>
        <time>2023-11-19T15:36:25Z</time>
      </trkpt>
      <trkpt lat="43.01225" lon="0.18909">
        <ele>776.6</ele>
        <time>2023-11-19T15:36:26Z</time>
      </trkpt>
      <trkpt lat="43.01226" lon="0.18909">
        <ele>776.5</ele>
        <time>2023-11-19T15:36:27Z</time>
      </trkpt>
      <trkpt lat="43.01227" lon="0.18908">
        <ele>776.2</ele>
        <time>2023-11-19T15:36:28Z</time>
      </trkpt>
      <trkpt lat="43.01227" lon="0.18908">
        <ele>776</ele>
        <time>2023-11-19T15:36:29Z</time>
      </trkpt>
      <trkpt lat="43.01228" lon="0.18908">
        <ele>775.7</ele>
        <time>2023-11-19T15:36:31Z</time>
      </trkpt>
      <trkpt lat="43.01228" lon="0.18909">
        <ele>775.5</ele>
        <time>2023-11-19T15:36:32Z</time>
      </trkpt>
      <trkpt lat="43.01228" lon="0.18909">
        <ele>775.5</ele>
        <time>2023-11-19T15:36:33Z</time>
      </trkpt>
      <trkpt lat="43.01229" lon="0.18909">
        <ele>775.2</ele>
        <time>2023-11-19T15:36:34Z</time>
      </trkpt>
      <trkpt lat="43.0123" lon="0.18908">
        <ele>774.9</ele>
        <time>2023-11-19T15:36:35Z</time>
      </trkpt>
      <trkpt lat="43.0123" lon="0.18906">
        <ele>774.6</ele>
        <time>2023-11-19T15:36:36Z</time>
      </trkpt>
      <trkpt lat="43.0123" lon="0.18906">
        <ele>774.4</ele>
        <time>2023-11-19T15:36:37Z</time>
      </trkpt>
      <trkpt lat="43.01231" lon="0.18905">
        <ele>774.1</ele>
        <time>2023-11-19T15:36:38Z</time>
      </trkpt>
      <trkpt lat="43.01231" lon="0.18905">
        <ele>773.9</ele>
        <time>2023-11-19T15:36:39Z</time>
      </trkpt>
      <trkpt lat="43.01232" lon="0.18905">
        <ele>773.7</ele>
        <time>2023-11-19T15:36:40Z</time>
      </trkpt>
      <trkpt lat="43.01233" lon="0.18905">
        <ele>773.4</ele>
        <time>2023-11-19T15:36:41Z</time>
      </trkpt>
      <trkpt lat="43.01234" lon="0.18904">
        <ele>773.2</ele>
        <time>2023-11-19T15:36:42Z</time>
      </trkpt>
      <trkpt lat="43.01234" lon="0.18904">
        <ele>773</ele>
        <time>2023-11-19T15:36:43Z</time>
      </trkpt>
      <trkpt lat="43.01234" lon="0.18902">
        <ele>772.6</ele>
        <time>2023-11-19T15:36:44Z</time>
      </trkpt>
      <trkpt lat="43.01234" lon="0.189">
        <ele>772.2</ele>
        <time>2023-11-19T15:36:45Z</time>
      </trkpt>
      <trkpt lat="43.01233" lon="0.18899">
        <ele>771.9</ele>
        <time>2023-11-19T15:36:46Z</time>
      </trkpt>
      <trkpt lat="43.01233" lon="0.18899">
        <ele>771.8</ele>
        <time>2023-11-19T15:36:47Z</time>
      </trkpt>
      <trkpt lat="43.01233" lon="0.18898">
        <ele>771.6</ele>
        <time>2023-11-19T15:36:48Z</time>
      </trkpt>
      <trkpt lat="43.01233" lon="0.18896">
        <ele>771.1</ele>
        <time>2023-11-19T15:36:49Z</time>
      </trkpt>
      <trkpt lat="43.01233" lon="0.18897">
        <ele>771</ele>
        <time>2023-11-19T15:36:50Z</time>
      </trkpt>
      <trkpt lat="43.01233" lon="0.18896">
        <ele>771</ele>
        <time>2023-11-19T15:36:51Z</time>
      </trkpt>
      <trkpt lat="43.01233" lon="0.18896">
        <ele>770.9</ele>
        <time>2023-11-19T15:36:52Z</time>
      </trkpt>
      <trkpt lat="43.01232" lon="0.18894">
        <ele>770.3</ele>
        <time>2023-11-19T15:36:53Z</time>
      </trkpt>
      <trkpt lat="43.01232" lon="0.18892">
        <ele>769.8</ele>
        <time>2023-11-19T15:36:54Z</time>
      </trkpt>
      <trkpt lat="43.01232" lon="0.18893">
        <ele>769.6</ele>
        <time>2023-11-19T15:36:55Z</time>
      </trkpt>
      <trkpt lat="43.01233" lon="0.18893">
        <ele>769.5</ele>
        <time>2023-11-19T15:36:56Z</time>
      </trkpt>
      <trkpt lat="43.01234" lon="0.18893">
        <ele>768.9</ele>
        <time>2023-11-19T15:36:57Z</time>
      </trkpt>
      <trkpt lat="43.01236" lon="0.18895">
        <ele>768.3</ele>
        <time>2023-11-19T15:36:58Z</time>
      </trkpt>
      <trkpt lat="43.01237" lon="0.18895">
        <ele>768.1</ele>
        <time>2023-11-19T15:36:59Z</time>
      </trkpt>
      <trkpt lat="43.01237" lon="0.18896">
        <ele>767.8</ele>
        <time>2023-11-19T15:37:00Z</time>
      </trkpt>
      <trkpt lat="43.01238" lon="0.18896">
        <ele>767.7</ele>
        <time>2023-11-19T15:37:01Z</time>
      </trkpt>
      <trkpt lat="43.01238" lon="0.18897">
        <ele>767.4</ele>
        <time>2023-11-19T15:37:02Z</time>
      </trkpt>
      <trkpt lat="43.01239" lon="0.18897">
        <ele>767.1</ele>
        <time>2023-11-19T15:37:03Z</time>
      </trkpt>
      <trkpt lat="43.0124" lon="0.18898">
        <ele>767</ele>
        <time>2023-11-19T15:37:04Z</time>
      </trkpt>
      <trkpt lat="43.0124" lon="0.18898">
        <ele>766.9</ele>
        <time>2023-11-19T15:37:05Z</time>
      </trkpt>
      <trkpt lat="43.01241" lon="0.18898">
        <ele>766.6</ele>
        <time>2023-11-19T15:37:06Z</time>
      </trkpt>
      <trkpt lat="43.01242" lon="0.18898">
        <ele>766.3</ele>
        <time>2023-11-19T15:37:07Z</time>
      </trkpt>
      <trkpt lat="43.01242" lon="0.18899">
        <ele>766.1</ele>
        <time>2023-11-19T15:37:08Z</time>
      </trkpt>
      <trkpt lat="43.01243" lon="0.18899">
        <ele>765.9</ele>
        <time>2023-11-19T15:37:09Z</time>
      </trkpt>
      <trkpt lat="43.01243" lon="0.189">
        <ele>765.7</ele>
        <time>2023-11-19T15:37:10Z</time>
      </trkpt>
      <trkpt lat="43.01243" lon="0.189">
        <ele>765.6</ele>
        <time>2023-11-19T15:37:11Z</time>
      </trkpt>
      <trkpt lat="43.01245" lon="0.18898">
        <ele>765</ele>
        <time>2023-11-19T15:37:12Z</time>
      </trkpt>
      <trkpt lat="43.01246" lon="0.18897">
        <ele>764.7</ele>
        <time>2023-11-19T15:37:13Z</time>
      </trkpt>
      <trkpt lat="43.01246" lon="0.18896">
        <ele>764.4</ele>
        <time>2023-11-19T15:37:14Z</time>
      </trkpt>
      <trkpt lat="43.01246" lon="0.18896">
        <ele>764.3</ele>
        <time>2023-11-19T15:37:15Z</time>
      </trkpt>
      <trkpt lat="43.01246" lon="0.18896">
        <ele>764.2</ele>
        <time>2023-11-19T15:37:16Z</time>
      </trkpt>
      <trkpt lat="43.01247" lon="0.18896">
        <ele>763.9</ele>
        <time>2023-11-19T15:37:17Z</time>
      </trkpt>
      <trkpt lat="43.01248" lon="0.18896">
        <ele>763.8</ele>
        <time>2023-11-19T15:37:18Z</time>
      </trkpt>
      <trkpt lat="43.01248" lon="0.18897">
        <ele>763.6</ele>
        <time>2023-11-19T15:37:19Z</time>
      </trkpt>
      <trkpt lat="43.01249" lon="0.18897">
        <ele>763.4</ele>
        <time>2023-11-19T15:37:20Z</time>
      </trkpt>
      <trkpt lat="43.01249" lon="0.18898">
        <ele>763.3</ele>
        <time>2023-11-19T15:37:21Z</time>
      </trkpt>
      <trkpt lat="43.01249" lon="0.18899">
        <ele>763</ele>
        <time>2023-11-19T15:37:22Z</time>
      </trkpt>
      <trkpt lat="43.0125" lon="0.18899">
        <ele>762.9</ele>
        <time>2023-11-19T15:37:23Z</time>
      </trkpt>
      <trkpt lat="43.01251" lon="0.18899">
        <ele>762.4</ele>
        <time>2023-11-19T15:37:24Z</time>
      </trkpt>
      <trkpt lat="43.01252" lon="0.18898">
        <ele>762.2</ele>
        <time>2023-11-19T15:37:25Z</time>
      </trkpt>
      <trkpt lat="43.01253" lon="0.18898">
        <ele>762</ele>
        <time>2023-11-19T15:37:26Z</time>
      </trkpt>
      <trkpt lat="43.01253" lon="0.18899">
        <ele>761.8</ele>
        <time>2023-11-19T15:37:27Z</time>
      </trkpt>
      <trkpt lat="43.01253" lon="0.18899">
        <ele>761.7</ele>
        <time>2023-11-19T15:37:28Z</time>
      </trkpt>
      <trkpt lat="43.01254" lon="0.189">
        <ele>761.3</ele>
        <time>2023-11-19T15:37:29Z</time>
      </trkpt>
      <trkpt lat="43.01255" lon="0.18899">
        <ele>761</ele>
        <time>2023-11-19T15:37:30Z</time>
      </trkpt>
      <trkpt lat="43.01256" lon="0.189">
        <ele>760.8</ele>
        <time>2023-11-19T15:37:31Z</time>
      </trkpt>
      <trkpt lat="43.01257" lon="0.18899">
        <ele>760.7</ele>
        <time>2023-11-19T15:37:32Z</time>
      </trkpt>
      <trkpt lat="43.01258" lon="0.18899">
        <ele>760.3</ele>
        <time>2023-11-19T15:37:33Z</time>
      </trkpt>
      <trkpt lat="43.01259" lon="0.18902">
        <ele>759.5</ele>
        <time>2023-11-19T15:37:34Z</time>
      </trkpt>
      <trkpt lat="43.0126" lon="0.18903">
        <ele>759.2</ele>
        <time>2023-11-19T15:37:35Z</time>
      </trkpt>
      <trkpt lat="43.01261" lon="0.18905">
        <ele>758.8</ele>
        <time>2023-11-19T15:37:36Z</time>
      </trkpt>
      <trkpt lat="43.01259" lon="0.18906">
        <ele>758.4</ele>
        <time>2023-11-19T15:37:37Z</time>
      </trkpt>
      <trkpt lat="43.01257" lon="0.18903">
        <ele>757.5</ele>
        <time>2023-11-19T15:37:38Z</time>
      </trkpt>
      <trkpt lat="43.01256" lon="0.18904">
        <ele>757.2</ele>
        <time>2023-11-19T15:37:39Z</time>
      </trkpt>
      <trkpt lat="43.01256" lon="0.18904">
        <ele>757.1</ele>
        <time>2023-11-19T15:37:40Z</time>
      </trkpt>
      <trkpt lat="43.01255" lon="0.18903">
        <ele>756.8</ele>
        <time>2023-11-19T15:37:41Z</time>
      </trkpt>
      <trkpt lat="43.01255" lon="0.18902">
        <ele>756.5</ele>
        <time>2023-11-19T15:37:42Z</time>
      </trkpt>
      <trkpt lat="43.01255" lon="0.18902">
        <ele>756.5</ele>
        <time>2023-11-19T15:37:43Z</time>
      </trkpt>
      <trkpt lat="43.01255" lon="0.18902">
        <ele>756.5</ele>
        <time>2023-11-19T15:37:44Z</time>
      </trkpt>
      <trkpt lat="43.01255" lon="0.18902">
        <ele>756.5</ele>
        <time>2023-11-19T15:37:45Z</time>
      </trkpt>
      <trkpt lat="43.01255" lon="0.18902">
        <ele>756.5</ele>
        <time>2023-11-19T15:37:46Z</time>
      </trkpt>
      <trkpt lat="43.01255" lon="0.18902">
        <ele>756.5</ele>
        <time>2023-11-19T15:37:47Z</time>
      </trkpt>
      <trkpt lat="43.01255" lon="0.18902">
        <ele>756.5</ele>
        <time>2023-11-19T15:37:48Z</time>
      </trkpt>
      <trkpt lat="43.01255" lon="0.18902">
        <ele>756.5</ele>
        <time>2023-11-19T15:37:49Z</time>
      </trkpt>
      <trkpt lat="43.01255" lon="0.18902">
        <ele>756.5</ele>
        <time>2023-11-19T15:37:50Z</time>
      </trkpt>
      <trkpt lat="43.01255" lon="0.18902">
        <ele>756.5</ele>
        <time>2023-11-19T15:37:51Z</time>
      </trkpt>
      <trkpt lat="43.01255" lon="0.18902">
        <ele>756.5</ele>
        <time>2023-11-19T15:37:52Z</time>
      </trkpt>
      <trkpt lat="43.01255" lon="0.18902">
        <ele>756.5</ele>
        <time>2023-11-19T15:37:53Z</time>
      </trkpt>
      <trkpt lat="43.01255" lon="0.18902">
        <ele>756.5</ele>
        <time>2023-11-19T15:37:54Z</time>
      </trkpt>
      <trkpt lat="43.01255" lon="0.18902">
        <ele>756.5</ele>
        <time>2023-11-19T15:37:55Z</time>
      </trkpt>
      <trkpt lat="43.01255" lon="0.18902">
        <ele>756.5</ele>
        <time>2023-11-19T15:37:56Z</time>
      </trkpt>
      <trkpt lat="43.01254" lon="0.18903">
        <ele>756.1</ele>
        <time>2023-11-19T15:37:57Z</time>
      </trkpt>
      <trkpt lat="43.01254" lon="0.18903">
        <ele>756.1</ele>
        <time>2023-11-19T15:37:58Z</time>
      </trkpt>
      <trkpt lat="43.01254" lon="0.18903">
        <ele>756.1</ele>
        <time>2023-11-19T15:37:59Z</time>
      </trkpt>
      <trkpt lat="43.01255" lon="0.18904">
        <ele>755.7</ele>
        <time>2023-11-19T15:38:00Z</time>
      </trkpt>
      <trkpt lat="43.01256" lon="0.18905">
        <ele>755.4</ele>
        <time>2023-11-19T15:38:01Z</time>
      </trkpt>
      <trkpt lat="43.01257" lon="0.18905">
        <ele>755.2</ele>
        <time>2023-11-19T15:38:02Z</time>
      </trkpt>
      <trkpt lat="43.01257" lon="0.18906">
        <ele>755.1</ele>
        <time>2023-11-19T15:38:03Z</time>
      </trkpt>
      <trkpt lat="43.01258" lon="0.18906">
        <ele>755</ele>
        <time>2023-11-19T15:38:04Z</time>
      </trkpt>
      <trkpt lat="43.01257" lon="0.18906">
        <ele>755</ele>
        <time>2023-11-19T15:38:05Z</time>
      </trkpt>
      <trkpt lat="43.01258" lon="0.18906">
        <ele>754.9</ele>
        <time>2023-11-19T15:38:06Z</time>
      </trkpt>
      <trkpt lat="43.01258" lon="0.18906">
        <ele>754.8</ele>
        <time>2023-11-19T15:38:07Z</time>
      </trkpt>
      <trkpt lat="43.01258" lon="0.18906">
        <ele>754.7</ele>
        <time>2023-11-19T15:38:08Z</time>
      </trkpt>
      <trkpt lat="43.01258" lon="0.18907">
        <ele>754.6</ele>
        <time>2023-11-19T15:38:09Z</time>
      </trkpt>
      <trkpt lat="43.01258" lon="0.18907">
        <ele>754.6</ele>
        <time>2023-11-19T15:38:10Z</time>
      </trkpt>
      <trkpt lat="43.01259" lon="0.18906">
        <ele>754.5</ele>
        <time>2023-11-19T15:38:11Z</time>
      </trkpt>
      <trkpt lat="43.01258" lon="0.18906">
        <ele>754.4</ele>
        <time>2023-11-19T15:38:12Z</time>
      </trkpt>
      <trkpt lat="43.01258" lon="0.18906">
        <ele>754.4</ele>
        <time>2023-11-19T15:38:13Z</time>
      </trkpt>
      <trkpt lat="43.01258" lon="0.18906">
        <ele>754.4</ele>
        <time>2023-11-19T15:38:14Z</time>
      </trkpt>
      <trkpt lat="43.01259" lon="0.18907">
        <ele>754.2</ele>
        <time>2023-11-19T15:38:15Z</time>
      </trkpt>
      <trkpt lat="43.01259" lon="0.18907">
        <ele>754.2</ele>
        <time>2023-11-19T15:38:16Z</time>
      </trkpt>
      <trkpt lat="43.01258" lon="0.18908">
        <ele>754.1</ele>
        <time>2023-11-19T15:38:17Z</time>
      </trkpt>
      <trkpt lat="43.01258" lon="0.18908">
        <ele>753.9</ele>
        <time>2023-11-19T15:38:18Z</time>
      </trkpt>
      <trkpt lat="43.01258" lon="0.18908">
        <ele>753.9</ele>
        <time>2023-11-19T15:38:19Z</time>
      </trkpt>
      <trkpt lat="43.01258" lon="0.18908">
        <ele>753.9</ele>
        <time>2023-11-19T15:38:20Z</time>
      </trkpt>
      <trkpt lat="43.01258" lon="0.18908">
        <ele>753.9</ele>
        <time>2023-11-19T15:38:21Z</time>
      </trkpt>
      <trkpt lat="43.01258" lon="0.18909">
        <ele>753.7</ele>
        <time>2023-11-19T15:38:22Z</time>
      </trkpt>
      <trkpt lat="43.01258" lon="0.18909">
        <ele>753.7</ele>
        <time>2023-11-19T15:38:23Z</time>
      </trkpt>
      <trkpt lat="43.01258" lon="0.18909">
        <ele>753.7</ele>
        <time>2023-11-19T15:38:24Z</time>
      </trkpt>
      <trkpt lat="43.01258" lon="0.18909">
        <ele>753.7</ele>
        <time>2023-11-19T15:38:25Z</time>
      </trkpt>
      <trkpt lat="43.01258" lon="0.18909">
        <ele>753.7</ele>
        <time>2023-11-19T15:38:26Z</time>
      </trkpt>
      <trkpt lat="43.01258" lon="0.18909">
        <ele>753.7</ele>
        <time>2023-11-19T15:38:27Z</time>
      </trkpt>
      <trkpt lat="43.01258" lon="0.18909">
        <ele>753.7</ele>
        <time>2023-11-19T15:38:28Z</time>
      </trkpt>
      <trkpt lat="43.0126" lon="0.18909">
        <ele>753.3</ele>
        <time>2023-11-19T15:38:29Z</time>
      </trkpt>
      <trkpt lat="43.0126" lon="0.18909">
        <ele>753.3</ele>
        <time>2023-11-19T15:38:30Z</time>
      </trkpt>
      <trkpt lat="43.0126" lon="0.18909">
        <ele>753.3</ele>
        <time>2023-11-19T15:38:31Z</time>
      </trkpt>
      <trkpt lat="43.0126" lon="0.18909">
        <ele>753.3</ele>
        <time>2023-11-19T15:38:32Z</time>
      </trkpt>
      <trkpt lat="43.0126" lon="0.18909">
        <ele>753.3</ele>
        <time>2023-11-19T15:38:33Z</time>
      </trkpt>
      <trkpt lat="43.0126" lon="0.18908">
        <ele>753.1</ele>
        <time>2023-11-19T15:38:34Z</time>
      </trkpt>
      <trkpt lat="43.01259" lon="0.18908">
        <ele>753.1</ele>
        <time>2023-11-19T15:38:35Z</time>
      </trkpt>
      <trkpt lat="43.01259" lon="0.18908">
        <ele>753.1</ele>
        <time>2023-11-19T15:38:37Z</time>
      </trkpt>
      <trkpt lat="43.01259" lon="0.18908">
        <ele>753.1</ele>
        <time>2023-11-19T15:38:38Z</time>
      </trkpt>
      <trkpt lat="43.01259" lon="0.18908">
        <ele>753.1</ele>
        <time>2023-11-19T15:38:39Z</time>
      </trkpt>
      <trkpt lat="43.01259" lon="0.18908">
        <ele>753.1</ele>
        <time>2023-11-19T15:38:40Z</time>
      </trkpt>
      <trkpt lat="43.01259" lon="0.18908">
        <ele>753.1</ele>
        <time>2023-11-19T15:38:41Z</time>
      </trkpt>
      <trkpt lat="43.01259" lon="0.18908">
        <ele>753.1</ele>
        <time>2023-11-19T15:38:42Z</time>
      </trkpt>
      <trkpt lat="43.01259" lon="0.18908">
        <ele>753.1</ele>
        <time>2023-11-19T15:38:43Z</time>
      </trkpt>
      <trkpt lat="43.0126" lon="0.18906">
        <ele>752.9</ele>
        <time>2023-11-19T15:38:44Z</time>
      </trkpt>
      <trkpt lat="43.0126" lon="0.18906">
        <ele>752.7</ele>
        <time>2023-11-19T15:38:45Z</time>
      </trkpt>
      <trkpt lat="43.0126" lon="0.18906">
        <ele>752.7</ele>
        <time>2023-11-19T15:38:46Z</time>
      </trkpt>
      <trkpt lat="43.01261" lon="0.18906">
        <ele>752.7</ele>
        <time>2023-11-19T15:38:47Z</time>
      </trkpt>
      <trkpt lat="43.01261" lon="0.18906">
        <ele>752.5</ele>
        <time>2023-11-19T15:38:48Z</time>
      </trkpt>
      <trkpt lat="43.01262" lon="0.18906">
        <ele>752.5</ele>
        <time>2023-11-19T15:38:49Z</time>
      </trkpt>
      <trkpt lat="43.01263" lon="0.18906">
        <ele>752.3</ele>
        <time>2023-11-19T15:38:50Z</time>
      </trkpt>
      <trkpt lat="43.01263" lon="0.18906">
        <ele>752.2</ele>
        <time>2023-11-19T15:38:51Z</time>
      </trkpt>
      <trkpt lat="43.01263" lon="0.18906">
        <ele>752.2</ele>
        <time>2023-11-19T15:38:52Z</time>
      </trkpt>
      <trkpt lat="43.01263" lon="0.18905">
        <ele>752.2</ele>
        <time>2023-11-19T15:38:53Z</time>
      </trkpt>
      <trkpt lat="43.01262" lon="0.18905">
        <ele>752</ele>
        <time>2023-11-19T15:38:54Z</time>
      </trkpt>
      <trkpt lat="43.01262" lon="0.18903">
        <ele>751.9</ele>
        <time>2023-11-19T15:38:55Z</time>
      </trkpt>
      <trkpt lat="43.01262" lon="0.18904">
        <ele>751.9</ele>
        <time>2023-11-19T15:38:56Z</time>
      </trkpt>
      <trkpt lat="43.01263" lon="0.18904">
        <ele>751.7</ele>
        <time>2023-11-19T15:38:57Z</time>
      </trkpt>
      <trkpt lat="43.01262" lon="0.18904">
        <ele>751.7</ele>
        <time>2023-11-19T15:38:58Z</time>
      </trkpt>
      <trkpt lat="43.01263" lon="0.18904">
        <ele>751.6</ele>
        <time>2023-11-19T15:38:59Z</time>
      </trkpt>
      <trkpt lat="43.01263" lon="0.18903">
        <ele>751.6</ele>
        <time>2023-11-19T15:39:00Z</time>
      </trkpt>
      <trkpt lat="43.01264" lon="0.18902">
        <ele>751.5</ele>
        <time>2023-11-19T15:39:01Z</time>
      </trkpt>
      <trkpt lat="43.01264" lon="0.18901">
        <ele>751.4</ele>
        <time>2023-11-19T15:39:02Z</time>
      </trkpt>
      <trkpt lat="43.01264" lon="0.18901">
        <ele>751.4</ele>
        <time>2023-11-19T15:39:03Z</time>
      </trkpt>
      <trkpt lat="43.01265" lon="0.189">
        <ele>751.3</ele>
        <time>2023-11-19T15:39:04Z</time>
      </trkpt>
      <trkpt lat="43.01265" lon="0.18899">
        <ele>751.3</ele>
        <time>2023-11-19T15:39:05Z</time>
      </trkpt>
      <trkpt lat="43.01265" lon="0.18899">
        <ele>751.2</ele>
        <time>2023-11-19T15:39:06Z</time>
      </trkpt>
      <trkpt lat="43.01265" lon="0.18899">
        <ele>751.2</ele>
        <time>2023-11-19T15:39:07Z</time>
      </trkpt>
      <trkpt lat="43.01266" lon="0.18898">
        <ele>751.1</ele>
        <time>2023-11-19T15:39:08Z</time>
      </trkpt>
      <trkpt lat="43.01267" lon="0.18898">
        <ele>751.1</ele>
        <time>2023-11-19T15:39:09Z</time>
      </trkpt>
      <trkpt lat="43.01267" lon="0.18896">
        <ele>751</ele>
        <time>2023-11-19T15:39:10Z</time>
      </trkpt>
      <trkpt lat="43.01269" lon="0.18897">
        <ele>751</ele>
        <time>2023-11-19T15:39:11Z</time>
      </trkpt>
      <trkpt lat="43.0127" lon="0.18897">
        <ele>750.9</ele>
        <time>2023-11-19T15:39:12Z</time>
      </trkpt>
      <trkpt lat="43.0127" lon="0.18897">
        <ele>750.9</ele>
        <time>2023-11-19T15:39:13Z</time>
      </trkpt>
      <trkpt lat="43.01271" lon="0.18897">
        <ele>750.9</ele>
        <time>2023-11-19T15:39:14Z</time>
      </trkpt>
      <trkpt lat="43.01272" lon="0.18896">
        <ele>750.8</ele>
        <time>2023-11-19T15:39:15Z</time>
      </trkpt>
      <trkpt lat="43.01273" lon="0.18895">
        <ele>750.8</ele>
        <time>2023-11-19T15:39:16Z</time>
      </trkpt>
      <trkpt lat="43.01274" lon="0.18895">
        <ele>750.8</ele>
        <time>2023-11-19T15:39:17Z</time>
      </trkpt>
      <trkpt lat="43.01275" lon="0.18894">
        <ele>750.8</ele>
        <time>2023-11-19T15:39:18Z</time>
      </trkpt>
      <trkpt lat="43.01275" lon="0.18894">
        <ele>750.7</ele>
        <time>2023-11-19T15:39:19Z</time>
      </trkpt>
      <trkpt lat="43.01276" lon="0.18894">
        <ele>750.7</ele>
        <time>2023-11-19T15:39:20Z</time>
      </trkpt>
      <trkpt lat="43.01276" lon="0.18895">
        <ele>750.7</ele>
        <time>2023-11-19T15:39:21Z</time>
      </trkpt>
      <trkpt lat="43.01277" lon="0.18895">
        <ele>750.7</ele>
        <time>2023-11-19T15:39:22Z</time>
      </trkpt>
      <trkpt lat="43.01278" lon="0.18895">
        <ele>750.7</ele>
        <time>2023-11-19T15:39:23Z</time>
      </trkpt>
      <trkpt lat="43.01278" lon="0.18894">
        <ele>750.7</ele>
        <time>2023-11-19T15:39:24Z</time>
      </trkpt>
      <trkpt lat="43.01279" lon="0.18893">
        <ele>750.7</ele>
        <time>2023-11-19T15:39:25Z</time>
      </trkpt>
      <trkpt lat="43.0128" lon="0.18892">
        <ele>750.7</ele>
        <time>2023-11-19T15:39:26Z</time>
      </trkpt>
      <trkpt lat="43.0128" lon="0.18892">
        <ele>750.7</ele>
        <time>2023-11-19T15:39:27Z</time>
      </trkpt>
      <trkpt lat="43.0128" lon="0.18891">
        <ele>750.7</ele>
        <time>2023-11-19T15:39:28Z</time>
      </trkpt>
      <trkpt lat="43.0128" lon="0.1889">
        <ele>750.7</ele>
        <time>2023-11-19T15:39:29Z</time>
      </trkpt>
      <trkpt lat="43.01281" lon="0.18889">
        <ele>750.7</ele>
        <time>2023-11-19T15:39:30Z</time>
      </trkpt>
      <trkpt lat="43.01281" lon="0.18887">
        <ele>750.7</ele>
        <time>2023-11-19T15:39:31Z</time>
      </trkpt>
      <trkpt lat="43.01281" lon="0.18885">
        <ele>750.7</ele>
        <time>2023-11-19T15:39:32Z</time>
      </trkpt>
      <trkpt lat="43.01281" lon="0.18884">
        <ele>750.7</ele>
        <time>2023-11-19T15:39:33Z</time>
      </trkpt>
      <trkpt lat="43.01283" lon="0.18882">
        <ele>750.7</ele>
        <time>2023-11-19T15:39:34Z</time>
      </trkpt>
      <trkpt lat="43.01283" lon="0.18881">
        <ele>750.7</ele>
        <time>2023-11-19T15:39:35Z</time>
      </trkpt>
      <trkpt lat="43.01284" lon="0.1888">
        <ele>750.7</ele>
        <time>2023-11-19T15:39:36Z</time>
      </trkpt>
      <trkpt lat="43.01284" lon="0.18879">
        <ele>750.7</ele>
        <time>2023-11-19T15:39:37Z</time>
      </trkpt>
      <trkpt lat="43.01285" lon="0.18878">
        <ele>750.7</ele>
        <time>2023-11-19T15:39:38Z</time>
      </trkpt>
      <trkpt lat="43.01286" lon="0.18878">
        <ele>750.7</ele>
        <time>2023-11-19T15:39:39Z</time>
      </trkpt>
      <trkpt lat="43.01286" lon="0.18877">
        <ele>750.7</ele>
        <time>2023-11-19T15:39:40Z</time>
      </trkpt>
      <trkpt lat="43.01287" lon="0.18875">
        <ele>750.7</ele>
        <time>2023-11-19T15:39:41Z</time>
      </trkpt>
      <trkpt lat="43.01288" lon="0.18873">
        <ele>750.7</ele>
        <time>2023-11-19T15:39:42Z</time>
      </trkpt>
      <trkpt lat="43.01287" lon="0.1887">
        <ele>750.7</ele>
        <time>2023-11-19T15:39:43Z</time>
      </trkpt>
      <trkpt lat="43.01287" lon="0.18869">
        <ele>750.7</ele>
        <time>2023-11-19T15:39:44Z</time>
      </trkpt>
      <trkpt lat="43.01287" lon="0.18869">
        <ele>750.7</ele>
        <time>2023-11-19T15:39:45Z</time>
      </trkpt>
      <trkpt lat="43.01288" lon="0.18867">
        <ele>750.7</ele>
        <time>2023-11-19T15:39:46Z</time>
      </trkpt>
      <trkpt lat="43.01287" lon="0.18864">
        <ele>750.6</ele>
        <time>2023-11-19T15:39:47Z</time>
      </trkpt>
      <trkpt lat="43.01287" lon="0.18863">
        <ele>750.6</ele>
        <time>2023-11-19T15:39:48Z</time>
      </trkpt>
      <trkpt lat="43.01286" lon="0.18862">
        <ele>750.6</ele>
        <time>2023-11-19T15:39:49Z</time>
      </trkpt>
      <trkpt lat="43.01286" lon="0.18861">
        <ele>750.6</ele>
        <time>2023-11-19T15:39:50Z</time>
      </trkpt>
      <trkpt lat="43.01287" lon="0.1886">
        <ele>750.6</ele>
        <time>2023-11-19T15:39:51Z</time>
      </trkpt>
      <trkpt lat="43.01286" lon="0.18859">
        <ele>750.6</ele>
        <time>2023-11-19T15:39:52Z</time>
      </trkpt>
      <trkpt lat="43.01286" lon="0.18859">
        <ele>750.6</ele>
        <time>2023-11-19T15:39:53Z</time>
      </trkpt>
      <trkpt lat="43.01286" lon="0.18857">
        <ele>750.6</ele>
        <time>2023-11-19T15:39:54Z</time>
      </trkpt>
      <trkpt lat="43.01285" lon="0.18855">
        <ele>750.6</ele>
        <time>2023-11-19T15:39:55Z</time>
      </trkpt>
      <trkpt lat="43.01285" lon="0.18854">
        <ele>750.6</ele>
        <time>2023-11-19T15:39:56Z</time>
      </trkpt>
      <trkpt lat="43.01285" lon="0.18853">
        <ele>750.6</ele>
        <time>2023-11-19T15:39:57Z</time>
      </trkpt>
      <trkpt lat="43.01285" lon="0.1885">
        <ele>750.6</ele>
        <time>2023-11-19T15:39:58Z</time>
      </trkpt>
      <trkpt lat="43.01285" lon="0.18849">
        <ele>750.5</ele>
        <time>2023-11-19T15:39:59Z</time>
      </trkpt>
      <trkpt lat="43.01285" lon="0.18847">
        <ele>750.5</ele>
        <time>2023-11-19T15:40:00Z</time>
      </trkpt>
      <trkpt lat="43.01285" lon="0.18846">
        <ele>750.5</ele>
        <time>2023-11-19T15:40:01Z</time>
      </trkpt>
      <trkpt lat="43.01284" lon="0.18843">
        <ele>750.5</ele>
        <time>2023-11-19T15:40:02Z</time>
      </trkpt>
      <trkpt lat="43.01284" lon="0.18842">
        <ele>750.5</ele>
        <time>2023-11-19T15:40:03Z</time>
      </trkpt>
      <trkpt lat="43.01283" lon="0.1884">
        <ele>750.5</ele>
        <time>2023-11-19T15:40:04Z</time>
      </trkpt>
      <trkpt lat="43.01282" lon="0.1884">
        <ele>750.5</ele>
        <time>2023-11-19T15:40:05Z</time>
      </trkpt>
      <trkpt lat="43.01281" lon="0.18838">
        <ele>750.5</ele>
        <time>2023-11-19T15:40:06Z</time>
      </trkpt>
      <trkpt lat="43.0128" lon="0.18838">
        <ele>750.5</ele>
        <time>2023-11-19T15:40:07Z</time>
      </trkpt>
      <trkpt lat="43.01279" lon="0.18838">
        <ele>750.4</ele>
        <time>2023-11-19T15:40:08Z</time>
      </trkpt>
      <trkpt lat="43.01278" lon="0.18838">
        <ele>750.4</ele>
        <time>2023-11-19T15:40:09Z</time>
      </trkpt>
      <trkpt lat="43.01278" lon="0.18838">
        <ele>750.4</ele>
        <time>2023-11-19T15:40:10Z</time>
      </trkpt>
      <trkpt lat="43.01277" lon="0.18837">
        <ele>750.4</ele>
        <time>2023-11-19T15:40:11Z</time>
      </trkpt>
      <trkpt lat="43.01277" lon="0.18836">
        <ele>750.4</ele>
        <time>2023-11-19T15:40:12Z</time>
      </trkpt>
      <trkpt lat="43.01277" lon="0.18835">
        <ele>750.4</ele>
        <time>2023-11-19T15:40:13Z</time>
      </trkpt>
      <trkpt lat="43.01277" lon="0.18833">
        <ele>750.4</ele>
        <time>2023-11-19T15:40:14Z</time>
      </trkpt>
      <trkpt lat="43.01276" lon="0.18831">
        <ele>750.4</ele>
        <time>2023-11-19T15:40:15Z</time>
      </trkpt>
      <trkpt lat="43.01275" lon="0.18831">
        <ele>750.4</ele>
        <time>2023-11-19T15:40:16Z</time>
      </trkpt>
      <trkpt lat="43.01275" lon="0.1883">
        <ele>750.4</ele>
        <time>2023-11-19T15:40:17Z</time>
      </trkpt>
      <trkpt lat="43.01275" lon="0.18827">
        <ele>750.4</ele>
        <time>2023-11-19T15:40:18Z</time>
      </trkpt>
      <trkpt lat="43.01275" lon="0.18824">
        <ele>750.4</ele>
        <time>2023-11-19T15:40:19Z</time>
      </trkpt>
      <trkpt lat="43.01274" lon="0.18823">
        <ele>750.4</ele>
        <time>2023-11-19T15:40:20Z</time>
      </trkpt>
      <trkpt lat="43.01274" lon="0.18821">
        <ele>750.4</ele>
        <time>2023-11-19T15:40:21Z</time>
      </trkpt>
      <trkpt lat="43.01274" lon="0.18819">
        <ele>750.4</ele>
        <time>2023-11-19T15:40:22Z</time>
      </trkpt>
      <trkpt lat="43.01273" lon="0.18817">
        <ele>750.4</ele>
        <time>2023-11-19T15:40:23Z</time>
      </trkpt>
      <trkpt lat="43.01273" lon="0.18815">
        <ele>750.4</ele>
        <time>2023-11-19T15:40:24Z</time>
      </trkpt>
      <trkpt lat="43.01272" lon="0.18813">
        <ele>750.4</ele>
        <time>2023-11-19T15:40:25Z</time>
      </trkpt>
      <trkpt lat="43.01271" lon="0.18812">
        <ele>750.4</ele>
        <time>2023-11-19T15:40:26Z</time>
      </trkpt>
      <trkpt lat="43.0127" lon="0.1881">
        <ele>750.4</ele>
        <time>2023-11-19T15:40:27Z</time>
      </trkpt>
      <trkpt lat="43.0127" lon="0.18807">
        <ele>750.4</ele>
        <time>2023-11-19T15:40:28Z</time>
      </trkpt>
      <trkpt lat="43.01271" lon="0.18807">
        <ele>750.4</ele>
        <time>2023-11-19T15:40:29Z</time>
      </trkpt>
      <trkpt lat="43.0127" lon="0.18805">
        <ele>750.4</ele>
        <time>2023-11-19T15:40:30Z</time>
      </trkpt>
      <trkpt lat="43.01269" lon="0.18803">
        <ele>750.4</ele>
        <time>2023-11-19T15:40:31Z</time>
      </trkpt>
      <trkpt lat="43.01268" lon="0.18801">
        <ele>750.4</ele>
        <time>2023-11-19T15:40:32Z</time>
      </trkpt>
      <trkpt lat="43.01268" lon="0.18799">
        <ele>750.4</ele>
        <time>2023-11-19T15:40:33Z</time>
      </trkpt>
      <trkpt lat="43.01268" lon="0.18798">
        <ele>750.4</ele>
        <time>2023-11-19T15:40:34Z</time>
      </trkpt>
      <trkpt lat="43.01267" lon="0.18795">
        <ele>750.4</ele>
        <time>2023-11-19T15:40:35Z</time>
      </trkpt>
      <trkpt lat="43.01267" lon="0.18794">
        <ele>750.4</ele>
        <time>2023-11-19T15:40:36Z</time>
      </trkpt>
      <trkpt lat="43.01267" lon="0.18793">
        <ele>750.4</ele>
        <time>2023-11-19T15:40:37Z</time>
      </trkpt>
      <trkpt lat="43.01267" lon="0.18792">
        <ele>750.4</ele>
        <time>2023-11-19T15:40:38Z</time>
      </trkpt>
      <trkpt lat="43.01266" lon="0.18791">
        <ele>750.4</ele>
        <time>2023-11-19T15:40:39Z</time>
      </trkpt>
      <trkpt lat="43.01265" lon="0.1879">
        <ele>750.4</ele>
        <time>2023-11-19T15:40:40Z</time>
      </trkpt>
      <trkpt lat="43.01266" lon="0.18789">
        <ele>750.4</ele>
        <time>2023-11-19T15:40:41Z</time>
      </trkpt>
      <trkpt lat="43.01266" lon="0.18788">
        <ele>750.4</ele>
        <time>2023-11-19T15:40:43Z</time>
      </trkpt>
      <trkpt lat="43.01266" lon="0.18787">
        <ele>750.4</ele>
        <time>2023-11-19T15:40:44Z</time>
      </trkpt>
      <trkpt lat="43.01265" lon="0.18786">
        <ele>750.4</ele>
        <time>2023-11-19T15:40:45Z</time>
      </trkpt>
      <trkpt lat="43.01265" lon="0.18783">
        <ele>750.4</ele>
        <time>2023-11-19T15:40:46Z</time>
      </trkpt>
      <trkpt lat="43.01265" lon="0.18782">
        <ele>750.4</ele>
        <time>2023-11-19T15:40:47Z</time>
      </trkpt>
      <trkpt lat="43.01265" lon="0.18781">
        <ele>750.4</ele>
        <time>2023-11-19T15:40:48Z</time>
      </trkpt>
      <trkpt lat="43.01264" lon="0.18779">
        <ele>750.4</ele>
        <time>2023-11-19T15:40:49Z</time>
      </trkpt>
      <trkpt lat="43.01264" lon="0.18777">
        <ele>750.4</ele>
        <time>2023-11-19T15:40:50Z</time>
      </trkpt>
      <trkpt lat="43.01265" lon="0.18774">
        <ele>750.4</ele>
        <time>2023-11-19T15:40:51Z</time>
      </trkpt>
      <trkpt lat="43.01266" lon="0.18773">
        <ele>750.4</ele>
        <time>2023-11-19T15:40:52Z</time>
      </trkpt>
      <trkpt lat="43.01266" lon="0.18772">
        <ele>750.3</ele>
        <time>2023-11-19T15:40:53Z</time>
      </trkpt>
      <trkpt lat="43.01268" lon="0.18771">
        <ele>750.3</ele>
        <time>2023-11-19T15:40:54Z</time>
      </trkpt>
      <trkpt lat="43.01269" lon="0.1877">
        <ele>750.3</ele>
        <time>2023-11-19T15:40:55Z</time>
      </trkpt>
      <trkpt lat="43.01269" lon="0.1877">
        <ele>750.3</ele>
        <time>2023-11-19T15:40:56Z</time>
      </trkpt>
      <trkpt lat="43.01271" lon="0.18767">
        <ele>750.2</ele>
        <time>2023-11-19T15:40:57Z</time>
      </trkpt>
      <trkpt lat="43.01272" lon="0.18766">
        <ele>750.2</ele>
        <time>2023-11-19T15:40:58Z</time>
      </trkpt>
      <trkpt lat="43.01272" lon="0.18763">
        <ele>750.1</ele>
        <time>2023-11-19T15:40:59Z</time>
      </trkpt>
      <trkpt lat="43.01272" lon="0.18762">
        <ele>750.1</ele>
        <time>2023-11-19T15:41:00Z</time>
      </trkpt>
      <trkpt lat="43.01273" lon="0.1876">
        <ele>750.1</ele>
        <time>2023-11-19T15:41:01Z</time>
      </trkpt>
      <trkpt lat="43.01275" lon="0.18758">
        <ele>750</ele>
        <time>2023-11-19T15:41:02Z</time>
      </trkpt>
      <trkpt lat="43.01276" lon="0.18756">
        <ele>749.9</ele>
        <time>2023-11-19T15:41:03Z</time>
      </trkpt>
      <trkpt lat="43.01275" lon="0.18756">
        <ele>749.9</ele>
        <time>2023-11-19T15:41:04Z</time>
      </trkpt>
      <trkpt lat="43.01274" lon="0.18753">
        <ele>749.8</ele>
        <time>2023-11-19T15:41:05Z</time>
      </trkpt>
      <trkpt lat="43.01274" lon="0.18751">
        <ele>749.6</ele>
        <time>2023-11-19T15:41:06Z</time>
      </trkpt>
      <trkpt lat="43.01274" lon="0.1875">
        <ele>749.6</ele>
        <time>2023-11-19T15:41:07Z</time>
      </trkpt>
      <trkpt lat="43.01275" lon="0.18749">
        <ele>749.6</ele>
        <time>2023-11-19T15:41:08Z</time>
      </trkpt>
      <trkpt lat="43.01275" lon="0.18747">
        <ele>749.5</ele>
        <time>2023-11-19T15:41:09Z</time>
      </trkpt>
      <trkpt lat="43.01274" lon="0.18745">
        <ele>749.4</ele>
        <time>2023-11-19T15:41:10Z</time>
      </trkpt>
      <trkpt lat="43.01275" lon="0.18744">
        <ele>749.3</ele>
        <time>2023-11-19T15:41:11Z</time>
      </trkpt>
      <trkpt lat="43.01274" lon="0.18741">
        <ele>749.2</ele>
        <time>2023-11-19T15:41:12Z</time>
      </trkpt>
      <trkpt lat="43.01274" lon="0.18741">
        <ele>749.2</ele>
        <time>2023-11-19T15:41:13Z</time>
      </trkpt>
      <trkpt lat="43.01273" lon="0.18738">
        <ele>749</ele>
        <time>2023-11-19T15:41:14Z</time>
      </trkpt>
      <trkpt lat="43.01272" lon="0.18737">
        <ele>748.9</ele>
        <time>2023-11-19T15:41:15Z</time>
      </trkpt>
      <trkpt lat="43.01272" lon="0.18736">
        <ele>748.9</ele>
        <time>2023-11-19T15:41:16Z</time>
      </trkpt>
      <trkpt lat="43.01271" lon="0.18734">
        <ele>748.8</ele>
        <time>2023-11-19T15:41:17Z</time>
      </trkpt>
      <trkpt lat="43.0127" lon="0.18734">
        <ele>748.6</ele>
        <time>2023-11-19T15:41:18Z</time>
      </trkpt>
      <trkpt lat="43.0127" lon="0.18731">
        <ele>748.5</ele>
        <time>2023-11-19T15:41:19Z</time>
      </trkpt>
      <trkpt lat="43.01269" lon="0.1873">
        <ele>748.4</ele>
        <time>2023-11-19T15:41:20Z</time>
      </trkpt>
      <trkpt lat="43.01269" lon="0.18729">
        <ele>748.3</ele>
        <time>2023-11-19T15:41:21Z</time>
      </trkpt>
      <trkpt lat="43.01269" lon="0.18729">
        <ele>748.2</ele>
        <time>2023-11-19T15:41:22Z</time>
      </trkpt>
      <trkpt lat="43.01268" lon="0.18727">
        <ele>748.1</ele>
        <time>2023-11-19T15:41:23Z</time>
      </trkpt>
      <trkpt lat="43.01268" lon="0.18726">
        <ele>748</ele>
        <time>2023-11-19T15:41:24Z</time>
      </trkpt>
      <trkpt lat="43.01268" lon="0.18724">
        <ele>747.9</ele>
        <time>2023-11-19T15:41:25Z</time>
      </trkpt>
      <trkpt lat="43.01269" lon="0.18722">
        <ele>747.8</ele>
        <time>2023-11-19T15:41:26Z</time>
      </trkpt>
      <trkpt lat="43.01268" lon="0.18721">
        <ele>747.7</ele>
        <time>2023-11-19T15:41:27Z</time>
      </trkpt>
      <trkpt lat="43.01267" lon="0.1872">
        <ele>747.5</ele>
        <time>2023-11-19T15:41:28Z</time>
      </trkpt>
      <trkpt lat="43.01267" lon="0.1872">
        <ele>747.5</ele>
        <time>2023-11-19T15:41:29Z</time>
      </trkpt>
      <trkpt lat="43.01267" lon="0.18718">
        <ele>747.3</ele>
        <time>2023-11-19T15:41:30Z</time>
      </trkpt>
      <trkpt lat="43.01268" lon="0.18716">
        <ele>747.2</ele>
        <time>2023-11-19T15:41:31Z</time>
      </trkpt>
      <trkpt lat="43.01269" lon="0.18714">
        <ele>747</ele>
        <time>2023-11-19T15:41:32Z</time>
      </trkpt>
      <trkpt lat="43.01269" lon="0.18712">
        <ele>746.8</ele>
        <time>2023-11-19T15:41:33Z</time>
      </trkpt>
      <trkpt lat="43.0127" lon="0.1871">
        <ele>746.7</ele>
        <time>2023-11-19T15:41:34Z</time>
      </trkpt>
      <trkpt lat="43.0127" lon="0.18709">
        <ele>746.6</ele>
        <time>2023-11-19T15:41:35Z</time>
      </trkpt>
      <trkpt lat="43.0127" lon="0.18707">
        <ele>746.4</ele>
        <time>2023-11-19T15:41:36Z</time>
      </trkpt>
      <trkpt lat="43.01271" lon="0.18705">
        <ele>746.2</ele>
        <time>2023-11-19T15:41:37Z</time>
      </trkpt>
      <trkpt lat="43.01271" lon="0.18703">
        <ele>746.1</ele>
        <time>2023-11-19T15:41:38Z</time>
      </trkpt>
      <trkpt lat="43.01271" lon="0.18702">
        <ele>746</ele>
        <time>2023-11-19T15:41:39Z</time>
      </trkpt>
      <trkpt lat="43.01272" lon="0.18699">
        <ele>745.8</ele>
        <time>2023-11-19T15:41:40Z</time>
      </trkpt>
      <trkpt lat="43.01272" lon="0.18698">
        <ele>745.7</ele>
        <time>2023-11-19T15:41:41Z</time>
      </trkpt>
      <trkpt lat="43.01272" lon="0.18695">
        <ele>745.5</ele>
        <time>2023-11-19T15:41:42Z</time>
      </trkpt>
      <trkpt lat="43.01272" lon="0.18694">
        <ele>745.4</ele>
        <time>2023-11-19T15:41:43Z</time>
      </trkpt>
      <trkpt lat="43.01272" lon="0.18693">
        <ele>745.3</ele>
        <time>2023-11-19T15:41:44Z</time>
      </trkpt>
      <trkpt lat="43.01273" lon="0.18692">
        <ele>745.3</ele>
        <time>2023-11-19T15:41:45Z</time>
      </trkpt>
      <trkpt lat="43.01272" lon="0.18691">
        <ele>745.1</ele>
        <time>2023-11-19T15:41:46Z</time>
      </trkpt>
      <trkpt lat="43.01273" lon="0.18689">
        <ele>745</ele>
        <time>2023-11-19T15:41:47Z</time>
      </trkpt>
      <trkpt lat="43.01274" lon="0.18688">
        <ele>744.9</ele>
        <time>2023-11-19T15:41:48Z</time>
      </trkpt>
      <trkpt lat="43.01274" lon="0.18686">
        <ele>744.8</ele>
        <time>2023-11-19T15:41:49Z</time>
      </trkpt>
      <trkpt lat="43.01274" lon="0.18686">
        <ele>744.7</ele>
        <time>2023-11-19T15:41:50Z</time>
      </trkpt>
      <trkpt lat="43.01274" lon="0.18685">
        <ele>744.7</ele>
        <time>2023-11-19T15:41:51Z</time>
      </trkpt>
      <trkpt lat="43.01274" lon="0.18684">
        <ele>744.6</ele>
        <time>2023-11-19T15:41:52Z</time>
      </trkpt>
      <trkpt lat="43.01274" lon="0.18683">
        <ele>744.6</ele>
        <time>2023-11-19T15:41:53Z</time>
      </trkpt>
      <trkpt lat="43.01274" lon="0.18683">
        <ele>744.5</ele>
        <time>2023-11-19T15:41:54Z</time>
      </trkpt>
      <trkpt lat="43.01274" lon="0.18681">
        <ele>744.4</ele>
        <time>2023-11-19T15:41:55Z</time>
      </trkpt>
      <trkpt lat="43.01274" lon="0.18679">
        <ele>744.3</ele>
        <time>2023-11-19T15:41:56Z</time>
      </trkpt>
      <trkpt lat="43.01274" lon="0.18678">
        <ele>744.2</ele>
        <time>2023-11-19T15:41:57Z</time>
      </trkpt>
      <trkpt lat="43.01274" lon="0.18676">
        <ele>744.1</ele>
        <time>2023-11-19T15:41:58Z</time>
      </trkpt>
      <trkpt lat="43.01275" lon="0.18675">
        <ele>744</ele>
        <time>2023-11-19T15:41:59Z</time>
      </trkpt>
      <trkpt lat="43.01275" lon="0.18672">
        <ele>743.8</ele>
        <time>2023-11-19T15:42:00Z</time>
      </trkpt>
      <trkpt lat="43.01277" lon="0.1867">
        <ele>743.6</ele>
        <time>2023-11-19T15:42:01Z</time>
      </trkpt>
      <trkpt lat="43.01278" lon="0.18669">
        <ele>743.4</ele>
        <time>2023-11-19T15:42:02Z</time>
      </trkpt>
      <trkpt lat="43.01278" lon="0.18668">
        <ele>743.3</ele>
        <time>2023-11-19T15:42:03Z</time>
      </trkpt>
      <trkpt lat="43.01279" lon="0.18666">
        <ele>743.2</ele>
        <time>2023-11-19T15:42:04Z</time>
      </trkpt>
      <trkpt lat="43.0128" lon="0.18664">
        <ele>743</ele>
        <time>2023-11-19T15:42:05Z</time>
      </trkpt>
      <trkpt lat="43.0128" lon="0.18662">
        <ele>742.8</ele>
        <time>2023-11-19T15:42:06Z</time>
      </trkpt>
      <trkpt lat="43.01281" lon="0.18661">
        <ele>742.6</ele>
        <time>2023-11-19T15:42:07Z</time>
      </trkpt>
      <trkpt lat="43.01283" lon="0.18659">
        <ele>742.4</ele>
        <time>2023-11-19T15:42:08Z</time>
      </trkpt>
      <trkpt lat="43.01283" lon="0.18657">
        <ele>742.2</ele>
        <time>2023-11-19T15:42:09Z</time>
      </trkpt>
      <trkpt lat="43.01283" lon="0.18656">
        <ele>742.1</ele>
        <time>2023-11-19T15:42:10Z</time>
      </trkpt>
      <trkpt lat="43.01284" lon="0.18655">
        <ele>741.9</ele>
        <time>2023-11-19T15:42:11Z</time>
      </trkpt>
      <trkpt lat="43.01285" lon="0.18653">
        <ele>741.7</ele>
        <time>2023-11-19T15:42:12Z</time>
      </trkpt>
      <trkpt lat="43.01286" lon="0.18652">
        <ele>741.6</ele>
        <time>2023-11-19T15:42:13Z</time>
      </trkpt>
      <trkpt lat="43.01287" lon="0.18651">
        <ele>741.4</ele>
        <time>2023-11-19T15:42:14Z</time>
      </trkpt>
      <trkpt lat="43.01288" lon="0.18649">
        <ele>741.2</ele>
        <time>2023-11-19T15:42:15Z</time>
      </trkpt>
      <trkpt lat="43.01289" lon="0.18647">
        <ele>740.9</ele>
        <time>2023-11-19T15:42:16Z</time>
      </trkpt>
      <trkpt lat="43.01289" lon="0.18645">
        <ele>740.8</ele>
        <time>2023-11-19T15:42:17Z</time>
      </trkpt>
      <trkpt lat="43.0129" lon="0.18644">
        <ele>740.6</ele>
        <time>2023-11-19T15:42:18Z</time>
      </trkpt>
      <trkpt lat="43.01291" lon="0.18643">
        <ele>740.5</ele>
        <time>2023-11-19T15:42:19Z</time>
      </trkpt>
      <trkpt lat="43.01292" lon="0.18642">
        <ele>740.3</ele>
        <time>2023-11-19T15:42:20Z</time>
      </trkpt>
      <trkpt lat="43.01292" lon="0.18641">
        <ele>740.2</ele>
        <time>2023-11-19T15:42:21Z</time>
      </trkpt>
      <trkpt lat="43.01293" lon="0.1864">
        <ele>740.1</ele>
        <time>2023-11-19T15:42:22Z</time>
      </trkpt>
      <trkpt lat="43.01293" lon="0.18638">
        <ele>739.9</ele>
        <time>2023-11-19T15:42:23Z</time>
      </trkpt>
      <trkpt lat="43.01294" lon="0.18636">
        <ele>739.6</ele>
        <time>2023-11-19T15:42:24Z</time>
      </trkpt>
      <trkpt lat="43.01295" lon="0.18635">
        <ele>739.6</ele>
        <time>2023-11-19T15:42:25Z</time>
      </trkpt>
      <trkpt lat="43.01295" lon="0.18635">
        <ele>739.5</ele>
        <time>2023-11-19T15:42:26Z</time>
      </trkpt>
      <trkpt lat="43.01296" lon="0.18634">
        <ele>739.3</ele>
        <time>2023-11-19T15:42:27Z</time>
      </trkpt>
      <trkpt lat="43.01296" lon="0.18632">
        <ele>739.2</ele>
        <time>2023-11-19T15:42:28Z</time>
      </trkpt>
      <trkpt lat="43.01297" lon="0.1863">
        <ele>738.9</ele>
        <time>2023-11-19T15:42:29Z</time>
      </trkpt>
      <trkpt lat="43.01298" lon="0.18629">
        <ele>738.8</ele>
        <time>2023-11-19T15:42:30Z</time>
      </trkpt>
      <trkpt lat="43.01298" lon="0.18628">
        <ele>738.6</ele>
        <time>2023-11-19T15:42:31Z</time>
      </trkpt>
      <trkpt lat="43.01299" lon="0.18627">
        <ele>738.5</ele>
        <time>2023-11-19T15:42:32Z</time>
      </trkpt>
      <trkpt lat="43.013" lon="0.18626">
        <ele>738.4</ele>
        <time>2023-11-19T15:42:33Z</time>
      </trkpt>
      <trkpt lat="43.013" lon="0.18625">
        <ele>738.3</ele>
        <time>2023-11-19T15:42:34Z</time>
      </trkpt>
      <trkpt lat="43.013" lon="0.18624">
        <ele>738.2</ele>
        <time>2023-11-19T15:42:35Z</time>
      </trkpt>
      <trkpt lat="43.01304" lon="0.18619">
        <ele>737.6</ele>
        <time>2023-11-19T15:42:36Z</time>
      </trkpt>
      <trkpt lat="43.01305" lon="0.18615">
        <ele>737.2</ele>
        <time>2023-11-19T15:42:37Z</time>
      </trkpt>
      <trkpt lat="43.01303" lon="0.18619">
        <ele>736.8</ele>
        <time>2023-11-19T15:42:38Z</time>
      </trkpt>
      <trkpt lat="43.01303" lon="0.18619">
        <ele>736.7</ele>
        <time>2023-11-19T15:42:39Z</time>
      </trkpt>
      <trkpt lat="43.01303" lon="0.18618">
        <ele>736.6</ele>
        <time>2023-11-19T15:42:40Z</time>
      </trkpt>
      <trkpt lat="43.01304" lon="0.18617">
        <ele>736.6</ele>
        <time>2023-11-19T15:42:41Z</time>
      </trkpt>
      <trkpt lat="43.01304" lon="0.18617">
        <ele>736.6</ele>
        <time>2023-11-19T15:42:42Z</time>
      </trkpt>
      <trkpt lat="43.01305" lon="0.18616">
        <ele>736.4</ele>
        <time>2023-11-19T15:42:43Z</time>
      </trkpt>
      <trkpt lat="43.01305" lon="0.18615">
        <ele>736.3</ele>
        <time>2023-11-19T15:42:44Z</time>
      </trkpt>
      <trkpt lat="43.01306" lon="0.18613">
        <ele>736.2</ele>
        <time>2023-11-19T15:42:45Z</time>
      </trkpt>
      <trkpt lat="43.01306" lon="0.18612">
        <ele>736.1</ele>
        <time>2023-11-19T15:42:46Z</time>
      </trkpt>
      <trkpt lat="43.01308" lon="0.1861">
        <ele>735.9</ele>
        <time>2023-11-19T15:42:47Z</time>
      </trkpt>
      <trkpt lat="43.01308" lon="0.18609">
        <ele>735.8</ele>
        <time>2023-11-19T15:42:49Z</time>
      </trkpt>
      <trkpt lat="43.01309" lon="0.18608">
        <ele>735.7</ele>
        <time>2023-11-19T15:42:50Z</time>
      </trkpt>
      <trkpt lat="43.0131" lon="0.18606">
        <ele>735.5</ele>
        <time>2023-11-19T15:42:51Z</time>
      </trkpt>
      <trkpt lat="43.01311" lon="0.18605">
        <ele>735.4</ele>
        <time>2023-11-19T15:42:52Z</time>
      </trkpt>
      <trkpt lat="43.01312" lon="0.18603">
        <ele>735.2</ele>
        <time>2023-11-19T15:42:53Z</time>
      </trkpt>
      <trkpt lat="43.01313" lon="0.18601">
        <ele>735.1</ele>
        <time>2023-11-19T15:42:54Z</time>
      </trkpt>
      <trkpt lat="43.01314" lon="0.186">
        <ele>735</ele>
        <time>2023-11-19T15:42:55Z</time>
      </trkpt>
      <trkpt lat="43.01315" lon="0.18599">
        <ele>735</ele>
        <time>2023-11-19T15:42:56Z</time>
      </trkpt>
      <trkpt lat="43.01315" lon="0.18598">
        <ele>734.9</ele>
        <time>2023-11-19T15:42:57Z</time>
      </trkpt>
      <trkpt lat="43.01316" lon="0.18597">
        <ele>734.8</ele>
        <time>2023-11-19T15:42:58Z</time>
      </trkpt>
      <trkpt lat="43.01317" lon="0.18597">
        <ele>734.7</ele>
        <time>2023-11-19T15:42:59Z</time>
      </trkpt>
      <trkpt lat="43.01317" lon="0.18596">
        <ele>734.7</ele>
        <time>2023-11-19T15:43:00Z</time>
      </trkpt>
      <trkpt lat="43.01318" lon="0.18595">
        <ele>734.6</ele>
        <time>2023-11-19T15:43:01Z</time>
      </trkpt>
      <trkpt lat="43.01319" lon="0.18593">
        <ele>734.4</ele>
        <time>2023-11-19T15:43:02Z</time>
      </trkpt>
      <trkpt lat="43.01321" lon="0.1859">
        <ele>734.2</ele>
        <time>2023-11-19T15:43:03Z</time>
      </trkpt>
      <trkpt lat="43.01322" lon="0.18588">
        <ele>734.1</ele>
        <time>2023-11-19T15:43:04Z</time>
      </trkpt>
      <trkpt lat="43.01323" lon="0.18587">
        <ele>734</ele>
        <time>2023-11-19T15:43:05Z</time>
      </trkpt>
      <trkpt lat="43.01325" lon="0.18585">
        <ele>733.9</ele>
        <time>2023-11-19T15:43:06Z</time>
      </trkpt>
      <trkpt lat="43.01326" lon="0.18583">
        <ele>733.8</ele>
        <time>2023-11-19T15:43:07Z</time>
      </trkpt>
      <trkpt lat="43.01327" lon="0.18582">
        <ele>733.7</ele>
        <time>2023-11-19T15:43:08Z</time>
      </trkpt>
      <trkpt lat="43.01328" lon="0.1858">
        <ele>733.6</ele>
        <time>2023-11-19T15:43:09Z</time>
      </trkpt>
      <trkpt lat="43.01329" lon="0.18578">
        <ele>733.5</ele>
        <time>2023-11-19T15:43:10Z</time>
      </trkpt>
      <trkpt lat="43.01332" lon="0.18576">
        <ele>733.3</ele>
        <time>2023-11-19T15:43:11Z</time>
      </trkpt>
      <trkpt lat="43.01333" lon="0.18575">
        <ele>733.3</ele>
        <time>2023-11-19T15:43:12Z</time>
      </trkpt>
      <trkpt lat="43.01334" lon="0.18573">
        <ele>733.2</ele>
        <time>2023-11-19T15:43:13Z</time>
      </trkpt>
      <trkpt lat="43.01335" lon="0.18572">
        <ele>733.1</ele>
        <time>2023-11-19T15:43:14Z</time>
      </trkpt>
      <trkpt lat="43.01337" lon="0.1857">
        <ele>733</ele>
        <time>2023-11-19T15:43:15Z</time>
      </trkpt>
      <trkpt lat="43.01338" lon="0.18569">
        <ele>733</ele>
        <time>2023-11-19T15:43:16Z</time>
      </trkpt>
      <trkpt lat="43.01338" lon="0.18567">
        <ele>732.9</ele>
        <time>2023-11-19T15:43:17Z</time>
      </trkpt>
      <trkpt lat="43.0134" lon="0.18567">
        <ele>732.9</ele>
        <time>2023-11-19T15:43:18Z</time>
      </trkpt>
      <trkpt lat="43.01342" lon="0.18565">
        <ele>732.8</ele>
        <time>2023-11-19T15:43:19Z</time>
      </trkpt>
      <trkpt lat="43.01342" lon="0.18565">
        <ele>732.8</ele>
        <time>2023-11-19T15:43:20Z</time>
      </trkpt>
      <trkpt lat="43.01343" lon="0.18564">
        <ele>732.8</ele>
        <time>2023-11-19T15:43:21Z</time>
      </trkpt>
      <trkpt lat="43.01344" lon="0.18563">
        <ele>732.7</ele>
        <time>2023-11-19T15:43:22Z</time>
      </trkpt>
      <trkpt lat="43.01345" lon="0.1856">
        <ele>732.7</ele>
        <time>2023-11-19T15:43:23Z</time>
      </trkpt>
      <trkpt lat="43.01346" lon="0.18558">
        <ele>732.7</ele>
        <time>2023-11-19T15:43:24Z</time>
      </trkpt>
      <trkpt lat="43.01347" lon="0.18557">
        <ele>732.6</ele>
        <time>2023-11-19T15:43:25Z</time>
      </trkpt>
      <trkpt lat="43.01349" lon="0.18556">
        <ele>732.6</ele>
        <time>2023-11-19T15:43:26Z</time>
      </trkpt>
      <trkpt lat="43.0135" lon="0.18556">
        <ele>732.6</ele>
        <time>2023-11-19T15:43:27Z</time>
      </trkpt>
      <trkpt lat="43.01351" lon="0.18554">
        <ele>732.6</ele>
        <time>2023-11-19T15:43:28Z</time>
      </trkpt>
      <trkpt lat="43.01352" lon="0.18553">
        <ele>732.5</ele>
        <time>2023-11-19T15:43:29Z</time>
      </trkpt>
      <trkpt lat="43.01353" lon="0.18551">
        <ele>732.5</ele>
        <time>2023-11-19T15:43:30Z</time>
      </trkpt>
      <trkpt lat="43.01355" lon="0.1855">
        <ele>732.5</ele>
        <time>2023-11-19T15:43:31Z</time>
      </trkpt>
      <trkpt lat="43.01357" lon="0.18549">
        <ele>732.4</ele>
        <time>2023-11-19T15:43:32Z</time>
      </trkpt>
      <trkpt lat="43.01358" lon="0.18549">
        <ele>732.4</ele>
        <time>2023-11-19T15:43:33Z</time>
      </trkpt>
      <trkpt lat="43.01359" lon="0.18548">
        <ele>732.4</ele>
        <time>2023-11-19T15:43:34Z</time>
      </trkpt>
      <trkpt lat="43.01359" lon="0.18547">
        <ele>732.3</ele>
        <time>2023-11-19T15:43:35Z</time>
      </trkpt>
      <trkpt lat="43.0136" lon="0.18545">
        <ele>732.3</ele>
        <time>2023-11-19T15:43:36Z</time>
      </trkpt>
      <trkpt lat="43.01362" lon="0.18543">
        <ele>732.2</ele>
        <time>2023-11-19T15:43:37Z</time>
      </trkpt>
      <trkpt lat="43.01363" lon="0.18543">
        <ele>732.2</ele>
        <time>2023-11-19T15:43:38Z</time>
      </trkpt>
      <trkpt lat="43.01364" lon="0.18543">
        <ele>732.1</ele>
        <time>2023-11-19T15:43:39Z</time>
      </trkpt>
      <trkpt lat="43.01365" lon="0.18542">
        <ele>732.1</ele>
        <time>2023-11-19T15:43:40Z</time>
      </trkpt>
      <trkpt lat="43.01366" lon="0.18541">
        <ele>732</ele>
        <time>2023-11-19T15:43:41Z</time>
      </trkpt>
      <trkpt lat="43.01368" lon="0.1854">
        <ele>731.9</ele>
        <time>2023-11-19T15:43:42Z</time>
      </trkpt>
      <trkpt lat="43.01369" lon="0.1854">
        <ele>731.8</ele>
        <time>2023-11-19T15:43:43Z</time>
      </trkpt>
      <trkpt lat="43.0137" lon="0.1854">
        <ele>731.8</ele>
        <time>2023-11-19T15:43:44Z</time>
      </trkpt>
      <trkpt lat="43.01371" lon="0.18538">
        <ele>731.6</ele>
        <time>2023-11-19T15:43:45Z</time>
      </trkpt>
      <trkpt lat="43.01372" lon="0.18537">
        <ele>731.5</ele>
        <time>2023-11-19T15:43:46Z</time>
      </trkpt>
      <trkpt lat="43.01373" lon="0.18535">
        <ele>731.3</ele>
        <time>2023-11-19T15:43:47Z</time>
      </trkpt>
      <trkpt lat="43.01373" lon="0.18533">
        <ele>731.2</ele>
        <time>2023-11-19T15:43:48Z</time>
      </trkpt>
      <trkpt lat="43.01374" lon="0.18531">
        <ele>731.1</ele>
        <time>2023-11-19T15:43:49Z</time>
      </trkpt>
      <trkpt lat="43.01374" lon="0.18529">
        <ele>731</ele>
        <time>2023-11-19T15:43:50Z</time>
      </trkpt>
      <trkpt lat="43.01375" lon="0.18528">
        <ele>730.9</ele>
        <time>2023-11-19T15:43:51Z</time>
      </trkpt>
      <trkpt lat="43.01375" lon="0.18526">
        <ele>730.7</ele>
        <time>2023-11-19T15:43:52Z</time>
      </trkpt>
      <trkpt lat="43.01375" lon="0.18525">
        <ele>730.6</ele>
        <time>2023-11-19T15:43:53Z</time>
      </trkpt>
      <trkpt lat="43.01376" lon="0.18522">
        <ele>730.4</ele>
        <time>2023-11-19T15:43:54Z</time>
      </trkpt>
      <trkpt lat="43.01377" lon="0.18521">
        <ele>730.3</ele>
        <time>2023-11-19T15:43:55Z</time>
      </trkpt>
      <trkpt lat="43.01377" lon="0.1852">
        <ele>730.2</ele>
        <time>2023-11-19T15:43:56Z</time>
      </trkpt>
      <trkpt lat="43.01378" lon="0.18519">
        <ele>730.1</ele>
        <time>2023-11-19T15:43:57Z</time>
      </trkpt>
      <trkpt lat="43.01379" lon="0.18518">
        <ele>729.9</ele>
        <time>2023-11-19T15:43:58Z</time>
      </trkpt>
      <trkpt lat="43.0138" lon="0.18516">
        <ele>729.8</ele>
        <time>2023-11-19T15:43:59Z</time>
      </trkpt>
      <trkpt lat="43.0138" lon="0.18515">
        <ele>729.7</ele>
        <time>2023-11-19T15:44:00Z</time>
      </trkpt>
      <trkpt lat="43.01381" lon="0.18514">
        <ele>729.6</ele>
        <time>2023-11-19T15:44:01Z</time>
      </trkpt>
      <trkpt lat="43.01382" lon="0.18512">
        <ele>729.4</ele>
        <time>2023-11-19T15:44:02Z</time>
      </trkpt>
      <trkpt lat="43.01383" lon="0.18511">
        <ele>729.3</ele>
        <time>2023-11-19T15:44:03Z</time>
      </trkpt>
      <trkpt lat="43.01383" lon="0.18509">
        <ele>729.1</ele>
        <time>2023-11-19T15:44:04Z</time>
      </trkpt>
      <trkpt lat="43.01384" lon="0.18507">
        <ele>729</ele>
        <time>2023-11-19T15:44:05Z</time>
      </trkpt>
      <trkpt lat="43.01385" lon="0.18507">
        <ele>728.9</ele>
        <time>2023-11-19T15:44:06Z</time>
      </trkpt>
      <trkpt lat="43.01386" lon="0.18507">
        <ele>728.8</ele>
        <time>2023-11-19T15:44:07Z</time>
      </trkpt>
      <trkpt lat="43.01387" lon="0.18506">
        <ele>728.7</ele>
        <time>2023-11-19T15:44:08Z</time>
      </trkpt>
      <trkpt lat="43.01389" lon="0.18503">
        <ele>728.4</ele>
        <time>2023-11-19T15:44:09Z</time>
      </trkpt>
      <trkpt lat="43.01389" lon="0.18502">
        <ele>728.3</ele>
        <time>2023-11-19T15:44:10Z</time>
      </trkpt>
      <trkpt lat="43.0139" lon="0.18499">
        <ele>728</ele>
        <time>2023-11-19T15:44:11Z</time>
      </trkpt>
      <trkpt lat="43.01391" lon="0.18497">
        <ele>727.9</ele>
        <time>2023-11-19T15:44:12Z</time>
      </trkpt>
      <trkpt lat="43.01392" lon="0.18496">
        <ele>727.8</ele>
        <time>2023-11-19T15:44:13Z</time>
      </trkpt>
      <trkpt lat="43.01393" lon="0.18494">
        <ele>727.6</ele>
        <time>2023-11-19T15:44:14Z</time>
      </trkpt>
      <trkpt lat="43.01394" lon="0.18493">
        <ele>727.4</ele>
        <time>2023-11-19T15:44:15Z</time>
      </trkpt>
      <trkpt lat="43.01395" lon="0.18491">
        <ele>727.3</ele>
        <time>2023-11-19T15:44:16Z</time>
      </trkpt>
      <trkpt lat="43.01396" lon="0.18489">
        <ele>727.1</ele>
        <time>2023-11-19T15:44:17Z</time>
      </trkpt>
      <trkpt lat="43.01397" lon="0.18488">
        <ele>727</ele>
        <time>2023-11-19T15:44:18Z</time>
      </trkpt>
      <trkpt lat="43.01397" lon="0.18487">
        <ele>726.9</ele>
        <time>2023-11-19T15:44:19Z</time>
      </trkpt>
      <trkpt lat="43.01399" lon="0.18486">
        <ele>726.7</ele>
        <time>2023-11-19T15:44:20Z</time>
      </trkpt>
      <trkpt lat="43.014" lon="0.18485">
        <ele>726.5</ele>
        <time>2023-11-19T15:44:21Z</time>
      </trkpt>
      <trkpt lat="43.01401" lon="0.18481">
        <ele>726.2</ele>
        <time>2023-11-19T15:44:22Z</time>
      </trkpt>
      <trkpt lat="43.01401" lon="0.18479">
        <ele>726</ele>
        <time>2023-11-19T15:44:23Z</time>
      </trkpt>
      <trkpt lat="43.01403" lon="0.18478">
        <ele>725.8</ele>
        <time>2023-11-19T15:44:24Z</time>
      </trkpt>
      <trkpt lat="43.01404" lon="0.18477">
        <ele>725.6</ele>
        <time>2023-11-19T15:44:25Z</time>
      </trkpt>
      <trkpt lat="43.01405" lon="0.18474">
        <ele>725.2</ele>
        <time>2023-11-19T15:44:26Z</time>
      </trkpt>
      <trkpt lat="43.01406" lon="0.18473">
        <ele>725.1</ele>
        <time>2023-11-19T15:44:27Z</time>
      </trkpt>
      <trkpt lat="43.01407" lon="0.18471">
        <ele>724.9</ele>
        <time>2023-11-19T15:44:28Z</time>
      </trkpt>
      <trkpt lat="43.01407" lon="0.18469">
        <ele>724.7</ele>
        <time>2023-11-19T15:44:29Z</time>
      </trkpt>
      <trkpt lat="43.01408" lon="0.18468">
        <ele>724.5</ele>
        <time>2023-11-19T15:44:30Z</time>
      </trkpt>
      <trkpt lat="43.01409" lon="0.18466">
        <ele>724.2</ele>
        <time>2023-11-19T15:44:31Z</time>
      </trkpt>
      <trkpt lat="43.01409" lon="0.18464">
        <ele>724</ele>
        <time>2023-11-19T15:44:32Z</time>
      </trkpt>
      <trkpt lat="43.01409" lon="0.18463">
        <ele>723.9</ele>
        <time>2023-11-19T15:44:33Z</time>
      </trkpt>
      <trkpt lat="43.01409" lon="0.18463">
        <ele>723.8</ele>
        <time>2023-11-19T15:44:34Z</time>
      </trkpt>
      <trkpt lat="43.0141" lon="0.18464">
        <ele>723.6</ele>
        <time>2023-11-19T15:44:35Z</time>
      </trkpt>
      <trkpt lat="43.0141" lon="0.18465">
        <ele>723.5</ele>
        <time>2023-11-19T15:44:36Z</time>
      </trkpt>
      <trkpt lat="43.01409" lon="0.18463">
        <ele>723.3</ele>
        <time>2023-11-19T15:44:37Z</time>
      </trkpt>
      <trkpt lat="43.0141" lon="0.18463">
        <ele>723.3</ele>
        <time>2023-11-19T15:44:38Z</time>
      </trkpt>
      <trkpt lat="43.01409" lon="0.18463">
        <ele>723.2</ele>
        <time>2023-11-19T15:44:39Z</time>
      </trkpt>
      <trkpt lat="43.01409" lon="0.18463">
        <ele>723.2</ele>
        <time>2023-11-19T15:44:40Z</time>
      </trkpt>
      <trkpt lat="43.01409" lon="0.18463">
        <ele>723.2</ele>
        <time>2023-11-19T15:44:41Z</time>
      </trkpt>
      <trkpt lat="43.01409" lon="0.18463">
        <ele>723.2</ele>
        <time>2023-11-19T15:44:42Z</time>
      </trkpt>
      <trkpt lat="43.0141" lon="0.18462">
        <ele>723</ele>
        <time>2023-11-19T15:44:43Z</time>
      </trkpt>
      <trkpt lat="43.0141" lon="0.18461">
        <ele>722.8</ele>
        <time>2023-11-19T15:44:44Z</time>
      </trkpt>
      <trkpt lat="43.01411" lon="0.1846">
        <ele>722.7</ele>
        <time>2023-11-19T15:44:45Z</time>
      </trkpt>
      <trkpt lat="43.01411" lon="0.18459">
        <ele>722.6</ele>
        <time>2023-11-19T15:44:46Z</time>
      </trkpt>
      <trkpt lat="43.01411" lon="0.18458">
        <ele>722.5</ele>
        <time>2023-11-19T15:44:47Z</time>
      </trkpt>
      <trkpt lat="43.01411" lon="0.18457">
        <ele>722.3</ele>
        <time>2023-11-19T15:44:48Z</time>
      </trkpt>
      <trkpt lat="43.01411" lon="0.18456">
        <ele>722.2</ele>
        <time>2023-11-19T15:44:49Z</time>
      </trkpt>
      <trkpt lat="43.01412" lon="0.18454">
        <ele>721.7</ele>
        <time>2023-11-19T15:44:50Z</time>
      </trkpt>
      <trkpt lat="43.01412" lon="0.18453">
        <ele>721.6</ele>
        <time>2023-11-19T15:44:51Z</time>
      </trkpt>
      <trkpt lat="43.01413" lon="0.18452">
        <ele>721.5</ele>
        <time>2023-11-19T15:44:52Z</time>
      </trkpt>
      <trkpt lat="43.01413" lon="0.18452">
        <ele>721.4</ele>
        <time>2023-11-19T15:44:53Z</time>
      </trkpt>
      <trkpt lat="43.01414" lon="0.1845">
        <ele>721</ele>
        <time>2023-11-19T15:44:54Z</time>
      </trkpt>
      <trkpt lat="43.01415" lon="0.18448">
        <ele>720.6</ele>
        <time>2023-11-19T15:44:55Z</time>
      </trkpt>
      <trkpt lat="43.01416" lon="0.18447">
        <ele>720.3</ele>
        <time>2023-11-19T15:44:56Z</time>
      </trkpt>
      <trkpt lat="43.01416" lon="0.18444">
        <ele>719.8</ele>
        <time>2023-11-19T15:44:57Z</time>
      </trkpt>
      <trkpt lat="43.01417" lon="0.18442">
        <ele>719.4</ele>
        <time>2023-11-19T15:44:58Z</time>
      </trkpt>
      <trkpt lat="43.01417" lon="0.1844">
        <ele>719.1</ele>
        <time>2023-11-19T15:44:59Z</time>
      </trkpt>
      <trkpt lat="43.01417" lon="0.18438">
        <ele>718.8</ele>
        <time>2023-11-19T15:45:00Z</time>
      </trkpt>
      <trkpt lat="43.01419" lon="0.18436">
        <ele>718.5</ele>
        <time>2023-11-19T15:45:01Z</time>
      </trkpt>
      <trkpt lat="43.0142" lon="0.18435">
        <ele>718.1</ele>
        <time>2023-11-19T15:45:02Z</time>
      </trkpt>
      <trkpt lat="43.01421" lon="0.18434">
        <ele>717.8</ele>
        <time>2023-11-19T15:45:03Z</time>
      </trkpt>
      <trkpt lat="43.01422" lon="0.18431">
        <ele>717.3</ele>
        <time>2023-11-19T15:45:04Z</time>
      </trkpt>
      <trkpt lat="43.01423" lon="0.18431">
        <ele>717.1</ele>
        <time>2023-11-19T15:45:05Z</time>
      </trkpt>
      <trkpt lat="43.01423" lon="0.18431">
        <ele>717</ele>
        <time>2023-11-19T15:45:06Z</time>
      </trkpt>
      <trkpt lat="43.01424" lon="0.1843">
        <ele>716.9</ele>
        <time>2023-11-19T15:45:07Z</time>
      </trkpt>
      <trkpt lat="43.01423" lon="0.1843">
        <ele>716.8</ele>
        <time>2023-11-19T15:45:08Z</time>
      </trkpt>
      <trkpt lat="43.01423" lon="0.1843">
        <ele>716.7</ele>
        <time>2023-11-19T15:45:09Z</time>
      </trkpt>
      <trkpt lat="43.01423" lon="0.1843">
        <ele>716.7</ele>
        <time>2023-11-19T15:45:10Z</time>
      </trkpt>
      <trkpt lat="43.01424" lon="0.18429">
        <ele>716.5</ele>
        <time>2023-11-19T15:45:11Z</time>
      </trkpt>
      <trkpt lat="43.01423" lon="0.18428">
        <ele>716.3</ele>
        <time>2023-11-19T15:45:12Z</time>
      </trkpt>
      <trkpt lat="43.01423" lon="0.18427">
        <ele>716</ele>
        <time>2023-11-19T15:45:13Z</time>
      </trkpt>
      <trkpt lat="43.01424" lon="0.18426">
        <ele>715.7</ele>
        <time>2023-11-19T15:45:14Z</time>
      </trkpt>
      <trkpt lat="43.01424" lon="0.18425">
        <ele>715.6</ele>
        <time>2023-11-19T15:45:15Z</time>
      </trkpt>
      <trkpt lat="43.01426" lon="0.18424">
        <ele>715.2</ele>
        <time>2023-11-19T15:45:16Z</time>
      </trkpt>
      <trkpt lat="43.01428" lon="0.18423">
        <ele>714.8</ele>
        <time>2023-11-19T15:45:17Z</time>
      </trkpt>
      <trkpt lat="43.01428" lon="0.18422">
        <ele>714.6</ele>
        <time>2023-11-19T15:45:18Z</time>
      </trkpt>
      <trkpt lat="43.01428" lon="0.18422">
        <ele>714.4</ele>
        <time>2023-11-19T15:45:19Z</time>
      </trkpt>
      <trkpt lat="43.01429" lon="0.1842">
        <ele>714.2</ele>
        <time>2023-11-19T15:45:20Z</time>
      </trkpt>
      <trkpt lat="43.01429" lon="0.18419">
        <ele>714</ele>
        <time>2023-11-19T15:45:21Z</time>
      </trkpt>
      <trkpt lat="43.01429" lon="0.18418">
        <ele>713.8</ele>
        <time>2023-11-19T15:45:22Z</time>
      </trkpt>
      <trkpt lat="43.01429" lon="0.18418">
        <ele>713.6</ele>
        <time>2023-11-19T15:45:23Z</time>
      </trkpt>
      <trkpt lat="43.0143" lon="0.18416">
        <ele>713.3</ele>
        <time>2023-11-19T15:45:24Z</time>
      </trkpt>
      <trkpt lat="43.0143" lon="0.18416">
        <ele>713.1</ele>
        <time>2023-11-19T15:45:25Z</time>
      </trkpt>
      <trkpt lat="43.01431" lon="0.18414">
        <ele>712.8</ele>
        <time>2023-11-19T15:45:26Z</time>
      </trkpt>
      <trkpt lat="43.01432" lon="0.18413">
        <ele>712.6</ele>
        <time>2023-11-19T15:45:27Z</time>
      </trkpt>
      <trkpt lat="43.01433" lon="0.18411">
        <ele>712.1</ele>
        <time>2023-11-19T15:45:28Z</time>
      </trkpt>
      <trkpt lat="43.01434" lon="0.18409">
        <ele>711.7</ele>
        <time>2023-11-19T15:45:29Z</time>
      </trkpt>
      <trkpt lat="43.01436" lon="0.18408">
        <ele>711.4</ele>
        <time>2023-11-19T15:45:30Z</time>
      </trkpt>
      <trkpt lat="43.01437" lon="0.18406">
        <ele>711</ele>
        <time>2023-11-19T15:45:31Z</time>
      </trkpt>
      <trkpt lat="43.01437" lon="0.18404">
        <ele>710.6</ele>
        <time>2023-11-19T15:45:32Z</time>
      </trkpt>
      <trkpt lat="43.01438" lon="0.18402">
        <ele>710.3</ele>
        <time>2023-11-19T15:45:33Z</time>
      </trkpt>
      <trkpt lat="43.01439" lon="0.18401">
        <ele>709.9</ele>
        <time>2023-11-19T15:45:34Z</time>
      </trkpt>
      <trkpt lat="43.0144" lon="0.18399">
        <ele>709.5</ele>
        <time>2023-11-19T15:45:35Z</time>
      </trkpt>
      <trkpt lat="43.01441" lon="0.18398">
        <ele>709.3</ele>
        <time>2023-11-19T15:45:36Z</time>
      </trkpt>
      <trkpt lat="43.01442" lon="0.18395">
        <ele>708.9</ele>
        <time>2023-11-19T15:45:37Z</time>
      </trkpt>
      <trkpt lat="43.01442" lon="0.18394">
        <ele>708.7</ele>
        <time>2023-11-19T15:45:38Z</time>
      </trkpt>
      <trkpt lat="43.01443" lon="0.18392">
        <ele>708.5</ele>
        <time>2023-11-19T15:45:39Z</time>
      </trkpt>
      <trkpt lat="43.01444" lon="0.18389">
        <ele>708</ele>
        <time>2023-11-19T15:45:40Z</time>
      </trkpt>
      <trkpt lat="43.01445" lon="0.18388">
        <ele>707.8</ele>
        <time>2023-11-19T15:45:41Z</time>
      </trkpt>
      <trkpt lat="43.01445" lon="0.18387">
        <ele>707.6</ele>
        <time>2023-11-19T15:45:42Z</time>
      </trkpt>
      <trkpt lat="43.01447" lon="0.18385">
        <ele>707.2</ele>
        <time>2023-11-19T15:45:43Z</time>
      </trkpt>
      <trkpt lat="43.01448" lon="0.18383">
        <ele>706.9</ele>
        <time>2023-11-19T15:45:44Z</time>
      </trkpt>
      <trkpt lat="43.01449" lon="0.18381">
        <ele>706.7</ele>
        <time>2023-11-19T15:45:45Z</time>
      </trkpt>
      <trkpt lat="43.0145" lon="0.18376">
        <ele>706.1</ele>
        <time>2023-11-19T15:45:46Z</time>
      </trkpt>
      <trkpt lat="43.0145" lon="0.18375">
        <ele>705.9</ele>
        <time>2023-11-19T15:45:47Z</time>
      </trkpt>
      <trkpt lat="43.01451" lon="0.18374">
        <ele>705.7</ele>
        <time>2023-11-19T15:45:48Z</time>
      </trkpt>
      <trkpt lat="43.01452" lon="0.18371">
        <ele>705.4</ele>
        <time>2023-11-19T15:45:49Z</time>
      </trkpt>
      <trkpt lat="43.01453" lon="0.1837">
        <ele>705.2</ele>
        <time>2023-11-19T15:45:50Z</time>
      </trkpt>
      <trkpt lat="43.01455" lon="0.18372">
        <ele>704.8</ele>
        <time>2023-11-19T15:45:51Z</time>
      </trkpt>
      <trkpt lat="43.01454" lon="0.18369">
        <ele>704.4</ele>
        <time>2023-11-19T15:45:52Z</time>
      </trkpt>
      <trkpt lat="43.01455" lon="0.18367">
        <ele>704.1</ele>
        <time>2023-11-19T15:45:53Z</time>
      </trkpt>
      <trkpt lat="43.01456" lon="0.18365">
        <ele>703.8</ele>
        <time>2023-11-19T15:45:54Z</time>
      </trkpt>
      <trkpt lat="43.01457" lon="0.18364">
        <ele>703.6</ele>
        <time>2023-11-19T15:45:55Z</time>
      </trkpt>
      <trkpt lat="43.01458" lon="0.18362">
        <ele>703.4</ele>
        <time>2023-11-19T15:45:56Z</time>
      </trkpt>
      <trkpt lat="43.0146" lon="0.18359">
        <ele>702.9</ele>
        <time>2023-11-19T15:45:57Z</time>
      </trkpt>
      <trkpt lat="43.0146" lon="0.18357">
        <ele>702.6</ele>
        <time>2023-11-19T15:45:58Z</time>
      </trkpt>
      <trkpt lat="43.01462" lon="0.18353">
        <ele>702</ele>
        <time>2023-11-19T15:45:59Z</time>
      </trkpt>
      <trkpt lat="43.01463" lon="0.18351">
        <ele>701.7</ele>
        <time>2023-11-19T15:46:00Z</time>
      </trkpt>
      <trkpt lat="43.01466" lon="0.18349">
        <ele>701.2</ele>
        <time>2023-11-19T15:46:01Z</time>
      </trkpt>
      <trkpt lat="43.01468" lon="0.18348">
        <ele>701</ele>
        <time>2023-11-19T15:46:02Z</time>
      </trkpt>
      <trkpt lat="43.01468" lon="0.18344">
        <ele>700.5</ele>
        <time>2023-11-19T15:46:03Z</time>
      </trkpt>
      <trkpt lat="43.01469" lon="0.18343">
        <ele>700.3</ele>
        <time>2023-11-19T15:46:04Z</time>
      </trkpt>
      <trkpt lat="43.0147" lon="0.18341">
        <ele>700</ele>
        <time>2023-11-19T15:46:05Z</time>
      </trkpt>
      <trkpt lat="43.01472" lon="0.1834">
        <ele>699.8</ele>
        <time>2023-11-19T15:46:06Z</time>
      </trkpt>
      <trkpt lat="43.01475" lon="0.18338">
        <ele>699.4</ele>
        <time>2023-11-19T15:46:07Z</time>
      </trkpt>
      <trkpt lat="43.01476" lon="0.18337">
        <ele>699.2</ele>
        <time>2023-11-19T15:46:08Z</time>
      </trkpt>
      <trkpt lat="43.01476" lon="0.18333">
        <ele>698.8</ele>
        <time>2023-11-19T15:46:09Z</time>
      </trkpt>
      <trkpt lat="43.01477" lon="0.18329">
        <ele>698.4</ele>
        <time>2023-11-19T15:46:10Z</time>
      </trkpt>
      <trkpt lat="43.01478" lon="0.18328">
        <ele>698.2</ele>
        <time>2023-11-19T15:46:11Z</time>
      </trkpt>
      <trkpt lat="43.01481" lon="0.18326">
        <ele>697.8</ele>
        <time>2023-11-19T15:46:12Z</time>
      </trkpt>
      <trkpt lat="43.01482" lon="0.18325">
        <ele>697.7</ele>
        <time>2023-11-19T15:46:13Z</time>
      </trkpt>
      <trkpt lat="43.01485" lon="0.18325">
        <ele>697.2</ele>
        <time>2023-11-19T15:46:14Z</time>
      </trkpt>
      <trkpt lat="43.01486" lon="0.18324">
        <ele>697.1</ele>
        <time>2023-11-19T15:46:15Z</time>
      </trkpt>
      <trkpt lat="43.01489" lon="0.18322">
        <ele>696.8</ele>
        <time>2023-11-19T15:46:16Z</time>
      </trkpt>
      <trkpt lat="43.01489" lon="0.18321">
        <ele>696.6</ele>
        <time>2023-11-19T15:46:17Z</time>
      </trkpt>
      <trkpt lat="43.01491" lon="0.18316">
        <ele>696.1</ele>
        <time>2023-11-19T15:46:18Z</time>
      </trkpt>
      <trkpt lat="43.01492" lon="0.18314">
        <ele>695.9</ele>
        <time>2023-11-19T15:46:19Z</time>
      </trkpt>
      <trkpt lat="43.01494" lon="0.18311">
        <ele>695.5</ele>
        <time>2023-11-19T15:46:20Z</time>
      </trkpt>
      <trkpt lat="43.01494" lon="0.1831">
        <ele>695.4</ele>
        <time>2023-11-19T15:46:21Z</time>
      </trkpt>
      <trkpt lat="43.01497" lon="0.18306">
        <ele>695.1</ele>
        <time>2023-11-19T15:46:22Z</time>
      </trkpt>
      <trkpt lat="43.01497" lon="0.18305">
        <ele>694.9</ele>
        <time>2023-11-19T15:46:23Z</time>
      </trkpt>
      <trkpt lat="43.01499" lon="0.18302">
        <ele>694.6</ele>
        <time>2023-11-19T15:46:24Z</time>
      </trkpt>
      <trkpt lat="43.01501" lon="0.18299">
        <ele>694.3</ele>
        <time>2023-11-19T15:46:25Z</time>
      </trkpt>
      <trkpt lat="43.01502" lon="0.18297">
        <ele>694.2</ele>
        <time>2023-11-19T15:46:26Z</time>
      </trkpt>
      <trkpt lat="43.01504" lon="0.18294">
        <ele>693.9</ele>
        <time>2023-11-19T15:46:27Z</time>
      </trkpt>
      <trkpt lat="43.01505" lon="0.18291">
        <ele>693.6</ele>
        <time>2023-11-19T15:46:28Z</time>
      </trkpt>
      <trkpt lat="43.01505" lon="0.18289">
        <ele>693.5</ele>
        <time>2023-11-19T15:46:29Z</time>
      </trkpt>
      <trkpt lat="43.01508" lon="0.18286">
        <ele>693.2</ele>
        <time>2023-11-19T15:46:30Z</time>
      </trkpt>
      <trkpt lat="43.01508" lon="0.18285">
        <ele>693.1</ele>
        <time>2023-11-19T15:46:31Z</time>
      </trkpt>
      <trkpt lat="43.0151" lon="0.18284">
        <ele>692.9</ele>
        <time>2023-11-19T15:46:32Z</time>
      </trkpt>
      <trkpt lat="43.01511" lon="0.18282">
        <ele>692.7</ele>
        <time>2023-11-19T15:46:33Z</time>
      </trkpt>
      <trkpt lat="43.01514" lon="0.18278">
        <ele>692.3</ele>
        <time>2023-11-19T15:46:34Z</time>
      </trkpt>
      <trkpt lat="43.01515" lon="0.18277">
        <ele>692.2</ele>
        <time>2023-11-19T15:46:35Z</time>
      </trkpt>
      <trkpt lat="43.01515" lon="0.18273">
        <ele>691.8</ele>
        <time>2023-11-19T15:46:36Z</time>
      </trkpt>
      <trkpt lat="43.01516" lon="0.18272">
        <ele>691.8</ele>
        <time>2023-11-19T15:46:37Z</time>
      </trkpt>
      <trkpt lat="43.01517" lon="0.18269">
        <ele>691.4</ele>
        <time>2023-11-19T15:46:38Z</time>
      </trkpt>
      <trkpt lat="43.01518" lon="0.18268">
        <ele>691.3</ele>
        <time>2023-11-19T15:46:39Z</time>
      </trkpt>
      <trkpt lat="43.01518" lon="0.18266">
        <ele>691.2</ele>
        <time>2023-11-19T15:46:40Z</time>
      </trkpt>
      <trkpt lat="43.0152" lon="0.18265">
        <ele>691</ele>
        <time>2023-11-19T15:46:41Z</time>
      </trkpt>
      <trkpt lat="43.01521" lon="0.18264">
        <ele>690.9</ele>
        <time>2023-11-19T15:46:42Z</time>
      </trkpt>
      <trkpt lat="43.01521" lon="0.18263">
        <ele>690.7</ele>
        <time>2023-11-19T15:46:43Z</time>
      </trkpt>
      <trkpt lat="43.01522" lon="0.18261">
        <ele>690.5</ele>
        <time>2023-11-19T15:46:44Z</time>
      </trkpt>
      <trkpt lat="43.01522" lon="0.18258">
        <ele>690.4</ele>
        <time>2023-11-19T15:46:45Z</time>
      </trkpt>
      <trkpt lat="43.01523" lon="0.18257">
        <ele>690.2</ele>
        <time>2023-11-19T15:46:46Z</time>
      </trkpt>
      <trkpt lat="43.01522" lon="0.18255">
        <ele>690.1</ele>
        <time>2023-11-19T15:46:47Z</time>
      </trkpt>
      <trkpt lat="43.01522" lon="0.18255">
        <ele>690</ele>
        <time>2023-11-19T15:46:48Z</time>
      </trkpt>
      <trkpt lat="43.01522" lon="0.18253">
        <ele>689.8</ele>
        <time>2023-11-19T15:46:49Z</time>
      </trkpt>
      <trkpt lat="43.01523" lon="0.18252">
        <ele>689.7</ele>
        <time>2023-11-19T15:46:50Z</time>
      </trkpt>
      <trkpt lat="43.01524" lon="0.18251">
        <ele>689.6</ele>
        <time>2023-11-19T15:46:51Z</time>
      </trkpt>
      <trkpt lat="43.01525" lon="0.1825">
        <ele>689.5</ele>
        <time>2023-11-19T15:46:52Z</time>
      </trkpt>
      <trkpt lat="43.01527" lon="0.18249">
        <ele>689.2</ele>
        <time>2023-11-19T15:46:53Z</time>
      </trkpt>
      <trkpt lat="43.01528" lon="0.18248">
        <ele>689.1</ele>
        <time>2023-11-19T15:46:54Z</time>
      </trkpt>
      <trkpt lat="43.01529" lon="0.18246">
        <ele>688.9</ele>
        <time>2023-11-19T15:46:55Z</time>
      </trkpt>
      <trkpt lat="43.0153" lon="0.18245">
        <ele>688.7</ele>
        <time>2023-11-19T15:46:56Z</time>
      </trkpt>
      <trkpt lat="43.01531" lon="0.18243">
        <ele>688.6</ele>
        <time>2023-11-19T15:46:57Z</time>
      </trkpt>
      <trkpt lat="43.01533" lon="0.18242">
        <ele>688.4</ele>
        <time>2023-11-19T15:46:58Z</time>
      </trkpt>
      <trkpt lat="43.01535" lon="0.1824">
        <ele>688.1</ele>
        <time>2023-11-19T15:46:59Z</time>
      </trkpt>
      <trkpt lat="43.01536" lon="0.18239">
        <ele>688</ele>
        <time>2023-11-19T15:47:00Z</time>
      </trkpt>
      <trkpt lat="43.01538" lon="0.18238">
        <ele>687.9</ele>
        <time>2023-11-19T15:47:01Z</time>
      </trkpt>
      <trkpt lat="43.01539" lon="0.18237">
        <ele>687.8</ele>
        <time>2023-11-19T15:47:02Z</time>
      </trkpt>
      <trkpt lat="43.0154" lon="0.18236">
        <ele>687.7</ele>
        <time>2023-11-19T15:47:03Z</time>
      </trkpt>
      <trkpt lat="43.01542" lon="0.18235">
        <ele>687.5</ele>
        <time>2023-11-19T15:47:04Z</time>
      </trkpt>
      <trkpt lat="43.01542" lon="0.18233">
        <ele>687.4</ele>
        <time>2023-11-19T15:47:05Z</time>
      </trkpt>
      <trkpt lat="43.01543" lon="0.18231">
        <ele>687.4</ele>
        <time>2023-11-19T15:47:06Z</time>
      </trkpt>
      <trkpt lat="43.01543" lon="0.1823">
        <ele>687.3</ele>
        <time>2023-11-19T15:47:07Z</time>
      </trkpt>
      <trkpt lat="43.01545" lon="0.18226">
        <ele>687</ele>
        <time>2023-11-19T15:47:08Z</time>
      </trkpt>
      <trkpt lat="43.01546" lon="0.18223">
        <ele>686.9</ele>
        <time>2023-11-19T15:47:09Z</time>
      </trkpt>
      <trkpt lat="43.01548" lon="0.18219">
        <ele>686.6</ele>
        <time>2023-11-19T15:47:10Z</time>
      </trkpt>
      <trkpt lat="43.01548" lon="0.18218">
        <ele>686.5</ele>
        <time>2023-11-19T15:47:11Z</time>
      </trkpt>
      <trkpt lat="43.01549" lon="0.18213">
        <ele>686.3</ele>
        <time>2023-11-19T15:47:12Z</time>
      </trkpt>
      <trkpt lat="43.01549" lon="0.18212">
        <ele>686.2</ele>
        <time>2023-11-19T15:47:13Z</time>
      </trkpt>
      <trkpt lat="43.01552" lon="0.18211">
        <ele>685.9</ele>
        <time>2023-11-19T15:47:14Z</time>
      </trkpt>
      <trkpt lat="43.01553" lon="0.1821">
        <ele>685.8</ele>
        <time>2023-11-19T15:47:15Z</time>
      </trkpt>
      <trkpt lat="43.01554" lon="0.18208">
        <ele>685.6</ele>
        <time>2023-11-19T15:47:16Z</time>
      </trkpt>
      <trkpt lat="43.01555" lon="0.18206">
        <ele>685.4</ele>
        <time>2023-11-19T15:47:17Z</time>
      </trkpt>
      <trkpt lat="43.01556" lon="0.18203">
        <ele>685.1</ele>
        <time>2023-11-19T15:47:18Z</time>
      </trkpt>
      <trkpt lat="43.01556" lon="0.18201">
        <ele>685</ele>
        <time>2023-11-19T15:47:19Z</time>
      </trkpt>
      <trkpt lat="43.0156" lon="0.18202">
        <ele>684.7</ele>
        <time>2023-11-19T15:47:20Z</time>
      </trkpt>
      <trkpt lat="43.0156" lon="0.18199">
        <ele>684.5</ele>
        <time>2023-11-19T15:47:21Z</time>
      </trkpt>
      <trkpt lat="43.01562" lon="0.18198">
        <ele>684.2</ele>
        <time>2023-11-19T15:47:22Z</time>
      </trkpt>
      <trkpt lat="43.01562" lon="0.18196">
        <ele>684</ele>
        <time>2023-11-19T15:47:23Z</time>
      </trkpt>
      <trkpt lat="43.01563" lon="0.18194">
        <ele>683.8</ele>
        <time>2023-11-19T15:47:24Z</time>
      </trkpt>
      <trkpt lat="43.01564" lon="0.18193">
        <ele>683.6</ele>
        <time>2023-11-19T15:47:25Z</time>
      </trkpt>
      <trkpt lat="43.01566" lon="0.18191">
        <ele>683.4</ele>
        <time>2023-11-19T15:47:26Z</time>
      </trkpt>
      <trkpt lat="43.01567" lon="0.1819">
        <ele>683.2</ele>
        <time>2023-11-19T15:47:27Z</time>
      </trkpt>
      <trkpt lat="43.01568" lon="0.18189">
        <ele>683</ele>
        <time>2023-11-19T15:47:28Z</time>
      </trkpt>
      <trkpt lat="43.01569" lon="0.18188">
        <ele>682.9</ele>
        <time>2023-11-19T15:47:29Z</time>
      </trkpt>
      <trkpt lat="43.01569" lon="0.18186">
        <ele>682.6</ele>
        <time>2023-11-19T15:47:30Z</time>
      </trkpt>
      <trkpt lat="43.01571" lon="0.18185">
        <ele>682.4</ele>
        <time>2023-11-19T15:47:31Z</time>
      </trkpt>
      <trkpt lat="43.01574" lon="0.18183">
        <ele>681.9</ele>
        <time>2023-11-19T15:47:32Z</time>
      </trkpt>
      <trkpt lat="43.01574" lon="0.18181">
        <ele>681.8</ele>
        <time>2023-11-19T15:47:33Z</time>
      </trkpt>
      <trkpt lat="43.01575" lon="0.18179">
        <ele>681.5</ele>
        <time>2023-11-19T15:47:34Z</time>
      </trkpt>
      <trkpt lat="43.01576" lon="0.18178">
        <ele>681.3</ele>
        <time>2023-11-19T15:47:35Z</time>
      </trkpt>
      <trkpt lat="43.01578" lon="0.18177">
        <ele>681</ele>
        <time>2023-11-19T15:47:36Z</time>
      </trkpt>
      <trkpt lat="43.01579" lon="0.18176">
        <ele>680.7</ele>
        <time>2023-11-19T15:47:37Z</time>
      </trkpt>
      <trkpt lat="43.01579" lon="0.18173">
        <ele>680.4</ele>
        <time>2023-11-19T15:47:38Z</time>
      </trkpt>
      <trkpt lat="43.0158" lon="0.18172">
        <ele>680.2</ele>
        <time>2023-11-19T15:47:39Z</time>
      </trkpt>
      <trkpt lat="43.01582" lon="0.18171">
        <ele>679.9</ele>
        <time>2023-11-19T15:47:40Z</time>
      </trkpt>
      <trkpt lat="43.01583" lon="0.1817">
        <ele>679.6</ele>
        <time>2023-11-19T15:47:41Z</time>
      </trkpt>
      <trkpt lat="43.01584" lon="0.18169">
        <ele>679.4</ele>
        <time>2023-11-19T15:47:42Z</time>
      </trkpt>
      <trkpt lat="43.01586" lon="0.18169">
        <ele>679.1</ele>
        <time>2023-11-19T15:47:43Z</time>
      </trkpt>
      <trkpt lat="43.01587" lon="0.18167">
        <ele>678.9</ele>
        <time>2023-11-19T15:47:44Z</time>
      </trkpt>
      <trkpt lat="43.01588" lon="0.18166">
        <ele>678.6</ele>
        <time>2023-11-19T15:47:45Z</time>
      </trkpt>
      <trkpt lat="43.0159" lon="0.18165">
        <ele>678.3</ele>
        <time>2023-11-19T15:47:46Z</time>
      </trkpt>
      <trkpt lat="43.01591" lon="0.18164">
        <ele>678.1</ele>
        <time>2023-11-19T15:47:47Z</time>
      </trkpt>
      <trkpt lat="43.01591" lon="0.18164">
        <ele>678</ele>
        <time>2023-11-19T15:47:48Z</time>
      </trkpt>
      <trkpt lat="43.01593" lon="0.18162">
        <ele>677.5</ele>
        <time>2023-11-19T15:47:49Z</time>
      </trkpt>
      <trkpt lat="43.01593" lon="0.1816">
        <ele>677.4</ele>
        <time>2023-11-19T15:47:50Z</time>
      </trkpt>
      <trkpt lat="43.01594" lon="0.18159">
        <ele>677.2</ele>
        <time>2023-11-19T15:47:51Z</time>
      </trkpt>
      <trkpt lat="43.01594" lon="0.18157">
        <ele>676.8</ele>
        <time>2023-11-19T15:47:52Z</time>
      </trkpt>
      <trkpt lat="43.01594" lon="0.18155">
        <ele>676.7</ele>
        <time>2023-11-19T15:47:53Z</time>
      </trkpt>
      <trkpt lat="43.01596" lon="0.18154">
        <ele>676.4</ele>
        <time>2023-11-19T15:47:54Z</time>
      </trkpt>
      <trkpt lat="43.01597" lon="0.18153">
        <ele>676.1</ele>
        <time>2023-11-19T15:47:55Z</time>
      </trkpt>
      <trkpt lat="43.01597" lon="0.18151">
        <ele>675.9</ele>
        <time>2023-11-19T15:47:56Z</time>
      </trkpt>
      <trkpt lat="43.01597" lon="0.18149">
        <ele>675.5</ele>
        <time>2023-11-19T15:47:57Z</time>
      </trkpt>
      <trkpt lat="43.01598" lon="0.18146">
        <ele>675.1</ele>
        <time>2023-11-19T15:47:58Z</time>
      </trkpt>
      <trkpt lat="43.01599" lon="0.18146">
        <ele>675</ele>
        <time>2023-11-19T15:47:59Z</time>
      </trkpt>
      <trkpt lat="43.01599" lon="0.18145">
        <ele>674.9</ele>
        <time>2023-11-19T15:48:00Z</time>
      </trkpt>
      <trkpt lat="43.01602" lon="0.18145">
        <ele>674.3</ele>
        <time>2023-11-19T15:48:01Z</time>
      </trkpt>
      <trkpt lat="43.01603" lon="0.18144">
        <ele>674.1</ele>
        <time>2023-11-19T15:48:02Z</time>
      </trkpt>
      <trkpt lat="43.01604" lon="0.18141">
        <ele>673.7</ele>
        <time>2023-11-19T15:48:03Z</time>
      </trkpt>
      <trkpt lat="43.01604" lon="0.1814">
        <ele>673.5</ele>
        <time>2023-11-19T15:48:04Z</time>
      </trkpt>
      <trkpt lat="43.01605" lon="0.18139">
        <ele>673.4</ele>
        <time>2023-11-19T15:48:05Z</time>
      </trkpt>
      <trkpt lat="43.01606" lon="0.18139">
        <ele>673.1</ele>
        <time>2023-11-19T15:48:06Z</time>
      </trkpt>
      <trkpt lat="43.01607" lon="0.18138">
        <ele>672.8</ele>
        <time>2023-11-19T15:48:07Z</time>
      </trkpt>
      <trkpt lat="43.01608" lon="0.18138">
        <ele>672.6</ele>
        <time>2023-11-19T15:48:08Z</time>
      </trkpt>
      <trkpt lat="43.01609" lon="0.18137">
        <ele>672.3</ele>
        <time>2023-11-19T15:48:09Z</time>
      </trkpt>
      <trkpt lat="43.01611" lon="0.18137">
        <ele>672.1</ele>
        <time>2023-11-19T15:48:10Z</time>
      </trkpt>
      <trkpt lat="43.01612" lon="0.18134">
        <ele>671.7</ele>
        <time>2023-11-19T15:48:11Z</time>
      </trkpt>
      <trkpt lat="43.01612" lon="0.18133">
        <ele>671.5</ele>
        <time>2023-11-19T15:48:12Z</time>
      </trkpt>
      <trkpt lat="43.01613" lon="0.18132">
        <ele>671.4</ele>
        <time>2023-11-19T15:48:13Z</time>
      </trkpt>
      <trkpt lat="43.01614" lon="0.18132">
        <ele>671.1</ele>
        <time>2023-11-19T15:48:14Z</time>
      </trkpt>
      <trkpt lat="43.01615" lon="0.18129">
        <ele>670.8</ele>
        <time>2023-11-19T15:48:15Z</time>
      </trkpt>
      <trkpt lat="43.01616" lon="0.18128">
        <ele>670.5</ele>
        <time>2023-11-19T15:48:16Z</time>
      </trkpt>
      <trkpt lat="43.01617" lon="0.18127">
        <ele>670.3</ele>
        <time>2023-11-19T15:48:17Z</time>
      </trkpt>
      <trkpt lat="43.01618" lon="0.18125">
        <ele>669.9</ele>
        <time>2023-11-19T15:48:18Z</time>
      </trkpt>
      <trkpt lat="43.01619" lon="0.18124">
        <ele>669.7</ele>
        <time>2023-11-19T15:48:19Z</time>
      </trkpt>
      <trkpt lat="43.01619" lon="0.18122">
        <ele>669.6</ele>
        <time>2023-11-19T15:48:20Z</time>
      </trkpt>
      <trkpt lat="43.01619" lon="0.18119">
        <ele>669.2</ele>
        <time>2023-11-19T15:48:21Z</time>
      </trkpt>
      <trkpt lat="43.01619" lon="0.18118">
        <ele>669</ele>
        <time>2023-11-19T15:48:22Z</time>
      </trkpt>
      <trkpt lat="43.01619" lon="0.18117">
        <ele>668.9</ele>
        <time>2023-11-19T15:48:23Z</time>
      </trkpt>
      <trkpt lat="43.0162" lon="0.18116">
        <ele>668.7</ele>
        <time>2023-11-19T15:48:24Z</time>
      </trkpt>
      <trkpt lat="43.01621" lon="0.18114">
        <ele>668.4</ele>
        <time>2023-11-19T15:48:25Z</time>
      </trkpt>
      <trkpt lat="43.01623" lon="0.18113">
        <ele>668.2</ele>
        <time>2023-11-19T15:48:26Z</time>
      </trkpt>
      <trkpt lat="43.01624" lon="0.18112">
        <ele>668</ele>
        <time>2023-11-19T15:48:27Z</time>
      </trkpt>
      <trkpt lat="43.01624" lon="0.18109">
        <ele>667.7</ele>
        <time>2023-11-19T15:48:28Z</time>
      </trkpt>
      <trkpt lat="43.01625" lon="0.18107">
        <ele>667.5</ele>
        <time>2023-11-19T15:48:29Z</time>
      </trkpt>
      <trkpt lat="43.01626" lon="0.18107">
        <ele>667.4</ele>
        <time>2023-11-19T15:48:30Z</time>
      </trkpt>
      <trkpt lat="43.01626" lon="0.18105">
        <ele>667.2</ele>
        <time>2023-11-19T15:48:31Z</time>
      </trkpt>
      <trkpt lat="43.01625" lon="0.18103">
        <ele>667</ele>
        <time>2023-11-19T15:48:32Z</time>
      </trkpt>
      <trkpt lat="43.01625" lon="0.18101">
        <ele>666.8</ele>
        <time>2023-11-19T15:48:33Z</time>
      </trkpt>
      <trkpt lat="43.01624" lon="0.18099">
        <ele>666.7</ele>
        <time>2023-11-19T15:48:34Z</time>
      </trkpt>
      <trkpt lat="43.01626" lon="0.18097">
        <ele>666.4</ele>
        <time>2023-11-19T15:48:35Z</time>
      </trkpt>
      <trkpt lat="43.01627" lon="0.18096">
        <ele>666.3</ele>
        <time>2023-11-19T15:48:36Z</time>
      </trkpt>
      <trkpt lat="43.01629" lon="0.18095">
        <ele>666.1</ele>
        <time>2023-11-19T15:48:37Z</time>
      </trkpt>
      <trkpt lat="43.0163" lon="0.18094">
        <ele>666</ele>
        <time>2023-11-19T15:48:38Z</time>
      </trkpt>
      <trkpt lat="43.01632" lon="0.18092">
        <ele>665.8</ele>
        <time>2023-11-19T15:48:39Z</time>
      </trkpt>
      <trkpt lat="43.01633" lon="0.18092">
        <ele>665.7</ele>
        <time>2023-11-19T15:48:40Z</time>
      </trkpt>
      <trkpt lat="43.01633" lon="0.18091">
        <ele>665.6</ele>
        <time>2023-11-19T15:48:41Z</time>
      </trkpt>
      <trkpt lat="43.01635" lon="0.18091">
        <ele>665.5</ele>
        <time>2023-11-19T15:48:42Z</time>
      </trkpt>
      <trkpt lat="43.01636" lon="0.1809">
        <ele>665.4</ele>
        <time>2023-11-19T15:48:43Z</time>
      </trkpt>
      <trkpt lat="43.01637" lon="0.1809">
        <ele>665.3</ele>
        <time>2023-11-19T15:48:44Z</time>
      </trkpt>
      <trkpt lat="43.01639" lon="0.18088">
        <ele>665.2</ele>
        <time>2023-11-19T15:48:45Z</time>
      </trkpt>
      <trkpt lat="43.01639" lon="0.18087">
        <ele>665.1</ele>
        <time>2023-11-19T15:48:46Z</time>
      </trkpt>
      <trkpt lat="43.0164" lon="0.18087">
        <ele>665</ele>
        <time>2023-11-19T15:48:47Z</time>
      </trkpt>
      <trkpt lat="43.01641" lon="0.18086">
        <ele>664.9</ele>
        <time>2023-11-19T15:48:48Z</time>
      </trkpt>
      <trkpt lat="43.01643" lon="0.18085">
        <ele>664.8</ele>
        <time>2023-11-19T15:48:49Z</time>
      </trkpt>
      <trkpt lat="43.01644" lon="0.18084">
        <ele>664.7</ele>
        <time>2023-11-19T15:48:50Z</time>
      </trkpt>
      <trkpt lat="43.01644" lon="0.18081">
        <ele>664.6</ele>
        <time>2023-11-19T15:48:51Z</time>
      </trkpt>
      <trkpt lat="43.01645" lon="0.18079">
        <ele>664.4</ele>
        <time>2023-11-19T15:48:52Z</time>
      </trkpt>
      <trkpt lat="43.01646" lon="0.18078">
        <ele>664.3</ele>
        <time>2023-11-19T15:48:53Z</time>
      </trkpt>
      <trkpt lat="43.01646" lon="0.18075">
        <ele>664.2</ele>
        <time>2023-11-19T15:48:54Z</time>
      </trkpt>
      <trkpt lat="43.01646" lon="0.18074">
        <ele>664.1</ele>
        <time>2023-11-19T15:48:55Z</time>
      </trkpt>
      <trkpt lat="43.01647" lon="0.18073">
        <ele>664</ele>
        <time>2023-11-19T15:48:56Z</time>
      </trkpt>
      <trkpt lat="43.01647" lon="0.18071">
        <ele>663.9</ele>
        <time>2023-11-19T15:48:57Z</time>
      </trkpt>
      <trkpt lat="43.01647" lon="0.18069">
        <ele>663.8</ele>
        <time>2023-11-19T15:48:58Z</time>
      </trkpt>
      <trkpt lat="43.01647" lon="0.18067">
        <ele>663.7</ele>
        <time>2023-11-19T15:48:59Z</time>
      </trkpt>
      <trkpt lat="43.01646" lon="0.18065">
        <ele>663.6</ele>
        <time>2023-11-19T15:49:00Z</time>
      </trkpt>
      <trkpt lat="43.01647" lon="0.18062">
        <ele>663.4</ele>
        <time>2023-11-19T15:49:01Z</time>
      </trkpt>
      <trkpt lat="43.01648" lon="0.18061">
        <ele>663.3</ele>
        <time>2023-11-19T15:49:02Z</time>
      </trkpt>
      <trkpt lat="43.01648" lon="0.18061">
        <ele>663.2</ele>
        <time>2023-11-19T15:49:03Z</time>
      </trkpt>
      <trkpt lat="43.0165" lon="0.1806">
        <ele>663.1</ele>
        <time>2023-11-19T15:49:04Z</time>
      </trkpt>
      <trkpt lat="43.01651" lon="0.18059">
        <ele>663</ele>
        <time>2023-11-19T15:49:05Z</time>
      </trkpt>
      <trkpt lat="43.01654" lon="0.18058">
        <ele>662.8</ele>
        <time>2023-11-19T15:49:07Z</time>
      </trkpt>
      <trkpt lat="43.01655" lon="0.18058">
        <ele>662.7</ele>
        <time>2023-11-19T15:49:08Z</time>
      </trkpt>
      <trkpt lat="43.01657" lon="0.18058">
        <ele>662.5</ele>
        <time>2023-11-19T15:49:09Z</time>
      </trkpt>
      <trkpt lat="43.01658" lon="0.18058">
        <ele>662.5</ele>
        <time>2023-11-19T15:49:10Z</time>
      </trkpt>
      <trkpt lat="43.01659" lon="0.18058">
        <ele>662.4</ele>
        <time>2023-11-19T15:49:11Z</time>
      </trkpt>
      <trkpt lat="43.01661" lon="0.18058">
        <ele>662.3</ele>
        <time>2023-11-19T15:49:12Z</time>
      </trkpt>
      <trkpt lat="43.01662" lon="0.18058">
        <ele>662.2</ele>
        <time>2023-11-19T15:49:13Z</time>
      </trkpt>
      <trkpt lat="43.01664" lon="0.18059">
        <ele>662</ele>
        <time>2023-11-19T15:49:14Z</time>
      </trkpt>
      <trkpt lat="43.01665" lon="0.18059">
        <ele>661.9</ele>
        <time>2023-11-19T15:49:15Z</time>
      </trkpt>
      <trkpt lat="43.01666" lon="0.18059">
        <ele>661.9</ele>
        <time>2023-11-19T15:49:16Z</time>
      </trkpt>
      <trkpt lat="43.01667" lon="0.18059">
        <ele>661.8</ele>
        <time>2023-11-19T15:49:17Z</time>
      </trkpt>
      <trkpt lat="43.01668" lon="0.1806">
        <ele>661.7</ele>
        <time>2023-11-19T15:49:18Z</time>
      </trkpt>
      <trkpt lat="43.01669" lon="0.18059">
        <ele>661.6</ele>
        <time>2023-11-19T15:49:19Z</time>
      </trkpt>
      <trkpt lat="43.01669" lon="0.18058">
        <ele>661.6</ele>
        <time>2023-11-19T15:49:20Z</time>
      </trkpt>
      <trkpt lat="43.01671" lon="0.18058">
        <ele>661.3</ele>
        <time>2023-11-19T15:49:21Z</time>
      </trkpt>
      <trkpt lat="43.01674" lon="0.18054">
        <ele>661</ele>
        <time>2023-11-19T15:49:22Z</time>
      </trkpt>
      <trkpt lat="43.01675" lon="0.18053">
        <ele>660.9</ele>
        <time>2023-11-19T15:49:23Z</time>
      </trkpt>
      <trkpt lat="43.01677" lon="0.18052">
        <ele>660.7</ele>
        <time>2023-11-19T15:49:24Z</time>
      </trkpt>
      <trkpt lat="43.01678" lon="0.18051">
        <ele>660.5</ele>
        <time>2023-11-19T15:49:25Z</time>
      </trkpt>
      <trkpt lat="43.01679" lon="0.18049">
        <ele>660.4</ele>
        <time>2023-11-19T15:49:26Z</time>
      </trkpt>
      <trkpt lat="43.0168" lon="0.18048">
        <ele>660.3</ele>
        <time>2023-11-19T15:49:27Z</time>
      </trkpt>
      <trkpt lat="43.01681" lon="0.18048">
        <ele>660.2</ele>
        <time>2023-11-19T15:49:28Z</time>
      </trkpt>
      <trkpt lat="43.01681" lon="0.18047">
        <ele>660.2</ele>
        <time>2023-11-19T15:49:29Z</time>
      </trkpt>
      <trkpt lat="43.01682" lon="0.18046">
        <ele>660</ele>
        <time>2023-11-19T15:49:30Z</time>
      </trkpt>
      <trkpt lat="43.01683" lon="0.18045">
        <ele>660</ele>
        <time>2023-11-19T15:49:31Z</time>
      </trkpt>
      <trkpt lat="43.01683" lon="0.18045">
        <ele>659.9</ele>
        <time>2023-11-19T15:49:32Z</time>
      </trkpt>
      <trkpt lat="43.01684" lon="0.18044">
        <ele>659.8</ele>
        <time>2023-11-19T15:49:33Z</time>
      </trkpt>
      <trkpt lat="43.01684" lon="0.18043">
        <ele>659.8</ele>
        <time>2023-11-19T15:49:34Z</time>
      </trkpt>
      <trkpt lat="43.01685" lon="0.18043">
        <ele>659.7</ele>
        <time>2023-11-19T15:49:35Z</time>
      </trkpt>
      <trkpt lat="43.01686" lon="0.18042">
        <ele>659.6</ele>
        <time>2023-11-19T15:49:36Z</time>
      </trkpt>
      <trkpt lat="43.01687" lon="0.18041">
        <ele>659.5</ele>
        <time>2023-11-19T15:49:37Z</time>
      </trkpt>
      <trkpt lat="43.01688" lon="0.1804">
        <ele>659.4</ele>
        <time>2023-11-19T15:49:38Z</time>
      </trkpt>
      <trkpt lat="43.01688" lon="0.18039">
        <ele>659.3</ele>
        <time>2023-11-19T15:49:39Z</time>
      </trkpt>
      <trkpt lat="43.0169" lon="0.18036">
        <ele>659.1</ele>
        <time>2023-11-19T15:49:40Z</time>
      </trkpt>
      <trkpt lat="43.01691" lon="0.18035">
        <ele>659</ele>
        <time>2023-11-19T15:49:41Z</time>
      </trkpt>
      <trkpt lat="43.01692" lon="0.18034">
        <ele>658.9</ele>
        <time>2023-11-19T15:49:42Z</time>
      </trkpt>
      <trkpt lat="43.01693" lon="0.18033">
        <ele>658.8</ele>
        <time>2023-11-19T15:49:43Z</time>
      </trkpt>
      <trkpt lat="43.01693" lon="0.18031">
        <ele>658.6</ele>
        <time>2023-11-19T15:49:44Z</time>
      </trkpt>
      <trkpt lat="43.01694" lon="0.18029">
        <ele>658.5</ele>
        <time>2023-11-19T15:49:45Z</time>
      </trkpt>
      <trkpt lat="43.01696" lon="0.18027">
        <ele>658.4</ele>
        <time>2023-11-19T15:49:46Z</time>
      </trkpt>
      <trkpt lat="43.01698" lon="0.18027">
        <ele>658.2</ele>
        <time>2023-11-19T15:49:47Z</time>
      </trkpt>
      <trkpt lat="43.01699" lon="0.18027">
        <ele>658.1</ele>
        <time>2023-11-19T15:49:48Z</time>
      </trkpt>
      <trkpt lat="43.01699" lon="0.18027">
        <ele>658.1</ele>
        <time>2023-11-19T15:49:49Z</time>
      </trkpt>
      <trkpt lat="43.01699" lon="0.18027">
        <ele>658</ele>
        <time>2023-11-19T15:49:50Z</time>
      </trkpt>
      <trkpt lat="43.01701" lon="0.18027">
        <ele>657.9</ele>
        <time>2023-11-19T15:49:51Z</time>
      </trkpt>
      <trkpt lat="43.01702" lon="0.18027">
        <ele>657.9</ele>
        <time>2023-11-19T15:49:52Z</time>
      </trkpt>
      <trkpt lat="43.01703" lon="0.18026">
        <ele>657.8</ele>
        <time>2023-11-19T15:49:53Z</time>
      </trkpt>
      <trkpt lat="43.01704" lon="0.18026">
        <ele>657.7</ele>
        <time>2023-11-19T15:49:54Z</time>
      </trkpt>
      <trkpt lat="43.01705" lon="0.18025">
        <ele>657.6</ele>
        <time>2023-11-19T15:49:55Z</time>
      </trkpt>
      <trkpt lat="43.01705" lon="0.18024">
        <ele>657.5</ele>
        <time>2023-11-19T15:49:56Z</time>
      </trkpt>
      <trkpt lat="43.01706" lon="0.18024">
        <ele>657.4</ele>
        <time>2023-11-19T15:49:57Z</time>
      </trkpt>
      <trkpt lat="43.01707" lon="0.18022">
        <ele>657.3</ele>
        <time>2023-11-19T15:49:58Z</time>
      </trkpt>
      <trkpt lat="43.01708" lon="0.18021">
        <ele>657.2</ele>
        <time>2023-11-19T15:49:59Z</time>
      </trkpt>
      <trkpt lat="43.01709" lon="0.18019">
        <ele>657.1</ele>
        <time>2023-11-19T15:50:00Z</time>
      </trkpt>
      <trkpt lat="43.0171" lon="0.18018">
        <ele>657</ele>
        <time>2023-11-19T15:50:01Z</time>
      </trkpt>
      <trkpt lat="43.0171" lon="0.18017">
        <ele>656.9</ele>
        <time>2023-11-19T15:50:02Z</time>
      </trkpt>
      <trkpt lat="43.01711" lon="0.18016">
        <ele>656.8</ele>
        <time>2023-11-19T15:50:03Z</time>
      </trkpt>
      <trkpt lat="43.01711" lon="0.18015">
        <ele>656.8</ele>
        <time>2023-11-19T15:50:04Z</time>
      </trkpt>
      <trkpt lat="43.01712" lon="0.18015">
        <ele>656.7</ele>
        <time>2023-11-19T15:50:05Z</time>
      </trkpt>
      <trkpt lat="43.01711" lon="0.18016">
        <ele>656.7</ele>
        <time>2023-11-19T15:50:06Z</time>
      </trkpt>
      <trkpt lat="43.01711" lon="0.18015">
        <ele>656.6</ele>
        <time>2023-11-19T15:50:07Z</time>
      </trkpt>
      <trkpt lat="43.01711" lon="0.18015">
        <ele>656.6</ele>
        <time>2023-11-19T15:50:08Z</time>
      </trkpt>
      <trkpt lat="43.01711" lon="0.18014">
        <ele>656.5</ele>
        <time>2023-11-19T15:50:09Z</time>
      </trkpt>
      <trkpt lat="43.01711" lon="0.18013">
        <ele>656.5</ele>
        <time>2023-11-19T15:50:10Z</time>
      </trkpt>
      <trkpt lat="43.01711" lon="0.18012">
        <ele>656.4</ele>
        <time>2023-11-19T15:50:11Z</time>
      </trkpt>
      <trkpt lat="43.01712" lon="0.1801">
        <ele>656.1</ele>
        <time>2023-11-19T15:50:12Z</time>
      </trkpt>
      <trkpt lat="43.01712" lon="0.1801">
        <ele>656.1</ele>
        <time>2023-11-19T15:50:13Z</time>
      </trkpt>
      <trkpt lat="43.01712" lon="0.1801">
        <ele>656.1</ele>
        <time>2023-11-19T15:50:14Z</time>
      </trkpt>
      <trkpt lat="43.01712" lon="0.18009">
        <ele>656</ele>
        <time>2023-11-19T15:50:15Z</time>
      </trkpt>
      <trkpt lat="43.01711" lon="0.18008">
        <ele>656</ele>
        <time>2023-11-19T15:50:16Z</time>
      </trkpt>
      <trkpt lat="43.0171" lon="0.18006">
        <ele>656</ele>
        <time>2023-11-19T15:50:17Z</time>
      </trkpt>
      <trkpt lat="43.01709" lon="0.18005">
        <ele>655.9</ele>
        <time>2023-11-19T15:50:18Z</time>
      </trkpt>
      <trkpt lat="43.01708" lon="0.18004">
        <ele>655.9</ele>
        <time>2023-11-19T15:50:19Z</time>
      </trkpt>
      <trkpt lat="43.01707" lon="0.18002">
        <ele>655.8</ele>
        <time>2023-11-19T15:50:20Z</time>
      </trkpt>
      <trkpt lat="43.01707" lon="0.18001">
        <ele>655.8</ele>
        <time>2023-11-19T15:50:21Z</time>
      </trkpt>
      <trkpt lat="43.01706" lon="0.18">
        <ele>655.8</ele>
        <time>2023-11-19T15:50:22Z</time>
      </trkpt>
      <trkpt lat="43.01705" lon="0.17999">
        <ele>655.7</ele>
        <time>2023-11-19T15:50:23Z</time>
      </trkpt>
      <trkpt lat="43.01703" lon="0.17998">
        <ele>655.7</ele>
        <time>2023-11-19T15:50:24Z</time>
      </trkpt>
      <trkpt lat="43.01702" lon="0.17997">
        <ele>655.6</ele>
        <time>2023-11-19T15:50:25Z</time>
      </trkpt>
      <trkpt lat="43.01701" lon="0.17995">
        <ele>655.6</ele>
        <time>2023-11-19T15:50:26Z</time>
      </trkpt>
      <trkpt lat="43.01699" lon="0.17994">
        <ele>655.6</ele>
        <time>2023-11-19T15:50:27Z</time>
      </trkpt>
      <trkpt lat="43.01697" lon="0.17993">
        <ele>655.6</ele>
        <time>2023-11-19T15:50:28Z</time>
      </trkpt>
      <trkpt lat="43.01696" lon="0.17993">
        <ele>655.6</ele>
        <time>2023-11-19T15:50:29Z</time>
      </trkpt>
      <trkpt lat="43.01695" lon="0.17992">
        <ele>655.6</ele>
        <time>2023-11-19T15:50:30Z</time>
      </trkpt>
      <trkpt lat="43.01692" lon="0.17991">
        <ele>655.6</ele>
        <time>2023-11-19T15:50:31Z</time>
      </trkpt>
      <trkpt lat="43.01691" lon="0.17991">
        <ele>655.6</ele>
        <time>2023-11-19T15:50:32Z</time>
      </trkpt>
      <trkpt lat="43.0169" lon="0.1799">
        <ele>655.6</ele>
        <time>2023-11-19T15:50:33Z</time>
      </trkpt>
      <trkpt lat="43.01687" lon="0.1799">
        <ele>655.6</ele>
        <time>2023-11-19T15:50:34Z</time>
      </trkpt>
      <trkpt lat="43.01686" lon="0.17989">
        <ele>655.6</ele>
        <time>2023-11-19T15:50:35Z</time>
      </trkpt>
      <trkpt lat="43.01684" lon="0.17989">
        <ele>655.7</ele>
        <time>2023-11-19T15:50:36Z</time>
      </trkpt>
      <trkpt lat="43.01683" lon="0.17987">
        <ele>655.7</ele>
        <time>2023-11-19T15:50:37Z</time>
      </trkpt>
      <trkpt lat="43.01681" lon="0.17985">
        <ele>655.8</ele>
        <time>2023-11-19T15:50:38Z</time>
      </trkpt>
      <trkpt lat="43.0168" lon="0.17983">
        <ele>655.8</ele>
        <time>2023-11-19T15:50:39Z</time>
      </trkpt>
      <trkpt lat="43.01677" lon="0.1798">
        <ele>655.9</ele>
        <time>2023-11-19T15:50:40Z</time>
      </trkpt>
      <trkpt lat="43.01677" lon="0.17979">
        <ele>655.9</ele>
        <time>2023-11-19T15:50:41Z</time>
      </trkpt>
      <trkpt lat="43.01675" lon="0.17978">
        <ele>655.9</ele>
        <time>2023-11-19T15:50:42Z</time>
      </trkpt>
      <trkpt lat="43.01674" lon="0.17977">
        <ele>655.9</ele>
        <time>2023-11-19T15:50:43Z</time>
      </trkpt>
      <trkpt lat="43.01672" lon="0.17974">
        <ele>656</ele>
        <time>2023-11-19T15:50:44Z</time>
      </trkpt>
      <trkpt lat="43.01671" lon="0.17974">
        <ele>656</ele>
        <time>2023-11-19T15:50:45Z</time>
      </trkpt>
      <trkpt lat="43.01669" lon="0.17971">
        <ele>656</ele>
        <time>2023-11-19T15:50:46Z</time>
      </trkpt>
      <trkpt lat="43.01669" lon="0.17969">
        <ele>656</ele>
        <time>2023-11-19T15:50:47Z</time>
      </trkpt>
      <trkpt lat="43.01668" lon="0.17966">
        <ele>656.1</ele>
        <time>2023-11-19T15:50:48Z</time>
      </trkpt>
      <trkpt lat="43.01669" lon="0.17965">
        <ele>656.1</ele>
        <time>2023-11-19T15:50:49Z</time>
      </trkpt>
      <trkpt lat="43.01669" lon="0.17964">
        <ele>656.1</ele>
        <time>2023-11-19T15:50:50Z</time>
      </trkpt>
      <trkpt lat="43.01669" lon="0.1796">
        <ele>656.2</ele>
        <time>2023-11-19T15:50:51Z</time>
      </trkpt>
      <trkpt lat="43.01669" lon="0.17959">
        <ele>656.2</ele>
        <time>2023-11-19T15:50:52Z</time>
      </trkpt>
      <trkpt lat="43.01672" lon="0.17957">
        <ele>656.3</ele>
        <time>2023-11-19T15:50:53Z</time>
      </trkpt>
      <trkpt lat="43.01673" lon="0.17956">
        <ele>656.3</ele>
        <time>2023-11-19T15:50:54Z</time>
      </trkpt>
      <trkpt lat="43.01675" lon="0.17955">
        <ele>656.3</ele>
        <time>2023-11-19T15:50:55Z</time>
      </trkpt>
      <trkpt lat="43.01676" lon="0.17953">
        <ele>656.3</ele>
        <time>2023-11-19T15:50:56Z</time>
      </trkpt>
      <trkpt lat="43.01677" lon="0.17953">
        <ele>656.3</ele>
        <time>2023-11-19T15:50:57Z</time>
      </trkpt>
      <trkpt lat="43.01678" lon="0.17953">
        <ele>656.4</ele>
        <time>2023-11-19T15:50:58Z</time>
      </trkpt>
      <trkpt lat="43.01679" lon="0.17952">
        <ele>656.4</ele>
        <time>2023-11-19T15:50:59Z</time>
      </trkpt>
      <trkpt lat="43.01681" lon="0.17951">
        <ele>656.4</ele>
        <time>2023-11-19T15:51:00Z</time>
      </trkpt>
      <trkpt lat="43.01681" lon="0.1795">
        <ele>656.4</ele>
        <time>2023-11-19T15:51:01Z</time>
      </trkpt>
      <trkpt lat="43.01682" lon="0.1795">
        <ele>656.4</ele>
        <time>2023-11-19T15:51:02Z</time>
      </trkpt>
      <trkpt lat="43.01683" lon="0.17949">
        <ele>656.4</ele>
        <time>2023-11-19T15:51:03Z</time>
      </trkpt>
      <trkpt lat="43.01684" lon="0.17948">
        <ele>656.5</ele>
        <time>2023-11-19T15:51:04Z</time>
      </trkpt>
      <trkpt lat="43.01685" lon="0.17947">
        <ele>656.5</ele>
        <time>2023-11-19T15:51:05Z</time>
      </trkpt>
      <trkpt lat="43.01687" lon="0.17945">
        <ele>656.5</ele>
        <time>2023-11-19T15:51:06Z</time>
      </trkpt>
      <trkpt lat="43.01688" lon="0.17944">
        <ele>656.5</ele>
        <time>2023-11-19T15:51:07Z</time>
      </trkpt>
      <trkpt lat="43.01688" lon="0.17944">
        <ele>656.5</ele>
        <time>2023-11-19T15:51:08Z</time>
      </trkpt>
      <trkpt lat="43.0169" lon="0.17943">
        <ele>656.6</ele>
        <time>2023-11-19T15:51:09Z</time>
      </trkpt>
      <trkpt lat="43.01689" lon="0.17942">
        <ele>656.6</ele>
        <time>2023-11-19T15:51:10Z</time>
      </trkpt>
      <trkpt lat="43.0169" lon="0.17941">
        <ele>656.6</ele>
        <time>2023-11-19T15:51:11Z</time>
      </trkpt>
      <trkpt lat="43.01693" lon="0.17938">
        <ele>656.7</ele>
        <time>2023-11-19T15:51:13Z</time>
      </trkpt>
      <trkpt lat="43.01693" lon="0.17937">
        <ele>656.7</ele>
        <time>2023-11-19T15:51:14Z</time>
      </trkpt>
      <trkpt lat="43.01694" lon="0.17936">
        <ele>656.7</ele>
        <time>2023-11-19T15:51:15Z</time>
      </trkpt>
      <trkpt lat="43.01695" lon="0.17934">
        <ele>656.7</ele>
        <time>2023-11-19T15:51:16Z</time>
      </trkpt>
      <trkpt lat="43.01695" lon="0.17933">
        <ele>656.8</ele>
        <time>2023-11-19T15:51:17Z</time>
      </trkpt>
      <trkpt lat="43.01696" lon="0.17931">
        <ele>656.8</ele>
        <time>2023-11-19T15:51:18Z</time>
      </trkpt>
      <trkpt lat="43.01697" lon="0.1793">
        <ele>656.9</ele>
        <time>2023-11-19T15:51:19Z</time>
      </trkpt>
      <trkpt lat="43.01698" lon="0.17929">
        <ele>656.9</ele>
        <time>2023-11-19T15:51:20Z</time>
      </trkpt>
      <trkpt lat="43.01698" lon="0.17928">
        <ele>656.9</ele>
        <time>2023-11-19T15:51:21Z</time>
      </trkpt>
      <trkpt lat="43.01698" lon="0.17926">
        <ele>657</ele>
        <time>2023-11-19T15:51:22Z</time>
      </trkpt>
      <trkpt lat="43.01699" lon="0.17925">
        <ele>657</ele>
        <time>2023-11-19T15:51:23Z</time>
      </trkpt>
      <trkpt lat="43.017" lon="0.17923">
        <ele>657.1</ele>
        <time>2023-11-19T15:51:24Z</time>
      </trkpt>
      <trkpt lat="43.01701" lon="0.17922">
        <ele>657.1</ele>
        <time>2023-11-19T15:51:25Z</time>
      </trkpt>
      <trkpt lat="43.01702" lon="0.17921">
        <ele>657.2</ele>
        <time>2023-11-19T15:51:26Z</time>
      </trkpt>
      <trkpt lat="43.01703" lon="0.1792">
        <ele>657.3</ele>
        <time>2023-11-19T15:51:27Z</time>
      </trkpt>
      <trkpt lat="43.01704" lon="0.17918">
        <ele>657.3</ele>
        <time>2023-11-19T15:51:28Z</time>
      </trkpt>
      <trkpt lat="43.01704" lon="0.17916">
        <ele>657.4</ele>
        <time>2023-11-19T15:51:29Z</time>
      </trkpt>
      <trkpt lat="43.01705" lon="0.17914">
        <ele>657.5</ele>
        <time>2023-11-19T15:51:30Z</time>
      </trkpt>
      <trkpt lat="43.01707" lon="0.17912">
        <ele>657.7</ele>
        <time>2023-11-19T15:51:31Z</time>
      </trkpt>
      <trkpt lat="43.01708" lon="0.1791">
        <ele>657.8</ele>
        <time>2023-11-19T15:51:32Z</time>
      </trkpt>
      <trkpt lat="43.01709" lon="0.17909">
        <ele>657.8</ele>
        <time>2023-11-19T15:51:33Z</time>
      </trkpt>
      <trkpt lat="43.01709" lon="0.17909">
        <ele>657.9</ele>
        <time>2023-11-19T15:51:34Z</time>
      </trkpt>
      <trkpt lat="43.0171" lon="0.17907">
        <ele>658</ele>
        <time>2023-11-19T15:51:35Z</time>
      </trkpt>
      <trkpt lat="43.01711" lon="0.17905">
        <ele>658.1</ele>
        <time>2023-11-19T15:51:36Z</time>
      </trkpt>
      <trkpt lat="43.01712" lon="0.17904">
        <ele>658.2</ele>
        <time>2023-11-19T15:51:37Z</time>
      </trkpt>
      <trkpt lat="43.01712" lon="0.17903">
        <ele>658.2</ele>
        <time>2023-11-19T15:51:38Z</time>
      </trkpt>
      <trkpt lat="43.01713" lon="0.17902">
        <ele>658.4</ele>
        <time>2023-11-19T15:51:39Z</time>
      </trkpt>
      <trkpt lat="43.01714" lon="0.179">
        <ele>658.5</ele>
        <time>2023-11-19T15:51:40Z</time>
      </trkpt>
      <trkpt lat="43.01715" lon="0.17898">
        <ele>658.6</ele>
        <time>2023-11-19T15:51:41Z</time>
      </trkpt>
      <trkpt lat="43.01716" lon="0.17897">
        <ele>658.7</ele>
        <time>2023-11-19T15:51:42Z</time>
      </trkpt>
      <trkpt lat="43.01716" lon="0.17896">
        <ele>658.7</ele>
        <time>2023-11-19T15:51:43Z</time>
      </trkpt>
      <trkpt lat="43.01717" lon="0.17893">
        <ele>658.9</ele>
        <time>2023-11-19T15:51:44Z</time>
      </trkpt>
      <trkpt lat="43.01717" lon="0.17892">
        <ele>659</ele>
        <time>2023-11-19T15:51:45Z</time>
      </trkpt>
      <trkpt lat="43.01718" lon="0.17891">
        <ele>659</ele>
        <time>2023-11-19T15:51:46Z</time>
      </trkpt>
      <trkpt lat="43.01718" lon="0.1789">
        <ele>659.1</ele>
        <time>2023-11-19T15:51:47Z</time>
      </trkpt>
      <trkpt lat="43.01719" lon="0.17889">
        <ele>659.1</ele>
        <time>2023-11-19T15:51:48Z</time>
      </trkpt>
      <trkpt lat="43.0172" lon="0.17888">
        <ele>659.3</ele>
        <time>2023-11-19T15:51:49Z</time>
      </trkpt>
      <trkpt lat="43.01721" lon="0.17885">
        <ele>659.3</ele>
        <time>2023-11-19T15:51:50Z</time>
      </trkpt>
      <trkpt lat="43.01721" lon="0.17884">
        <ele>659.3</ele>
        <time>2023-11-19T15:51:51Z</time>
      </trkpt>
      <trkpt lat="43.01721" lon="0.17882">
        <ele>659.3</ele>
        <time>2023-11-19T15:51:52Z</time>
      </trkpt>
      <trkpt lat="43.01723" lon="0.17881">
        <ele>659.3</ele>
        <time>2023-11-19T15:51:53Z</time>
      </trkpt>
      <trkpt lat="43.01724" lon="0.1788">
        <ele>659.2</ele>
        <time>2023-11-19T15:51:54Z</time>
      </trkpt>
      <trkpt lat="43.01725" lon="0.1788">
        <ele>659.2</ele>
        <time>2023-11-19T15:51:55Z</time>
      </trkpt>
      <trkpt lat="43.01727" lon="0.17879">
        <ele>659.2</ele>
        <time>2023-11-19T15:51:56Z</time>
      </trkpt>
      <trkpt lat="43.01729" lon="0.17878">
        <ele>659.2</ele>
        <time>2023-11-19T15:51:57Z</time>
      </trkpt>
      <trkpt lat="43.01729" lon="0.17878">
        <ele>659.1</ele>
        <time>2023-11-19T15:51:58Z</time>
      </trkpt>
      <trkpt lat="43.0173" lon="0.17877">
        <ele>659.1</ele>
        <time>2023-11-19T15:51:59Z</time>
      </trkpt>
      <trkpt lat="43.01731" lon="0.17876">
        <ele>659.1</ele>
        <time>2023-11-19T15:52:00Z</time>
      </trkpt>
      <trkpt lat="43.01732" lon="0.17874">
        <ele>659.1</ele>
        <time>2023-11-19T15:52:01Z</time>
      </trkpt>
      <trkpt lat="43.01733" lon="0.17873">
        <ele>659</ele>
        <time>2023-11-19T15:52:02Z</time>
      </trkpt>
      <trkpt lat="43.01734" lon="0.17871">
        <ele>659</ele>
        <time>2023-11-19T15:52:03Z</time>
      </trkpt>
      <trkpt lat="43.01734" lon="0.17869">
        <ele>659</ele>
        <time>2023-11-19T15:52:04Z</time>
      </trkpt>
      <trkpt lat="43.01735" lon="0.17869">
        <ele>659</ele>
        <time>2023-11-19T15:52:05Z</time>
      </trkpt>
      <trkpt lat="43.01737" lon="0.17869">
        <ele>658.9</ele>
        <time>2023-11-19T15:52:06Z</time>
      </trkpt>
      <trkpt lat="43.01738" lon="0.17868">
        <ele>658.9</ele>
        <time>2023-11-19T15:52:07Z</time>
      </trkpt>
      <trkpt lat="43.01739" lon="0.17868">
        <ele>658.9</ele>
        <time>2023-11-19T15:52:08Z</time>
      </trkpt>
      <trkpt lat="43.0174" lon="0.17867">
        <ele>658.9</ele>
        <time>2023-11-19T15:52:09Z</time>
      </trkpt>
      <trkpt lat="43.01742" lon="0.17868">
        <ele>658.8</ele>
        <time>2023-11-19T15:52:10Z</time>
      </trkpt>
      <trkpt lat="43.01743" lon="0.17869">
        <ele>658.8</ele>
        <time>2023-11-19T15:52:11Z</time>
      </trkpt>
      <trkpt lat="43.01745" lon="0.17867">
        <ele>658.8</ele>
        <time>2023-11-19T15:52:12Z</time>
      </trkpt>
      <trkpt lat="43.01746" lon="0.17866">
        <ele>658.8</ele>
        <time>2023-11-19T15:52:13Z</time>
      </trkpt>
      <trkpt lat="43.01747" lon="0.17862">
        <ele>658.7</ele>
        <time>2023-11-19T15:52:14Z</time>
      </trkpt>
      <trkpt lat="43.01747" lon="0.1786">
        <ele>658.7</ele>
        <time>2023-11-19T15:52:15Z</time>
      </trkpt>
      <trkpt lat="43.01747" lon="0.17859">
        <ele>658.7</ele>
        <time>2023-11-19T15:52:16Z</time>
      </trkpt>
      <trkpt lat="43.01749" lon="0.17858">
        <ele>658.6</ele>
        <time>2023-11-19T15:52:17Z</time>
      </trkpt>
      <trkpt lat="43.01751" lon="0.17856">
        <ele>658.6</ele>
        <time>2023-11-19T15:52:18Z</time>
      </trkpt>
      <trkpt lat="43.01752" lon="0.17856">
        <ele>658.6</ele>
        <time>2023-11-19T15:52:19Z</time>
      </trkpt>
      <trkpt lat="43.01753" lon="0.17855">
        <ele>658.6</ele>
        <time>2023-11-19T15:52:20Z</time>
      </trkpt>
      <trkpt lat="43.01754" lon="0.17853">
        <ele>658.5</ele>
        <time>2023-11-19T15:52:21Z</time>
      </trkpt>
      <trkpt lat="43.01755" lon="0.17853">
        <ele>658.5</ele>
        <time>2023-11-19T15:52:22Z</time>
      </trkpt>
      <trkpt lat="43.01756" lon="0.17852">
        <ele>658.5</ele>
        <time>2023-11-19T15:52:23Z</time>
      </trkpt>
      <trkpt lat="43.01757" lon="0.17852">
        <ele>658.5</ele>
        <time>2023-11-19T15:52:24Z</time>
      </trkpt>
      <trkpt lat="43.01758" lon="0.17852">
        <ele>658.5</ele>
        <time>2023-11-19T15:52:25Z</time>
      </trkpt>
      <trkpt lat="43.01759" lon="0.17851">
        <ele>658.5</ele>
        <time>2023-11-19T15:52:26Z</time>
      </trkpt>
      <trkpt lat="43.01759" lon="0.17851">
        <ele>658.5</ele>
        <time>2023-11-19T15:52:27Z</time>
      </trkpt>
      <trkpt lat="43.0176" lon="0.17849">
        <ele>658.4</ele>
        <time>2023-11-19T15:52:28Z</time>
      </trkpt>
      <trkpt lat="43.01761" lon="0.17848">
        <ele>658.4</ele>
        <time>2023-11-19T15:52:29Z</time>
      </trkpt>
      <trkpt lat="43.01762" lon="0.17846">
        <ele>658.4</ele>
        <time>2023-11-19T15:52:30Z</time>
      </trkpt>
      <trkpt lat="43.01763" lon="0.17846">
        <ele>658.4</ele>
        <time>2023-11-19T15:52:31Z</time>
      </trkpt>
      <trkpt lat="43.01764" lon="0.17845">
        <ele>658.4</ele>
        <time>2023-11-19T15:52:32Z</time>
      </trkpt>
      <trkpt lat="43.01765" lon="0.17844">
        <ele>658.3</ele>
        <time>2023-11-19T15:52:33Z</time>
      </trkpt>
      <trkpt lat="43.01766" lon="0.17843">
        <ele>658.3</ele>
        <time>2023-11-19T15:52:34Z</time>
      </trkpt>
      <trkpt lat="43.01767" lon="0.17842">
        <ele>658.3</ele>
        <time>2023-11-19T15:52:35Z</time>
      </trkpt>
      <trkpt lat="43.01768" lon="0.17841">
        <ele>658.3</ele>
        <time>2023-11-19T15:52:36Z</time>
      </trkpt>
      <trkpt lat="43.01769" lon="0.1784">
        <ele>658.2</ele>
        <time>2023-11-19T15:52:37Z</time>
      </trkpt>
      <trkpt lat="43.0177" lon="0.17841">
        <ele>658.2</ele>
        <time>2023-11-19T15:52:38Z</time>
      </trkpt>
      <trkpt lat="43.0177" lon="0.17842">
        <ele>658.2</ele>
        <time>2023-11-19T15:52:39Z</time>
      </trkpt>
      <trkpt lat="43.01771" lon="0.17843">
        <ele>658.2</ele>
        <time>2023-11-19T15:52:40Z</time>
      </trkpt>
      <trkpt lat="43.0177" lon="0.17843">
        <ele>658.2</ele>
        <time>2023-11-19T15:52:41Z</time>
      </trkpt>
      <trkpt lat="43.01772" lon="0.17841">
        <ele>658.2</ele>
        <time>2023-11-19T15:52:42Z</time>
      </trkpt>
      <trkpt lat="43.01772" lon="0.17839">
        <ele>658.1</ele>
        <time>2023-11-19T15:52:43Z</time>
      </trkpt>
      <trkpt lat="43.01774" lon="0.17837">
        <ele>658.1</ele>
        <time>2023-11-19T15:52:44Z</time>
      </trkpt>
      <trkpt lat="43.01775" lon="0.17837">
        <ele>658.1</ele>
        <time>2023-11-19T15:52:45Z</time>
      </trkpt>
      <trkpt lat="43.01775" lon="0.17836">
        <ele>658.1</ele>
        <time>2023-11-19T15:52:46Z</time>
      </trkpt>
      <trkpt lat="43.01776" lon="0.17836">
        <ele>658</ele>
        <time>2023-11-19T15:52:47Z</time>
      </trkpt>
      <trkpt lat="43.01778" lon="0.17834">
        <ele>658</ele>
        <time>2023-11-19T15:52:48Z</time>
      </trkpt>
      <trkpt lat="43.01779" lon="0.17834">
        <ele>658</ele>
        <time>2023-11-19T15:52:49Z</time>
      </trkpt>
      <trkpt lat="43.01781" lon="0.17833">
        <ele>657.9</ele>
        <time>2023-11-19T15:52:50Z</time>
      </trkpt>
      <trkpt lat="43.01782" lon="0.17833">
        <ele>657.9</ele>
        <time>2023-11-19T15:52:51Z</time>
      </trkpt>
      <trkpt lat="43.01782" lon="0.17832">
        <ele>657.9</ele>
        <time>2023-11-19T15:52:52Z</time>
      </trkpt>
      <trkpt lat="43.01785" lon="0.17831">
        <ele>657.8</ele>
        <time>2023-11-19T15:52:53Z</time>
      </trkpt>
      <trkpt lat="43.01785" lon="0.17831">
        <ele>657.8</ele>
        <time>2023-11-19T15:52:54Z</time>
      </trkpt>
      <trkpt lat="43.01786" lon="0.17831">
        <ele>657.8</ele>
        <time>2023-11-19T15:52:55Z</time>
      </trkpt>
      <trkpt lat="43.01787" lon="0.17831">
        <ele>657.8</ele>
        <time>2023-11-19T15:52:56Z</time>
      </trkpt>
      <trkpt lat="43.01788" lon="0.1783">
        <ele>657.8</ele>
        <time>2023-11-19T15:52:57Z</time>
      </trkpt>
      <trkpt lat="43.01789" lon="0.1783">
        <ele>657.7</ele>
        <time>2023-11-19T15:52:58Z</time>
      </trkpt>
      <trkpt lat="43.0179" lon="0.17829">
        <ele>657.7</ele>
        <time>2023-11-19T15:52:59Z</time>
      </trkpt>
      <trkpt lat="43.01791" lon="0.17829">
        <ele>657.7</ele>
        <time>2023-11-19T15:53:00Z</time>
      </trkpt>
      <trkpt lat="43.01792" lon="0.17828">
        <ele>657.6</ele>
        <time>2023-11-19T15:53:01Z</time>
      </trkpt>
      <trkpt lat="43.01793" lon="0.17827">
        <ele>657.6</ele>
        <time>2023-11-19T15:53:02Z</time>
      </trkpt>
      <trkpt lat="43.01794" lon="0.17826">
        <ele>657.6</ele>
        <time>2023-11-19T15:53:03Z</time>
      </trkpt>
      <trkpt lat="43.01795" lon="0.17826">
        <ele>657.6</ele>
        <time>2023-11-19T15:53:04Z</time>
      </trkpt>
      <trkpt lat="43.01796" lon="0.17825">
        <ele>657.6</ele>
        <time>2023-11-19T15:53:05Z</time>
      </trkpt>
      <trkpt lat="43.01796" lon="0.17824">
        <ele>657.5</ele>
        <time>2023-11-19T15:53:06Z</time>
      </trkpt>
      <trkpt lat="43.01797" lon="0.17824">
        <ele>657.5</ele>
        <time>2023-11-19T15:53:07Z</time>
      </trkpt>
      <trkpt lat="43.01798" lon="0.17824">
        <ele>657.5</ele>
        <time>2023-11-19T15:53:08Z</time>
      </trkpt>
      <trkpt lat="43.01799" lon="0.17823">
        <ele>657.5</ele>
        <time>2023-11-19T15:53:09Z</time>
      </trkpt>
      <trkpt lat="43.01799" lon="0.17823">
        <ele>657.5</ele>
        <time>2023-11-19T15:53:10Z</time>
      </trkpt>
      <trkpt lat="43.018" lon="0.17823">
        <ele>657.5</ele>
        <time>2023-11-19T15:53:11Z</time>
      </trkpt>
      <trkpt lat="43.01799" lon="0.17824">
        <ele>657.5</ele>
        <time>2023-11-19T15:53:12Z</time>
      </trkpt>
      <trkpt lat="43.01799" lon="0.17824">
        <ele>657.5</ele>
        <time>2023-11-19T15:53:13Z</time>
      </trkpt>
      <trkpt lat="43.018" lon="0.17824">
        <ele>657.5</ele>
        <time>2023-11-19T15:53:14Z</time>
      </trkpt>
      <trkpt lat="43.018" lon="0.17824">
        <ele>657.5</ele>
        <time>2023-11-19T15:53:15Z</time>
      </trkpt>
      <trkpt lat="43.018" lon="0.17824">
        <ele>657.5</ele>
        <time>2023-11-19T15:53:16Z</time>
      </trkpt>
      <trkpt lat="43.018" lon="0.17824">
        <ele>657.5</ele>
        <time>2023-11-19T15:53:17Z</time>
      </trkpt>
      <trkpt lat="43.018" lon="0.17824">
        <ele>657.5</ele>
        <time>2023-11-19T15:53:19Z</time>
      </trkpt>
      <trkpt lat="43.018" lon="0.17824">
        <ele>657.5</ele>
        <time>2023-11-19T15:53:20Z</time>
      </trkpt>
      <trkpt lat="43.018" lon="0.17824">
        <ele>657.5</ele>
        <time>2023-11-19T15:53:21Z</time>
      </trkpt>
      <trkpt lat="43.018" lon="0.17824">
        <ele>657.5</ele>
        <time>2023-11-19T15:53:22Z</time>
      </trkpt>
      <trkpt lat="43.018" lon="0.17824">
        <ele>657.5</ele>
        <time>2023-11-19T15:53:23Z</time>
      </trkpt>
      <trkpt lat="43.018" lon="0.17824">
        <ele>657.5</ele>
        <time>2023-11-19T15:53:24Z</time>
      </trkpt>
      <trkpt lat="43.018" lon="0.17824">
        <ele>657.5</ele>
        <time>2023-11-19T15:53:25Z</time>
      </trkpt>
      <trkpt lat="43.018" lon="0.17824">
        <ele>657.5</ele>
        <time>2023-11-19T15:53:26Z</time>
      </trkpt>
      <trkpt lat="43.018" lon="0.17824">
        <ele>657.5</ele>
        <time>2023-11-19T15:53:27Z</time>
      </trkpt>
      <trkpt lat="43.018" lon="0.17824">
        <ele>657.5</ele>
        <time>2023-11-19T15:53:28Z</time>
      </trkpt>
      <trkpt lat="43.018" lon="0.17824">
        <ele>657.5</ele>
        <time>2023-11-19T15:53:29Z</time>
      </trkpt>
      <trkpt lat="43.018" lon="0.17824">
        <ele>657.5</ele>
        <time>2023-11-19T15:53:30Z</time>
      </trkpt>
      <trkpt lat="43.018" lon="0.17824">
        <ele>657.5</ele>
        <time>2023-11-19T15:53:31Z</time>
      </trkpt>
      <trkpt lat="43.018" lon="0.17824">
        <ele>657.5</ele>
        <time>2023-11-19T15:53:32Z</time>
      </trkpt>
      <trkpt lat="43.01799" lon="0.17824">
        <ele>657.5</ele>
        <time>2023-11-19T15:53:33Z</time>
      </trkpt>
      <trkpt lat="43.01799" lon="0.17824">
        <ele>657.5</ele>
        <time>2023-11-19T15:53:34Z</time>
      </trkpt>
      <trkpt lat="43.01799" lon="0.17824">
        <ele>657.5</ele>
        <time>2023-11-19T15:53:35Z</time>
      </trkpt>
      <trkpt lat="43.018" lon="0.17824">
        <ele>657.5</ele>
        <time>2023-11-19T15:53:36Z</time>
      </trkpt>
      <trkpt lat="43.01799" lon="0.17823">
        <ele>657.5</ele>
        <time>2023-11-19T15:53:37Z</time>
      </trkpt>
      <trkpt lat="43.01799" lon="0.17823">
        <ele>657.5</ele>
        <time>2023-11-19T15:53:38Z</time>
      </trkpt>
      <trkpt lat="43.01799" lon="0.17823">
        <ele>657.5</ele>
        <time>2023-11-19T15:53:39Z</time>
      </trkpt>
      <trkpt lat="43.01799" lon="0.17823">
        <ele>657.5</ele>
        <time>2023-11-19T15:53:40Z</time>
      </trkpt>
      <trkpt lat="43.01799" lon="0.17823">
        <ele>657.5</ele>
        <time>2023-11-19T15:53:41Z</time>
      </trkpt>
      <trkpt lat="43.01799" lon="0.17823">
        <ele>657.5</ele>
        <time>2023-11-19T15:53:42Z</time>
      </trkpt>
      <trkpt lat="43.01799" lon="0.17823">
        <ele>657.5</ele>
        <time>2023-11-19T15:53:43Z</time>
      </trkpt>
      <trkpt lat="43.01799" lon="0.17823">
        <ele>657.5</ele>
        <time>2023-11-19T15:53:44Z</time>
      </trkpt>
      <trkpt lat="43.01799" lon="0.17823">
        <ele>657.5</ele>
        <time>2023-11-19T15:53:45Z</time>
      </trkpt>
      <trkpt lat="43.01799" lon="0.17823">
        <ele>657.5</ele>
        <time>2023-11-19T15:53:46Z</time>
      </trkpt>
      <trkpt lat="43.01799" lon="0.17823">
        <ele>657.5</ele>
        <time>2023-11-19T15:53:47Z</time>
      </trkpt>
      <trkpt lat="43.01799" lon="0.17823">
        <ele>657.5</ele>
        <time>2023-11-19T15:53:48Z</time>
      </trkpt>
      <trkpt lat="43.01799" lon="0.17823">
        <ele>657.5</ele>
        <time>2023-11-19T15:53:49Z</time>
      </trkpt>
      <trkpt lat="43.01799" lon="0.17823">
        <ele>657.5</ele>
        <time>2023-11-19T15:53:50Z</time>
      </trkpt>
      <trkpt lat="43.01799" lon="0.17823">
        <ele>657.5</ele>
        <time>2023-11-19T15:53:51Z</time>
      </trkpt>
      <trkpt lat="43.01799" lon="0.17823">
        <ele>657.5</ele>
        <time>2023-11-19T15:53:52Z</time>
      </trkpt>
      <trkpt lat="43.01799" lon="0.17823">
        <ele>657.5</ele>
        <time>2023-11-19T15:53:53Z</time>
      </trkpt>
      <trkpt lat="43.01799" lon="0.17823">
        <ele>657.5</ele>
        <time>2023-11-19T15:53:54Z</time>
      </trkpt>
      <trkpt lat="43.01799" lon="0.17823">
        <ele>657.5</ele>
        <time>2023-11-19T15:53:55Z</time>
      </trkpt>
      <trkpt lat="43.01799" lon="0.17823">
        <ele>657.5</ele>
        <time>2023-11-19T15:53:56Z</time>
      </trkpt>
      <trkpt lat="43.01799" lon="0.17823">
        <ele>657.5</ele>
        <time>2023-11-19T15:53:57Z</time>
      </trkpt>
      <trkpt lat="43.01799" lon="0.17823">
        <ele>657.5</ele>
        <time>2023-11-19T15:53:58Z</time>
      </trkpt>
      <trkpt lat="43.01799" lon="0.17823">
        <ele>657.5</ele>
        <time>2023-11-19T15:53:59Z</time>
      </trkpt>
      <trkpt lat="43.01799" lon="0.17823">
        <ele>657.5</ele>
        <time>2023-11-19T15:54:00Z</time>
      </trkpt>
      <trkpt lat="43.01799" lon="0.17823">
        <ele>657.5</ele>
        <time>2023-11-19T15:54:01Z</time>
      </trkpt>
      <trkpt lat="43.01799" lon="0.17823">
        <ele>657.5</ele>
        <time>2023-11-19T15:54:02Z</time>
      </trkpt>
      <trkpt lat="43.01799" lon="0.17823">
        <ele>657.5</ele>
        <time>2023-11-19T15:54:03Z</time>
      </trkpt>
      <trkpt lat="43.01799" lon="0.17823">
        <ele>657.5</ele>
        <time>2023-11-19T15:54:04Z</time>
      </trkpt>
      <trkpt lat="43.01799" lon="0.17823">
        <ele>657.5</ele>
        <time>2023-11-19T15:54:05Z</time>
      </trkpt>
      <trkpt lat="43.01799" lon="0.17823">
        <ele>657.5</ele>
        <time>2023-11-19T15:54:06Z</time>
      </trkpt>
      <trkpt lat="43.01799" lon="0.17823">
        <ele>657.5</ele>
        <time>2023-11-19T15:54:07Z</time>
      </trkpt>
      <trkpt lat="43.01799" lon="0.17823">
        <ele>657.5</ele>
        <time>2023-11-19T15:54:08Z</time>
      </trkpt>
      <trkpt lat="43.01799" lon="0.17823">
        <ele>657.5</ele>
        <time>2023-11-19T15:54:09Z</time>
      </trkpt>
      <trkpt lat="43.01799" lon="0.17823">
        <ele>657.5</ele>
        <time>2023-11-19T15:54:10Z</time>
      </trkpt>
      <trkpt lat="43.01799" lon="0.17823">
        <ele>657.5</ele>
        <time>2023-11-19T15:54:11Z</time>
      </trkpt>
      <trkpt lat="43.01799" lon="0.17823">
        <ele>657.5</ele>
        <time>2023-11-19T15:54:12Z</time>
      </trkpt>
      <trkpt lat="43.01801" lon="0.17825">
        <ele>657.5</ele>
        <time>2023-11-19T15:54:13Z</time>
      </trkpt>
      <trkpt lat="43.01801" lon="0.17825">
        <ele>657.5</ele>
        <time>2023-11-19T15:54:14Z</time>
      </trkpt>
      <trkpt lat="43.01801" lon="0.17825">
        <ele>657.5</ele>
        <time>2023-11-19T15:54:15Z</time>
      </trkpt>
      <trkpt lat="43.01801" lon="0.17825">
        <ele>657.5</ele>
        <time>2023-11-19T15:54:16Z</time>
      </trkpt>
      <trkpt lat="43.018" lon="0.17825">
        <ele>657.5</ele>
        <time>2023-11-19T15:54:17Z</time>
      </trkpt>
      <trkpt lat="43.018" lon="0.17825">
        <ele>657.5</ele>
        <time>2023-11-19T15:54:18Z</time>
      </trkpt>
      <trkpt lat="43.01799" lon="0.17825">
        <ele>657.4</ele>
        <time>2023-11-19T15:54:19Z</time>
      </trkpt>
      <trkpt lat="43.018" lon="0.17825">
        <ele>657.4</ele>
        <time>2023-11-19T15:54:20Z</time>
      </trkpt>
      <trkpt lat="43.018" lon="0.17825">
        <ele>657.4</ele>
        <time>2023-11-19T15:54:21Z</time>
      </trkpt>
    </trkseg>
  </trk>
</gpx>